<?xml version="1.0" encoding="UTF-8" standalone="no" ?>
<gpx xmlns="http://www.topografix.com/GPX/1/1" xmlns:xsi="http://www.w3.org/2001/XMLSchema-instance" xsi:schemaLocation="http://www.topografix.com/GPX/1/1 http://www.topografix.com/GPX/1/1/gpx.xsd" version="1.1" creator="VisuGPX - https://www.visugpx.com">
  <metadata>
    <name>Une semaine de raquettes à neige en Chablais</name>
    <desc><![CDATA[Six jours de randonnée en raquettes à neige au départ d'Habére-Poche.]]></desc>
  </metadata>
  <trk>
    <name><![CDATA[20190212153829-wVrsA]]></name>
    <trkseg>
      <trkpt lat="46.26832" lon="6.46423">
        <ele>1086.91</ele>
        <time>2019-02-03T08:19:27Z</time>
      </trkpt>
      <trkpt lat="46.26832" lon="6.46423">
        <ele>1085.95</ele>
        <time>2019-02-03T08:19:36Z</time>
      </trkpt>
      <trkpt lat="46.26832" lon="6.46424">
        <ele>1086.43</ele>
        <time>2019-02-03T08:20:08Z</time>
      </trkpt>
      <trkpt lat="46.26833" lon="6.46424">
        <ele>1086.43</ele>
        <time>2019-02-03T08:20:21Z</time>
      </trkpt>
      <trkpt lat="46.26833" lon="6.46424">
        <ele>1086.43</ele>
        <time>2019-02-03T08:20:57Z</time>
      </trkpt>
      <trkpt lat="46.26834" lon="6.46424">
        <ele>1085.95</ele>
        <time>2019-02-03T08:21:38Z</time>
      </trkpt>
      <trkpt lat="46.26833" lon="6.46427">
        <ele>1085.95</ele>
        <time>2019-02-03T08:22:43Z</time>
      </trkpt>
      <trkpt lat="46.26832" lon="6.4643">
        <ele>1086.91</ele>
        <time>2019-02-03T08:23:12Z</time>
      </trkpt>
      <trkpt lat="46.26833" lon="6.46425">
        <ele>1085.95</ele>
        <time>2019-02-03T08:23:25Z</time>
      </trkpt>
      <trkpt lat="46.26832" lon="6.46425">
        <ele>1084.99</ele>
        <time>2019-02-03T08:23:55Z</time>
      </trkpt>
      <trkpt lat="46.26832" lon="6.46424">
        <ele>1084.5</ele>
        <time>2019-02-03T08:24:33Z</time>
      </trkpt>
      <trkpt lat="46.26832" lon="6.46424">
        <ele>1084.5</ele>
        <time>2019-02-03T08:25:15Z</time>
      </trkpt>
      <trkpt lat="46.26831" lon="6.4643">
        <ele>1084.02</ele>
        <time>2019-02-03T08:26:04Z</time>
      </trkpt>
      <trkpt lat="46.26832" lon="6.4643">
        <ele>1083.54</ele>
        <time>2019-02-03T08:26:32Z</time>
      </trkpt>
      <trkpt lat="46.26832" lon="6.4643">
        <ele>1083.06</ele>
        <time>2019-02-03T08:26:34Z</time>
      </trkpt>
      <trkpt lat="46.26832" lon="6.46436">
        <ele>1084.02</ele>
        <time>2019-02-03T08:26:48Z</time>
      </trkpt>
      <trkpt lat="46.26832" lon="6.46437">
        <ele>1083.54</ele>
        <time>2019-02-03T08:27:17Z</time>
      </trkpt>
      <trkpt lat="46.26831" lon="6.46436">
        <ele>1083.06</ele>
        <time>2019-02-03T08:28:08Z</time>
      </trkpt>
      <trkpt lat="46.26831" lon="6.46437">
        <ele>1082.58</ele>
        <time>2019-02-03T08:28:52Z</time>
      </trkpt>
      <trkpt lat="46.26831" lon="6.46436">
        <ele>1082.58</ele>
        <time>2019-02-03T08:29:37Z</time>
      </trkpt>
      <trkpt lat="46.26829" lon="6.46443">
        <ele>1082.1</ele>
        <time>2019-02-03T08:30:29Z</time>
      </trkpt>
      <trkpt lat="46.26831" lon="6.46446">
        <ele>1082.1</ele>
        <time>2019-02-03T08:30:33Z</time>
      </trkpt>
      <trkpt lat="46.26837" lon="6.4646">
        <ele>1082.1</ele>
        <time>2019-02-03T08:30:45Z</time>
      </trkpt>
      <trkpt lat="46.26843" lon="6.46472">
        <ele>1083.06</ele>
        <time>2019-02-03T08:30:57Z</time>
      </trkpt>
      <trkpt lat="46.26851" lon="6.46477">
        <ele>1083.54</ele>
        <time>2019-02-03T08:31:08Z</time>
      </trkpt>
      <trkpt lat="46.2686" lon="6.46482">
        <ele>1084.5</ele>
        <time>2019-02-03T08:31:21Z</time>
      </trkpt>
      <trkpt lat="46.26862" lon="6.46483">
        <ele>1084.5</ele>
        <time>2019-02-03T08:31:24Z</time>
      </trkpt>
      <trkpt lat="46.26873" lon="6.46481">
        <ele>1085.47</ele>
        <time>2019-02-03T08:31:37Z</time>
      </trkpt>
      <trkpt lat="46.26881" lon="6.46477">
        <ele>1086.43</ele>
        <time>2019-02-03T08:31:49Z</time>
      </trkpt>
      <trkpt lat="46.26891" lon="6.46471">
        <ele>1086.91</ele>
        <time>2019-02-03T08:32:01Z</time>
      </trkpt>
      <trkpt lat="46.26898" lon="6.46466">
        <ele>1087.87</ele>
        <time>2019-02-03T08:32:12Z</time>
      </trkpt>
      <trkpt lat="46.26907" lon="6.4646">
        <ele>1088.35</ele>
        <time>2019-02-03T08:32:25Z</time>
      </trkpt>
      <trkpt lat="46.26909" lon="6.46461">
        <ele>1089.31</ele>
        <time>2019-02-03T08:32:39Z</time>
      </trkpt>
      <trkpt lat="46.26911" lon="6.46458">
        <ele>1088.35</ele>
        <time>2019-02-03T08:33:00Z</time>
      </trkpt>
      <trkpt lat="46.26912" lon="6.46456">
        <ele>1088.83</ele>
        <time>2019-02-03T08:33:15Z</time>
      </trkpt>
      <trkpt lat="46.26913" lon="6.46457">
        <ele>1088.83</ele>
        <time>2019-02-03T08:33:25Z</time>
      </trkpt>
      <trkpt lat="46.26915" lon="6.46459">
        <ele>1089.79</ele>
        <time>2019-02-03T08:34:19Z</time>
      </trkpt>
      <trkpt lat="46.2692" lon="6.46468">
        <ele>1089.31</ele>
        <time>2019-02-03T08:34:29Z</time>
      </trkpt>
      <trkpt lat="46.26923" lon="6.46472">
        <ele>1088.35</ele>
        <time>2019-02-03T08:34:44Z</time>
      </trkpt>
      <trkpt lat="46.26923" lon="6.46471">
        <ele>1088.83</ele>
        <time>2019-02-03T08:35:08Z</time>
      </trkpt>
      <trkpt lat="46.26928" lon="6.46476">
        <ele>1088.35</ele>
        <time>2019-02-03T08:35:26Z</time>
      </trkpt>
      <trkpt lat="46.26938" lon="6.46477">
        <ele>1088.83</ele>
        <time>2019-02-03T08:35:39Z</time>
      </trkpt>
      <trkpt lat="46.26946" lon="6.4648">
        <ele>1089.79</ele>
        <time>2019-02-03T08:35:52Z</time>
      </trkpt>
      <trkpt lat="46.26954" lon="6.46485">
        <ele>1089.79</ele>
        <time>2019-02-03T08:36:04Z</time>
      </trkpt>
      <trkpt lat="46.26964" lon="6.46492">
        <ele>1089.79</ele>
        <time>2019-02-03T08:36:17Z</time>
      </trkpt>
      <trkpt lat="46.26965" lon="6.46492">
        <ele>1090.27</ele>
        <time>2019-02-03T08:36:18Z</time>
      </trkpt>
      <trkpt lat="46.26973" lon="6.46497">
        <ele>1090.27</ele>
        <time>2019-02-03T08:36:30Z</time>
      </trkpt>
      <trkpt lat="46.26975" lon="6.46498">
        <ele>1089.79</ele>
        <time>2019-02-03T08:36:33Z</time>
      </trkpt>
      <trkpt lat="46.26979" lon="6.46499">
        <ele>1090.75</ele>
        <time>2019-02-03T08:36:39Z</time>
      </trkpt>
      <trkpt lat="46.26986" lon="6.46501">
        <ele>1091.23</ele>
        <time>2019-02-03T08:36:54Z</time>
      </trkpt>
      <trkpt lat="46.26992" lon="6.46502">
        <ele>1091.23</ele>
        <time>2019-02-03T08:37:01Z</time>
      </trkpt>
      <trkpt lat="46.27002" lon="6.46504">
        <ele>1091.23</ele>
        <time>2019-02-03T08:37:14Z</time>
      </trkpt>
      <trkpt lat="46.2701" lon="6.46502">
        <ele>1090.75</ele>
        <time>2019-02-03T08:37:26Z</time>
      </trkpt>
      <trkpt lat="46.27018" lon="6.46501">
        <ele>1090.75</ele>
        <time>2019-02-03T08:37:39Z</time>
      </trkpt>
      <trkpt lat="46.27027" lon="6.46504">
        <ele>1091.71</ele>
        <time>2019-02-03T08:37:53Z</time>
      </trkpt>
      <trkpt lat="46.27035" lon="6.46512">
        <ele>1090.75</ele>
        <time>2019-02-03T08:38:07Z</time>
      </trkpt>
      <trkpt lat="46.27036" lon="6.46514">
        <ele>1090.75</ele>
        <time>2019-02-03T08:38:10Z</time>
      </trkpt>
      <trkpt lat="46.27041" lon="6.46526">
        <ele>1090.75</ele>
        <time>2019-02-03T08:38:27Z</time>
      </trkpt>
      <trkpt lat="46.27045" lon="6.46536">
        <ele>1091.23</ele>
        <time>2019-02-03T08:38:40Z</time>
      </trkpt>
      <trkpt lat="46.27049" lon="6.46545">
        <ele>1091.71</ele>
        <time>2019-02-03T08:38:54Z</time>
      </trkpt>
      <trkpt lat="46.27051" lon="6.46555">
        <ele>1092.68</ele>
        <time>2019-02-03T08:39:08Z</time>
      </trkpt>
      <trkpt lat="46.27057" lon="6.46564">
        <ele>1093.64</ele>
        <time>2019-02-03T08:39:21Z</time>
      </trkpt>
      <trkpt lat="46.27059" lon="6.46576">
        <ele>1094.6</ele>
        <time>2019-02-03T08:39:32Z</time>
      </trkpt>
      <trkpt lat="46.27061" lon="6.46586">
        <ele>1094.12</ele>
        <time>2019-02-03T08:39:41Z</time>
      </trkpt>
      <trkpt lat="46.27062" lon="6.46589">
        <ele>1095.56</ele>
        <time>2019-02-03T08:39:43Z</time>
      </trkpt>
      <trkpt lat="46.27066" lon="6.46596">
        <ele>1094.6</ele>
        <time>2019-02-03T08:39:56Z</time>
      </trkpt>
      <trkpt lat="46.27069" lon="6.46598">
        <ele>1094.6</ele>
        <time>2019-02-03T08:40:08Z</time>
      </trkpt>
      <trkpt lat="46.27076" lon="6.466">
        <ele>1095.08</ele>
        <time>2019-02-03T08:40:20Z</time>
      </trkpt>
      <trkpt lat="46.27082" lon="6.46601">
        <ele>1095.08</ele>
        <time>2019-02-03T08:40:29Z</time>
      </trkpt>
      <trkpt lat="46.27087" lon="6.46603">
        <ele>1095.56</ele>
        <time>2019-02-03T08:40:41Z</time>
      </trkpt>
      <trkpt lat="46.27093" lon="6.46605">
        <ele>1095.56</ele>
        <time>2019-02-03T08:40:54Z</time>
      </trkpt>
      <trkpt lat="46.27101" lon="6.46606">
        <ele>1095.56</ele>
        <time>2019-02-03T08:41:07Z</time>
      </trkpt>
      <trkpt lat="46.27109" lon="6.46608">
        <ele>1096.04</ele>
        <time>2019-02-03T08:41:22Z</time>
      </trkpt>
      <trkpt lat="46.27114" lon="6.46611">
        <ele>1096.52</ele>
        <time>2019-02-03T08:41:29Z</time>
      </trkpt>
      <trkpt lat="46.2712" lon="6.46613">
        <ele>1096.04</ele>
        <time>2019-02-03T08:41:44Z</time>
      </trkpt>
      <trkpt lat="46.27121" lon="6.46613">
        <ele>1096.04</ele>
        <time>2019-02-03T08:41:47Z</time>
      </trkpt>
      <trkpt lat="46.27129" lon="6.46615">
        <ele>1097.48</ele>
        <time>2019-02-03T08:42:00Z</time>
      </trkpt>
      <trkpt lat="46.2713" lon="6.46614">
        <ele>1096.52</ele>
        <time>2019-02-03T08:42:02Z</time>
      </trkpt>
      <trkpt lat="46.27136" lon="6.46617">
        <ele>1096.52</ele>
        <time>2019-02-03T08:42:15Z</time>
      </trkpt>
      <trkpt lat="46.27137" lon="6.46617">
        <ele>1096.04</ele>
        <time>2019-02-03T08:42:16Z</time>
      </trkpt>
      <trkpt lat="46.27138" lon="6.46617">
        <ele>1096.52</ele>
        <time>2019-02-03T08:42:20Z</time>
      </trkpt>
      <trkpt lat="46.27145" lon="6.46619">
        <ele>1097</ele>
        <time>2019-02-03T08:42:33Z</time>
      </trkpt>
      <trkpt lat="46.27152" lon="6.4662">
        <ele>1097.48</ele>
        <time>2019-02-03T08:42:46Z</time>
      </trkpt>
      <trkpt lat="46.27156" lon="6.46621">
        <ele>1097.48</ele>
        <time>2019-02-03T08:43:03Z</time>
      </trkpt>
      <trkpt lat="46.27165" lon="6.46621">
        <ele>1097.48</ele>
        <time>2019-02-03T08:43:16Z</time>
      </trkpt>
      <trkpt lat="46.27172" lon="6.46617">
        <ele>1097.48</ele>
        <time>2019-02-03T08:43:27Z</time>
      </trkpt>
      <trkpt lat="46.27177" lon="6.46613">
        <ele>1097.48</ele>
        <time>2019-02-03T08:43:39Z</time>
      </trkpt>
      <trkpt lat="46.27182" lon="6.4661">
        <ele>1097.48</ele>
        <time>2019-02-03T08:43:51Z</time>
      </trkpt>
      <trkpt lat="46.27188" lon="6.46607">
        <ele>1097.96</ele>
        <time>2019-02-03T08:44:03Z</time>
      </trkpt>
      <trkpt lat="46.27188" lon="6.46607">
        <ele>1097.48</ele>
        <time>2019-02-03T08:44:57Z</time>
      </trkpt>
      <trkpt lat="46.27187" lon="6.46607">
        <ele>1097.48</ele>
        <time>2019-02-03T08:45:15Z</time>
      </trkpt>
      <trkpt lat="46.27193" lon="6.46605">
        <ele>1097.96</ele>
        <time>2019-02-03T08:46:37Z</time>
      </trkpt>
      <trkpt lat="46.272" lon="6.46598">
        <ele>1097</ele>
        <time>2019-02-03T08:46:50Z</time>
      </trkpt>
      <trkpt lat="46.27204" lon="6.46595">
        <ele>1096.04</ele>
        <time>2019-02-03T08:47:03Z</time>
      </trkpt>
      <trkpt lat="46.2721" lon="6.46598">
        <ele>1097</ele>
        <time>2019-02-03T08:47:14Z</time>
      </trkpt>
      <trkpt lat="46.27213" lon="6.46598">
        <ele>1097</ele>
        <time>2019-02-03T08:47:26Z</time>
      </trkpt>
      <trkpt lat="46.27221" lon="6.46597">
        <ele>1097</ele>
        <time>2019-02-03T08:47:35Z</time>
      </trkpt>
      <trkpt lat="46.27229" lon="6.46598">
        <ele>1097.48</ele>
        <time>2019-02-03T08:47:47Z</time>
      </trkpt>
      <trkpt lat="46.27234" lon="6.46601">
        <ele>1098.44</ele>
        <time>2019-02-03T08:48:00Z</time>
      </trkpt>
      <trkpt lat="46.27239" lon="6.46603">
        <ele>1098.92</ele>
        <time>2019-02-03T08:48:11Z</time>
      </trkpt>
      <trkpt lat="46.27248" lon="6.466">
        <ele>1098.44</ele>
        <time>2019-02-03T08:48:22Z</time>
      </trkpt>
      <trkpt lat="46.27257" lon="6.466">
        <ele>1098.44</ele>
        <time>2019-02-03T08:48:34Z</time>
      </trkpt>
      <trkpt lat="46.27262" lon="6.466">
        <ele>1098.44</ele>
        <time>2019-02-03T08:48:41Z</time>
      </trkpt>
      <trkpt lat="46.27273" lon="6.466">
        <ele>1100.37</ele>
        <time>2019-02-03T08:48:54Z</time>
      </trkpt>
      <trkpt lat="46.27283" lon="6.466">
        <ele>1100.37</ele>
        <time>2019-02-03T08:49:07Z</time>
      </trkpt>
      <trkpt lat="46.27291" lon="6.46601">
        <ele>1100.37</ele>
        <time>2019-02-03T08:49:17Z</time>
      </trkpt>
      <trkpt lat="46.27295" lon="6.46602">
        <ele>1100.85</ele>
        <time>2019-02-03T08:49:22Z</time>
      </trkpt>
      <trkpt lat="46.27305" lon="6.46604">
        <ele>1101.33</ele>
        <time>2019-02-03T08:49:35Z</time>
      </trkpt>
      <trkpt lat="46.27307" lon="6.46605">
        <ele>1101.33</ele>
        <time>2019-02-03T08:49:37Z</time>
      </trkpt>
      <trkpt lat="46.27317" lon="6.46607">
        <ele>1101.33</ele>
        <time>2019-02-03T08:49:49Z</time>
      </trkpt>
      <trkpt lat="46.27323" lon="6.46609">
        <ele>1100.37</ele>
        <time>2019-02-03T08:49:59Z</time>
      </trkpt>
      <trkpt lat="46.27332" lon="6.46611">
        <ele>1102.77</ele>
        <time>2019-02-03T08:50:11Z</time>
      </trkpt>
      <trkpt lat="46.27342" lon="6.46614">
        <ele>1102.77</ele>
        <time>2019-02-03T08:50:23Z</time>
      </trkpt>
      <trkpt lat="46.27351" lon="6.46617">
        <ele>1102.77</ele>
        <time>2019-02-03T08:50:35Z</time>
      </trkpt>
      <trkpt lat="46.27354" lon="6.46617">
        <ele>1103.25</ele>
        <time>2019-02-03T08:50:39Z</time>
      </trkpt>
      <trkpt lat="46.27366" lon="6.46619">
        <ele>1103.73</ele>
        <time>2019-02-03T08:50:53Z</time>
      </trkpt>
      <trkpt lat="46.27376" lon="6.46621">
        <ele>1104.21</ele>
        <time>2019-02-03T08:51:05Z</time>
      </trkpt>
      <trkpt lat="46.27386" lon="6.46623">
        <ele>1104.69</ele>
        <time>2019-02-03T08:51:17Z</time>
      </trkpt>
      <trkpt lat="46.27389" lon="6.46624">
        <ele>1104.69</ele>
        <time>2019-02-03T08:51:21Z</time>
      </trkpt>
      <trkpt lat="46.27398" lon="6.46628">
        <ele>1104.21</ele>
        <time>2019-02-03T08:51:34Z</time>
      </trkpt>
      <trkpt lat="46.27408" lon="6.46631">
        <ele>1105.17</ele>
        <time>2019-02-03T08:51:46Z</time>
      </trkpt>
      <trkpt lat="46.27409" lon="6.46632">
        <ele>1105.65</ele>
        <time>2019-02-03T08:51:47Z</time>
      </trkpt>
      <trkpt lat="46.27412" lon="6.46633">
        <ele>1105.65</ele>
        <time>2019-02-03T08:51:51Z</time>
      </trkpt>
      <trkpt lat="46.27419" lon="6.46639">
        <ele>1106.61</ele>
        <time>2019-02-03T08:52:03Z</time>
      </trkpt>
      <trkpt lat="46.27426" lon="6.46642">
        <ele>1107.58</ele>
        <time>2019-02-03T08:52:12Z</time>
      </trkpt>
      <trkpt lat="46.27435" lon="6.46648">
        <ele>1107.58</ele>
        <time>2019-02-03T08:52:24Z</time>
      </trkpt>
      <trkpt lat="46.27443" lon="6.46653">
        <ele>1108.06</ele>
        <time>2019-02-03T08:52:35Z</time>
      </trkpt>
      <trkpt lat="46.27451" lon="6.46658">
        <ele>1108.06</ele>
        <time>2019-02-03T08:52:47Z</time>
      </trkpt>
      <trkpt lat="46.27458" lon="6.46664">
        <ele>1109.02</ele>
        <time>2019-02-03T08:52:58Z</time>
      </trkpt>
      <trkpt lat="46.27463" lon="6.46675">
        <ele>1109.02</ele>
        <time>2019-02-03T08:53:10Z</time>
      </trkpt>
      <trkpt lat="46.27468" lon="6.46681">
        <ele>1109.98</ele>
        <time>2019-02-03T08:53:21Z</time>
      </trkpt>
      <trkpt lat="46.27474" lon="6.46685">
        <ele>1110.46</ele>
        <time>2019-02-03T08:53:33Z</time>
      </trkpt>
      <trkpt lat="46.27479" lon="6.4669">
        <ele>1110.94</ele>
        <time>2019-02-03T08:53:44Z</time>
      </trkpt>
      <trkpt lat="46.27482" lon="6.46691">
        <ele>1111.9</ele>
        <time>2019-02-03T08:53:55Z</time>
      </trkpt>
      <trkpt lat="46.27487" lon="6.46692">
        <ele>1112.38</ele>
        <time>2019-02-03T08:54:06Z</time>
      </trkpt>
      <trkpt lat="46.2749" lon="6.46694">
        <ele>1113.34</ele>
        <time>2019-02-03T08:54:16Z</time>
      </trkpt>
      <trkpt lat="46.27493" lon="6.46695">
        <ele>1114.31</ele>
        <time>2019-02-03T08:54:27Z</time>
      </trkpt>
      <trkpt lat="46.27496" lon="6.46695">
        <ele>1112.86</ele>
        <time>2019-02-03T08:54:43Z</time>
      </trkpt>
      <trkpt lat="46.27496" lon="6.46696">
        <ele>1115.27</ele>
        <time>2019-02-03T08:54:52Z</time>
      </trkpt>
      <trkpt lat="46.27497" lon="6.46695">
        <ele>1112.38</ele>
        <time>2019-02-03T08:55:07Z</time>
      </trkpt>
      <trkpt lat="46.27501" lon="6.46697">
        <ele>1114.31</ele>
        <time>2019-02-03T08:55:25Z</time>
      </trkpt>
      <trkpt lat="46.27504" lon="6.467">
        <ele>1113.82</ele>
        <time>2019-02-03T08:55:38Z</time>
      </trkpt>
      <trkpt lat="46.27504" lon="6.46704">
        <ele>1116.23</ele>
        <time>2019-02-03T08:55:42Z</time>
      </trkpt>
      <trkpt lat="46.27509" lon="6.46715">
        <ele>1115.27</ele>
        <time>2019-02-03T08:55:54Z</time>
      </trkpt>
      <trkpt lat="46.2751" lon="6.46716">
        <ele>1115.27</ele>
        <time>2019-02-03T08:55:55Z</time>
      </trkpt>
      <trkpt lat="46.27515" lon="6.46726">
        <ele>1115.75</ele>
        <time>2019-02-03T08:56:07Z</time>
      </trkpt>
      <trkpt lat="46.27523" lon="6.4673">
        <ele>1117.19</ele>
        <time>2019-02-03T08:56:20Z</time>
      </trkpt>
      <trkpt lat="46.27531" lon="6.46733">
        <ele>1118.15</ele>
        <time>2019-02-03T08:56:31Z</time>
      </trkpt>
      <trkpt lat="46.27534" lon="6.46734">
        <ele>1116.71</ele>
        <time>2019-02-03T08:56:36Z</time>
      </trkpt>
      <trkpt lat="46.27537" lon="6.46735">
        <ele>1118.15</ele>
        <time>2019-02-03T08:56:40Z</time>
      </trkpt>
      <trkpt lat="46.27541" lon="6.46738">
        <ele>1119.59</ele>
        <time>2019-02-03T08:56:48Z</time>
      </trkpt>
      <trkpt lat="46.27541" lon="6.46738">
        <ele>1119.59</ele>
        <time>2019-02-03T08:56:49Z</time>
      </trkpt>
      <trkpt lat="46.27544" lon="6.46741">
        <ele>1119.11</ele>
        <time>2019-02-03T08:56:58Z</time>
      </trkpt>
      <trkpt lat="46.27545" lon="6.46748">
        <ele>1120.07</ele>
        <time>2019-02-03T08:57:07Z</time>
      </trkpt>
      <trkpt lat="46.27546" lon="6.4676">
        <ele>1120.55</ele>
        <time>2019-02-03T08:57:21Z</time>
      </trkpt>
      <trkpt lat="46.2755" lon="6.46769">
        <ele>1121.03</ele>
        <time>2019-02-03T08:57:34Z</time>
      </trkpt>
      <trkpt lat="46.27552" lon="6.46772">
        <ele>1122.48</ele>
        <time>2019-02-03T08:57:50Z</time>
      </trkpt>
      <trkpt lat="46.27551" lon="6.46773">
        <ele>1121.52</ele>
        <time>2019-02-03T08:58:55Z</time>
      </trkpt>
      <trkpt lat="46.27551" lon="6.46773">
        <ele>1120.55</ele>
        <time>2019-02-03T09:00:06Z</time>
      </trkpt>
      <trkpt lat="46.27552" lon="6.46775">
        <ele>1120.07</ele>
        <time>2019-02-03T09:01:35Z</time>
      </trkpt>
      <trkpt lat="46.27553" lon="6.46779">
        <ele>1120.07</ele>
        <time>2019-02-03T09:01:57Z</time>
      </trkpt>
      <trkpt lat="46.27554" lon="6.46783">
        <ele>1120.55</ele>
        <time>2019-02-03T09:02:16Z</time>
      </trkpt>
      <trkpt lat="46.27556" lon="6.4679">
        <ele>1121.52</ele>
        <time>2019-02-03T09:02:31Z</time>
      </trkpt>
      <trkpt lat="46.27557" lon="6.46799">
        <ele>1122.96</ele>
        <time>2019-02-03T09:02:46Z</time>
      </trkpt>
      <trkpt lat="46.27554" lon="6.4681">
        <ele>1124.4</ele>
        <time>2019-02-03T09:02:59Z</time>
      </trkpt>
      <trkpt lat="46.2755" lon="6.46815">
        <ele>1125.84</ele>
        <time>2019-02-03T09:03:20Z</time>
      </trkpt>
      <trkpt lat="46.27541" lon="6.46828">
        <ele>1127.76</ele>
        <time>2019-02-03T09:03:31Z</time>
      </trkpt>
      <trkpt lat="46.27531" lon="6.46837">
        <ele>1128.24</ele>
        <time>2019-02-03T09:03:43Z</time>
      </trkpt>
      <trkpt lat="46.27525" lon="6.46842">
        <ele>1129.21</ele>
        <time>2019-02-03T09:03:56Z</time>
      </trkpt>
      <trkpt lat="46.27519" lon="6.46846">
        <ele>1131.61</ele>
        <time>2019-02-03T09:04:12Z</time>
      </trkpt>
      <trkpt lat="46.27515" lon="6.46849">
        <ele>1132.57</ele>
        <time>2019-02-03T09:04:25Z</time>
      </trkpt>
      <trkpt lat="46.27511" lon="6.46853">
        <ele>1134.49</ele>
        <time>2019-02-03T09:04:39Z</time>
      </trkpt>
      <trkpt lat="46.27504" lon="6.4686">
        <ele>1134.97</ele>
        <time>2019-02-03T09:04:55Z</time>
      </trkpt>
      <trkpt lat="46.27497" lon="6.46867">
        <ele>1136.9</ele>
        <time>2019-02-03T09:05:09Z</time>
      </trkpt>
      <trkpt lat="46.27494" lon="6.4687">
        <ele>1137.38</ele>
        <time>2019-02-03T09:05:24Z</time>
      </trkpt>
      <trkpt lat="46.27489" lon="6.46872">
        <ele>1139.78</ele>
        <time>2019-02-03T09:05:39Z</time>
      </trkpt>
      <trkpt lat="46.27484" lon="6.46877">
        <ele>1141.22</ele>
        <time>2019-02-03T09:05:56Z</time>
      </trkpt>
      <trkpt lat="46.27474" lon="6.46884">
        <ele>1142.18</ele>
        <time>2019-02-03T09:06:19Z</time>
      </trkpt>
      <trkpt lat="46.27468" lon="6.46892">
        <ele>1144.11</ele>
        <time>2019-02-03T09:06:32Z</time>
      </trkpt>
      <trkpt lat="46.27463" lon="6.46901">
        <ele>1146.03</ele>
        <time>2019-02-03T09:06:48Z</time>
      </trkpt>
      <trkpt lat="46.27459" lon="6.46908">
        <ele>1147.47</ele>
        <time>2019-02-03T09:07:03Z</time>
      </trkpt>
      <trkpt lat="46.27454" lon="6.46914">
        <ele>1149.39</ele>
        <time>2019-02-03T09:07:16Z</time>
      </trkpt>
      <trkpt lat="46.27452" lon="6.46917">
        <ele>1150.35</ele>
        <time>2019-02-03T09:07:29Z</time>
      </trkpt>
      <trkpt lat="46.27448" lon="6.46921">
        <ele>1152.28</ele>
        <time>2019-02-03T09:07:47Z</time>
      </trkpt>
      <trkpt lat="46.27442" lon="6.46927">
        <ele>1153.72</ele>
        <time>2019-02-03T09:07:58Z</time>
      </trkpt>
      <trkpt lat="46.27437" lon="6.46932">
        <ele>1154.68</ele>
        <time>2019-02-03T09:08:16Z</time>
      </trkpt>
      <trkpt lat="46.27435" lon="6.46937">
        <ele>1156.6</ele>
        <time>2019-02-03T09:08:31Z</time>
      </trkpt>
      <trkpt lat="46.27431" lon="6.46945">
        <ele>1158.05</ele>
        <time>2019-02-03T09:08:48Z</time>
      </trkpt>
      <trkpt lat="46.27429" lon="6.46947">
        <ele>1159.01</ele>
        <time>2019-02-03T09:09:30Z</time>
      </trkpt>
      <trkpt lat="46.27429" lon="6.46947">
        <ele>1158.53</ele>
        <time>2019-02-03T09:10:34Z</time>
      </trkpt>
      <trkpt lat="46.27428" lon="6.46947">
        <ele>1159.01</ele>
        <time>2019-02-03T09:11:00Z</time>
      </trkpt>
      <trkpt lat="46.27423" lon="6.46955">
        <ele>1160.45</ele>
        <time>2019-02-03T09:13:02Z</time>
      </trkpt>
      <trkpt lat="46.27418" lon="6.4696">
        <ele>1161.89</ele>
        <time>2019-02-03T09:13:14Z</time>
      </trkpt>
      <trkpt lat="46.27415" lon="6.46965">
        <ele>1163.33</ele>
        <time>2019-02-03T09:13:29Z</time>
      </trkpt>
      <trkpt lat="46.2741" lon="6.46971">
        <ele>1165.26</ele>
        <time>2019-02-03T09:13:45Z</time>
      </trkpt>
      <trkpt lat="46.27399" lon="6.4698">
        <ele>1165.26</ele>
        <time>2019-02-03T09:14:00Z</time>
      </trkpt>
      <trkpt lat="46.27394" lon="6.46986">
        <ele>1166.22</ele>
        <time>2019-02-03T09:14:12Z</time>
      </trkpt>
      <trkpt lat="46.27393" lon="6.4699">
        <ele>1167.66</ele>
        <time>2019-02-03T09:14:23Z</time>
      </trkpt>
      <trkpt lat="46.2739" lon="6.46997">
        <ele>1169.1</ele>
        <time>2019-02-03T09:14:35Z</time>
      </trkpt>
      <trkpt lat="46.27386" lon="6.47001">
        <ele>1170.06</ele>
        <time>2019-02-03T09:14:46Z</time>
      </trkpt>
      <trkpt lat="46.2738" lon="6.47007">
        <ele>1171.5</ele>
        <time>2019-02-03T09:14:59Z</time>
      </trkpt>
      <trkpt lat="46.27378" lon="6.4701">
        <ele>1172.47</ele>
        <time>2019-02-03T09:15:12Z</time>
      </trkpt>
      <trkpt lat="46.27374" lon="6.47013">
        <ele>1174.39</ele>
        <time>2019-02-03T09:15:27Z</time>
      </trkpt>
      <trkpt lat="46.27365" lon="6.47017">
        <ele>1175.35</ele>
        <time>2019-02-03T09:15:40Z</time>
      </trkpt>
      <trkpt lat="46.27358" lon="6.47021">
        <ele>1176.79</ele>
        <time>2019-02-03T09:15:50Z</time>
      </trkpt>
      <trkpt lat="46.27352" lon="6.47024">
        <ele>1176.31</ele>
        <time>2019-02-03T09:16:01Z</time>
      </trkpt>
      <trkpt lat="46.27345" lon="6.47027">
        <ele>1177.75</ele>
        <time>2019-02-03T09:16:14Z</time>
      </trkpt>
      <trkpt lat="46.2734" lon="6.47029">
        <ele>1178.71</ele>
        <time>2019-02-03T09:16:26Z</time>
      </trkpt>
      <trkpt lat="46.27333" lon="6.47029">
        <ele>1181.12</ele>
        <time>2019-02-03T09:16:41Z</time>
      </trkpt>
      <trkpt lat="46.27325" lon="6.4703">
        <ele>1182.08</ele>
        <time>2019-02-03T09:16:53Z</time>
      </trkpt>
      <trkpt lat="46.27315" lon="6.47032">
        <ele>1184</ele>
        <time>2019-02-03T09:17:07Z</time>
      </trkpt>
      <trkpt lat="46.27312" lon="6.47032">
        <ele>1184.48</ele>
        <time>2019-02-03T09:17:20Z</time>
      </trkpt>
      <trkpt lat="46.27306" lon="6.47034">
        <ele>1185.44</ele>
        <time>2019-02-03T09:17:31Z</time>
      </trkpt>
      <trkpt lat="46.27299" lon="6.47034">
        <ele>1186.4</ele>
        <time>2019-02-03T09:17:43Z</time>
      </trkpt>
      <trkpt lat="46.27296" lon="6.47033">
        <ele>1188.33</ele>
        <time>2019-02-03T09:17:56Z</time>
      </trkpt>
      <trkpt lat="46.27289" lon="6.47036">
        <ele>1188.81</ele>
        <time>2019-02-03T09:18:08Z</time>
      </trkpt>
      <trkpt lat="46.27279" lon="6.4704">
        <ele>1189.77</ele>
        <time>2019-02-03T09:18:22Z</time>
      </trkpt>
      <trkpt lat="46.27275" lon="6.47041">
        <ele>1191.21</ele>
        <time>2019-02-03T09:18:37Z</time>
      </trkpt>
      <trkpt lat="46.27268" lon="6.47045">
        <ele>1192.17</ele>
        <time>2019-02-03T09:18:51Z</time>
      </trkpt>
      <trkpt lat="46.27259" lon="6.4705">
        <ele>1193.13</ele>
        <time>2019-02-03T09:19:03Z</time>
      </trkpt>
      <trkpt lat="46.27255" lon="6.47054">
        <ele>1194.09</ele>
        <time>2019-02-03T09:19:20Z</time>
      </trkpt>
      <trkpt lat="46.27251" lon="6.47059">
        <ele>1195.54</ele>
        <time>2019-02-03T09:19:32Z</time>
      </trkpt>
      <trkpt lat="46.27244" lon="6.47069">
        <ele>1196.98</ele>
        <time>2019-02-03T09:19:45Z</time>
      </trkpt>
      <trkpt lat="46.27241" lon="6.47073">
        <ele>1196.98</ele>
        <time>2019-02-03T09:19:58Z</time>
      </trkpt>
      <trkpt lat="46.27234" lon="6.47079">
        <ele>1198.42</ele>
        <time>2019-02-03T09:20:11Z</time>
      </trkpt>
      <trkpt lat="46.2723" lon="6.47083">
        <ele>1199.38</ele>
        <time>2019-02-03T09:20:27Z</time>
      </trkpt>
      <trkpt lat="46.27227" lon="6.47089">
        <ele>1200.82</ele>
        <time>2019-02-03T09:20:39Z</time>
      </trkpt>
      <trkpt lat="46.27221" lon="6.47093">
        <ele>1203.23</ele>
        <time>2019-02-03T09:20:50Z</time>
      </trkpt>
      <trkpt lat="46.27217" lon="6.47097">
        <ele>1203.71</ele>
        <time>2019-02-03T09:21:03Z</time>
      </trkpt>
      <trkpt lat="46.27212" lon="6.47103">
        <ele>1204.19</ele>
        <time>2019-02-03T09:21:14Z</time>
      </trkpt>
      <trkpt lat="46.27205" lon="6.4711">
        <ele>1205.15</ele>
        <time>2019-02-03T09:21:26Z</time>
      </trkpt>
      <trkpt lat="46.27198" lon="6.47116">
        <ele>1205.15</ele>
        <time>2019-02-03T09:21:42Z</time>
      </trkpt>
      <trkpt lat="46.27195" lon="6.47121">
        <ele>1206.11</ele>
        <time>2019-02-03T09:21:55Z</time>
      </trkpt>
      <trkpt lat="46.27192" lon="6.47125">
        <ele>1207.07</ele>
        <time>2019-02-03T09:22:05Z</time>
      </trkpt>
      <trkpt lat="46.27187" lon="6.47129">
        <ele>1208.51</ele>
        <time>2019-02-03T09:22:18Z</time>
      </trkpt>
      <trkpt lat="46.27182" lon="6.47132">
        <ele>1209</ele>
        <time>2019-02-03T09:22:32Z</time>
      </trkpt>
      <trkpt lat="46.27175" lon="6.47136">
        <ele>1210.92</ele>
        <time>2019-02-03T09:22:46Z</time>
      </trkpt>
      <trkpt lat="46.27171" lon="6.47139">
        <ele>1211.88</ele>
        <time>2019-02-03T09:22:59Z</time>
      </trkpt>
      <trkpt lat="46.27171" lon="6.4714">
        <ele>1211.88</ele>
        <time>2019-02-03T09:23:30Z</time>
      </trkpt>
      <trkpt lat="46.27171" lon="6.4714">
        <ele>1212.36</ele>
        <time>2019-02-03T09:24:05Z</time>
      </trkpt>
      <trkpt lat="46.27171" lon="6.4714">
        <ele>1211.88</ele>
        <time>2019-02-03T09:24:58Z</time>
      </trkpt>
      <trkpt lat="46.27171" lon="6.4714">
        <ele>1211.88</ele>
        <time>2019-02-03T09:25:40Z</time>
      </trkpt>
      <trkpt lat="46.27171" lon="6.4714">
        <ele>1211.88</ele>
        <time>2019-02-03T09:26:12Z</time>
      </trkpt>
      <trkpt lat="46.27171" lon="6.47141">
        <ele>1211.88</ele>
        <time>2019-02-03T09:26:40Z</time>
      </trkpt>
      <trkpt lat="46.27166" lon="6.47146">
        <ele>1212.36</ele>
        <time>2019-02-03T09:26:50Z</time>
      </trkpt>
      <trkpt lat="46.27166" lon="6.47153">
        <ele>1213.32</ele>
        <time>2019-02-03T09:27:03Z</time>
      </trkpt>
      <trkpt lat="46.27169" lon="6.47159">
        <ele>1214.28</ele>
        <time>2019-02-03T09:27:13Z</time>
      </trkpt>
      <trkpt lat="46.27174" lon="6.47163">
        <ele>1215.72</ele>
        <time>2019-02-03T09:27:26Z</time>
      </trkpt>
      <trkpt lat="46.2718" lon="6.47164">
        <ele>1217.17</ele>
        <time>2019-02-03T09:27:39Z</time>
      </trkpt>
      <trkpt lat="46.27187" lon="6.47165">
        <ele>1218.13</ele>
        <time>2019-02-03T09:27:51Z</time>
      </trkpt>
      <trkpt lat="46.27195" lon="6.47165">
        <ele>1218.61</ele>
        <time>2019-02-03T09:28:05Z</time>
      </trkpt>
      <trkpt lat="46.27201" lon="6.47167">
        <ele>1219.57</ele>
        <time>2019-02-03T09:28:16Z</time>
      </trkpt>
      <trkpt lat="46.27206" lon="6.4717">
        <ele>1220.53</ele>
        <time>2019-02-03T09:28:27Z</time>
      </trkpt>
      <trkpt lat="46.27214" lon="6.47175">
        <ele>1221.49</ele>
        <time>2019-02-03T09:28:44Z</time>
      </trkpt>
      <trkpt lat="46.27217" lon="6.47177">
        <ele>1222.45</ele>
        <time>2019-02-03T09:28:53Z</time>
      </trkpt>
      <trkpt lat="46.27221" lon="6.47178">
        <ele>1222.93</ele>
        <time>2019-02-03T09:29:04Z</time>
      </trkpt>
      <trkpt lat="46.27225" lon="6.47181">
        <ele>1223.9</ele>
        <time>2019-02-03T09:29:21Z</time>
      </trkpt>
      <trkpt lat="46.27232" lon="6.47183">
        <ele>1225.34</ele>
        <time>2019-02-03T09:29:33Z</time>
      </trkpt>
      <trkpt lat="46.27236" lon="6.47185">
        <ele>1227.26</ele>
        <time>2019-02-03T09:29:45Z</time>
      </trkpt>
      <trkpt lat="46.27242" lon="6.47188">
        <ele>1228.22</ele>
        <time>2019-02-03T09:29:59Z</time>
      </trkpt>
      <trkpt lat="46.27245" lon="6.47191">
        <ele>1229.66</ele>
        <time>2019-02-03T09:30:07Z</time>
      </trkpt>
      <trkpt lat="46.2725" lon="6.47192">
        <ele>1229.66</ele>
        <time>2019-02-03T09:30:19Z</time>
      </trkpt>
      <trkpt lat="46.27253" lon="6.47191">
        <ele>1232.07</ele>
        <time>2019-02-03T09:30:32Z</time>
      </trkpt>
      <trkpt lat="46.27258" lon="6.47189">
        <ele>1233.99</ele>
        <time>2019-02-03T09:30:49Z</time>
      </trkpt>
      <trkpt lat="46.27262" lon="6.47192">
        <ele>1234.95</ele>
        <time>2019-02-03T09:31:04Z</time>
      </trkpt>
      <trkpt lat="46.27268" lon="6.47193">
        <ele>1235.43</ele>
        <time>2019-02-03T09:31:15Z</time>
      </trkpt>
      <trkpt lat="46.27272" lon="6.47196">
        <ele>1236.87</ele>
        <time>2019-02-03T09:31:25Z</time>
      </trkpt>
      <trkpt lat="46.27279" lon="6.47199">
        <ele>1237.83</ele>
        <time>2019-02-03T09:31:36Z</time>
      </trkpt>
      <trkpt lat="46.27282" lon="6.472">
        <ele>1238.8</ele>
        <time>2019-02-03T09:31:50Z</time>
      </trkpt>
      <trkpt lat="46.27286" lon="6.47202">
        <ele>1238.32</ele>
        <time>2019-02-03T09:32:13Z</time>
      </trkpt>
      <trkpt lat="46.27288" lon="6.47202">
        <ele>1239.76</ele>
        <time>2019-02-03T09:32:32Z</time>
      </trkpt>
      <trkpt lat="46.27292" lon="6.47201">
        <ele>1240.72</ele>
        <time>2019-02-03T09:33:03Z</time>
      </trkpt>
      <trkpt lat="46.27299" lon="6.47201">
        <ele>1241.68</ele>
        <time>2019-02-03T09:33:15Z</time>
      </trkpt>
      <trkpt lat="46.27307" lon="6.47203">
        <ele>1242.16</ele>
        <time>2019-02-03T09:33:24Z</time>
      </trkpt>
      <trkpt lat="46.27313" lon="6.47205">
        <ele>1242.64</ele>
        <time>2019-02-03T09:33:33Z</time>
      </trkpt>
      <trkpt lat="46.27319" lon="6.47208">
        <ele>1243.6</ele>
        <time>2019-02-03T09:33:44Z</time>
      </trkpt>
      <trkpt lat="46.27321" lon="6.47211">
        <ele>1245.04</ele>
        <time>2019-02-03T09:33:58Z</time>
      </trkpt>
      <trkpt lat="46.27327" lon="6.47214">
        <ele>1246.01</ele>
        <time>2019-02-03T09:34:09Z</time>
      </trkpt>
      <trkpt lat="46.27332" lon="6.47216">
        <ele>1246.97</ele>
        <time>2019-02-03T09:34:23Z</time>
      </trkpt>
      <trkpt lat="46.27335" lon="6.47218">
        <ele>1247.93</ele>
        <time>2019-02-03T09:34:36Z</time>
      </trkpt>
      <trkpt lat="46.27346" lon="6.47222">
        <ele>1249.37</ele>
        <time>2019-02-03T09:34:48Z</time>
      </trkpt>
      <trkpt lat="46.2735" lon="6.47222">
        <ele>1249.85</ele>
        <time>2019-02-03T09:35:01Z</time>
      </trkpt>
      <trkpt lat="46.27353" lon="6.47222">
        <ele>1251.29</ele>
        <time>2019-02-03T09:35:14Z</time>
      </trkpt>
      <trkpt lat="46.27359" lon="6.47221">
        <ele>1251.77</ele>
        <time>2019-02-03T09:35:27Z</time>
      </trkpt>
      <trkpt lat="46.27361" lon="6.4722">
        <ele>1252.74</ele>
        <time>2019-02-03T09:35:38Z</time>
      </trkpt>
      <trkpt lat="46.27369" lon="6.4722">
        <ele>1253.22</ele>
        <time>2019-02-03T09:35:47Z</time>
      </trkpt>
      <trkpt lat="46.27376" lon="6.4722">
        <ele>1254.66</ele>
        <time>2019-02-03T09:35:58Z</time>
      </trkpt>
      <trkpt lat="46.27381" lon="6.47222">
        <ele>1255.14</ele>
        <time>2019-02-03T09:36:08Z</time>
      </trkpt>
      <trkpt lat="46.27388" lon="6.47226">
        <ele>1256.58</ele>
        <time>2019-02-03T09:36:24Z</time>
      </trkpt>
      <trkpt lat="46.27394" lon="6.47231">
        <ele>1257.06</ele>
        <time>2019-02-03T09:36:35Z</time>
      </trkpt>
      <trkpt lat="46.27397" lon="6.47235">
        <ele>1258.5</ele>
        <time>2019-02-03T09:36:50Z</time>
      </trkpt>
      <trkpt lat="46.27398" lon="6.47241">
        <ele>1258.98</ele>
        <time>2019-02-03T09:37:06Z</time>
      </trkpt>
      <trkpt lat="46.27394" lon="6.47248">
        <ele>1259.94</ele>
        <time>2019-02-03T09:37:24Z</time>
      </trkpt>
      <trkpt lat="46.2739" lon="6.47256">
        <ele>1261.39</ele>
        <time>2019-02-03T09:37:37Z</time>
      </trkpt>
      <trkpt lat="46.27388" lon="6.47261">
        <ele>1262.83</ele>
        <time>2019-02-03T09:37:49Z</time>
      </trkpt>
      <trkpt lat="46.27387" lon="6.47263">
        <ele>1263.79</ele>
        <time>2019-02-03T09:37:58Z</time>
      </trkpt>
      <trkpt lat="46.27388" lon="6.47258">
        <ele>1261.39</ele>
        <time>2019-02-03T09:38:16Z</time>
      </trkpt>
      <trkpt lat="46.27391" lon="6.47254">
        <ele>1260.43</ele>
        <time>2019-02-03T09:38:22Z</time>
      </trkpt>
      <trkpt lat="46.27392" lon="6.47251">
        <ele>1259.94</ele>
        <time>2019-02-03T09:38:37Z</time>
      </trkpt>
      <trkpt lat="46.27392" lon="6.47251">
        <ele>1259.46</ele>
        <time>2019-02-03T09:38:54Z</time>
      </trkpt>
      <trkpt lat="46.27391" lon="6.4725">
        <ele>1258.98</ele>
        <time>2019-02-03T09:39:05Z</time>
      </trkpt>
      <trkpt lat="46.27391" lon="6.4725">
        <ele>1259.94</ele>
        <time>2019-02-03T09:40:09Z</time>
      </trkpt>
      <trkpt lat="46.27391" lon="6.47249">
        <ele>1259.94</ele>
        <time>2019-02-03T09:40:21Z</time>
      </trkpt>
      <trkpt lat="46.27394" lon="6.47246">
        <ele>1258.98</ele>
        <time>2019-02-03T09:40:45Z</time>
      </trkpt>
      <trkpt lat="46.27395" lon="6.47243">
        <ele>1258.5</ele>
        <time>2019-02-03T09:41:08Z</time>
      </trkpt>
      <trkpt lat="46.27396" lon="6.47238">
        <ele>1258.02</ele>
        <time>2019-02-03T09:41:25Z</time>
      </trkpt>
      <trkpt lat="46.27397" lon="6.47237">
        <ele>1257.54</ele>
        <time>2019-02-03T09:42:07Z</time>
      </trkpt>
      <trkpt lat="46.27397" lon="6.47237">
        <ele>1257.54</ele>
        <time>2019-02-03T09:42:53Z</time>
      </trkpt>
      <trkpt lat="46.27398" lon="6.47238">
        <ele>1257.54</ele>
        <time>2019-02-03T09:44:18Z</time>
      </trkpt>
      <trkpt lat="46.27398" lon="6.47238">
        <ele>1256.58</ele>
        <time>2019-02-03T09:45:04Z</time>
      </trkpt>
      <trkpt lat="46.27398" lon="6.47238">
        <ele>1256.58</ele>
        <time>2019-02-03T09:45:36Z</time>
      </trkpt>
      <trkpt lat="46.27398" lon="6.47238">
        <ele>1256.58</ele>
        <time>2019-02-03T09:46:02Z</time>
      </trkpt>
      <trkpt lat="46.27401" lon="6.47243">
        <ele>1256.58</ele>
        <time>2019-02-03T09:47:14Z</time>
      </trkpt>
      <trkpt lat="46.27406" lon="6.47245">
        <ele>1257.54</ele>
        <time>2019-02-03T09:47:23Z</time>
      </trkpt>
      <trkpt lat="46.27411" lon="6.47249">
        <ele>1258.02</ele>
        <time>2019-02-03T09:47:39Z</time>
      </trkpt>
      <trkpt lat="46.27415" lon="6.4725">
        <ele>1258.5</ele>
        <time>2019-02-03T09:47:51Z</time>
      </trkpt>
      <trkpt lat="46.27421" lon="6.47252">
        <ele>1258.98</ele>
        <time>2019-02-03T09:48:08Z</time>
      </trkpt>
      <trkpt lat="46.27428" lon="6.47253">
        <ele>1259.94</ele>
        <time>2019-02-03T09:48:22Z</time>
      </trkpt>
      <trkpt lat="46.27431" lon="6.47256">
        <ele>1260.91</ele>
        <time>2019-02-03T09:48:35Z</time>
      </trkpt>
      <trkpt lat="46.27436" lon="6.47257">
        <ele>1260.91</ele>
        <time>2019-02-03T09:48:46Z</time>
      </trkpt>
      <trkpt lat="46.27441" lon="6.47259">
        <ele>1262.35</ele>
        <time>2019-02-03T09:49:01Z</time>
      </trkpt>
      <trkpt lat="46.27448" lon="6.47263">
        <ele>1263.79</ele>
        <time>2019-02-03T09:49:13Z</time>
      </trkpt>
      <trkpt lat="46.27452" lon="6.47266">
        <ele>1263.79</ele>
        <time>2019-02-03T09:49:27Z</time>
      </trkpt>
      <trkpt lat="46.27456" lon="6.47267">
        <ele>1265.23</ele>
        <time>2019-02-03T09:49:39Z</time>
      </trkpt>
      <trkpt lat="46.27461" lon="6.47268">
        <ele>1264.75</ele>
        <time>2019-02-03T09:49:48Z</time>
      </trkpt>
      <trkpt lat="46.27467" lon="6.47269">
        <ele>1266.19</ele>
        <time>2019-02-03T09:49:59Z</time>
      </trkpt>
      <trkpt lat="46.27469" lon="6.4727">
        <ele>1267.16</ele>
        <time>2019-02-03T09:50:14Z</time>
      </trkpt>
      <trkpt lat="46.27473" lon="6.47272">
        <ele>1267.64</ele>
        <time>2019-02-03T09:50:35Z</time>
      </trkpt>
      <trkpt lat="46.27475" lon="6.47274">
        <ele>1268.12</ele>
        <time>2019-02-03T09:50:44Z</time>
      </trkpt>
      <trkpt lat="46.27477" lon="6.47277">
        <ele>1269.08</ele>
        <time>2019-02-03T09:50:56Z</time>
      </trkpt>
      <trkpt lat="46.27481" lon="6.4728">
        <ele>1269.08</ele>
        <time>2019-02-03T09:51:04Z</time>
      </trkpt>
      <trkpt lat="46.27481" lon="6.4728">
        <ele>1271.48</ele>
        <time>2019-02-03T09:51:27Z</time>
      </trkpt>
      <trkpt lat="46.27488" lon="6.47286">
        <ele>1271.48</ele>
        <time>2019-02-03T09:51:39Z</time>
      </trkpt>
      <trkpt lat="46.27492" lon="6.47289">
        <ele>1272.44</ele>
        <time>2019-02-03T09:51:47Z</time>
      </trkpt>
      <trkpt lat="46.27495" lon="6.47292">
        <ele>1273.4</ele>
        <time>2019-02-03T09:52:00Z</time>
      </trkpt>
      <trkpt lat="46.27497" lon="6.47295">
        <ele>1273.4</ele>
        <time>2019-02-03T09:52:05Z</time>
      </trkpt>
      <trkpt lat="46.275" lon="6.47302">
        <ele>1274.85</ele>
        <time>2019-02-03T09:52:14Z</time>
      </trkpt>
      <trkpt lat="46.27501" lon="6.47304">
        <ele>1275.33</ele>
        <time>2019-02-03T09:52:24Z</time>
      </trkpt>
      <trkpt lat="46.27504" lon="6.4731">
        <ele>1276.77</ele>
        <time>2019-02-03T09:52:47Z</time>
      </trkpt>
      <trkpt lat="46.27506" lon="6.47315">
        <ele>1278.21</ele>
        <time>2019-02-03T09:52:56Z</time>
      </trkpt>
      <trkpt lat="46.27506" lon="6.47315">
        <ele>1278.21</ele>
        <time>2019-02-03T09:52:57Z</time>
      </trkpt>
      <trkpt lat="46.27507" lon="6.47321">
        <ele>1278.69</ele>
        <time>2019-02-03T09:53:07Z</time>
      </trkpt>
      <trkpt lat="46.27509" lon="6.47325">
        <ele>1279.65</ele>
        <time>2019-02-03T09:53:18Z</time>
      </trkpt>
      <trkpt lat="46.27512" lon="6.47329">
        <ele>1280.61</ele>
        <time>2019-02-03T09:53:31Z</time>
      </trkpt>
      <trkpt lat="46.27514" lon="6.47333">
        <ele>1282.06</ele>
        <time>2019-02-03T09:53:40Z</time>
      </trkpt>
      <trkpt lat="46.27517" lon="6.47339">
        <ele>1282.06</ele>
        <time>2019-02-03T09:53:49Z</time>
      </trkpt>
      <trkpt lat="46.27517" lon="6.47343">
        <ele>1283.5</ele>
        <time>2019-02-03T09:54:02Z</time>
      </trkpt>
      <trkpt lat="46.27522" lon="6.47349">
        <ele>1284.46</ele>
        <time>2019-02-03T09:54:13Z</time>
      </trkpt>
      <trkpt lat="46.27525" lon="6.47356">
        <ele>1284.94</ele>
        <time>2019-02-03T09:54:26Z</time>
      </trkpt>
      <trkpt lat="46.27528" lon="6.47362">
        <ele>1285.42</ele>
        <time>2019-02-03T09:54:37Z</time>
      </trkpt>
      <trkpt lat="46.27531" lon="6.47367">
        <ele>1286.38</ele>
        <time>2019-02-03T09:54:50Z</time>
      </trkpt>
      <trkpt lat="46.27535" lon="6.47374">
        <ele>1286.86</ele>
        <time>2019-02-03T09:55:04Z</time>
      </trkpt>
      <trkpt lat="46.27537" lon="6.47379">
        <ele>1287.34</ele>
        <time>2019-02-03T09:55:18Z</time>
      </trkpt>
      <trkpt lat="46.2754" lon="6.47383">
        <ele>1288.3</ele>
        <time>2019-02-03T09:55:30Z</time>
      </trkpt>
      <trkpt lat="46.27542" lon="6.47387">
        <ele>1288.78</ele>
        <time>2019-02-03T09:55:49Z</time>
      </trkpt>
      <trkpt lat="46.27544" lon="6.47391">
        <ele>1289.27</ele>
        <time>2019-02-03T09:55:59Z</time>
      </trkpt>
      <trkpt lat="46.27545" lon="6.47395">
        <ele>1290.71</ele>
        <time>2019-02-03T09:56:12Z</time>
      </trkpt>
      <trkpt lat="46.27547" lon="6.47402">
        <ele>1291.67</ele>
        <time>2019-02-03T09:56:23Z</time>
      </trkpt>
      <trkpt lat="46.2755" lon="6.47406">
        <ele>1292.15</ele>
        <time>2019-02-03T09:56:31Z</time>
      </trkpt>
      <trkpt lat="46.27552" lon="6.47408">
        <ele>1293.11</ele>
        <time>2019-02-03T09:56:46Z</time>
      </trkpt>
      <trkpt lat="46.27555" lon="6.47414">
        <ele>1294.55</ele>
        <time>2019-02-03T09:57:02Z</time>
      </trkpt>
      <trkpt lat="46.27557" lon="6.47418">
        <ele>1295.51</ele>
        <time>2019-02-03T09:57:16Z</time>
      </trkpt>
      <trkpt lat="46.27563" lon="6.47426">
        <ele>1295.99</ele>
        <time>2019-02-03T09:57:40Z</time>
      </trkpt>
      <trkpt lat="46.27564" lon="6.47431">
        <ele>1297.92</ele>
        <time>2019-02-03T09:57:52Z</time>
      </trkpt>
      <trkpt lat="46.27565" lon="6.47438">
        <ele>1297.92</ele>
        <time>2019-02-03T09:58:04Z</time>
      </trkpt>
      <trkpt lat="46.27568" lon="6.47444">
        <ele>1298.88</ele>
        <time>2019-02-03T09:58:18Z</time>
      </trkpt>
      <trkpt lat="46.27568" lon="6.47449">
        <ele>1300.8</ele>
        <time>2019-02-03T09:58:47Z</time>
      </trkpt>
      <trkpt lat="46.2757" lon="6.47457">
        <ele>1302.72</ele>
        <time>2019-02-03T09:58:58Z</time>
      </trkpt>
      <trkpt lat="46.27572" lon="6.47464">
        <ele>1303.2</ele>
        <time>2019-02-03T09:59:09Z</time>
      </trkpt>
      <trkpt lat="46.27572" lon="6.47468">
        <ele>1303.2</ele>
        <time>2019-02-03T09:59:29Z</time>
      </trkpt>
      <trkpt lat="46.27574" lon="6.47476">
        <ele>1304.65</ele>
        <time>2019-02-03T10:00:11Z</time>
      </trkpt>
      <trkpt lat="46.27576" lon="6.47479">
        <ele>1304.65</ele>
        <time>2019-02-03T10:00:26Z</time>
      </trkpt>
      <trkpt lat="46.27575" lon="6.47479">
        <ele>1305.13</ele>
        <time>2019-02-03T10:01:32Z</time>
      </trkpt>
      <trkpt lat="46.27577" lon="6.47482">
        <ele>1305.13</ele>
        <time>2019-02-03T10:02:11Z</time>
      </trkpt>
      <trkpt lat="46.27576" lon="6.47487">
        <ele>1305.61</ele>
        <time>2019-02-03T10:02:21Z</time>
      </trkpt>
      <trkpt lat="46.27576" lon="6.47492">
        <ele>1307.05</ele>
        <time>2019-02-03T10:02:34Z</time>
      </trkpt>
      <trkpt lat="46.27579" lon="6.47502">
        <ele>1308.49</ele>
        <time>2019-02-03T10:02:47Z</time>
      </trkpt>
      <trkpt lat="46.27581" lon="6.47508">
        <ele>1310.9</ele>
        <time>2019-02-03T10:03:02Z</time>
      </trkpt>
      <trkpt lat="46.27583" lon="6.47512">
        <ele>1311.38</ele>
        <time>2019-02-03T10:03:14Z</time>
      </trkpt>
      <trkpt lat="46.27584" lon="6.47513">
        <ele>1311.86</ele>
        <time>2019-02-03T10:03:17Z</time>
      </trkpt>
      <trkpt lat="46.27584" lon="6.47517">
        <ele>1311.86</ele>
        <time>2019-02-03T10:03:27Z</time>
      </trkpt>
      <trkpt lat="46.27584" lon="6.47519">
        <ele>1312.34</ele>
        <time>2019-02-03T10:03:34Z</time>
      </trkpt>
      <trkpt lat="46.27588" lon="6.47526">
        <ele>1312.82</ele>
        <time>2019-02-03T10:03:45Z</time>
      </trkpt>
      <trkpt lat="46.2759" lon="6.47533">
        <ele>1314.74</ele>
        <time>2019-02-03T10:03:58Z</time>
      </trkpt>
      <trkpt lat="46.27593" lon="6.47543">
        <ele>1315.22</ele>
        <time>2019-02-03T10:04:09Z</time>
      </trkpt>
      <trkpt lat="46.27593" lon="6.47546">
        <ele>1315.7</ele>
        <time>2019-02-03T10:04:16Z</time>
      </trkpt>
      <trkpt lat="46.27596" lon="6.47558">
        <ele>1317.14</ele>
        <time>2019-02-03T10:04:29Z</time>
      </trkpt>
      <trkpt lat="46.27598" lon="6.47567">
        <ele>1317.62</ele>
        <time>2019-02-03T10:04:38Z</time>
      </trkpt>
      <trkpt lat="46.27598" lon="6.47573">
        <ele>1318.59</ele>
        <time>2019-02-03T10:04:46Z</time>
      </trkpt>
      <trkpt lat="46.27598" lon="6.47583">
        <ele>1319.07</ele>
        <time>2019-02-03T10:04:57Z</time>
      </trkpt>
      <trkpt lat="46.27598" lon="6.47591">
        <ele>1319.55</ele>
        <time>2019-02-03T10:05:06Z</time>
      </trkpt>
      <trkpt lat="46.27599" lon="6.47601">
        <ele>1320.51</ele>
        <time>2019-02-03T10:05:17Z</time>
      </trkpt>
      <trkpt lat="46.27601" lon="6.47616">
        <ele>1320.51</ele>
        <time>2019-02-03T10:05:29Z</time>
      </trkpt>
      <trkpt lat="46.276" lon="6.4762">
        <ele>1321.47</ele>
        <time>2019-02-03T10:05:42Z</time>
      </trkpt>
      <trkpt lat="46.27601" lon="6.47625">
        <ele>1320.99</ele>
        <time>2019-02-03T10:05:57Z</time>
      </trkpt>
      <trkpt lat="46.27603" lon="6.47632">
        <ele>1321.47</ele>
        <time>2019-02-03T10:06:10Z</time>
      </trkpt>
      <trkpt lat="46.27604" lon="6.47637">
        <ele>1322.91</ele>
        <time>2019-02-03T10:06:20Z</time>
      </trkpt>
      <trkpt lat="46.27606" lon="6.47639">
        <ele>1323.39</ele>
        <time>2019-02-03T10:06:32Z</time>
      </trkpt>
      <trkpt lat="46.27609" lon="6.47639">
        <ele>1323.39</ele>
        <time>2019-02-03T10:06:38Z</time>
      </trkpt>
      <trkpt lat="46.27613" lon="6.47643">
        <ele>1324.35</ele>
        <time>2019-02-03T10:06:51Z</time>
      </trkpt>
      <trkpt lat="46.27613" lon="6.47645">
        <ele>1325.31</ele>
        <time>2019-02-03T10:07:02Z</time>
      </trkpt>
      <trkpt lat="46.27615" lon="6.47647">
        <ele>1325.31</ele>
        <time>2019-02-03T10:07:20Z</time>
      </trkpt>
      <trkpt lat="46.2762" lon="6.47651">
        <ele>1326.28</ele>
        <time>2019-02-03T10:07:49Z</time>
      </trkpt>
      <trkpt lat="46.27624" lon="6.47654">
        <ele>1328.68</ele>
        <time>2019-02-03T10:08:07Z</time>
      </trkpt>
      <trkpt lat="46.27625" lon="6.47656">
        <ele>1329.64</ele>
        <time>2019-02-03T10:08:13Z</time>
      </trkpt>
      <trkpt lat="46.27626" lon="6.47658">
        <ele>1331.08</ele>
        <time>2019-02-03T10:08:20Z</time>
      </trkpt>
      <trkpt lat="46.2763" lon="6.47658">
        <ele>1330.12</ele>
        <time>2019-02-03T10:08:31Z</time>
      </trkpt>
      <trkpt lat="46.27638" lon="6.47657">
        <ele>1330.6</ele>
        <time>2019-02-03T10:08:43Z</time>
      </trkpt>
      <trkpt lat="46.27639" lon="6.47656">
        <ele>1330.6</ele>
        <time>2019-02-03T10:08:44Z</time>
      </trkpt>
      <trkpt lat="46.27648" lon="6.47653">
        <ele>1331.08</ele>
        <time>2019-02-03T10:08:58Z</time>
      </trkpt>
      <trkpt lat="46.27649" lon="6.47653">
        <ele>1331.08</ele>
        <time>2019-02-03T10:09:00Z</time>
      </trkpt>
      <trkpt lat="46.27657" lon="6.47652">
        <ele>1331.56</ele>
        <time>2019-02-03T10:09:12Z</time>
      </trkpt>
      <trkpt lat="46.27662" lon="6.47649">
        <ele>1331.56</ele>
        <time>2019-02-03T10:09:24Z</time>
      </trkpt>
      <trkpt lat="46.27665" lon="6.47646">
        <ele>1332.04</ele>
        <time>2019-02-03T10:09:37Z</time>
      </trkpt>
      <trkpt lat="46.27668" lon="6.47645">
        <ele>1333.01</ele>
        <time>2019-02-03T10:09:55Z</time>
      </trkpt>
      <trkpt lat="46.27669" lon="6.47644">
        <ele>1333.49</ele>
        <time>2019-02-03T10:09:57Z</time>
      </trkpt>
      <trkpt lat="46.27673" lon="6.47645">
        <ele>1333.49</ele>
        <time>2019-02-03T10:10:12Z</time>
      </trkpt>
      <trkpt lat="46.27675" lon="6.47646">
        <ele>1333.49</ele>
        <time>2019-02-03T10:10:23Z</time>
      </trkpt>
      <trkpt lat="46.27679" lon="6.47649">
        <ele>1333.49</ele>
        <time>2019-02-03T10:10:33Z</time>
      </trkpt>
      <trkpt lat="46.27684" lon="6.4765">
        <ele>1333.97</ele>
        <time>2019-02-03T10:10:47Z</time>
      </trkpt>
      <trkpt lat="46.27689" lon="6.47649">
        <ele>1333.97</ele>
        <time>2019-02-03T10:10:59Z</time>
      </trkpt>
      <trkpt lat="46.27698" lon="6.47649">
        <ele>1334.93</ele>
        <time>2019-02-03T10:11:12Z</time>
      </trkpt>
      <trkpt lat="46.27704" lon="6.47648">
        <ele>1335.89</ele>
        <time>2019-02-03T10:11:28Z</time>
      </trkpt>
      <trkpt lat="46.27705" lon="6.47647">
        <ele>1335.41</ele>
        <time>2019-02-03T10:11:34Z</time>
      </trkpt>
      <trkpt lat="46.27711" lon="6.47651">
        <ele>1335.89</ele>
        <time>2019-02-03T10:11:45Z</time>
      </trkpt>
      <trkpt lat="46.27714" lon="6.47655">
        <ele>1337.33</ele>
        <time>2019-02-03T10:11:58Z</time>
      </trkpt>
      <trkpt lat="46.27716" lon="6.47659">
        <ele>1337.81</ele>
        <time>2019-02-03T10:12:09Z</time>
      </trkpt>
      <trkpt lat="46.27718" lon="6.47663">
        <ele>1338.77</ele>
        <time>2019-02-03T10:12:25Z</time>
      </trkpt>
      <trkpt lat="46.27724" lon="6.47668">
        <ele>1339.73</ele>
        <time>2019-02-03T10:12:40Z</time>
      </trkpt>
      <trkpt lat="46.27726" lon="6.47672">
        <ele>1341.18</ele>
        <time>2019-02-03T10:12:52Z</time>
      </trkpt>
      <trkpt lat="46.2773" lon="6.47677">
        <ele>1341.66</ele>
        <time>2019-02-03T10:13:03Z</time>
      </trkpt>
      <trkpt lat="46.27732" lon="6.47681">
        <ele>1342.62</ele>
        <time>2019-02-03T10:13:18Z</time>
      </trkpt>
      <trkpt lat="46.27734" lon="6.47687">
        <ele>1343.1</ele>
        <time>2019-02-03T10:13:35Z</time>
      </trkpt>
      <trkpt lat="46.27737" lon="6.47689">
        <ele>1343.58</ele>
        <time>2019-02-03T10:13:50Z</time>
      </trkpt>
      <trkpt lat="46.27738" lon="6.47689">
        <ele>1343.1</ele>
        <time>2019-02-03T10:14:02Z</time>
      </trkpt>
      <trkpt lat="46.27738" lon="6.477">
        <ele>1345.5</ele>
        <time>2019-02-03T10:14:19Z</time>
      </trkpt>
      <trkpt lat="46.27738" lon="6.47708">
        <ele>1345.5</ele>
        <time>2019-02-03T10:14:34Z</time>
      </trkpt>
      <trkpt lat="46.27736" lon="6.47715">
        <ele>1346.46</ele>
        <time>2019-02-03T10:14:46Z</time>
      </trkpt>
      <trkpt lat="46.27737" lon="6.47715">
        <ele>1346.94</ele>
        <time>2019-02-03T10:15:23Z</time>
      </trkpt>
      <trkpt lat="46.27738" lon="6.47719">
        <ele>1347.91</ele>
        <time>2019-02-03T10:16:35Z</time>
      </trkpt>
      <trkpt lat="46.27737" lon="6.4772">
        <ele>1348.39</ele>
        <time>2019-02-03T10:16:55Z</time>
      </trkpt>
      <trkpt lat="46.27734" lon="6.47727">
        <ele>1348.39</ele>
        <time>2019-02-03T10:17:23Z</time>
      </trkpt>
      <trkpt lat="46.27731" lon="6.47732">
        <ele>1349.35</ele>
        <time>2019-02-03T10:17:34Z</time>
      </trkpt>
      <trkpt lat="46.27729" lon="6.47732">
        <ele>1351.27</ele>
        <time>2019-02-03T10:17:49Z</time>
      </trkpt>
      <trkpt lat="46.27726" lon="6.47738">
        <ele>1351.75</ele>
        <time>2019-02-03T10:17:58Z</time>
      </trkpt>
      <trkpt lat="46.27724" lon="6.47741">
        <ele>1352.71</ele>
        <time>2019-02-03T10:18:13Z</time>
      </trkpt>
      <trkpt lat="46.27723" lon="6.47742">
        <ele>1353.67</ele>
        <time>2019-02-03T10:18:28Z</time>
      </trkpt>
      <trkpt lat="46.27726" lon="6.47749">
        <ele>1354.15</ele>
        <time>2019-02-03T10:18:41Z</time>
      </trkpt>
      <trkpt lat="46.27726" lon="6.4775">
        <ele>1354.63</ele>
        <time>2019-02-03T10:18:55Z</time>
      </trkpt>
      <trkpt lat="46.27719" lon="6.47757">
        <ele>1355.6</ele>
        <time>2019-02-03T10:19:08Z</time>
      </trkpt>
      <trkpt lat="46.2772" lon="6.47758">
        <ele>1357.04</ele>
        <time>2019-02-03T10:19:19Z</time>
      </trkpt>
      <trkpt lat="46.27721" lon="6.47758">
        <ele>1357.52</ele>
        <time>2019-02-03T10:19:35Z</time>
      </trkpt>
      <trkpt lat="46.27722" lon="6.47765">
        <ele>1358.48</ele>
        <time>2019-02-03T10:19:53Z</time>
      </trkpt>
      <trkpt lat="46.27721" lon="6.47772">
        <ele>1358.48</ele>
        <time>2019-02-03T10:20:05Z</time>
      </trkpt>
      <trkpt lat="46.27723" lon="6.47777">
        <ele>1358.48</ele>
        <time>2019-02-03T10:20:17Z</time>
      </trkpt>
      <trkpt lat="46.27723" lon="6.47783">
        <ele>1357.52</ele>
        <time>2019-02-03T10:20:30Z</time>
      </trkpt>
      <trkpt lat="46.2772" lon="6.47786">
        <ele>1358.48</ele>
        <time>2019-02-03T10:21:07Z</time>
      </trkpt>
      <trkpt lat="46.2772" lon="6.47791">
        <ele>1357.52</ele>
        <time>2019-02-03T10:21:25Z</time>
      </trkpt>
      <trkpt lat="46.27719" lon="6.47793">
        <ele>1357.04</ele>
        <time>2019-02-03T10:21:39Z</time>
      </trkpt>
      <trkpt lat="46.27723" lon="6.47795">
        <ele>1357.04</ele>
        <time>2019-02-03T10:22:16Z</time>
      </trkpt>
      <trkpt lat="46.27722" lon="6.47796">
        <ele>1357.04</ele>
        <time>2019-02-03T10:22:33Z</time>
      </trkpt>
      <trkpt lat="46.27726" lon="6.47797">
        <ele>1357.52</ele>
        <time>2019-02-03T10:23:08Z</time>
      </trkpt>
      <trkpt lat="46.27729" lon="6.47801">
        <ele>1358</ele>
        <time>2019-02-03T10:23:37Z</time>
      </trkpt>
      <trkpt lat="46.27731" lon="6.47804">
        <ele>1359.44</ele>
        <time>2019-02-03T10:23:53Z</time>
      </trkpt>
      <trkpt lat="46.27729" lon="6.47809">
        <ele>1360.4</ele>
        <time>2019-02-03T10:24:13Z</time>
      </trkpt>
      <trkpt lat="46.27732" lon="6.47815">
        <ele>1361.36</ele>
        <time>2019-02-03T10:24:25Z</time>
      </trkpt>
      <trkpt lat="46.27735" lon="6.47819">
        <ele>1361.84</ele>
        <time>2019-02-03T10:24:32Z</time>
      </trkpt>
      <trkpt lat="46.27737" lon="6.47822">
        <ele>1362.33</ele>
        <time>2019-02-03T10:24:48Z</time>
      </trkpt>
      <trkpt lat="46.27736" lon="6.4783">
        <ele>1363.29</ele>
        <time>2019-02-03T10:25:01Z</time>
      </trkpt>
      <trkpt lat="46.27738" lon="6.47839">
        <ele>1363.77</ele>
        <time>2019-02-03T10:25:14Z</time>
      </trkpt>
      <trkpt lat="46.2774" lon="6.47843">
        <ele>1363.29</ele>
        <time>2019-02-03T10:25:33Z</time>
      </trkpt>
      <trkpt lat="46.27744" lon="6.47853">
        <ele>1363.29</ele>
        <time>2019-02-03T10:25:44Z</time>
      </trkpt>
      <trkpt lat="46.27743" lon="6.47858">
        <ele>1363.77</ele>
        <time>2019-02-03T10:26:05Z</time>
      </trkpt>
      <trkpt lat="46.27741" lon="6.47869">
        <ele>1363.77</ele>
        <time>2019-02-03T10:26:19Z</time>
      </trkpt>
      <trkpt lat="46.2774" lon="6.47879">
        <ele>1364.73</ele>
        <time>2019-02-03T10:26:29Z</time>
      </trkpt>
      <trkpt lat="46.27742" lon="6.47886">
        <ele>1364.73</ele>
        <time>2019-02-03T10:26:40Z</time>
      </trkpt>
      <trkpt lat="46.27741" lon="6.47889">
        <ele>1363.77</ele>
        <time>2019-02-03T10:26:45Z</time>
      </trkpt>
      <trkpt lat="46.27743" lon="6.47898">
        <ele>1365.69</ele>
        <time>2019-02-03T10:26:58Z</time>
      </trkpt>
      <trkpt lat="46.27742" lon="6.47902">
        <ele>1365.69</ele>
        <time>2019-02-03T10:27:11Z</time>
      </trkpt>
      <trkpt lat="46.27741" lon="6.47903">
        <ele>1365.69</ele>
        <time>2019-02-03T10:27:27Z</time>
      </trkpt>
      <trkpt lat="46.27741" lon="6.47904">
        <ele>1365.69</ele>
        <time>2019-02-03T10:27:32Z</time>
      </trkpt>
      <trkpt lat="46.27744" lon="6.47904">
        <ele>1366.17</ele>
        <time>2019-02-03T10:27:46Z</time>
      </trkpt>
      <trkpt lat="46.27744" lon="6.47905">
        <ele>1366.17</ele>
        <time>2019-02-03T10:28:53Z</time>
      </trkpt>
      <trkpt lat="46.27739" lon="6.47908">
        <ele>1366.17</ele>
        <time>2019-02-03T10:29:20Z</time>
      </trkpt>
      <trkpt lat="46.27739" lon="6.47909">
        <ele>1366.17</ele>
        <time>2019-02-03T10:30:13Z</time>
      </trkpt>
      <trkpt lat="46.27736" lon="6.47908">
        <ele>1367.13</ele>
        <time>2019-02-03T10:30:22Z</time>
      </trkpt>
      <trkpt lat="46.27736" lon="6.47905">
        <ele>1367.13</ele>
        <time>2019-02-03T10:30:25Z</time>
      </trkpt>
      <trkpt lat="46.27733" lon="6.47904">
        <ele>1367.61</ele>
        <time>2019-02-03T10:30:30Z</time>
      </trkpt>
      <trkpt lat="46.27731" lon="6.479">
        <ele>1368.57</ele>
        <time>2019-02-03T10:30:41Z</time>
      </trkpt>
      <trkpt lat="46.27726" lon="6.47897">
        <ele>1369.54</ele>
        <time>2019-02-03T10:30:55Z</time>
      </trkpt>
      <trkpt lat="46.27721" lon="6.47892">
        <ele>1370.98</ele>
        <time>2019-02-03T10:31:07Z</time>
      </trkpt>
      <trkpt lat="46.27721" lon="6.47883">
        <ele>1371.94</ele>
        <time>2019-02-03T10:31:20Z</time>
      </trkpt>
      <trkpt lat="46.27721" lon="6.47883">
        <ele>1372.42</ele>
        <time>2019-02-03T10:31:22Z</time>
      </trkpt>
      <trkpt lat="46.27721" lon="6.47876">
        <ele>1372.42</ele>
        <time>2019-02-03T10:31:33Z</time>
      </trkpt>
      <trkpt lat="46.2772" lon="6.47871">
        <ele>1372.42</ele>
        <time>2019-02-03T10:31:44Z</time>
      </trkpt>
      <trkpt lat="46.2772" lon="6.47868">
        <ele>1372.42</ele>
        <time>2019-02-03T10:32:01Z</time>
      </trkpt>
      <trkpt lat="46.27716" lon="6.47865">
        <ele>1373.38</ele>
        <time>2019-02-03T10:32:13Z</time>
      </trkpt>
      <trkpt lat="46.27716" lon="6.47868">
        <ele>1373.86</ele>
        <time>2019-02-03T10:32:25Z</time>
      </trkpt>
      <trkpt lat="46.27718" lon="6.47875">
        <ele>1374.34</ele>
        <time>2019-02-03T10:32:38Z</time>
      </trkpt>
      <trkpt lat="46.27717" lon="6.47876">
        <ele>1375.3</ele>
        <time>2019-02-03T10:32:59Z</time>
      </trkpt>
      <trkpt lat="46.27712" lon="6.47879">
        <ele>1375.3</ele>
        <time>2019-02-03T10:33:08Z</time>
      </trkpt>
      <trkpt lat="46.27713" lon="6.47882">
        <ele>1376.75</ele>
        <time>2019-02-03T10:33:13Z</time>
      </trkpt>
      <trkpt lat="46.27711" lon="6.47885">
        <ele>1377.23</ele>
        <time>2019-02-03T10:33:26Z</time>
      </trkpt>
      <trkpt lat="46.27706" lon="6.47883">
        <ele>1379.15</ele>
        <time>2019-02-03T10:33:47Z</time>
      </trkpt>
      <trkpt lat="46.27699" lon="6.47879">
        <ele>1379.63</ele>
        <time>2019-02-03T10:34:17Z</time>
      </trkpt>
      <trkpt lat="46.27698" lon="6.47878">
        <ele>1379.63</ele>
        <time>2019-02-03T10:34:38Z</time>
      </trkpt>
      <trkpt lat="46.27701" lon="6.47884">
        <ele>1380.11</ele>
        <time>2019-02-03T10:35:10Z</time>
      </trkpt>
      <trkpt lat="46.27704" lon="6.4789">
        <ele>1382.51</ele>
        <time>2019-02-03T10:35:22Z</time>
      </trkpt>
      <trkpt lat="46.27704" lon="6.47893">
        <ele>1382.03</ele>
        <time>2019-02-03T10:35:42Z</time>
      </trkpt>
      <trkpt lat="46.27701" lon="6.479">
        <ele>1382.99</ele>
        <time>2019-02-03T10:35:53Z</time>
      </trkpt>
      <trkpt lat="46.27701" lon="6.47909">
        <ele>1383.96</ele>
        <time>2019-02-03T10:36:06Z</time>
      </trkpt>
      <trkpt lat="46.27703" lon="6.47915">
        <ele>1384.92</ele>
        <time>2019-02-03T10:36:20Z</time>
      </trkpt>
      <trkpt lat="46.27701" lon="6.4792">
        <ele>1386.36</ele>
        <time>2019-02-03T10:36:38Z</time>
      </trkpt>
      <trkpt lat="46.27701" lon="6.4792">
        <ele>1387.32</ele>
        <time>2019-02-03T10:37:41Z</time>
      </trkpt>
      <trkpt lat="46.27704" lon="6.47929">
        <ele>1387.8</ele>
        <time>2019-02-03T10:38:01Z</time>
      </trkpt>
      <trkpt lat="46.27704" lon="6.47936">
        <ele>1388.28</ele>
        <time>2019-02-03T10:38:11Z</time>
      </trkpt>
      <trkpt lat="46.27703" lon="6.47936">
        <ele>1387.8</ele>
        <time>2019-02-03T10:38:12Z</time>
      </trkpt>
      <trkpt lat="46.27703" lon="6.47939">
        <ele>1387.8</ele>
        <time>2019-02-03T10:38:24Z</time>
      </trkpt>
      <trkpt lat="46.27703" lon="6.47939">
        <ele>1388.76</ele>
        <time>2019-02-03T10:38:32Z</time>
      </trkpt>
      <trkpt lat="46.27704" lon="6.47945">
        <ele>1388.28</ele>
        <time>2019-02-03T10:38:44Z</time>
      </trkpt>
      <trkpt lat="46.27705" lon="6.47948">
        <ele>1387.8</ele>
        <time>2019-02-03T10:39:17Z</time>
      </trkpt>
      <trkpt lat="46.27706" lon="6.47952">
        <ele>1388.76</ele>
        <time>2019-02-03T10:39:28Z</time>
      </trkpt>
      <trkpt lat="46.27705" lon="6.47953">
        <ele>1388.76</ele>
        <time>2019-02-03T10:39:59Z</time>
      </trkpt>
      <trkpt lat="46.27705" lon="6.47953">
        <ele>1389.72</ele>
        <time>2019-02-03T10:40:31Z</time>
      </trkpt>
      <trkpt lat="46.27705" lon="6.47956">
        <ele>1389.72</ele>
        <time>2019-02-03T10:41:17Z</time>
      </trkpt>
      <trkpt lat="46.27705" lon="6.47959">
        <ele>1389.72</ele>
        <time>2019-02-03T10:41:22Z</time>
      </trkpt>
      <trkpt lat="46.27707" lon="6.47968">
        <ele>1390.68</ele>
        <time>2019-02-03T10:41:34Z</time>
      </trkpt>
      <trkpt lat="46.27707" lon="6.47968">
        <ele>1390.68</ele>
        <time>2019-02-03T10:42:09Z</time>
      </trkpt>
      <trkpt lat="46.27706" lon="6.47975">
        <ele>1391.65</ele>
        <time>2019-02-03T10:43:16Z</time>
      </trkpt>
      <trkpt lat="46.27706" lon="6.47975">
        <ele>1391.65</ele>
        <time>2019-02-03T10:43:44Z</time>
      </trkpt>
      <trkpt lat="46.27708" lon="6.4798">
        <ele>1391.65</ele>
        <time>2019-02-03T10:43:56Z</time>
      </trkpt>
      <trkpt lat="46.27705" lon="6.47983">
        <ele>1392.61</ele>
        <time>2019-02-03T10:44:10Z</time>
      </trkpt>
      <trkpt lat="46.27702" lon="6.47983">
        <ele>1394.05</ele>
        <time>2019-02-03T10:44:24Z</time>
      </trkpt>
      <trkpt lat="46.27702" lon="6.47984">
        <ele>1396.45</ele>
        <time>2019-02-03T10:44:54Z</time>
      </trkpt>
      <trkpt lat="46.27701" lon="6.47987">
        <ele>1396.93</ele>
        <time>2019-02-03T10:45:06Z</time>
      </trkpt>
      <trkpt lat="46.27701" lon="6.47988">
        <ele>1397.89</ele>
        <time>2019-02-03T10:45:49Z</time>
      </trkpt>
      <trkpt lat="46.27701" lon="6.47989">
        <ele>1397.89</ele>
        <time>2019-02-03T10:46:06Z</time>
      </trkpt>
      <trkpt lat="46.27702" lon="6.47992">
        <ele>1398.86</ele>
        <time>2019-02-03T10:47:13Z</time>
      </trkpt>
      <trkpt lat="46.27702" lon="6.47992">
        <ele>1399.34</ele>
        <time>2019-02-03T10:47:18Z</time>
      </trkpt>
      <trkpt lat="46.27702" lon="6.47995">
        <ele>1397.89</ele>
        <time>2019-02-03T10:47:33Z</time>
      </trkpt>
      <trkpt lat="46.27702" lon="6.47997">
        <ele>1400.3</ele>
        <time>2019-02-03T10:48:07Z</time>
      </trkpt>
      <trkpt lat="46.27701" lon="6.48">
        <ele>1399.82</ele>
        <time>2019-02-03T10:48:51Z</time>
      </trkpt>
      <trkpt lat="46.27701" lon="6.48">
        <ele>1399.82</ele>
        <time>2019-02-03T10:49:54Z</time>
      </trkpt>
      <trkpt lat="46.27701" lon="6.48002">
        <ele>1399.34</ele>
        <time>2019-02-03T10:51:13Z</time>
      </trkpt>
      <trkpt lat="46.277" lon="6.48004">
        <ele>1400.78</ele>
        <time>2019-02-03T10:52:03Z</time>
      </trkpt>
      <trkpt lat="46.277" lon="6.48005">
        <ele>1399.82</ele>
        <time>2019-02-03T10:53:24Z</time>
      </trkpt>
      <trkpt lat="46.277" lon="6.48007">
        <ele>1401.26</ele>
        <time>2019-02-03T10:53:50Z</time>
      </trkpt>
      <trkpt lat="46.277" lon="6.48008">
        <ele>1400.3</ele>
        <time>2019-02-03T10:54:29Z</time>
      </trkpt>
      <trkpt lat="46.277" lon="6.48008">
        <ele>1401.26</ele>
        <time>2019-02-03T10:54:41Z</time>
      </trkpt>
      <trkpt lat="46.27699" lon="6.48009">
        <ele>1401.74</ele>
        <time>2019-02-03T10:54:52Z</time>
      </trkpt>
      <trkpt lat="46.27699" lon="6.48009">
        <ele>1402.7</ele>
        <time>2019-02-03T10:55:09Z</time>
      </trkpt>
      <trkpt lat="46.27698" lon="6.48009">
        <ele>1401.74</ele>
        <time>2019-02-03T10:55:35Z</time>
      </trkpt>
      <trkpt lat="46.27697" lon="6.48009">
        <ele>1402.22</ele>
        <time>2019-02-03T10:55:55Z</time>
      </trkpt>
      <trkpt lat="46.27697" lon="6.48009">
        <ele>1404.14</ele>
        <time>2019-02-03T10:56:24Z</time>
      </trkpt>
      <trkpt lat="46.27693" lon="6.48013">
        <ele>1405.1</ele>
        <time>2019-02-03T10:56:39Z</time>
      </trkpt>
      <trkpt lat="46.27689" lon="6.48014">
        <ele>1405.58</ele>
        <time>2019-02-03T10:56:51Z</time>
      </trkpt>
      <trkpt lat="46.27687" lon="6.4802">
        <ele>1407.03</ele>
        <time>2019-02-03T10:57:06Z</time>
      </trkpt>
      <trkpt lat="46.27686" lon="6.4802">
        <ele>1408.47</ele>
        <time>2019-02-03T10:57:21Z</time>
      </trkpt>
      <trkpt lat="46.27684" lon="6.48026">
        <ele>1409.43</ele>
        <time>2019-02-03T10:57:32Z</time>
      </trkpt>
      <trkpt lat="46.27684" lon="6.48032">
        <ele>1410.39</ele>
        <time>2019-02-03T10:57:44Z</time>
      </trkpt>
      <trkpt lat="46.27684" lon="6.48032">
        <ele>1411.35</ele>
        <time>2019-02-03T10:58:03Z</time>
      </trkpt>
      <trkpt lat="46.27684" lon="6.48032">
        <ele>1412.79</ele>
        <time>2019-02-03T10:58:16Z</time>
      </trkpt>
      <trkpt lat="46.27682" lon="6.4804">
        <ele>1413.76</ele>
        <time>2019-02-03T10:58:33Z</time>
      </trkpt>
      <trkpt lat="46.2768" lon="6.48046">
        <ele>1413.76</ele>
        <time>2019-02-03T10:58:47Z</time>
      </trkpt>
      <trkpt lat="46.2768" lon="6.48049">
        <ele>1414.24</ele>
        <time>2019-02-03T10:59:44Z</time>
      </trkpt>
      <trkpt lat="46.2768" lon="6.48059">
        <ele>1414.24</ele>
        <time>2019-02-03T10:59:56Z</time>
      </trkpt>
      <trkpt lat="46.2768" lon="6.48062">
        <ele>1415.2</ele>
        <time>2019-02-03T11:00:09Z</time>
      </trkpt>
      <trkpt lat="46.27681" lon="6.4807">
        <ele>1415.2</ele>
        <time>2019-02-03T11:00:24Z</time>
      </trkpt>
      <trkpt lat="46.2768" lon="6.48078">
        <ele>1415.68</ele>
        <time>2019-02-03T11:00:33Z</time>
      </trkpt>
      <trkpt lat="46.2768" lon="6.48079">
        <ele>1416.64</ele>
        <time>2019-02-03T11:01:11Z</time>
      </trkpt>
      <trkpt lat="46.2768" lon="6.48079">
        <ele>1417.12</ele>
        <time>2019-02-03T11:01:30Z</time>
      </trkpt>
      <trkpt lat="46.27679" lon="6.4808">
        <ele>1416.16</ele>
        <time>2019-02-03T11:02:00Z</time>
      </trkpt>
      <trkpt lat="46.27679" lon="6.48081">
        <ele>1417.12</ele>
        <time>2019-02-03T11:03:16Z</time>
      </trkpt>
      <trkpt lat="46.27679" lon="6.48081">
        <ele>1417.12</ele>
        <time>2019-02-03T11:03:41Z</time>
      </trkpt>
      <trkpt lat="46.27679" lon="6.48082">
        <ele>1416.64</ele>
        <time>2019-02-03T11:04:24Z</time>
      </trkpt>
      <trkpt lat="46.27679" lon="6.48086">
        <ele>1417.6</ele>
        <time>2019-02-03T11:04:42Z</time>
      </trkpt>
      <trkpt lat="46.27679" lon="6.48086">
        <ele>1417.12</ele>
        <time>2019-02-03T11:05:09Z</time>
      </trkpt>
      <trkpt lat="46.2768" lon="6.48099">
        <ele>1418.08</ele>
        <time>2019-02-03T11:05:25Z</time>
      </trkpt>
      <trkpt lat="46.2768" lon="6.481">
        <ele>1418.08</ele>
        <time>2019-02-03T11:06:14Z</time>
      </trkpt>
      <trkpt lat="46.2768" lon="6.481">
        <ele>1418.08</ele>
        <time>2019-02-03T11:06:28Z</time>
      </trkpt>
      <trkpt lat="46.2768" lon="6.481">
        <ele>1419.52</ele>
        <time>2019-02-03T11:06:41Z</time>
      </trkpt>
      <trkpt lat="46.27683" lon="6.48106">
        <ele>1418.56</ele>
        <time>2019-02-03T11:06:52Z</time>
      </trkpt>
      <trkpt lat="46.27683" lon="6.48109">
        <ele>1417.12</ele>
        <time>2019-02-03T11:07:11Z</time>
      </trkpt>
      <trkpt lat="46.27686" lon="6.48114">
        <ele>1419.04</ele>
        <time>2019-02-03T11:07:27Z</time>
      </trkpt>
      <trkpt lat="46.27686" lon="6.48114">
        <ele>1418.08</ele>
        <time>2019-02-03T11:07:39Z</time>
      </trkpt>
      <trkpt lat="46.27691" lon="6.48127">
        <ele>1417.6</ele>
        <time>2019-02-03T11:07:53Z</time>
      </trkpt>
      <trkpt lat="46.27691" lon="6.48127">
        <ele>1418.08</ele>
        <time>2019-02-03T11:08:17Z</time>
      </trkpt>
      <trkpt lat="46.27693" lon="6.48132">
        <ele>1418.08</ele>
        <time>2019-02-03T11:08:54Z</time>
      </trkpt>
      <trkpt lat="46.27694" lon="6.48132">
        <ele>1417.12</ele>
        <time>2019-02-03T11:09:07Z</time>
      </trkpt>
      <trkpt lat="46.27696" lon="6.48136">
        <ele>1418.08</ele>
        <time>2019-02-03T11:09:24Z</time>
      </trkpt>
      <trkpt lat="46.27696" lon="6.48136">
        <ele>1417.12</ele>
        <time>2019-02-03T11:09:41Z</time>
      </trkpt>
      <trkpt lat="46.277" lon="6.48147">
        <ele>1417.6</ele>
        <time>2019-02-03T11:10:02Z</time>
      </trkpt>
      <trkpt lat="46.27701" lon="6.4815">
        <ele>1418.08</ele>
        <time>2019-02-03T11:10:34Z</time>
      </trkpt>
      <trkpt lat="46.27702" lon="6.48151">
        <ele>1417.6</ele>
        <time>2019-02-03T11:11:17Z</time>
      </trkpt>
      <trkpt lat="46.27703" lon="6.48151">
        <ele>1417.6</ele>
        <time>2019-02-03T11:13:00Z</time>
      </trkpt>
      <trkpt lat="46.27706" lon="6.48153">
        <ele>1417.12</ele>
        <time>2019-02-03T11:13:32Z</time>
      </trkpt>
      <trkpt lat="46.27708" lon="6.48155">
        <ele>1417.6</ele>
        <time>2019-02-03T11:13:52Z</time>
      </trkpt>
      <trkpt lat="46.27708" lon="6.48155">
        <ele>1417.12</ele>
        <time>2019-02-03T11:14:16Z</time>
      </trkpt>
      <trkpt lat="46.27711" lon="6.48157">
        <ele>1417.12</ele>
        <time>2019-02-03T11:14:32Z</time>
      </trkpt>
      <trkpt lat="46.27711" lon="6.48157">
        <ele>1417.12</ele>
        <time>2019-02-03T11:14:50Z</time>
      </trkpt>
      <trkpt lat="46.27712" lon="6.4816">
        <ele>1419.04</ele>
        <time>2019-02-03T11:15:11Z</time>
      </trkpt>
      <trkpt lat="46.27712" lon="6.4816">
        <ele>1418.56</ele>
        <time>2019-02-03T11:15:25Z</time>
      </trkpt>
      <trkpt lat="46.27713" lon="6.48162">
        <ele>1420</ele>
        <time>2019-02-03T11:15:38Z</time>
      </trkpt>
      <trkpt lat="46.27713" lon="6.48162">
        <ele>1420</ele>
        <time>2019-02-03T11:15:59Z</time>
      </trkpt>
      <trkpt lat="46.27714" lon="6.48163">
        <ele>1421.45</ele>
        <time>2019-02-03T11:16:17Z</time>
      </trkpt>
      <trkpt lat="46.27714" lon="6.48164">
        <ele>1421.45</ele>
        <time>2019-02-03T11:16:45Z</time>
      </trkpt>
      <trkpt lat="46.27714" lon="6.48164">
        <ele>1420.97</ele>
        <time>2019-02-03T11:17:04Z</time>
      </trkpt>
      <trkpt lat="46.27714" lon="6.48165">
        <ele>1421.45</ele>
        <time>2019-02-03T11:17:25Z</time>
      </trkpt>
      <trkpt lat="46.27714" lon="6.48165">
        <ele>1422.41</ele>
        <time>2019-02-03T11:17:27Z</time>
      </trkpt>
      <trkpt lat="46.27714" lon="6.48165">
        <ele>1422.89</ele>
        <time>2019-02-03T11:17:49Z</time>
      </trkpt>
      <trkpt lat="46.27715" lon="6.48166">
        <ele>1422.89</ele>
        <time>2019-02-03T11:18:09Z</time>
      </trkpt>
      <trkpt lat="46.27715" lon="6.48166">
        <ele>1422.89</ele>
        <time>2019-02-03T11:19:12Z</time>
      </trkpt>
      <trkpt lat="46.27711" lon="6.48169">
        <ele>1421.93</ele>
        <time>2019-02-03T11:20:30Z</time>
      </trkpt>
      <trkpt lat="46.2771" lon="6.4817">
        <ele>1421.93</ele>
        <time>2019-02-03T11:21:09Z</time>
      </trkpt>
      <trkpt lat="46.27706" lon="6.48173">
        <ele>1421.45</ele>
        <time>2019-02-03T11:22:02Z</time>
      </trkpt>
      <trkpt lat="46.27705" lon="6.48172">
        <ele>1421.45</ele>
        <time>2019-02-03T11:22:51Z</time>
      </trkpt>
      <trkpt lat="46.27705" lon="6.48172">
        <ele>1420</ele>
        <time>2019-02-03T11:23:14Z</time>
      </trkpt>
      <trkpt lat="46.27704" lon="6.48171">
        <ele>1419.52</ele>
        <time>2019-02-03T11:23:32Z</time>
      </trkpt>
      <trkpt lat="46.27703" lon="6.48171">
        <ele>1420</ele>
        <time>2019-02-03T11:24:01Z</time>
      </trkpt>
      <trkpt lat="46.27703" lon="6.48171">
        <ele>1420</ele>
        <time>2019-02-03T11:24:18Z</time>
      </trkpt>
      <trkpt lat="46.27687" lon="6.48163">
        <ele>1420</ele>
        <time>2019-02-03T11:25:01Z</time>
      </trkpt>
      <trkpt lat="46.27687" lon="6.48163">
        <ele>1420</ele>
        <time>2019-02-03T11:25:19Z</time>
      </trkpt>
      <trkpt lat="46.27687" lon="6.48162">
        <ele>1421.45</ele>
        <time>2019-02-03T11:25:46Z</time>
      </trkpt>
      <trkpt lat="46.27687" lon="6.48162">
        <ele>1420.49</ele>
        <time>2019-02-03T11:26:09Z</time>
      </trkpt>
      <trkpt lat="46.27684" lon="6.48159">
        <ele>1420.97</ele>
        <time>2019-02-03T11:27:46Z</time>
      </trkpt>
      <trkpt lat="46.27684" lon="6.48159">
        <ele>1420.97</ele>
        <time>2019-02-03T11:28:02Z</time>
      </trkpt>
      <trkpt lat="46.27681" lon="6.48158">
        <ele>1420.49</ele>
        <time>2019-02-03T11:28:15Z</time>
      </trkpt>
      <trkpt lat="46.27681" lon="6.48158">
        <ele>1419.04</ele>
        <time>2019-02-03T11:29:15Z</time>
      </trkpt>
      <trkpt lat="46.27681" lon="6.48157">
        <ele>1419.04</ele>
        <time>2019-02-03T11:29:43Z</time>
      </trkpt>
      <trkpt lat="46.2768" lon="6.48157">
        <ele>1419.04</ele>
        <time>2019-02-03T11:31:07Z</time>
      </trkpt>
      <trkpt lat="46.2768" lon="6.48156">
        <ele>1418.56</ele>
        <time>2019-02-03T11:31:58Z</time>
      </trkpt>
      <trkpt lat="46.2768" lon="6.48153">
        <ele>1419.04</ele>
        <time>2019-02-03T11:32:28Z</time>
      </trkpt>
      <trkpt lat="46.2768" lon="6.48149">
        <ele>1418.56</ele>
        <time>2019-02-03T11:32:40Z</time>
      </trkpt>
      <trkpt lat="46.2768" lon="6.48149">
        <ele>1419.04</ele>
        <time>2019-02-03T11:33:01Z</time>
      </trkpt>
      <trkpt lat="46.27681" lon="6.48149">
        <ele>1419.52</ele>
        <time>2019-02-03T11:34:17Z</time>
      </trkpt>
      <trkpt lat="46.2768" lon="6.48149">
        <ele>1417.6</ele>
        <time>2019-02-03T11:34:44Z</time>
      </trkpt>
      <trkpt lat="46.27677" lon="6.48146">
        <ele>1418.08</ele>
        <time>2019-02-03T11:34:55Z</time>
      </trkpt>
      <trkpt lat="46.27673" lon="6.48141">
        <ele>1420.97</ele>
        <time>2019-02-03T11:35:09Z</time>
      </trkpt>
      <trkpt lat="46.27663" lon="6.48138">
        <ele>1422.41</ele>
        <time>2019-02-03T11:35:23Z</time>
      </trkpt>
      <trkpt lat="46.27663" lon="6.48138">
        <ele>1423.37</ele>
        <time>2019-02-03T11:35:36Z</time>
      </trkpt>
      <trkpt lat="46.27661" lon="6.48139">
        <ele>1423.85</ele>
        <time>2019-02-03T11:36:09Z</time>
      </trkpt>
      <trkpt lat="46.27659" lon="6.48139">
        <ele>1423.85</ele>
        <time>2019-02-03T11:36:31Z</time>
      </trkpt>
      <trkpt lat="46.27655" lon="6.48141">
        <ele>1424.81</ele>
        <time>2019-02-03T11:37:05Z</time>
      </trkpt>
      <trkpt lat="46.27654" lon="6.48141">
        <ele>1424.33</ele>
        <time>2019-02-03T11:37:49Z</time>
      </trkpt>
      <trkpt lat="46.27652" lon="6.48141">
        <ele>1424.33</ele>
        <time>2019-02-03T11:38:10Z</time>
      </trkpt>
      <trkpt lat="46.27651" lon="6.48139">
        <ele>1422.41</ele>
        <time>2019-02-03T11:40:14Z</time>
      </trkpt>
      <trkpt lat="46.27649" lon="6.48139">
        <ele>1421.45</ele>
        <time>2019-02-03T11:43:35Z</time>
      </trkpt>
      <trkpt lat="46.27649" lon="6.4814">
        <ele>1420</ele>
        <time>2019-02-03T11:50:59Z</time>
      </trkpt>
      <trkpt lat="46.27649" lon="6.48138">
        <ele>1420.49</ele>
        <time>2019-02-03T11:55:33Z</time>
      </trkpt>
      <trkpt lat="46.2765" lon="6.48137">
        <ele>1420.49</ele>
        <time>2019-02-03T11:57:28Z</time>
      </trkpt>
      <trkpt lat="46.27649" lon="6.48136">
        <ele>1420.97</ele>
        <time>2019-02-03T11:57:54Z</time>
      </trkpt>
      <trkpt lat="46.27647" lon="6.48136">
        <ele>1421.45</ele>
        <time>2019-02-03T11:58:16Z</time>
      </trkpt>
      <trkpt lat="46.27647" lon="6.48136">
        <ele>1421.45</ele>
        <time>2019-02-03T11:58:36Z</time>
      </trkpt>
      <trkpt lat="46.27648" lon="6.48136">
        <ele>1421.93</ele>
        <time>2019-02-03T11:59:23Z</time>
      </trkpt>
      <trkpt lat="46.27647" lon="6.48136">
        <ele>1421.45</ele>
        <time>2019-02-03T12:00:44Z</time>
      </trkpt>
      <trkpt lat="46.27647" lon="6.48135">
        <ele>1421.93</ele>
        <time>2019-02-03T12:01:06Z</time>
      </trkpt>
      <trkpt lat="46.27648" lon="6.48134">
        <ele>1420.49</ele>
        <time>2019-02-03T12:02:44Z</time>
      </trkpt>
      <trkpt lat="46.27653" lon="6.48128">
        <ele>1418.08</ele>
        <time>2019-02-03T12:02:53Z</time>
      </trkpt>
      <trkpt lat="46.27655" lon="6.48128">
        <ele>1416.64</ele>
        <time>2019-02-03T12:03:13Z</time>
      </trkpt>
      <trkpt lat="46.27657" lon="6.48126">
        <ele>1415.68</ele>
        <time>2019-02-03T12:03:33Z</time>
      </trkpt>
      <trkpt lat="46.27661" lon="6.48125">
        <ele>1413.76</ele>
        <time>2019-02-03T12:03:53Z</time>
      </trkpt>
      <trkpt lat="46.2766" lon="6.48125">
        <ele>1414.24</ele>
        <time>2019-02-03T12:04:02Z</time>
      </trkpt>
      <trkpt lat="46.27662" lon="6.48125">
        <ele>1411.83</ele>
        <time>2019-02-03T12:04:15Z</time>
      </trkpt>
      <trkpt lat="46.27662" lon="6.48125">
        <ele>1410.87</ele>
        <time>2019-02-03T12:04:29Z</time>
      </trkpt>
      <trkpt lat="46.27663" lon="6.48125">
        <ele>1410.39</ele>
        <time>2019-02-03T12:04:46Z</time>
      </trkpt>
      <trkpt lat="46.27665" lon="6.48126">
        <ele>1411.35</ele>
        <time>2019-02-03T12:04:57Z</time>
      </trkpt>
      <trkpt lat="46.27665" lon="6.48125">
        <ele>1409.91</ele>
        <time>2019-02-03T12:05:15Z</time>
      </trkpt>
      <trkpt lat="46.27671" lon="6.48124">
        <ele>1409.43</ele>
        <time>2019-02-03T12:05:31Z</time>
      </trkpt>
      <trkpt lat="46.27673" lon="6.48122">
        <ele>1407.99</ele>
        <time>2019-02-03T12:05:55Z</time>
      </trkpt>
      <trkpt lat="46.27673" lon="6.48122">
        <ele>1407.51</ele>
        <time>2019-02-03T12:06:15Z</time>
      </trkpt>
      <trkpt lat="46.27676" lon="6.48113">
        <ele>1406.55</ele>
        <time>2019-02-03T12:06:31Z</time>
      </trkpt>
      <trkpt lat="46.27675" lon="6.48104">
        <ele>1405.58</ele>
        <time>2019-02-03T12:06:43Z</time>
      </trkpt>
      <trkpt lat="46.27677" lon="6.48095">
        <ele>1403.66</ele>
        <time>2019-02-03T12:06:56Z</time>
      </trkpt>
      <trkpt lat="46.27678" lon="6.4809">
        <ele>1402.7</ele>
        <time>2019-02-03T12:07:04Z</time>
      </trkpt>
      <trkpt lat="46.2768" lon="6.4808">
        <ele>1402.22</ele>
        <time>2019-02-03T12:07:14Z</time>
      </trkpt>
      <trkpt lat="46.27679" lon="6.48062">
        <ele>1399.82</ele>
        <time>2019-02-03T12:07:28Z</time>
      </trkpt>
      <trkpt lat="46.2768" lon="6.48049">
        <ele>1398.37</ele>
        <time>2019-02-03T12:07:41Z</time>
      </trkpt>
      <trkpt lat="46.27678" lon="6.48037">
        <ele>1396.93</ele>
        <time>2019-02-03T12:07:52Z</time>
      </trkpt>
      <trkpt lat="46.27679" lon="6.48025">
        <ele>1394.53</ele>
        <time>2019-02-03T12:08:06Z</time>
      </trkpt>
      <trkpt lat="46.2768" lon="6.48023">
        <ele>1393.09</ele>
        <time>2019-02-03T12:08:18Z</time>
      </trkpt>
      <trkpt lat="46.2768" lon="6.48023">
        <ele>1391.17</ele>
        <time>2019-02-03T12:08:30Z</time>
      </trkpt>
      <trkpt lat="46.2768" lon="6.48023">
        <ele>1388.76</ele>
        <time>2019-02-03T12:08:41Z</time>
      </trkpt>
      <trkpt lat="46.2768" lon="6.48023">
        <ele>1387.32</ele>
        <time>2019-02-03T12:08:55Z</time>
      </trkpt>
      <trkpt lat="46.27681" lon="6.4802">
        <ele>1385.88</ele>
        <time>2019-02-03T12:09:11Z</time>
      </trkpt>
      <trkpt lat="46.27682" lon="6.48018">
        <ele>1384.92</ele>
        <time>2019-02-03T12:09:19Z</time>
      </trkpt>
      <trkpt lat="46.27684" lon="6.48015">
        <ele>1383.47</ele>
        <time>2019-02-03T12:09:30Z</time>
      </trkpt>
      <trkpt lat="46.27687" lon="6.48012">
        <ele>1382.99</ele>
        <time>2019-02-03T12:09:41Z</time>
      </trkpt>
      <trkpt lat="46.27692" lon="6.48003">
        <ele>1379.63</ele>
        <time>2019-02-03T12:09:59Z</time>
      </trkpt>
      <trkpt lat="46.277" lon="6.47979">
        <ele>1377.23</ele>
        <time>2019-02-03T12:10:19Z</time>
      </trkpt>
      <trkpt lat="46.277" lon="6.47965">
        <ele>1376.75</ele>
        <time>2019-02-03T12:10:30Z</time>
      </trkpt>
      <trkpt lat="46.27699" lon="6.47951">
        <ele>1375.78</ele>
        <time>2019-02-03T12:10:41Z</time>
      </trkpt>
      <trkpt lat="46.277" lon="6.47933">
        <ele>1374.82</ele>
        <time>2019-02-03T12:10:56Z</time>
      </trkpt>
      <trkpt lat="46.27701" lon="6.47923">
        <ele>1373.86</ele>
        <time>2019-02-03T12:11:05Z</time>
      </trkpt>
      <trkpt lat="46.27697" lon="6.47913">
        <ele>1372.9</ele>
        <time>2019-02-03T12:11:16Z</time>
      </trkpt>
      <trkpt lat="46.27698" lon="6.47904">
        <ele>1370.5</ele>
        <time>2019-02-03T12:11:28Z</time>
      </trkpt>
      <trkpt lat="46.27698" lon="6.47898">
        <ele>1369.05</ele>
        <time>2019-02-03T12:11:39Z</time>
      </trkpt>
      <trkpt lat="46.27698" lon="6.47889">
        <ele>1368.09</ele>
        <time>2019-02-03T12:11:50Z</time>
      </trkpt>
      <trkpt lat="46.27703" lon="6.47886">
        <ele>1366.65</ele>
        <time>2019-02-03T12:12:04Z</time>
      </trkpt>
      <trkpt lat="46.27703" lon="6.47885">
        <ele>1367.13</ele>
        <time>2019-02-03T12:12:20Z</time>
      </trkpt>
      <trkpt lat="46.27704" lon="6.47884">
        <ele>1365.21</ele>
        <time>2019-02-03T12:12:43Z</time>
      </trkpt>
      <trkpt lat="46.27706" lon="6.47884">
        <ele>1363.29</ele>
        <time>2019-02-03T12:12:54Z</time>
      </trkpt>
      <trkpt lat="46.27709" lon="6.47875">
        <ele>1361.84</ele>
        <time>2019-02-03T12:13:06Z</time>
      </trkpt>
      <trkpt lat="46.27713" lon="6.47868">
        <ele>1359.44</ele>
        <time>2019-02-03T12:13:19Z</time>
      </trkpt>
      <trkpt lat="46.27714" lon="6.47868">
        <ele>1358.96</ele>
        <time>2019-02-03T12:13:24Z</time>
      </trkpt>
      <trkpt lat="46.27715" lon="6.47881">
        <ele>1356.56</ele>
        <time>2019-02-03T12:13:36Z</time>
      </trkpt>
      <trkpt lat="46.27716" lon="6.47885">
        <ele>1356.56</ele>
        <time>2019-02-03T12:13:39Z</time>
      </trkpt>
      <trkpt lat="46.2772" lon="6.479">
        <ele>1353.67</ele>
        <time>2019-02-03T12:13:53Z</time>
      </trkpt>
      <trkpt lat="46.27725" lon="6.47899">
        <ele>1352.71</ele>
        <time>2019-02-03T12:14:07Z</time>
      </trkpt>
      <trkpt lat="46.2774" lon="6.47891">
        <ele>1351.75</ele>
        <time>2019-02-03T12:14:18Z</time>
      </trkpt>
      <trkpt lat="46.27741" lon="6.47874">
        <ele>1351.75</ele>
        <time>2019-02-03T12:14:28Z</time>
      </trkpt>
      <trkpt lat="46.27741" lon="6.4787">
        <ele>1350.79</ele>
        <time>2019-02-03T12:14:32Z</time>
      </trkpt>
      <trkpt lat="46.2774" lon="6.4785">
        <ele>1350.31</ele>
        <time>2019-02-03T12:14:45Z</time>
      </trkpt>
      <trkpt lat="46.27735" lon="6.4784">
        <ele>1351.27</ele>
        <time>2019-02-03T12:14:59Z</time>
      </trkpt>
      <trkpt lat="46.27733" lon="6.47833">
        <ele>1349.35</ele>
        <time>2019-02-03T12:15:12Z</time>
      </trkpt>
      <trkpt lat="46.27731" lon="6.47826">
        <ele>1348.39</ele>
        <time>2019-02-03T12:15:28Z</time>
      </trkpt>
      <trkpt lat="46.27731" lon="6.4782">
        <ele>1345.5</ele>
        <time>2019-02-03T12:15:43Z</time>
      </trkpt>
      <trkpt lat="46.27728" lon="6.47806">
        <ele>1344.54</ele>
        <time>2019-02-03T12:15:54Z</time>
      </trkpt>
      <trkpt lat="46.27724" lon="6.47801">
        <ele>1345.02</ele>
        <time>2019-02-03T12:16:05Z</time>
      </trkpt>
      <trkpt lat="46.27722" lon="6.4779">
        <ele>1346.46</ele>
        <time>2019-02-03T12:16:17Z</time>
      </trkpt>
      <trkpt lat="46.27722" lon="6.4777">
        <ele>1345.5</ele>
        <time>2019-02-03T12:16:31Z</time>
      </trkpt>
      <trkpt lat="46.27722" lon="6.47762">
        <ele>1342.62</ele>
        <time>2019-02-03T12:16:43Z</time>
      </trkpt>
      <trkpt lat="46.27723" lon="6.47752">
        <ele>1340.7</ele>
        <time>2019-02-03T12:16:55Z</time>
      </trkpt>
      <trkpt lat="46.27726" lon="6.47745">
        <ele>1338.77</ele>
        <time>2019-02-03T12:17:07Z</time>
      </trkpt>
      <trkpt lat="46.27729" lon="6.47731">
        <ele>1335.89</ele>
        <time>2019-02-03T12:17:19Z</time>
      </trkpt>
      <trkpt lat="46.27732" lon="6.47717">
        <ele>1333.49</ele>
        <time>2019-02-03T12:17:33Z</time>
      </trkpt>
      <trkpt lat="46.27736" lon="6.47709">
        <ele>1333.01</ele>
        <time>2019-02-03T12:17:49Z</time>
      </trkpt>
      <trkpt lat="46.27738" lon="6.477">
        <ele>1332.04</ele>
        <time>2019-02-03T12:17:59Z</time>
      </trkpt>
      <trkpt lat="46.27733" lon="6.47689">
        <ele>1329.64</ele>
        <time>2019-02-03T12:18:11Z</time>
      </trkpt>
      <trkpt lat="46.27732" lon="6.47686">
        <ele>1329.16</ele>
        <time>2019-02-03T12:18:13Z</time>
      </trkpt>
      <trkpt lat="46.27729" lon="6.47683">
        <ele>1328.68</ele>
        <time>2019-02-03T12:18:16Z</time>
      </trkpt>
      <trkpt lat="46.27725" lon="6.47679">
        <ele>1327.72</ele>
        <time>2019-02-03T12:18:20Z</time>
      </trkpt>
      <trkpt lat="46.27717" lon="6.4767">
        <ele>1326.28</ele>
        <time>2019-02-03T12:18:31Z</time>
      </trkpt>
      <trkpt lat="46.27717" lon="6.47661">
        <ele>1325.8</ele>
        <time>2019-02-03T12:18:45Z</time>
      </trkpt>
      <trkpt lat="46.27714" lon="6.47655">
        <ele>1323.87</ele>
        <time>2019-02-03T12:19:16Z</time>
      </trkpt>
      <trkpt lat="46.27704" lon="6.47651">
        <ele>1321.95</ele>
        <time>2019-02-03T12:19:27Z</time>
      </trkpt>
      <trkpt lat="46.27698" lon="6.47653">
        <ele>1321.95</ele>
        <time>2019-02-03T12:19:37Z</time>
      </trkpt>
      <trkpt lat="46.27691" lon="6.4765">
        <ele>1320.99</ele>
        <time>2019-02-03T12:19:47Z</time>
      </trkpt>
      <trkpt lat="46.2768" lon="6.47648">
        <ele>1321.47</ele>
        <time>2019-02-03T12:19:59Z</time>
      </trkpt>
      <trkpt lat="46.27674" lon="6.4765">
        <ele>1319.07</ele>
        <time>2019-02-03T12:20:17Z</time>
      </trkpt>
      <trkpt lat="46.27663" lon="6.4765">
        <ele>1318.1</ele>
        <time>2019-02-03T12:20:28Z</time>
      </trkpt>
      <trkpt lat="46.27655" lon="6.47654">
        <ele>1318.1</ele>
        <time>2019-02-03T12:20:42Z</time>
      </trkpt>
      <trkpt lat="46.27653" lon="6.47656">
        <ele>1318.1</ele>
        <time>2019-02-03T12:20:45Z</time>
      </trkpt>
      <trkpt lat="46.27644" lon="6.47658">
        <ele>1316.66</ele>
        <time>2019-02-03T12:20:57Z</time>
      </trkpt>
      <trkpt lat="46.27633" lon="6.47661">
        <ele>1317.14</ele>
        <time>2019-02-03T12:21:15Z</time>
      </trkpt>
      <trkpt lat="46.27625" lon="6.4766">
        <ele>1314.74</ele>
        <time>2019-02-03T12:21:32Z</time>
      </trkpt>
      <trkpt lat="46.27617" lon="6.47654">
        <ele>1312.34</ele>
        <time>2019-02-03T12:21:44Z</time>
      </trkpt>
      <trkpt lat="46.27609" lon="6.47645">
        <ele>1310.41</ele>
        <time>2019-02-03T12:21:56Z</time>
      </trkpt>
      <trkpt lat="46.276" lon="6.47636">
        <ele>1308.49</ele>
        <time>2019-02-03T12:22:07Z</time>
      </trkpt>
      <trkpt lat="46.27599" lon="6.47614">
        <ele>1307.05</ele>
        <time>2019-02-03T12:22:23Z</time>
      </trkpt>
      <trkpt lat="46.27599" lon="6.47597">
        <ele>1307.05</ele>
        <time>2019-02-03T12:22:36Z</time>
      </trkpt>
      <trkpt lat="46.276" lon="6.47588">
        <ele>1305.61</ele>
        <time>2019-02-03T12:22:46Z</time>
      </trkpt>
      <trkpt lat="46.27599" lon="6.47585">
        <ele>1305.61</ele>
        <time>2019-02-03T12:22:47Z</time>
      </trkpt>
      <trkpt lat="46.27597" lon="6.47579">
        <ele>1305.13</ele>
        <time>2019-02-03T12:22:50Z</time>
      </trkpt>
      <trkpt lat="46.27595" lon="6.47566">
        <ele>1303.69</ele>
        <time>2019-02-03T12:23:00Z</time>
      </trkpt>
      <trkpt lat="46.27592" lon="6.47549">
        <ele>1301.76</ele>
        <time>2019-02-03T12:23:13Z</time>
      </trkpt>
      <trkpt lat="46.27588" lon="6.47533">
        <ele>1300.8</ele>
        <time>2019-02-03T12:23:25Z</time>
      </trkpt>
      <trkpt lat="46.27584" lon="6.47524">
        <ele>1299.84</ele>
        <time>2019-02-03T12:23:38Z</time>
      </trkpt>
      <trkpt lat="46.27584" lon="6.4752">
        <ele>1297.92</ele>
        <time>2019-02-03T12:23:58Z</time>
      </trkpt>
      <trkpt lat="46.27581" lon="6.47512">
        <ele>1297.92</ele>
        <time>2019-02-03T12:24:09Z</time>
      </trkpt>
      <trkpt lat="46.27577" lon="6.47503">
        <ele>1295.51</ele>
        <time>2019-02-03T12:24:19Z</time>
      </trkpt>
      <trkpt lat="46.27575" lon="6.4749">
        <ele>1293.59</ele>
        <time>2019-02-03T12:24:36Z</time>
      </trkpt>
      <trkpt lat="46.27572" lon="6.47483">
        <ele>1293.11</ele>
        <time>2019-02-03T12:24:45Z</time>
      </trkpt>
      <trkpt lat="46.2757" lon="6.47471">
        <ele>1291.19</ele>
        <time>2019-02-03T12:24:59Z</time>
      </trkpt>
      <trkpt lat="46.27569" lon="6.47461">
        <ele>1288.78</ele>
        <time>2019-02-03T12:25:12Z</time>
      </trkpt>
      <trkpt lat="46.27568" lon="6.47447">
        <ele>1286.38</ele>
        <time>2019-02-03T12:25:23Z</time>
      </trkpt>
      <trkpt lat="46.27565" lon="6.47433">
        <ele>1283.98</ele>
        <time>2019-02-03T12:25:36Z</time>
      </trkpt>
      <trkpt lat="46.27557" lon="6.4742">
        <ele>1281.57</ele>
        <time>2019-02-03T12:25:49Z</time>
      </trkpt>
      <trkpt lat="46.27555" lon="6.47415">
        <ele>1280.13</ele>
        <time>2019-02-03T12:26:02Z</time>
      </trkpt>
      <trkpt lat="46.27551" lon="6.47408">
        <ele>1279.17</ele>
        <time>2019-02-03T12:26:07Z</time>
      </trkpt>
      <trkpt lat="46.27543" lon="6.47391">
        <ele>1276.77</ele>
        <time>2019-02-03T12:26:20Z</time>
      </trkpt>
      <trkpt lat="46.27536" lon="6.47378">
        <ele>1274.36</ele>
        <time>2019-02-03T12:26:34Z</time>
      </trkpt>
      <trkpt lat="46.27531" lon="6.47366">
        <ele>1273.88</ele>
        <time>2019-02-03T12:26:45Z</time>
      </trkpt>
      <trkpt lat="46.27525" lon="6.47357">
        <ele>1271.96</ele>
        <time>2019-02-03T12:26:58Z</time>
      </trkpt>
      <trkpt lat="46.27518" lon="6.47347">
        <ele>1271</ele>
        <time>2019-02-03T12:27:09Z</time>
      </trkpt>
      <trkpt lat="46.27511" lon="6.47333">
        <ele>1269.08</ele>
        <time>2019-02-03T12:27:22Z</time>
      </trkpt>
      <trkpt lat="46.27504" lon="6.47318">
        <ele>1266.67</ele>
        <time>2019-02-03T12:27:37Z</time>
      </trkpt>
      <trkpt lat="46.27499" lon="6.47306">
        <ele>1263.79</ele>
        <time>2019-02-03T12:27:48Z</time>
      </trkpt>
      <trkpt lat="46.27493" lon="6.47293">
        <ele>1260.91</ele>
        <time>2019-02-03T12:28:03Z</time>
      </trkpt>
      <trkpt lat="46.27491" lon="6.4729">
        <ele>1259.94</ele>
        <time>2019-02-03T12:28:06Z</time>
      </trkpt>
      <trkpt lat="46.27482" lon="6.47282">
        <ele>1258.98</ele>
        <time>2019-02-03T12:28:20Z</time>
      </trkpt>
      <trkpt lat="46.27473" lon="6.47277">
        <ele>1255.62</ele>
        <time>2019-02-03T12:28:34Z</time>
      </trkpt>
      <trkpt lat="46.27466" lon="6.4727">
        <ele>1253.22</ele>
        <time>2019-02-03T12:28:48Z</time>
      </trkpt>
      <trkpt lat="46.27452" lon="6.47268">
        <ele>1251.77</ele>
        <time>2019-02-03T12:29:02Z</time>
      </trkpt>
      <trkpt lat="46.27442" lon="6.47263">
        <ele>1250.33</ele>
        <time>2019-02-03T12:29:14Z</time>
      </trkpt>
      <trkpt lat="46.27432" lon="6.47258">
        <ele>1247.93</ele>
        <time>2019-02-03T12:29:29Z</time>
      </trkpt>
      <trkpt lat="46.27428" lon="6.47253">
        <ele>1247.93</ele>
        <time>2019-02-03T12:29:42Z</time>
      </trkpt>
      <trkpt lat="46.27427" lon="6.47252">
        <ele>1247.45</ele>
        <time>2019-02-03T12:29:44Z</time>
      </trkpt>
      <trkpt lat="46.27413" lon="6.47248">
        <ele>1245.04</ele>
        <time>2019-02-03T12:29:58Z</time>
      </trkpt>
      <trkpt lat="46.27403" lon="6.47247">
        <ele>1244.08</ele>
        <time>2019-02-03T12:30:13Z</time>
      </trkpt>
      <trkpt lat="46.27401" lon="6.47246">
        <ele>1245.04</ele>
        <time>2019-02-03T12:30:36Z</time>
      </trkpt>
      <trkpt lat="46.27397" lon="6.47244">
        <ele>1244.08</ele>
        <time>2019-02-03T12:31:13Z</time>
      </trkpt>
      <trkpt lat="46.27392" lon="6.47233">
        <ele>1243.12</ele>
        <time>2019-02-03T12:31:27Z</time>
      </trkpt>
      <trkpt lat="46.27391" lon="6.4723">
        <ele>1242.16</ele>
        <time>2019-02-03T12:31:31Z</time>
      </trkpt>
      <trkpt lat="46.2738" lon="6.47226">
        <ele>1239.76</ele>
        <time>2019-02-03T12:31:46Z</time>
      </trkpt>
      <trkpt lat="46.27368" lon="6.47226">
        <ele>1237.83</ele>
        <time>2019-02-03T12:31:59Z</time>
      </trkpt>
      <trkpt lat="46.27366" lon="6.47227">
        <ele>1237.83</ele>
        <time>2019-02-03T12:32:04Z</time>
      </trkpt>
      <trkpt lat="46.2736" lon="6.47228">
        <ele>1236.39</ele>
        <time>2019-02-03T12:32:17Z</time>
      </trkpt>
      <trkpt lat="46.27345" lon="6.47226">
        <ele>1233.99</ele>
        <time>2019-02-03T12:32:32Z</time>
      </trkpt>
      <trkpt lat="46.27339" lon="6.47224">
        <ele>1232.55</ele>
        <time>2019-02-03T12:32:40Z</time>
      </trkpt>
      <trkpt lat="46.27331" lon="6.47221">
        <ele>1230.14</ele>
        <time>2019-02-03T12:32:52Z</time>
      </trkpt>
      <trkpt lat="46.27321" lon="6.47214">
        <ele>1228.7</ele>
        <time>2019-02-03T12:33:04Z</time>
      </trkpt>
      <trkpt lat="46.2732" lon="6.47214">
        <ele>1228.7</ele>
        <time>2019-02-03T12:33:05Z</time>
      </trkpt>
      <trkpt lat="46.27308" lon="6.47207">
        <ele>1226.3</ele>
        <time>2019-02-03T12:33:19Z</time>
      </trkpt>
      <trkpt lat="46.27298" lon="6.47206">
        <ele>1224.86</ele>
        <time>2019-02-03T12:33:30Z</time>
      </trkpt>
      <trkpt lat="46.2729" lon="6.47207">
        <ele>1223.42</ele>
        <time>2019-02-03T12:33:41Z</time>
      </trkpt>
      <trkpt lat="46.27282" lon="6.47204">
        <ele>1222.45</ele>
        <time>2019-02-03T12:33:54Z</time>
      </trkpt>
      <trkpt lat="46.27277" lon="6.47205">
        <ele>1222.45</ele>
        <time>2019-02-03T12:34:03Z</time>
      </trkpt>
      <trkpt lat="46.27269" lon="6.472">
        <ele>1219.57</ele>
        <time>2019-02-03T12:34:14Z</time>
      </trkpt>
      <trkpt lat="46.27265" lon="6.47198">
        <ele>1217.65</ele>
        <time>2019-02-03T12:34:26Z</time>
      </trkpt>
      <trkpt lat="46.2726" lon="6.47196">
        <ele>1215.24</ele>
        <time>2019-02-03T12:34:38Z</time>
      </trkpt>
      <trkpt lat="46.2725" lon="6.47193">
        <ele>1213.32</ele>
        <time>2019-02-03T12:34:53Z</time>
      </trkpt>
      <trkpt lat="46.27243" lon="6.47191">
        <ele>1210.92</ele>
        <time>2019-02-03T12:35:07Z</time>
      </trkpt>
      <trkpt lat="46.27235" lon="6.47185">
        <ele>1207.55</ele>
        <time>2019-02-03T12:35:18Z</time>
      </trkpt>
      <trkpt lat="46.27233" lon="6.47184">
        <ele>1207.07</ele>
        <time>2019-02-03T12:35:21Z</time>
      </trkpt>
      <trkpt lat="46.27222" lon="6.47178">
        <ele>1205.15</ele>
        <time>2019-02-03T12:35:31Z</time>
      </trkpt>
      <trkpt lat="46.27212" lon="6.47175">
        <ele>1204.19</ele>
        <time>2019-02-03T12:35:40Z</time>
      </trkpt>
      <trkpt lat="46.27208" lon="6.47174">
        <ele>1204.19</ele>
        <time>2019-02-03T12:35:44Z</time>
      </trkpt>
      <trkpt lat="46.27195" lon="6.47171">
        <ele>1201.79</ele>
        <time>2019-02-03T12:35:57Z</time>
      </trkpt>
      <trkpt lat="46.27194" lon="6.47171">
        <ele>1202.27</ele>
        <time>2019-02-03T12:35:58Z</time>
      </trkpt>
      <trkpt lat="46.27183" lon="6.47169">
        <ele>1200.82</ele>
        <time>2019-02-03T12:36:09Z</time>
      </trkpt>
      <trkpt lat="46.27176" lon="6.47169">
        <ele>1199.86</ele>
        <time>2019-02-03T12:36:18Z</time>
      </trkpt>
      <trkpt lat="46.27174" lon="6.47168">
        <ele>1199.38</ele>
        <time>2019-02-03T12:36:25Z</time>
      </trkpt>
      <trkpt lat="46.27171" lon="6.47167">
        <ele>1197.46</ele>
        <time>2019-02-03T12:36:38Z</time>
      </trkpt>
      <trkpt lat="46.27165" lon="6.47157">
        <ele>1196.5</ele>
        <time>2019-02-03T12:36:48Z</time>
      </trkpt>
      <trkpt lat="46.27169" lon="6.47145">
        <ele>1194.58</ele>
        <time>2019-02-03T12:37:00Z</time>
      </trkpt>
      <trkpt lat="46.27176" lon="6.4714">
        <ele>1192.17</ele>
        <time>2019-02-03T12:37:14Z</time>
      </trkpt>
      <trkpt lat="46.27186" lon="6.47132">
        <ele>1190.25</ele>
        <time>2019-02-03T12:37:28Z</time>
      </trkpt>
      <trkpt lat="46.27198" lon="6.47123">
        <ele>1187.37</ele>
        <time>2019-02-03T12:37:42Z</time>
      </trkpt>
      <trkpt lat="46.27203" lon="6.47116">
        <ele>1186.4</ele>
        <time>2019-02-03T12:37:53Z</time>
      </trkpt>
      <trkpt lat="46.27205" lon="6.47115">
        <ele>1185.92</ele>
        <time>2019-02-03T12:37:56Z</time>
      </trkpt>
      <trkpt lat="46.27216" lon="6.47104">
        <ele>1185.92</ele>
        <time>2019-02-03T12:38:12Z</time>
      </trkpt>
      <trkpt lat="46.27222" lon="6.47093">
        <ele>1183.04</ele>
        <time>2019-02-03T12:38:26Z</time>
      </trkpt>
      <trkpt lat="46.2723" lon="6.47086">
        <ele>1180.64</ele>
        <time>2019-02-03T12:38:38Z</time>
      </trkpt>
      <trkpt lat="46.2724" lon="6.47073">
        <ele>1178.71</ele>
        <time>2019-02-03T12:38:52Z</time>
      </trkpt>
      <trkpt lat="46.27242" lon="6.4707">
        <ele>1178.71</ele>
        <time>2019-02-03T12:39:07Z</time>
      </trkpt>
      <trkpt lat="46.2725" lon="6.47062">
        <ele>1176.79</ele>
        <time>2019-02-03T12:39:19Z</time>
      </trkpt>
      <trkpt lat="46.27253" lon="6.47059">
        <ele>1175.83</ele>
        <time>2019-02-03T12:39:30Z</time>
      </trkpt>
      <trkpt lat="46.27262" lon="6.4705">
        <ele>1174.39</ele>
        <time>2019-02-03T12:39:40Z</time>
      </trkpt>
      <trkpt lat="46.27272" lon="6.47042">
        <ele>1172.95</ele>
        <time>2019-02-03T12:39:53Z</time>
      </trkpt>
      <trkpt lat="46.27274" lon="6.47041">
        <ele>1171.98</ele>
        <time>2019-02-03T12:40:03Z</time>
      </trkpt>
      <trkpt lat="46.27287" lon="6.47034">
        <ele>1169.58</ele>
        <time>2019-02-03T12:40:18Z</time>
      </trkpt>
      <trkpt lat="46.27295" lon="6.47032">
        <ele>1169.1</ele>
        <time>2019-02-03T12:40:25Z</time>
      </trkpt>
      <trkpt lat="46.27308" lon="6.47027">
        <ele>1167.18</ele>
        <time>2019-02-03T12:40:38Z</time>
      </trkpt>
      <trkpt lat="46.27326" lon="6.47024">
        <ele>1165.26</ele>
        <time>2019-02-03T12:40:52Z</time>
      </trkpt>
      <trkpt lat="46.27328" lon="6.47024">
        <ele>1162.37</ele>
        <time>2019-02-03T12:41:04Z</time>
      </trkpt>
      <trkpt lat="46.27343" lon="6.4702">
        <ele>1160.93</ele>
        <time>2019-02-03T12:41:17Z</time>
      </trkpt>
      <trkpt lat="46.27358" lon="6.47015">
        <ele>1160.45</ele>
        <time>2019-02-03T12:41:29Z</time>
      </trkpt>
      <trkpt lat="46.27365" lon="6.47011">
        <ele>1158.53</ele>
        <time>2019-02-03T12:41:40Z</time>
      </trkpt>
      <trkpt lat="46.27374" lon="6.47003">
        <ele>1156.6</ele>
        <time>2019-02-03T12:41:51Z</time>
      </trkpt>
      <trkpt lat="46.27374" lon="6.47003">
        <ele>1156.12</ele>
        <time>2019-02-03T12:41:52Z</time>
      </trkpt>
      <trkpt lat="46.27386" lon="6.46997">
        <ele>1154.68</ele>
        <time>2019-02-03T12:42:05Z</time>
      </trkpt>
      <trkpt lat="46.27393" lon="6.46987">
        <ele>1152.28</ele>
        <time>2019-02-03T12:42:18Z</time>
      </trkpt>
      <trkpt lat="46.27395" lon="6.46983">
        <ele>1151.8</ele>
        <time>2019-02-03T12:42:21Z</time>
      </trkpt>
      <trkpt lat="46.27399" lon="6.46975">
        <ele>1150.35</ele>
        <time>2019-02-03T12:42:35Z</time>
      </trkpt>
      <trkpt lat="46.27406" lon="6.4697">
        <ele>1149.39</ele>
        <time>2019-02-03T12:42:47Z</time>
      </trkpt>
      <trkpt lat="46.2741" lon="6.46962">
        <ele>1147.47</ele>
        <time>2019-02-03T12:42:56Z</time>
      </trkpt>
      <trkpt lat="46.27416" lon="6.46955">
        <ele>1145.55</ele>
        <time>2019-02-03T12:43:04Z</time>
      </trkpt>
      <trkpt lat="46.27421" lon="6.46944">
        <ele>1144.11</ele>
        <time>2019-02-03T12:43:18Z</time>
      </trkpt>
      <trkpt lat="46.27428" lon="6.46935">
        <ele>1141.7</ele>
        <time>2019-02-03T12:43:32Z</time>
      </trkpt>
      <trkpt lat="46.27436" lon="6.46928">
        <ele>1139.3</ele>
        <time>2019-02-03T12:43:44Z</time>
      </trkpt>
      <trkpt lat="46.27444" lon="6.46923">
        <ele>1136.9</ele>
        <time>2019-02-03T12:43:58Z</time>
      </trkpt>
      <trkpt lat="46.27451" lon="6.46913">
        <ele>1134.01</ele>
        <time>2019-02-03T12:44:11Z</time>
      </trkpt>
      <trkpt lat="46.27456" lon="6.46901">
        <ele>1132.09</ele>
        <time>2019-02-03T12:44:25Z</time>
      </trkpt>
      <trkpt lat="46.27462" lon="6.46894">
        <ele>1130.17</ele>
        <time>2019-02-03T12:44:40Z</time>
      </trkpt>
      <trkpt lat="46.2747" lon="6.46887">
        <ele>1127.28</ele>
        <time>2019-02-03T12:44:51Z</time>
      </trkpt>
      <trkpt lat="46.27477" lon="6.46874">
        <ele>1127.28</ele>
        <time>2019-02-03T12:45:03Z</time>
      </trkpt>
      <trkpt lat="46.27487" lon="6.46865">
        <ele>1123.92</ele>
        <time>2019-02-03T12:45:18Z</time>
      </trkpt>
      <trkpt lat="46.27495" lon="6.46855">
        <ele>1121.52</ele>
        <time>2019-02-03T12:45:33Z</time>
      </trkpt>
      <trkpt lat="46.27504" lon="6.46847">
        <ele>1120.55</ele>
        <time>2019-02-03T12:45:47Z</time>
      </trkpt>
      <trkpt lat="46.27505" lon="6.46846">
        <ele>1118.63</ele>
        <time>2019-02-03T12:46:00Z</time>
      </trkpt>
      <trkpt lat="46.27505" lon="6.46846">
        <ele>1118.15</ele>
        <time>2019-02-03T12:46:04Z</time>
      </trkpt>
      <trkpt lat="46.27514" lon="6.46837">
        <ele>1115.75</ele>
        <time>2019-02-03T12:46:18Z</time>
      </trkpt>
      <trkpt lat="46.27525" lon="6.46828">
        <ele>1113.82</ele>
        <time>2019-02-03T12:46:31Z</time>
      </trkpt>
      <trkpt lat="46.27539" lon="6.46819">
        <ele>1112.38</ele>
        <time>2019-02-03T12:46:44Z</time>
      </trkpt>
      <trkpt lat="46.27548" lon="6.46805">
        <ele>1109.5</ele>
        <time>2019-02-03T12:46:57Z</time>
      </trkpt>
      <trkpt lat="46.27549" lon="6.46797">
        <ele>1108.54</ele>
        <time>2019-02-03T12:47:11Z</time>
      </trkpt>
      <trkpt lat="46.2755" lon="6.46782">
        <ele>1106.61</ele>
        <time>2019-02-03T12:47:21Z</time>
      </trkpt>
      <trkpt lat="46.27546" lon="6.46767">
        <ele>1105.17</ele>
        <time>2019-02-03T12:47:36Z</time>
      </trkpt>
      <trkpt lat="46.27544" lon="6.4676">
        <ele>1104.21</ele>
        <time>2019-02-03T12:47:50Z</time>
      </trkpt>
      <trkpt lat="46.27542" lon="6.46756">
        <ele>1103.73</ele>
        <time>2019-02-03T12:48:06Z</time>
      </trkpt>
      <trkpt lat="46.27544" lon="6.46741">
        <ele>1103.25</ele>
        <time>2019-02-03T12:48:20Z</time>
      </trkpt>
      <trkpt lat="46.27545" lon="6.46735">
        <ele>1102.77</ele>
        <time>2019-02-03T12:48:30Z</time>
      </trkpt>
      <trkpt lat="46.27545" lon="6.46735">
        <ele>1103.73</ele>
        <time>2019-02-03T12:49:05Z</time>
      </trkpt>
      <trkpt lat="46.27548" lon="6.46738">
        <ele>1101.81</ele>
        <time>2019-02-03T12:49:41Z</time>
      </trkpt>
      <trkpt lat="46.27553" lon="6.46742">
        <ele>1102.77</ele>
        <time>2019-02-03T12:49:49Z</time>
      </trkpt>
      <trkpt lat="46.27558" lon="6.46743">
        <ele>1104.69</ele>
        <time>2019-02-03T12:50:02Z</time>
      </trkpt>
      <trkpt lat="46.27562" lon="6.46745">
        <ele>1105.17</ele>
        <time>2019-02-03T12:50:14Z</time>
      </trkpt>
      <trkpt lat="46.27566" lon="6.46742">
        <ele>1106.13</ele>
        <time>2019-02-03T12:50:30Z</time>
      </trkpt>
      <trkpt lat="46.27568" lon="6.46738">
        <ele>1106.13</ele>
        <time>2019-02-03T12:50:36Z</time>
      </trkpt>
      <trkpt lat="46.27571" lon="6.46729">
        <ele>1106.13</ele>
        <time>2019-02-03T12:50:44Z</time>
      </trkpt>
      <trkpt lat="46.27573" lon="6.46718">
        <ele>1106.13</ele>
        <time>2019-02-03T12:50:58Z</time>
      </trkpt>
      <trkpt lat="46.27578" lon="6.46706">
        <ele>1105.65</ele>
        <time>2019-02-03T12:51:11Z</time>
      </trkpt>
      <trkpt lat="46.27581" lon="6.46697">
        <ele>1105.65</ele>
        <time>2019-02-03T12:51:22Z</time>
      </trkpt>
      <trkpt lat="46.27585" lon="6.46688">
        <ele>1105.65</ele>
        <time>2019-02-03T12:51:32Z</time>
      </trkpt>
      <trkpt lat="46.27588" lon="6.46678">
        <ele>1106.13</ele>
        <time>2019-02-03T12:51:43Z</time>
      </trkpt>
      <trkpt lat="46.27591" lon="6.46668">
        <ele>1104.69</ele>
        <time>2019-02-03T12:51:55Z</time>
      </trkpt>
      <trkpt lat="46.27594" lon="6.46656">
        <ele>1104.69</ele>
        <time>2019-02-03T12:52:07Z</time>
      </trkpt>
      <trkpt lat="46.27597" lon="6.46647">
        <ele>1104.21</ele>
        <time>2019-02-03T12:52:18Z</time>
      </trkpt>
      <trkpt lat="46.27598" lon="6.46638">
        <ele>1105.17</ele>
        <time>2019-02-03T12:52:30Z</time>
      </trkpt>
      <trkpt lat="46.27597" lon="6.46627">
        <ele>1105.17</ele>
        <time>2019-02-03T12:52:44Z</time>
      </trkpt>
      <trkpt lat="46.27597" lon="6.46617">
        <ele>1104.69</ele>
        <time>2019-02-03T12:52:55Z</time>
      </trkpt>
      <trkpt lat="46.27596" lon="6.46609">
        <ele>1104.21</ele>
        <time>2019-02-03T12:53:16Z</time>
      </trkpt>
      <trkpt lat="46.27598" lon="6.46599">
        <ele>1104.69</ele>
        <time>2019-02-03T12:53:30Z</time>
      </trkpt>
      <trkpt lat="46.27599" lon="6.46588">
        <ele>1104.69</ele>
        <time>2019-02-03T12:53:40Z</time>
      </trkpt>
      <trkpt lat="46.276" lon="6.46578">
        <ele>1104.69</ele>
        <time>2019-02-03T12:53:53Z</time>
      </trkpt>
      <trkpt lat="46.27601" lon="6.4657">
        <ele>1105.17</ele>
        <time>2019-02-03T12:54:06Z</time>
      </trkpt>
      <trkpt lat="46.27602" lon="6.46556">
        <ele>1105.65</ele>
        <time>2019-02-03T12:54:19Z</time>
      </trkpt>
      <trkpt lat="46.276" lon="6.46547">
        <ele>1106.61</ele>
        <time>2019-02-03T12:54:31Z</time>
      </trkpt>
      <trkpt lat="46.27601" lon="6.46541">
        <ele>1106.13</ele>
        <time>2019-02-03T12:54:43Z</time>
      </trkpt>
      <trkpt lat="46.27599" lon="6.46533">
        <ele>1106.61</ele>
        <time>2019-02-03T12:55:00Z</time>
      </trkpt>
      <trkpt lat="46.27594" lon="6.46519">
        <ele>1107.1</ele>
        <time>2019-02-03T12:55:14Z</time>
      </trkpt>
      <trkpt lat="46.27593" lon="6.46511">
        <ele>1107.58</ele>
        <time>2019-02-03T12:55:27Z</time>
      </trkpt>
      <trkpt lat="46.27588" lon="6.46502">
        <ele>1108.06</ele>
        <time>2019-02-03T12:55:40Z</time>
      </trkpt>
      <trkpt lat="46.27586" lon="6.46496">
        <ele>1108.54</ele>
        <time>2019-02-03T12:55:51Z</time>
      </trkpt>
      <trkpt lat="46.27584" lon="6.46486">
        <ele>1108.54</ele>
        <time>2019-02-03T12:56:05Z</time>
      </trkpt>
      <trkpt lat="46.27584" lon="6.46484">
        <ele>1108.54</ele>
        <time>2019-02-03T12:56:21Z</time>
      </trkpt>
      <trkpt lat="46.27584" lon="6.46485">
        <ele>1107.58</ele>
        <time>2019-02-03T12:56:55Z</time>
      </trkpt>
      <trkpt lat="46.27585" lon="6.46486">
        <ele>1109.98</ele>
        <time>2019-02-03T13:01:39Z</time>
      </trkpt>
      <trkpt lat="46.27585" lon="6.46486">
        <ele>1109.98</ele>
        <time>2019-02-03T13:01:59Z</time>
      </trkpt>
      <trkpt lat="46.27585" lon="6.46483">
        <ele>1110.94</ele>
        <time>2019-02-03T13:03:34Z</time>
      </trkpt>
      <trkpt lat="46.27584" lon="6.46484">
        <ele>1110.94</ele>
        <time>2019-02-03T13:05:29Z</time>
      </trkpt>
      <trkpt lat="46.27584" lon="6.46484">
        <ele>1111.42</ele>
        <time>2019-02-03T13:06:28Z</time>
      </trkpt>
      <trkpt lat="46.27584" lon="6.46483">
        <ele>1110.94</ele>
        <time>2019-02-03T13:07:33Z</time>
      </trkpt>
      <trkpt lat="46.27581" lon="6.46474">
        <ele>1110.46</ele>
        <time>2019-02-03T13:07:56Z</time>
      </trkpt>
      <trkpt lat="46.27579" lon="6.46458">
        <ele>1111.9</ele>
        <time>2019-02-03T13:08:09Z</time>
      </trkpt>
      <trkpt lat="46.27578" lon="6.46443">
        <ele>1111.9</ele>
        <time>2019-02-03T13:08:22Z</time>
      </trkpt>
      <trkpt lat="46.27578" lon="6.46431">
        <ele>1111.9</ele>
        <time>2019-02-03T13:08:32Z</time>
      </trkpt>
      <trkpt lat="46.27578" lon="6.46417">
        <ele>1112.86</ele>
        <time>2019-02-03T13:08:45Z</time>
      </trkpt>
      <trkpt lat="46.2758" lon="6.46406">
        <ele>1112.86</ele>
        <time>2019-02-03T13:08:57Z</time>
      </trkpt>
      <trkpt lat="46.27583" lon="6.46397">
        <ele>1112.38</ele>
        <time>2019-02-03T13:09:10Z</time>
      </trkpt>
      <trkpt lat="46.27585" lon="6.46391">
        <ele>1111.9</ele>
        <time>2019-02-03T13:09:21Z</time>
      </trkpt>
      <trkpt lat="46.27587" lon="6.46381">
        <ele>1112.38</ele>
        <time>2019-02-03T13:09:34Z</time>
      </trkpt>
      <trkpt lat="46.27588" lon="6.46371">
        <ele>1113.34</ele>
        <time>2019-02-03T13:09:47Z</time>
      </trkpt>
      <trkpt lat="46.27593" lon="6.46363">
        <ele>1113.34</ele>
        <time>2019-02-03T13:09:58Z</time>
      </trkpt>
      <trkpt lat="46.27595" lon="6.46354">
        <ele>1112.86</ele>
        <time>2019-02-03T13:10:09Z</time>
      </trkpt>
      <trkpt lat="46.27597" lon="6.46342">
        <ele>1112.86</ele>
        <time>2019-02-03T13:10:22Z</time>
      </trkpt>
      <trkpt lat="46.276" lon="6.46334">
        <ele>1112.86</ele>
        <time>2019-02-03T13:10:33Z</time>
      </trkpt>
      <trkpt lat="46.27602" lon="6.46325">
        <ele>1113.34</ele>
        <time>2019-02-03T13:10:44Z</time>
      </trkpt>
      <trkpt lat="46.27605" lon="6.46319">
        <ele>1112.86</ele>
        <time>2019-02-03T13:10:53Z</time>
      </trkpt>
      <trkpt lat="46.27608" lon="6.46312">
        <ele>1112.86</ele>
        <time>2019-02-03T13:11:05Z</time>
      </trkpt>
      <trkpt lat="46.27609" lon="6.46304">
        <ele>1113.34</ele>
        <time>2019-02-03T13:11:17Z</time>
      </trkpt>
      <trkpt lat="46.27608" lon="6.46299">
        <ele>1112.86</ele>
        <time>2019-02-03T13:11:29Z</time>
      </trkpt>
      <trkpt lat="46.27611" lon="6.4629">
        <ele>1113.82</ele>
        <time>2019-02-03T13:11:40Z</time>
      </trkpt>
      <trkpt lat="46.27617" lon="6.46287">
        <ele>1113.34</ele>
        <time>2019-02-03T13:11:53Z</time>
      </trkpt>
      <trkpt lat="46.27622" lon="6.46287">
        <ele>1113.82</ele>
        <time>2019-02-03T13:12:03Z</time>
      </trkpt>
      <trkpt lat="46.27625" lon="6.46287">
        <ele>1113.82</ele>
        <time>2019-02-03T13:12:22Z</time>
      </trkpt>
      <trkpt lat="46.27631" lon="6.46285">
        <ele>1113.82</ele>
        <time>2019-02-03T13:12:35Z</time>
      </trkpt>
      <trkpt lat="46.27634" lon="6.46284">
        <ele>1114.79</ele>
        <time>2019-02-03T13:12:40Z</time>
      </trkpt>
      <trkpt lat="46.2764" lon="6.46283">
        <ele>1113.82</ele>
        <time>2019-02-03T13:12:49Z</time>
      </trkpt>
      <trkpt lat="46.27648" lon="6.46278">
        <ele>1115.27</ele>
        <time>2019-02-03T13:13:02Z</time>
      </trkpt>
      <trkpt lat="46.2766" lon="6.46281">
        <ele>1114.79</ele>
        <time>2019-02-03T13:13:15Z</time>
      </trkpt>
      <trkpt lat="46.2767" lon="6.46283">
        <ele>1114.79</ele>
        <time>2019-02-03T13:13:27Z</time>
      </trkpt>
      <trkpt lat="46.27679" lon="6.46285">
        <ele>1115.27</ele>
        <time>2019-02-03T13:13:39Z</time>
      </trkpt>
      <trkpt lat="46.27687" lon="6.46289">
        <ele>1116.23</ele>
        <time>2019-02-03T13:13:50Z</time>
      </trkpt>
      <trkpt lat="46.27692" lon="6.46292">
        <ele>1116.23</ele>
        <time>2019-02-03T13:14:02Z</time>
      </trkpt>
      <trkpt lat="46.27701" lon="6.46295">
        <ele>1116.71</ele>
        <time>2019-02-03T13:14:14Z</time>
      </trkpt>
      <trkpt lat="46.27708" lon="6.46299">
        <ele>1116.23</ele>
        <time>2019-02-03T13:14:27Z</time>
      </trkpt>
      <trkpt lat="46.27716" lon="6.46304">
        <ele>1117.67</ele>
        <time>2019-02-03T13:14:42Z</time>
      </trkpt>
      <trkpt lat="46.27725" lon="6.46308">
        <ele>1118.15</ele>
        <time>2019-02-03T13:14:53Z</time>
      </trkpt>
      <trkpt lat="46.27731" lon="6.46313">
        <ele>1119.11</ele>
        <time>2019-02-03T13:15:06Z</time>
      </trkpt>
      <trkpt lat="46.27733" lon="6.46316">
        <ele>1119.11</ele>
        <time>2019-02-03T13:15:43Z</time>
      </trkpt>
      <trkpt lat="46.27737" lon="6.4632">
        <ele>1121.03</ele>
        <time>2019-02-03T13:16:01Z</time>
      </trkpt>
      <trkpt lat="46.27745" lon="6.46326">
        <ele>1122.96</ele>
        <time>2019-02-03T13:16:13Z</time>
      </trkpt>
      <trkpt lat="46.27746" lon="6.46326">
        <ele>1122.96</ele>
        <time>2019-02-03T13:16:14Z</time>
      </trkpt>
      <trkpt lat="46.2775" lon="6.46329">
        <ele>1122.48</ele>
        <time>2019-02-03T13:16:19Z</time>
      </trkpt>
      <trkpt lat="46.27758" lon="6.46337">
        <ele>1122.48</ele>
        <time>2019-02-03T13:16:31Z</time>
      </trkpt>
      <trkpt lat="46.27764" lon="6.46341">
        <ele>1123.44</ele>
        <time>2019-02-03T13:16:43Z</time>
      </trkpt>
      <trkpt lat="46.27768" lon="6.46343">
        <ele>1124.4</ele>
        <time>2019-02-03T13:16:55Z</time>
      </trkpt>
      <trkpt lat="46.27774" lon="6.46345">
        <ele>1123.92</ele>
        <time>2019-02-03T13:17:07Z</time>
      </trkpt>
      <trkpt lat="46.27781" lon="6.46347">
        <ele>1125.36</ele>
        <time>2019-02-03T13:17:19Z</time>
      </trkpt>
      <trkpt lat="46.27785" lon="6.46348">
        <ele>1126.32</ele>
        <time>2019-02-03T13:17:30Z</time>
      </trkpt>
      <trkpt lat="46.27789" lon="6.4635">
        <ele>1127.76</ele>
        <time>2019-02-03T13:17:42Z</time>
      </trkpt>
      <trkpt lat="46.27795" lon="6.46351">
        <ele>1129.21</ele>
        <time>2019-02-03T13:17:57Z</time>
      </trkpt>
      <trkpt lat="46.278" lon="6.46351">
        <ele>1128.73</ele>
        <time>2019-02-03T13:18:10Z</time>
      </trkpt>
      <trkpt lat="46.27804" lon="6.46348">
        <ele>1129.21</ele>
        <time>2019-02-03T13:18:22Z</time>
      </trkpt>
      <trkpt lat="46.27809" lon="6.4634">
        <ele>1128.73</ele>
        <time>2019-02-03T13:18:33Z</time>
      </trkpt>
      <trkpt lat="46.27814" lon="6.46332">
        <ele>1128.24</ele>
        <time>2019-02-03T13:18:45Z</time>
      </trkpt>
      <trkpt lat="46.2782" lon="6.46327">
        <ele>1129.69</ele>
        <time>2019-02-03T13:18:57Z</time>
      </trkpt>
      <trkpt lat="46.27825" lon="6.46326">
        <ele>1128.24</ele>
        <time>2019-02-03T13:19:10Z</time>
      </trkpt>
      <trkpt lat="46.2783" lon="6.46326">
        <ele>1128.73</ele>
        <time>2019-02-03T13:19:23Z</time>
      </trkpt>
      <trkpt lat="46.27834" lon="6.46326">
        <ele>1129.21</ele>
        <time>2019-02-03T13:19:29Z</time>
      </trkpt>
      <trkpt lat="46.27842" lon="6.46326">
        <ele>1129.69</ele>
        <time>2019-02-03T13:19:43Z</time>
      </trkpt>
      <trkpt lat="46.27847" lon="6.46325">
        <ele>1129.69</ele>
        <time>2019-02-03T13:19:54Z</time>
      </trkpt>
      <trkpt lat="46.27854" lon="6.46326">
        <ele>1130.17</ele>
        <time>2019-02-03T13:20:06Z</time>
      </trkpt>
      <trkpt lat="46.27861" lon="6.46329">
        <ele>1131.61</ele>
        <time>2019-02-03T13:20:19Z</time>
      </trkpt>
      <trkpt lat="46.27867" lon="6.4633">
        <ele>1131.13</ele>
        <time>2019-02-03T13:20:30Z</time>
      </trkpt>
      <trkpt lat="46.27873" lon="6.46331">
        <ele>1132.57</ele>
        <time>2019-02-03T13:20:39Z</time>
      </trkpt>
      <trkpt lat="46.2788" lon="6.46336">
        <ele>1133.05</ele>
        <time>2019-02-03T13:20:51Z</time>
      </trkpt>
      <trkpt lat="46.27888" lon="6.4634">
        <ele>1131.61</ele>
        <time>2019-02-03T13:21:04Z</time>
      </trkpt>
      <trkpt lat="46.27894" lon="6.46342">
        <ele>1132.57</ele>
        <time>2019-02-03T13:21:18Z</time>
      </trkpt>
      <trkpt lat="46.27901" lon="6.46343">
        <ele>1132.57</ele>
        <time>2019-02-03T13:21:30Z</time>
      </trkpt>
      <trkpt lat="46.27906" lon="6.46343">
        <ele>1132.57</ele>
        <time>2019-02-03T13:21:41Z</time>
      </trkpt>
      <trkpt lat="46.27912" lon="6.46343">
        <ele>1132.09</ele>
        <time>2019-02-03T13:21:58Z</time>
      </trkpt>
      <trkpt lat="46.27914" lon="6.46344">
        <ele>1133.05</ele>
        <time>2019-02-03T13:22:12Z</time>
      </trkpt>
      <trkpt lat="46.27915" lon="6.46345">
        <ele>1133.05</ele>
        <time>2019-02-03T13:22:41Z</time>
      </trkpt>
      <trkpt lat="46.27915" lon="6.46345">
        <ele>1133.53</ele>
        <time>2019-02-03T13:22:57Z</time>
      </trkpt>
      <trkpt lat="46.27915" lon="6.46345">
        <ele>1133.53</ele>
        <time>2019-02-03T13:23:10Z</time>
      </trkpt>
      <trkpt lat="46.27915" lon="6.46345">
        <ele>1131.61</ele>
        <time>2019-02-03T13:23:22Z</time>
      </trkpt>
      <trkpt lat="46.27915" lon="6.46345">
        <ele>1133.53</ele>
        <time>2019-02-03T13:23:33Z</time>
      </trkpt>
      <trkpt lat="46.27916" lon="6.46342">
        <ele>1134.97</ele>
        <time>2019-02-03T13:23:48Z</time>
      </trkpt>
      <trkpt lat="46.27916" lon="6.46339">
        <ele>1135.94</ele>
        <time>2019-02-03T13:24:05Z</time>
      </trkpt>
      <trkpt lat="46.2792" lon="6.46333">
        <ele>1136.9</ele>
        <time>2019-02-03T13:24:19Z</time>
      </trkpt>
      <trkpt lat="46.2792" lon="6.46323">
        <ele>1137.86</ele>
        <time>2019-02-03T13:24:30Z</time>
      </trkpt>
      <trkpt lat="46.27921" lon="6.46317">
        <ele>1139.3</ele>
        <time>2019-02-03T13:24:36Z</time>
      </trkpt>
      <trkpt lat="46.27921" lon="6.46314">
        <ele>1139.3</ele>
        <time>2019-02-03T13:24:59Z</time>
      </trkpt>
      <trkpt lat="46.27919" lon="6.46309">
        <ele>1140.74</ele>
        <time>2019-02-03T13:25:12Z</time>
      </trkpt>
      <trkpt lat="46.27917" lon="6.46302">
        <ele>1141.22</ele>
        <time>2019-02-03T13:25:22Z</time>
      </trkpt>
      <trkpt lat="46.27916" lon="6.46299">
        <ele>1142.66</ele>
        <time>2019-02-03T13:25:33Z</time>
      </trkpt>
      <trkpt lat="46.27916" lon="6.46299">
        <ele>1143.63</ele>
        <time>2019-02-03T13:25:48Z</time>
      </trkpt>
      <trkpt lat="46.27916" lon="6.46299">
        <ele>1144.11</ele>
        <time>2019-02-03T13:26:03Z</time>
      </trkpt>
      <trkpt lat="46.27916" lon="6.46298">
        <ele>1144.11</ele>
        <time>2019-02-03T13:26:19Z</time>
      </trkpt>
      <trkpt lat="46.27916" lon="6.46298">
        <ele>1144.11</ele>
        <time>2019-02-03T13:26:29Z</time>
      </trkpt>
      <trkpt lat="46.27918" lon="6.46291">
        <ele>1146.51</ele>
        <time>2019-02-03T13:26:42Z</time>
      </trkpt>
      <trkpt lat="46.27918" lon="6.46275">
        <ele>1147.95</ele>
        <time>2019-02-03T13:26:54Z</time>
      </trkpt>
      <trkpt lat="46.27918" lon="6.46267">
        <ele>1148.43</ele>
        <time>2019-02-03T13:27:14Z</time>
      </trkpt>
      <trkpt lat="46.27921" lon="6.46251">
        <ele>1149.87</ele>
        <time>2019-02-03T13:27:27Z</time>
      </trkpt>
      <trkpt lat="46.27923" lon="6.46243">
        <ele>1149.87</ele>
        <time>2019-02-03T13:27:39Z</time>
      </trkpt>
      <trkpt lat="46.27923" lon="6.46238">
        <ele>1150.35</ele>
        <time>2019-02-03T13:27:50Z</time>
      </trkpt>
      <trkpt lat="46.27922" lon="6.46232">
        <ele>1151.8</ele>
        <time>2019-02-03T13:28:06Z</time>
      </trkpt>
      <trkpt lat="46.27923" lon="6.46232">
        <ele>1152.28</ele>
        <time>2019-02-03T13:28:34Z</time>
      </trkpt>
      <trkpt lat="46.27924" lon="6.46228">
        <ele>1151.8</ele>
        <time>2019-02-03T13:29:01Z</time>
      </trkpt>
      <trkpt lat="46.27924" lon="6.46225">
        <ele>1152.76</ele>
        <time>2019-02-03T13:29:25Z</time>
      </trkpt>
      <trkpt lat="46.27926" lon="6.46216">
        <ele>1152.76</ele>
        <time>2019-02-03T13:29:43Z</time>
      </trkpt>
      <trkpt lat="46.27927" lon="6.46213">
        <ele>1151.8</ele>
        <time>2019-02-03T13:30:01Z</time>
      </trkpt>
      <trkpt lat="46.27928" lon="6.46208">
        <ele>1153.24</ele>
        <time>2019-02-03T13:30:28Z</time>
      </trkpt>
      <trkpt lat="46.27934" lon="6.46201">
        <ele>1154.68</ele>
        <time>2019-02-03T13:30:43Z</time>
      </trkpt>
      <trkpt lat="46.27935" lon="6.46192">
        <ele>1154.2</ele>
        <time>2019-02-03T13:30:52Z</time>
      </trkpt>
      <trkpt lat="46.27935" lon="6.46189">
        <ele>1154.2</ele>
        <time>2019-02-03T13:30:56Z</time>
      </trkpt>
      <trkpt lat="46.27936" lon="6.46179">
        <ele>1156.12</ele>
        <time>2019-02-03T13:31:07Z</time>
      </trkpt>
      <trkpt lat="46.27935" lon="6.46179">
        <ele>1155.64</ele>
        <time>2019-02-03T13:32:23Z</time>
      </trkpt>
      <trkpt lat="46.27935" lon="6.46178">
        <ele>1157.56</ele>
        <time>2019-02-03T13:34:50Z</time>
      </trkpt>
      <trkpt lat="46.2794" lon="6.46171">
        <ele>1156.6</ele>
        <time>2019-02-03T13:35:16Z</time>
      </trkpt>
      <trkpt lat="46.27938" lon="6.46171">
        <ele>1156.12</ele>
        <time>2019-02-03T13:35:23Z</time>
      </trkpt>
      <trkpt lat="46.27932" lon="6.4617">
        <ele>1156.6</ele>
        <time>2019-02-03T13:35:35Z</time>
      </trkpt>
      <trkpt lat="46.27929" lon="6.46168">
        <ele>1158.05</ele>
        <time>2019-02-03T13:35:48Z</time>
      </trkpt>
      <trkpt lat="46.27924" lon="6.46165">
        <ele>1159.49</ele>
        <time>2019-02-03T13:35:59Z</time>
      </trkpt>
      <trkpt lat="46.27917" lon="6.46167">
        <ele>1159.49</ele>
        <time>2019-02-03T13:36:11Z</time>
      </trkpt>
      <trkpt lat="46.27911" lon="6.46166">
        <ele>1161.41</ele>
        <time>2019-02-03T13:36:23Z</time>
      </trkpt>
      <trkpt lat="46.27906" lon="6.46166">
        <ele>1159.97</ele>
        <time>2019-02-03T13:36:34Z</time>
      </trkpt>
      <trkpt lat="46.27901" lon="6.46161">
        <ele>1162.37</ele>
        <time>2019-02-03T13:36:45Z</time>
      </trkpt>
      <trkpt lat="46.27896" lon="6.46159">
        <ele>1162.37</ele>
        <time>2019-02-03T13:36:54Z</time>
      </trkpt>
      <trkpt lat="46.27894" lon="6.46158">
        <ele>1163.33</ele>
        <time>2019-02-03T13:37:05Z</time>
      </trkpt>
      <trkpt lat="46.27893" lon="6.46159">
        <ele>1164.29</ele>
        <time>2019-02-03T13:37:18Z</time>
      </trkpt>
      <trkpt lat="46.27886" lon="6.46159">
        <ele>1163.81</ele>
        <time>2019-02-03T13:37:31Z</time>
      </trkpt>
      <trkpt lat="46.27883" lon="6.46158">
        <ele>1165.74</ele>
        <time>2019-02-03T13:37:44Z</time>
      </trkpt>
      <trkpt lat="46.27877" lon="6.46158">
        <ele>1166.22</ele>
        <time>2019-02-03T13:37:54Z</time>
      </trkpt>
      <trkpt lat="46.27872" lon="6.46155">
        <ele>1168.14</ele>
        <time>2019-02-03T13:38:03Z</time>
      </trkpt>
      <trkpt lat="46.27872" lon="6.46155">
        <ele>1168.14</ele>
        <time>2019-02-03T13:38:07Z</time>
      </trkpt>
      <trkpt lat="46.27872" lon="6.46155">
        <ele>1167.66</ele>
        <time>2019-02-03T13:38:22Z</time>
      </trkpt>
      <trkpt lat="46.27869" lon="6.46155">
        <ele>1166.22</ele>
        <time>2019-02-03T13:38:36Z</time>
      </trkpt>
      <trkpt lat="46.27857" lon="6.46152">
        <ele>1167.66</ele>
        <time>2019-02-03T13:38:48Z</time>
      </trkpt>
      <trkpt lat="46.27844" lon="6.46148">
        <ele>1167.66</ele>
        <time>2019-02-03T13:39:01Z</time>
      </trkpt>
      <trkpt lat="46.27832" lon="6.46148">
        <ele>1165.74</ele>
        <time>2019-02-03T13:39:14Z</time>
      </trkpt>
      <trkpt lat="46.27819" lon="6.46146">
        <ele>1165.74</ele>
        <time>2019-02-03T13:39:28Z</time>
      </trkpt>
      <trkpt lat="46.2781" lon="6.46146">
        <ele>1164.77</ele>
        <time>2019-02-03T13:39:41Z</time>
      </trkpt>
      <trkpt lat="46.2781" lon="6.46146">
        <ele>1163.81</ele>
        <time>2019-02-03T13:39:53Z</time>
      </trkpt>
      <trkpt lat="46.2781" lon="6.46146">
        <ele>1163.81</ele>
        <time>2019-02-03T13:40:12Z</time>
      </trkpt>
      <trkpt lat="46.27807" lon="6.46145">
        <ele>1164.29</ele>
        <time>2019-02-03T13:40:47Z</time>
      </trkpt>
      <trkpt lat="46.278" lon="6.46138">
        <ele>1163.81</ele>
        <time>2019-02-03T13:41:00Z</time>
      </trkpt>
      <trkpt lat="46.27795" lon="6.46136">
        <ele>1164.77</ele>
        <time>2019-02-03T13:41:07Z</time>
      </trkpt>
      <trkpt lat="46.27786" lon="6.46127">
        <ele>1164.29</ele>
        <time>2019-02-03T13:41:19Z</time>
      </trkpt>
      <trkpt lat="46.2778" lon="6.46122">
        <ele>1166.7</ele>
        <time>2019-02-03T13:41:28Z</time>
      </trkpt>
      <trkpt lat="46.27776" lon="6.4612">
        <ele>1164.77</ele>
        <time>2019-02-03T13:41:40Z</time>
      </trkpt>
      <trkpt lat="46.2777" lon="6.46113">
        <ele>1166.22</ele>
        <time>2019-02-03T13:41:51Z</time>
      </trkpt>
      <trkpt lat="46.27769" lon="6.4611">
        <ele>1166.22</ele>
        <time>2019-02-03T13:42:01Z</time>
      </trkpt>
      <trkpt lat="46.27765" lon="6.46105">
        <ele>1166.22</ele>
        <time>2019-02-03T13:42:12Z</time>
      </trkpt>
      <trkpt lat="46.27761" lon="6.46103">
        <ele>1167.18</ele>
        <time>2019-02-03T13:42:23Z</time>
      </trkpt>
      <trkpt lat="46.27754" lon="6.461">
        <ele>1166.22</ele>
        <time>2019-02-03T13:42:38Z</time>
      </trkpt>
      <trkpt lat="46.27748" lon="6.46101">
        <ele>1166.22</ele>
        <time>2019-02-03T13:42:50Z</time>
      </trkpt>
      <trkpt lat="46.27745" lon="6.46101">
        <ele>1165.26</ele>
        <time>2019-02-03T13:42:54Z</time>
      </trkpt>
      <trkpt lat="46.27736" lon="6.46099">
        <ele>1163.81</ele>
        <time>2019-02-03T13:43:07Z</time>
      </trkpt>
      <trkpt lat="46.27731" lon="6.46095">
        <ele>1164.29</ele>
        <time>2019-02-03T13:43:14Z</time>
      </trkpt>
      <trkpt lat="46.27722" lon="6.46095">
        <ele>1163.33</ele>
        <time>2019-02-03T13:43:27Z</time>
      </trkpt>
      <trkpt lat="46.27716" lon="6.4609">
        <ele>1162.85</ele>
        <time>2019-02-03T13:43:41Z</time>
      </trkpt>
      <trkpt lat="46.27711" lon="6.46087">
        <ele>1162.85</ele>
        <time>2019-02-03T13:43:53Z</time>
      </trkpt>
      <trkpt lat="46.27703" lon="6.46085">
        <ele>1162.85</ele>
        <time>2019-02-03T13:44:05Z</time>
      </trkpt>
      <trkpt lat="46.27703" lon="6.46085">
        <ele>1163.33</ele>
        <time>2019-02-03T13:44:18Z</time>
      </trkpt>
      <trkpt lat="46.27703" lon="6.46085">
        <ele>1163.81</ele>
        <time>2019-02-03T13:44:27Z</time>
      </trkpt>
      <trkpt lat="46.27698" lon="6.46079">
        <ele>1163.33</ele>
        <time>2019-02-03T13:44:37Z</time>
      </trkpt>
      <trkpt lat="46.27695" lon="6.46078">
        <ele>1163.33</ele>
        <time>2019-02-03T13:44:50Z</time>
      </trkpt>
      <trkpt lat="46.27686" lon="6.46073">
        <ele>1162.85</ele>
        <time>2019-02-03T13:45:02Z</time>
      </trkpt>
      <trkpt lat="46.27683" lon="6.46072">
        <ele>1161.89</ele>
        <time>2019-02-03T13:45:16Z</time>
      </trkpt>
      <trkpt lat="46.27681" lon="6.4607">
        <ele>1163.33</ele>
        <time>2019-02-03T13:45:27Z</time>
      </trkpt>
      <trkpt lat="46.27677" lon="6.46069">
        <ele>1162.37</ele>
        <time>2019-02-03T13:45:40Z</time>
      </trkpt>
      <trkpt lat="46.27665" lon="6.46067">
        <ele>1160.93</ele>
        <time>2019-02-03T13:45:54Z</time>
      </trkpt>
      <trkpt lat="46.27658" lon="6.46066">
        <ele>1162.37</ele>
        <time>2019-02-03T13:46:08Z</time>
      </trkpt>
      <trkpt lat="46.27648" lon="6.46065">
        <ele>1162.37</ele>
        <time>2019-02-03T13:46:23Z</time>
      </trkpt>
      <trkpt lat="46.27633" lon="6.46061">
        <ele>1163.33</ele>
        <time>2019-02-03T13:46:36Z</time>
      </trkpt>
      <trkpt lat="46.27626" lon="6.46058">
        <ele>1163.81</ele>
        <time>2019-02-03T13:46:47Z</time>
      </trkpt>
      <trkpt lat="46.27617" lon="6.46052">
        <ele>1162.37</ele>
        <time>2019-02-03T13:47:03Z</time>
      </trkpt>
      <trkpt lat="46.27608" lon="6.46048">
        <ele>1161.41</ele>
        <time>2019-02-03T13:47:16Z</time>
      </trkpt>
      <trkpt lat="46.27599" lon="6.46044">
        <ele>1161.41</ele>
        <time>2019-02-03T13:47:28Z</time>
      </trkpt>
      <trkpt lat="46.27596" lon="6.46037">
        <ele>1160.45</ele>
        <time>2019-02-03T13:47:44Z</time>
      </trkpt>
      <trkpt lat="46.2759" lon="6.46028">
        <ele>1161.89</ele>
        <time>2019-02-03T13:47:57Z</time>
      </trkpt>
      <trkpt lat="46.27582" lon="6.46019">
        <ele>1161.41</ele>
        <time>2019-02-03T13:48:10Z</time>
      </trkpt>
      <trkpt lat="46.27579" lon="6.4601">
        <ele>1163.33</ele>
        <time>2019-02-03T13:48:26Z</time>
      </trkpt>
      <trkpt lat="46.27572" lon="6.46005">
        <ele>1162.85</ele>
        <time>2019-02-03T13:48:38Z</time>
      </trkpt>
      <trkpt lat="46.27564" lon="6.45998">
        <ele>1162.85</ele>
        <time>2019-02-03T13:48:51Z</time>
      </trkpt>
      <trkpt lat="46.27557" lon="6.45991">
        <ele>1163.81</ele>
        <time>2019-02-03T13:49:04Z</time>
      </trkpt>
      <trkpt lat="46.27552" lon="6.45983">
        <ele>1164.77</ele>
        <time>2019-02-03T13:49:17Z</time>
      </trkpt>
      <trkpt lat="46.27547" lon="6.45978">
        <ele>1165.26</ele>
        <time>2019-02-03T13:49:28Z</time>
      </trkpt>
      <trkpt lat="46.27541" lon="6.45975">
        <ele>1166.22</ele>
        <time>2019-02-03T13:49:40Z</time>
      </trkpt>
      <trkpt lat="46.27536" lon="6.4597">
        <ele>1165.74</ele>
        <time>2019-02-03T13:49:52Z</time>
      </trkpt>
      <trkpt lat="46.2753" lon="6.45966">
        <ele>1167.66</ele>
        <time>2019-02-03T13:50:06Z</time>
      </trkpt>
      <trkpt lat="46.27526" lon="6.45964">
        <ele>1168.14</ele>
        <time>2019-02-03T13:50:18Z</time>
      </trkpt>
      <trkpt lat="46.27518" lon="6.45963">
        <ele>1169.58</ele>
        <time>2019-02-03T13:50:30Z</time>
      </trkpt>
      <trkpt lat="46.2751" lon="6.45958">
        <ele>1170.54</ele>
        <time>2019-02-03T13:50:42Z</time>
      </trkpt>
      <trkpt lat="46.27504" lon="6.45953">
        <ele>1171.5</ele>
        <time>2019-02-03T13:50:55Z</time>
      </trkpt>
      <trkpt lat="46.275" lon="6.45946">
        <ele>1171.02</ele>
        <time>2019-02-03T13:51:06Z</time>
      </trkpt>
      <trkpt lat="46.27494" lon="6.45937">
        <ele>1172.47</ele>
        <time>2019-02-03T13:51:25Z</time>
      </trkpt>
      <trkpt lat="46.27488" lon="6.45932">
        <ele>1171.98</ele>
        <time>2019-02-03T13:51:36Z</time>
      </trkpt>
      <trkpt lat="46.27475" lon="6.45922">
        <ele>1171.98</ele>
        <time>2019-02-03T13:51:50Z</time>
      </trkpt>
      <trkpt lat="46.27467" lon="6.45913">
        <ele>1172.47</ele>
        <time>2019-02-03T13:52:03Z</time>
      </trkpt>
      <trkpt lat="46.27459" lon="6.45908">
        <ele>1172.47</ele>
        <time>2019-02-03T13:52:16Z</time>
      </trkpt>
      <trkpt lat="46.27453" lon="6.45901">
        <ele>1173.43</ele>
        <time>2019-02-03T13:52:31Z</time>
      </trkpt>
      <trkpt lat="46.27449" lon="6.45896">
        <ele>1174.39</ele>
        <time>2019-02-03T13:52:42Z</time>
      </trkpt>
      <trkpt lat="46.27445" lon="6.45891">
        <ele>1174.87</ele>
        <time>2019-02-03T13:52:54Z</time>
      </trkpt>
      <trkpt lat="46.2744" lon="6.45887">
        <ele>1173.91</ele>
        <time>2019-02-03T13:53:07Z</time>
      </trkpt>
      <trkpt lat="46.27435" lon="6.45882">
        <ele>1175.83</ele>
        <time>2019-02-03T13:53:21Z</time>
      </trkpt>
      <trkpt lat="46.27431" lon="6.45877">
        <ele>1176.31</ele>
        <time>2019-02-03T13:53:33Z</time>
      </trkpt>
      <trkpt lat="46.27428" lon="6.45871">
        <ele>1177.27</ele>
        <time>2019-02-03T13:53:47Z</time>
      </trkpt>
      <trkpt lat="46.27423" lon="6.45866">
        <ele>1177.75</ele>
        <time>2019-02-03T13:54:00Z</time>
      </trkpt>
      <trkpt lat="46.27413" lon="6.45857">
        <ele>1176.79</ele>
        <time>2019-02-03T13:54:11Z</time>
      </trkpt>
      <trkpt lat="46.2741" lon="6.45857">
        <ele>1176.79</ele>
        <time>2019-02-03T13:54:22Z</time>
      </trkpt>
      <trkpt lat="46.27401" lon="6.45856">
        <ele>1178.23</ele>
        <time>2019-02-03T13:54:31Z</time>
      </trkpt>
      <trkpt lat="46.27399" lon="6.45856">
        <ele>1178.23</ele>
        <time>2019-02-03T13:54:48Z</time>
      </trkpt>
      <trkpt lat="46.27395" lon="6.45853">
        <ele>1178.71</ele>
        <time>2019-02-03T13:54:57Z</time>
      </trkpt>
      <trkpt lat="46.27395" lon="6.45848">
        <ele>1179.19</ele>
        <time>2019-02-03T13:55:13Z</time>
      </trkpt>
      <trkpt lat="46.27395" lon="6.45847">
        <ele>1179.67</ele>
        <time>2019-02-03T13:56:09Z</time>
      </trkpt>
      <trkpt lat="46.27394" lon="6.45844">
        <ele>1179.67</ele>
        <time>2019-02-03T13:57:32Z</time>
      </trkpt>
      <trkpt lat="46.27394" lon="6.45843">
        <ele>1179.67</ele>
        <time>2019-02-03T13:58:19Z</time>
      </trkpt>
      <trkpt lat="46.27394" lon="6.45842">
        <ele>1180.64</ele>
        <time>2019-02-03T13:59:17Z</time>
      </trkpt>
      <trkpt lat="46.27389" lon="6.4584">
        <ele>1180.16</ele>
        <time>2019-02-03T14:00:27Z</time>
      </trkpt>
      <trkpt lat="46.27383" lon="6.45833">
        <ele>1180.64</ele>
        <time>2019-02-03T14:00:39Z</time>
      </trkpt>
      <trkpt lat="46.27375" lon="6.45827">
        <ele>1180.64</ele>
        <time>2019-02-03T14:00:50Z</time>
      </trkpt>
      <trkpt lat="46.27367" lon="6.45817">
        <ele>1182.56</ele>
        <time>2019-02-03T14:01:03Z</time>
      </trkpt>
      <trkpt lat="46.2736" lon="6.45811">
        <ele>1183.52</ele>
        <time>2019-02-03T14:01:15Z</time>
      </trkpt>
      <trkpt lat="46.27354" lon="6.45803">
        <ele>1184.96</ele>
        <time>2019-02-03T14:01:31Z</time>
      </trkpt>
      <trkpt lat="46.27351" lon="6.45797">
        <ele>1185.44</ele>
        <time>2019-02-03T14:01:45Z</time>
      </trkpt>
      <trkpt lat="46.2734" lon="6.45786">
        <ele>1187.37</ele>
        <time>2019-02-03T14:01:59Z</time>
      </trkpt>
      <trkpt lat="46.27337" lon="6.45782">
        <ele>1186.88</ele>
        <time>2019-02-03T14:02:03Z</time>
      </trkpt>
      <trkpt lat="46.2733" lon="6.45777">
        <ele>1187.37</ele>
        <time>2019-02-03T14:02:13Z</time>
      </trkpt>
      <trkpt lat="46.27325" lon="6.45775">
        <ele>1186.88</ele>
        <time>2019-02-03T14:02:29Z</time>
      </trkpt>
      <trkpt lat="46.2732" lon="6.45768">
        <ele>1185.44</ele>
        <time>2019-02-03T14:02:41Z</time>
      </trkpt>
      <trkpt lat="46.27321" lon="6.45763">
        <ele>1185.44</ele>
        <time>2019-02-03T14:02:52Z</time>
      </trkpt>
      <trkpt lat="46.2732" lon="6.4575">
        <ele>1186.88</ele>
        <time>2019-02-03T14:03:05Z</time>
      </trkpt>
      <trkpt lat="46.27321" lon="6.45743">
        <ele>1187.37</ele>
        <time>2019-02-03T14:03:19Z</time>
      </trkpt>
      <trkpt lat="46.27316" lon="6.45736">
        <ele>1188.81</ele>
        <time>2019-02-03T14:03:33Z</time>
      </trkpt>
      <trkpt lat="46.27308" lon="6.45732">
        <ele>1190.25</ele>
        <time>2019-02-03T14:03:46Z</time>
      </trkpt>
      <trkpt lat="46.27303" lon="6.45728">
        <ele>1191.21</ele>
        <time>2019-02-03T14:03:57Z</time>
      </trkpt>
      <trkpt lat="46.27293" lon="6.45724">
        <ele>1191.21</ele>
        <time>2019-02-03T14:04:11Z</time>
      </trkpt>
      <trkpt lat="46.27286" lon="6.45721">
        <ele>1191.21</ele>
        <time>2019-02-03T14:04:23Z</time>
      </trkpt>
      <trkpt lat="46.27278" lon="6.45719">
        <ele>1191.21</ele>
        <time>2019-02-03T14:04:36Z</time>
      </trkpt>
      <trkpt lat="46.2727" lon="6.45717">
        <ele>1191.69</ele>
        <time>2019-02-03T14:04:51Z</time>
      </trkpt>
      <trkpt lat="46.27264" lon="6.45715">
        <ele>1191.21</ele>
        <time>2019-02-03T14:05:03Z</time>
      </trkpt>
      <trkpt lat="46.27259" lon="6.45714">
        <ele>1192.65</ele>
        <time>2019-02-03T14:05:16Z</time>
      </trkpt>
      <trkpt lat="46.27252" lon="6.45712">
        <ele>1194.09</ele>
        <time>2019-02-03T14:05:41Z</time>
      </trkpt>
      <trkpt lat="46.2724" lon="6.45712">
        <ele>1195.06</ele>
        <time>2019-02-03T14:05:53Z</time>
      </trkpt>
      <trkpt lat="46.27236" lon="6.4571">
        <ele>1195.06</ele>
        <time>2019-02-03T14:06:10Z</time>
      </trkpt>
      <trkpt lat="46.27231" lon="6.45706">
        <ele>1196.5</ele>
        <time>2019-02-03T14:06:19Z</time>
      </trkpt>
      <trkpt lat="46.27226" lon="6.45699">
        <ele>1196.98</ele>
        <time>2019-02-03T14:06:31Z</time>
      </trkpt>
      <trkpt lat="46.27223" lon="6.45694">
        <ele>1198.9</ele>
        <time>2019-02-03T14:06:45Z</time>
      </trkpt>
      <trkpt lat="46.27211" lon="6.45691">
        <ele>1199.86</ele>
        <time>2019-02-03T14:06:58Z</time>
      </trkpt>
      <trkpt lat="46.27205" lon="6.45688">
        <ele>1200.34</ele>
        <time>2019-02-03T14:07:09Z</time>
      </trkpt>
      <trkpt lat="46.272" lon="6.45685">
        <ele>1200.34</ele>
        <time>2019-02-03T14:07:21Z</time>
      </trkpt>
      <trkpt lat="46.27192" lon="6.45684">
        <ele>1201.79</ele>
        <time>2019-02-03T14:07:34Z</time>
      </trkpt>
      <trkpt lat="46.27184" lon="6.45682">
        <ele>1202.75</ele>
        <time>2019-02-03T14:07:45Z</time>
      </trkpt>
      <trkpt lat="46.2718" lon="6.4568">
        <ele>1203.71</ele>
        <time>2019-02-03T14:08:01Z</time>
      </trkpt>
      <trkpt lat="46.27169" lon="6.45675">
        <ele>1204.19</ele>
        <time>2019-02-03T14:08:13Z</time>
      </trkpt>
      <trkpt lat="46.2716" lon="6.45676">
        <ele>1204.19</ele>
        <time>2019-02-03T14:08:26Z</time>
      </trkpt>
      <trkpt lat="46.27147" lon="6.45674">
        <ele>1202.75</ele>
        <time>2019-02-03T14:08:38Z</time>
      </trkpt>
      <trkpt lat="46.2714" lon="6.4567">
        <ele>1205.15</ele>
        <time>2019-02-03T14:08:50Z</time>
      </trkpt>
      <trkpt lat="46.27137" lon="6.45667">
        <ele>1204.67</ele>
        <time>2019-02-03T14:09:03Z</time>
      </trkpt>
      <trkpt lat="46.27136" lon="6.45666">
        <ele>1204.67</ele>
        <time>2019-02-03T14:09:38Z</time>
      </trkpt>
      <trkpt lat="46.27127" lon="6.45665">
        <ele>1204.19</ele>
        <time>2019-02-03T14:09:49Z</time>
      </trkpt>
      <trkpt lat="46.27126" lon="6.45664">
        <ele>1203.71</ele>
        <time>2019-02-03T14:10:19Z</time>
      </trkpt>
      <trkpt lat="46.27126" lon="6.45663">
        <ele>1204.19</ele>
        <time>2019-02-03T14:11:12Z</time>
      </trkpt>
      <trkpt lat="46.27128" lon="6.45663">
        <ele>1203.71</ele>
        <time>2019-02-03T14:13:13Z</time>
      </trkpt>
      <trkpt lat="46.27128" lon="6.45662">
        <ele>1203.71</ele>
        <time>2019-02-03T14:13:14Z</time>
      </trkpt>
      <trkpt lat="46.27131" lon="6.45662">
        <ele>1204.67</ele>
        <time>2019-02-03T14:13:30Z</time>
      </trkpt>
      <trkpt lat="46.27127" lon="6.45664">
        <ele>1204.19</ele>
        <time>2019-02-03T14:13:44Z</time>
      </trkpt>
      <trkpt lat="46.27127" lon="6.45664">
        <ele>1203.71</ele>
        <time>2019-02-03T14:14:01Z</time>
      </trkpt>
      <trkpt lat="46.27122" lon="6.45664">
        <ele>1204.19</ele>
        <time>2019-02-03T14:14:42Z</time>
      </trkpt>
      <trkpt lat="46.2712" lon="6.45662">
        <ele>1204.19</ele>
        <time>2019-02-03T14:14:54Z</time>
      </trkpt>
      <trkpt lat="46.27113" lon="6.45662">
        <ele>1203.23</ele>
        <time>2019-02-03T14:15:16Z</time>
      </trkpt>
      <trkpt lat="46.27111" lon="6.4566">
        <ele>1203.71</ele>
        <time>2019-02-03T14:15:28Z</time>
      </trkpt>
      <trkpt lat="46.27115" lon="6.45661">
        <ele>1203.71</ele>
        <time>2019-02-03T14:16:02Z</time>
      </trkpt>
      <trkpt lat="46.27118" lon="6.4566">
        <ele>1203.71</ele>
        <time>2019-02-03T14:16:13Z</time>
      </trkpt>
      <trkpt lat="46.2712" lon="6.45661">
        <ele>1203.23</ele>
        <time>2019-02-03T14:16:42Z</time>
      </trkpt>
      <trkpt lat="46.2712" lon="6.45661">
        <ele>1203.71</ele>
        <time>2019-02-03T14:19:01Z</time>
      </trkpt>
      <trkpt lat="46.2712" lon="6.4566">
        <ele>1202.75</ele>
        <time>2019-02-03T14:20:09Z</time>
      </trkpt>
      <trkpt lat="46.27116" lon="6.45663">
        <ele>1203.23</ele>
        <time>2019-02-03T14:20:49Z</time>
      </trkpt>
      <trkpt lat="46.27109" lon="6.45662">
        <ele>1202.27</ele>
        <time>2019-02-03T14:21:01Z</time>
      </trkpt>
      <trkpt lat="46.27102" lon="6.45661">
        <ele>1202.27</ele>
        <time>2019-02-03T14:21:18Z</time>
      </trkpt>
      <trkpt lat="46.27097" lon="6.45661">
        <ele>1201.79</ele>
        <time>2019-02-03T14:21:31Z</time>
      </trkpt>
      <trkpt lat="46.27096" lon="6.45661">
        <ele>1201.3</ele>
        <time>2019-02-03T14:21:52Z</time>
      </trkpt>
      <trkpt lat="46.27096" lon="6.45661">
        <ele>1202.27</ele>
        <time>2019-02-03T14:22:56Z</time>
      </trkpt>
      <trkpt lat="46.27094" lon="6.45661">
        <ele>1202.75</ele>
        <time>2019-02-03T14:23:35Z</time>
      </trkpt>
      <trkpt lat="46.27087" lon="6.4566">
        <ele>1201.79</ele>
        <time>2019-02-03T14:23:46Z</time>
      </trkpt>
      <trkpt lat="46.27077" lon="6.45661">
        <ele>1199.86</ele>
        <time>2019-02-03T14:23:59Z</time>
      </trkpt>
      <trkpt lat="46.27072" lon="6.4566">
        <ele>1198.42</ele>
        <time>2019-02-03T14:24:06Z</time>
      </trkpt>
      <trkpt lat="46.2706" lon="6.45658">
        <ele>1197.46</ele>
        <time>2019-02-03T14:24:21Z</time>
      </trkpt>
      <trkpt lat="46.2705" lon="6.45652">
        <ele>1196.98</ele>
        <time>2019-02-03T14:24:34Z</time>
      </trkpt>
      <trkpt lat="46.27042" lon="6.45654">
        <ele>1195.54</ele>
        <time>2019-02-03T14:24:46Z</time>
      </trkpt>
      <trkpt lat="46.27038" lon="6.45656">
        <ele>1195.54</ele>
        <time>2019-02-03T14:25:00Z</time>
      </trkpt>
      <trkpt lat="46.27026" lon="6.45656">
        <ele>1194.09</ele>
        <time>2019-02-03T14:25:13Z</time>
      </trkpt>
      <trkpt lat="46.27017" lon="6.45654">
        <ele>1194.09</ele>
        <time>2019-02-03T14:25:26Z</time>
      </trkpt>
      <trkpt lat="46.27011" lon="6.45652">
        <ele>1194.09</ele>
        <time>2019-02-03T14:25:44Z</time>
      </trkpt>
      <trkpt lat="46.27011" lon="6.45652">
        <ele>1194.09</ele>
        <time>2019-02-03T14:26:17Z</time>
      </trkpt>
      <trkpt lat="46.2701" lon="6.45653">
        <ele>1193.61</ele>
        <time>2019-02-03T14:27:03Z</time>
      </trkpt>
      <trkpt lat="46.27009" lon="6.45654">
        <ele>1194.58</ele>
        <time>2019-02-03T14:27:38Z</time>
      </trkpt>
      <trkpt lat="46.27009" lon="6.45651">
        <ele>1194.58</ele>
        <time>2019-02-03T14:28:09Z</time>
      </trkpt>
      <trkpt lat="46.27004" lon="6.45656">
        <ele>1193.61</ele>
        <time>2019-02-03T14:29:04Z</time>
      </trkpt>
      <trkpt lat="46.26998" lon="6.45656">
        <ele>1193.61</ele>
        <time>2019-02-03T14:29:15Z</time>
      </trkpt>
      <trkpt lat="46.26994" lon="6.45657">
        <ele>1194.09</ele>
        <time>2019-02-03T14:29:27Z</time>
      </trkpt>
      <trkpt lat="46.26985" lon="6.45653">
        <ele>1194.58</ele>
        <time>2019-02-03T14:29:40Z</time>
      </trkpt>
      <trkpt lat="46.26979" lon="6.45654">
        <ele>1194.58</ele>
        <time>2019-02-03T14:29:51Z</time>
      </trkpt>
      <trkpt lat="46.26975" lon="6.45651">
        <ele>1196.02</ele>
        <time>2019-02-03T14:30:02Z</time>
      </trkpt>
      <trkpt lat="46.26967" lon="6.45649">
        <ele>1196.02</ele>
        <time>2019-02-03T14:30:17Z</time>
      </trkpt>
      <trkpt lat="46.2696" lon="6.45646">
        <ele>1196.98</ele>
        <time>2019-02-03T14:30:31Z</time>
      </trkpt>
      <trkpt lat="46.26955" lon="6.45645">
        <ele>1197.46</ele>
        <time>2019-02-03T14:30:42Z</time>
      </trkpt>
      <trkpt lat="46.26947" lon="6.45643">
        <ele>1199.38</ele>
        <time>2019-02-03T14:30:54Z</time>
      </trkpt>
      <trkpt lat="46.26939" lon="6.45644">
        <ele>1199.86</ele>
        <time>2019-02-03T14:31:06Z</time>
      </trkpt>
      <trkpt lat="46.26929" lon="6.45646">
        <ele>1199.86</ele>
        <time>2019-02-03T14:31:19Z</time>
      </trkpt>
      <trkpt lat="46.26923" lon="6.45642">
        <ele>1200.82</ele>
        <time>2019-02-03T14:31:33Z</time>
      </trkpt>
      <trkpt lat="46.26914" lon="6.45641">
        <ele>1201.3</ele>
        <time>2019-02-03T14:31:47Z</time>
      </trkpt>
      <trkpt lat="46.2691" lon="6.45639">
        <ele>1201.3</ele>
        <time>2019-02-03T14:31:53Z</time>
      </trkpt>
      <trkpt lat="46.26902" lon="6.45634">
        <ele>1201.79</ele>
        <time>2019-02-03T14:32:05Z</time>
      </trkpt>
      <trkpt lat="46.26896" lon="6.45629">
        <ele>1203.71</ele>
        <time>2019-02-03T14:32:21Z</time>
      </trkpt>
      <trkpt lat="46.2689" lon="6.45627">
        <ele>1203.71</ele>
        <time>2019-02-03T14:32:29Z</time>
      </trkpt>
      <trkpt lat="46.26884" lon="6.45623">
        <ele>1204.19</ele>
        <time>2019-02-03T14:32:40Z</time>
      </trkpt>
      <trkpt lat="46.26875" lon="6.45622">
        <ele>1205.15</ele>
        <time>2019-02-03T14:32:52Z</time>
      </trkpt>
      <trkpt lat="46.26867" lon="6.45618">
        <ele>1205.63</ele>
        <time>2019-02-03T14:33:04Z</time>
      </trkpt>
      <trkpt lat="46.2686" lon="6.45612">
        <ele>1205.15</ele>
        <time>2019-02-03T14:33:15Z</time>
      </trkpt>
      <trkpt lat="46.26849" lon="6.45607">
        <ele>1206.11</ele>
        <time>2019-02-03T14:33:28Z</time>
      </trkpt>
      <trkpt lat="46.2684" lon="6.456">
        <ele>1206.59</ele>
        <time>2019-02-03T14:33:41Z</time>
      </trkpt>
      <trkpt lat="46.26831" lon="6.45599">
        <ele>1205.63</ele>
        <time>2019-02-03T14:33:52Z</time>
      </trkpt>
      <trkpt lat="46.26825" lon="6.45597">
        <ele>1206.59</ele>
        <time>2019-02-03T14:34:04Z</time>
      </trkpt>
      <trkpt lat="46.26816" lon="6.45591">
        <ele>1206.59</ele>
        <time>2019-02-03T14:34:17Z</time>
      </trkpt>
      <trkpt lat="46.26808" lon="6.45589">
        <ele>1207.07</ele>
        <time>2019-02-03T14:34:29Z</time>
      </trkpt>
      <trkpt lat="46.26805" lon="6.45587">
        <ele>1207.55</ele>
        <time>2019-02-03T14:34:33Z</time>
      </trkpt>
      <trkpt lat="46.26799" lon="6.45585">
        <ele>1206.59</ele>
        <time>2019-02-03T14:34:41Z</time>
      </trkpt>
      <trkpt lat="46.26789" lon="6.4558">
        <ele>1207.55</ele>
        <time>2019-02-03T14:34:54Z</time>
      </trkpt>
      <trkpt lat="46.26786" lon="6.45581">
        <ele>1207.07</ele>
        <time>2019-02-03T14:34:57Z</time>
      </trkpt>
      <trkpt lat="46.26778" lon="6.45578">
        <ele>1208.51</ele>
        <time>2019-02-03T14:35:07Z</time>
      </trkpt>
      <trkpt lat="46.26768" lon="6.45571">
        <ele>1207.55</ele>
        <time>2019-02-03T14:35:20Z</time>
      </trkpt>
      <trkpt lat="46.2676" lon="6.45565">
        <ele>1208.51</ele>
        <time>2019-02-03T14:35:31Z</time>
      </trkpt>
      <trkpt lat="46.26753" lon="6.45561">
        <ele>1208.51</ele>
        <time>2019-02-03T14:35:43Z</time>
      </trkpt>
      <trkpt lat="46.26746" lon="6.45561">
        <ele>1209</ele>
        <time>2019-02-03T14:35:54Z</time>
      </trkpt>
      <trkpt lat="46.26736" lon="6.45558">
        <ele>1209.48</ele>
        <time>2019-02-03T14:36:08Z</time>
      </trkpt>
      <trkpt lat="46.26727" lon="6.45552">
        <ele>1211.4</ele>
        <time>2019-02-03T14:36:22Z</time>
      </trkpt>
      <trkpt lat="46.26719" lon="6.45549">
        <ele>1212.36</ele>
        <time>2019-02-03T14:36:32Z</time>
      </trkpt>
      <trkpt lat="46.26714" lon="6.45546">
        <ele>1213.8</ele>
        <time>2019-02-03T14:36:42Z</time>
      </trkpt>
      <trkpt lat="46.26707" lon="6.45542">
        <ele>1213.32</ele>
        <time>2019-02-03T14:36:53Z</time>
      </trkpt>
      <trkpt lat="46.26703" lon="6.45539">
        <ele>1213.8</ele>
        <time>2019-02-03T14:37:03Z</time>
      </trkpt>
      <trkpt lat="46.26694" lon="6.45535">
        <ele>1215.72</ele>
        <time>2019-02-03T14:37:19Z</time>
      </trkpt>
      <trkpt lat="46.26691" lon="6.45535">
        <ele>1217.17</ele>
        <time>2019-02-03T14:37:31Z</time>
      </trkpt>
      <trkpt lat="46.26687" lon="6.45536">
        <ele>1218.61</ele>
        <time>2019-02-03T14:37:43Z</time>
      </trkpt>
      <trkpt lat="46.26681" lon="6.45538">
        <ele>1219.09</ele>
        <time>2019-02-03T14:37:53Z</time>
      </trkpt>
      <trkpt lat="46.26676" lon="6.45538">
        <ele>1219.57</ele>
        <time>2019-02-03T14:38:03Z</time>
      </trkpt>
      <trkpt lat="46.26671" lon="6.45538">
        <ele>1221.01</ele>
        <time>2019-02-03T14:38:12Z</time>
      </trkpt>
      <trkpt lat="46.26665" lon="6.45537">
        <ele>1221.49</ele>
        <time>2019-02-03T14:38:22Z</time>
      </trkpt>
      <trkpt lat="46.26657" lon="6.45537">
        <ele>1221.97</ele>
        <time>2019-02-03T14:38:36Z</time>
      </trkpt>
      <trkpt lat="46.2665" lon="6.45537">
        <ele>1222.93</ele>
        <time>2019-02-03T14:38:47Z</time>
      </trkpt>
      <trkpt lat="46.2664" lon="6.45539">
        <ele>1222.93</ele>
        <time>2019-02-03T14:38:59Z</time>
      </trkpt>
      <trkpt lat="46.26638" lon="6.4554">
        <ele>1223.42</ele>
        <time>2019-02-03T14:39:04Z</time>
      </trkpt>
      <trkpt lat="46.26632" lon="6.45544">
        <ele>1222.93</ele>
        <time>2019-02-03T14:39:11Z</time>
      </trkpt>
      <trkpt lat="46.26623" lon="6.45547">
        <ele>1221.49</ele>
        <time>2019-02-03T14:39:23Z</time>
      </trkpt>
      <trkpt lat="46.26613" lon="6.45546">
        <ele>1222.45</ele>
        <time>2019-02-03T14:39:35Z</time>
      </trkpt>
      <trkpt lat="46.26606" lon="6.45547">
        <ele>1221.49</ele>
        <time>2019-02-03T14:39:48Z</time>
      </trkpt>
      <trkpt lat="46.26605" lon="6.45548">
        <ele>1221.49</ele>
        <time>2019-02-03T14:40:07Z</time>
      </trkpt>
      <trkpt lat="46.26601" lon="6.45549">
        <ele>1220.53</ele>
        <time>2019-02-03T14:40:20Z</time>
      </trkpt>
      <trkpt lat="46.266" lon="6.45548">
        <ele>1219.09</ele>
        <time>2019-02-03T14:41:08Z</time>
      </trkpt>
      <trkpt lat="46.26592" lon="6.45546">
        <ele>1220.53</ele>
        <time>2019-02-03T14:41:19Z</time>
      </trkpt>
      <trkpt lat="46.26587" lon="6.45541">
        <ele>1218.61</ele>
        <time>2019-02-03T14:41:32Z</time>
      </trkpt>
      <trkpt lat="46.26586" lon="6.45541">
        <ele>1217.65</ele>
        <time>2019-02-03T14:41:44Z</time>
      </trkpt>
      <trkpt lat="46.26585" lon="6.45544">
        <ele>1217.65</ele>
        <time>2019-02-03T14:41:59Z</time>
      </trkpt>
      <trkpt lat="46.26585" lon="6.45544">
        <ele>1218.13</ele>
        <time>2019-02-03T14:42:54Z</time>
      </trkpt>
      <trkpt lat="46.26587" lon="6.45547">
        <ele>1218.61</ele>
        <time>2019-02-03T14:43:08Z</time>
      </trkpt>
      <trkpt lat="46.26587" lon="6.45547">
        <ele>1218.61</ele>
        <time>2019-02-03T14:43:50Z</time>
      </trkpt>
      <trkpt lat="46.26588" lon="6.45548">
        <ele>1218.13</ele>
        <time>2019-02-03T14:44:55Z</time>
      </trkpt>
      <trkpt lat="46.26588" lon="6.45548">
        <ele>1219.09</ele>
        <time>2019-02-03T14:46:03Z</time>
      </trkpt>
      <trkpt lat="46.26587" lon="6.45548">
        <ele>1218.13</ele>
        <time>2019-02-03T14:46:58Z</time>
      </trkpt>
      <trkpt lat="46.26584" lon="6.45546">
        <ele>1217.65</ele>
        <time>2019-02-03T14:47:08Z</time>
      </trkpt>
      <trkpt lat="46.26577" lon="6.4554">
        <ele>1214.76</ele>
        <time>2019-02-03T14:47:22Z</time>
      </trkpt>
      <trkpt lat="46.26576" lon="6.45539">
        <ele>1214.28</ele>
        <time>2019-02-03T14:47:35Z</time>
      </trkpt>
      <trkpt lat="46.26573" lon="6.45534">
        <ele>1211.4</ele>
        <time>2019-02-03T14:47:52Z</time>
      </trkpt>
      <trkpt lat="46.26569" lon="6.45529">
        <ele>1210.44</ele>
        <time>2019-02-03T14:48:02Z</time>
      </trkpt>
      <trkpt lat="46.26563" lon="6.45527">
        <ele>1206.59</ele>
        <time>2019-02-03T14:48:13Z</time>
      </trkpt>
      <trkpt lat="46.26562" lon="6.45527">
        <ele>1206.59</ele>
        <time>2019-02-03T14:48:14Z</time>
      </trkpt>
      <trkpt lat="46.2656" lon="6.45527">
        <ele>1205.15</ele>
        <time>2019-02-03T14:48:18Z</time>
      </trkpt>
      <trkpt lat="46.26553" lon="6.45525">
        <ele>1202.27</ele>
        <time>2019-02-03T14:48:30Z</time>
      </trkpt>
      <trkpt lat="46.26551" lon="6.45525">
        <ele>1202.75</ele>
        <time>2019-02-03T14:48:43Z</time>
      </trkpt>
      <trkpt lat="46.26546" lon="6.45525">
        <ele>1199.86</ele>
        <time>2019-02-03T14:48:55Z</time>
      </trkpt>
      <trkpt lat="46.2654" lon="6.45521">
        <ele>1197.46</ele>
        <time>2019-02-03T14:49:06Z</time>
      </trkpt>
      <trkpt lat="46.26538" lon="6.45521">
        <ele>1196.5</ele>
        <time>2019-02-03T14:49:22Z</time>
      </trkpt>
      <trkpt lat="46.26534" lon="6.4552">
        <ele>1195.06</ele>
        <time>2019-02-03T14:49:28Z</time>
      </trkpt>
      <trkpt lat="46.26531" lon="6.4552">
        <ele>1192.65</ele>
        <time>2019-02-03T14:49:35Z</time>
      </trkpt>
      <trkpt lat="46.26529" lon="6.45518">
        <ele>1191.69</ele>
        <time>2019-02-03T14:49:39Z</time>
      </trkpt>
      <trkpt lat="46.26526" lon="6.45516">
        <ele>1190.73</ele>
        <time>2019-02-03T14:49:45Z</time>
      </trkpt>
      <trkpt lat="46.26522" lon="6.45513">
        <ele>1189.29</ele>
        <time>2019-02-03T14:49:55Z</time>
      </trkpt>
      <trkpt lat="46.26517" lon="6.45512">
        <ele>1187.37</ele>
        <time>2019-02-03T14:50:17Z</time>
      </trkpt>
      <trkpt lat="46.26513" lon="6.45511">
        <ele>1185.44</ele>
        <time>2019-02-03T14:50:26Z</time>
      </trkpt>
      <trkpt lat="46.26506" lon="6.45509">
        <ele>1182.08</ele>
        <time>2019-02-03T14:50:40Z</time>
      </trkpt>
      <trkpt lat="46.26506" lon="6.45508">
        <ele>1181.12</ele>
        <time>2019-02-03T14:51:05Z</time>
      </trkpt>
      <trkpt lat="46.26506" lon="6.45508">
        <ele>1181.12</ele>
        <time>2019-02-03T14:51:22Z</time>
      </trkpt>
      <trkpt lat="46.26507" lon="6.45511">
        <ele>1182.56</ele>
        <time>2019-02-03T14:51:31Z</time>
      </trkpt>
      <trkpt lat="46.26508" lon="6.45512">
        <ele>1182.56</ele>
        <time>2019-02-03T14:52:00Z</time>
      </trkpt>
      <trkpt lat="46.26507" lon="6.45518">
        <ele>1181.6</ele>
        <time>2019-02-03T14:52:30Z</time>
      </trkpt>
      <trkpt lat="46.26505" lon="6.45522">
        <ele>1180.64</ele>
        <time>2019-02-03T14:52:47Z</time>
      </trkpt>
      <trkpt lat="46.26501" lon="6.45526">
        <ele>1179.19</ele>
        <time>2019-02-03T14:53:06Z</time>
      </trkpt>
      <trkpt lat="46.26496" lon="6.4553">
        <ele>1177.27</ele>
        <time>2019-02-03T14:53:25Z</time>
      </trkpt>
      <trkpt lat="46.26495" lon="6.45531">
        <ele>1176.79</ele>
        <time>2019-02-03T14:53:45Z</time>
      </trkpt>
      <trkpt lat="46.26494" lon="6.45531">
        <ele>1174.87</ele>
        <time>2019-02-03T14:54:05Z</time>
      </trkpt>
      <trkpt lat="46.26483" lon="6.45542">
        <ele>1172.47</ele>
        <time>2019-02-03T14:54:21Z</time>
      </trkpt>
      <trkpt lat="46.2648" lon="6.45545">
        <ele>1170.54</ele>
        <time>2019-02-03T14:54:31Z</time>
      </trkpt>
      <trkpt lat="46.26478" lon="6.4555">
        <ele>1168.62</ele>
        <time>2019-02-03T14:54:43Z</time>
      </trkpt>
      <trkpt lat="46.26478" lon="6.45553">
        <ele>1168.14</ele>
        <time>2019-02-03T14:54:58Z</time>
      </trkpt>
      <trkpt lat="46.26475" lon="6.45558">
        <ele>1166.22</ele>
        <time>2019-02-03T14:55:19Z</time>
      </trkpt>
      <trkpt lat="46.26471" lon="6.45567">
        <ele>1164.29</ele>
        <time>2019-02-03T14:55:31Z</time>
      </trkpt>
      <trkpt lat="46.26469" lon="6.4557">
        <ele>1164.29</ele>
        <time>2019-02-03T14:55:41Z</time>
      </trkpt>
      <trkpt lat="46.26466" lon="6.45567">
        <ele>1161.89</ele>
        <time>2019-02-03T14:55:55Z</time>
      </trkpt>
      <trkpt lat="46.26462" lon="6.45573">
        <ele>1159.97</ele>
        <time>2019-02-03T14:56:06Z</time>
      </trkpt>
      <trkpt lat="46.26459" lon="6.45573">
        <ele>1158.53</ele>
        <time>2019-02-03T14:56:19Z</time>
      </trkpt>
      <trkpt lat="46.26455" lon="6.45578">
        <ele>1155.64</ele>
        <time>2019-02-03T14:56:34Z</time>
      </trkpt>
      <trkpt lat="46.26452" lon="6.45584">
        <ele>1154.2</ele>
        <time>2019-02-03T14:56:47Z</time>
      </trkpt>
      <trkpt lat="46.26449" lon="6.45584">
        <ele>1152.28</ele>
        <time>2019-02-03T14:57:03Z</time>
      </trkpt>
      <trkpt lat="46.26442" lon="6.45583">
        <ele>1150.84</ele>
        <time>2019-02-03T14:57:30Z</time>
      </trkpt>
      <trkpt lat="46.26436" lon="6.45582">
        <ele>1148.43</ele>
        <time>2019-02-03T14:57:42Z</time>
      </trkpt>
      <trkpt lat="46.26434" lon="6.45582">
        <ele>1147.47</ele>
        <time>2019-02-03T14:57:55Z</time>
      </trkpt>
      <trkpt lat="46.26433" lon="6.45582">
        <ele>1147.47</ele>
        <time>2019-02-03T14:58:34Z</time>
      </trkpt>
      <trkpt lat="46.2643" lon="6.45587">
        <ele>1145.07</ele>
        <time>2019-02-03T14:58:46Z</time>
      </trkpt>
      <trkpt lat="46.26425" lon="6.45588">
        <ele>1142.18</ele>
        <time>2019-02-03T14:58:57Z</time>
      </trkpt>
      <trkpt lat="46.26419" lon="6.45581">
        <ele>1140.26</ele>
        <time>2019-02-03T14:59:09Z</time>
      </trkpt>
      <trkpt lat="46.26414" lon="6.45582">
        <ele>1136.42</ele>
        <time>2019-02-03T14:59:22Z</time>
      </trkpt>
      <trkpt lat="46.26411" lon="6.45584">
        <ele>1135.94</ele>
        <time>2019-02-03T14:59:27Z</time>
      </trkpt>
      <trkpt lat="46.26406" lon="6.45588">
        <ele>1134.01</ele>
        <time>2019-02-03T14:59:40Z</time>
      </trkpt>
      <trkpt lat="46.26406" lon="6.45587">
        <ele>1134.01</ele>
        <time>2019-02-03T14:59:59Z</time>
      </trkpt>
      <trkpt lat="46.26406" lon="6.45587">
        <ele>1133.53</ele>
        <time>2019-02-03T15:00:54Z</time>
      </trkpt>
      <trkpt lat="46.26399" lon="6.45594">
        <ele>1132.09</ele>
        <time>2019-02-03T15:01:09Z</time>
      </trkpt>
      <trkpt lat="46.26398" lon="6.45595">
        <ele>1131.13</ele>
        <time>2019-02-03T15:01:38Z</time>
      </trkpt>
      <trkpt lat="46.26394" lon="6.456">
        <ele>1130.17</ele>
        <time>2019-02-03T15:01:43Z</time>
      </trkpt>
      <trkpt lat="46.26396" lon="6.45608">
        <ele>1129.21</ele>
        <time>2019-02-03T15:01:49Z</time>
      </trkpt>
      <trkpt lat="46.26398" lon="6.45611">
        <ele>1129.21</ele>
        <time>2019-02-03T15:01:51Z</time>
      </trkpt>
      <trkpt lat="46.26404" lon="6.45629">
        <ele>1128.24</ele>
        <time>2019-02-03T15:02:03Z</time>
      </trkpt>
      <trkpt lat="46.26406" lon="6.45635">
        <ele>1128.24</ele>
        <time>2019-02-03T15:02:07Z</time>
      </trkpt>
      <trkpt lat="46.26411" lon="6.4564">
        <ele>1128.73</ele>
        <time>2019-02-03T15:02:12Z</time>
      </trkpt>
      <trkpt lat="46.26411" lon="6.45644">
        <ele>1128.24</ele>
        <time>2019-02-03T15:02:14Z</time>
      </trkpt>
      <trkpt lat="46.26414" lon="6.45655">
        <ele>1127.76</ele>
        <time>2019-02-03T15:02:21Z</time>
      </trkpt>
      <trkpt lat="46.26417" lon="6.45663">
        <ele>1127.76</ele>
        <time>2019-02-03T15:02:26Z</time>
      </trkpt>
      <trkpt lat="46.26423" lon="6.45682">
        <ele>1127.76</ele>
        <time>2019-02-03T15:02:39Z</time>
      </trkpt>
      <trkpt lat="46.26426" lon="6.45688">
        <ele>1128.24</ele>
        <time>2019-02-03T15:02:44Z</time>
      </trkpt>
      <trkpt lat="46.26429" lon="6.45697">
        <ele>1128.24</ele>
        <time>2019-02-03T15:03:01Z</time>
      </trkpt>
      <trkpt lat="46.26432" lon="6.45704">
        <ele>1127.28</ele>
        <time>2019-02-03T15:03:16Z</time>
      </trkpt>
      <trkpt lat="46.26431" lon="6.45711">
        <ele>1126.32</ele>
        <time>2019-02-03T15:03:35Z</time>
      </trkpt>
      <trkpt lat="46.26431" lon="6.45714">
        <ele>1125.84</ele>
        <time>2019-02-03T15:03:37Z</time>
      </trkpt>
      <trkpt lat="46.26433" lon="6.45725">
        <ele>1123.44</ele>
        <time>2019-02-03T15:03:48Z</time>
      </trkpt>
      <trkpt lat="46.26433" lon="6.45733">
        <ele>1123.44</ele>
        <time>2019-02-03T15:04:15Z</time>
      </trkpt>
      <trkpt lat="46.26436" lon="6.45739">
        <ele>1123.44</ele>
        <time>2019-02-03T15:04:21Z</time>
      </trkpt>
      <trkpt lat="46.26437" lon="6.45748">
        <ele>1122</ele>
        <time>2019-02-03T15:04:34Z</time>
      </trkpt>
      <trkpt lat="46.26437" lon="6.45748">
        <ele>1122.48</ele>
        <time>2019-02-03T15:04:58Z</time>
      </trkpt>
      <trkpt lat="46.26438" lon="6.45759">
        <ele>1121.52</ele>
        <time>2019-02-03T15:05:04Z</time>
      </trkpt>
      <trkpt lat="46.26439" lon="6.4577">
        <ele>1120.07</ele>
        <time>2019-02-03T15:05:10Z</time>
      </trkpt>
      <trkpt lat="46.2644" lon="6.45773">
        <ele>1119.59</ele>
        <time>2019-02-03T15:05:12Z</time>
      </trkpt>
      <trkpt lat="46.26441" lon="6.45779">
        <ele>1118.63</ele>
        <time>2019-02-03T15:05:16Z</time>
      </trkpt>
      <trkpt lat="46.26443" lon="6.45785">
        <ele>1118.63</ele>
        <time>2019-02-03T15:05:20Z</time>
      </trkpt>
      <trkpt lat="46.26447" lon="6.45793">
        <ele>1118.15</ele>
        <time>2019-02-03T15:05:26Z</time>
      </trkpt>
      <trkpt lat="46.2645" lon="6.45798">
        <ele>1117.67</ele>
        <time>2019-02-03T15:05:30Z</time>
      </trkpt>
      <trkpt lat="46.26459" lon="6.45811">
        <ele>1116.23</ele>
        <time>2019-02-03T15:05:44Z</time>
      </trkpt>
      <trkpt lat="46.26459" lon="6.45813">
        <ele>1116.23</ele>
        <time>2019-02-03T15:05:47Z</time>
      </trkpt>
      <trkpt lat="46.26461" lon="6.45817">
        <ele>1116.71</ele>
        <time>2019-02-03T15:05:50Z</time>
      </trkpt>
      <trkpt lat="46.26461" lon="6.4582">
        <ele>1116.23</ele>
        <time>2019-02-03T15:05:52Z</time>
      </trkpt>
      <trkpt lat="46.26468" lon="6.45831">
        <ele>1115.27</ele>
        <time>2019-02-03T15:06:01Z</time>
      </trkpt>
      <trkpt lat="46.26477" lon="6.45838">
        <ele>1115.27</ele>
        <time>2019-02-03T15:06:09Z</time>
      </trkpt>
      <trkpt lat="46.26485" lon="6.45849">
        <ele>1115.27</ele>
        <time>2019-02-03T15:06:20Z</time>
      </trkpt>
      <trkpt lat="46.26489" lon="6.45856">
        <ele>1113.82</ele>
        <time>2019-02-03T15:06:26Z</time>
      </trkpt>
      <trkpt lat="46.26498" lon="6.45867">
        <ele>1115.27</ele>
        <time>2019-02-03T15:06:35Z</time>
      </trkpt>
      <trkpt lat="46.26502" lon="6.45869">
        <ele>1115.27</ele>
        <time>2019-02-03T15:06:38Z</time>
      </trkpt>
      <trkpt lat="46.26508" lon="6.45875">
        <ele>1114.31</ele>
        <time>2019-02-03T15:06:44Z</time>
      </trkpt>
      <trkpt lat="46.26512" lon="6.45878">
        <ele>1114.79</ele>
        <time>2019-02-03T15:06:48Z</time>
      </trkpt>
      <trkpt lat="46.26519" lon="6.45882">
        <ele>1114.31</ele>
        <time>2019-02-03T15:06:54Z</time>
      </trkpt>
      <trkpt lat="46.26527" lon="6.45889">
        <ele>1113.82</ele>
        <time>2019-02-03T15:07:04Z</time>
      </trkpt>
      <trkpt lat="46.26531" lon="6.45896">
        <ele>1113.34</ele>
        <time>2019-02-03T15:07:10Z</time>
      </trkpt>
      <trkpt lat="46.26535" lon="6.45901">
        <ele>1112.86</ele>
        <time>2019-02-03T15:07:16Z</time>
      </trkpt>
      <trkpt lat="46.26544" lon="6.45913">
        <ele>1112.86</ele>
        <time>2019-02-03T15:07:28Z</time>
      </trkpt>
      <trkpt lat="46.26547" lon="6.45916">
        <ele>1112.38</ele>
        <time>2019-02-03T15:07:44Z</time>
      </trkpt>
      <trkpt lat="46.26548" lon="6.45917">
        <ele>1112.38</ele>
        <time>2019-02-03T15:08:04Z</time>
      </trkpt>
      <trkpt lat="46.2655" lon="6.45918">
        <ele>1111.42</ele>
        <time>2019-02-03T15:08:06Z</time>
      </trkpt>
      <trkpt lat="46.26553" lon="6.45921">
        <ele>1111.42</ele>
        <time>2019-02-03T15:08:10Z</time>
      </trkpt>
      <trkpt lat="46.26557" lon="6.45922">
        <ele>1111.42</ele>
        <time>2019-02-03T15:08:13Z</time>
      </trkpt>
      <trkpt lat="46.26564" lon="6.45926">
        <ele>1110.94</ele>
        <time>2019-02-03T15:08:19Z</time>
      </trkpt>
      <trkpt lat="46.26569" lon="6.45928">
        <ele>1111.42</ele>
        <time>2019-02-03T15:08:25Z</time>
      </trkpt>
      <trkpt lat="46.26575" lon="6.45928">
        <ele>1111.9</ele>
        <time>2019-02-03T15:08:31Z</time>
      </trkpt>
      <trkpt lat="46.26584" lon="6.45933">
        <ele>1110.94</ele>
        <time>2019-02-03T15:08:42Z</time>
      </trkpt>
      <trkpt lat="46.26586" lon="6.45934">
        <ele>1110.94</ele>
        <time>2019-02-03T15:08:44Z</time>
      </trkpt>
      <trkpt lat="46.26593" lon="6.45935">
        <ele>1111.42</ele>
        <time>2019-02-03T15:08:52Z</time>
      </trkpt>
      <trkpt lat="46.26595" lon="6.4594">
        <ele>1110.46</ele>
        <time>2019-02-03T15:08:56Z</time>
      </trkpt>
      <trkpt lat="46.26598" lon="6.45942">
        <ele>1109.98</ele>
        <time>2019-02-03T15:09:00Z</time>
      </trkpt>
      <trkpt lat="46.26605" lon="6.45949">
        <ele>1107.58</ele>
        <time>2019-02-03T15:09:10Z</time>
      </trkpt>
      <trkpt lat="46.26608" lon="6.45955">
        <ele>1105.65</ele>
        <time>2019-02-03T15:09:15Z</time>
      </trkpt>
      <trkpt lat="46.26612" lon="6.45964">
        <ele>1106.61</ele>
        <time>2019-02-03T15:09:28Z</time>
      </trkpt>
      <trkpt lat="46.26612" lon="6.45965">
        <ele>1104.69</ele>
        <time>2019-02-03T15:09:31Z</time>
      </trkpt>
      <trkpt lat="46.26614" lon="6.45972">
        <ele>1103.73</ele>
        <time>2019-02-03T15:09:38Z</time>
      </trkpt>
      <trkpt lat="46.26616" lon="6.45977">
        <ele>1102.29</ele>
        <time>2019-02-03T15:09:44Z</time>
      </trkpt>
      <trkpt lat="46.26619" lon="6.45987">
        <ele>1098.92</ele>
        <time>2019-02-03T15:09:55Z</time>
      </trkpt>
      <trkpt lat="46.26621" lon="6.45995">
        <ele>1099.4</ele>
        <time>2019-02-03T15:10:03Z</time>
      </trkpt>
      <trkpt lat="46.26624" lon="6.46004">
        <ele>1097.48</ele>
        <time>2019-02-03T15:10:15Z</time>
      </trkpt>
      <trkpt lat="46.26625" lon="6.46011">
        <ele>1095.08</ele>
        <time>2019-02-03T15:10:26Z</time>
      </trkpt>
      <trkpt lat="46.26623" lon="6.46016">
        <ele>1095.56</ele>
        <time>2019-02-03T15:10:38Z</time>
      </trkpt>
      <trkpt lat="46.26623" lon="6.4603">
        <ele>1094.12</ele>
        <time>2019-02-03T15:10:50Z</time>
      </trkpt>
      <trkpt lat="46.26623" lon="6.46035">
        <ele>1093.64</ele>
        <time>2019-02-03T15:10:56Z</time>
      </trkpt>
      <trkpt lat="46.26624" lon="6.46043">
        <ele>1093.16</ele>
        <time>2019-02-03T15:11:04Z</time>
      </trkpt>
      <trkpt lat="46.26622" lon="6.46055">
        <ele>1091.23</ele>
        <time>2019-02-03T15:11:15Z</time>
      </trkpt>
      <trkpt lat="46.26621" lon="6.46062">
        <ele>1089.79</ele>
        <time>2019-02-03T15:11:24Z</time>
      </trkpt>
      <trkpt lat="46.2662" lon="6.46064">
        <ele>1089.31</ele>
        <time>2019-02-03T15:11:28Z</time>
      </trkpt>
      <trkpt lat="46.26616" lon="6.46071">
        <ele>1087.87</ele>
        <time>2019-02-03T15:11:37Z</time>
      </trkpt>
      <trkpt lat="46.26616" lon="6.46078">
        <ele>1086.43</ele>
        <time>2019-02-03T15:11:47Z</time>
      </trkpt>
      <trkpt lat="46.26616" lon="6.46078">
        <ele>1085.47</ele>
        <time>2019-02-03T15:12:12Z</time>
      </trkpt>
      <trkpt lat="46.26618" lon="6.46087">
        <ele>1085.47</ele>
        <time>2019-02-03T15:12:38Z</time>
      </trkpt>
      <trkpt lat="46.2662" lon="6.46099">
        <ele>1085.47</ele>
        <time>2019-02-03T15:12:47Z</time>
      </trkpt>
      <trkpt lat="46.26621" lon="6.46101">
        <ele>1084.02</ele>
        <time>2019-02-03T15:12:50Z</time>
      </trkpt>
      <trkpt lat="46.26624" lon="6.46109">
        <ele>1084.5</ele>
        <time>2019-02-03T15:12:56Z</time>
      </trkpt>
      <trkpt lat="46.2662" lon="6.46122">
        <ele>1084.99</ele>
        <time>2019-02-03T15:13:07Z</time>
      </trkpt>
      <trkpt lat="46.2662" lon="6.46137">
        <ele>1085.95</ele>
        <time>2019-02-03T15:13:19Z</time>
      </trkpt>
      <trkpt lat="46.26623" lon="6.46146">
        <ele>1086.43</ele>
        <time>2019-02-03T15:13:33Z</time>
      </trkpt>
      <trkpt lat="46.26623" lon="6.46146">
        <ele>1084.5</ele>
        <time>2019-02-03T15:13:54Z</time>
      </trkpt>
      <trkpt lat="46.26628" lon="6.46151">
        <ele>1084.5</ele>
        <time>2019-02-03T15:14:19Z</time>
      </trkpt>
      <trkpt lat="46.26634" lon="6.4616">
        <ele>1084.5</ele>
        <time>2019-02-03T15:14:31Z</time>
      </trkpt>
      <trkpt lat="46.26637" lon="6.46164">
        <ele>1084.02</ele>
        <time>2019-02-03T15:14:36Z</time>
      </trkpt>
      <trkpt lat="46.26638" lon="6.46164">
        <ele>1083.54</ele>
        <time>2019-02-03T15:14:38Z</time>
      </trkpt>
      <trkpt lat="46.26639" lon="6.46172">
        <ele>1084.5</ele>
        <time>2019-02-03T15:14:50Z</time>
      </trkpt>
      <trkpt lat="46.26639" lon="6.46171">
        <ele>1084.02</ele>
        <time>2019-02-03T15:15:25Z</time>
      </trkpt>
      <trkpt lat="46.26648" lon="6.4618">
        <ele>1083.06</ele>
        <time>2019-02-03T15:15:38Z</time>
      </trkpt>
      <trkpt lat="46.26656" lon="6.46189">
        <ele>1081.14</ele>
        <time>2019-02-03T15:15:50Z</time>
      </trkpt>
      <trkpt lat="46.26658" lon="6.46192">
        <ele>1081.14</ele>
        <time>2019-02-03T15:15:52Z</time>
      </trkpt>
      <trkpt lat="46.26659" lon="6.46194">
        <ele>1081.14</ele>
        <time>2019-02-03T15:15:54Z</time>
      </trkpt>
      <trkpt lat="46.26663" lon="6.462">
        <ele>1080.66</ele>
        <time>2019-02-03T15:16:00Z</time>
      </trkpt>
      <trkpt lat="46.26673" lon="6.4621">
        <ele>1078.74</ele>
        <time>2019-02-03T15:16:16Z</time>
      </trkpt>
      <trkpt lat="46.26681" lon="6.46218">
        <ele>1078.74</ele>
        <time>2019-02-03T15:16:28Z</time>
      </trkpt>
      <trkpt lat="46.26682" lon="6.4622">
        <ele>1078.74</ele>
        <time>2019-02-03T15:16:30Z</time>
      </trkpt>
      <trkpt lat="46.26684" lon="6.46223">
        <ele>1078.26</ele>
        <time>2019-02-03T15:16:33Z</time>
      </trkpt>
      <trkpt lat="46.26693" lon="6.46234">
        <ele>1077.29</ele>
        <time>2019-02-03T15:16:46Z</time>
      </trkpt>
      <trkpt lat="46.26697" lon="6.46239">
        <ele>1076.81</ele>
        <time>2019-02-03T15:16:52Z</time>
      </trkpt>
      <trkpt lat="46.26701" lon="6.46243">
        <ele>1077.78</ele>
        <time>2019-02-03T15:16:57Z</time>
      </trkpt>
      <trkpt lat="46.26711" lon="6.46255">
        <ele>1078.26</ele>
        <time>2019-02-03T15:17:11Z</time>
      </trkpt>
      <trkpt lat="46.26719" lon="6.46265">
        <ele>1077.78</ele>
        <time>2019-02-03T15:17:23Z</time>
      </trkpt>
      <trkpt lat="46.26723" lon="6.46269">
        <ele>1077.78</ele>
        <time>2019-02-03T15:17:29Z</time>
      </trkpt>
      <trkpt lat="46.26728" lon="6.46275">
        <ele>1078.26</ele>
        <time>2019-02-03T15:17:36Z</time>
      </trkpt>
      <trkpt lat="46.26731" lon="6.46278">
        <ele>1079.22</ele>
        <time>2019-02-03T15:17:40Z</time>
      </trkpt>
      <trkpt lat="46.26731" lon="6.46279">
        <ele>1080.18</ele>
        <time>2019-02-03T15:17:41Z</time>
      </trkpt>
      <trkpt lat="46.26735" lon="6.46282">
        <ele>1078.26</ele>
        <time>2019-02-03T15:17:46Z</time>
      </trkpt>
      <trkpt lat="46.26741" lon="6.46289">
        <ele>1077.78</ele>
        <time>2019-02-03T15:17:54Z</time>
      </trkpt>
      <trkpt lat="46.26743" lon="6.46291">
        <ele>1077.78</ele>
        <time>2019-02-03T15:17:56Z</time>
      </trkpt>
      <trkpt lat="46.26753" lon="6.46299">
        <ele>1076.33</ele>
        <time>2019-02-03T15:18:09Z</time>
      </trkpt>
      <trkpt lat="46.26755" lon="6.46301">
        <ele>1075.85</ele>
        <time>2019-02-03T15:18:12Z</time>
      </trkpt>
      <trkpt lat="46.26767" lon="6.46314">
        <ele>1074.41</ele>
        <time>2019-02-03T15:18:26Z</time>
      </trkpt>
      <trkpt lat="46.26768" lon="6.46314">
        <ele>1075.37</ele>
        <time>2019-02-03T15:18:27Z</time>
      </trkpt>
      <trkpt lat="46.26776" lon="6.46323">
        <ele>1076.33</ele>
        <time>2019-02-03T15:18:38Z</time>
      </trkpt>
      <trkpt lat="46.26786" lon="6.46333">
        <ele>1075.37</ele>
        <time>2019-02-03T15:18:52Z</time>
      </trkpt>
      <trkpt lat="46.26787" lon="6.46335">
        <ele>1075.37</ele>
        <time>2019-02-03T15:18:54Z</time>
      </trkpt>
      <trkpt lat="46.26788" lon="6.46336">
        <ele>1075.85</ele>
        <time>2019-02-03T15:18:56Z</time>
      </trkpt>
      <trkpt lat="46.26795" lon="6.46344">
        <ele>1075.37</ele>
        <time>2019-02-03T15:19:04Z</time>
      </trkpt>
      <trkpt lat="46.26799" lon="6.46347">
        <ele>1075.85</ele>
        <time>2019-02-03T15:19:08Z</time>
      </trkpt>
      <trkpt lat="46.26808" lon="6.46357">
        <ele>1075.85</ele>
        <time>2019-02-03T15:19:20Z</time>
      </trkpt>
      <trkpt lat="46.26815" lon="6.46366">
        <ele>1073.93</ele>
        <time>2019-02-03T15:19:30Z</time>
      </trkpt>
      <trkpt lat="46.26822" lon="6.46381">
        <ele>1072.49</ele>
        <time>2019-02-03T15:19:45Z</time>
      </trkpt>
      <trkpt lat="46.26821" lon="6.46392">
        <ele>1072.01</ele>
        <time>2019-02-03T15:19:57Z</time>
      </trkpt>
      <trkpt lat="46.26818" lon="6.46398">
        <ele>1071.05</ele>
        <time>2019-02-03T15:20:04Z</time>
      </trkpt>
      <trkpt lat="46.26815" lon="6.46407">
        <ele>1069.6</ele>
        <time>2019-02-03T15:20:11Z</time>
      </trkpt>
      <trkpt lat="46.26811" lon="6.46423">
        <ele>1069.6</ele>
        <time>2019-02-03T15:20:24Z</time>
      </trkpt>
      <trkpt lat="46.26817" lon="6.46432">
        <ele>1070.57</ele>
        <time>2019-02-03T15:20:34Z</time>
      </trkpt>
      <trkpt lat="46.26818" lon="6.46433">
        <ele>1069.12</ele>
        <time>2019-02-03T15:20:37Z</time>
      </trkpt>
      <trkpt lat="46.26818" lon="6.46432">
        <ele>1070.08</ele>
        <time>2019-02-03T15:20:47Z</time>
      </trkpt>
      <trkpt lat="46.26818" lon="6.46432">
        <ele>1069.6</ele>
        <time>2019-02-03T15:21:22Z</time>
      </trkpt>
      <trkpt lat="46.26817" lon="6.46433">
        <ele>1070.08</ele>
        <time>2019-02-03T15:21:43Z</time>
      </trkpt>
      <trkpt lat="46.26817" lon="6.46433">
        <ele>1069.6</ele>
        <time>2019-02-03T15:22:28Z</time>
      </trkpt>
      <trkpt lat="46.26816" lon="6.46432">
        <ele>1069.6</ele>
        <time>2019-02-03T15:23:17Z</time>
      </trkpt>
      <trkpt lat="46.26817" lon="6.46433">
        <ele>1070.08</ele>
        <time>2019-02-03T15:23:50Z</time>
      </trkpt>
      <trkpt lat="46.26817" lon="6.46433">
        <ele>1070.08</ele>
        <time>2019-02-03T15:24:01Z</time>
      </trkpt>
      <trkpt lat="46.26817" lon="6.46433">
        <ele>1070.57</ele>
        <time>2019-02-03T15:24:44Z</time>
      </trkpt>
      <trkpt lat="46.26819" lon="6.46436">
        <ele>1070.08</ele>
        <time>2019-02-03T15:25:01Z</time>
      </trkpt>
      <trkpt lat="46.2682" lon="6.46438">
        <ele>1070.57</ele>
        <time>2019-02-03T15:25:18Z</time>
      </trkpt>
      <trkpt lat="46.26818" lon="6.46441">
        <ele>1070.57</ele>
        <time>2019-02-03T15:26:04Z</time>
      </trkpt>
      <trkpt lat="46.26814" lon="6.46444">
        <ele>1070.08</ele>
        <time>2019-02-03T15:26:27Z</time>
      </trkpt>
      <trkpt lat="46.26807" lon="6.46444">
        <ele>1070.08</ele>
        <time>2019-02-03T15:26:36Z</time>
      </trkpt>
      <trkpt lat="46.26802" lon="6.4644">
        <ele>1070.08</ele>
        <time>2019-02-03T15:26:41Z</time>
      </trkpt>
      <trkpt lat="46.26792" lon="6.46436">
        <ele>1069.12</ele>
        <time>2019-02-03T15:26:55Z</time>
      </trkpt>
      <trkpt lat="46.26779" lon="6.46433">
        <ele>1068.16</ele>
        <time>2019-02-03T15:27:10Z</time>
      </trkpt>
      <trkpt lat="46.26769" lon="6.46429">
        <ele>1067.68</ele>
        <time>2019-02-03T15:27:24Z</time>
      </trkpt>
      <trkpt lat="46.26766" lon="6.46428">
        <ele>1067.2</ele>
        <time>2019-02-03T15:27:37Z</time>
      </trkpt>
      <trkpt lat="46.26757" lon="6.46426">
        <ele>1065.76</ele>
        <time>2019-02-03T15:27:51Z</time>
      </trkpt>
      <trkpt lat="46.26748" lon="6.46429">
        <ele>1064.32</ele>
        <time>2019-02-03T15:28:04Z</time>
      </trkpt>
      <trkpt lat="46.26747" lon="6.4643">
        <ele>1064.8</ele>
        <time>2019-02-03T15:28:07Z</time>
      </trkpt>
      <trkpt lat="46.26745" lon="6.46438">
        <ele>1062.87</ele>
        <time>2019-02-03T15:28:15Z</time>
      </trkpt>
      <trkpt lat="46.26748" lon="6.46445">
        <ele>1062.39</ele>
        <time>2019-02-03T15:28:22Z</time>
      </trkpt>
      <trkpt lat="46.2675" lon="6.46449">
        <ele>1062.87</ele>
        <time>2019-02-03T15:28:25Z</time>
      </trkpt>
      <trkpt lat="46.26753" lon="6.46452">
        <ele>1061.43</ele>
        <time>2019-02-03T15:28:28Z</time>
      </trkpt>
      <trkpt lat="46.26759" lon="6.46467">
        <ele>1061.91</ele>
        <time>2019-02-03T15:28:41Z</time>
      </trkpt>
      <trkpt lat="46.26756" lon="6.46469">
        <ele>1061.43</ele>
        <time>2019-02-03T15:28:43Z</time>
      </trkpt>
      <trkpt lat="46.26748" lon="6.46472">
        <ele>1061.43</ele>
        <time>2019-02-03T15:28:52Z</time>
      </trkpt>
      <trkpt lat="46.26735" lon="6.46476">
        <ele>1059.51</ele>
        <time>2019-02-03T15:29:06Z</time>
      </trkpt>
      <trkpt lat="46.26733" lon="6.46476">
        <ele>1059.51</ele>
        <time>2019-02-03T15:29:09Z</time>
      </trkpt>
      <trkpt lat="46.2673" lon="6.46477">
        <ele>1059.03</ele>
        <time>2019-02-03T15:29:12Z</time>
      </trkpt>
      <trkpt lat="46.26714" lon="6.46476">
        <ele>1057.59</ele>
        <time>2019-02-03T15:29:29Z</time>
      </trkpt>
      <trkpt lat="46.26711" lon="6.46477">
        <ele>1057.11</ele>
        <time>2019-02-03T15:29:32Z</time>
      </trkpt>
      <trkpt lat="46.26701" lon="6.46479">
        <ele>1055.67</ele>
        <time>2019-02-03T15:29:41Z</time>
      </trkpt>
      <trkpt lat="46.26698" lon="6.46481">
        <ele>1056.15</ele>
        <time>2019-02-03T15:29:45Z</time>
      </trkpt>
      <trkpt lat="46.26684" lon="6.46488">
        <ele>1053.74</ele>
        <time>2019-02-03T15:29:58Z</time>
      </trkpt>
      <trkpt lat="46.26676" lon="6.46496">
        <ele>1053.26</ele>
        <time>2019-02-03T15:30:07Z</time>
      </trkpt>
      <trkpt lat="46.26673" lon="6.46501">
        <ele>1052.3</ele>
        <time>2019-02-03T15:30:25Z</time>
      </trkpt>
      <trkpt lat="46.26671" lon="6.46504">
        <ele>1051.82</ele>
        <time>2019-02-03T15:30:42Z</time>
      </trkpt>
      <trkpt lat="46.26662" lon="6.46514">
        <ele>1050.86</ele>
        <time>2019-02-03T15:30:55Z</time>
      </trkpt>
      <trkpt lat="46.26656" lon="6.46524">
        <ele>1050.38</ele>
        <time>2019-02-03T15:31:08Z</time>
      </trkpt>
      <trkpt lat="46.26653" lon="6.46528">
        <ele>1048.94</ele>
        <time>2019-02-03T15:31:13Z</time>
      </trkpt>
      <trkpt lat="46.26648" lon="6.46535">
        <ele>1047.97</ele>
        <time>2019-02-03T15:31:21Z</time>
      </trkpt>
      <trkpt lat="46.26639" lon="6.46544">
        <ele>1047.01</ele>
        <time>2019-02-03T15:31:33Z</time>
      </trkpt>
      <trkpt lat="46.26626" lon="6.46551">
        <ele>1046.05</ele>
        <time>2019-02-03T15:31:49Z</time>
      </trkpt>
      <trkpt lat="46.26614" lon="6.46548">
        <ele>1045.09</ele>
        <time>2019-02-03T15:32:04Z</time>
      </trkpt>
      <trkpt lat="46.266" lon="6.46548">
        <ele>1043.65</ele>
        <time>2019-02-03T15:32:18Z</time>
      </trkpt>
      <trkpt lat="46.26591" lon="6.46542">
        <ele>1042.69</ele>
        <time>2019-02-03T15:32:32Z</time>
      </trkpt>
      <trkpt lat="46.26583" lon="6.46543">
        <ele>1042.21</ele>
        <time>2019-02-03T15:32:44Z</time>
      </trkpt>
      <trkpt lat="46.26569" lon="6.46544">
        <ele>1041.25</ele>
        <time>2019-02-03T15:32:58Z</time>
      </trkpt>
      <trkpt lat="46.26567" lon="6.46543">
        <ele>1040.76</ele>
        <time>2019-02-03T15:33:18Z</time>
      </trkpt>
      <trkpt lat="46.26567" lon="6.46543">
        <ele>1041.25</ele>
        <time>2019-02-03T15:33:42Z</time>
      </trkpt>
      <trkpt lat="46.26567" lon="6.46544">
        <ele>1040.76</ele>
        <time>2019-02-03T15:33:58Z</time>
      </trkpt>
      <trkpt lat="46.26566" lon="6.46545">
        <ele>1041.25</ele>
        <time>2019-02-03T15:34:09Z</time>
      </trkpt>
      <trkpt lat="46.26565" lon="6.46545">
        <ele>1041.25</ele>
        <time>2019-02-03T15:34:32Z</time>
      </trkpt>
      <trkpt lat="46.26565" lon="6.46545">
        <ele>1041.25</ele>
        <time>2019-02-03T15:34:58Z</time>
      </trkpt>
      <trkpt lat="46.26565" lon="6.46548">
        <ele>1041.25</ele>
        <time>2019-02-03T15:35:11Z</time>
      </trkpt>
      <trkpt lat="46.26565" lon="6.46549">
        <ele>1040.76</ele>
        <time>2019-02-03T15:35:32Z</time>
      </trkpt>
      <trkpt lat="46.26565" lon="6.46551">
        <ele>1041.25</ele>
        <time>2019-02-03T15:35:56Z</time>
      </trkpt>
      <trkpt lat="46.26564" lon="6.46551">
        <ele>1040.76</ele>
        <time>2019-02-03T15:36:09Z</time>
      </trkpt>
      <trkpt lat="46.26564" lon="6.4655">
        <ele>1041.25</ele>
        <time>2019-02-03T15:36:20Z</time>
      </trkpt>
      <trkpt lat="46.26563" lon="6.46552">
        <ele>1040.28</ele>
        <time>2019-02-03T15:36:31Z</time>
      </trkpt>
      <trkpt lat="46.26562" lon="6.46552">
        <ele>1041.73</ele>
        <time>2019-02-03T15:36:52Z</time>
      </trkpt>
      <trkpt lat="46.26562" lon="6.46552">
        <ele>1040.76</ele>
        <time>2019-02-03T15:37:13Z</time>
      </trkpt>
      <trkpt lat="46.26562" lon="6.46551">
        <ele>1041.25</ele>
        <time>2019-02-03T15:37:42Z</time>
      </trkpt>
      <trkpt lat="46.26561" lon="6.4655">
        <ele>1041.25</ele>
        <time>2019-02-03T15:38:03Z</time>
      </trkpt>
      <trkpt lat="46.26561" lon="6.46554">
        <ele>1041.25</ele>
        <time>2019-02-03T15:38:19Z</time>
      </trkpt>
      <trkpt lat="46.26561" lon="6.46551">
        <ele>1041.25</ele>
        <time>2019-02-03T15:38:38Z</time>
      </trkpt>
      <trkpt lat="46.26561" lon="6.4655">
        <ele>1041.25</ele>
        <time>2019-02-03T15:38:54Z</time>
      </trkpt>
      <trkpt lat="46.26565" lon="6.46546">
        <ele>1040.76</ele>
        <time>2019-02-03T15:39:19Z</time>
      </trkpt>
      <trkpt lat="46.26568" lon="6.4654">
        <ele>1040.76</ele>
        <time>2019-02-03T15:39:33Z</time>
      </trkpt>
      <trkpt lat="46.26567" lon="6.46535">
        <ele>1041.25</ele>
        <time>2019-02-03T15:39:51Z</time>
      </trkpt>
      <trkpt lat="46.26567" lon="6.46533">
        <ele>1040.76</ele>
        <time>2019-02-03T15:40:15Z</time>
      </trkpt>
      <trkpt lat="46.26567" lon="6.46533">
        <ele>1041.73</ele>
        <time>2019-02-03T15:40:19Z</time>
      </trkpt>
      <trkpt lat="46.26569" lon="6.46538">
        <ele>1040.76</ele>
        <time>2019-02-03T15:40:25Z</time>
      </trkpt>
      <trkpt lat="46.26566" lon="6.46546">
        <ele>1041.25</ele>
        <time>2019-02-03T15:40:39Z</time>
      </trkpt>
      <trkpt lat="46.26565" lon="6.46551">
        <ele>1041.25</ele>
        <time>2019-02-03T15:40:51Z</time>
      </trkpt>
      <trkpt lat="46.26565" lon="6.46551">
        <ele>1040.76</ele>
        <time>2019-02-03T15:41:08Z</time>
      </trkpt>
      <trkpt lat="46.26564" lon="6.46551">
        <ele>1041.25</ele>
        <time>2019-02-03T15:41:46Z</time>
      </trkpt>
      <trkpt lat="46.26564" lon="6.46548">
        <ele>1041.25</ele>
        <time>2019-02-03T15:42:08Z</time>
      </trkpt>
      <trkpt lat="46.26565" lon="6.46546">
        <ele>1041.73</ele>
        <time>2019-02-03T15:42:30Z</time>
      </trkpt>
      <trkpt lat="46.26565" lon="6.46546">
        <ele>1042.21</ele>
        <time>2019-02-03T15:42:53Z</time>
      </trkpt>
      <trkpt lat="46.26566" lon="6.46546">
        <ele>1041.73</ele>
        <time>2019-02-03T15:43:10Z</time>
      </trkpt>
      <trkpt lat="46.26566" lon="6.46546">
        <ele>1041.73</ele>
        <time>2019-02-03T15:43:26Z</time>
      </trkpt>
      <trkpt lat="46.26566" lon="6.46546">
        <ele>1041.73</ele>
        <time>2019-02-03T15:43:41Z</time>
      </trkpt>
      <trkpt lat="46.26566" lon="6.4655">
        <ele>1042.21</ele>
        <time>2019-02-03T15:43:57Z</time>
      </trkpt>
      <trkpt lat="46.26566" lon="6.4655">
        <ele>1041.73</ele>
        <time>2019-02-03T15:44:15Z</time>
      </trkpt>
      <trkpt lat="46.26566" lon="6.46549">
        <ele>1041.73</ele>
        <time>2019-02-03T15:44:28Z</time>
      </trkpt>
      <trkpt lat="46.26566" lon="6.46548">
        <ele>1041.73</ele>
        <time>2019-02-03T15:44:40Z</time>
      </trkpt>
      <trkpt lat="46.26565" lon="6.46549">
        <ele>1041.73</ele>
        <time>2019-02-03T15:44:53Z</time>
      </trkpt>
      <trkpt lat="46.26565" lon="6.46549">
        <ele>1041.73</ele>
        <time>2019-02-03T15:45:04Z</time>
      </trkpt>
      <trkpt lat="46.26566" lon="6.46549">
        <ele>1041.73</ele>
        <time>2019-02-03T15:45:14Z</time>
      </trkpt>
      <trkpt lat="46.26567" lon="6.46547">
        <ele>1042.69</ele>
        <time>2019-02-03T15:45:24Z</time>
      </trkpt>
      <trkpt lat="46.26566" lon="6.46547">
        <ele>1041.73</ele>
        <time>2019-02-03T15:45:36Z</time>
      </trkpt>
      <trkpt lat="46.26565" lon="6.46548">
        <ele>1042.69</ele>
        <time>2019-02-03T15:45:46Z</time>
      </trkpt>
      <trkpt lat="46.26565" lon="6.46547">
        <ele>1042.21</ele>
        <time>2019-02-03T15:45:59Z</time>
      </trkpt>
      <trkpt lat="46.26565" lon="6.46548">
        <ele>1042.21</ele>
        <time>2019-02-03T15:46:19Z</time>
      </trkpt>
      <trkpt lat="46.26564" lon="6.46549">
        <ele>1042.21</ele>
        <time>2019-02-03T15:46:29Z</time>
      </trkpt>
      <trkpt lat="46.26566" lon="6.46547">
        <ele>1042.21</ele>
        <time>2019-02-03T15:46:37Z</time>
      </trkpt>
      <trkpt lat="46.26567" lon="6.46547">
        <ele>1042.21</ele>
        <time>2019-02-03T15:46:39Z</time>
      </trkpt>
      <trkpt lat="46.26568" lon="6.46549">
        <ele>1041.73</ele>
        <time>2019-02-03T15:46:48Z</time>
      </trkpt>
      <trkpt lat="46.26565" lon="6.46551">
        <ele>1042.69</ele>
        <time>2019-02-03T15:47:01Z</time>
      </trkpt>
      <trkpt lat="46.26565" lon="6.4655">
        <ele>1042.21</ele>
        <time>2019-02-03T15:47:13Z</time>
      </trkpt>
      <trkpt lat="46.26564" lon="6.46552">
        <ele>1042.69</ele>
        <time>2019-02-03T15:47:28Z</time>
      </trkpt>
      <trkpt lat="46.26565" lon="6.46551">
        <ele>1043.65</ele>
        <time>2019-02-03T15:47:43Z</time>
      </trkpt>
      <trkpt lat="46.26564" lon="6.46551">
        <ele>1042.69</ele>
        <time>2019-02-03T15:47:54Z</time>
      </trkpt>
      <trkpt lat="46.26564" lon="6.46552">
        <ele>1042.69</ele>
        <time>2019-02-03T15:48:10Z</time>
      </trkpt>
      <trkpt lat="46.26564" lon="6.46554">
        <ele>1043.17</ele>
        <time>2019-02-03T15:48:40Z</time>
      </trkpt>
      <trkpt lat="46.26565" lon="6.46551">
        <ele>1042.69</ele>
        <time>2019-02-03T15:48:59Z</time>
      </trkpt>
      <trkpt lat="46.26565" lon="6.46551">
        <ele>1043.17</ele>
        <time>2019-02-03T15:49:07Z</time>
      </trkpt>
      <trkpt lat="46.26564" lon="6.46549">
        <ele>1042.69</ele>
        <time>2019-02-03T15:49:20Z</time>
      </trkpt>
      <trkpt lat="46.26564" lon="6.46549">
        <ele>1043.17</ele>
        <time>2019-02-03T15:49:21Z</time>
      </trkpt>
      <trkpt lat="46.26561" lon="6.46549">
        <ele>1043.17</ele>
        <time>2019-02-03T15:49:31Z</time>
      </trkpt>
      <trkpt lat="46.26564" lon="6.46547">
        <ele>1043.65</ele>
        <time>2019-02-03T15:49:41Z</time>
      </trkpt>
      <trkpt lat="46.26561" lon="6.46548">
        <ele>1043.17</ele>
        <time>2019-02-03T15:49:55Z</time>
      </trkpt>
      <trkpt lat="46.26562" lon="6.46548">
        <ele>1042.69</ele>
        <time>2019-02-03T15:50:07Z</time>
      </trkpt>
      <trkpt lat="46.26561" lon="6.46545">
        <ele>1043.17</ele>
        <time>2019-02-03T15:50:31Z</time>
      </trkpt>
      <trkpt lat="46.26562" lon="6.46546">
        <ele>1043.65</ele>
        <time>2019-02-03T15:50:47Z</time>
      </trkpt>
      <trkpt lat="46.26565" lon="6.46548">
        <ele>1043.17</ele>
        <time>2019-02-03T15:50:58Z</time>
      </trkpt>
      <trkpt lat="46.26563" lon="6.46548">
        <ele>1042.69</ele>
        <time>2019-02-03T15:51:23Z</time>
      </trkpt>
      <trkpt lat="46.26563" lon="6.46548">
        <ele>1043.65</ele>
        <time>2019-02-03T15:51:28Z</time>
      </trkpt>
      <trkpt lat="46.26562" lon="6.46551">
        <ele>1043.65</ele>
        <time>2019-02-03T15:51:41Z</time>
      </trkpt>
      <trkpt lat="46.26563" lon="6.46549">
        <ele>1043.17</ele>
        <time>2019-02-03T15:52:00Z</time>
      </trkpt>
      <trkpt lat="46.26565" lon="6.4655">
        <ele>1043.65</ele>
        <time>2019-02-03T15:52:13Z</time>
      </trkpt>
      <trkpt lat="46.26566" lon="6.4655">
        <ele>1044.61</ele>
        <time>2019-02-03T15:52:24Z</time>
      </trkpt>
      <trkpt lat="46.26567" lon="6.46549">
        <ele>1044.13</ele>
        <time>2019-02-03T15:52:42Z</time>
      </trkpt>
      <trkpt lat="46.26566" lon="6.46547">
        <ele>1043.65</ele>
        <time>2019-02-03T15:52:49Z</time>
      </trkpt>
      <trkpt lat="46.26564" lon="6.46546">
        <ele>1044.13</ele>
        <time>2019-02-03T15:53:02Z</time>
      </trkpt>
      <trkpt lat="46.26564" lon="6.46545">
        <ele>1044.61</ele>
        <time>2019-02-03T15:53:17Z</time>
      </trkpt>
      <trkpt lat="46.26566" lon="6.46547">
        <ele>1044.13</ele>
        <time>2019-02-03T15:53:38Z</time>
      </trkpt>
      <trkpt lat="46.26562" lon="6.46547">
        <ele>1044.61</ele>
        <time>2019-02-03T15:53:49Z</time>
      </trkpt>
      <trkpt lat="46.26561" lon="6.4655">
        <ele>1044.13</ele>
        <time>2019-02-03T15:54:02Z</time>
      </trkpt>
      <trkpt lat="46.26561" lon="6.4655">
        <ele>1044.61</ele>
        <time>2019-02-03T15:54:33Z</time>
      </trkpt>
      <trkpt lat="46.26562" lon="6.4655">
        <ele>1044.13</ele>
        <time>2019-02-03T15:54:56Z</time>
      </trkpt>
      <trkpt lat="46.26565" lon="6.46549">
        <ele>1043.65</ele>
        <time>2019-02-03T15:58:50Z</time>
      </trkpt>
      <trkpt lat="46.26565" lon="6.46549">
        <ele>1045.09</ele>
        <time>2019-02-03T15:59:45Z</time>
      </trkpt>
      <trkpt lat="46.26565" lon="6.46548">
        <ele>1043.65</ele>
        <time>2019-02-03T16:09:51Z</time>
      </trkpt>
      <trkpt lat="46.26565" lon="6.46546">
        <ele>1044.13</ele>
        <time>2019-02-03T16:13:18Z</time>
      </trkpt>
      <trkpt lat="46.26566" lon="6.46548">
        <ele>1044.61</ele>
        <time>2019-02-03T16:18:01Z</time>
      </trkpt>
      <trkpt lat="46.26566" lon="6.46543">
        <ele>1044.13</ele>
        <time>2019-02-03T16:18:09Z</time>
      </trkpt>
      <trkpt lat="46.26564" lon="6.4654">
        <ele>1044.61</ele>
        <time>2019-02-03T16:18:19Z</time>
      </trkpt>
      <trkpt lat="46.26565" lon="6.4654">
        <ele>1045.09</ele>
        <time>2019-02-03T16:22:39Z</time>
      </trkpt>
      <trkpt lat="46.26566" lon="6.4654">
        <ele>1047.49</ele>
        <time>2019-02-03T16:22:49Z</time>
      </trkpt>
      <trkpt lat="46.26566" lon="6.46541">
        <ele>1044.13</ele>
        <time>2019-02-03T16:23:00Z</time>
      </trkpt>
      <trkpt lat="46.26566" lon="6.46542">
        <ele>1046.05</ele>
        <time>2019-02-03T16:23:23Z</time>
      </trkpt>
      <trkpt lat="46.26566" lon="6.46543">
        <ele>1045.57</ele>
        <time>2019-02-03T16:23:37Z</time>
      </trkpt>
      <trkpt lat="46.26565" lon="6.46541">
        <ele>1045.09</ele>
        <time>2019-02-03T16:23:46Z</time>
      </trkpt>
      <trkpt lat="46.26568" lon="6.46535">
        <ele>1046.05</ele>
        <time>2019-02-03T16:23:59Z</time>
      </trkpt>
      <trkpt lat="46.26568" lon="6.46537">
        <ele>1046.05</ele>
        <time>2019-02-03T16:24:12Z</time>
      </trkpt>
      <trkpt lat="46.26567" lon="6.46536">
        <ele>1046.05</ele>
        <time>2019-02-03T16:24:37Z</time>
      </trkpt>
      <trkpt lat="46.26567" lon="6.46532">
        <ele>1046.05</ele>
        <time>2019-02-03T16:25:03Z</time>
      </trkpt>
      <trkpt lat="46.26566" lon="6.46527">
        <ele>1045.57</ele>
        <time>2019-02-03T16:25:15Z</time>
      </trkpt>
      <trkpt lat="46.26566" lon="6.46524">
        <ele>1045.57</ele>
        <time>2019-02-03T16:25:17Z</time>
      </trkpt>
      <trkpt lat="46.26566" lon="6.46519">
        <ele>1045.57</ele>
        <time>2019-02-03T16:25:20Z</time>
      </trkpt>
      <trkpt lat="46.26568" lon="6.46514">
        <ele>1045.09</ele>
        <time>2019-02-03T16:25:23Z</time>
      </trkpt>
      <trkpt lat="46.26571" lon="6.46499">
        <ele>1046.05</ele>
        <time>2019-02-03T16:25:32Z</time>
      </trkpt>
      <trkpt lat="46.26571" lon="6.46496">
        <ele>1045.57</ele>
        <time>2019-02-03T16:25:34Z</time>
      </trkpt>
      <trkpt lat="46.26564" lon="6.46485">
        <ele>1045.57</ele>
        <time>2019-02-03T16:25:47Z</time>
      </trkpt>
      <trkpt lat="46.26566" lon="6.46484">
        <ele>1045.09</ele>
        <time>2019-02-03T16:26:05Z</time>
      </trkpt>
      <trkpt lat="46.26567" lon="6.4648">
        <ele>1045.57</ele>
        <time>2019-02-03T16:26:27Z</time>
      </trkpt>
      <trkpt lat="46.26567" lon="6.46478">
        <ele>1045.57</ele>
        <time>2019-02-03T16:26:44Z</time>
      </trkpt>
      <trkpt lat="46.26565" lon="6.46471">
        <ele>1045.57</ele>
        <time>2019-02-03T16:27:06Z</time>
      </trkpt>
    </trkseg>
  </trk>
  <trk>
    <name><![CDATA[20190212153829-wVrsA]]></name>
    <trkseg>
      <trkpt lat="46.19801" lon="6.46344">
        <ele>1180.16</ele>
        <time>2019-02-04T08:47:18Z</time>
      </trkpt>
      <trkpt lat="46.19802" lon="6.46341">
        <ele>1179.67</ele>
        <time>2019-02-04T08:47:28Z</time>
      </trkpt>
      <trkpt lat="46.19801" lon="6.46344">
        <ele>1182.56</ele>
        <time>2019-02-04T08:48:12Z</time>
      </trkpt>
      <trkpt lat="46.19802" lon="6.46351">
        <ele>1184.96</ele>
        <time>2019-02-04T08:49:27Z</time>
      </trkpt>
      <trkpt lat="46.19802" lon="6.46351">
        <ele>1185.92</ele>
        <time>2019-02-04T08:49:53Z</time>
      </trkpt>
      <trkpt lat="46.19802" lon="6.46353">
        <ele>1186.88</ele>
        <time>2019-02-04T08:50:17Z</time>
      </trkpt>
      <trkpt lat="46.19801" lon="6.46362">
        <ele>1186.88</ele>
        <time>2019-02-04T08:50:26Z</time>
      </trkpt>
      <trkpt lat="46.19799" lon="6.46367">
        <ele>1186.88</ele>
        <time>2019-02-04T08:50:30Z</time>
      </trkpt>
      <trkpt lat="46.19798" lon="6.4637">
        <ele>1186.88</ele>
        <time>2019-02-04T08:50:33Z</time>
      </trkpt>
      <trkpt lat="46.19795" lon="6.4638">
        <ele>1186.88</ele>
        <time>2019-02-04T08:50:43Z</time>
      </trkpt>
      <trkpt lat="46.19792" lon="6.46393">
        <ele>1186.88</ele>
        <time>2019-02-04T08:50:54Z</time>
      </trkpt>
      <trkpt lat="46.1979" lon="6.46405">
        <ele>1186.88</ele>
        <time>2019-02-04T08:51:02Z</time>
      </trkpt>
      <trkpt lat="46.19789" lon="6.46415">
        <ele>1187.85</ele>
        <time>2019-02-04T08:51:09Z</time>
      </trkpt>
      <trkpt lat="46.19785" lon="6.46435">
        <ele>1187.85</ele>
        <time>2019-02-04T08:51:24Z</time>
      </trkpt>
      <trkpt lat="46.19786" lon="6.46441">
        <ele>1188.33</ele>
        <time>2019-02-04T08:51:33Z</time>
      </trkpt>
      <trkpt lat="46.19792" lon="6.46446">
        <ele>1188.33</ele>
        <time>2019-02-04T08:51:39Z</time>
      </trkpt>
      <trkpt lat="46.198" lon="6.46446">
        <ele>1188.81</ele>
        <time>2019-02-04T08:51:53Z</time>
      </trkpt>
      <trkpt lat="46.19809" lon="6.46447">
        <ele>1188.33</ele>
        <time>2019-02-04T08:52:03Z</time>
      </trkpt>
      <trkpt lat="46.19811" lon="6.46447">
        <ele>1188.81</ele>
        <time>2019-02-04T08:52:05Z</time>
      </trkpt>
      <trkpt lat="46.1982" lon="6.46448">
        <ele>1188.81</ele>
        <time>2019-02-04T08:52:17Z</time>
      </trkpt>
      <trkpt lat="46.19831" lon="6.46455">
        <ele>1190.25</ele>
        <time>2019-02-04T08:52:29Z</time>
      </trkpt>
      <trkpt lat="46.19838" lon="6.46467">
        <ele>1191.21</ele>
        <time>2019-02-04T08:52:41Z</time>
      </trkpt>
      <trkpt lat="46.19841" lon="6.46471">
        <ele>1192.17</ele>
        <time>2019-02-04T08:52:46Z</time>
      </trkpt>
      <trkpt lat="46.19843" lon="6.46475">
        <ele>1192.65</ele>
        <time>2019-02-04T08:52:50Z</time>
      </trkpt>
      <trkpt lat="46.19844" lon="6.46479">
        <ele>1193.61</ele>
        <time>2019-02-04T08:52:54Z</time>
      </trkpt>
      <trkpt lat="46.19846" lon="6.46487">
        <ele>1195.54</ele>
        <time>2019-02-04T08:53:06Z</time>
      </trkpt>
      <trkpt lat="46.1985" lon="6.46497">
        <ele>1197.46</ele>
        <time>2019-02-04T08:53:18Z</time>
      </trkpt>
      <trkpt lat="46.19853" lon="6.46507">
        <ele>1199.86</ele>
        <time>2019-02-04T08:53:30Z</time>
      </trkpt>
      <trkpt lat="46.19858" lon="6.46514">
        <ele>1200.34</ele>
        <time>2019-02-04T08:53:42Z</time>
      </trkpt>
      <trkpt lat="46.1986" lon="6.46525">
        <ele>1200.82</ele>
        <time>2019-02-04T08:53:53Z</time>
      </trkpt>
      <trkpt lat="46.19859" lon="6.46528">
        <ele>1201.79</ele>
        <time>2019-02-04T08:53:57Z</time>
      </trkpt>
      <trkpt lat="46.19859" lon="6.46538">
        <ele>1202.75</ele>
        <time>2019-02-04T08:54:08Z</time>
      </trkpt>
      <trkpt lat="46.19858" lon="6.46546">
        <ele>1203.23</ele>
        <time>2019-02-04T08:54:23Z</time>
      </trkpt>
      <trkpt lat="46.19856" lon="6.46553">
        <ele>1205.15</ele>
        <time>2019-02-04T08:54:33Z</time>
      </trkpt>
      <trkpt lat="46.19856" lon="6.46562">
        <ele>1206.59</ele>
        <time>2019-02-04T08:54:45Z</time>
      </trkpt>
      <trkpt lat="46.19858" lon="6.46569">
        <ele>1208.51</ele>
        <time>2019-02-04T08:54:57Z</time>
      </trkpt>
      <trkpt lat="46.1986" lon="6.46578">
        <ele>1210.44</ele>
        <time>2019-02-04T08:55:08Z</time>
      </trkpt>
      <trkpt lat="46.19861" lon="6.46585">
        <ele>1211.4</ele>
        <time>2019-02-04T08:55:19Z</time>
      </trkpt>
      <trkpt lat="46.19864" lon="6.46594">
        <ele>1213.32</ele>
        <time>2019-02-04T08:55:32Z</time>
      </trkpt>
      <trkpt lat="46.19864" lon="6.46599">
        <ele>1215.24</ele>
        <time>2019-02-04T08:55:41Z</time>
      </trkpt>
      <trkpt lat="46.19864" lon="6.46604">
        <ele>1216.21</ele>
        <time>2019-02-04T08:55:53Z</time>
      </trkpt>
      <trkpt lat="46.19865" lon="6.4661">
        <ele>1218.13</ele>
        <time>2019-02-04T08:56:03Z</time>
      </trkpt>
      <trkpt lat="46.19866" lon="6.46617">
        <ele>1220.05</ele>
        <time>2019-02-04T08:56:12Z</time>
      </trkpt>
      <trkpt lat="46.19868" lon="6.46623">
        <ele>1221.01</ele>
        <time>2019-02-04T08:56:23Z</time>
      </trkpt>
      <trkpt lat="46.19871" lon="6.4663">
        <ele>1223.42</ele>
        <time>2019-02-04T08:56:34Z</time>
      </trkpt>
      <trkpt lat="46.19874" lon="6.46635">
        <ele>1224.86</ele>
        <time>2019-02-04T08:56:46Z</time>
      </trkpt>
      <trkpt lat="46.19875" lon="6.46641">
        <ele>1225.82</ele>
        <time>2019-02-04T08:56:56Z</time>
      </trkpt>
      <trkpt lat="46.19876" lon="6.46649">
        <ele>1227.26</ele>
        <time>2019-02-04T08:57:06Z</time>
      </trkpt>
      <trkpt lat="46.19876" lon="6.46651">
        <ele>1227.74</ele>
        <time>2019-02-04T08:57:08Z</time>
      </trkpt>
      <trkpt lat="46.19873" lon="6.46655">
        <ele>1228.22</ele>
        <time>2019-02-04T08:57:18Z</time>
      </trkpt>
      <trkpt lat="46.19873" lon="6.46655">
        <ele>1231.11</ele>
        <time>2019-02-04T08:59:07Z</time>
      </trkpt>
      <trkpt lat="46.19871" lon="6.46658">
        <ele>1231.59</ele>
        <time>2019-02-04T08:59:18Z</time>
      </trkpt>
      <trkpt lat="46.1987" lon="6.46659">
        <ele>1233.03</ele>
        <time>2019-02-04T09:00:13Z</time>
      </trkpt>
      <trkpt lat="46.1987" lon="6.46659">
        <ele>1234.47</ele>
        <time>2019-02-04T09:01:48Z</time>
      </trkpt>
      <trkpt lat="46.19867" lon="6.46661">
        <ele>1234.95</ele>
        <time>2019-02-04T09:02:42Z</time>
      </trkpt>
      <trkpt lat="46.19863" lon="6.46671">
        <ele>1235.91</ele>
        <time>2019-02-04T09:02:53Z</time>
      </trkpt>
      <trkpt lat="46.19862" lon="6.46672">
        <ele>1235.43</ele>
        <time>2019-02-04T09:03:09Z</time>
      </trkpt>
      <trkpt lat="46.19861" lon="6.46674">
        <ele>1236.39</ele>
        <time>2019-02-04T09:03:44Z</time>
      </trkpt>
      <trkpt lat="46.1986" lon="6.46681">
        <ele>1237.35</ele>
        <time>2019-02-04T09:04:44Z</time>
      </trkpt>
      <trkpt lat="46.19856" lon="6.46696">
        <ele>1236.87</ele>
        <time>2019-02-04T09:04:58Z</time>
      </trkpt>
      <trkpt lat="46.19854" lon="6.46704">
        <ele>1236.87</ele>
        <time>2019-02-04T09:05:08Z</time>
      </trkpt>
      <trkpt lat="46.19853" lon="6.46705">
        <ele>1236.39</ele>
        <time>2019-02-04T09:05:11Z</time>
      </trkpt>
      <trkpt lat="46.19847" lon="6.46715">
        <ele>1236.87</ele>
        <time>2019-02-04T09:05:24Z</time>
      </trkpt>
      <trkpt lat="46.19842" lon="6.46728">
        <ele>1235.43</ele>
        <time>2019-02-04T09:05:37Z</time>
      </trkpt>
      <trkpt lat="46.19841" lon="6.4673">
        <ele>1235.91</ele>
        <time>2019-02-04T09:05:39Z</time>
      </trkpt>
      <trkpt lat="46.19838" lon="6.46739">
        <ele>1234.47</ele>
        <time>2019-02-04T09:05:51Z</time>
      </trkpt>
      <trkpt lat="46.19835" lon="6.46747">
        <ele>1233.99</ele>
        <time>2019-02-04T09:06:01Z</time>
      </trkpt>
      <trkpt lat="46.19833" lon="6.46752">
        <ele>1233.51</ele>
        <time>2019-02-04T09:06:06Z</time>
      </trkpt>
      <trkpt lat="46.19829" lon="6.46761">
        <ele>1232.55</ele>
        <time>2019-02-04T09:06:18Z</time>
      </trkpt>
      <trkpt lat="46.19826" lon="6.4677">
        <ele>1232.55</ele>
        <time>2019-02-04T09:06:28Z</time>
      </trkpt>
      <trkpt lat="46.19826" lon="6.46773">
        <ele>1232.07</ele>
        <time>2019-02-04T09:06:31Z</time>
      </trkpt>
      <trkpt lat="46.19824" lon="6.46783">
        <ele>1231.11</ele>
        <time>2019-02-04T09:06:43Z</time>
      </trkpt>
      <trkpt lat="46.19823" lon="6.46787">
        <ele>1231.11</ele>
        <time>2019-02-04T09:06:46Z</time>
      </trkpt>
      <trkpt lat="46.1982" lon="6.46795">
        <ele>1230.62</ele>
        <time>2019-02-04T09:06:56Z</time>
      </trkpt>
      <trkpt lat="46.19818" lon="6.46807">
        <ele>1230.14</ele>
        <time>2019-02-04T09:07:09Z</time>
      </trkpt>
      <trkpt lat="46.19816" lon="6.46813">
        <ele>1229.18</ele>
        <time>2019-02-04T09:07:23Z</time>
      </trkpt>
      <trkpt lat="46.19816" lon="6.46814">
        <ele>1229.18</ele>
        <time>2019-02-04T09:07:34Z</time>
      </trkpt>
      <trkpt lat="46.19812" lon="6.46826">
        <ele>1227.74</ele>
        <time>2019-02-04T09:07:46Z</time>
      </trkpt>
      <trkpt lat="46.1981" lon="6.46836">
        <ele>1226.3</ele>
        <time>2019-02-04T09:07:57Z</time>
      </trkpt>
      <trkpt lat="46.19808" lon="6.46844">
        <ele>1225.34</ele>
        <time>2019-02-04T09:08:09Z</time>
      </trkpt>
      <trkpt lat="46.19807" lon="6.46851">
        <ele>1223.9</ele>
        <time>2019-02-04T09:08:22Z</time>
      </trkpt>
      <trkpt lat="46.19804" lon="6.46858">
        <ele>1222.93</ele>
        <time>2019-02-04T09:08:33Z</time>
      </trkpt>
      <trkpt lat="46.19802" lon="6.46863">
        <ele>1221.01</ele>
        <time>2019-02-04T09:08:46Z</time>
      </trkpt>
      <trkpt lat="46.19801" lon="6.46868">
        <ele>1220.05</ele>
        <time>2019-02-04T09:08:55Z</time>
      </trkpt>
      <trkpt lat="46.19798" lon="6.46873">
        <ele>1216.69</ele>
        <time>2019-02-04T09:09:05Z</time>
      </trkpt>
      <trkpt lat="46.19797" lon="6.46873">
        <ele>1217.17</ele>
        <time>2019-02-04T09:09:06Z</time>
      </trkpt>
      <trkpt lat="46.19789" lon="6.46886">
        <ele>1216.21</ele>
        <time>2019-02-04T09:09:19Z</time>
      </trkpt>
      <trkpt lat="46.19786" lon="6.46893">
        <ele>1216.69</ele>
        <time>2019-02-04T09:09:26Z</time>
      </trkpt>
      <trkpt lat="46.19785" lon="6.46906">
        <ele>1218.13</ele>
        <time>2019-02-04T09:09:37Z</time>
      </trkpt>
      <trkpt lat="46.19781" lon="6.46914">
        <ele>1218.13</ele>
        <time>2019-02-04T09:09:45Z</time>
      </trkpt>
      <trkpt lat="46.19781" lon="6.46916">
        <ele>1218.13</ele>
        <time>2019-02-04T09:09:47Z</time>
      </trkpt>
      <trkpt lat="46.19778" lon="6.46928">
        <ele>1219.57</ele>
        <time>2019-02-04T09:10:01Z</time>
      </trkpt>
      <trkpt lat="46.19775" lon="6.46934">
        <ele>1220.05</ele>
        <time>2019-02-04T09:10:11Z</time>
      </trkpt>
      <trkpt lat="46.19774" lon="6.46942">
        <ele>1221.49</ele>
        <time>2019-02-04T09:10:21Z</time>
      </trkpt>
      <trkpt lat="46.19775" lon="6.46951">
        <ele>1221.97</ele>
        <time>2019-02-04T09:10:33Z</time>
      </trkpt>
      <trkpt lat="46.19774" lon="6.46958">
        <ele>1222.93</ele>
        <time>2019-02-04T09:10:42Z</time>
      </trkpt>
      <trkpt lat="46.19766" lon="6.46961">
        <ele>1223.9</ele>
        <time>2019-02-04T09:10:55Z</time>
      </trkpt>
      <trkpt lat="46.1976" lon="6.46964">
        <ele>1224.38</ele>
        <time>2019-02-04T09:11:05Z</time>
      </trkpt>
      <trkpt lat="46.19752" lon="6.46966">
        <ele>1225.34</ele>
        <time>2019-02-04T09:11:15Z</time>
      </trkpt>
      <trkpt lat="46.19745" lon="6.46967">
        <ele>1225.82</ele>
        <time>2019-02-04T09:11:26Z</time>
      </trkpt>
      <trkpt lat="46.19737" lon="6.46969">
        <ele>1227.26</ele>
        <time>2019-02-04T09:11:38Z</time>
      </trkpt>
      <trkpt lat="46.1973" lon="6.46972">
        <ele>1229.66</ele>
        <time>2019-02-04T09:11:49Z</time>
      </trkpt>
      <trkpt lat="46.19723" lon="6.46972">
        <ele>1228.7</ele>
        <time>2019-02-04T09:12:01Z</time>
      </trkpt>
      <trkpt lat="46.19716" lon="6.46975">
        <ele>1230.14</ele>
        <time>2019-02-04T09:12:12Z</time>
      </trkpt>
      <trkpt lat="46.19715" lon="6.46976">
        <ele>1230.14</ele>
        <time>2019-02-04T09:12:14Z</time>
      </trkpt>
      <trkpt lat="46.19707" lon="6.46979">
        <ele>1232.07</ele>
        <time>2019-02-04T09:12:26Z</time>
      </trkpt>
      <trkpt lat="46.197" lon="6.46981">
        <ele>1233.03</ele>
        <time>2019-02-04T09:12:38Z</time>
      </trkpt>
      <trkpt lat="46.19692" lon="6.46983">
        <ele>1234.47</ele>
        <time>2019-02-04T09:12:50Z</time>
      </trkpt>
      <trkpt lat="46.19686" lon="6.46986">
        <ele>1235.43</ele>
        <time>2019-02-04T09:13:01Z</time>
      </trkpt>
      <trkpt lat="46.19679" lon="6.4699">
        <ele>1236.39</ele>
        <time>2019-02-04T09:13:13Z</time>
      </trkpt>
      <trkpt lat="46.19673" lon="6.46996">
        <ele>1236.39</ele>
        <time>2019-02-04T09:13:25Z</time>
      </trkpt>
      <trkpt lat="46.19673" lon="6.46997">
        <ele>1237.35</ele>
        <time>2019-02-04T09:13:26Z</time>
      </trkpt>
      <trkpt lat="46.19667" lon="6.47003">
        <ele>1237.83</ele>
        <time>2019-02-04T09:13:37Z</time>
      </trkpt>
      <trkpt lat="46.19663" lon="6.4701">
        <ele>1237.83</ele>
        <time>2019-02-04T09:13:47Z</time>
      </trkpt>
      <trkpt lat="46.1966" lon="6.47018">
        <ele>1238.32</ele>
        <time>2019-02-04T09:13:57Z</time>
      </trkpt>
      <trkpt lat="46.19657" lon="6.47023">
        <ele>1239.28</ele>
        <time>2019-02-04T09:14:07Z</time>
      </trkpt>
      <trkpt lat="46.19653" lon="6.47031">
        <ele>1239.76</ele>
        <time>2019-02-04T09:14:17Z</time>
      </trkpt>
      <trkpt lat="46.19649" lon="6.4704">
        <ele>1239.76</ele>
        <time>2019-02-04T09:14:29Z</time>
      </trkpt>
      <trkpt lat="46.19642" lon="6.47048">
        <ele>1241.2</ele>
        <time>2019-02-04T09:14:40Z</time>
      </trkpt>
      <trkpt lat="46.19638" lon="6.47056">
        <ele>1241.68</ele>
        <time>2019-02-04T09:14:50Z</time>
      </trkpt>
      <trkpt lat="46.1963" lon="6.47064">
        <ele>1243.12</ele>
        <time>2019-02-04T09:15:02Z</time>
      </trkpt>
      <trkpt lat="46.19624" lon="6.4707">
        <ele>1243.6</ele>
        <time>2019-02-04T09:15:10Z</time>
      </trkpt>
      <trkpt lat="46.19623" lon="6.47072">
        <ele>1243.6</ele>
        <time>2019-02-04T09:15:12Z</time>
      </trkpt>
      <trkpt lat="46.19616" lon="6.47079">
        <ele>1244.08</ele>
        <time>2019-02-04T09:15:24Z</time>
      </trkpt>
      <trkpt lat="46.19614" lon="6.4708">
        <ele>1245.04</ele>
        <time>2019-02-04T09:15:27Z</time>
      </trkpt>
      <trkpt lat="46.19605" lon="6.47089">
        <ele>1244.56</ele>
        <time>2019-02-04T09:15:40Z</time>
      </trkpt>
      <trkpt lat="46.19598" lon="6.47099">
        <ele>1245.53</ele>
        <time>2019-02-04T09:15:51Z</time>
      </trkpt>
      <trkpt lat="46.19597" lon="6.47103">
        <ele>1245.04</ele>
        <time>2019-02-04T09:15:56Z</time>
      </trkpt>
      <trkpt lat="46.19597" lon="6.47117">
        <ele>1244.56</ele>
        <time>2019-02-04T09:16:08Z</time>
      </trkpt>
      <trkpt lat="46.19597" lon="6.47125">
        <ele>1245.53</ele>
        <time>2019-02-04T09:16:21Z</time>
      </trkpt>
      <trkpt lat="46.19597" lon="6.47129">
        <ele>1246.49</ele>
        <time>2019-02-04T09:16:39Z</time>
      </trkpt>
      <trkpt lat="46.19598" lon="6.47129">
        <ele>1246.97</ele>
        <time>2019-02-04T09:17:08Z</time>
      </trkpt>
      <trkpt lat="46.19597" lon="6.4713">
        <ele>1246.97</ele>
        <time>2019-02-04T09:18:21Z</time>
      </trkpt>
      <trkpt lat="46.19596" lon="6.47129">
        <ele>1247.93</ele>
        <time>2019-02-04T09:18:33Z</time>
      </trkpt>
      <trkpt lat="46.19596" lon="6.4713">
        <ele>1247.93</ele>
        <time>2019-02-04T09:18:56Z</time>
      </trkpt>
      <trkpt lat="46.19597" lon="6.47135">
        <ele>1247.93</ele>
        <time>2019-02-04T09:19:11Z</time>
      </trkpt>
      <trkpt lat="46.19596" lon="6.47135">
        <ele>1248.41</ele>
        <time>2019-02-04T09:19:39Z</time>
      </trkpt>
      <trkpt lat="46.19597" lon="6.47135">
        <ele>1248.89</ele>
        <time>2019-02-04T09:20:17Z</time>
      </trkpt>
      <trkpt lat="46.19597" lon="6.47135">
        <ele>1249.85</ele>
        <time>2019-02-04T09:20:55Z</time>
      </trkpt>
      <trkpt lat="46.19597" lon="6.47136">
        <ele>1249.85</ele>
        <time>2019-02-04T09:21:59Z</time>
      </trkpt>
      <trkpt lat="46.19597" lon="6.47135">
        <ele>1251.29</ele>
        <time>2019-02-04T09:23:19Z</time>
      </trkpt>
      <trkpt lat="46.19597" lon="6.4714">
        <ele>1251.77</ele>
        <time>2019-02-04T09:24:45Z</time>
      </trkpt>
      <trkpt lat="46.19598" lon="6.47143">
        <ele>1252.25</ele>
        <time>2019-02-04T09:24:48Z</time>
      </trkpt>
      <trkpt lat="46.19597" lon="6.47151">
        <ele>1252.74</ele>
        <time>2019-02-04T09:24:55Z</time>
      </trkpt>
      <trkpt lat="46.19599" lon="6.47166">
        <ele>1253.22</ele>
        <time>2019-02-04T09:25:08Z</time>
      </trkpt>
      <trkpt lat="46.19599" lon="6.47177">
        <ele>1253.7</ele>
        <time>2019-02-04T09:25:18Z</time>
      </trkpt>
      <trkpt lat="46.19605" lon="6.47194">
        <ele>1254.66</ele>
        <time>2019-02-04T09:25:31Z</time>
      </trkpt>
      <trkpt lat="46.19609" lon="6.47212">
        <ele>1254.66</ele>
        <time>2019-02-04T09:25:45Z</time>
      </trkpt>
      <trkpt lat="46.1961" lon="6.47217">
        <ele>1255.14</ele>
        <time>2019-02-04T09:25:49Z</time>
      </trkpt>
      <trkpt lat="46.19614" lon="6.47234">
        <ele>1256.1</ele>
        <time>2019-02-04T09:26:03Z</time>
      </trkpt>
      <trkpt lat="46.19616" lon="6.47239">
        <ele>1256.1</ele>
        <time>2019-02-04T09:26:08Z</time>
      </trkpt>
      <trkpt lat="46.19619" lon="6.47254">
        <ele>1257.06</ele>
        <time>2019-02-04T09:26:22Z</time>
      </trkpt>
      <trkpt lat="46.19622" lon="6.47264">
        <ele>1258.02</ele>
        <time>2019-02-04T09:26:32Z</time>
      </trkpt>
      <trkpt lat="46.19625" lon="6.47276">
        <ele>1258.5</ele>
        <time>2019-02-04T09:26:43Z</time>
      </trkpt>
      <trkpt lat="46.19628" lon="6.47287">
        <ele>1258.98</ele>
        <time>2019-02-04T09:26:54Z</time>
      </trkpt>
      <trkpt lat="46.1963" lon="6.47299">
        <ele>1260.43</ele>
        <time>2019-02-04T09:27:05Z</time>
      </trkpt>
      <trkpt lat="46.19635" lon="6.4731">
        <ele>1261.87</ele>
        <time>2019-02-04T09:27:17Z</time>
      </trkpt>
      <trkpt lat="46.19642" lon="6.47323">
        <ele>1261.87</ele>
        <time>2019-02-04T09:27:29Z</time>
      </trkpt>
      <trkpt lat="46.19646" lon="6.47343">
        <ele>1262.83</ele>
        <time>2019-02-04T09:27:44Z</time>
      </trkpt>
      <trkpt lat="46.19647" lon="6.47352">
        <ele>1263.31</ele>
        <time>2019-02-04T09:27:51Z</time>
      </trkpt>
      <trkpt lat="46.19649" lon="6.47368">
        <ele>1264.27</ele>
        <time>2019-02-04T09:28:03Z</time>
      </trkpt>
      <trkpt lat="46.19649" lon="6.47372">
        <ele>1264.75</ele>
        <time>2019-02-04T09:28:21Z</time>
      </trkpt>
      <trkpt lat="46.19649" lon="6.47371">
        <ele>1264.75</ele>
        <time>2019-02-04T09:29:46Z</time>
      </trkpt>
      <trkpt lat="46.19651" lon="6.47381">
        <ele>1265.23</ele>
        <time>2019-02-04T09:30:04Z</time>
      </trkpt>
      <trkpt lat="46.19652" lon="6.47385">
        <ele>1265.71</ele>
        <time>2019-02-04T09:30:09Z</time>
      </trkpt>
      <trkpt lat="46.19652" lon="6.47398">
        <ele>1266.67</ele>
        <time>2019-02-04T09:30:21Z</time>
      </trkpt>
      <trkpt lat="46.19651" lon="6.4741">
        <ele>1267.64</ele>
        <time>2019-02-04T09:30:32Z</time>
      </trkpt>
      <trkpt lat="46.19651" lon="6.47416">
        <ele>1267.64</ele>
        <time>2019-02-04T09:30:37Z</time>
      </trkpt>
      <trkpt lat="46.19648" lon="6.47429">
        <ele>1268.6</ele>
        <time>2019-02-04T09:30:48Z</time>
      </trkpt>
      <trkpt lat="46.19647" lon="6.47439">
        <ele>1270.52</ele>
        <time>2019-02-04T09:30:59Z</time>
      </trkpt>
      <trkpt lat="46.19645" lon="6.47449">
        <ele>1271.48</ele>
        <time>2019-02-04T09:31:12Z</time>
      </trkpt>
      <trkpt lat="46.19644" lon="6.47459">
        <ele>1272.92</ele>
        <time>2019-02-04T09:31:24Z</time>
      </trkpt>
      <trkpt lat="46.19642" lon="6.47472">
        <ele>1274.85</ele>
        <time>2019-02-04T09:31:36Z</time>
      </trkpt>
      <trkpt lat="46.19641" lon="6.47478">
        <ele>1275.81</ele>
        <time>2019-02-04T09:31:50Z</time>
      </trkpt>
      <trkpt lat="46.19641" lon="6.47484">
        <ele>1277.25</ele>
        <time>2019-02-04T09:32:02Z</time>
      </trkpt>
      <trkpt lat="46.19641" lon="6.47493">
        <ele>1278.21</ele>
        <time>2019-02-04T09:32:09Z</time>
      </trkpt>
      <trkpt lat="46.19642" lon="6.4751">
        <ele>1279.17</ele>
        <time>2019-02-04T09:32:23Z</time>
      </trkpt>
      <trkpt lat="46.19642" lon="6.47512">
        <ele>1279.17</ele>
        <time>2019-02-04T09:32:28Z</time>
      </trkpt>
      <trkpt lat="46.19643" lon="6.47519">
        <ele>1280.13</ele>
        <time>2019-02-04T09:32:34Z</time>
      </trkpt>
      <trkpt lat="46.19645" lon="6.47528">
        <ele>1279.65</ele>
        <time>2019-02-04T09:32:44Z</time>
      </trkpt>
      <trkpt lat="46.19648" lon="6.47542">
        <ele>1280.13</ele>
        <time>2019-02-04T09:32:57Z</time>
      </trkpt>
      <trkpt lat="46.19649" lon="6.47544">
        <ele>1280.61</ele>
        <time>2019-02-04T09:32:59Z</time>
      </trkpt>
      <trkpt lat="46.1965" lon="6.47553">
        <ele>1280.61</ele>
        <time>2019-02-04T09:33:07Z</time>
      </trkpt>
      <trkpt lat="46.19653" lon="6.47565">
        <ele>1281.09</ele>
        <time>2019-02-04T09:33:19Z</time>
      </trkpt>
      <trkpt lat="46.19655" lon="6.47569">
        <ele>1281.09</ele>
        <time>2019-02-04T09:33:25Z</time>
      </trkpt>
      <trkpt lat="46.19659" lon="6.47578">
        <ele>1281.57</ele>
        <time>2019-02-04T09:33:38Z</time>
      </trkpt>
      <trkpt lat="46.19663" lon="6.47587">
        <ele>1282.06</ele>
        <time>2019-02-04T09:33:50Z</time>
      </trkpt>
      <trkpt lat="46.19666" lon="6.47593">
        <ele>1282.54</ele>
        <time>2019-02-04T09:34:00Z</time>
      </trkpt>
      <trkpt lat="46.19673" lon="6.47604">
        <ele>1283.02</ele>
        <time>2019-02-04T09:34:12Z</time>
      </trkpt>
      <trkpt lat="46.19679" lon="6.47616">
        <ele>1283.98</ele>
        <time>2019-02-04T09:34:24Z</time>
      </trkpt>
      <trkpt lat="46.19684" lon="6.47624">
        <ele>1284.46</ele>
        <time>2019-02-04T09:34:35Z</time>
      </trkpt>
      <trkpt lat="46.19686" lon="6.47633">
        <ele>1284.46</ele>
        <time>2019-02-04T09:34:46Z</time>
      </trkpt>
      <trkpt lat="46.1969" lon="6.47643">
        <ele>1285.42</ele>
        <time>2019-02-04T09:35:00Z</time>
      </trkpt>
      <trkpt lat="46.19692" lon="6.47652">
        <ele>1285.9</ele>
        <time>2019-02-04T09:35:12Z</time>
      </trkpt>
      <trkpt lat="46.19694" lon="6.47662">
        <ele>1286.38</ele>
        <time>2019-02-04T09:35:24Z</time>
      </trkpt>
      <trkpt lat="46.19697" lon="6.47668">
        <ele>1286.86</ele>
        <time>2019-02-04T09:35:38Z</time>
      </trkpt>
      <trkpt lat="46.19698" lon="6.47674">
        <ele>1287.82</ele>
        <time>2019-02-04T09:35:50Z</time>
      </trkpt>
      <trkpt lat="46.19701" lon="6.47682">
        <ele>1288.78</ele>
        <time>2019-02-04T09:36:03Z</time>
      </trkpt>
      <trkpt lat="46.19705" lon="6.4769">
        <ele>1289.75</ele>
        <time>2019-02-04T09:36:15Z</time>
      </trkpt>
      <trkpt lat="46.19707" lon="6.47693">
        <ele>1289.75</ele>
        <time>2019-02-04T09:36:27Z</time>
      </trkpt>
      <trkpt lat="46.1971" lon="6.47698">
        <ele>1290.23</ele>
        <time>2019-02-04T09:36:36Z</time>
      </trkpt>
      <trkpt lat="46.19713" lon="6.47706">
        <ele>1290.71</ele>
        <time>2019-02-04T09:36:46Z</time>
      </trkpt>
      <trkpt lat="46.19717" lon="6.47716">
        <ele>1291.67</ele>
        <time>2019-02-04T09:36:57Z</time>
      </trkpt>
      <trkpt lat="46.19721" lon="6.47725">
        <ele>1291.67</ele>
        <time>2019-02-04T09:37:10Z</time>
      </trkpt>
      <trkpt lat="46.19722" lon="6.47725">
        <ele>1292.15</ele>
        <time>2019-02-04T09:38:26Z</time>
      </trkpt>
      <trkpt lat="46.19722" lon="6.47726">
        <ele>1292.63</ele>
        <time>2019-02-04T09:40:26Z</time>
      </trkpt>
      <trkpt lat="46.19723" lon="6.47728">
        <ele>1293.11</ele>
        <time>2019-02-04T09:43:07Z</time>
      </trkpt>
      <trkpt lat="46.19729" lon="6.47732">
        <ele>1293.11</ele>
        <time>2019-02-04T09:43:17Z</time>
      </trkpt>
      <trkpt lat="46.19735" lon="6.47739">
        <ele>1293.11</ele>
        <time>2019-02-04T09:43:29Z</time>
      </trkpt>
      <trkpt lat="46.19741" lon="6.47744">
        <ele>1293.11</ele>
        <time>2019-02-04T09:43:39Z</time>
      </trkpt>
      <trkpt lat="46.19748" lon="6.47747">
        <ele>1294.55</ele>
        <time>2019-02-04T09:43:49Z</time>
      </trkpt>
      <trkpt lat="46.19753" lon="6.4775">
        <ele>1295.03</ele>
        <time>2019-02-04T09:43:56Z</time>
      </trkpt>
      <trkpt lat="46.19756" lon="6.47754">
        <ele>1295.51</ele>
        <time>2019-02-04T09:44:07Z</time>
      </trkpt>
      <trkpt lat="46.19761" lon="6.47761">
        <ele>1295.51</ele>
        <time>2019-02-04T09:44:17Z</time>
      </trkpt>
      <trkpt lat="46.19765" lon="6.47763">
        <ele>1295.03</ele>
        <time>2019-02-04T09:44:22Z</time>
      </trkpt>
      <trkpt lat="46.19766" lon="6.47765">
        <ele>1296.96</ele>
        <time>2019-02-04T09:44:25Z</time>
      </trkpt>
      <trkpt lat="46.19774" lon="6.47774">
        <ele>1296.48</ele>
        <time>2019-02-04T09:44:38Z</time>
      </trkpt>
      <trkpt lat="46.19776" lon="6.47776">
        <ele>1295.03</ele>
        <time>2019-02-04T09:44:41Z</time>
      </trkpt>
      <trkpt lat="46.19778" lon="6.47778">
        <ele>1295.99</ele>
        <time>2019-02-04T09:44:43Z</time>
      </trkpt>
      <trkpt lat="46.19779" lon="6.47779">
        <ele>1295.51</ele>
        <time>2019-02-04T09:44:45Z</time>
      </trkpt>
      <trkpt lat="46.19787" lon="6.47788">
        <ele>1295.03</ele>
        <time>2019-02-04T09:44:57Z</time>
      </trkpt>
      <trkpt lat="46.19796" lon="6.47796">
        <ele>1293.59</ele>
        <time>2019-02-04T09:45:10Z</time>
      </trkpt>
      <trkpt lat="46.19804" lon="6.47804">
        <ele>1292.63</ele>
        <time>2019-02-04T09:45:21Z</time>
      </trkpt>
      <trkpt lat="46.19811" lon="6.47812">
        <ele>1292.15</ele>
        <time>2019-02-04T09:45:33Z</time>
      </trkpt>
      <trkpt lat="46.19815" lon="6.47815">
        <ele>1292.15</ele>
        <time>2019-02-04T09:45:39Z</time>
      </trkpt>
      <trkpt lat="46.19821" lon="6.47821">
        <ele>1292.15</ele>
        <time>2019-02-04T09:45:48Z</time>
      </trkpt>
      <trkpt lat="46.19824" lon="6.47823">
        <ele>1292.63</ele>
        <time>2019-02-04T09:45:52Z</time>
      </trkpt>
      <trkpt lat="46.19826" lon="6.47826">
        <ele>1292.63</ele>
        <time>2019-02-04T09:45:58Z</time>
      </trkpt>
      <trkpt lat="46.19833" lon="6.47833">
        <ele>1292.15</ele>
        <time>2019-02-04T09:46:10Z</time>
      </trkpt>
      <trkpt lat="46.1984" lon="6.4784">
        <ele>1292.15</ele>
        <time>2019-02-04T09:46:21Z</time>
      </trkpt>
      <trkpt lat="46.19845" lon="6.47845">
        <ele>1291.67</ele>
        <time>2019-02-04T09:46:34Z</time>
      </trkpt>
      <trkpt lat="46.19846" lon="6.47846">
        <ele>1291.67</ele>
        <time>2019-02-04T09:46:35Z</time>
      </trkpt>
      <trkpt lat="46.19849" lon="6.47848">
        <ele>1291.67</ele>
        <time>2019-02-04T09:46:39Z</time>
      </trkpt>
      <trkpt lat="46.19853" lon="6.47853">
        <ele>1292.15</ele>
        <time>2019-02-04T09:46:52Z</time>
      </trkpt>
      <trkpt lat="46.19857" lon="6.47858">
        <ele>1291.67</ele>
        <time>2019-02-04T09:47:03Z</time>
      </trkpt>
      <trkpt lat="46.19862" lon="6.4786">
        <ele>1292.15</ele>
        <time>2019-02-04T09:47:11Z</time>
      </trkpt>
      <trkpt lat="46.19867" lon="6.47869">
        <ele>1292.63</ele>
        <time>2019-02-04T09:47:23Z</time>
      </trkpt>
      <trkpt lat="46.19873" lon="6.47881">
        <ele>1292.63</ele>
        <time>2019-02-04T09:47:36Z</time>
      </trkpt>
      <trkpt lat="46.19876" lon="6.47886">
        <ele>1292.15</ele>
        <time>2019-02-04T09:47:54Z</time>
      </trkpt>
      <trkpt lat="46.19882" lon="6.47886">
        <ele>1292.15</ele>
        <time>2019-02-04T09:48:05Z</time>
      </trkpt>
      <trkpt lat="46.19883" lon="6.47885">
        <ele>1293.11</ele>
        <time>2019-02-04T09:48:07Z</time>
      </trkpt>
      <trkpt lat="46.1989" lon="6.4788">
        <ele>1294.07</ele>
        <time>2019-02-04T09:48:20Z</time>
      </trkpt>
      <trkpt lat="46.19894" lon="6.47876">
        <ele>1293.59</ele>
        <time>2019-02-04T09:48:32Z</time>
      </trkpt>
      <trkpt lat="46.19899" lon="6.47869">
        <ele>1295.03</ele>
        <time>2019-02-04T09:48:44Z</time>
      </trkpt>
      <trkpt lat="46.19902" lon="6.47865">
        <ele>1295.51</ele>
        <time>2019-02-04T09:48:56Z</time>
      </trkpt>
      <trkpt lat="46.19906" lon="6.47862">
        <ele>1296.48</ele>
        <time>2019-02-04T09:49:10Z</time>
      </trkpt>
      <trkpt lat="46.1991" lon="6.47859">
        <ele>1296.96</ele>
        <time>2019-02-04T09:49:21Z</time>
      </trkpt>
      <trkpt lat="46.19915" lon="6.47859">
        <ele>1297.92</ele>
        <time>2019-02-04T09:49:34Z</time>
      </trkpt>
      <trkpt lat="46.19919" lon="6.47857">
        <ele>1299.36</ele>
        <time>2019-02-04T09:49:46Z</time>
      </trkpt>
      <trkpt lat="46.19923" lon="6.47854">
        <ele>1299.36</ele>
        <time>2019-02-04T09:49:56Z</time>
      </trkpt>
      <trkpt lat="46.19927" lon="6.47848">
        <ele>1300.32</ele>
        <time>2019-02-04T09:50:08Z</time>
      </trkpt>
      <trkpt lat="46.19931" lon="6.47841">
        <ele>1301.28</ele>
        <time>2019-02-04T09:50:20Z</time>
      </trkpt>
      <trkpt lat="46.19933" lon="6.47838">
        <ele>1301.76</ele>
        <time>2019-02-04T09:50:31Z</time>
      </trkpt>
      <trkpt lat="46.19936" lon="6.47828">
        <ele>1301.28</ele>
        <time>2019-02-04T09:50:43Z</time>
      </trkpt>
      <trkpt lat="46.19938" lon="6.47822">
        <ele>1302.24</ele>
        <time>2019-02-04T09:50:53Z</time>
      </trkpt>
      <trkpt lat="46.1994" lon="6.47816">
        <ele>1302.72</ele>
        <time>2019-02-04T09:51:05Z</time>
      </trkpt>
      <trkpt lat="46.19943" lon="6.47807">
        <ele>1302.72</ele>
        <time>2019-02-04T09:51:16Z</time>
      </trkpt>
      <trkpt lat="46.19944" lon="6.47797">
        <ele>1303.2</ele>
        <time>2019-02-04T09:51:29Z</time>
      </trkpt>
      <trkpt lat="46.19946" lon="6.4779">
        <ele>1304.17</ele>
        <time>2019-02-04T09:51:39Z</time>
      </trkpt>
      <trkpt lat="46.19949" lon="6.47783">
        <ele>1304.17</ele>
        <time>2019-02-04T09:51:49Z</time>
      </trkpt>
      <trkpt lat="46.19952" lon="6.47775">
        <ele>1304.65</ele>
        <time>2019-02-04T09:52:01Z</time>
      </trkpt>
      <trkpt lat="46.19953" lon="6.47773">
        <ele>1305.13</ele>
        <time>2019-02-04T09:52:17Z</time>
      </trkpt>
      <trkpt lat="46.19953" lon="6.47772">
        <ele>1305.13</ele>
        <time>2019-02-04T09:52:47Z</time>
      </trkpt>
      <trkpt lat="46.19953" lon="6.47772">
        <ele>1305.13</ele>
        <time>2019-02-04T09:54:03Z</time>
      </trkpt>
      <trkpt lat="46.19953" lon="6.47771">
        <ele>1305.61</ele>
        <time>2019-02-04T09:55:04Z</time>
      </trkpt>
      <trkpt lat="46.19953" lon="6.47771">
        <ele>1305.61</ele>
        <time>2019-02-04T09:55:36Z</time>
      </trkpt>
      <trkpt lat="46.19956" lon="6.47765">
        <ele>1306.57</ele>
        <time>2019-02-04T09:56:17Z</time>
      </trkpt>
      <trkpt lat="46.19959" lon="6.47761">
        <ele>1306.57</ele>
        <time>2019-02-04T09:56:28Z</time>
      </trkpt>
      <trkpt lat="46.19963" lon="6.47757">
        <ele>1308.49</ele>
        <time>2019-02-04T09:56:42Z</time>
      </trkpt>
      <trkpt lat="46.19967" lon="6.47754">
        <ele>1308.49</ele>
        <time>2019-02-04T09:56:47Z</time>
      </trkpt>
      <trkpt lat="46.19973" lon="6.4775">
        <ele>1308.97</ele>
        <time>2019-02-04T09:56:59Z</time>
      </trkpt>
      <trkpt lat="46.19977" lon="6.47747">
        <ele>1309.93</ele>
        <time>2019-02-04T09:57:11Z</time>
      </trkpt>
      <trkpt lat="46.1998" lon="6.47745">
        <ele>1310.41</ele>
        <time>2019-02-04T09:57:22Z</time>
      </trkpt>
      <trkpt lat="46.19984" lon="6.47744">
        <ele>1311.38</ele>
        <time>2019-02-04T09:57:31Z</time>
      </trkpt>
      <trkpt lat="46.19987" lon="6.47739">
        <ele>1311.86</ele>
        <time>2019-02-04T09:57:43Z</time>
      </trkpt>
      <trkpt lat="46.19988" lon="6.47737">
        <ele>1313.3</ele>
        <time>2019-02-04T09:57:56Z</time>
      </trkpt>
      <trkpt lat="46.19996" lon="6.47736">
        <ele>1314.26</ele>
        <time>2019-02-04T09:58:10Z</time>
      </trkpt>
      <trkpt lat="46.20001" lon="6.47732">
        <ele>1314.74</ele>
        <time>2019-02-04T09:58:20Z</time>
      </trkpt>
      <trkpt lat="46.20008" lon="6.47731">
        <ele>1315.22</ele>
        <time>2019-02-04T09:58:32Z</time>
      </trkpt>
      <trkpt lat="46.20012" lon="6.47728">
        <ele>1315.7</ele>
        <time>2019-02-04T09:58:44Z</time>
      </trkpt>
      <trkpt lat="46.20015" lon="6.47725">
        <ele>1316.66</ele>
        <time>2019-02-04T09:58:58Z</time>
      </trkpt>
      <trkpt lat="46.20019" lon="6.47723">
        <ele>1317.14</ele>
        <time>2019-02-04T09:59:08Z</time>
      </trkpt>
      <trkpt lat="46.20021" lon="6.47719">
        <ele>1317.62</ele>
        <time>2019-02-04T09:59:17Z</time>
      </trkpt>
      <trkpt lat="46.20028" lon="6.47715">
        <ele>1318.1</ele>
        <time>2019-02-04T09:59:28Z</time>
      </trkpt>
      <trkpt lat="46.20031" lon="6.47714">
        <ele>1318.59</ele>
        <time>2019-02-04T09:59:40Z</time>
      </trkpt>
      <trkpt lat="46.20035" lon="6.47712">
        <ele>1319.55</ele>
        <time>2019-02-04T09:59:53Z</time>
      </trkpt>
      <trkpt lat="46.20038" lon="6.47717">
        <ele>1320.51</ele>
        <time>2019-02-04T10:00:05Z</time>
      </trkpt>
      <trkpt lat="46.20039" lon="6.47725">
        <ele>1320.51</ele>
        <time>2019-02-04T10:00:16Z</time>
      </trkpt>
      <trkpt lat="46.20039" lon="6.4773">
        <ele>1320.99</ele>
        <time>2019-02-04T10:00:29Z</time>
      </trkpt>
      <trkpt lat="46.20042" lon="6.47729">
        <ele>1322.43</ele>
        <time>2019-02-04T10:00:39Z</time>
      </trkpt>
      <trkpt lat="46.20046" lon="6.47723">
        <ele>1322.43</ele>
        <time>2019-02-04T10:00:50Z</time>
      </trkpt>
      <trkpt lat="46.20049" lon="6.47716">
        <ele>1322.91</ele>
        <time>2019-02-04T10:01:01Z</time>
      </trkpt>
      <trkpt lat="46.20051" lon="6.47712">
        <ele>1323.39</ele>
        <time>2019-02-04T10:01:14Z</time>
      </trkpt>
      <trkpt lat="46.20054" lon="6.47706">
        <ele>1323.87</ele>
        <time>2019-02-04T10:01:23Z</time>
      </trkpt>
      <trkpt lat="46.20056" lon="6.477">
        <ele>1324.83</ele>
        <time>2019-02-04T10:01:35Z</time>
      </trkpt>
      <trkpt lat="46.20059" lon="6.47694">
        <ele>1325.31</ele>
        <time>2019-02-04T10:01:48Z</time>
      </trkpt>
      <trkpt lat="46.20061" lon="6.47695">
        <ele>1325.31</ele>
        <time>2019-02-04T10:01:59Z</time>
      </trkpt>
      <trkpt lat="46.20063" lon="6.47705">
        <ele>1326.28</ele>
        <time>2019-02-04T10:02:11Z</time>
      </trkpt>
      <trkpt lat="46.20064" lon="6.47708">
        <ele>1326.28</ele>
        <time>2019-02-04T10:02:16Z</time>
      </trkpt>
      <trkpt lat="46.20065" lon="6.47714">
        <ele>1326.76</ele>
        <time>2019-02-04T10:02:23Z</time>
      </trkpt>
      <trkpt lat="46.20069" lon="6.4772">
        <ele>1327.24</ele>
        <time>2019-02-04T10:02:35Z</time>
      </trkpt>
      <trkpt lat="46.2007" lon="6.47727">
        <ele>1327.72</ele>
        <time>2019-02-04T10:02:47Z</time>
      </trkpt>
      <trkpt lat="46.20071" lon="6.47728">
        <ele>1328.68</ele>
        <time>2019-02-04T10:03:02Z</time>
      </trkpt>
      <trkpt lat="46.20072" lon="6.47725">
        <ele>1329.64</ele>
        <time>2019-02-04T10:03:14Z</time>
      </trkpt>
      <trkpt lat="46.20073" lon="6.4772">
        <ele>1330.6</ele>
        <time>2019-02-04T10:03:28Z</time>
      </trkpt>
      <trkpt lat="46.20076" lon="6.4772">
        <ele>1331.56</ele>
        <time>2019-02-04T10:03:40Z</time>
      </trkpt>
      <trkpt lat="46.2008" lon="6.47725">
        <ele>1332.52</ele>
        <time>2019-02-04T10:03:51Z</time>
      </trkpt>
      <trkpt lat="46.20083" lon="6.47726">
        <ele>1332.52</ele>
        <time>2019-02-04T10:04:03Z</time>
      </trkpt>
      <trkpt lat="46.20083" lon="6.47726">
        <ele>1333.49</ele>
        <time>2019-02-04T10:04:29Z</time>
      </trkpt>
      <trkpt lat="46.20084" lon="6.47722">
        <ele>1333.97</ele>
        <time>2019-02-04T10:04:52Z</time>
      </trkpt>
      <trkpt lat="46.20086" lon="6.4772">
        <ele>1334.45</ele>
        <time>2019-02-04T10:05:03Z</time>
      </trkpt>
      <trkpt lat="46.2009" lon="6.47725">
        <ele>1334.93</ele>
        <time>2019-02-04T10:05:15Z</time>
      </trkpt>
      <trkpt lat="46.20093" lon="6.47727">
        <ele>1335.41</ele>
        <time>2019-02-04T10:05:24Z</time>
      </trkpt>
      <trkpt lat="46.20097" lon="6.47729">
        <ele>1336.85</ele>
        <time>2019-02-04T10:05:34Z</time>
      </trkpt>
      <trkpt lat="46.20099" lon="6.47729">
        <ele>1337.81</ele>
        <time>2019-02-04T10:05:47Z</time>
      </trkpt>
      <trkpt lat="46.20103" lon="6.47725">
        <ele>1339.73</ele>
        <time>2019-02-04T10:06:02Z</time>
      </trkpt>
      <trkpt lat="46.20105" lon="6.47727">
        <ele>1340.22</ele>
        <time>2019-02-04T10:06:15Z</time>
      </trkpt>
      <trkpt lat="46.20108" lon="6.4773">
        <ele>1341.18</ele>
        <time>2019-02-04T10:06:26Z</time>
      </trkpt>
      <trkpt lat="46.20111" lon="6.47727">
        <ele>1342.62</ele>
        <time>2019-02-04T10:06:38Z</time>
      </trkpt>
      <trkpt lat="46.20112" lon="6.47731">
        <ele>1342.62</ele>
        <time>2019-02-04T10:06:49Z</time>
      </trkpt>
      <trkpt lat="46.20114" lon="6.47734">
        <ele>1343.1</ele>
        <time>2019-02-04T10:07:02Z</time>
      </trkpt>
      <trkpt lat="46.20116" lon="6.47728">
        <ele>1344.54</ele>
        <time>2019-02-04T10:07:14Z</time>
      </trkpt>
      <trkpt lat="46.20118" lon="6.47718">
        <ele>1345.5</ele>
        <time>2019-02-04T10:07:28Z</time>
      </trkpt>
      <trkpt lat="46.20119" lon="6.47711">
        <ele>1346.46</ele>
        <time>2019-02-04T10:07:39Z</time>
      </trkpt>
      <trkpt lat="46.20121" lon="6.47706">
        <ele>1346.94</ele>
        <time>2019-02-04T10:07:51Z</time>
      </trkpt>
      <trkpt lat="46.20124" lon="6.47698">
        <ele>1348.39</ele>
        <time>2019-02-04T10:08:02Z</time>
      </trkpt>
      <trkpt lat="46.20126" lon="6.47692">
        <ele>1348.39</ele>
        <time>2019-02-04T10:08:13Z</time>
      </trkpt>
      <trkpt lat="46.20129" lon="6.47683">
        <ele>1348.39</ele>
        <time>2019-02-04T10:08:27Z</time>
      </trkpt>
      <trkpt lat="46.20131" lon="6.47672">
        <ele>1348.39</ele>
        <time>2019-02-04T10:08:39Z</time>
      </trkpt>
      <trkpt lat="46.20134" lon="6.47663">
        <ele>1348.39</ele>
        <time>2019-02-04T10:08:51Z</time>
      </trkpt>
      <trkpt lat="46.20135" lon="6.47653">
        <ele>1347.91</ele>
        <time>2019-02-04T10:09:05Z</time>
      </trkpt>
      <trkpt lat="46.20135" lon="6.47643">
        <ele>1348.87</ele>
        <time>2019-02-04T10:09:16Z</time>
      </trkpt>
      <trkpt lat="46.20135" lon="6.47635">
        <ele>1347.43</ele>
        <time>2019-02-04T10:09:28Z</time>
      </trkpt>
      <trkpt lat="46.20133" lon="6.47629">
        <ele>1348.39</ele>
        <time>2019-02-04T10:09:38Z</time>
      </trkpt>
      <trkpt lat="46.2013" lon="6.47622">
        <ele>1348.87</ele>
        <time>2019-02-04T10:09:49Z</time>
      </trkpt>
      <trkpt lat="46.2013" lon="6.47622">
        <ele>1350.31</ele>
        <time>2019-02-04T10:10:10Z</time>
      </trkpt>
      <trkpt lat="46.2013" lon="6.47621">
        <ele>1348.87</ele>
        <time>2019-02-04T10:13:33Z</time>
      </trkpt>
      <trkpt lat="46.2013" lon="6.47621">
        <ele>1349.83</ele>
        <time>2019-02-04T10:14:15Z</time>
      </trkpt>
      <trkpt lat="46.2013" lon="6.47621">
        <ele>1349.83</ele>
        <time>2019-02-04T10:15:13Z</time>
      </trkpt>
      <trkpt lat="46.20128" lon="6.47613">
        <ele>1349.83</ele>
        <time>2019-02-04T10:15:56Z</time>
      </trkpt>
      <trkpt lat="46.2013" lon="6.47604">
        <ele>1349.35</ele>
        <time>2019-02-04T10:16:07Z</time>
      </trkpt>
      <trkpt lat="46.20134" lon="6.47597">
        <ele>1350.31</ele>
        <time>2019-02-04T10:16:17Z</time>
      </trkpt>
      <trkpt lat="46.20138" lon="6.4759">
        <ele>1350.31</ele>
        <time>2019-02-04T10:16:28Z</time>
      </trkpt>
      <trkpt lat="46.20142" lon="6.47579">
        <ele>1350.31</ele>
        <time>2019-02-04T10:16:42Z</time>
      </trkpt>
      <trkpt lat="46.20143" lon="6.47572">
        <ele>1350.79</ele>
        <time>2019-02-04T10:16:54Z</time>
      </trkpt>
      <trkpt lat="46.20147" lon="6.4756">
        <ele>1351.27</ele>
        <time>2019-02-04T10:17:05Z</time>
      </trkpt>
      <trkpt lat="46.2015" lon="6.47555">
        <ele>1351.75</ele>
        <time>2019-02-04T10:17:11Z</time>
      </trkpt>
      <trkpt lat="46.20157" lon="6.47546">
        <ele>1350.79</ele>
        <time>2019-02-04T10:17:22Z</time>
      </trkpt>
      <trkpt lat="46.2016" lon="6.47537">
        <ele>1351.75</ele>
        <time>2019-02-04T10:17:33Z</time>
      </trkpt>
      <trkpt lat="46.20163" lon="6.47531">
        <ele>1351.75</ele>
        <time>2019-02-04T10:17:46Z</time>
      </trkpt>
      <trkpt lat="46.20166" lon="6.47525">
        <ele>1352.71</ele>
        <time>2019-02-04T10:17:59Z</time>
      </trkpt>
      <trkpt lat="46.20166" lon="6.47525">
        <ele>1352.23</ele>
        <time>2019-02-04T10:18:08Z</time>
      </trkpt>
      <trkpt lat="46.20171" lon="6.47526">
        <ele>1353.19</ele>
        <time>2019-02-04T10:18:18Z</time>
      </trkpt>
      <trkpt lat="46.20177" lon="6.47528">
        <ele>1354.15</ele>
        <time>2019-02-04T10:18:28Z</time>
      </trkpt>
      <trkpt lat="46.20184" lon="6.4753">
        <ele>1354.63</ele>
        <time>2019-02-04T10:18:37Z</time>
      </trkpt>
      <trkpt lat="46.20187" lon="6.47532">
        <ele>1355.12</ele>
        <time>2019-02-04T10:18:46Z</time>
      </trkpt>
      <trkpt lat="46.2019" lon="6.47536">
        <ele>1355.6</ele>
        <time>2019-02-04T10:18:56Z</time>
      </trkpt>
      <trkpt lat="46.20193" lon="6.47537">
        <ele>1356.56</ele>
        <time>2019-02-04T10:19:07Z</time>
      </trkpt>
      <trkpt lat="46.20195" lon="6.47539">
        <ele>1357.52</ele>
        <time>2019-02-04T10:19:17Z</time>
      </trkpt>
      <trkpt lat="46.20196" lon="6.4754">
        <ele>1358</ele>
        <time>2019-02-04T10:19:26Z</time>
      </trkpt>
      <trkpt lat="46.20201" lon="6.47543">
        <ele>1358.96</ele>
        <time>2019-02-04T10:19:34Z</time>
      </trkpt>
      <trkpt lat="46.20207" lon="6.47547">
        <ele>1359.92</ele>
        <time>2019-02-04T10:19:45Z</time>
      </trkpt>
      <trkpt lat="46.20215" lon="6.4755">
        <ele>1361.36</ele>
        <time>2019-02-04T10:19:57Z</time>
      </trkpt>
      <trkpt lat="46.20215" lon="6.4755">
        <ele>1361.36</ele>
        <time>2019-02-04T10:19:59Z</time>
      </trkpt>
      <trkpt lat="46.2022" lon="6.47553">
        <ele>1361.84</ele>
        <time>2019-02-04T10:20:09Z</time>
      </trkpt>
      <trkpt lat="46.20225" lon="6.47555">
        <ele>1362.81</ele>
        <time>2019-02-04T10:20:20Z</time>
      </trkpt>
      <trkpt lat="46.20228" lon="6.47557">
        <ele>1364.73</ele>
        <time>2019-02-04T10:20:32Z</time>
      </trkpt>
      <trkpt lat="46.20232" lon="6.47559">
        <ele>1365.69</ele>
        <time>2019-02-04T10:20:54Z</time>
      </trkpt>
      <trkpt lat="46.20235" lon="6.4756">
        <ele>1366.65</ele>
        <time>2019-02-04T10:21:05Z</time>
      </trkpt>
      <trkpt lat="46.20239" lon="6.47563">
        <ele>1368.09</ele>
        <time>2019-02-04T10:21:25Z</time>
      </trkpt>
      <trkpt lat="46.20241" lon="6.47564">
        <ele>1368.57</ele>
        <time>2019-02-04T10:21:35Z</time>
      </trkpt>
      <trkpt lat="46.20246" lon="6.47567">
        <ele>1370.02</ele>
        <time>2019-02-04T10:21:45Z</time>
      </trkpt>
      <trkpt lat="46.20247" lon="6.47568">
        <ele>1370.5</ele>
        <time>2019-02-04T10:21:47Z</time>
      </trkpt>
      <trkpt lat="46.20252" lon="6.47572">
        <ele>1371.94</ele>
        <time>2019-02-04T10:21:58Z</time>
      </trkpt>
      <trkpt lat="46.20255" lon="6.47574">
        <ele>1372.9</ele>
        <time>2019-02-04T10:22:06Z</time>
      </trkpt>
      <trkpt lat="46.20259" lon="6.47571">
        <ele>1374.82</ele>
        <time>2019-02-04T10:22:19Z</time>
      </trkpt>
      <trkpt lat="46.20263" lon="6.47567">
        <ele>1375.3</ele>
        <time>2019-02-04T10:22:28Z</time>
      </trkpt>
      <trkpt lat="46.20265" lon="6.47565">
        <ele>1376.26</ele>
        <time>2019-02-04T10:22:38Z</time>
      </trkpt>
      <trkpt lat="46.20268" lon="6.47561">
        <ele>1377.71</ele>
        <time>2019-02-04T10:22:50Z</time>
      </trkpt>
      <trkpt lat="46.20273" lon="6.47557">
        <ele>1379.63</ele>
        <time>2019-02-04T10:23:00Z</time>
      </trkpt>
      <trkpt lat="46.20276" lon="6.47554">
        <ele>1380.11</ele>
        <time>2019-02-04T10:23:12Z</time>
      </trkpt>
      <trkpt lat="46.20277" lon="6.47553">
        <ele>1381.07</ele>
        <time>2019-02-04T10:23:22Z</time>
      </trkpt>
      <trkpt lat="46.2028" lon="6.47549">
        <ele>1382.51</ele>
        <time>2019-02-04T10:23:33Z</time>
      </trkpt>
      <trkpt lat="46.20282" lon="6.47548">
        <ele>1383.47</ele>
        <time>2019-02-04T10:23:43Z</time>
      </trkpt>
      <trkpt lat="46.20289" lon="6.47544">
        <ele>1385.4</ele>
        <time>2019-02-04T10:23:57Z</time>
      </trkpt>
      <trkpt lat="46.20294" lon="6.47541">
        <ele>1386.36</ele>
        <time>2019-02-04T10:24:07Z</time>
      </trkpt>
      <trkpt lat="46.203" lon="6.47536">
        <ele>1388.28</ele>
        <time>2019-02-04T10:24:19Z</time>
      </trkpt>
      <trkpt lat="46.20304" lon="6.47532">
        <ele>1388.76</ele>
        <time>2019-02-04T10:24:30Z</time>
      </trkpt>
      <trkpt lat="46.20309" lon="6.47529">
        <ele>1389.24</ele>
        <time>2019-02-04T10:24:41Z</time>
      </trkpt>
      <trkpt lat="46.20315" lon="6.47523">
        <ele>1389.72</ele>
        <time>2019-02-04T10:24:52Z</time>
      </trkpt>
      <trkpt lat="46.20319" lon="6.47517">
        <ele>1390.68</ele>
        <time>2019-02-04T10:25:02Z</time>
      </trkpt>
      <trkpt lat="46.20321" lon="6.47512">
        <ele>1391.65</ele>
        <time>2019-02-04T10:25:14Z</time>
      </trkpt>
      <trkpt lat="46.20324" lon="6.47508">
        <ele>1393.57</ele>
        <time>2019-02-04T10:25:24Z</time>
      </trkpt>
      <trkpt lat="46.2033" lon="6.47503">
        <ele>1394.53</ele>
        <time>2019-02-04T10:25:37Z</time>
      </trkpt>
      <trkpt lat="46.20333" lon="6.47497">
        <ele>1395.49</ele>
        <time>2019-02-04T10:25:51Z</time>
      </trkpt>
      <trkpt lat="46.20339" lon="6.47492">
        <ele>1396.45</ele>
        <time>2019-02-04T10:26:02Z</time>
      </trkpt>
      <trkpt lat="46.20343" lon="6.47487">
        <ele>1397.89</ele>
        <time>2019-02-04T10:26:12Z</time>
      </trkpt>
      <trkpt lat="46.20347" lon="6.47484">
        <ele>1398.86</ele>
        <time>2019-02-04T10:26:22Z</time>
      </trkpt>
      <trkpt lat="46.20351" lon="6.47479">
        <ele>1399.34</ele>
        <time>2019-02-04T10:26:31Z</time>
      </trkpt>
      <trkpt lat="46.20356" lon="6.47474">
        <ele>1400.78</ele>
        <time>2019-02-04T10:26:42Z</time>
      </trkpt>
      <trkpt lat="46.20361" lon="6.4747">
        <ele>1402.22</ele>
        <time>2019-02-04T10:26:52Z</time>
      </trkpt>
      <trkpt lat="46.20365" lon="6.47465">
        <ele>1402.22</ele>
        <time>2019-02-04T10:27:02Z</time>
      </trkpt>
      <trkpt lat="46.20369" lon="6.4746">
        <ele>1402.7</ele>
        <time>2019-02-04T10:27:12Z</time>
      </trkpt>
      <trkpt lat="46.20368" lon="6.47457">
        <ele>1403.18</ele>
        <time>2019-02-04T10:27:27Z</time>
      </trkpt>
      <trkpt lat="46.20369" lon="6.47458">
        <ele>1403.18</ele>
        <time>2019-02-04T10:28:57Z</time>
      </trkpt>
      <trkpt lat="46.20369" lon="6.47457">
        <ele>1402.22</ele>
        <time>2019-02-04T10:30:04Z</time>
      </trkpt>
      <trkpt lat="46.2037" lon="6.47458">
        <ele>1402.22</ele>
        <time>2019-02-04T10:31:01Z</time>
      </trkpt>
      <trkpt lat="46.20373" lon="6.47451">
        <ele>1402.7</ele>
        <time>2019-02-04T10:31:19Z</time>
      </trkpt>
      <trkpt lat="46.20378" lon="6.47445">
        <ele>1401.74</ele>
        <time>2019-02-04T10:31:29Z</time>
      </trkpt>
      <trkpt lat="46.2038" lon="6.47441">
        <ele>1401.74</ele>
        <time>2019-02-04T10:31:41Z</time>
      </trkpt>
      <trkpt lat="46.20384" lon="6.47438">
        <ele>1401.26</ele>
        <time>2019-02-04T10:31:52Z</time>
      </trkpt>
      <trkpt lat="46.20387" lon="6.47433">
        <ele>1401.74</ele>
        <time>2019-02-04T10:32:08Z</time>
      </trkpt>
      <trkpt lat="46.20391" lon="6.47429">
        <ele>1402.22</ele>
        <time>2019-02-04T10:32:18Z</time>
      </trkpt>
      <trkpt lat="46.20395" lon="6.47426">
        <ele>1402.7</ele>
        <time>2019-02-04T10:32:30Z</time>
      </trkpt>
      <trkpt lat="46.204" lon="6.47423">
        <ele>1403.18</ele>
        <time>2019-02-04T10:32:41Z</time>
      </trkpt>
      <trkpt lat="46.20403" lon="6.4742">
        <ele>1403.18</ele>
        <time>2019-02-04T10:32:53Z</time>
      </trkpt>
      <trkpt lat="46.20409" lon="6.47416">
        <ele>1404.14</ele>
        <time>2019-02-04T10:33:05Z</time>
      </trkpt>
      <trkpt lat="46.20415" lon="6.47413">
        <ele>1404.62</ele>
        <time>2019-02-04T10:33:15Z</time>
      </trkpt>
      <trkpt lat="46.2042" lon="6.47409">
        <ele>1404.62</ele>
        <time>2019-02-04T10:33:27Z</time>
      </trkpt>
      <trkpt lat="46.20425" lon="6.47409">
        <ele>1405.1</ele>
        <time>2019-02-04T10:33:38Z</time>
      </trkpt>
      <trkpt lat="46.2043" lon="6.47407">
        <ele>1405.58</ele>
        <time>2019-02-04T10:33:47Z</time>
      </trkpt>
      <trkpt lat="46.20436" lon="6.47407">
        <ele>1406.55</ele>
        <time>2019-02-04T10:34:03Z</time>
      </trkpt>
      <trkpt lat="46.20442" lon="6.47407">
        <ele>1406.55</ele>
        <time>2019-02-04T10:34:14Z</time>
      </trkpt>
      <trkpt lat="46.20447" lon="6.47405">
        <ele>1406.07</ele>
        <time>2019-02-04T10:34:27Z</time>
      </trkpt>
      <trkpt lat="46.2045" lon="6.47404">
        <ele>1407.03</ele>
        <time>2019-02-04T10:34:39Z</time>
      </trkpt>
      <trkpt lat="46.20456" lon="6.47402">
        <ele>1407.03</ele>
        <time>2019-02-04T10:34:48Z</time>
      </trkpt>
      <trkpt lat="46.20461" lon="6.474">
        <ele>1407.99</ele>
        <time>2019-02-04T10:35:00Z</time>
      </trkpt>
      <trkpt lat="46.20465" lon="6.47397">
        <ele>1407.03</ele>
        <time>2019-02-04T10:35:11Z</time>
      </trkpt>
      <trkpt lat="46.20468" lon="6.47396">
        <ele>1407.03</ele>
        <time>2019-02-04T10:35:24Z</time>
      </trkpt>
      <trkpt lat="46.20468" lon="6.47396">
        <ele>1407.51</ele>
        <time>2019-02-04T10:36:28Z</time>
      </trkpt>
      <trkpt lat="46.20473" lon="6.47395">
        <ele>1408.47</ele>
        <time>2019-02-04T10:37:06Z</time>
      </trkpt>
      <trkpt lat="46.20473" lon="6.47394">
        <ele>1407.03</ele>
        <time>2019-02-04T10:37:25Z</time>
      </trkpt>
      <trkpt lat="46.20473" lon="6.47394">
        <ele>1407.51</ele>
        <time>2019-02-04T10:37:33Z</time>
      </trkpt>
      <trkpt lat="46.2048" lon="6.47388">
        <ele>1407.99</ele>
        <time>2019-02-04T10:37:44Z</time>
      </trkpt>
      <trkpt lat="46.20484" lon="6.47383">
        <ele>1407.51</ele>
        <time>2019-02-04T10:37:51Z</time>
      </trkpt>
      <trkpt lat="46.20491" lon="6.47376">
        <ele>1408.47</ele>
        <time>2019-02-04T10:38:03Z</time>
      </trkpt>
      <trkpt lat="46.20498" lon="6.4737">
        <ele>1408.95</ele>
        <time>2019-02-04T10:38:14Z</time>
      </trkpt>
      <trkpt lat="46.20502" lon="6.47366">
        <ele>1408.95</ele>
        <time>2019-02-04T10:38:25Z</time>
      </trkpt>
      <trkpt lat="46.2051" lon="6.47364">
        <ele>1408.47</ele>
        <time>2019-02-04T10:38:36Z</time>
      </trkpt>
      <trkpt lat="46.20511" lon="6.47365">
        <ele>1408.95</ele>
        <time>2019-02-04T10:38:48Z</time>
      </trkpt>
      <trkpt lat="46.2051" lon="6.47365">
        <ele>1412.79</ele>
        <time>2019-02-04T10:38:55Z</time>
      </trkpt>
      <trkpt lat="46.2051" lon="6.47365">
        <ele>1408.47</ele>
        <time>2019-02-04T10:38:56Z</time>
      </trkpt>
      <trkpt lat="46.20516" lon="6.47358">
        <ele>1408.47</ele>
        <time>2019-02-04T10:39:07Z</time>
      </trkpt>
      <trkpt lat="46.20516" lon="6.47348">
        <ele>1408.95</ele>
        <time>2019-02-04T10:39:18Z</time>
      </trkpt>
      <trkpt lat="46.20519" lon="6.47348">
        <ele>1408.47</ele>
        <time>2019-02-04T10:39:29Z</time>
      </trkpt>
      <trkpt lat="46.20526" lon="6.47342">
        <ele>1408.47</ele>
        <time>2019-02-04T10:39:40Z</time>
      </trkpt>
      <trkpt lat="46.20529" lon="6.47337">
        <ele>1408.95</ele>
        <time>2019-02-04T10:39:48Z</time>
      </trkpt>
      <trkpt lat="46.20535" lon="6.47335">
        <ele>1408.95</ele>
        <time>2019-02-04T10:39:58Z</time>
      </trkpt>
      <trkpt lat="46.20541" lon="6.47332">
        <ele>1409.43</ele>
        <time>2019-02-04T10:40:05Z</time>
      </trkpt>
      <trkpt lat="46.20549" lon="6.47322">
        <ele>1408.95</ele>
        <time>2019-02-04T10:40:18Z</time>
      </trkpt>
      <trkpt lat="46.20549" lon="6.4732">
        <ele>1408.95</ele>
        <time>2019-02-04T10:40:36Z</time>
      </trkpt>
      <trkpt lat="46.2055" lon="6.4732">
        <ele>1408.95</ele>
        <time>2019-02-04T10:41:27Z</time>
      </trkpt>
      <trkpt lat="46.20549" lon="6.47318">
        <ele>1409.43</ele>
        <time>2019-02-04T10:42:03Z</time>
      </trkpt>
      <trkpt lat="46.20549" lon="6.47317">
        <ele>1409.43</ele>
        <time>2019-02-04T10:42:17Z</time>
      </trkpt>
      <trkpt lat="46.2055" lon="6.47316">
        <ele>1408.95</ele>
        <time>2019-02-04T10:43:34Z</time>
      </trkpt>
      <trkpt lat="46.20554" lon="6.47311">
        <ele>1407.99</ele>
        <time>2019-02-04T10:43:48Z</time>
      </trkpt>
      <trkpt lat="46.20563" lon="6.47307">
        <ele>1407.03</ele>
        <time>2019-02-04T10:44:02Z</time>
      </trkpt>
      <trkpt lat="46.20572" lon="6.47302">
        <ele>1407.03</ele>
        <time>2019-02-04T10:44:17Z</time>
      </trkpt>
      <trkpt lat="46.20573" lon="6.47299">
        <ele>1407.51</ele>
        <time>2019-02-04T10:44:20Z</time>
      </trkpt>
      <trkpt lat="46.20575" lon="6.47297">
        <ele>1407.03</ele>
        <time>2019-02-04T10:44:22Z</time>
      </trkpt>
      <trkpt lat="46.20581" lon="6.47289">
        <ele>1407.51</ele>
        <time>2019-02-04T10:44:33Z</time>
      </trkpt>
      <trkpt lat="46.20583" lon="6.47278">
        <ele>1407.51</ele>
        <time>2019-02-04T10:44:46Z</time>
      </trkpt>
      <trkpt lat="46.20586" lon="6.47268">
        <ele>1407.99</ele>
        <time>2019-02-04T10:44:58Z</time>
      </trkpt>
      <trkpt lat="46.20587" lon="6.47268">
        <ele>1408.95</ele>
        <time>2019-02-04T10:45:01Z</time>
      </trkpt>
      <trkpt lat="46.20591" lon="6.47267">
        <ele>1409.91</ele>
        <time>2019-02-04T10:45:12Z</time>
      </trkpt>
      <trkpt lat="46.20597" lon="6.47268">
        <ele>1410.39</ele>
        <time>2019-02-04T10:45:22Z</time>
      </trkpt>
      <trkpt lat="46.20598" lon="6.47268">
        <ele>1410.87</ele>
        <time>2019-02-04T10:45:25Z</time>
      </trkpt>
      <trkpt lat="46.20604" lon="6.47268">
        <ele>1411.83</ele>
        <time>2019-02-04T10:45:36Z</time>
      </trkpt>
      <trkpt lat="46.20609" lon="6.47269">
        <ele>1412.31</ele>
        <time>2019-02-04T10:45:45Z</time>
      </trkpt>
      <trkpt lat="46.20614" lon="6.4727">
        <ele>1413.76</ele>
        <time>2019-02-04T10:45:56Z</time>
      </trkpt>
      <trkpt lat="46.20617" lon="6.4727">
        <ele>1414.24</ele>
        <time>2019-02-04T10:46:09Z</time>
      </trkpt>
      <trkpt lat="46.20621" lon="6.47269">
        <ele>1415.68</ele>
        <time>2019-02-04T10:46:20Z</time>
      </trkpt>
      <trkpt lat="46.20624" lon="6.47267">
        <ele>1416.16</ele>
        <time>2019-02-04T10:46:33Z</time>
      </trkpt>
      <trkpt lat="46.20627" lon="6.47261">
        <ele>1416.64</ele>
        <time>2019-02-04T10:46:45Z</time>
      </trkpt>
      <trkpt lat="46.20631" lon="6.47256">
        <ele>1417.6</ele>
        <time>2019-02-04T10:46:58Z</time>
      </trkpt>
      <trkpt lat="46.20635" lon="6.47251">
        <ele>1418.08</ele>
        <time>2019-02-04T10:47:11Z</time>
      </trkpt>
      <trkpt lat="46.20641" lon="6.47247">
        <ele>1419.04</ele>
        <time>2019-02-04T10:47:22Z</time>
      </trkpt>
      <trkpt lat="46.20646" lon="6.47243">
        <ele>1419.52</ele>
        <time>2019-02-04T10:47:36Z</time>
      </trkpt>
      <trkpt lat="46.20653" lon="6.47241">
        <ele>1420.49</ele>
        <time>2019-02-04T10:47:50Z</time>
      </trkpt>
      <trkpt lat="46.20659" lon="6.4724">
        <ele>1421.45</ele>
        <time>2019-02-04T10:48:04Z</time>
      </trkpt>
      <trkpt lat="46.20666" lon="6.47238">
        <ele>1422.89</ele>
        <time>2019-02-04T10:48:16Z</time>
      </trkpt>
      <trkpt lat="46.2067" lon="6.47241">
        <ele>1423.37</ele>
        <time>2019-02-04T10:48:26Z</time>
      </trkpt>
      <trkpt lat="46.20675" lon="6.47244">
        <ele>1422.89</ele>
        <time>2019-02-04T10:48:39Z</time>
      </trkpt>
      <trkpt lat="46.2068" lon="6.4725">
        <ele>1422.89</ele>
        <time>2019-02-04T10:48:52Z</time>
      </trkpt>
      <trkpt lat="46.20681" lon="6.47251">
        <ele>1423.37</ele>
        <time>2019-02-04T10:48:53Z</time>
      </trkpt>
      <trkpt lat="46.2069" lon="6.47254">
        <ele>1423.37</ele>
        <time>2019-02-04T10:49:05Z</time>
      </trkpt>
      <trkpt lat="46.20696" lon="6.47256">
        <ele>1422.89</ele>
        <time>2019-02-04T10:49:15Z</time>
      </trkpt>
      <trkpt lat="46.20698" lon="6.47257">
        <ele>1422.89</ele>
        <time>2019-02-04T10:49:27Z</time>
      </trkpt>
      <trkpt lat="46.20698" lon="6.47258">
        <ele>1422.41</ele>
        <time>2019-02-04T10:49:52Z</time>
      </trkpt>
      <trkpt lat="46.20701" lon="6.4726">
        <ele>1423.37</ele>
        <time>2019-02-04T10:50:53Z</time>
      </trkpt>
      <trkpt lat="46.20708" lon="6.47262">
        <ele>1423.85</ele>
        <time>2019-02-04T10:51:04Z</time>
      </trkpt>
      <trkpt lat="46.20714" lon="6.47259">
        <ele>1423.85</ele>
        <time>2019-02-04T10:51:15Z</time>
      </trkpt>
      <trkpt lat="46.20716" lon="6.47257">
        <ele>1424.81</ele>
        <time>2019-02-04T10:51:27Z</time>
      </trkpt>
      <trkpt lat="46.20722" lon="6.47253">
        <ele>1425.29</ele>
        <time>2019-02-04T10:51:39Z</time>
      </trkpt>
      <trkpt lat="46.20727" lon="6.4725">
        <ele>1426.25</ele>
        <time>2019-02-04T10:51:53Z</time>
      </trkpt>
      <trkpt lat="46.20734" lon="6.47246">
        <ele>1426.73</ele>
        <time>2019-02-04T10:52:04Z</time>
      </trkpt>
      <trkpt lat="46.20739" lon="6.47246">
        <ele>1427.7</ele>
        <time>2019-02-04T10:52:12Z</time>
      </trkpt>
      <trkpt lat="46.20743" lon="6.47243">
        <ele>1428.66</ele>
        <time>2019-02-04T10:52:23Z</time>
      </trkpt>
      <trkpt lat="46.20749" lon="6.47241">
        <ele>1429.62</ele>
        <time>2019-02-04T10:52:35Z</time>
      </trkpt>
      <trkpt lat="46.20752" lon="6.47239">
        <ele>1430.58</ele>
        <time>2019-02-04T10:52:47Z</time>
      </trkpt>
      <trkpt lat="46.20757" lon="6.47236">
        <ele>1431.54</ele>
        <time>2019-02-04T10:52:59Z</time>
      </trkpt>
      <trkpt lat="46.20759" lon="6.47235">
        <ele>1432.5</ele>
        <time>2019-02-04T10:53:11Z</time>
      </trkpt>
      <trkpt lat="46.20764" lon="6.47234">
        <ele>1433.46</ele>
        <time>2019-02-04T10:53:23Z</time>
      </trkpt>
      <trkpt lat="46.20768" lon="6.47232">
        <ele>1433.94</ele>
        <time>2019-02-04T10:53:34Z</time>
      </trkpt>
      <trkpt lat="46.2077" lon="6.47235">
        <ele>1434.42</ele>
        <time>2019-02-04T10:53:45Z</time>
      </trkpt>
      <trkpt lat="46.20772" lon="6.47239">
        <ele>1435.87</ele>
        <time>2019-02-04T10:53:59Z</time>
      </trkpt>
      <trkpt lat="46.20774" lon="6.47245">
        <ele>1436.35</ele>
        <time>2019-02-04T10:54:11Z</time>
      </trkpt>
      <trkpt lat="46.20776" lon="6.47254">
        <ele>1436.83</ele>
        <time>2019-02-04T10:54:23Z</time>
      </trkpt>
      <trkpt lat="46.2078" lon="6.47262">
        <ele>1437.79</ele>
        <time>2019-02-04T10:54:37Z</time>
      </trkpt>
      <trkpt lat="46.2078" lon="6.47262">
        <ele>1437.31</ele>
        <time>2019-02-04T10:54:39Z</time>
      </trkpt>
      <trkpt lat="46.20782" lon="6.4727">
        <ele>1437.79</ele>
        <time>2019-02-04T10:54:49Z</time>
      </trkpt>
      <trkpt lat="46.20783" lon="6.47273">
        <ele>1438.75</ele>
        <time>2019-02-04T10:55:03Z</time>
      </trkpt>
      <trkpt lat="46.20786" lon="6.47269">
        <ele>1439.71</ele>
        <time>2019-02-04T10:55:13Z</time>
      </trkpt>
      <trkpt lat="46.20791" lon="6.47273">
        <ele>1440.19</ele>
        <time>2019-02-04T10:55:27Z</time>
      </trkpt>
      <trkpt lat="46.20794" lon="6.4727">
        <ele>1440.19</ele>
        <time>2019-02-04T10:55:39Z</time>
      </trkpt>
      <trkpt lat="46.20795" lon="6.4728">
        <ele>1441.15</ele>
        <time>2019-02-04T10:55:52Z</time>
      </trkpt>
      <trkpt lat="46.20794" lon="6.47292">
        <ele>1441.15</ele>
        <time>2019-02-04T10:56:20Z</time>
      </trkpt>
      <trkpt lat="46.20795" lon="6.47303">
        <ele>1441.63</ele>
        <time>2019-02-04T10:56:32Z</time>
      </trkpt>
      <trkpt lat="46.20794" lon="6.47309">
        <ele>1441.63</ele>
        <time>2019-02-04T10:56:43Z</time>
      </trkpt>
      <trkpt lat="46.20795" lon="6.47314">
        <ele>1442.11</ele>
        <time>2019-02-04T10:56:57Z</time>
      </trkpt>
      <trkpt lat="46.20794" lon="6.4732">
        <ele>1442.6</ele>
        <time>2019-02-04T10:57:10Z</time>
      </trkpt>
      <trkpt lat="46.20796" lon="6.47327">
        <ele>1443.56</ele>
        <time>2019-02-04T10:57:21Z</time>
      </trkpt>
      <trkpt lat="46.20797" lon="6.47327">
        <ele>1444.52</ele>
        <time>2019-02-04T10:57:42Z</time>
      </trkpt>
      <trkpt lat="46.208" lon="6.4733">
        <ele>1445</ele>
        <time>2019-02-04T10:57:53Z</time>
      </trkpt>
      <trkpt lat="46.20807" lon="6.47335">
        <ele>1445.96</ele>
        <time>2019-02-04T10:58:04Z</time>
      </trkpt>
      <trkpt lat="46.20811" lon="6.47337">
        <ele>1447.4</ele>
        <time>2019-02-04T10:58:15Z</time>
      </trkpt>
      <trkpt lat="46.20813" lon="6.47339">
        <ele>1447.4</ele>
        <time>2019-02-04T10:58:28Z</time>
      </trkpt>
      <trkpt lat="46.20815" lon="6.47343">
        <ele>1448.36</ele>
        <time>2019-02-04T10:58:38Z</time>
      </trkpt>
      <trkpt lat="46.2082" lon="6.47349">
        <ele>1449.32</ele>
        <time>2019-02-04T10:58:50Z</time>
      </trkpt>
      <trkpt lat="46.20823" lon="6.47353">
        <ele>1450.29</ele>
        <time>2019-02-04T10:59:05Z</time>
      </trkpt>
      <trkpt lat="46.20825" lon="6.47356">
        <ele>1451.73</ele>
        <time>2019-02-04T10:59:16Z</time>
      </trkpt>
      <trkpt lat="46.20827" lon="6.47358">
        <ele>1452.21</ele>
        <time>2019-02-04T11:00:02Z</time>
      </trkpt>
      <trkpt lat="46.20829" lon="6.47361">
        <ele>1452.69</ele>
        <time>2019-02-04T11:00:12Z</time>
      </trkpt>
      <trkpt lat="46.20831" lon="6.47363">
        <ele>1454.13</ele>
        <time>2019-02-04T11:00:20Z</time>
      </trkpt>
      <trkpt lat="46.20835" lon="6.47368">
        <ele>1454.61</ele>
        <time>2019-02-04T11:00:38Z</time>
      </trkpt>
      <trkpt lat="46.20837" lon="6.4737">
        <ele>1455.09</ele>
        <time>2019-02-04T11:00:49Z</time>
      </trkpt>
      <trkpt lat="46.20839" lon="6.47374">
        <ele>1456.53</ele>
        <time>2019-02-04T11:01:05Z</time>
      </trkpt>
      <trkpt lat="46.20841" lon="6.47378">
        <ele>1457.98</ele>
        <time>2019-02-04T11:01:18Z</time>
      </trkpt>
      <trkpt lat="46.20844" lon="6.47381">
        <ele>1459.42</ele>
        <time>2019-02-04T11:01:33Z</time>
      </trkpt>
      <trkpt lat="46.20846" lon="6.47389">
        <ele>1459.9</ele>
        <time>2019-02-04T11:01:46Z</time>
      </trkpt>
      <trkpt lat="46.20851" lon="6.47397">
        <ele>1459.9</ele>
        <time>2019-02-04T11:01:57Z</time>
      </trkpt>
      <trkpt lat="46.20852" lon="6.47402">
        <ele>1460.38</ele>
        <time>2019-02-04T11:02:11Z</time>
      </trkpt>
      <trkpt lat="46.20854" lon="6.47397">
        <ele>1461.82</ele>
        <time>2019-02-04T11:02:25Z</time>
      </trkpt>
      <trkpt lat="46.20855" lon="6.47394">
        <ele>1461.82</ele>
        <time>2019-02-04T11:02:38Z</time>
      </trkpt>
      <trkpt lat="46.20857" lon="6.47385">
        <ele>1462.78</ele>
        <time>2019-02-04T11:02:57Z</time>
      </trkpt>
      <trkpt lat="46.20859" lon="6.47375">
        <ele>1463.74</ele>
        <time>2019-02-04T11:03:10Z</time>
      </trkpt>
      <trkpt lat="46.2086" lon="6.47374">
        <ele>1463.26</ele>
        <time>2019-02-04T11:03:32Z</time>
      </trkpt>
      <trkpt lat="46.20861" lon="6.47367">
        <ele>1464.23</ele>
        <time>2019-02-04T11:04:21Z</time>
      </trkpt>
      <trkpt lat="46.20862" lon="6.4736">
        <ele>1465.19</ele>
        <time>2019-02-04T11:04:35Z</time>
      </trkpt>
      <trkpt lat="46.20865" lon="6.47355">
        <ele>1466.15</ele>
        <time>2019-02-04T11:04:48Z</time>
      </trkpt>
      <trkpt lat="46.20865" lon="6.47354">
        <ele>1465.67</ele>
        <time>2019-02-04T11:04:49Z</time>
      </trkpt>
      <trkpt lat="46.20868" lon="6.47347">
        <ele>1467.11</ele>
        <time>2019-02-04T11:05:01Z</time>
      </trkpt>
      <trkpt lat="46.20871" lon="6.47345">
        <ele>1467.11</ele>
        <time>2019-02-04T11:05:11Z</time>
      </trkpt>
      <trkpt lat="46.20872" lon="6.47347">
        <ele>1468.55</ele>
        <time>2019-02-04T11:05:23Z</time>
      </trkpt>
      <trkpt lat="46.20875" lon="6.47353">
        <ele>1469.51</ele>
        <time>2019-02-04T11:05:36Z</time>
      </trkpt>
      <trkpt lat="46.20878" lon="6.47355">
        <ele>1470.95</ele>
        <time>2019-02-04T11:05:48Z</time>
      </trkpt>
      <trkpt lat="46.20881" lon="6.47361">
        <ele>1471.44</ele>
        <time>2019-02-04T11:05:58Z</time>
      </trkpt>
      <trkpt lat="46.20881" lon="6.47361">
        <ele>1472.88</ele>
        <time>2019-02-04T11:06:11Z</time>
      </trkpt>
      <trkpt lat="46.20882" lon="6.47368">
        <ele>1472.88</ele>
        <time>2019-02-04T11:06:23Z</time>
      </trkpt>
      <trkpt lat="46.20882" lon="6.47368">
        <ele>1474.32</ele>
        <time>2019-02-04T11:06:39Z</time>
      </trkpt>
      <trkpt lat="46.20883" lon="6.47369">
        <ele>1474.8</ele>
        <time>2019-02-04T11:06:43Z</time>
      </trkpt>
      <trkpt lat="46.20885" lon="6.47369">
        <ele>1475.28</ele>
        <time>2019-02-04T11:06:56Z</time>
      </trkpt>
      <trkpt lat="46.20885" lon="6.47369">
        <ele>1476.24</ele>
        <time>2019-02-04T11:07:05Z</time>
      </trkpt>
      <trkpt lat="46.2089" lon="6.47361">
        <ele>1476.72</ele>
        <time>2019-02-04T11:07:16Z</time>
      </trkpt>
      <trkpt lat="46.20893" lon="6.47357">
        <ele>1477.68</ele>
        <time>2019-02-04T11:07:32Z</time>
      </trkpt>
      <trkpt lat="46.20893" lon="6.47357">
        <ele>1478.65</ele>
        <time>2019-02-04T11:07:48Z</time>
      </trkpt>
      <trkpt lat="46.20898" lon="6.47351">
        <ele>1480.09</ele>
        <time>2019-02-04T11:07:58Z</time>
      </trkpt>
      <trkpt lat="46.209" lon="6.47348">
        <ele>1480.57</ele>
        <time>2019-02-04T11:08:10Z</time>
      </trkpt>
      <trkpt lat="46.209" lon="6.47348">
        <ele>1481.53</ele>
        <time>2019-02-04T11:08:24Z</time>
      </trkpt>
      <trkpt lat="46.209" lon="6.47348">
        <ele>1482.01</ele>
        <time>2019-02-04T11:08:35Z</time>
      </trkpt>
      <trkpt lat="46.20904" lon="6.47352">
        <ele>1482.49</ele>
        <time>2019-02-04T11:08:45Z</time>
      </trkpt>
      <trkpt lat="46.20905" lon="6.47353">
        <ele>1482.97</ele>
        <time>2019-02-04T11:08:57Z</time>
      </trkpt>
      <trkpt lat="46.20906" lon="6.47354">
        <ele>1484.41</ele>
        <time>2019-02-04T11:09:11Z</time>
      </trkpt>
      <trkpt lat="46.20906" lon="6.47354">
        <ele>1485.37</ele>
        <time>2019-02-04T11:09:24Z</time>
      </trkpt>
      <trkpt lat="46.20906" lon="6.47354">
        <ele>1487.3</ele>
        <time>2019-02-04T11:09:36Z</time>
      </trkpt>
      <trkpt lat="46.20913" lon="6.47347">
        <ele>1487.78</ele>
        <time>2019-02-04T11:09:49Z</time>
      </trkpt>
      <trkpt lat="46.20913" lon="6.47347">
        <ele>1488.74</ele>
        <time>2019-02-04T11:10:00Z</time>
      </trkpt>
      <trkpt lat="46.20918" lon="6.47342">
        <ele>1489.7</ele>
        <time>2019-02-04T11:10:10Z</time>
      </trkpt>
      <trkpt lat="46.20925" lon="6.47337">
        <ele>1490.66</ele>
        <time>2019-02-04T11:10:20Z</time>
      </trkpt>
      <trkpt lat="46.20925" lon="6.47336">
        <ele>1490.18</ele>
        <time>2019-02-04T11:10:59Z</time>
      </trkpt>
      <trkpt lat="46.20925" lon="6.47336">
        <ele>1490.18</ele>
        <time>2019-02-04T11:11:33Z</time>
      </trkpt>
      <trkpt lat="46.20926" lon="6.47334">
        <ele>1490.18</ele>
        <time>2019-02-04T11:13:04Z</time>
      </trkpt>
      <trkpt lat="46.20928" lon="6.47334">
        <ele>1490.18</ele>
        <time>2019-02-04T11:13:49Z</time>
      </trkpt>
      <trkpt lat="46.20931" lon="6.47331">
        <ele>1490.66</ele>
        <time>2019-02-04T11:14:46Z</time>
      </trkpt>
      <trkpt lat="46.20933" lon="6.4733">
        <ele>1491.14</ele>
        <time>2019-02-04T11:14:50Z</time>
      </trkpt>
      <trkpt lat="46.20935" lon="6.47338">
        <ele>1491.62</ele>
        <time>2019-02-04T11:15:02Z</time>
      </trkpt>
      <trkpt lat="46.20935" lon="6.47347">
        <ele>1491.62</ele>
        <time>2019-02-04T11:15:14Z</time>
      </trkpt>
      <trkpt lat="46.20934" lon="6.47354">
        <ele>1492.58</ele>
        <time>2019-02-04T11:15:26Z</time>
      </trkpt>
      <trkpt lat="46.20933" lon="6.47359">
        <ele>1493.06</ele>
        <time>2019-02-04T11:15:41Z</time>
      </trkpt>
      <trkpt lat="46.20933" lon="6.47362">
        <ele>1493.06</ele>
        <time>2019-02-04T11:15:56Z</time>
      </trkpt>
      <trkpt lat="46.20933" lon="6.47369">
        <ele>1494.99</ele>
        <time>2019-02-04T11:16:37Z</time>
      </trkpt>
      <trkpt lat="46.20936" lon="6.47367">
        <ele>1495.95</ele>
        <time>2019-02-04T11:16:51Z</time>
      </trkpt>
      <trkpt lat="46.20938" lon="6.47366">
        <ele>1497.39</ele>
        <time>2019-02-04T11:17:06Z</time>
      </trkpt>
      <trkpt lat="46.20939" lon="6.47366">
        <ele>1498.35</ele>
        <time>2019-02-04T11:17:28Z</time>
      </trkpt>
      <trkpt lat="46.2094" lon="6.47369">
        <ele>1499.31</ele>
        <time>2019-02-04T11:17:44Z</time>
      </trkpt>
      <trkpt lat="46.20941" lon="6.47372">
        <ele>1499.79</ele>
        <time>2019-02-04T11:18:03Z</time>
      </trkpt>
      <trkpt lat="46.20944" lon="6.47366">
        <ele>1500.27</ele>
        <time>2019-02-04T11:18:18Z</time>
      </trkpt>
      <trkpt lat="46.20946" lon="6.47362">
        <ele>1499.79</ele>
        <time>2019-02-04T11:18:30Z</time>
      </trkpt>
      <trkpt lat="46.20948" lon="6.47359">
        <ele>1500.27</ele>
        <time>2019-02-04T11:18:42Z</time>
      </trkpt>
      <trkpt lat="46.2095" lon="6.47358">
        <ele>1501.24</ele>
        <time>2019-02-04T11:19:02Z</time>
      </trkpt>
      <trkpt lat="46.20952" lon="6.47357">
        <ele>1502.2</ele>
        <time>2019-02-04T11:19:11Z</time>
      </trkpt>
      <trkpt lat="46.20952" lon="6.47359">
        <ele>1502.2</ele>
        <time>2019-02-04T11:19:27Z</time>
      </trkpt>
      <trkpt lat="46.20953" lon="6.4736">
        <ele>1502.2</ele>
        <time>2019-02-04T11:19:48Z</time>
      </trkpt>
      <trkpt lat="46.20953" lon="6.47365">
        <ele>1503.16</ele>
        <time>2019-02-04T11:20:08Z</time>
      </trkpt>
      <trkpt lat="46.20953" lon="6.47369">
        <ele>1504.12</ele>
        <time>2019-02-04T11:20:19Z</time>
      </trkpt>
      <trkpt lat="46.20956" lon="6.47365">
        <ele>1504.12</ele>
        <time>2019-02-04T11:20:32Z</time>
      </trkpt>
      <trkpt lat="46.20959" lon="6.4736">
        <ele>1505.56</ele>
        <time>2019-02-04T11:20:43Z</time>
      </trkpt>
      <trkpt lat="46.20959" lon="6.47358">
        <ele>1506.04</ele>
        <time>2019-02-04T11:20:58Z</time>
      </trkpt>
      <trkpt lat="46.2096" lon="6.47361">
        <ele>1507</ele>
        <time>2019-02-04T11:21:16Z</time>
      </trkpt>
      <trkpt lat="46.20961" lon="6.47364">
        <ele>1506.52</ele>
        <time>2019-02-04T11:21:36Z</time>
      </trkpt>
      <trkpt lat="46.2096" lon="6.47371">
        <ele>1507.48</ele>
        <time>2019-02-04T11:21:50Z</time>
      </trkpt>
      <trkpt lat="46.2096" lon="6.47374">
        <ele>1507.97</ele>
        <time>2019-02-04T11:22:05Z</time>
      </trkpt>
      <trkpt lat="46.20961" lon="6.47378">
        <ele>1508.93</ele>
        <time>2019-02-04T11:22:16Z</time>
      </trkpt>
      <trkpt lat="46.20961" lon="6.47385">
        <ele>1510.37</ele>
        <time>2019-02-04T11:22:27Z</time>
      </trkpt>
      <trkpt lat="46.20962" lon="6.47389">
        <ele>1511.33</ele>
        <time>2019-02-04T11:22:38Z</time>
      </trkpt>
      <trkpt lat="46.20965" lon="6.47386">
        <ele>1512.77</ele>
        <time>2019-02-04T11:22:49Z</time>
      </trkpt>
      <trkpt lat="46.20967" lon="6.47392">
        <ele>1514.21</ele>
        <time>2019-02-04T11:23:00Z</time>
      </trkpt>
      <trkpt lat="46.20968" lon="6.47398">
        <ele>1514.21</ele>
        <time>2019-02-04T11:23:11Z</time>
      </trkpt>
      <trkpt lat="46.20969" lon="6.47403">
        <ele>1514.69</ele>
        <time>2019-02-04T11:23:48Z</time>
      </trkpt>
      <trkpt lat="46.20971" lon="6.47413">
        <ele>1515.66</ele>
        <time>2019-02-04T11:24:01Z</time>
      </trkpt>
      <trkpt lat="46.20972" lon="6.47418">
        <ele>1515.66</ele>
        <time>2019-02-04T11:24:16Z</time>
      </trkpt>
      <trkpt lat="46.20973" lon="6.47424">
        <ele>1517.58</ele>
        <time>2019-02-04T11:24:27Z</time>
      </trkpt>
      <trkpt lat="46.20975" lon="6.4743">
        <ele>1518.54</ele>
        <time>2019-02-04T11:24:36Z</time>
      </trkpt>
      <trkpt lat="46.20978" lon="6.47435">
        <ele>1519.5</ele>
        <time>2019-02-04T11:24:48Z</time>
      </trkpt>
      <trkpt lat="46.2098" lon="6.4744">
        <ele>1519.5</ele>
        <time>2019-02-04T11:24:56Z</time>
      </trkpt>
      <trkpt lat="46.20984" lon="6.47446">
        <ele>1519.98</ele>
        <time>2019-02-04T11:25:06Z</time>
      </trkpt>
      <trkpt lat="46.20987" lon="6.47447">
        <ele>1522.39</ele>
        <time>2019-02-04T11:25:18Z</time>
      </trkpt>
      <trkpt lat="46.20988" lon="6.47441">
        <ele>1523.35</ele>
        <time>2019-02-04T11:25:29Z</time>
      </trkpt>
      <trkpt lat="46.20989" lon="6.47437">
        <ele>1524.79</ele>
        <time>2019-02-04T11:25:39Z</time>
      </trkpt>
      <trkpt lat="46.20991" lon="6.47431">
        <ele>1525.27</ele>
        <time>2019-02-04T11:25:50Z</time>
      </trkpt>
      <trkpt lat="46.20992" lon="6.47427">
        <ele>1526.23</ele>
        <time>2019-02-04T11:26:02Z</time>
      </trkpt>
      <trkpt lat="46.20994" lon="6.4742">
        <ele>1527.67</ele>
        <time>2019-02-04T11:26:22Z</time>
      </trkpt>
      <trkpt lat="46.20995" lon="6.47416">
        <ele>1528.15</ele>
        <time>2019-02-04T11:26:35Z</time>
      </trkpt>
      <trkpt lat="46.20998" lon="6.47408">
        <ele>1529.59</ele>
        <time>2019-02-04T11:26:46Z</time>
      </trkpt>
      <trkpt lat="46.20998" lon="6.47408">
        <ele>1529.59</ele>
        <time>2019-02-04T11:27:07Z</time>
      </trkpt>
      <trkpt lat="46.20999" lon="6.47407">
        <ele>1530.08</ele>
        <time>2019-02-04T11:28:12Z</time>
      </trkpt>
      <trkpt lat="46.21002" lon="6.47403">
        <ele>1531.04</ele>
        <time>2019-02-04T11:29:42Z</time>
      </trkpt>
      <trkpt lat="46.21006" lon="6.47407">
        <ele>1532.48</ele>
        <time>2019-02-04T11:29:52Z</time>
      </trkpt>
      <trkpt lat="46.21013" lon="6.47403">
        <ele>1534.4</ele>
        <time>2019-02-04T11:30:06Z</time>
      </trkpt>
      <trkpt lat="46.21017" lon="6.47401">
        <ele>1535.36</ele>
        <time>2019-02-04T11:30:16Z</time>
      </trkpt>
      <trkpt lat="46.2102" lon="6.47402">
        <ele>1537.29</ele>
        <time>2019-02-04T11:30:32Z</time>
      </trkpt>
      <trkpt lat="46.21026" lon="6.47403">
        <ele>1538.25</ele>
        <time>2019-02-04T11:30:42Z</time>
      </trkpt>
      <trkpt lat="46.2103" lon="6.47404">
        <ele>1539.69</ele>
        <time>2019-02-04T11:30:53Z</time>
      </trkpt>
      <trkpt lat="46.21036" lon="6.47406">
        <ele>1541.13</ele>
        <time>2019-02-04T11:31:04Z</time>
      </trkpt>
      <trkpt lat="46.21037" lon="6.47409">
        <ele>1541.13</ele>
        <time>2019-02-04T11:31:16Z</time>
      </trkpt>
      <trkpt lat="46.21042" lon="6.47409">
        <ele>1542.09</ele>
        <time>2019-02-04T11:32:02Z</time>
      </trkpt>
      <trkpt lat="46.21047" lon="6.47411">
        <ele>1542.57</ele>
        <time>2019-02-04T11:32:14Z</time>
      </trkpt>
      <trkpt lat="46.21053" lon="6.47414">
        <ele>1544.01</ele>
        <time>2019-02-04T11:32:25Z</time>
      </trkpt>
      <trkpt lat="46.21061" lon="6.47419">
        <ele>1544.98</ele>
        <time>2019-02-04T11:32:36Z</time>
      </trkpt>
      <trkpt lat="46.21066" lon="6.47423">
        <ele>1544.5</ele>
        <time>2019-02-04T11:32:48Z</time>
      </trkpt>
      <trkpt lat="46.21074" lon="6.47426">
        <ele>1546.42</ele>
        <time>2019-02-04T11:33:00Z</time>
      </trkpt>
      <trkpt lat="46.2108" lon="6.47426">
        <ele>1546.42</ele>
        <time>2019-02-04T11:33:10Z</time>
      </trkpt>
      <trkpt lat="46.21081" lon="6.47426">
        <ele>1546.9</ele>
        <time>2019-02-04T11:33:12Z</time>
      </trkpt>
      <trkpt lat="46.21088" lon="6.47428">
        <ele>1548.34</ele>
        <time>2019-02-04T11:33:23Z</time>
      </trkpt>
      <trkpt lat="46.21094" lon="6.47428">
        <ele>1548.82</ele>
        <time>2019-02-04T11:33:35Z</time>
      </trkpt>
      <trkpt lat="46.21098" lon="6.47429">
        <ele>1549.3</ele>
        <time>2019-02-04T11:33:45Z</time>
      </trkpt>
      <trkpt lat="46.21105" lon="6.4743">
        <ele>1551.22</ele>
        <time>2019-02-04T11:33:55Z</time>
      </trkpt>
      <trkpt lat="46.21109" lon="6.4743">
        <ele>1551.71</ele>
        <time>2019-02-04T11:34:08Z</time>
      </trkpt>
      <trkpt lat="46.21111" lon="6.4743">
        <ele>1553.15</ele>
        <time>2019-02-04T11:34:12Z</time>
      </trkpt>
      <trkpt lat="46.21117" lon="6.4743">
        <ele>1554.11</ele>
        <time>2019-02-04T11:34:23Z</time>
      </trkpt>
      <trkpt lat="46.21122" lon="6.47429">
        <ele>1555.07</ele>
        <time>2019-02-04T11:34:33Z</time>
      </trkpt>
      <trkpt lat="46.21127" lon="6.47429">
        <ele>1556.99</ele>
        <time>2019-02-04T11:34:48Z</time>
      </trkpt>
      <trkpt lat="46.21133" lon="6.4743">
        <ele>1557.95</ele>
        <time>2019-02-04T11:35:00Z</time>
      </trkpt>
      <trkpt lat="46.21135" lon="6.47431">
        <ele>1558.43</ele>
        <time>2019-02-04T11:35:15Z</time>
      </trkpt>
      <trkpt lat="46.21138" lon="6.47434">
        <ele>1560.36</ele>
        <time>2019-02-04T11:35:28Z</time>
      </trkpt>
      <trkpt lat="46.21141" lon="6.47439">
        <ele>1561.32</ele>
        <time>2019-02-04T11:35:37Z</time>
      </trkpt>
      <trkpt lat="46.21142" lon="6.47443">
        <ele>1562.76</ele>
        <time>2019-02-04T11:35:56Z</time>
      </trkpt>
      <trkpt lat="46.21142" lon="6.47443">
        <ele>1561.8</ele>
        <time>2019-02-04T11:38:40Z</time>
      </trkpt>
      <trkpt lat="46.21142" lon="6.47451">
        <ele>1562.76</ele>
        <time>2019-02-04T11:39:05Z</time>
      </trkpt>
      <trkpt lat="46.21142" lon="6.47456">
        <ele>1563.72</ele>
        <time>2019-02-04T11:39:18Z</time>
      </trkpt>
      <trkpt lat="46.21141" lon="6.47461">
        <ele>1565.16</ele>
        <time>2019-02-04T11:39:31Z</time>
      </trkpt>
      <trkpt lat="46.21142" lon="6.47464">
        <ele>1566.12</ele>
        <time>2019-02-04T11:39:45Z</time>
      </trkpt>
      <trkpt lat="46.21142" lon="6.47468">
        <ele>1567.57</ele>
        <time>2019-02-04T11:39:58Z</time>
      </trkpt>
      <trkpt lat="46.21143" lon="6.47471">
        <ele>1568.53</ele>
        <time>2019-02-04T11:40:09Z</time>
      </trkpt>
      <trkpt lat="46.21144" lon="6.47478">
        <ele>1570.45</ele>
        <time>2019-02-04T11:40:20Z</time>
      </trkpt>
      <trkpt lat="46.21145" lon="6.47485">
        <ele>1572.85</ele>
        <time>2019-02-04T11:40:33Z</time>
      </trkpt>
      <trkpt lat="46.21143" lon="6.47492">
        <ele>1572.85</ele>
        <time>2019-02-04T11:40:44Z</time>
      </trkpt>
      <trkpt lat="46.21142" lon="6.47497">
        <ele>1573.82</ele>
        <time>2019-02-04T11:40:52Z</time>
      </trkpt>
      <trkpt lat="46.21147" lon="6.47497">
        <ele>1573.82</ele>
        <time>2019-02-04T11:41:04Z</time>
      </trkpt>
      <trkpt lat="46.21151" lon="6.47494">
        <ele>1575.74</ele>
        <time>2019-02-04T11:41:20Z</time>
      </trkpt>
      <trkpt lat="46.21153" lon="6.47491">
        <ele>1576.7</ele>
        <time>2019-02-04T11:41:34Z</time>
      </trkpt>
      <trkpt lat="46.21155" lon="6.47486">
        <ele>1577.66</ele>
        <time>2019-02-04T11:41:46Z</time>
      </trkpt>
      <trkpt lat="46.21157" lon="6.47482">
        <ele>1578.62</ele>
        <time>2019-02-04T11:41:57Z</time>
      </trkpt>
      <trkpt lat="46.21161" lon="6.47472">
        <ele>1579.1</ele>
        <time>2019-02-04T11:42:10Z</time>
      </trkpt>
      <trkpt lat="46.21162" lon="6.47468">
        <ele>1580.54</ele>
        <time>2019-02-04T11:42:19Z</time>
      </trkpt>
      <trkpt lat="46.21166" lon="6.47457">
        <ele>1581.03</ele>
        <time>2019-02-04T11:42:31Z</time>
      </trkpt>
      <trkpt lat="46.2117" lon="6.47447">
        <ele>1581.03</ele>
        <time>2019-02-04T11:42:46Z</time>
      </trkpt>
      <trkpt lat="46.21173" lon="6.4744">
        <ele>1581.03</ele>
        <time>2019-02-04T11:42:57Z</time>
      </trkpt>
      <trkpt lat="46.21178" lon="6.47433">
        <ele>1580.54</ele>
        <time>2019-02-04T11:43:12Z</time>
      </trkpt>
      <trkpt lat="46.21178" lon="6.47432">
        <ele>1581.51</ele>
        <time>2019-02-04T11:43:28Z</time>
      </trkpt>
      <trkpt lat="46.21178" lon="6.47426">
        <ele>1581.51</ele>
        <time>2019-02-04T11:43:41Z</time>
      </trkpt>
      <trkpt lat="46.21179" lon="6.47423">
        <ele>1583.43</ele>
        <time>2019-02-04T11:43:54Z</time>
      </trkpt>
      <trkpt lat="46.2118" lon="6.47418">
        <ele>1584.39</ele>
        <time>2019-02-04T11:44:06Z</time>
      </trkpt>
      <trkpt lat="46.21179" lon="6.47417">
        <ele>1584.87</ele>
        <time>2019-02-04T11:44:56Z</time>
      </trkpt>
      <trkpt lat="46.21181" lon="6.47411">
        <ele>1583.91</ele>
        <time>2019-02-04T11:45:12Z</time>
      </trkpt>
      <trkpt lat="46.21181" lon="6.47409">
        <ele>1583.43</ele>
        <time>2019-02-04T11:46:17Z</time>
      </trkpt>
      <trkpt lat="46.21179" lon="6.47408">
        <ele>1582.95</ele>
        <time>2019-02-04T11:46:29Z</time>
      </trkpt>
      <trkpt lat="46.21178" lon="6.47407">
        <ele>1581.99</ele>
        <time>2019-02-04T11:47:06Z</time>
      </trkpt>
      <trkpt lat="46.21178" lon="6.47407">
        <ele>1582.47</ele>
        <time>2019-02-04T11:47:47Z</time>
      </trkpt>
      <trkpt lat="46.21179" lon="6.47409">
        <ele>1583.43</ele>
        <time>2019-02-04T11:48:02Z</time>
      </trkpt>
      <trkpt lat="46.21179" lon="6.4741">
        <ele>1583.43</ele>
        <time>2019-02-04T11:48:24Z</time>
      </trkpt>
      <trkpt lat="46.21179" lon="6.47408">
        <ele>1584.39</ele>
        <time>2019-02-04T11:48:49Z</time>
      </trkpt>
      <trkpt lat="46.2118" lon="6.47405">
        <ele>1583.43</ele>
        <time>2019-02-04T11:49:02Z</time>
      </trkpt>
      <trkpt lat="46.2118" lon="6.47405">
        <ele>1583.43</ele>
        <time>2019-02-04T11:49:41Z</time>
      </trkpt>
      <trkpt lat="46.21181" lon="6.47405">
        <ele>1582.47</ele>
        <time>2019-02-04T11:49:52Z</time>
      </trkpt>
      <trkpt lat="46.21181" lon="6.47406">
        <ele>1582.47</ele>
        <time>2019-02-04T11:50:13Z</time>
      </trkpt>
      <trkpt lat="46.21181" lon="6.47407">
        <ele>1581.99</ele>
        <time>2019-02-04T11:50:31Z</time>
      </trkpt>
      <trkpt lat="46.21181" lon="6.47406">
        <ele>1581.99</ele>
        <time>2019-02-04T11:51:28Z</time>
      </trkpt>
      <trkpt lat="46.21181" lon="6.47406">
        <ele>1581.99</ele>
        <time>2019-02-04T11:52:20Z</time>
      </trkpt>
      <trkpt lat="46.2118" lon="6.47405">
        <ele>1581.99</ele>
        <time>2019-02-04T11:53:32Z</time>
      </trkpt>
      <trkpt lat="46.2118" lon="6.47405">
        <ele>1581.51</ele>
        <time>2019-02-04T11:54:09Z</time>
      </trkpt>
      <trkpt lat="46.2118" lon="6.47405">
        <ele>1581.99</ele>
        <time>2019-02-04T11:54:33Z</time>
      </trkpt>
      <trkpt lat="46.2118" lon="6.47405">
        <ele>1581.03</ele>
        <time>2019-02-04T11:55:02Z</time>
      </trkpt>
      <trkpt lat="46.2118" lon="6.47408">
        <ele>1581.51</ele>
        <time>2019-02-04T11:55:22Z</time>
      </trkpt>
      <trkpt lat="46.2118" lon="6.47408">
        <ele>1581.03</ele>
        <time>2019-02-04T11:55:36Z</time>
      </trkpt>
      <trkpt lat="46.2118" lon="6.47408">
        <ele>1580.54</ele>
        <time>2019-02-04T11:55:53Z</time>
      </trkpt>
      <trkpt lat="46.2118" lon="6.47408">
        <ele>1579.1</ele>
        <time>2019-02-04T11:55:58Z</time>
      </trkpt>
      <trkpt lat="46.2118" lon="6.47411">
        <ele>1578.62</ele>
        <time>2019-02-04T11:56:13Z</time>
      </trkpt>
      <trkpt lat="46.2118" lon="6.47419">
        <ele>1577.18</ele>
        <time>2019-02-04T11:56:17Z</time>
      </trkpt>
      <trkpt lat="46.21181" lon="6.47432">
        <ele>1575.74</ele>
        <time>2019-02-04T11:56:30Z</time>
      </trkpt>
      <trkpt lat="46.21177" lon="6.47448">
        <ele>1573.82</ele>
        <time>2019-02-04T11:56:41Z</time>
      </trkpt>
      <trkpt lat="46.21177" lon="6.47449">
        <ele>1574.3</ele>
        <time>2019-02-04T11:56:42Z</time>
      </trkpt>
      <trkpt lat="46.21175" lon="6.47453">
        <ele>1573.82</ele>
        <time>2019-02-04T11:56:45Z</time>
      </trkpt>
      <trkpt lat="46.21171" lon="6.4747">
        <ele>1571.89</ele>
        <time>2019-02-04T11:56:58Z</time>
      </trkpt>
      <trkpt lat="46.21167" lon="6.47479">
        <ele>1572.37</ele>
        <time>2019-02-04T11:57:12Z</time>
      </trkpt>
      <trkpt lat="46.21164" lon="6.47484">
        <ele>1570.93</ele>
        <time>2019-02-04T11:57:25Z</time>
      </trkpt>
      <trkpt lat="46.21164" lon="6.47484">
        <ele>1570.45</ele>
        <time>2019-02-04T11:57:44Z</time>
      </trkpt>
      <trkpt lat="46.21164" lon="6.47485">
        <ele>1569.49</ele>
        <time>2019-02-04T11:57:55Z</time>
      </trkpt>
      <trkpt lat="46.21164" lon="6.47485">
        <ele>1568.53</ele>
        <time>2019-02-04T11:58:07Z</time>
      </trkpt>
      <trkpt lat="46.21164" lon="6.47485">
        <ele>1567.57</ele>
        <time>2019-02-04T11:58:21Z</time>
      </trkpt>
      <trkpt lat="46.21164" lon="6.47487">
        <ele>1567.09</ele>
        <time>2019-02-04T11:58:34Z</time>
      </trkpt>
      <trkpt lat="46.21164" lon="6.47487">
        <ele>1567.09</ele>
        <time>2019-02-04T11:58:46Z</time>
      </trkpt>
      <trkpt lat="46.21164" lon="6.47487">
        <ele>1566.61</ele>
        <time>2019-02-04T11:59:02Z</time>
      </trkpt>
      <trkpt lat="46.21166" lon="6.4749">
        <ele>1567.09</ele>
        <time>2019-02-04T11:59:18Z</time>
      </trkpt>
      <trkpt lat="46.21166" lon="6.4749">
        <ele>1567.09</ele>
        <time>2019-02-04T11:59:34Z</time>
      </trkpt>
      <trkpt lat="46.21166" lon="6.47491">
        <ele>1567.09</ele>
        <time>2019-02-04T12:00:06Z</time>
      </trkpt>
      <trkpt lat="46.21168" lon="6.47492">
        <ele>1565.64</ele>
        <time>2019-02-04T12:00:38Z</time>
      </trkpt>
      <trkpt lat="46.21171" lon="6.47498">
        <ele>1566.61</ele>
        <time>2019-02-04T12:02:09Z</time>
      </trkpt>
      <trkpt lat="46.21171" lon="6.47498">
        <ele>1565.64</ele>
        <time>2019-02-04T12:02:28Z</time>
      </trkpt>
      <trkpt lat="46.21171" lon="6.47498">
        <ele>1566.12</ele>
        <time>2019-02-04T12:03:23Z</time>
      </trkpt>
      <trkpt lat="46.21172" lon="6.47501">
        <ele>1565.64</ele>
        <time>2019-02-04T12:03:50Z</time>
      </trkpt>
      <trkpt lat="46.21171" lon="6.47504">
        <ele>1565.16</ele>
        <time>2019-02-04T12:04:31Z</time>
      </trkpt>
      <trkpt lat="46.21171" lon="6.47506">
        <ele>1565.64</ele>
        <time>2019-02-04T12:05:26Z</time>
      </trkpt>
      <trkpt lat="46.21173" lon="6.47507">
        <ele>1564.68</ele>
        <time>2019-02-04T12:06:16Z</time>
      </trkpt>
      <trkpt lat="46.21174" lon="6.47509">
        <ele>1564.68</ele>
        <time>2019-02-04T12:11:04Z</time>
      </trkpt>
      <trkpt lat="46.21174" lon="6.47509">
        <ele>1565.16</ele>
        <time>2019-02-04T12:23:13Z</time>
      </trkpt>
      <trkpt lat="46.21174" lon="6.47509">
        <ele>1564.68</ele>
        <time>2019-02-04T12:25:04Z</time>
      </trkpt>
      <trkpt lat="46.21173" lon="6.4751">
        <ele>1566.12</ele>
        <time>2019-02-04T12:25:40Z</time>
      </trkpt>
      <trkpt lat="46.21172" lon="6.47508">
        <ele>1566.12</ele>
        <time>2019-02-04T12:27:18Z</time>
      </trkpt>
      <trkpt lat="46.21171" lon="6.47511">
        <ele>1568.05</ele>
        <time>2019-02-04T12:38:02Z</time>
      </trkpt>
      <trkpt lat="46.21171" lon="6.4751">
        <ele>1568.05</ele>
        <time>2019-02-04T12:39:06Z</time>
      </trkpt>
      <trkpt lat="46.21171" lon="6.4751">
        <ele>1566.12</ele>
        <time>2019-02-04T12:39:08Z</time>
      </trkpt>
      <trkpt lat="46.21171" lon="6.4751">
        <ele>1568.05</ele>
        <time>2019-02-04T12:39:30Z</time>
      </trkpt>
      <trkpt lat="46.21171" lon="6.4751">
        <ele>1568.05</ele>
        <time>2019-02-04T12:40:17Z</time>
      </trkpt>
      <trkpt lat="46.21171" lon="6.4751">
        <ele>1568.53</ele>
        <time>2019-02-04T12:43:47Z</time>
      </trkpt>
      <trkpt lat="46.2117" lon="6.47511">
        <ele>1569.01</ele>
        <time>2019-02-04T12:44:23Z</time>
      </trkpt>
      <trkpt lat="46.21171" lon="6.4751">
        <ele>1568.05</ele>
        <time>2019-02-04T12:44:52Z</time>
      </trkpt>
      <trkpt lat="46.21171" lon="6.4751">
        <ele>1568.53</ele>
        <time>2019-02-04T12:45:07Z</time>
      </trkpt>
      <trkpt lat="46.21171" lon="6.4751">
        <ele>1568.05</ele>
        <time>2019-02-04T12:45:22Z</time>
      </trkpt>
      <trkpt lat="46.21169" lon="6.47509">
        <ele>1568.53</ele>
        <time>2019-02-04T12:45:39Z</time>
      </trkpt>
      <trkpt lat="46.21168" lon="6.47508">
        <ele>1569.49</ele>
        <time>2019-02-04T12:45:41Z</time>
      </trkpt>
      <trkpt lat="46.21162" lon="6.47499">
        <ele>1570.45</ele>
        <time>2019-02-04T12:45:52Z</time>
      </trkpt>
      <trkpt lat="46.21156" lon="6.47496">
        <ele>1571.89</ele>
        <time>2019-02-04T12:46:04Z</time>
      </trkpt>
      <trkpt lat="46.21151" lon="6.47498">
        <ele>1572.37</ele>
        <time>2019-02-04T12:46:14Z</time>
      </trkpt>
      <trkpt lat="46.21146" lon="6.47501">
        <ele>1572.37</ele>
        <time>2019-02-04T12:46:24Z</time>
      </trkpt>
      <trkpt lat="46.21146" lon="6.47501">
        <ele>1571.89</ele>
        <time>2019-02-04T12:46:52Z</time>
      </trkpt>
      <trkpt lat="46.21144" lon="6.47497">
        <ele>1572.85</ele>
        <time>2019-02-04T12:47:03Z</time>
      </trkpt>
      <trkpt lat="46.21144" lon="6.47487">
        <ele>1570.45</ele>
        <time>2019-02-04T12:47:15Z</time>
      </trkpt>
      <trkpt lat="46.21144" lon="6.47474">
        <ele>1567.09</ele>
        <time>2019-02-04T12:47:32Z</time>
      </trkpt>
      <trkpt lat="46.2114" lon="6.4747">
        <ele>1565.64</ele>
        <time>2019-02-04T12:47:39Z</time>
      </trkpt>
      <trkpt lat="46.21138" lon="6.47461">
        <ele>1562.28</ele>
        <time>2019-02-04T12:47:49Z</time>
      </trkpt>
      <trkpt lat="46.21132" lon="6.47456">
        <ele>1558.92</ele>
        <time>2019-02-04T12:48:01Z</time>
      </trkpt>
      <trkpt lat="46.21128" lon="6.47455">
        <ele>1557.47</ele>
        <time>2019-02-04T12:48:06Z</time>
      </trkpt>
      <trkpt lat="46.21123" lon="6.47454">
        <ele>1556.03</ele>
        <time>2019-02-04T12:48:10Z</time>
      </trkpt>
      <trkpt lat="46.21121" lon="6.47452">
        <ele>1555.55</ele>
        <time>2019-02-04T12:48:14Z</time>
      </trkpt>
      <trkpt lat="46.21115" lon="6.4745">
        <ele>1555.07</ele>
        <time>2019-02-04T12:48:20Z</time>
      </trkpt>
      <trkpt lat="46.21109" lon="6.47445">
        <ele>1551.71</ele>
        <time>2019-02-04T12:48:29Z</time>
      </trkpt>
      <trkpt lat="46.21106" lon="6.47444">
        <ele>1550.74</ele>
        <time>2019-02-04T12:48:33Z</time>
      </trkpt>
      <trkpt lat="46.21104" lon="6.47442">
        <ele>1549.78</ele>
        <time>2019-02-04T12:48:36Z</time>
      </trkpt>
      <trkpt lat="46.21095" lon="6.47434">
        <ele>1547.86</ele>
        <time>2019-02-04T12:48:49Z</time>
      </trkpt>
      <trkpt lat="46.21089" lon="6.47429">
        <ele>1547.38</ele>
        <time>2019-02-04T12:48:58Z</time>
      </trkpt>
      <trkpt lat="46.21086" lon="6.47428">
        <ele>1545.46</ele>
        <time>2019-02-04T12:49:09Z</time>
      </trkpt>
      <trkpt lat="46.21083" lon="6.47427">
        <ele>1545.94</ele>
        <time>2019-02-04T12:49:23Z</time>
      </trkpt>
      <trkpt lat="46.21082" lon="6.47427">
        <ele>1544.98</ele>
        <time>2019-02-04T12:49:34Z</time>
      </trkpt>
      <trkpt lat="46.21082" lon="6.47428">
        <ele>1545.94</ele>
        <time>2019-02-04T12:50:03Z</time>
      </trkpt>
      <trkpt lat="46.21077" lon="6.47423">
        <ele>1544.5</ele>
        <time>2019-02-04T12:50:16Z</time>
      </trkpt>
      <trkpt lat="46.21071" lon="6.47412">
        <ele>1542.09</ele>
        <time>2019-02-04T12:50:28Z</time>
      </trkpt>
      <trkpt lat="46.21065" lon="6.47404">
        <ele>1542.09</ele>
        <time>2019-02-04T12:50:40Z</time>
      </trkpt>
      <trkpt lat="46.2106" lon="6.47396">
        <ele>1542.09</ele>
        <time>2019-02-04T12:50:52Z</time>
      </trkpt>
      <trkpt lat="46.21055" lon="6.47389">
        <ele>1541.61</ele>
        <time>2019-02-04T12:51:07Z</time>
      </trkpt>
      <trkpt lat="46.21049" lon="6.47378">
        <ele>1541.61</ele>
        <time>2019-02-04T12:51:19Z</time>
      </trkpt>
      <trkpt lat="46.21044" lon="6.47369">
        <ele>1539.69</ele>
        <time>2019-02-04T12:51:32Z</time>
      </trkpt>
      <trkpt lat="46.21038" lon="6.47363">
        <ele>1537.77</ele>
        <time>2019-02-04T12:51:43Z</time>
      </trkpt>
      <trkpt lat="46.21034" lon="6.47361">
        <ele>1534.88</ele>
        <time>2019-02-04T12:52:01Z</time>
      </trkpt>
      <trkpt lat="46.21027" lon="6.47366">
        <ele>1534.88</ele>
        <time>2019-02-04T12:52:13Z</time>
      </trkpt>
      <trkpt lat="46.21022" lon="6.47371">
        <ele>1533.44</ele>
        <time>2019-02-04T12:52:26Z</time>
      </trkpt>
      <trkpt lat="46.21016" lon="6.47368">
        <ele>1531.52</ele>
        <time>2019-02-04T12:52:44Z</time>
      </trkpt>
      <trkpt lat="46.21014" lon="6.4736">
        <ele>1529.11</ele>
        <time>2019-02-04T12:52:55Z</time>
      </trkpt>
      <trkpt lat="46.2101" lon="6.47352">
        <ele>1526.23</ele>
        <time>2019-02-04T12:53:08Z</time>
      </trkpt>
      <trkpt lat="46.21011" lon="6.47346">
        <ele>1523.83</ele>
        <time>2019-02-04T12:53:21Z</time>
      </trkpt>
      <trkpt lat="46.2101" lon="6.47336">
        <ele>1520.46</ele>
        <time>2019-02-04T12:53:34Z</time>
      </trkpt>
      <trkpt lat="46.21008" lon="6.47331">
        <ele>1519.5</ele>
        <time>2019-02-04T12:53:39Z</time>
      </trkpt>
      <trkpt lat="46.21006" lon="6.47324">
        <ele>1517.58</ele>
        <time>2019-02-04T12:53:48Z</time>
      </trkpt>
      <trkpt lat="46.21003" lon="6.47313">
        <ele>1513.25</ele>
        <time>2019-02-04T12:54:00Z</time>
      </trkpt>
      <trkpt lat="46.21003" lon="6.47309">
        <ele>1512.29</ele>
        <time>2019-02-04T12:54:04Z</time>
      </trkpt>
      <trkpt lat="46.21002" lon="6.47306">
        <ele>1511.33</ele>
        <time>2019-02-04T12:54:08Z</time>
      </trkpt>
      <trkpt lat="46.21" lon="6.47301">
        <ele>1510.37</ele>
        <time>2019-02-04T12:54:18Z</time>
      </trkpt>
      <trkpt lat="46.20998" lon="6.47298">
        <ele>1508.45</ele>
        <time>2019-02-04T12:54:29Z</time>
      </trkpt>
      <trkpt lat="46.20998" lon="6.47299">
        <ele>1508.45</ele>
        <time>2019-02-04T12:55:05Z</time>
      </trkpt>
      <trkpt lat="46.20998" lon="6.47298">
        <ele>1507.97</ele>
        <time>2019-02-04T12:55:52Z</time>
      </trkpt>
      <trkpt lat="46.20998" lon="6.47299">
        <ele>1508.45</ele>
        <time>2019-02-04T12:57:33Z</time>
      </trkpt>
      <trkpt lat="46.20997" lon="6.47299">
        <ele>1507.48</ele>
        <time>2019-02-04T12:58:20Z</time>
      </trkpt>
      <trkpt lat="46.20997" lon="6.47297">
        <ele>1507.97</ele>
        <time>2019-02-04T12:58:25Z</time>
      </trkpt>
      <trkpt lat="46.20993" lon="6.47283">
        <ele>1506.52</ele>
        <time>2019-02-04T12:58:39Z</time>
      </trkpt>
      <trkpt lat="46.20989" lon="6.47273">
        <ele>1504.6</ele>
        <time>2019-02-04T12:58:52Z</time>
      </trkpt>
      <trkpt lat="46.20985" lon="6.47265">
        <ele>1502.68</ele>
        <time>2019-02-04T12:59:02Z</time>
      </trkpt>
      <trkpt lat="46.20985" lon="6.47264">
        <ele>1502.68</ele>
        <time>2019-02-04T12:59:03Z</time>
      </trkpt>
      <trkpt lat="46.20984" lon="6.47255">
        <ele>1501.24</ele>
        <time>2019-02-04T12:59:12Z</time>
      </trkpt>
      <trkpt lat="46.20984" lon="6.47252">
        <ele>1500.27</ele>
        <time>2019-02-04T12:59:14Z</time>
      </trkpt>
      <trkpt lat="46.20982" lon="6.47244">
        <ele>1497.87</ele>
        <time>2019-02-04T12:59:21Z</time>
      </trkpt>
      <trkpt lat="46.20981" lon="6.47243">
        <ele>1497.39</ele>
        <time>2019-02-04T12:59:23Z</time>
      </trkpt>
      <trkpt lat="46.2098" lon="6.47237">
        <ele>1494.99</ele>
        <time>2019-02-04T12:59:33Z</time>
      </trkpt>
      <trkpt lat="46.20976" lon="6.47231">
        <ele>1493.06</ele>
        <time>2019-02-04T12:59:43Z</time>
      </trkpt>
      <trkpt lat="46.20973" lon="6.47227">
        <ele>1489.7</ele>
        <time>2019-02-04T12:59:53Z</time>
      </trkpt>
      <trkpt lat="46.20969" lon="6.47222">
        <ele>1488.74</ele>
        <time>2019-02-04T13:00:00Z</time>
      </trkpt>
      <trkpt lat="46.20964" lon="6.47213">
        <ele>1487.78</ele>
        <time>2019-02-04T13:00:12Z</time>
      </trkpt>
      <trkpt lat="46.2096" lon="6.47202">
        <ele>1484.89</ele>
        <time>2019-02-04T13:00:25Z</time>
      </trkpt>
      <trkpt lat="46.20957" lon="6.47198">
        <ele>1483.93</ele>
        <time>2019-02-04T13:00:35Z</time>
      </trkpt>
      <trkpt lat="46.20957" lon="6.47198">
        <ele>1483.93</ele>
        <time>2019-02-04T13:00:36Z</time>
      </trkpt>
      <trkpt lat="46.20951" lon="6.47192">
        <ele>1480.57</ele>
        <time>2019-02-04T13:00:47Z</time>
      </trkpt>
      <trkpt lat="46.20948" lon="6.4719">
        <ele>1478.65</ele>
        <time>2019-02-04T13:00:57Z</time>
      </trkpt>
      <trkpt lat="46.20939" lon="6.47183">
        <ele>1475.28</ele>
        <time>2019-02-04T13:01:07Z</time>
      </trkpt>
      <trkpt lat="46.20934" lon="6.4718">
        <ele>1473.36</ele>
        <time>2019-02-04T13:01:16Z</time>
      </trkpt>
      <trkpt lat="46.20932" lon="6.47179">
        <ele>1471.92</ele>
        <time>2019-02-04T13:01:19Z</time>
      </trkpt>
      <trkpt lat="46.2093" lon="6.47178">
        <ele>1471.44</ele>
        <time>2019-02-04T13:01:28Z</time>
      </trkpt>
      <trkpt lat="46.2093" lon="6.47179">
        <ele>1470.95</ele>
        <time>2019-02-04T13:01:54Z</time>
      </trkpt>
      <trkpt lat="46.20925" lon="6.47178">
        <ele>1468.55</ele>
        <time>2019-02-04T13:02:20Z</time>
      </trkpt>
      <trkpt lat="46.20919" lon="6.47182">
        <ele>1467.59</ele>
        <time>2019-02-04T13:02:32Z</time>
      </trkpt>
      <trkpt lat="46.20919" lon="6.47182">
        <ele>1466.15</ele>
        <time>2019-02-04T13:03:00Z</time>
      </trkpt>
      <trkpt lat="46.20917" lon="6.47183">
        <ele>1465.19</ele>
        <time>2019-02-04T13:03:44Z</time>
      </trkpt>
      <trkpt lat="46.20916" lon="6.47184">
        <ele>1465.19</ele>
        <time>2019-02-04T13:04:02Z</time>
      </trkpt>
      <trkpt lat="46.20906" lon="6.4718">
        <ele>1463.26</ele>
        <time>2019-02-04T13:04:17Z</time>
      </trkpt>
      <trkpt lat="46.20905" lon="6.47178">
        <ele>1460.86</ele>
        <time>2019-02-04T13:04:34Z</time>
      </trkpt>
      <trkpt lat="46.20903" lon="6.47171">
        <ele>1459.9</ele>
        <time>2019-02-04T13:04:47Z</time>
      </trkpt>
      <trkpt lat="46.20897" lon="6.47171">
        <ele>1459.9</ele>
        <time>2019-02-04T13:06:20Z</time>
      </trkpt>
      <trkpt lat="46.20896" lon="6.47169">
        <ele>1459.42</ele>
        <time>2019-02-04T13:06:36Z</time>
      </trkpt>
      <trkpt lat="46.20895" lon="6.47167">
        <ele>1459.42</ele>
        <time>2019-02-04T13:07:28Z</time>
      </trkpt>
      <trkpt lat="46.20894" lon="6.47166">
        <ele>1457.98</ele>
        <time>2019-02-04T13:07:59Z</time>
      </trkpt>
      <trkpt lat="46.20893" lon="6.47166">
        <ele>1458.46</ele>
        <time>2019-02-04T13:10:02Z</time>
      </trkpt>
      <trkpt lat="46.20893" lon="6.47167">
        <ele>1459.42</ele>
        <time>2019-02-04T13:10:48Z</time>
      </trkpt>
      <trkpt lat="46.20892" lon="6.47166">
        <ele>1459.9</ele>
        <time>2019-02-04T13:12:39Z</time>
      </trkpt>
      <trkpt lat="46.20892" lon="6.47166">
        <ele>1459.9</ele>
        <time>2019-02-04T13:13:49Z</time>
      </trkpt>
      <trkpt lat="46.20892" lon="6.47165">
        <ele>1459.42</ele>
        <time>2019-02-04T13:15:11Z</time>
      </trkpt>
      <trkpt lat="46.20888" lon="6.47164">
        <ele>1458.94</ele>
        <time>2019-02-04T13:15:24Z</time>
      </trkpt>
      <trkpt lat="46.20883" lon="6.47163">
        <ele>1457.5</ele>
        <time>2019-02-04T13:15:35Z</time>
      </trkpt>
      <trkpt lat="46.20879" lon="6.47162">
        <ele>1456.05</ele>
        <time>2019-02-04T13:15:44Z</time>
      </trkpt>
      <trkpt lat="46.20873" lon="6.47163">
        <ele>1453.65</ele>
        <time>2019-02-04T13:15:57Z</time>
      </trkpt>
      <trkpt lat="46.20867" lon="6.47165">
        <ele>1451.73</ele>
        <time>2019-02-04T13:16:08Z</time>
      </trkpt>
      <trkpt lat="46.20861" lon="6.47164">
        <ele>1450.29</ele>
        <time>2019-02-04T13:16:19Z</time>
      </trkpt>
      <trkpt lat="46.20857" lon="6.47165">
        <ele>1448.36</ele>
        <time>2019-02-04T13:16:28Z</time>
      </trkpt>
      <trkpt lat="46.20849" lon="6.47167">
        <ele>1446.44</ele>
        <time>2019-02-04T13:16:39Z</time>
      </trkpt>
      <trkpt lat="46.20843" lon="6.47171">
        <ele>1445</ele>
        <time>2019-02-04T13:16:50Z</time>
      </trkpt>
      <trkpt lat="46.20833" lon="6.47174">
        <ele>1442.6</ele>
        <time>2019-02-04T13:17:03Z</time>
      </trkpt>
      <trkpt lat="46.2083" lon="6.47175">
        <ele>1442.11</ele>
        <time>2019-02-04T13:17:07Z</time>
      </trkpt>
      <trkpt lat="46.20823" lon="6.47179">
        <ele>1440.67</ele>
        <time>2019-02-04T13:17:21Z</time>
      </trkpt>
      <trkpt lat="46.2082" lon="6.47179">
        <ele>1440.19</ele>
        <time>2019-02-04T13:17:51Z</time>
      </trkpt>
      <trkpt lat="46.20813" lon="6.47181">
        <ele>1438.75</ele>
        <time>2019-02-04T13:18:03Z</time>
      </trkpt>
      <trkpt lat="46.20804" lon="6.47182">
        <ele>1435.87</ele>
        <time>2019-02-04T13:18:14Z</time>
      </trkpt>
      <trkpt lat="46.20799" lon="6.47184">
        <ele>1435.39</ele>
        <time>2019-02-04T13:18:21Z</time>
      </trkpt>
      <trkpt lat="46.20789" lon="6.47186">
        <ele>1433.46</ele>
        <time>2019-02-04T13:18:35Z</time>
      </trkpt>
      <trkpt lat="46.20783" lon="6.47187">
        <ele>1431.54</ele>
        <time>2019-02-04T13:18:48Z</time>
      </trkpt>
      <trkpt lat="46.20774" lon="6.47188">
        <ele>1430.1</ele>
        <time>2019-02-04T13:19:00Z</time>
      </trkpt>
      <trkpt lat="46.20771" lon="6.47188">
        <ele>1429.62</ele>
        <time>2019-02-04T13:19:04Z</time>
      </trkpt>
      <trkpt lat="46.2076" lon="6.47188">
        <ele>1427.7</ele>
        <time>2019-02-04T13:19:17Z</time>
      </trkpt>
      <trkpt lat="46.20754" lon="6.47189">
        <ele>1426.73</ele>
        <time>2019-02-04T13:19:27Z</time>
      </trkpt>
      <trkpt lat="46.20751" lon="6.47189">
        <ele>1426.25</ele>
        <time>2019-02-04T13:19:31Z</time>
      </trkpt>
      <trkpt lat="46.20743" lon="6.47191">
        <ele>1424.81</ele>
        <time>2019-02-04T13:19:43Z</time>
      </trkpt>
      <trkpt lat="46.20733" lon="6.47193">
        <ele>1423.85</ele>
        <time>2019-02-04T13:19:55Z</time>
      </trkpt>
      <trkpt lat="46.20726" lon="6.47194">
        <ele>1423.37</ele>
        <time>2019-02-04T13:20:02Z</time>
      </trkpt>
      <trkpt lat="46.20718" lon="6.47196">
        <ele>1422.89</ele>
        <time>2019-02-04T13:20:14Z</time>
      </trkpt>
      <trkpt lat="46.20715" lon="6.47197">
        <ele>1422.89</ele>
        <time>2019-02-04T13:20:17Z</time>
      </trkpt>
      <trkpt lat="46.2071" lon="6.47196">
        <ele>1422.41</ele>
        <time>2019-02-04T13:20:24Z</time>
      </trkpt>
      <trkpt lat="46.20706" lon="6.47197">
        <ele>1422.41</ele>
        <time>2019-02-04T13:20:28Z</time>
      </trkpt>
      <trkpt lat="46.20705" lon="6.47196">
        <ele>1422.41</ele>
        <time>2019-02-04T13:20:30Z</time>
      </trkpt>
      <trkpt lat="46.20694" lon="6.472">
        <ele>1421.45</ele>
        <time>2019-02-04T13:20:43Z</time>
      </trkpt>
      <trkpt lat="46.20687" lon="6.47203">
        <ele>1421.93</ele>
        <time>2019-02-04T13:20:54Z</time>
      </trkpt>
      <trkpt lat="46.20679" lon="6.47204">
        <ele>1420.49</ele>
        <time>2019-02-04T13:21:08Z</time>
      </trkpt>
      <trkpt lat="46.20667" lon="6.47205">
        <ele>1420</ele>
        <time>2019-02-04T13:21:22Z</time>
      </trkpt>
      <trkpt lat="46.20664" lon="6.47207">
        <ele>1418.08</ele>
        <time>2019-02-04T13:21:33Z</time>
      </trkpt>
      <trkpt lat="46.20661" lon="6.47207">
        <ele>1418.08</ele>
        <time>2019-02-04T13:21:37Z</time>
      </trkpt>
      <trkpt lat="46.2065" lon="6.47206">
        <ele>1416.64</ele>
        <time>2019-02-04T13:21:50Z</time>
      </trkpt>
      <trkpt lat="46.20644" lon="6.47206">
        <ele>1416.16</ele>
        <time>2019-02-04T13:21:59Z</time>
      </trkpt>
      <trkpt lat="46.20635" lon="6.47207">
        <ele>1415.2</ele>
        <time>2019-02-04T13:22:10Z</time>
      </trkpt>
      <trkpt lat="46.20628" lon="6.47207">
        <ele>1415.2</ele>
        <time>2019-02-04T13:22:18Z</time>
      </trkpt>
      <trkpt lat="46.20627" lon="6.47207">
        <ele>1414.72</ele>
        <time>2019-02-04T13:22:20Z</time>
      </trkpt>
      <trkpt lat="46.20622" lon="6.47208">
        <ele>1414.72</ele>
        <time>2019-02-04T13:22:25Z</time>
      </trkpt>
      <trkpt lat="46.20613" lon="6.47208">
        <ele>1413.76</ele>
        <time>2019-02-04T13:22:37Z</time>
      </trkpt>
      <trkpt lat="46.20613" lon="6.47208">
        <ele>1413.28</ele>
        <time>2019-02-04T13:22:54Z</time>
      </trkpt>
      <trkpt lat="46.20605" lon="6.47208">
        <ele>1412.31</ele>
        <time>2019-02-04T13:23:21Z</time>
      </trkpt>
      <trkpt lat="46.20598" lon="6.47207">
        <ele>1411.35</ele>
        <time>2019-02-04T13:23:31Z</time>
      </trkpt>
      <trkpt lat="46.20588" lon="6.47208">
        <ele>1408.47</ele>
        <time>2019-02-04T13:23:44Z</time>
      </trkpt>
      <trkpt lat="46.20581" lon="6.4721">
        <ele>1406.55</ele>
        <time>2019-02-04T13:23:56Z</time>
      </trkpt>
      <trkpt lat="46.20576" lon="6.4722">
        <ele>1404.14</ele>
        <time>2019-02-04T13:24:09Z</time>
      </trkpt>
      <trkpt lat="46.20572" lon="6.47226">
        <ele>1402.7</ele>
        <time>2019-02-04T13:24:22Z</time>
      </trkpt>
      <trkpt lat="46.2057" lon="6.4723">
        <ele>1403.18</ele>
        <time>2019-02-04T13:24:27Z</time>
      </trkpt>
      <trkpt lat="46.20564" lon="6.4724">
        <ele>1402.22</ele>
        <time>2019-02-04T13:24:39Z</time>
      </trkpt>
      <trkpt lat="46.20564" lon="6.4724">
        <ele>1402.22</ele>
        <time>2019-02-04T13:24:40Z</time>
      </trkpt>
      <trkpt lat="46.20559" lon="6.47245">
        <ele>1402.22</ele>
        <time>2019-02-04T13:24:51Z</time>
      </trkpt>
      <trkpt lat="46.20555" lon="6.47253">
        <ele>1402.22</ele>
        <time>2019-02-04T13:25:03Z</time>
      </trkpt>
      <trkpt lat="46.20551" lon="6.47258">
        <ele>1402.22</ele>
        <time>2019-02-04T13:25:12Z</time>
      </trkpt>
      <trkpt lat="46.2055" lon="6.47257">
        <ele>1402.7</ele>
        <time>2019-02-04T13:25:13Z</time>
      </trkpt>
      <trkpt lat="46.20541" lon="6.47253">
        <ele>1402.22</ele>
        <time>2019-02-04T13:25:26Z</time>
      </trkpt>
      <trkpt lat="46.20534" lon="6.4726">
        <ele>1401.74</ele>
        <time>2019-02-04T13:25:39Z</time>
      </trkpt>
      <trkpt lat="46.20528" lon="6.47256">
        <ele>1399.82</ele>
        <time>2019-02-04T13:25:49Z</time>
      </trkpt>
      <trkpt lat="46.20521" lon="6.47249">
        <ele>1399.34</ele>
        <time>2019-02-04T13:25:58Z</time>
      </trkpt>
      <trkpt lat="46.20519" lon="6.47247">
        <ele>1398.86</ele>
        <time>2019-02-04T13:26:01Z</time>
      </trkpt>
      <trkpt lat="46.20517" lon="6.47245">
        <ele>1398.86</ele>
        <time>2019-02-04T13:26:05Z</time>
      </trkpt>
      <trkpt lat="46.20511" lon="6.47241">
        <ele>1397.41</ele>
        <time>2019-02-04T13:26:12Z</time>
      </trkpt>
      <trkpt lat="46.20503" lon="6.47238">
        <ele>1396.45</ele>
        <time>2019-02-04T13:26:25Z</time>
      </trkpt>
      <trkpt lat="46.20503" lon="6.47238">
        <ele>1396.45</ele>
        <time>2019-02-04T13:26:59Z</time>
      </trkpt>
      <trkpt lat="46.20503" lon="6.47237">
        <ele>1395.97</ele>
        <time>2019-02-04T13:27:56Z</time>
      </trkpt>
      <trkpt lat="46.20503" lon="6.47238">
        <ele>1448.36</ele>
        <time>2019-02-04T13:28:37Z</time>
      </trkpt>
      <trkpt lat="46.20503" lon="6.47238">
        <ele>1338.77</ele>
        <time>2019-02-04T13:28:38Z</time>
      </trkpt>
      <trkpt lat="46.20503" lon="6.47238">
        <ele>1337.81</ele>
        <time>2019-02-04T13:28:39Z</time>
      </trkpt>
      <trkpt lat="46.2051" lon="6.47238">
        <ele>1338.77</ele>
        <time>2019-02-04T13:28:45Z</time>
      </trkpt>
      <trkpt lat="46.20505" lon="6.47233">
        <ele>1342.62</ele>
        <time>2019-02-04T13:28:51Z</time>
      </trkpt>
      <trkpt lat="46.20505" lon="6.47233">
        <ele>1346.46</ele>
        <time>2019-02-04T13:28:53Z</time>
      </trkpt>
      <trkpt lat="46.20506" lon="6.47232">
        <ele>1349.83</ele>
        <time>2019-02-04T13:28:55Z</time>
      </trkpt>
      <trkpt lat="46.20505" lon="6.47233">
        <ele>1353.67</ele>
        <time>2019-02-04T13:28:57Z</time>
      </trkpt>
      <trkpt lat="46.20505" lon="6.47233">
        <ele>1356.56</ele>
        <time>2019-02-04T13:28:59Z</time>
      </trkpt>
      <trkpt lat="46.20505" lon="6.47233">
        <ele>1360.4</ele>
        <time>2019-02-04T13:29:01Z</time>
      </trkpt>
      <trkpt lat="46.20504" lon="6.47233">
        <ele>1363.29</ele>
        <time>2019-02-04T13:29:04Z</time>
      </trkpt>
      <trkpt lat="46.20504" lon="6.47234">
        <ele>1366.17</ele>
        <time>2019-02-04T13:29:06Z</time>
      </trkpt>
      <trkpt lat="46.20503" lon="6.47234">
        <ele>1370.02</ele>
        <time>2019-02-04T13:29:09Z</time>
      </trkpt>
      <trkpt lat="46.20503" lon="6.47233">
        <ele>1373.86</ele>
        <time>2019-02-04T13:29:13Z</time>
      </trkpt>
      <trkpt lat="46.20503" lon="6.47233">
        <ele>1377.23</ele>
        <time>2019-02-04T13:29:16Z</time>
      </trkpt>
      <trkpt lat="46.20503" lon="6.47235">
        <ele>1380.11</ele>
        <time>2019-02-04T13:29:20Z</time>
      </trkpt>
      <trkpt lat="46.20504" lon="6.47235">
        <ele>1383.47</ele>
        <time>2019-02-04T13:29:24Z</time>
      </trkpt>
      <trkpt lat="46.20504" lon="6.47236">
        <ele>1387.32</ele>
        <time>2019-02-04T13:29:30Z</time>
      </trkpt>
      <trkpt lat="46.20504" lon="6.47237">
        <ele>1388.76</ele>
        <time>2019-02-04T13:29:34Z</time>
      </trkpt>
      <trkpt lat="46.20503" lon="6.47238">
        <ele>1391.65</ele>
        <time>2019-02-04T13:29:42Z</time>
      </trkpt>
      <trkpt lat="46.20502" lon="6.47239">
        <ele>1395.01</ele>
        <time>2019-02-04T13:29:55Z</time>
      </trkpt>
      <trkpt lat="46.20503" lon="6.47238">
        <ele>1397.89</ele>
        <time>2019-02-04T13:30:10Z</time>
      </trkpt>
      <trkpt lat="46.20503" lon="6.47237">
        <ele>1400.78</ele>
        <time>2019-02-04T13:30:56Z</time>
      </trkpt>
      <trkpt lat="46.20503" lon="6.47236">
        <ele>1400.3</ele>
        <time>2019-02-04T13:31:20Z</time>
      </trkpt>
      <trkpt lat="46.20502" lon="6.47236">
        <ele>1400.78</ele>
        <time>2019-02-04T13:32:24Z</time>
      </trkpt>
      <trkpt lat="46.20503" lon="6.47243">
        <ele>1400.78</ele>
        <time>2019-02-04T13:33:37Z</time>
      </trkpt>
      <trkpt lat="46.20505" lon="6.47251">
        <ele>1402.7</ele>
        <time>2019-02-04T13:33:46Z</time>
      </trkpt>
      <trkpt lat="46.20506" lon="6.47262">
        <ele>1403.66</ele>
        <time>2019-02-04T13:33:58Z</time>
      </trkpt>
      <trkpt lat="46.20507" lon="6.4727">
        <ele>1405.1</ele>
        <time>2019-02-04T13:34:09Z</time>
      </trkpt>
      <trkpt lat="46.20509" lon="6.4728">
        <ele>1406.07</ele>
        <time>2019-02-04T13:34:20Z</time>
      </trkpt>
      <trkpt lat="46.20509" lon="6.47288">
        <ele>1407.03</ele>
        <time>2019-02-04T13:34:30Z</time>
      </trkpt>
      <trkpt lat="46.20511" lon="6.47298">
        <ele>1407.51</ele>
        <time>2019-02-04T13:34:40Z</time>
      </trkpt>
      <trkpt lat="46.20512" lon="6.47309">
        <ele>1408.47</ele>
        <time>2019-02-04T13:34:54Z</time>
      </trkpt>
      <trkpt lat="46.20512" lon="6.47312">
        <ele>1408.47</ele>
        <time>2019-02-04T13:34:56Z</time>
      </trkpt>
      <trkpt lat="46.20512" lon="6.47324">
        <ele>1409.43</ele>
        <time>2019-02-04T13:35:05Z</time>
      </trkpt>
      <trkpt lat="46.20514" lon="6.47337">
        <ele>1408.95</ele>
        <time>2019-02-04T13:35:17Z</time>
      </trkpt>
      <trkpt lat="46.20514" lon="6.47349">
        <ele>1409.91</ele>
        <time>2019-02-04T13:35:29Z</time>
      </trkpt>
      <trkpt lat="46.20515" lon="6.4736">
        <ele>1409.43</ele>
        <time>2019-02-04T13:35:38Z</time>
      </trkpt>
      <trkpt lat="46.20516" lon="6.47368">
        <ele>1409.91</ele>
        <time>2019-02-04T13:35:47Z</time>
      </trkpt>
      <trkpt lat="46.20525" lon="6.47381">
        <ele>1408.95</ele>
        <time>2019-02-04T13:36:02Z</time>
      </trkpt>
      <trkpt lat="46.2053" lon="6.47394">
        <ele>1408.95</ele>
        <time>2019-02-04T13:36:15Z</time>
      </trkpt>
      <trkpt lat="46.20531" lon="6.47397">
        <ele>1408.47</ele>
        <time>2019-02-04T13:36:19Z</time>
      </trkpt>
      <trkpt lat="46.20531" lon="6.474">
        <ele>1408.47</ele>
        <time>2019-02-04T13:36:21Z</time>
      </trkpt>
      <trkpt lat="46.20537" lon="6.47414">
        <ele>1408.47</ele>
        <time>2019-02-04T13:36:34Z</time>
      </trkpt>
      <trkpt lat="46.20544" lon="6.4743">
        <ele>1407.03</ele>
        <time>2019-02-04T13:36:48Z</time>
      </trkpt>
      <trkpt lat="46.20545" lon="6.47432">
        <ele>1407.03</ele>
        <time>2019-02-04T13:36:50Z</time>
      </trkpt>
      <trkpt lat="46.20549" lon="6.4744">
        <ele>1406.55</ele>
        <time>2019-02-04T13:36:57Z</time>
      </trkpt>
      <trkpt lat="46.20555" lon="6.47455">
        <ele>1406.07</ele>
        <time>2019-02-04T13:37:10Z</time>
      </trkpt>
      <trkpt lat="46.20561" lon="6.47472">
        <ele>1405.1</ele>
        <time>2019-02-04T13:37:23Z</time>
      </trkpt>
      <trkpt lat="46.20565" lon="6.47488">
        <ele>1404.14</ele>
        <time>2019-02-04T13:37:36Z</time>
      </trkpt>
      <trkpt lat="46.2057" lon="6.47501">
        <ele>1402.7</ele>
        <time>2019-02-04T13:37:48Z</time>
      </trkpt>
      <trkpt lat="46.20573" lon="6.47513">
        <ele>1402.7</ele>
        <time>2019-02-04T13:37:59Z</time>
      </trkpt>
      <trkpt lat="46.20574" lon="6.47521">
        <ele>1402.22</ele>
        <time>2019-02-04T13:38:06Z</time>
      </trkpt>
      <trkpt lat="46.20575" lon="6.47525">
        <ele>1402.22</ele>
        <time>2019-02-04T13:38:09Z</time>
      </trkpt>
      <trkpt lat="46.20577" lon="6.4754">
        <ele>1401.26</ele>
        <time>2019-02-04T13:38:20Z</time>
      </trkpt>
      <trkpt lat="46.20579" lon="6.47551">
        <ele>1401.26</ele>
        <time>2019-02-04T13:38:28Z</time>
      </trkpt>
      <trkpt lat="46.20579" lon="6.47553">
        <ele>1400.78</ele>
        <time>2019-02-04T13:38:30Z</time>
      </trkpt>
      <trkpt lat="46.2058" lon="6.47559">
        <ele>1400.78</ele>
        <time>2019-02-04T13:38:34Z</time>
      </trkpt>
      <trkpt lat="46.2058" lon="6.47571">
        <ele>1399.82</ele>
        <time>2019-02-04T13:38:44Z</time>
      </trkpt>
      <trkpt lat="46.20579" lon="6.47589">
        <ele>1399.34</ele>
        <time>2019-02-04T13:38:57Z</time>
      </trkpt>
      <trkpt lat="46.20579" lon="6.47594">
        <ele>1398.86</ele>
        <time>2019-02-04T13:39:01Z</time>
      </trkpt>
      <trkpt lat="46.20578" lon="6.47602">
        <ele>1398.37</ele>
        <time>2019-02-04T13:39:08Z</time>
      </trkpt>
      <trkpt lat="46.20575" lon="6.4762">
        <ele>1397.41</ele>
        <time>2019-02-04T13:39:22Z</time>
      </trkpt>
      <trkpt lat="46.20575" lon="6.47622">
        <ele>1397.41</ele>
        <time>2019-02-04T13:39:24Z</time>
      </trkpt>
      <trkpt lat="46.20574" lon="6.47638">
        <ele>1396.93</ele>
        <time>2019-02-04T13:39:36Z</time>
      </trkpt>
      <trkpt lat="46.20572" lon="6.47646">
        <ele>1395.97</ele>
        <time>2019-02-04T13:39:43Z</time>
      </trkpt>
      <trkpt lat="46.2057" lon="6.47661">
        <ele>1395.49</ele>
        <time>2019-02-04T13:39:54Z</time>
      </trkpt>
      <trkpt lat="46.20569" lon="6.47679">
        <ele>1395.01</ele>
        <time>2019-02-04T13:40:08Z</time>
      </trkpt>
      <trkpt lat="46.20569" lon="6.47699">
        <ele>1394.05</ele>
        <time>2019-02-04T13:40:22Z</time>
      </trkpt>
      <trkpt lat="46.20569" lon="6.4771">
        <ele>1393.57</ele>
        <time>2019-02-04T13:40:31Z</time>
      </trkpt>
      <trkpt lat="46.20568" lon="6.47717">
        <ele>1394.05</ele>
        <time>2019-02-04T13:40:37Z</time>
      </trkpt>
      <trkpt lat="46.20568" lon="6.4772">
        <ele>1393.57</ele>
        <time>2019-02-04T13:40:39Z</time>
      </trkpt>
      <trkpt lat="46.20566" lon="6.47736">
        <ele>1393.09</ele>
        <time>2019-02-04T13:40:51Z</time>
      </trkpt>
      <trkpt lat="46.20565" lon="6.47751">
        <ele>1393.09</ele>
        <time>2019-02-04T13:41:02Z</time>
      </trkpt>
      <trkpt lat="46.20564" lon="6.47754">
        <ele>1392.61</ele>
        <time>2019-02-04T13:41:04Z</time>
      </trkpt>
      <trkpt lat="46.20564" lon="6.47768">
        <ele>1392.13</ele>
        <time>2019-02-04T13:41:19Z</time>
      </trkpt>
      <trkpt lat="46.20564" lon="6.47771">
        <ele>1392.13</ele>
        <time>2019-02-04T13:41:28Z</time>
      </trkpt>
      <trkpt lat="46.20564" lon="6.47773">
        <ele>1391.65</ele>
        <time>2019-02-04T13:41:30Z</time>
      </trkpt>
      <trkpt lat="46.20563" lon="6.47778">
        <ele>1391.65</ele>
        <time>2019-02-04T13:41:34Z</time>
      </trkpt>
      <trkpt lat="46.20563" lon="6.47781">
        <ele>1391.65</ele>
        <time>2019-02-04T13:41:36Z</time>
      </trkpt>
      <trkpt lat="46.20562" lon="6.47796">
        <ele>1390.68</ele>
        <time>2019-02-04T13:41:47Z</time>
      </trkpt>
      <trkpt lat="46.20562" lon="6.47799">
        <ele>1390.68</ele>
        <time>2019-02-04T13:41:49Z</time>
      </trkpt>
      <trkpt lat="46.20562" lon="6.47819">
        <ele>1389.72</ele>
        <time>2019-02-04T13:42:05Z</time>
      </trkpt>
      <trkpt lat="46.20562" lon="6.47823">
        <ele>1389.24</ele>
        <time>2019-02-04T13:42:08Z</time>
      </trkpt>
      <trkpt lat="46.20564" lon="6.47848">
        <ele>1388.28</ele>
        <time>2019-02-04T13:42:26Z</time>
      </trkpt>
      <trkpt lat="46.20564" lon="6.47849">
        <ele>1387.8</ele>
        <time>2019-02-04T13:42:27Z</time>
      </trkpt>
      <trkpt lat="46.20566" lon="6.4786">
        <ele>1386.84</ele>
        <time>2019-02-04T13:42:36Z</time>
      </trkpt>
      <trkpt lat="46.20568" lon="6.47875">
        <ele>1385.88</ele>
        <time>2019-02-04T13:42:49Z</time>
      </trkpt>
      <trkpt lat="46.2057" lon="6.47886">
        <ele>1385.4</ele>
        <time>2019-02-04T13:43:01Z</time>
      </trkpt>
      <trkpt lat="46.20569" lon="6.47898">
        <ele>1383.96</ele>
        <time>2019-02-04T13:43:15Z</time>
      </trkpt>
      <trkpt lat="46.20566" lon="6.47908">
        <ele>1382.51</ele>
        <time>2019-02-04T13:43:27Z</time>
      </trkpt>
      <trkpt lat="46.20562" lon="6.47919">
        <ele>1380.59</ele>
        <time>2019-02-04T13:43:39Z</time>
      </trkpt>
      <trkpt lat="46.20556" lon="6.47929">
        <ele>1380.11</ele>
        <time>2019-02-04T13:43:50Z</time>
      </trkpt>
      <trkpt lat="46.20545" lon="6.47929">
        <ele>1380.59</ele>
        <time>2019-02-04T13:44:02Z</time>
      </trkpt>
      <trkpt lat="46.20537" lon="6.4793">
        <ele>1380.59</ele>
        <time>2019-02-04T13:44:11Z</time>
      </trkpt>
      <trkpt lat="46.20534" lon="6.47929">
        <ele>1380.59</ele>
        <time>2019-02-04T13:44:14Z</time>
      </trkpt>
      <trkpt lat="46.20524" lon="6.47928">
        <ele>1381.07</ele>
        <time>2019-02-04T13:44:27Z</time>
      </trkpt>
      <trkpt lat="46.20516" lon="6.4793">
        <ele>1381.55</ele>
        <time>2019-02-04T13:44:37Z</time>
      </trkpt>
      <trkpt lat="46.20507" lon="6.47932">
        <ele>1381.55</ele>
        <time>2019-02-04T13:44:48Z</time>
      </trkpt>
      <trkpt lat="46.20505" lon="6.47931">
        <ele>1382.03</ele>
        <time>2019-02-04T13:44:50Z</time>
      </trkpt>
      <trkpt lat="46.20503" lon="6.47933">
        <ele>1381.55</ele>
        <time>2019-02-04T13:44:52Z</time>
      </trkpt>
      <trkpt lat="46.20491" lon="6.47936">
        <ele>1381.55</ele>
        <time>2019-02-04T13:45:05Z</time>
      </trkpt>
      <trkpt lat="46.20489" lon="6.47937">
        <ele>1382.03</ele>
        <time>2019-02-04T13:45:07Z</time>
      </trkpt>
      <trkpt lat="46.20488" lon="6.47937">
        <ele>1381.55</ele>
        <time>2019-02-04T13:45:09Z</time>
      </trkpt>
      <trkpt lat="46.2048" lon="6.47938">
        <ele>1382.03</ele>
        <time>2019-02-04T13:45:17Z</time>
      </trkpt>
      <trkpt lat="46.20476" lon="6.47937">
        <ele>1382.51</ele>
        <time>2019-02-04T13:45:22Z</time>
      </trkpt>
      <trkpt lat="46.20472" lon="6.47937">
        <ele>1382.51</ele>
        <time>2019-02-04T13:45:25Z</time>
      </trkpt>
      <trkpt lat="46.20462" lon="6.47935">
        <ele>1382.99</ele>
        <time>2019-02-04T13:45:38Z</time>
      </trkpt>
      <trkpt lat="46.20459" lon="6.47935">
        <ele>1382.99</ele>
        <time>2019-02-04T13:45:43Z</time>
      </trkpt>
      <trkpt lat="46.20454" lon="6.47935">
        <ele>1382.51</ele>
        <time>2019-02-04T13:45:48Z</time>
      </trkpt>
      <trkpt lat="46.20449" lon="6.47934">
        <ele>1382.51</ele>
        <time>2019-02-04T13:45:54Z</time>
      </trkpt>
      <trkpt lat="46.20444" lon="6.47936">
        <ele>1382.51</ele>
        <time>2019-02-04T13:45:59Z</time>
      </trkpt>
      <trkpt lat="46.2044" lon="6.47938">
        <ele>1382.51</ele>
        <time>2019-02-04T13:46:04Z</time>
      </trkpt>
      <trkpt lat="46.20431" lon="6.47949">
        <ele>1382.99</ele>
        <time>2019-02-04T13:46:18Z</time>
      </trkpt>
      <trkpt lat="46.20424" lon="6.47957">
        <ele>1384.44</ele>
        <time>2019-02-04T13:46:29Z</time>
      </trkpt>
      <trkpt lat="46.20418" lon="6.47971">
        <ele>1383.47</ele>
        <time>2019-02-04T13:46:42Z</time>
      </trkpt>
      <trkpt lat="46.20416" lon="6.47972">
        <ele>1383.96</ele>
        <time>2019-02-04T13:46:45Z</time>
      </trkpt>
      <trkpt lat="46.20409" lon="6.47976">
        <ele>1383.96</ele>
        <time>2019-02-04T13:46:55Z</time>
      </trkpt>
      <trkpt lat="46.20402" lon="6.47979">
        <ele>1383.47</ele>
        <time>2019-02-04T13:47:03Z</time>
      </trkpt>
      <trkpt lat="46.20398" lon="6.4798">
        <ele>1383.47</ele>
        <time>2019-02-04T13:47:07Z</time>
      </trkpt>
      <trkpt lat="46.20388" lon="6.47982">
        <ele>1383.47</ele>
        <time>2019-02-04T13:47:19Z</time>
      </trkpt>
      <trkpt lat="46.20382" lon="6.47983">
        <ele>1383.96</ele>
        <time>2019-02-04T13:47:28Z</time>
      </trkpt>
      <trkpt lat="46.2038" lon="6.47982">
        <ele>1384.44</ele>
        <time>2019-02-04T13:47:41Z</time>
      </trkpt>
      <trkpt lat="46.2038" lon="6.47982">
        <ele>1384.44</ele>
        <time>2019-02-04T13:49:02Z</time>
      </trkpt>
      <trkpt lat="46.20381" lon="6.47983">
        <ele>1384.92</ele>
        <time>2019-02-04T13:49:41Z</time>
      </trkpt>
      <trkpt lat="46.20381" lon="6.47983">
        <ele>1384.44</ele>
        <time>2019-02-04T13:50:09Z</time>
      </trkpt>
      <trkpt lat="46.20381" lon="6.47983">
        <ele>1385.4</ele>
        <time>2019-02-04T13:51:46Z</time>
      </trkpt>
      <trkpt lat="46.2038" lon="6.47983">
        <ele>1384.92</ele>
        <time>2019-02-04T13:52:54Z</time>
      </trkpt>
      <trkpt lat="46.20371" lon="6.47982">
        <ele>1384.92</ele>
        <time>2019-02-04T13:53:05Z</time>
      </trkpt>
      <trkpt lat="46.20362" lon="6.47979">
        <ele>1384.44</ele>
        <time>2019-02-04T13:53:16Z</time>
      </trkpt>
      <trkpt lat="46.2036" lon="6.47977">
        <ele>1384.44</ele>
        <time>2019-02-04T13:53:20Z</time>
      </trkpt>
      <trkpt lat="46.20352" lon="6.47978">
        <ele>1384.44</ele>
        <time>2019-02-04T13:53:34Z</time>
      </trkpt>
      <trkpt lat="46.20347" lon="6.47978">
        <ele>1384.44</ele>
        <time>2019-02-04T13:53:40Z</time>
      </trkpt>
      <trkpt lat="46.20342" lon="6.47977">
        <ele>1384.44</ele>
        <time>2019-02-04T13:53:49Z</time>
      </trkpt>
      <trkpt lat="46.20332" lon="6.47975">
        <ele>1385.88</ele>
        <time>2019-02-04T13:54:01Z</time>
      </trkpt>
      <trkpt lat="46.20324" lon="6.47976">
        <ele>1386.36</ele>
        <time>2019-02-04T13:54:11Z</time>
      </trkpt>
      <trkpt lat="46.20314" lon="6.47975">
        <ele>1386.84</ele>
        <time>2019-02-04T13:54:23Z</time>
      </trkpt>
      <trkpt lat="46.20304" lon="6.47975">
        <ele>1387.32</ele>
        <time>2019-02-04T13:54:34Z</time>
      </trkpt>
      <trkpt lat="46.20297" lon="6.47974">
        <ele>1387.32</ele>
        <time>2019-02-04T13:54:43Z</time>
      </trkpt>
      <trkpt lat="46.20292" lon="6.47973">
        <ele>1387.32</ele>
        <time>2019-02-04T13:54:49Z</time>
      </trkpt>
      <trkpt lat="46.20287" lon="6.47973">
        <ele>1387.32</ele>
        <time>2019-02-04T13:54:54Z</time>
      </trkpt>
      <trkpt lat="46.2028" lon="6.47972">
        <ele>1386.84</ele>
        <time>2019-02-04T13:55:01Z</time>
      </trkpt>
      <trkpt lat="46.20275" lon="6.47971">
        <ele>1386.84</ele>
        <time>2019-02-04T13:55:06Z</time>
      </trkpt>
      <trkpt lat="46.20261" lon="6.47973">
        <ele>1385.4</ele>
        <time>2019-02-04T13:55:20Z</time>
      </trkpt>
      <trkpt lat="46.20259" lon="6.47974">
        <ele>1385.4</ele>
        <time>2019-02-04T13:55:22Z</time>
      </trkpt>
      <trkpt lat="46.20245" lon="6.47979">
        <ele>1384.92</ele>
        <time>2019-02-04T13:55:37Z</time>
      </trkpt>
      <trkpt lat="46.20235" lon="6.47982">
        <ele>1383.47</ele>
        <time>2019-02-04T13:55:48Z</time>
      </trkpt>
      <trkpt lat="46.2023" lon="6.47984">
        <ele>1382.03</ele>
        <time>2019-02-04T13:56:04Z</time>
      </trkpt>
      <trkpt lat="46.20221" lon="6.47993">
        <ele>1379.15</ele>
        <time>2019-02-04T13:56:17Z</time>
      </trkpt>
      <trkpt lat="46.2022" lon="6.47995">
        <ele>1379.15</ele>
        <time>2019-02-04T13:56:19Z</time>
      </trkpt>
      <trkpt lat="46.20213" lon="6.48">
        <ele>1376.75</ele>
        <time>2019-02-04T13:56:31Z</time>
      </trkpt>
      <trkpt lat="46.20205" lon="6.48005">
        <ele>1374.34</ele>
        <time>2019-02-04T13:56:44Z</time>
      </trkpt>
      <trkpt lat="46.20204" lon="6.48005">
        <ele>1373.86</ele>
        <time>2019-02-04T13:56:46Z</time>
      </trkpt>
      <trkpt lat="46.20194" lon="6.48007">
        <ele>1371.46</ele>
        <time>2019-02-04T13:56:59Z</time>
      </trkpt>
      <trkpt lat="46.20184" lon="6.48008">
        <ele>1369.54</ele>
        <time>2019-02-04T13:57:13Z</time>
      </trkpt>
      <trkpt lat="46.20173" lon="6.48012">
        <ele>1368.57</ele>
        <time>2019-02-04T13:57:26Z</time>
      </trkpt>
      <trkpt lat="46.20171" lon="6.48014">
        <ele>1367.61</ele>
        <time>2019-02-04T13:57:42Z</time>
      </trkpt>
      <trkpt lat="46.20167" lon="6.48015">
        <ele>1367.13</ele>
        <time>2019-02-04T13:57:56Z</time>
      </trkpt>
      <trkpt lat="46.20167" lon="6.48015">
        <ele>1366.65</ele>
        <time>2019-02-04T13:58:43Z</time>
      </trkpt>
      <trkpt lat="46.20166" lon="6.48016">
        <ele>1367.13</ele>
        <time>2019-02-04T14:00:49Z</time>
      </trkpt>
      <trkpt lat="46.20162" lon="6.48015">
        <ele>1366.65</ele>
        <time>2019-02-04T14:02:02Z</time>
      </trkpt>
      <trkpt lat="46.20156" lon="6.48016">
        <ele>1365.21</ele>
        <time>2019-02-04T14:02:14Z</time>
      </trkpt>
      <trkpt lat="46.20148" lon="6.48017">
        <ele>1363.29</ele>
        <time>2019-02-04T14:02:26Z</time>
      </trkpt>
      <trkpt lat="46.20143" lon="6.48021">
        <ele>1360.88</ele>
        <time>2019-02-04T14:02:38Z</time>
      </trkpt>
      <trkpt lat="46.20142" lon="6.48022">
        <ele>1360.4</ele>
        <time>2019-02-04T14:02:40Z</time>
      </trkpt>
      <trkpt lat="46.20134" lon="6.48026">
        <ele>1357.52</ele>
        <time>2019-02-04T14:02:54Z</time>
      </trkpt>
      <trkpt lat="46.20128" lon="6.48027">
        <ele>1356.08</ele>
        <time>2019-02-04T14:03:07Z</time>
      </trkpt>
      <trkpt lat="46.2012" lon="6.48023">
        <ele>1354.15</ele>
        <time>2019-02-04T14:03:18Z</time>
      </trkpt>
      <trkpt lat="46.20114" lon="6.48021">
        <ele>1351.75</ele>
        <time>2019-02-04T14:03:30Z</time>
      </trkpt>
      <trkpt lat="46.20108" lon="6.48023">
        <ele>1349.35</ele>
        <time>2019-02-04T14:03:41Z</time>
      </trkpt>
      <trkpt lat="46.20102" lon="6.48016">
        <ele>1348.87</ele>
        <time>2019-02-04T14:03:53Z</time>
      </trkpt>
      <trkpt lat="46.20098" lon="6.48011">
        <ele>1348.87</ele>
        <time>2019-02-04T14:04:05Z</time>
      </trkpt>
      <trkpt lat="46.20092" lon="6.48001">
        <ele>1348.87</ele>
        <time>2019-02-04T14:04:17Z</time>
      </trkpt>
      <trkpt lat="46.20085" lon="6.47995">
        <ele>1348.39</ele>
        <time>2019-02-04T14:04:29Z</time>
      </trkpt>
      <trkpt lat="46.20077" lon="6.47991">
        <ele>1346.46</ele>
        <time>2019-02-04T14:04:43Z</time>
      </trkpt>
      <trkpt lat="46.20074" lon="6.47989">
        <ele>1345.5</ele>
        <time>2019-02-04T14:04:54Z</time>
      </trkpt>
      <trkpt lat="46.20067" lon="6.47985">
        <ele>1343.1</ele>
        <time>2019-02-04T14:05:08Z</time>
      </trkpt>
      <trkpt lat="46.20059" lon="6.47982">
        <ele>1341.18</ele>
        <time>2019-02-04T14:05:19Z</time>
      </trkpt>
      <trkpt lat="46.20051" lon="6.4798">
        <ele>1338.77</ele>
        <time>2019-02-04T14:05:32Z</time>
      </trkpt>
      <trkpt lat="46.20045" lon="6.47978">
        <ele>1336.85</ele>
        <time>2019-02-04T14:05:44Z</time>
      </trkpt>
      <trkpt lat="46.2004" lon="6.47977">
        <ele>1334.93</ele>
        <time>2019-02-04T14:05:54Z</time>
      </trkpt>
      <trkpt lat="46.20033" lon="6.47974">
        <ele>1332.04</ele>
        <time>2019-02-04T14:06:06Z</time>
      </trkpt>
      <trkpt lat="46.20033" lon="6.47974">
        <ele>1332.52</ele>
        <time>2019-02-04T14:06:07Z</time>
      </trkpt>
      <trkpt lat="46.20025" lon="6.47971">
        <ele>1330.6</ele>
        <time>2019-02-04T14:06:20Z</time>
      </trkpt>
      <trkpt lat="46.2002" lon="6.47972">
        <ele>1328.2</ele>
        <time>2019-02-04T14:06:31Z</time>
      </trkpt>
      <trkpt lat="46.20015" lon="6.47972">
        <ele>1326.28</ele>
        <time>2019-02-04T14:06:41Z</time>
      </trkpt>
      <trkpt lat="46.20006" lon="6.47972">
        <ele>1323.87</ele>
        <time>2019-02-04T14:06:54Z</time>
      </trkpt>
      <trkpt lat="46.20003" lon="6.47972">
        <ele>1322.91</ele>
        <time>2019-02-04T14:06:57Z</time>
      </trkpt>
      <trkpt lat="46.19992" lon="6.4797">
        <ele>1320.03</ele>
        <time>2019-02-04T14:07:10Z</time>
      </trkpt>
      <trkpt lat="46.19985" lon="6.47968">
        <ele>1318.59</ele>
        <time>2019-02-04T14:07:22Z</time>
      </trkpt>
      <trkpt lat="46.19977" lon="6.47966">
        <ele>1316.66</ele>
        <time>2019-02-04T14:07:33Z</time>
      </trkpt>
      <trkpt lat="46.19969" lon="6.47965">
        <ele>1314.74</ele>
        <time>2019-02-04T14:07:44Z</time>
      </trkpt>
      <trkpt lat="46.19961" lon="6.47966">
        <ele>1313.3</ele>
        <time>2019-02-04T14:07:55Z</time>
      </trkpt>
      <trkpt lat="46.19953" lon="6.47966">
        <ele>1310.9</ele>
        <time>2019-02-04T14:08:07Z</time>
      </trkpt>
      <trkpt lat="46.19944" lon="6.47963">
        <ele>1309.93</ele>
        <time>2019-02-04T14:08:20Z</time>
      </trkpt>
      <trkpt lat="46.19936" lon="6.47963">
        <ele>1308.97</ele>
        <time>2019-02-04T14:08:32Z</time>
      </trkpt>
      <trkpt lat="46.19928" lon="6.47964">
        <ele>1307.53</ele>
        <time>2019-02-04T14:08:44Z</time>
      </trkpt>
      <trkpt lat="46.19919" lon="6.47964">
        <ele>1306.57</ele>
        <time>2019-02-04T14:08:56Z</time>
      </trkpt>
      <trkpt lat="46.19913" lon="6.4796">
        <ele>1305.61</ele>
        <time>2019-02-04T14:09:07Z</time>
      </trkpt>
      <trkpt lat="46.1991" lon="6.47949">
        <ele>1305.13</ele>
        <time>2019-02-04T14:09:18Z</time>
      </trkpt>
      <trkpt lat="46.19909" lon="6.47947">
        <ele>1305.13</ele>
        <time>2019-02-04T14:09:20Z</time>
      </trkpt>
      <trkpt lat="46.19903" lon="6.47931">
        <ele>1305.13</ele>
        <time>2019-02-04T14:09:33Z</time>
      </trkpt>
      <trkpt lat="46.19901" lon="6.4793">
        <ele>1304.65</ele>
        <time>2019-02-04T14:09:35Z</time>
      </trkpt>
      <trkpt lat="46.19896" lon="6.47922">
        <ele>1304.65</ele>
        <time>2019-02-04T14:09:45Z</time>
      </trkpt>
      <trkpt lat="46.19895" lon="6.47921">
        <ele>1304.65</ele>
        <time>2019-02-04T14:09:47Z</time>
      </trkpt>
      <trkpt lat="46.19894" lon="6.47918">
        <ele>1304.17</ele>
        <time>2019-02-04T14:09:49Z</time>
      </trkpt>
      <trkpt lat="46.19892" lon="6.47916">
        <ele>1304.17</ele>
        <time>2019-02-04T14:09:51Z</time>
      </trkpt>
      <trkpt lat="46.19884" lon="6.47901">
        <ele>1302.72</ele>
        <time>2019-02-04T14:10:06Z</time>
      </trkpt>
      <trkpt lat="46.19878" lon="6.47889">
        <ele>1303.2</ele>
        <time>2019-02-04T14:10:19Z</time>
      </trkpt>
      <trkpt lat="46.19871" lon="6.47878">
        <ele>1303.2</ele>
        <time>2019-02-04T14:10:33Z</time>
      </trkpt>
      <trkpt lat="46.19866" lon="6.4787">
        <ele>1303.69</ele>
        <time>2019-02-04T14:10:41Z</time>
      </trkpt>
      <trkpt lat="46.19858" lon="6.47859">
        <ele>1303.69</ele>
        <time>2019-02-04T14:10:54Z</time>
      </trkpt>
      <trkpt lat="46.1985" lon="6.47851">
        <ele>1303.2</ele>
        <time>2019-02-04T14:11:07Z</time>
      </trkpt>
      <trkpt lat="46.19841" lon="6.47841">
        <ele>1303.2</ele>
        <time>2019-02-04T14:11:20Z</time>
      </trkpt>
      <trkpt lat="46.19834" lon="6.47834">
        <ele>1303.69</ele>
        <time>2019-02-04T14:11:32Z</time>
      </trkpt>
      <trkpt lat="46.19826" lon="6.47827">
        <ele>1304.17</ele>
        <time>2019-02-04T14:11:41Z</time>
      </trkpt>
      <trkpt lat="46.19819" lon="6.47819">
        <ele>1304.17</ele>
        <time>2019-02-04T14:11:51Z</time>
      </trkpt>
      <trkpt lat="46.19817" lon="6.47819">
        <ele>1304.17</ele>
        <time>2019-02-04T14:11:53Z</time>
      </trkpt>
      <trkpt lat="46.19809" lon="6.47811">
        <ele>1304.17</ele>
        <time>2019-02-04T14:12:04Z</time>
      </trkpt>
      <trkpt lat="46.19801" lon="6.47801">
        <ele>1305.13</ele>
        <time>2019-02-04T14:12:18Z</time>
      </trkpt>
      <trkpt lat="46.19793" lon="6.47793">
        <ele>1307.05</ele>
        <time>2019-02-04T14:12:30Z</time>
      </trkpt>
      <trkpt lat="46.19785" lon="6.47785">
        <ele>1307.05</ele>
        <time>2019-02-04T14:12:42Z</time>
      </trkpt>
      <trkpt lat="46.19777" lon="6.47777">
        <ele>1308.49</ele>
        <time>2019-02-04T14:12:54Z</time>
      </trkpt>
      <trkpt lat="46.19769" lon="6.47768">
        <ele>1308.97</ele>
        <time>2019-02-04T14:13:07Z</time>
      </trkpt>
      <trkpt lat="46.19762" lon="6.47761">
        <ele>1308.97</ele>
        <time>2019-02-04T14:13:16Z</time>
      </trkpt>
      <trkpt lat="46.19761" lon="6.4776">
        <ele>1308.49</ele>
        <time>2019-02-04T14:13:18Z</time>
      </trkpt>
      <trkpt lat="46.19752" lon="6.47749">
        <ele>1307.53</ele>
        <time>2019-02-04T14:13:30Z</time>
      </trkpt>
      <trkpt lat="46.1975" lon="6.47748">
        <ele>1307.53</ele>
        <time>2019-02-04T14:13:32Z</time>
      </trkpt>
      <trkpt lat="46.19748" lon="6.47745">
        <ele>1307.05</ele>
        <time>2019-02-04T14:13:36Z</time>
      </trkpt>
      <trkpt lat="46.19739" lon="6.47741">
        <ele>1306.57</ele>
        <time>2019-02-04T14:13:45Z</time>
      </trkpt>
      <trkpt lat="46.19737" lon="6.47739">
        <ele>1306.57</ele>
        <time>2019-02-04T14:13:47Z</time>
      </trkpt>
      <trkpt lat="46.19736" lon="6.47738">
        <ele>1306.09</ele>
        <time>2019-02-04T14:13:49Z</time>
      </trkpt>
      <trkpt lat="46.19727" lon="6.47728">
        <ele>1306.57</ele>
        <time>2019-02-04T14:14:03Z</time>
      </trkpt>
      <trkpt lat="46.19721" lon="6.47723">
        <ele>1306.09</ele>
        <time>2019-02-04T14:14:16Z</time>
      </trkpt>
      <trkpt lat="46.19715" lon="6.47712">
        <ele>1306.09</ele>
        <time>2019-02-04T14:14:27Z</time>
      </trkpt>
      <trkpt lat="46.1971" lon="6.47702">
        <ele>1305.13</ele>
        <time>2019-02-04T14:14:39Z</time>
      </trkpt>
      <trkpt lat="46.19706" lon="6.47692">
        <ele>1304.17</ele>
        <time>2019-02-04T14:14:50Z</time>
      </trkpt>
      <trkpt lat="46.19703" lon="6.47688">
        <ele>1303.2</ele>
        <time>2019-02-04T14:14:56Z</time>
      </trkpt>
      <trkpt lat="46.19697" lon="6.47671">
        <ele>1302.72</ele>
        <time>2019-02-04T14:15:11Z</time>
      </trkpt>
      <trkpt lat="46.19694" lon="6.47666">
        <ele>1302.24</ele>
        <time>2019-02-04T14:15:16Z</time>
      </trkpt>
      <trkpt lat="46.19694" lon="6.47664">
        <ele>1302.24</ele>
        <time>2019-02-04T14:15:18Z</time>
      </trkpt>
      <trkpt lat="46.19693" lon="6.47661">
        <ele>1302.24</ele>
        <time>2019-02-04T14:15:20Z</time>
      </trkpt>
      <trkpt lat="46.1969" lon="6.47645">
        <ele>1300.8</ele>
        <time>2019-02-04T14:15:34Z</time>
      </trkpt>
      <trkpt lat="46.19688" lon="6.47639">
        <ele>1300.32</ele>
        <time>2019-02-04T14:15:39Z</time>
      </trkpt>
      <trkpt lat="46.19688" lon="6.47636">
        <ele>1300.8</ele>
        <time>2019-02-04T14:15:41Z</time>
      </trkpt>
      <trkpt lat="46.19682" lon="6.47622">
        <ele>1299.84</ele>
        <time>2019-02-04T14:15:54Z</time>
      </trkpt>
      <trkpt lat="46.19675" lon="6.47609">
        <ele>1298.88</ele>
        <time>2019-02-04T14:16:07Z</time>
      </trkpt>
      <trkpt lat="46.19674" lon="6.47607">
        <ele>1299.36</ele>
        <time>2019-02-04T14:16:09Z</time>
      </trkpt>
      <trkpt lat="46.19673" lon="6.47605">
        <ele>1298.88</ele>
        <time>2019-02-04T14:16:11Z</time>
      </trkpt>
      <trkpt lat="46.19666" lon="6.47593">
        <ele>1298.4</ele>
        <time>2019-02-04T14:16:23Z</time>
      </trkpt>
      <trkpt lat="46.1966" lon="6.47582">
        <ele>1297.92</ele>
        <time>2019-02-04T14:16:35Z</time>
      </trkpt>
      <trkpt lat="46.19653" lon="6.47568">
        <ele>1296.96</ele>
        <time>2019-02-04T14:16:48Z</time>
      </trkpt>
      <trkpt lat="46.19652" lon="6.47561">
        <ele>1296.48</ele>
        <time>2019-02-04T14:16:53Z</time>
      </trkpt>
      <trkpt lat="46.19652" lon="6.47556">
        <ele>1296.96</ele>
        <time>2019-02-04T14:17:00Z</time>
      </trkpt>
      <trkpt lat="46.19651" lon="6.47545">
        <ele>1296.96</ele>
        <time>2019-02-04T14:17:09Z</time>
      </trkpt>
      <trkpt lat="46.19646" lon="6.47527">
        <ele>1295.99</ele>
        <time>2019-02-04T14:17:23Z</time>
      </trkpt>
      <trkpt lat="46.19644" lon="6.47516">
        <ele>1295.99</ele>
        <time>2019-02-04T14:17:34Z</time>
      </trkpt>
      <trkpt lat="46.19643" lon="6.47503">
        <ele>1295.51</ele>
        <time>2019-02-04T14:17:46Z</time>
      </trkpt>
      <trkpt lat="46.19641" lon="6.4749">
        <ele>1294.07</ele>
        <time>2019-02-04T14:17:59Z</time>
      </trkpt>
      <trkpt lat="46.19637" lon="6.47486">
        <ele>1293.59</ele>
        <time>2019-02-04T14:18:10Z</time>
      </trkpt>
      <trkpt lat="46.19632" lon="6.47475">
        <ele>1293.11</ele>
        <time>2019-02-04T14:18:23Z</time>
      </trkpt>
      <trkpt lat="46.19625" lon="6.47469">
        <ele>1291.67</ele>
        <time>2019-02-04T14:18:36Z</time>
      </trkpt>
      <trkpt lat="46.1962" lon="6.47458">
        <ele>1289.75</ele>
        <time>2019-02-04T14:18:49Z</time>
      </trkpt>
      <trkpt lat="46.19615" lon="6.47451">
        <ele>1288.78</ele>
        <time>2019-02-04T14:18:58Z</time>
      </trkpt>
      <trkpt lat="46.19606" lon="6.47444">
        <ele>1287.82</ele>
        <time>2019-02-04T14:19:12Z</time>
      </trkpt>
      <trkpt lat="46.19597" lon="6.47442">
        <ele>1287.82</ele>
        <time>2019-02-04T14:19:25Z</time>
      </trkpt>
      <trkpt lat="46.19596" lon="6.47442">
        <ele>1287.34</ele>
        <time>2019-02-04T14:19:27Z</time>
      </trkpt>
      <trkpt lat="46.19594" lon="6.47443">
        <ele>1287.34</ele>
        <time>2019-02-04T14:19:30Z</time>
      </trkpt>
      <trkpt lat="46.19583" lon="6.47441">
        <ele>1285.9</ele>
        <time>2019-02-04T14:19:46Z</time>
      </trkpt>
      <trkpt lat="46.19577" lon="6.47439">
        <ele>1284.94</ele>
        <time>2019-02-04T14:20:00Z</time>
      </trkpt>
      <trkpt lat="46.19577" lon="6.4744">
        <ele>1285.9</ele>
        <time>2019-02-04T14:20:16Z</time>
      </trkpt>
      <trkpt lat="46.19577" lon="6.4744">
        <ele>1285.42</ele>
        <time>2019-02-04T14:21:11Z</time>
      </trkpt>
      <trkpt lat="46.19577" lon="6.47439">
        <ele>1283.98</ele>
        <time>2019-02-04T14:21:48Z</time>
      </trkpt>
      <trkpt lat="46.19575" lon="6.47437">
        <ele>1286.38</ele>
        <time>2019-02-04T14:28:36Z</time>
      </trkpt>
      <trkpt lat="46.19574" lon="6.47438">
        <ele>1286.86</ele>
        <time>2019-02-04T14:28:53Z</time>
      </trkpt>
      <trkpt lat="46.19574" lon="6.47438">
        <ele>1286.38</ele>
        <time>2019-02-04T14:29:36Z</time>
      </trkpt>
      <trkpt lat="46.19574" lon="6.47438">
        <ele>1286.38</ele>
        <time>2019-02-04T14:30:31Z</time>
      </trkpt>
      <trkpt lat="46.19575" lon="6.47438">
        <ele>1285.9</ele>
        <time>2019-02-04T14:31:22Z</time>
      </trkpt>
      <trkpt lat="46.19573" lon="6.47429">
        <ele>1285.42</ele>
        <time>2019-02-04T14:31:50Z</time>
      </trkpt>
      <trkpt lat="46.19567" lon="6.47419">
        <ele>1283.02</ele>
        <time>2019-02-04T14:32:02Z</time>
      </trkpt>
      <trkpt lat="46.19565" lon="6.47416">
        <ele>1282.54</ele>
        <time>2019-02-04T14:32:06Z</time>
      </trkpt>
      <trkpt lat="46.19559" lon="6.47402">
        <ele>1279.17</ele>
        <time>2019-02-04T14:32:22Z</time>
      </trkpt>
      <trkpt lat="46.19552" lon="6.47392">
        <ele>1277.73</ele>
        <time>2019-02-04T14:32:35Z</time>
      </trkpt>
      <trkpt lat="46.19547" lon="6.47385">
        <ele>1276.77</ele>
        <time>2019-02-04T14:32:48Z</time>
      </trkpt>
      <trkpt lat="46.19544" lon="6.47384">
        <ele>1275.81</ele>
        <time>2019-02-04T14:32:53Z</time>
      </trkpt>
      <trkpt lat="46.19539" lon="6.47376">
        <ele>1275.33</ele>
        <time>2019-02-04T14:33:03Z</time>
      </trkpt>
      <trkpt lat="46.19534" lon="6.4737">
        <ele>1274.36</ele>
        <time>2019-02-04T14:33:16Z</time>
      </trkpt>
      <trkpt lat="46.1953" lon="6.4736">
        <ele>1272.44</ele>
        <time>2019-02-04T14:33:27Z</time>
      </trkpt>
      <trkpt lat="46.19527" lon="6.47355">
        <ele>1272.44</ele>
        <time>2019-02-04T14:33:33Z</time>
      </trkpt>
      <trkpt lat="46.19525" lon="6.47345">
        <ele>1269.56</ele>
        <time>2019-02-04T14:33:46Z</time>
      </trkpt>
      <trkpt lat="46.19523" lon="6.47337">
        <ele>1267.64</ele>
        <time>2019-02-04T14:33:58Z</time>
      </trkpt>
      <trkpt lat="46.1952" lon="6.47327">
        <ele>1264.75</ele>
        <time>2019-02-04T14:34:11Z</time>
      </trkpt>
      <trkpt lat="46.19517" lon="6.47316">
        <ele>1261.87</ele>
        <time>2019-02-04T14:34:23Z</time>
      </trkpt>
      <trkpt lat="46.19515" lon="6.47305">
        <ele>1259.94</ele>
        <time>2019-02-04T14:34:35Z</time>
      </trkpt>
      <trkpt lat="46.19512" lon="6.47292">
        <ele>1258.02</ele>
        <time>2019-02-04T14:34:47Z</time>
      </trkpt>
      <trkpt lat="46.19508" lon="6.47281">
        <ele>1256.1</ele>
        <time>2019-02-04T14:34:59Z</time>
      </trkpt>
      <trkpt lat="46.19506" lon="6.47274">
        <ele>1256.1</ele>
        <time>2019-02-04T14:35:13Z</time>
      </trkpt>
      <trkpt lat="46.19505" lon="6.47273">
        <ele>1256.1</ele>
        <time>2019-02-04T14:35:29Z</time>
      </trkpt>
      <trkpt lat="46.19501" lon="6.47267">
        <ele>1255.62</ele>
        <time>2019-02-04T14:35:42Z</time>
      </trkpt>
      <trkpt lat="46.19497" lon="6.47259">
        <ele>1255.62</ele>
        <time>2019-02-04T14:35:51Z</time>
      </trkpt>
      <trkpt lat="46.19495" lon="6.47256">
        <ele>1256.58</ele>
        <time>2019-02-04T14:36:00Z</time>
      </trkpt>
      <trkpt lat="46.19493" lon="6.47247">
        <ele>1258.02</ele>
        <time>2019-02-04T14:36:10Z</time>
      </trkpt>
      <trkpt lat="46.19492" lon="6.47247">
        <ele>1257.54</ele>
        <time>2019-02-04T14:36:11Z</time>
      </trkpt>
      <trkpt lat="46.19488" lon="6.47241">
        <ele>1258.02</ele>
        <time>2019-02-04T14:36:21Z</time>
      </trkpt>
      <trkpt lat="46.19482" lon="6.47233">
        <ele>1257.54</ele>
        <time>2019-02-04T14:36:32Z</time>
      </trkpt>
      <trkpt lat="46.19479" lon="6.47228">
        <ele>1257.54</ele>
        <time>2019-02-04T14:36:41Z</time>
      </trkpt>
      <trkpt lat="46.19474" lon="6.47218">
        <ele>1256.1</ele>
        <time>2019-02-04T14:36:53Z</time>
      </trkpt>
      <trkpt lat="46.1947" lon="6.47206">
        <ele>1256.1</ele>
        <time>2019-02-04T14:37:07Z</time>
      </trkpt>
      <trkpt lat="46.19465" lon="6.47197">
        <ele>1255.14</ele>
        <time>2019-02-04T14:37:19Z</time>
      </trkpt>
      <trkpt lat="46.19462" lon="6.47189">
        <ele>1255.14</ele>
        <time>2019-02-04T14:37:29Z</time>
      </trkpt>
      <trkpt lat="46.19457" lon="6.4718">
        <ele>1253.7</ele>
        <time>2019-02-04T14:37:41Z</time>
      </trkpt>
      <trkpt lat="46.19455" lon="6.47172">
        <ele>1253.22</ele>
        <time>2019-02-04T14:37:53Z</time>
      </trkpt>
      <trkpt lat="46.19451" lon="6.47162">
        <ele>1252.25</ele>
        <time>2019-02-04T14:38:05Z</time>
      </trkpt>
      <trkpt lat="46.19447" lon="6.47152">
        <ele>1251.77</ele>
        <time>2019-02-04T14:38:17Z</time>
      </trkpt>
      <trkpt lat="46.19444" lon="6.47141">
        <ele>1251.29</ele>
        <time>2019-02-04T14:38:28Z</time>
      </trkpt>
      <trkpt lat="46.19439" lon="6.47132">
        <ele>1251.29</ele>
        <time>2019-02-04T14:38:39Z</time>
      </trkpt>
      <trkpt lat="46.19438" lon="6.47128">
        <ele>1250.81</ele>
        <time>2019-02-04T14:38:50Z</time>
      </trkpt>
      <trkpt lat="46.19435" lon="6.47122">
        <ele>1250.33</ele>
        <time>2019-02-04T14:39:04Z</time>
      </trkpt>
      <trkpt lat="46.19431" lon="6.47113">
        <ele>1249.85</ele>
        <time>2019-02-04T14:39:16Z</time>
      </trkpt>
      <trkpt lat="46.19427" lon="6.47106">
        <ele>1249.37</ele>
        <time>2019-02-04T14:39:27Z</time>
      </trkpt>
      <trkpt lat="46.19423" lon="6.47097">
        <ele>1248.41</ele>
        <time>2019-02-04T14:39:39Z</time>
      </trkpt>
      <trkpt lat="46.19416" lon="6.47093">
        <ele>1247.45</ele>
        <time>2019-02-04T14:39:50Z</time>
      </trkpt>
      <trkpt lat="46.19414" lon="6.4709">
        <ele>1247.45</ele>
        <time>2019-02-04T14:39:55Z</time>
      </trkpt>
      <trkpt lat="46.19407" lon="6.47087">
        <ele>1246.49</ele>
        <time>2019-02-04T14:40:06Z</time>
      </trkpt>
      <trkpt lat="46.194" lon="6.47081">
        <ele>1245.04</ele>
        <time>2019-02-04T14:40:18Z</time>
      </trkpt>
      <trkpt lat="46.19397" lon="6.47072">
        <ele>1244.08</ele>
        <time>2019-02-04T14:40:31Z</time>
      </trkpt>
      <trkpt lat="46.19396" lon="6.47071">
        <ele>1244.08</ele>
        <time>2019-02-04T14:40:32Z</time>
      </trkpt>
      <trkpt lat="46.19393" lon="6.47063">
        <ele>1243.6</ele>
        <time>2019-02-04T14:40:43Z</time>
      </trkpt>
      <trkpt lat="46.19387" lon="6.47056">
        <ele>1242.64</ele>
        <time>2019-02-04T14:40:53Z</time>
      </trkpt>
      <trkpt lat="46.19388" lon="6.47043">
        <ele>1243.12</ele>
        <time>2019-02-04T14:41:02Z</time>
      </trkpt>
      <trkpt lat="46.19389" lon="6.4704">
        <ele>1243.12</ele>
        <time>2019-02-04T14:41:04Z</time>
      </trkpt>
      <trkpt lat="46.1939" lon="6.47037">
        <ele>1243.12</ele>
        <time>2019-02-04T14:41:06Z</time>
      </trkpt>
      <trkpt lat="46.19392" lon="6.47028">
        <ele>1243.6</ele>
        <time>2019-02-04T14:41:13Z</time>
      </trkpt>
      <trkpt lat="46.19392" lon="6.47025">
        <ele>1243.6</ele>
        <time>2019-02-04T14:41:15Z</time>
      </trkpt>
      <trkpt lat="46.19396" lon="6.47008">
        <ele>1243.6</ele>
        <time>2019-02-04T14:41:29Z</time>
      </trkpt>
      <trkpt lat="46.194" lon="6.46997">
        <ele>1245.04</ele>
        <time>2019-02-04T14:41:40Z</time>
      </trkpt>
      <trkpt lat="46.19401" lon="6.46994">
        <ele>1245.53</ele>
        <time>2019-02-04T14:41:43Z</time>
      </trkpt>
      <trkpt lat="46.19402" lon="6.4699">
        <ele>1245.53</ele>
        <time>2019-02-04T14:41:47Z</time>
      </trkpt>
      <trkpt lat="46.19403" lon="6.4698">
        <ele>1246.49</ele>
        <time>2019-02-04T14:41:55Z</time>
      </trkpt>
      <trkpt lat="46.19398" lon="6.46971">
        <ele>1246.01</ele>
        <time>2019-02-04T14:42:04Z</time>
      </trkpt>
      <trkpt lat="46.19395" lon="6.46967">
        <ele>1246.01</ele>
        <time>2019-02-04T14:42:08Z</time>
      </trkpt>
      <trkpt lat="46.19388" lon="6.46962">
        <ele>1245.53</ele>
        <time>2019-02-04T14:42:16Z</time>
      </trkpt>
      <trkpt lat="46.19376" lon="6.46957">
        <ele>1245.53</ele>
        <time>2019-02-04T14:42:29Z</time>
      </trkpt>
      <trkpt lat="46.19369" lon="6.46952">
        <ele>1244.56</ele>
        <time>2019-02-04T14:42:42Z</time>
      </trkpt>
      <trkpt lat="46.19365" lon="6.46947">
        <ele>1244.08</ele>
        <time>2019-02-04T14:42:56Z</time>
      </trkpt>
      <trkpt lat="46.1936" lon="6.46942">
        <ele>1243.6</ele>
        <time>2019-02-04T14:43:07Z</time>
      </trkpt>
      <trkpt lat="46.19355" lon="6.46938">
        <ele>1244.08</ele>
        <time>2019-02-04T14:43:18Z</time>
      </trkpt>
      <trkpt lat="46.19349" lon="6.4694">
        <ele>1243.6</ele>
        <time>2019-02-04T14:43:29Z</time>
      </trkpt>
      <trkpt lat="46.19345" lon="6.4694">
        <ele>1244.08</ele>
        <time>2019-02-04T14:43:41Z</time>
      </trkpt>
      <trkpt lat="46.19346" lon="6.46933">
        <ele>1243.6</ele>
        <time>2019-02-04T14:43:52Z</time>
      </trkpt>
      <trkpt lat="46.19351" lon="6.46927">
        <ele>1244.08</ele>
        <time>2019-02-04T14:44:02Z</time>
      </trkpt>
      <trkpt lat="46.19352" lon="6.46926">
        <ele>1243.6</ele>
        <time>2019-02-04T14:44:04Z</time>
      </trkpt>
      <trkpt lat="46.19354" lon="6.46922">
        <ele>1243.12</ele>
        <time>2019-02-04T14:44:16Z</time>
      </trkpt>
      <trkpt lat="46.19355" lon="6.46918">
        <ele>1243.6</ele>
        <time>2019-02-04T14:44:28Z</time>
      </trkpt>
      <trkpt lat="46.19359" lon="6.46912">
        <ele>1243.6</ele>
        <time>2019-02-04T14:44:38Z</time>
      </trkpt>
      <trkpt lat="46.19362" lon="6.46909">
        <ele>1244.08</ele>
        <time>2019-02-04T14:44:47Z</time>
      </trkpt>
      <trkpt lat="46.19365" lon="6.46907">
        <ele>1244.56</ele>
        <time>2019-02-04T14:44:54Z</time>
      </trkpt>
      <trkpt lat="46.19365" lon="6.46906">
        <ele>1245.53</ele>
        <time>2019-02-04T14:45:06Z</time>
      </trkpt>
      <trkpt lat="46.19365" lon="6.46906">
        <ele>1246.49</ele>
        <time>2019-02-04T14:45:26Z</time>
      </trkpt>
      <trkpt lat="46.19366" lon="6.46906">
        <ele>1246.97</ele>
        <time>2019-02-04T14:45:44Z</time>
      </trkpt>
      <trkpt lat="46.19367" lon="6.46905">
        <ele>1247.93</ele>
        <time>2019-02-04T14:46:00Z</time>
      </trkpt>
      <trkpt lat="46.19369" lon="6.46901">
        <ele>1249.37</ele>
        <time>2019-02-04T14:46:13Z</time>
      </trkpt>
      <trkpt lat="46.19373" lon="6.46891">
        <ele>1251.29</ele>
        <time>2019-02-04T14:46:25Z</time>
      </trkpt>
      <trkpt lat="46.19374" lon="6.46889">
        <ele>1252.25</ele>
        <time>2019-02-04T14:46:43Z</time>
      </trkpt>
      <trkpt lat="46.19376" lon="6.46888">
        <ele>1252.74</ele>
        <time>2019-02-04T14:46:54Z</time>
      </trkpt>
      <trkpt lat="46.19381" lon="6.4688">
        <ele>1254.18</ele>
        <time>2019-02-04T14:47:07Z</time>
      </trkpt>
      <trkpt lat="46.19389" lon="6.46873">
        <ele>1254.66</ele>
        <time>2019-02-04T14:47:19Z</time>
      </trkpt>
      <trkpt lat="46.19398" lon="6.46871">
        <ele>1253.7</ele>
        <time>2019-02-04T14:47:32Z</time>
      </trkpt>
      <trkpt lat="46.19407" lon="6.46873">
        <ele>1251.29</ele>
        <time>2019-02-04T14:47:44Z</time>
      </trkpt>
      <trkpt lat="46.19415" lon="6.46874">
        <ele>1249.37</ele>
        <time>2019-02-04T14:47:55Z</time>
      </trkpt>
      <trkpt lat="46.19423" lon="6.4687">
        <ele>1246.49</ele>
        <time>2019-02-04T14:48:08Z</time>
      </trkpt>
      <trkpt lat="46.1943" lon="6.46867">
        <ele>1245.53</ele>
        <time>2019-02-04T14:48:19Z</time>
      </trkpt>
      <trkpt lat="46.19433" lon="6.46864">
        <ele>1245.04</ele>
        <time>2019-02-04T14:48:24Z</time>
      </trkpt>
      <trkpt lat="46.19435" lon="6.46862">
        <ele>1244.56</ele>
        <time>2019-02-04T14:48:26Z</time>
      </trkpt>
      <trkpt lat="46.19436" lon="6.4686">
        <ele>1245.04</ele>
        <time>2019-02-04T14:48:28Z</time>
      </trkpt>
      <trkpt lat="46.19443" lon="6.4685">
        <ele>1242.64</ele>
        <time>2019-02-04T14:48:38Z</time>
      </trkpt>
      <trkpt lat="46.19445" lon="6.46847">
        <ele>1241.68</ele>
        <time>2019-02-04T14:48:41Z</time>
      </trkpt>
      <trkpt lat="46.1945" lon="6.46844">
        <ele>1240.72</ele>
        <time>2019-02-04T14:48:46Z</time>
      </trkpt>
      <trkpt lat="46.19462" lon="6.46847">
        <ele>1239.28</ele>
        <time>2019-02-04T14:48:59Z</time>
      </trkpt>
      <trkpt lat="46.19471" lon="6.4684">
        <ele>1237.35</ele>
        <time>2019-02-04T14:49:12Z</time>
      </trkpt>
      <trkpt lat="46.19479" lon="6.46832">
        <ele>1235.43</ele>
        <time>2019-02-04T14:49:24Z</time>
      </trkpt>
      <trkpt lat="46.19487" lon="6.46824">
        <ele>1233.03</ele>
        <time>2019-02-04T14:49:37Z</time>
      </trkpt>
      <trkpt lat="46.19495" lon="6.46815">
        <ele>1231.11</ele>
        <time>2019-02-04T14:49:49Z</time>
      </trkpt>
      <trkpt lat="46.195" lon="6.4681">
        <ele>1230.14</ele>
        <time>2019-02-04T14:49:55Z</time>
      </trkpt>
      <trkpt lat="46.19506" lon="6.46806">
        <ele>1229.18</ele>
        <time>2019-02-04T14:50:01Z</time>
      </trkpt>
      <trkpt lat="46.19515" lon="6.46802">
        <ele>1227.74</ele>
        <time>2019-02-04T14:50:15Z</time>
      </trkpt>
      <trkpt lat="46.19515" lon="6.46802">
        <ele>1227.74</ele>
        <time>2019-02-04T14:52:00Z</time>
      </trkpt>
      <trkpt lat="46.19515" lon="6.46806">
        <ele>1227.74</ele>
        <time>2019-02-04T14:53:09Z</time>
      </trkpt>
      <trkpt lat="46.19515" lon="6.46808">
        <ele>1228.7</ele>
        <time>2019-02-04T14:53:11Z</time>
      </trkpt>
      <trkpt lat="46.19523" lon="6.46819">
        <ele>1228.22</ele>
        <time>2019-02-04T14:53:23Z</time>
      </trkpt>
      <trkpt lat="46.19529" lon="6.46822">
        <ele>1227.74</ele>
        <time>2019-02-04T14:53:30Z</time>
      </trkpt>
      <trkpt lat="46.19538" lon="6.46812">
        <ele>1227.26</ele>
        <time>2019-02-04T14:53:43Z</time>
      </trkpt>
      <trkpt lat="46.19539" lon="6.46807">
        <ele>1227.26</ele>
        <time>2019-02-04T14:53:46Z</time>
      </trkpt>
      <trkpt lat="46.19542" lon="6.46793">
        <ele>1226.78</ele>
        <time>2019-02-04T14:54:00Z</time>
      </trkpt>
      <trkpt lat="46.19545" lon="6.46791">
        <ele>1226.3</ele>
        <time>2019-02-04T14:54:06Z</time>
      </trkpt>
      <trkpt lat="46.19548" lon="6.4679">
        <ele>1226.3</ele>
        <time>2019-02-04T14:54:11Z</time>
      </trkpt>
      <trkpt lat="46.19554" lon="6.46792">
        <ele>1226.78</ele>
        <time>2019-02-04T14:54:22Z</time>
      </trkpt>
      <trkpt lat="46.1956" lon="6.46796">
        <ele>1227.26</ele>
        <time>2019-02-04T14:54:33Z</time>
      </trkpt>
      <trkpt lat="46.19562" lon="6.46797">
        <ele>1227.74</ele>
        <time>2019-02-04T14:54:39Z</time>
      </trkpt>
      <trkpt lat="46.19567" lon="6.46803">
        <ele>1228.22</ele>
        <time>2019-02-04T14:54:50Z</time>
      </trkpt>
      <trkpt lat="46.19568" lon="6.46803">
        <ele>1228.7</ele>
        <time>2019-02-04T14:54:52Z</time>
      </trkpt>
      <trkpt lat="46.19576" lon="6.46809">
        <ele>1229.18</ele>
        <time>2019-02-04T14:55:04Z</time>
      </trkpt>
      <trkpt lat="46.19584" lon="6.46815">
        <ele>1229.18</ele>
        <time>2019-02-04T14:55:16Z</time>
      </trkpt>
      <trkpt lat="46.19591" lon="6.46818">
        <ele>1230.14</ele>
        <time>2019-02-04T14:55:29Z</time>
      </trkpt>
      <trkpt lat="46.19596" lon="6.46821">
        <ele>1230.62</ele>
        <time>2019-02-04T14:55:39Z</time>
      </trkpt>
      <trkpt lat="46.19602" lon="6.46825">
        <ele>1231.59</ele>
        <time>2019-02-04T14:55:51Z</time>
      </trkpt>
      <trkpt lat="46.1961" lon="6.46827">
        <ele>1232.07</ele>
        <time>2019-02-04T14:56:06Z</time>
      </trkpt>
      <trkpt lat="46.19618" lon="6.46832">
        <ele>1232.55</ele>
        <time>2019-02-04T14:56:16Z</time>
      </trkpt>
      <trkpt lat="46.1963" lon="6.46834">
        <ele>1233.99</ele>
        <time>2019-02-04T14:56:30Z</time>
      </trkpt>
      <trkpt lat="46.1964" lon="6.46836">
        <ele>1234.47</ele>
        <time>2019-02-04T14:56:41Z</time>
      </trkpt>
      <trkpt lat="46.19649" lon="6.46836">
        <ele>1234.47</ele>
        <time>2019-02-04T14:56:49Z</time>
      </trkpt>
      <trkpt lat="46.19653" lon="6.46834">
        <ele>1235.43</ele>
        <time>2019-02-04T14:56:54Z</time>
      </trkpt>
      <trkpt lat="46.19657" lon="6.46832">
        <ele>1235.43</ele>
        <time>2019-02-04T14:56:58Z</time>
      </trkpt>
      <trkpt lat="46.19659" lon="6.46831">
        <ele>1235.91</ele>
        <time>2019-02-04T14:57:00Z</time>
      </trkpt>
      <trkpt lat="46.19661" lon="6.46829">
        <ele>1235.91</ele>
        <time>2019-02-04T14:57:02Z</time>
      </trkpt>
      <trkpt lat="46.19663" lon="6.46826">
        <ele>1236.39</ele>
        <time>2019-02-04T14:57:05Z</time>
      </trkpt>
      <trkpt lat="46.19666" lon="6.46825">
        <ele>1235.91</ele>
        <time>2019-02-04T14:57:08Z</time>
      </trkpt>
      <trkpt lat="46.19673" lon="6.46816">
        <ele>1236.87</ele>
        <time>2019-02-04T14:57:18Z</time>
      </trkpt>
      <trkpt lat="46.19674" lon="6.46814">
        <ele>1236.87</ele>
        <time>2019-02-04T14:57:20Z</time>
      </trkpt>
      <trkpt lat="46.19676" lon="6.4681">
        <ele>1237.35</ele>
        <time>2019-02-04T14:57:23Z</time>
      </trkpt>
      <trkpt lat="46.19678" lon="6.46808">
        <ele>1236.39</ele>
        <time>2019-02-04T14:57:25Z</time>
      </trkpt>
      <trkpt lat="46.19679" lon="6.46807">
        <ele>1236.87</ele>
        <time>2019-02-04T14:57:27Z</time>
      </trkpt>
      <trkpt lat="46.19683" lon="6.46798">
        <ele>1237.35</ele>
        <time>2019-02-04T14:57:38Z</time>
      </trkpt>
      <trkpt lat="46.19683" lon="6.46798">
        <ele>1237.83</ele>
        <time>2019-02-04T14:57:39Z</time>
      </trkpt>
      <trkpt lat="46.19688" lon="6.46786">
        <ele>1238.8</ele>
        <time>2019-02-04T14:57:51Z</time>
      </trkpt>
      <trkpt lat="46.19689" lon="6.46771">
        <ele>1239.76</ele>
        <time>2019-02-04T14:58:03Z</time>
      </trkpt>
      <trkpt lat="46.19689" lon="6.4676">
        <ele>1240.24</ele>
        <time>2019-02-04T14:58:10Z</time>
      </trkpt>
      <trkpt lat="46.19688" lon="6.46755">
        <ele>1240.24</ele>
        <time>2019-02-04T14:58:13Z</time>
      </trkpt>
      <trkpt lat="46.19689" lon="6.46746">
        <ele>1240.24</ele>
        <time>2019-02-04T14:58:19Z</time>
      </trkpt>
      <trkpt lat="46.19689" lon="6.46735">
        <ele>1240.72</ele>
        <time>2019-02-04T14:58:28Z</time>
      </trkpt>
      <trkpt lat="46.1969" lon="6.46733">
        <ele>1240.24</ele>
        <time>2019-02-04T14:58:30Z</time>
      </trkpt>
      <trkpt lat="46.19691" lon="6.46716">
        <ele>1241.2</ele>
        <time>2019-02-04T14:58:44Z</time>
      </trkpt>
      <trkpt lat="46.19692" lon="6.46701">
        <ele>1241.2</ele>
        <time>2019-02-04T14:58:56Z</time>
      </trkpt>
      <trkpt lat="46.19693" lon="6.46698">
        <ele>1240.72</ele>
        <time>2019-02-04T14:58:59Z</time>
      </trkpt>
      <trkpt lat="46.19692" lon="6.46695">
        <ele>1241.68</ele>
        <time>2019-02-04T14:59:01Z</time>
      </trkpt>
      <trkpt lat="46.19693" lon="6.46689">
        <ele>1241.2</ele>
        <time>2019-02-04T14:59:05Z</time>
      </trkpt>
      <trkpt lat="46.19694" lon="6.46686">
        <ele>1241.68</ele>
        <time>2019-02-04T14:59:07Z</time>
      </trkpt>
      <trkpt lat="46.19695" lon="6.46678">
        <ele>1241.68</ele>
        <time>2019-02-04T14:59:13Z</time>
      </trkpt>
      <trkpt lat="46.19696" lon="6.46672">
        <ele>1242.16</ele>
        <time>2019-02-04T14:59:17Z</time>
      </trkpt>
      <trkpt lat="46.197" lon="6.46653">
        <ele>1242.64</ele>
        <time>2019-02-04T14:59:32Z</time>
      </trkpt>
      <trkpt lat="46.19701" lon="6.46649">
        <ele>1242.64</ele>
        <time>2019-02-04T14:59:36Z</time>
      </trkpt>
      <trkpt lat="46.19703" lon="6.46633">
        <ele>1243.12</ele>
        <time>2019-02-04T14:59:48Z</time>
      </trkpt>
      <trkpt lat="46.19703" lon="6.46628">
        <ele>1243.6</ele>
        <time>2019-02-04T14:59:51Z</time>
      </trkpt>
      <trkpt lat="46.19706" lon="6.46611">
        <ele>1243.6</ele>
        <time>2019-02-04T15:00:04Z</time>
      </trkpt>
      <trkpt lat="46.19707" lon="6.46598">
        <ele>1243.6</ele>
        <time>2019-02-04T15:00:14Z</time>
      </trkpt>
      <trkpt lat="46.19708" lon="6.46595">
        <ele>1243.6</ele>
        <time>2019-02-04T15:00:16Z</time>
      </trkpt>
      <trkpt lat="46.1971" lon="6.46586">
        <ele>1243.6</ele>
        <time>2019-02-04T15:00:24Z</time>
      </trkpt>
      <trkpt lat="46.1971" lon="6.46584">
        <ele>1244.08</ele>
        <time>2019-02-04T15:00:26Z</time>
      </trkpt>
      <trkpt lat="46.19713" lon="6.4657">
        <ele>1244.08</ele>
        <time>2019-02-04T15:00:36Z</time>
      </trkpt>
      <trkpt lat="46.19714" lon="6.46563">
        <ele>1244.08</ele>
        <time>2019-02-04T15:00:40Z</time>
      </trkpt>
      <trkpt lat="46.19715" lon="6.46559">
        <ele>1244.08</ele>
        <time>2019-02-04T15:00:43Z</time>
      </trkpt>
      <trkpt lat="46.19717" lon="6.46545">
        <ele>1244.08</ele>
        <time>2019-02-04T15:00:54Z</time>
      </trkpt>
      <trkpt lat="46.1972" lon="6.46536">
        <ele>1244.08</ele>
        <time>2019-02-04T15:01:01Z</time>
      </trkpt>
      <trkpt lat="46.19722" lon="6.46527">
        <ele>1245.04</ele>
        <time>2019-02-04T15:01:13Z</time>
      </trkpt>
      <trkpt lat="46.19722" lon="6.46524">
        <ele>1244.56</ele>
        <time>2019-02-04T15:01:16Z</time>
      </trkpt>
      <trkpt lat="46.19727" lon="6.4651">
        <ele>1245.04</ele>
        <time>2019-02-04T15:01:28Z</time>
      </trkpt>
      <trkpt lat="46.19731" lon="6.46503">
        <ele>1245.53</ele>
        <time>2019-02-04T15:01:36Z</time>
      </trkpt>
      <trkpt lat="46.19737" lon="6.46495">
        <ele>1246.01</ele>
        <time>2019-02-04T15:01:47Z</time>
      </trkpt>
      <trkpt lat="46.19741" lon="6.4649">
        <ele>1246.01</ele>
        <time>2019-02-04T15:01:59Z</time>
      </trkpt>
      <trkpt lat="46.19744" lon="6.46481">
        <ele>1246.01</ele>
        <time>2019-02-04T15:02:06Z</time>
      </trkpt>
      <trkpt lat="46.19748" lon="6.46466">
        <ele>1246.97</ele>
        <time>2019-02-04T15:02:18Z</time>
      </trkpt>
      <trkpt lat="46.1975" lon="6.46461">
        <ele>1246.97</ele>
        <time>2019-02-04T15:02:22Z</time>
      </trkpt>
      <trkpt lat="46.1975" lon="6.46458">
        <ele>1246.97</ele>
        <time>2019-02-04T15:02:24Z</time>
      </trkpt>
      <trkpt lat="46.19752" lon="6.46442">
        <ele>1246.97</ele>
        <time>2019-02-04T15:02:36Z</time>
      </trkpt>
      <trkpt lat="46.19755" lon="6.46425">
        <ele>1246.49</ele>
        <time>2019-02-04T15:02:48Z</time>
      </trkpt>
      <trkpt lat="46.19756" lon="6.46424">
        <ele>1246.01</ele>
        <time>2019-02-04T15:03:05Z</time>
      </trkpt>
      <trkpt lat="46.19756" lon="6.46424">
        <ele>1245.53</ele>
        <time>2019-02-04T15:03:27Z</time>
      </trkpt>
      <trkpt lat="46.19755" lon="6.46424">
        <ele>1246.49</ele>
        <time>2019-02-04T15:03:49Z</time>
      </trkpt>
      <trkpt lat="46.19755" lon="6.46423">
        <ele>1246.01</ele>
        <time>2019-02-04T15:04:31Z</time>
      </trkpt>
      <trkpt lat="46.19758" lon="6.46422">
        <ele>1246.49</ele>
        <time>2019-02-04T15:04:53Z</time>
      </trkpt>
      <trkpt lat="46.19759" lon="6.46422">
        <ele>1245.53</ele>
        <time>2019-02-04T15:05:07Z</time>
      </trkpt>
      <trkpt lat="46.1976" lon="6.46421">
        <ele>1245.04</ele>
        <time>2019-02-04T15:05:24Z</time>
      </trkpt>
      <trkpt lat="46.19765" lon="6.46412">
        <ele>1245.53</ele>
        <time>2019-02-04T15:05:37Z</time>
      </trkpt>
      <trkpt lat="46.19766" lon="6.4641">
        <ele>1246.01</ele>
        <time>2019-02-04T15:05:39Z</time>
      </trkpt>
      <trkpt lat="46.19773" lon="6.46407">
        <ele>1245.53</ele>
        <time>2019-02-04T15:05:46Z</time>
      </trkpt>
      <trkpt lat="46.19774" lon="6.46405">
        <ele>1245.53</ele>
        <time>2019-02-04T15:05:48Z</time>
      </trkpt>
      <trkpt lat="46.19779" lon="6.46403">
        <ele>1246.01</ele>
        <time>2019-02-04T15:05:53Z</time>
      </trkpt>
      <trkpt lat="46.19792" lon="6.46397">
        <ele>1245.53</ele>
        <time>2019-02-04T15:06:07Z</time>
      </trkpt>
      <trkpt lat="46.19796" lon="6.46387">
        <ele>1246.01</ele>
        <time>2019-02-04T15:06:17Z</time>
      </trkpt>
      <trkpt lat="46.198" lon="6.46375">
        <ele>1246.01</ele>
        <time>2019-02-04T15:06:26Z</time>
      </trkpt>
      <trkpt lat="46.198" lon="6.46372">
        <ele>1245.53</ele>
        <time>2019-02-04T15:06:28Z</time>
      </trkpt>
      <trkpt lat="46.19804" lon="6.46354">
        <ele>1246.49</ele>
        <time>2019-02-04T15:06:41Z</time>
      </trkpt>
      <trkpt lat="46.19805" lon="6.46353">
        <ele>1245.53</ele>
        <time>2019-02-04T15:06:54Z</time>
      </trkpt>
    </trkseg>
  </trk>
  <trk>
    <name><![CDATA[20190212153829-wVrsA]]></name>
    <trkseg>
      <trkpt lat="46.20901" lon="6.57652">
        <ele>1065.76</ele>
        <time>2019-02-05T08:39:07Z</time>
      </trkpt>
      <trkpt lat="46.20902" lon="6.57655">
        <ele>1064.8</ele>
        <time>2019-02-05T08:39:23Z</time>
      </trkpt>
      <trkpt lat="46.20897" lon="6.57662">
        <ele>1069.6</ele>
        <time>2019-02-05T08:39:29Z</time>
      </trkpt>
      <trkpt lat="46.20895" lon="6.57661">
        <ele>1073.93</ele>
        <time>2019-02-05T08:39:31Z</time>
      </trkpt>
      <trkpt lat="46.20894" lon="6.57661">
        <ele>1078.26</ele>
        <time>2019-02-05T08:39:33Z</time>
      </trkpt>
      <trkpt lat="46.20894" lon="6.5766">
        <ele>1082.1</ele>
        <time>2019-02-05T08:39:35Z</time>
      </trkpt>
      <trkpt lat="46.20894" lon="6.5766">
        <ele>1086.43</ele>
        <time>2019-02-05T08:39:38Z</time>
      </trkpt>
      <trkpt lat="46.20892" lon="6.57659">
        <ele>1089.79</ele>
        <time>2019-02-05T08:39:40Z</time>
      </trkpt>
      <trkpt lat="46.20891" lon="6.57661">
        <ele>1093.64</ele>
        <time>2019-02-05T08:39:43Z</time>
      </trkpt>
      <trkpt lat="46.20891" lon="6.57661">
        <ele>1096.04</ele>
        <time>2019-02-05T08:39:46Z</time>
      </trkpt>
      <trkpt lat="46.20891" lon="6.57663">
        <ele>1099.89</ele>
        <time>2019-02-05T08:39:49Z</time>
      </trkpt>
      <trkpt lat="46.20893" lon="6.57665">
        <ele>1103.25</ele>
        <time>2019-02-05T08:39:52Z</time>
      </trkpt>
      <trkpt lat="46.20894" lon="6.57667">
        <ele>1106.61</ele>
        <time>2019-02-05T08:39:56Z</time>
      </trkpt>
      <trkpt lat="46.20893" lon="6.5767">
        <ele>1109.5</ele>
        <time>2019-02-05T08:39:59Z</time>
      </trkpt>
      <trkpt lat="46.20893" lon="6.57672">
        <ele>1110.46</ele>
        <time>2019-02-05T08:40:01Z</time>
      </trkpt>
      <trkpt lat="46.20887" lon="6.5768">
        <ele>1113.82</ele>
        <time>2019-02-05T08:40:07Z</time>
      </trkpt>
      <trkpt lat="46.20885" lon="6.57685">
        <ele>1115.75</ele>
        <time>2019-02-05T08:40:11Z</time>
      </trkpt>
      <trkpt lat="46.20881" lon="6.57692">
        <ele>1119.59</ele>
        <time>2019-02-05T08:40:22Z</time>
      </trkpt>
      <trkpt lat="46.20878" lon="6.57697">
        <ele>1122.96</ele>
        <time>2019-02-05T08:40:38Z</time>
      </trkpt>
      <trkpt lat="46.20872" lon="6.57707">
        <ele>1124.88</ele>
        <time>2019-02-05T08:40:50Z</time>
      </trkpt>
      <trkpt lat="46.20869" lon="6.57714">
        <ele>1126.8</ele>
        <time>2019-02-05T08:40:59Z</time>
      </trkpt>
      <trkpt lat="46.20866" lon="6.57718">
        <ele>1129.21</ele>
        <time>2019-02-05T08:41:15Z</time>
      </trkpt>
      <trkpt lat="46.20863" lon="6.57722">
        <ele>1130.65</ele>
        <time>2019-02-05T08:41:28Z</time>
      </trkpt>
      <trkpt lat="46.20859" lon="6.5773">
        <ele>1131.61</ele>
        <time>2019-02-05T08:41:42Z</time>
      </trkpt>
      <trkpt lat="46.20857" lon="6.57731">
        <ele>1132.09</ele>
        <time>2019-02-05T08:41:45Z</time>
      </trkpt>
      <trkpt lat="46.20853" lon="6.57728">
        <ele>1132.09</ele>
        <time>2019-02-05T08:41:49Z</time>
      </trkpt>
      <trkpt lat="46.20849" lon="6.5771">
        <ele>1133.05</ele>
        <time>2019-02-05T08:42:02Z</time>
      </trkpt>
      <trkpt lat="46.20846" lon="6.57695">
        <ele>1134.49</ele>
        <time>2019-02-05T08:42:15Z</time>
      </trkpt>
      <trkpt lat="46.2084" lon="6.57681">
        <ele>1135.45</ele>
        <time>2019-02-05T08:42:28Z</time>
      </trkpt>
      <trkpt lat="46.20833" lon="6.5767">
        <ele>1136.9</ele>
        <time>2019-02-05T08:42:39Z</time>
      </trkpt>
      <trkpt lat="46.20825" lon="6.57659">
        <ele>1138.34</ele>
        <time>2019-02-05T08:42:52Z</time>
      </trkpt>
      <trkpt lat="46.20819" lon="6.57647">
        <ele>1139.78</ele>
        <time>2019-02-05T08:43:05Z</time>
      </trkpt>
      <trkpt lat="46.20816" lon="6.57633">
        <ele>1141.7</ele>
        <time>2019-02-05T08:43:17Z</time>
      </trkpt>
      <trkpt lat="46.20812" lon="6.57614">
        <ele>1142.66</ele>
        <time>2019-02-05T08:43:31Z</time>
      </trkpt>
      <trkpt lat="46.20808" lon="6.576">
        <ele>1144.11</ele>
        <time>2019-02-05T08:43:42Z</time>
      </trkpt>
      <trkpt lat="46.20801" lon="6.57588">
        <ele>1145.07</ele>
        <time>2019-02-05T08:43:53Z</time>
      </trkpt>
      <trkpt lat="46.20797" lon="6.57582">
        <ele>1145.07</ele>
        <time>2019-02-05T08:43:59Z</time>
      </trkpt>
      <trkpt lat="46.20789" lon="6.57569">
        <ele>1146.03</ele>
        <time>2019-02-05T08:44:12Z</time>
      </trkpt>
      <trkpt lat="46.20784" lon="6.57565">
        <ele>1146.51</ele>
        <time>2019-02-05T08:44:18Z</time>
      </trkpt>
      <trkpt lat="46.20773" lon="6.57556">
        <ele>1146.51</ele>
        <time>2019-02-05T08:44:31Z</time>
      </trkpt>
      <trkpt lat="46.20771" lon="6.57555">
        <ele>1146.99</ele>
        <time>2019-02-05T08:44:33Z</time>
      </trkpt>
      <trkpt lat="46.20767" lon="6.5755">
        <ele>1146.99</ele>
        <time>2019-02-05T08:44:39Z</time>
      </trkpt>
      <trkpt lat="46.20762" lon="6.57547">
        <ele>1147.47</ele>
        <time>2019-02-05T08:44:44Z</time>
      </trkpt>
      <trkpt lat="46.20755" lon="6.5754">
        <ele>1146.99</ele>
        <time>2019-02-05T08:44:53Z</time>
      </trkpt>
      <trkpt lat="46.20753" lon="6.57539">
        <ele>1147.47</ele>
        <time>2019-02-05T08:44:55Z</time>
      </trkpt>
      <trkpt lat="46.20743" lon="6.57529">
        <ele>1148.43</ele>
        <time>2019-02-05T08:45:09Z</time>
      </trkpt>
      <trkpt lat="46.20733" lon="6.5752">
        <ele>1147.95</ele>
        <time>2019-02-05T08:45:22Z</time>
      </trkpt>
      <trkpt lat="46.20725" lon="6.57514">
        <ele>1148.91</ele>
        <time>2019-02-05T08:45:32Z</time>
      </trkpt>
      <trkpt lat="46.20721" lon="6.57512">
        <ele>1149.39</ele>
        <time>2019-02-05T08:45:37Z</time>
      </trkpt>
      <trkpt lat="46.20713" lon="6.57507">
        <ele>1149.87</ele>
        <time>2019-02-05T08:45:46Z</time>
      </trkpt>
      <trkpt lat="46.20702" lon="6.57501">
        <ele>1150.35</ele>
        <time>2019-02-05T08:45:59Z</time>
      </trkpt>
      <trkpt lat="46.20695" lon="6.57492">
        <ele>1150.84</ele>
        <time>2019-02-05T08:46:10Z</time>
      </trkpt>
      <trkpt lat="46.20687" lon="6.5748">
        <ele>1151.8</ele>
        <time>2019-02-05T08:46:24Z</time>
      </trkpt>
      <trkpt lat="46.20678" lon="6.57471">
        <ele>1152.76</ele>
        <time>2019-02-05T08:46:36Z</time>
      </trkpt>
      <trkpt lat="46.20674" lon="6.57467">
        <ele>1152.76</ele>
        <time>2019-02-05T08:46:42Z</time>
      </trkpt>
      <trkpt lat="46.20664" lon="6.57455">
        <ele>1154.2</ele>
        <time>2019-02-05T08:46:57Z</time>
      </trkpt>
      <trkpt lat="46.20654" lon="6.57446">
        <ele>1154.2</ele>
        <time>2019-02-05T08:47:10Z</time>
      </trkpt>
      <trkpt lat="46.20646" lon="6.57443">
        <ele>1155.16</ele>
        <time>2019-02-05T08:47:22Z</time>
      </trkpt>
      <trkpt lat="46.20636" lon="6.57437">
        <ele>1155.16</ele>
        <time>2019-02-05T08:47:34Z</time>
      </trkpt>
      <trkpt lat="46.20627" lon="6.57433">
        <ele>1155.64</ele>
        <time>2019-02-05T08:47:46Z</time>
      </trkpt>
      <trkpt lat="46.20616" lon="6.57426">
        <ele>1156.12</ele>
        <time>2019-02-05T08:47:59Z</time>
      </trkpt>
      <trkpt lat="46.20612" lon="6.57424">
        <ele>1156.12</ele>
        <time>2019-02-05T08:48:03Z</time>
      </trkpt>
      <trkpt lat="46.2061" lon="6.57423">
        <ele>1156.12</ele>
        <time>2019-02-05T08:48:05Z</time>
      </trkpt>
      <trkpt lat="46.20598" lon="6.57415">
        <ele>1156.12</ele>
        <time>2019-02-05T08:48:19Z</time>
      </trkpt>
      <trkpt lat="46.20593" lon="6.57412">
        <ele>1156.6</ele>
        <time>2019-02-05T08:48:25Z</time>
      </trkpt>
      <trkpt lat="46.20584" lon="6.57407">
        <ele>1157.56</ele>
        <time>2019-02-05T08:48:36Z</time>
      </trkpt>
      <trkpt lat="46.20582" lon="6.57405">
        <ele>1157.56</ele>
        <time>2019-02-05T08:48:38Z</time>
      </trkpt>
      <trkpt lat="46.20571" lon="6.57397">
        <ele>1157.56</ele>
        <time>2019-02-05T08:48:51Z</time>
      </trkpt>
      <trkpt lat="46.20569" lon="6.57396">
        <ele>1158.05</ele>
        <time>2019-02-05T08:48:53Z</time>
      </trkpt>
      <trkpt lat="46.20565" lon="6.57394">
        <ele>1158.05</ele>
        <time>2019-02-05T08:48:57Z</time>
      </trkpt>
      <trkpt lat="46.20561" lon="6.57392">
        <ele>1158.05</ele>
        <time>2019-02-05T08:49:01Z</time>
      </trkpt>
      <trkpt lat="46.2056" lon="6.5739">
        <ele>1157.56</ele>
        <time>2019-02-05T08:49:03Z</time>
      </trkpt>
      <trkpt lat="46.20558" lon="6.5739">
        <ele>1158.05</ele>
        <time>2019-02-05T08:49:05Z</time>
      </trkpt>
      <trkpt lat="46.2055" lon="6.57381">
        <ele>1158.53</ele>
        <time>2019-02-05T08:49:16Z</time>
      </trkpt>
      <trkpt lat="46.20548" lon="6.57379">
        <ele>1158.53</ele>
        <time>2019-02-05T08:49:18Z</time>
      </trkpt>
      <trkpt lat="46.20541" lon="6.57375">
        <ele>1159.01</ele>
        <time>2019-02-05T08:49:26Z</time>
      </trkpt>
      <trkpt lat="46.20539" lon="6.57374">
        <ele>1159.97</ele>
        <time>2019-02-05T08:49:28Z</time>
      </trkpt>
      <trkpt lat="46.20531" lon="6.57365">
        <ele>1159.49</ele>
        <time>2019-02-05T08:49:40Z</time>
      </trkpt>
      <trkpt lat="46.20526" lon="6.5736">
        <ele>1160.45</ele>
        <time>2019-02-05T08:49:47Z</time>
      </trkpt>
      <trkpt lat="46.20514" lon="6.57352">
        <ele>1160.93</ele>
        <time>2019-02-05T08:50:00Z</time>
      </trkpt>
      <trkpt lat="46.20512" lon="6.57351">
        <ele>1160.93</ele>
        <time>2019-02-05T08:50:02Z</time>
      </trkpt>
      <trkpt lat="46.2051" lon="6.5735">
        <ele>1160.45</ele>
        <time>2019-02-05T08:50:04Z</time>
      </trkpt>
      <trkpt lat="46.20503" lon="6.57343">
        <ele>1161.41</ele>
        <time>2019-02-05T08:50:14Z</time>
      </trkpt>
      <trkpt lat="46.20501" lon="6.57342">
        <ele>1161.41</ele>
        <time>2019-02-05T08:50:16Z</time>
      </trkpt>
      <trkpt lat="46.20494" lon="6.57337">
        <ele>1161.89</ele>
        <time>2019-02-05T08:50:25Z</time>
      </trkpt>
      <trkpt lat="46.20487" lon="6.57331">
        <ele>1161.89</ele>
        <time>2019-02-05T08:50:34Z</time>
      </trkpt>
      <trkpt lat="46.20479" lon="6.57325">
        <ele>1162.85</ele>
        <time>2019-02-05T08:50:43Z</time>
      </trkpt>
      <trkpt lat="46.20469" lon="6.57316">
        <ele>1163.33</ele>
        <time>2019-02-05T08:50:56Z</time>
      </trkpt>
      <trkpt lat="46.20467" lon="6.57316">
        <ele>1163.33</ele>
        <time>2019-02-05T08:50:58Z</time>
      </trkpt>
      <trkpt lat="46.20462" lon="6.57311">
        <ele>1163.33</ele>
        <time>2019-02-05T08:51:04Z</time>
      </trkpt>
      <trkpt lat="46.20449" lon="6.57305">
        <ele>1164.29</ele>
        <time>2019-02-05T08:51:18Z</time>
      </trkpt>
      <trkpt lat="46.20448" lon="6.57304">
        <ele>1164.29</ele>
        <time>2019-02-05T08:51:19Z</time>
      </trkpt>
      <trkpt lat="46.20435" lon="6.57297">
        <ele>1164.77</ele>
        <time>2019-02-05T08:51:33Z</time>
      </trkpt>
      <trkpt lat="46.20424" lon="6.57286">
        <ele>1164.77</ele>
        <time>2019-02-05T08:51:47Z</time>
      </trkpt>
      <trkpt lat="46.20414" lon="6.57281">
        <ele>1164.77</ele>
        <time>2019-02-05T08:51:58Z</time>
      </trkpt>
      <trkpt lat="46.20409" lon="6.57274">
        <ele>1166.22</ele>
        <time>2019-02-05T08:52:07Z</time>
      </trkpt>
      <trkpt lat="46.20404" lon="6.57272">
        <ele>1166.22</ele>
        <time>2019-02-05T08:52:11Z</time>
      </trkpt>
      <trkpt lat="46.20402" lon="6.57267">
        <ele>1166.22</ele>
        <time>2019-02-05T08:52:16Z</time>
      </trkpt>
      <trkpt lat="46.20396" lon="6.57253">
        <ele>1167.18</ele>
        <time>2019-02-05T08:52:28Z</time>
      </trkpt>
      <trkpt lat="46.20395" lon="6.5725">
        <ele>1167.18</ele>
        <time>2019-02-05T08:52:30Z</time>
      </trkpt>
      <trkpt lat="46.20394" lon="6.57246">
        <ele>1167.18</ele>
        <time>2019-02-05T08:52:33Z</time>
      </trkpt>
      <trkpt lat="46.20393" lon="6.57243">
        <ele>1167.18</ele>
        <time>2019-02-05T08:52:35Z</time>
      </trkpt>
      <trkpt lat="46.20391" lon="6.57241">
        <ele>1167.18</ele>
        <time>2019-02-05T08:52:37Z</time>
      </trkpt>
      <trkpt lat="46.20385" lon="6.57222">
        <ele>1168.14</ele>
        <time>2019-02-05T08:52:52Z</time>
      </trkpt>
      <trkpt lat="46.20378" lon="6.57209">
        <ele>1169.58</ele>
        <time>2019-02-05T08:53:04Z</time>
      </trkpt>
      <trkpt lat="46.20369" lon="6.57195">
        <ele>1170.06</ele>
        <time>2019-02-05T08:53:18Z</time>
      </trkpt>
      <trkpt lat="46.20367" lon="6.57192">
        <ele>1170.54</ele>
        <time>2019-02-05T08:53:21Z</time>
      </trkpt>
      <trkpt lat="46.20359" lon="6.57178">
        <ele>1171.5</ele>
        <time>2019-02-05T08:53:34Z</time>
      </trkpt>
      <trkpt lat="46.2035" lon="6.57167">
        <ele>1171.5</ele>
        <time>2019-02-05T08:53:46Z</time>
      </trkpt>
      <trkpt lat="46.20347" lon="6.57164">
        <ele>1171.5</ele>
        <time>2019-02-05T08:53:49Z</time>
      </trkpt>
      <trkpt lat="46.20344" lon="6.57162">
        <ele>1172.47</ele>
        <time>2019-02-05T08:53:53Z</time>
      </trkpt>
      <trkpt lat="46.20341" lon="6.57161">
        <ele>1172.47</ele>
        <time>2019-02-05T08:53:56Z</time>
      </trkpt>
      <trkpt lat="46.20331" lon="6.57155">
        <ele>1171.98</ele>
        <time>2019-02-05T08:54:08Z</time>
      </trkpt>
      <trkpt lat="46.20326" lon="6.57153">
        <ele>1172.47</ele>
        <time>2019-02-05T08:54:12Z</time>
      </trkpt>
      <trkpt lat="46.20312" lon="6.57149">
        <ele>1172.95</ele>
        <time>2019-02-05T08:54:28Z</time>
      </trkpt>
      <trkpt lat="46.20312" lon="6.57149">
        <ele>1172.47</ele>
        <time>2019-02-05T08:55:25Z</time>
      </trkpt>
      <trkpt lat="46.20312" lon="6.57148">
        <ele>1172.47</ele>
        <time>2019-02-05T08:55:59Z</time>
      </trkpt>
      <trkpt lat="46.20313" lon="6.57148">
        <ele>1172.47</ele>
        <time>2019-02-05T08:56:59Z</time>
      </trkpt>
      <trkpt lat="46.20313" lon="6.57146">
        <ele>1172.47</ele>
        <time>2019-02-05T08:58:28Z</time>
      </trkpt>
      <trkpt lat="46.20315" lon="6.57147">
        <ele>1171.98</ele>
        <time>2019-02-05T08:59:27Z</time>
      </trkpt>
      <trkpt lat="46.2031" lon="6.57149">
        <ele>1172.47</ele>
        <time>2019-02-05T09:00:11Z</time>
      </trkpt>
      <trkpt lat="46.20305" lon="6.57147">
        <ele>1172.47</ele>
        <time>2019-02-05T09:00:17Z</time>
      </trkpt>
      <trkpt lat="46.20297" lon="6.57142">
        <ele>1172.47</ele>
        <time>2019-02-05T09:00:28Z</time>
      </trkpt>
      <trkpt lat="46.20285" lon="6.57138">
        <ele>1172.47</ele>
        <time>2019-02-05T09:00:42Z</time>
      </trkpt>
      <trkpt lat="46.20277" lon="6.57136">
        <ele>1172.95</ele>
        <time>2019-02-05T09:00:55Z</time>
      </trkpt>
      <trkpt lat="46.20271" lon="6.57132">
        <ele>1172.95</ele>
        <time>2019-02-05T09:01:07Z</time>
      </trkpt>
      <trkpt lat="46.2026" lon="6.57129">
        <ele>1173.43</ele>
        <time>2019-02-05T09:01:20Z</time>
      </trkpt>
      <trkpt lat="46.20251" lon="6.57127">
        <ele>1172.95</ele>
        <time>2019-02-05T09:01:30Z</time>
      </trkpt>
      <trkpt lat="46.20249" lon="6.57127">
        <ele>1173.43</ele>
        <time>2019-02-05T09:01:32Z</time>
      </trkpt>
      <trkpt lat="46.20237" lon="6.57124">
        <ele>1173.43</ele>
        <time>2019-02-05T09:01:44Z</time>
      </trkpt>
      <trkpt lat="46.20234" lon="6.57124">
        <ele>1173.43</ele>
        <time>2019-02-05T09:01:46Z</time>
      </trkpt>
      <trkpt lat="46.20221" lon="6.5712">
        <ele>1173.43</ele>
        <time>2019-02-05T09:01:59Z</time>
      </trkpt>
      <trkpt lat="46.20208" lon="6.57118">
        <ele>1174.39</ele>
        <time>2019-02-05T09:02:12Z</time>
      </trkpt>
      <trkpt lat="46.20199" lon="6.57113">
        <ele>1173.91</ele>
        <time>2019-02-05T09:02:23Z</time>
      </trkpt>
      <trkpt lat="46.20198" lon="6.57112">
        <ele>1174.39</ele>
        <time>2019-02-05T09:02:25Z</time>
      </trkpt>
      <trkpt lat="46.20196" lon="6.57112">
        <ele>1173.91</ele>
        <time>2019-02-05T09:02:27Z</time>
      </trkpt>
      <trkpt lat="46.20186" lon="6.57109">
        <ele>1174.39</ele>
        <time>2019-02-05T09:02:37Z</time>
      </trkpt>
      <trkpt lat="46.20183" lon="6.57106">
        <ele>1174.39</ele>
        <time>2019-02-05T09:02:41Z</time>
      </trkpt>
      <trkpt lat="46.2018" lon="6.57105">
        <ele>1174.39</ele>
        <time>2019-02-05T09:02:45Z</time>
      </trkpt>
      <trkpt lat="46.20178" lon="6.57101">
        <ele>1174.39</ele>
        <time>2019-02-05T09:02:49Z</time>
      </trkpt>
      <trkpt lat="46.20171" lon="6.57095">
        <ele>1174.87</ele>
        <time>2019-02-05T09:02:58Z</time>
      </trkpt>
      <trkpt lat="46.20167" lon="6.57094">
        <ele>1174.87</ele>
        <time>2019-02-05T09:03:02Z</time>
      </trkpt>
      <trkpt lat="46.20162" lon="6.57094">
        <ele>1175.35</ele>
        <time>2019-02-05T09:03:07Z</time>
      </trkpt>
      <trkpt lat="46.20157" lon="6.57095">
        <ele>1175.83</ele>
        <time>2019-02-05T09:03:11Z</time>
      </trkpt>
      <trkpt lat="46.20145" lon="6.57097">
        <ele>1176.31</ele>
        <time>2019-02-05T09:03:20Z</time>
      </trkpt>
      <trkpt lat="46.20142" lon="6.57096">
        <ele>1176.31</ele>
        <time>2019-02-05T09:03:23Z</time>
      </trkpt>
      <trkpt lat="46.20133" lon="6.57094">
        <ele>1176.31</ele>
        <time>2019-02-05T09:03:33Z</time>
      </trkpt>
      <trkpt lat="46.20126" lon="6.57097">
        <ele>1176.79</ele>
        <time>2019-02-05T09:03:37Z</time>
      </trkpt>
      <trkpt lat="46.20119" lon="6.57092">
        <ele>1177.27</ele>
        <time>2019-02-05T09:03:47Z</time>
      </trkpt>
      <trkpt lat="46.20112" lon="6.57091">
        <ele>1177.75</ele>
        <time>2019-02-05T09:03:55Z</time>
      </trkpt>
      <trkpt lat="46.20099" lon="6.57087">
        <ele>1178.71</ele>
        <time>2019-02-05T09:04:08Z</time>
      </trkpt>
      <trkpt lat="46.20092" lon="6.57083">
        <ele>1178.71</ele>
        <time>2019-02-05T09:04:16Z</time>
      </trkpt>
      <trkpt lat="46.20078" lon="6.57078">
        <ele>1179.67</ele>
        <time>2019-02-05T09:04:30Z</time>
      </trkpt>
      <trkpt lat="46.20075" lon="6.57072">
        <ele>1179.67</ele>
        <time>2019-02-05T09:04:36Z</time>
      </trkpt>
      <trkpt lat="46.20072" lon="6.57071">
        <ele>1180.16</ele>
        <time>2019-02-05T09:04:39Z</time>
      </trkpt>
      <trkpt lat="46.20071" lon="6.57068">
        <ele>1179.67</ele>
        <time>2019-02-05T09:04:41Z</time>
      </trkpt>
      <trkpt lat="46.20067" lon="6.57064">
        <ele>1180.64</ele>
        <time>2019-02-05T09:04:47Z</time>
      </trkpt>
      <trkpt lat="46.20064" lon="6.5706">
        <ele>1180.16</ele>
        <time>2019-02-05T09:04:51Z</time>
      </trkpt>
      <trkpt lat="46.20052" lon="6.57049">
        <ele>1181.12</ele>
        <time>2019-02-05T09:05:07Z</time>
      </trkpt>
      <trkpt lat="46.20052" lon="6.57047">
        <ele>1181.12</ele>
        <time>2019-02-05T09:05:22Z</time>
      </trkpt>
      <trkpt lat="46.20051" lon="6.57047">
        <ele>1181.12</ele>
        <time>2019-02-05T09:05:47Z</time>
      </trkpt>
      <trkpt lat="46.20046" lon="6.57044">
        <ele>1181.6</ele>
        <time>2019-02-05T09:05:52Z</time>
      </trkpt>
      <trkpt lat="46.2004" lon="6.57041">
        <ele>1181.12</ele>
        <time>2019-02-05T09:05:57Z</time>
      </trkpt>
      <trkpt lat="46.20033" lon="6.57034">
        <ele>1181.6</ele>
        <time>2019-02-05T09:06:05Z</time>
      </trkpt>
      <trkpt lat="46.2003" lon="6.57034">
        <ele>1182.08</ele>
        <time>2019-02-05T09:06:07Z</time>
      </trkpt>
      <trkpt lat="46.20024" lon="6.57031">
        <ele>1182.08</ele>
        <time>2019-02-05T09:06:12Z</time>
      </trkpt>
      <trkpt lat="46.20019" lon="6.57029">
        <ele>1182.56</ele>
        <time>2019-02-05T09:06:16Z</time>
      </trkpt>
      <trkpt lat="46.20016" lon="6.57026">
        <ele>1183.04</ele>
        <time>2019-02-05T09:06:19Z</time>
      </trkpt>
      <trkpt lat="46.20013" lon="6.57024">
        <ele>1183.04</ele>
        <time>2019-02-05T09:06:22Z</time>
      </trkpt>
      <trkpt lat="46.20005" lon="6.57018">
        <ele>1183.52</ele>
        <time>2019-02-05T09:06:29Z</time>
      </trkpt>
      <trkpt lat="46.20003" lon="6.57017">
        <ele>1184</ele>
        <time>2019-02-05T09:06:31Z</time>
      </trkpt>
      <trkpt lat="46.2" lon="6.57016">
        <ele>1183.52</ele>
        <time>2019-02-05T09:06:34Z</time>
      </trkpt>
      <trkpt lat="46.19991" lon="6.57007">
        <ele>1184</ele>
        <time>2019-02-05T09:06:46Z</time>
      </trkpt>
      <trkpt lat="46.19986" lon="6.57001">
        <ele>1184.96</ele>
        <time>2019-02-05T09:06:51Z</time>
      </trkpt>
      <trkpt lat="46.19974" lon="6.56991">
        <ele>1185.44</ele>
        <time>2019-02-05T09:07:04Z</time>
      </trkpt>
      <trkpt lat="46.19963" lon="6.5698">
        <ele>1185.92</ele>
        <time>2019-02-05T09:07:16Z</time>
      </trkpt>
      <trkpt lat="46.1995" lon="6.56973">
        <ele>1186.4</ele>
        <time>2019-02-05T09:07:28Z</time>
      </trkpt>
      <trkpt lat="46.1994" lon="6.56963">
        <ele>1187.37</ele>
        <time>2019-02-05T09:07:39Z</time>
      </trkpt>
      <trkpt lat="46.19929" lon="6.56955">
        <ele>1187.85</ele>
        <time>2019-02-05T09:07:50Z</time>
      </trkpt>
      <trkpt lat="46.19925" lon="6.56954">
        <ele>1186.88</ele>
        <time>2019-02-05T09:07:53Z</time>
      </trkpt>
      <trkpt lat="46.19922" lon="6.56951">
        <ele>1187.85</ele>
        <time>2019-02-05T09:07:56Z</time>
      </trkpt>
      <trkpt lat="46.19908" lon="6.56939">
        <ele>1188.33</ele>
        <time>2019-02-05T09:08:09Z</time>
      </trkpt>
      <trkpt lat="46.19907" lon="6.56938">
        <ele>1188.81</ele>
        <time>2019-02-05T09:08:10Z</time>
      </trkpt>
      <trkpt lat="46.19905" lon="6.56936">
        <ele>1188.81</ele>
        <time>2019-02-05T09:08:12Z</time>
      </trkpt>
      <trkpt lat="46.19897" lon="6.56932">
        <ele>1189.77</ele>
        <time>2019-02-05T09:08:20Z</time>
      </trkpt>
      <trkpt lat="46.19891" lon="6.56931">
        <ele>1189.29</ele>
        <time>2019-02-05T09:08:25Z</time>
      </trkpt>
      <trkpt lat="46.1988" lon="6.56926">
        <ele>1189.77</ele>
        <time>2019-02-05T09:08:37Z</time>
      </trkpt>
      <trkpt lat="46.19868" lon="6.56925">
        <ele>1190.25</ele>
        <time>2019-02-05T09:08:48Z</time>
      </trkpt>
      <trkpt lat="46.19857" lon="6.56922">
        <ele>1190.73</ele>
        <time>2019-02-05T09:09:00Z</time>
      </trkpt>
      <trkpt lat="46.19845" lon="6.5692">
        <ele>1192.17</ele>
        <time>2019-02-05T09:09:12Z</time>
      </trkpt>
      <trkpt lat="46.19837" lon="6.56914">
        <ele>1192.65</ele>
        <time>2019-02-05T09:09:22Z</time>
      </trkpt>
      <trkpt lat="46.19826" lon="6.5691">
        <ele>1193.13</ele>
        <time>2019-02-05T09:09:34Z</time>
      </trkpt>
      <trkpt lat="46.19817" lon="6.56906">
        <ele>1194.09</ele>
        <time>2019-02-05T09:09:46Z</time>
      </trkpt>
      <trkpt lat="46.19803" lon="6.56903">
        <ele>1195.06</ele>
        <time>2019-02-05T09:09:59Z</time>
      </trkpt>
      <trkpt lat="46.19794" lon="6.569">
        <ele>1195.54</ele>
        <time>2019-02-05T09:10:10Z</time>
      </trkpt>
      <trkpt lat="46.19781" lon="6.569">
        <ele>1196.5</ele>
        <time>2019-02-05T09:10:24Z</time>
      </trkpt>
      <trkpt lat="46.19771" lon="6.56894">
        <ele>1197.46</ele>
        <time>2019-02-05T09:10:38Z</time>
      </trkpt>
      <trkpt lat="46.19762" lon="6.56887">
        <ele>1198.9</ele>
        <time>2019-02-05T09:10:52Z</time>
      </trkpt>
      <trkpt lat="46.19751" lon="6.56886">
        <ele>1199.38</ele>
        <time>2019-02-05T09:11:04Z</time>
      </trkpt>
      <trkpt lat="46.19742" lon="6.56884">
        <ele>1200.82</ele>
        <time>2019-02-05T09:11:16Z</time>
      </trkpt>
      <trkpt lat="46.19733" lon="6.56883">
        <ele>1201.3</ele>
        <time>2019-02-05T09:11:27Z</time>
      </trkpt>
      <trkpt lat="46.1973" lon="6.56882">
        <ele>1202.27</ele>
        <time>2019-02-05T09:11:32Z</time>
      </trkpt>
      <trkpt lat="46.1972" lon="6.56877">
        <ele>1203.23</ele>
        <time>2019-02-05T09:11:43Z</time>
      </trkpt>
      <trkpt lat="46.19713" lon="6.56875">
        <ele>1204.19</ele>
        <time>2019-02-05T09:11:54Z</time>
      </trkpt>
      <trkpt lat="46.19708" lon="6.56873">
        <ele>1205.15</ele>
        <time>2019-02-05T09:12:04Z</time>
      </trkpt>
      <trkpt lat="46.19702" lon="6.56871">
        <ele>1205.63</ele>
        <time>2019-02-05T09:12:11Z</time>
      </trkpt>
      <trkpt lat="46.19698" lon="6.5687">
        <ele>1206.59</ele>
        <time>2019-02-05T09:12:15Z</time>
      </trkpt>
      <trkpt lat="46.19685" lon="6.56866">
        <ele>1207.55</ele>
        <time>2019-02-05T09:12:29Z</time>
      </trkpt>
      <trkpt lat="46.19676" lon="6.56863">
        <ele>1208.03</ele>
        <time>2019-02-05T09:12:41Z</time>
      </trkpt>
      <trkpt lat="46.19669" lon="6.56854">
        <ele>1209.96</ele>
        <time>2019-02-05T09:12:54Z</time>
      </trkpt>
      <trkpt lat="46.19663" lon="6.5685">
        <ele>1210.44</ele>
        <time>2019-02-05T09:13:01Z</time>
      </trkpt>
      <trkpt lat="46.19659" lon="6.56845">
        <ele>1210.92</ele>
        <time>2019-02-05T09:13:07Z</time>
      </trkpt>
      <trkpt lat="46.19649" lon="6.56837">
        <ele>1212.36</ele>
        <time>2019-02-05T09:13:21Z</time>
      </trkpt>
      <trkpt lat="46.19644" lon="6.56836">
        <ele>1212.84</ele>
        <time>2019-02-05T09:13:28Z</time>
      </trkpt>
      <trkpt lat="46.19635" lon="6.56827">
        <ele>1214.28</ele>
        <time>2019-02-05T09:13:41Z</time>
      </trkpt>
      <trkpt lat="46.19625" lon="6.5682">
        <ele>1214.76</ele>
        <time>2019-02-05T09:13:52Z</time>
      </trkpt>
      <trkpt lat="46.19613" lon="6.56812">
        <ele>1216.21</ele>
        <time>2019-02-05T09:14:06Z</time>
      </trkpt>
      <trkpt lat="46.19612" lon="6.5681">
        <ele>1216.21</ele>
        <time>2019-02-05T09:14:09Z</time>
      </trkpt>
      <trkpt lat="46.1961" lon="6.56807">
        <ele>1216.21</ele>
        <time>2019-02-05T09:14:12Z</time>
      </trkpt>
      <trkpt lat="46.19606" lon="6.56807">
        <ele>1216.21</ele>
        <time>2019-02-05T09:14:16Z</time>
      </trkpt>
      <trkpt lat="46.19602" lon="6.56805">
        <ele>1216.69</ele>
        <time>2019-02-05T09:14:33Z</time>
      </trkpt>
      <trkpt lat="46.19602" lon="6.56806">
        <ele>1216.69</ele>
        <time>2019-02-05T09:14:54Z</time>
      </trkpt>
      <trkpt lat="46.19602" lon="6.56806">
        <ele>1217.17</ele>
        <time>2019-02-05T09:15:54Z</time>
      </trkpt>
      <trkpt lat="46.19602" lon="6.56806">
        <ele>1216.69</ele>
        <time>2019-02-05T09:17:43Z</time>
      </trkpt>
      <trkpt lat="46.19603" lon="6.56805">
        <ele>1216.21</ele>
        <time>2019-02-05T09:19:29Z</time>
      </trkpt>
      <trkpt lat="46.19605" lon="6.56804">
        <ele>1216.21</ele>
        <time>2019-02-05T09:20:24Z</time>
      </trkpt>
      <trkpt lat="46.19609" lon="6.56803">
        <ele>1215.24</ele>
        <time>2019-02-05T09:20:55Z</time>
      </trkpt>
      <trkpt lat="46.19614" lon="6.56806">
        <ele>1214.76</ele>
        <time>2019-02-05T09:20:59Z</time>
      </trkpt>
      <trkpt lat="46.19627" lon="6.56814">
        <ele>1214.28</ele>
        <time>2019-02-05T09:21:11Z</time>
      </trkpt>
      <trkpt lat="46.19634" lon="6.56819">
        <ele>1213.8</ele>
        <time>2019-02-05T09:21:19Z</time>
      </trkpt>
      <trkpt lat="46.19646" lon="6.56828">
        <ele>1212.84</ele>
        <time>2019-02-05T09:21:32Z</time>
      </trkpt>
      <trkpt lat="46.19655" lon="6.56835">
        <ele>1211.4</ele>
        <time>2019-02-05T09:21:44Z</time>
      </trkpt>
      <trkpt lat="46.19663" lon="6.56839">
        <ele>1209.96</ele>
        <time>2019-02-05T09:21:55Z</time>
      </trkpt>
      <trkpt lat="46.19669" lon="6.56843">
        <ele>1209.48</ele>
        <time>2019-02-05T09:22:01Z</time>
      </trkpt>
      <trkpt lat="46.1968" lon="6.56851">
        <ele>1207.55</ele>
        <time>2019-02-05T09:22:13Z</time>
      </trkpt>
      <trkpt lat="46.19682" lon="6.56852">
        <ele>1208.03</ele>
        <time>2019-02-05T09:22:15Z</time>
      </trkpt>
      <trkpt lat="46.19691" lon="6.56857">
        <ele>1206.11</ele>
        <time>2019-02-05T09:22:28Z</time>
      </trkpt>
      <trkpt lat="46.197" lon="6.56862">
        <ele>1205.15</ele>
        <time>2019-02-05T09:22:39Z</time>
      </trkpt>
      <trkpt lat="46.19711" lon="6.56867">
        <ele>1203.71</ele>
        <time>2019-02-05T09:22:52Z</time>
      </trkpt>
      <trkpt lat="46.19723" lon="6.56868">
        <ele>1201.79</ele>
        <time>2019-02-05T09:23:04Z</time>
      </trkpt>
      <trkpt lat="46.19734" lon="6.56872">
        <ele>1200.82</ele>
        <time>2019-02-05T09:23:18Z</time>
      </trkpt>
      <trkpt lat="46.19746" lon="6.56873">
        <ele>1199.38</ele>
        <time>2019-02-05T09:23:29Z</time>
      </trkpt>
      <trkpt lat="46.19758" lon="6.56875">
        <ele>1197.94</ele>
        <time>2019-02-05T09:23:40Z</time>
      </trkpt>
      <trkpt lat="46.19772" lon="6.56877">
        <ele>1196.5</ele>
        <time>2019-02-05T09:23:54Z</time>
      </trkpt>
      <trkpt lat="46.19783" lon="6.56882">
        <ele>1196.02</ele>
        <time>2019-02-05T09:24:05Z</time>
      </trkpt>
      <trkpt lat="46.19791" lon="6.56885">
        <ele>1194.58</ele>
        <time>2019-02-05T09:24:12Z</time>
      </trkpt>
      <trkpt lat="46.19796" lon="6.56887">
        <ele>1194.58</ele>
        <time>2019-02-05T09:24:17Z</time>
      </trkpt>
      <trkpt lat="46.19804" lon="6.56889">
        <ele>1194.09</ele>
        <time>2019-02-05T09:24:23Z</time>
      </trkpt>
      <trkpt lat="46.19812" lon="6.56892">
        <ele>1193.13</ele>
        <time>2019-02-05T09:24:32Z</time>
      </trkpt>
      <trkpt lat="46.19826" lon="6.56898">
        <ele>1192.17</ele>
        <time>2019-02-05T09:24:45Z</time>
      </trkpt>
      <trkpt lat="46.19828" lon="6.56898">
        <ele>1192.17</ele>
        <time>2019-02-05T09:24:47Z</time>
      </trkpt>
      <trkpt lat="46.19835" lon="6.56899">
        <ele>1191.69</ele>
        <time>2019-02-05T09:24:53Z</time>
      </trkpt>
      <trkpt lat="46.19838" lon="6.569">
        <ele>1190.73</ele>
        <time>2019-02-05T09:24:56Z</time>
      </trkpt>
      <trkpt lat="46.19852" lon="6.56907">
        <ele>1190.25</ele>
        <time>2019-02-05T09:25:11Z</time>
      </trkpt>
      <trkpt lat="46.19858" lon="6.56909">
        <ele>1189.77</ele>
        <time>2019-02-05T09:25:17Z</time>
      </trkpt>
      <trkpt lat="46.19872" lon="6.56912">
        <ele>1188.81</ele>
        <time>2019-02-05T09:25:32Z</time>
      </trkpt>
      <trkpt lat="46.19886" lon="6.56916">
        <ele>1187.85</ele>
        <time>2019-02-05T09:25:45Z</time>
      </trkpt>
      <trkpt lat="46.19901" lon="6.56923">
        <ele>1186.4</ele>
        <time>2019-02-05T09:26:00Z</time>
      </trkpt>
      <trkpt lat="46.19902" lon="6.56925">
        <ele>1186.4</ele>
        <time>2019-02-05T09:26:01Z</time>
      </trkpt>
      <trkpt lat="46.19917" lon="6.56935">
        <ele>1186.4</ele>
        <time>2019-02-05T09:26:17Z</time>
      </trkpt>
      <trkpt lat="46.19919" lon="6.56935">
        <ele>1186.4</ele>
        <time>2019-02-05T09:26:19Z</time>
      </trkpt>
      <trkpt lat="46.19927" lon="6.56942">
        <ele>1185.44</ele>
        <time>2019-02-05T09:26:27Z</time>
      </trkpt>
      <trkpt lat="46.19929" lon="6.56942">
        <ele>1185.44</ele>
        <time>2019-02-05T09:26:29Z</time>
      </trkpt>
      <trkpt lat="46.19942" lon="6.56952">
        <ele>1184.96</ele>
        <time>2019-02-05T09:26:43Z</time>
      </trkpt>
      <trkpt lat="46.19946" lon="6.56956">
        <ele>1184.48</ele>
        <time>2019-02-05T09:26:47Z</time>
      </trkpt>
      <trkpt lat="46.19959" lon="6.56968">
        <ele>1184</ele>
        <time>2019-02-05T09:27:03Z</time>
      </trkpt>
      <trkpt lat="46.19964" lon="6.5697">
        <ele>1183.52</ele>
        <time>2019-02-05T09:27:08Z</time>
      </trkpt>
      <trkpt lat="46.19968" lon="6.56974">
        <ele>1183.04</ele>
        <time>2019-02-05T09:27:11Z</time>
      </trkpt>
      <trkpt lat="46.19983" lon="6.56986">
        <ele>1182.56</ele>
        <time>2019-02-05T09:27:26Z</time>
      </trkpt>
      <trkpt lat="46.19986" lon="6.5699">
        <ele>1182.56</ele>
        <time>2019-02-05T09:27:30Z</time>
      </trkpt>
      <trkpt lat="46.19988" lon="6.56991">
        <ele>1182.08</ele>
        <time>2019-02-05T09:27:32Z</time>
      </trkpt>
      <trkpt lat="46.19996" lon="6.56997">
        <ele>1181.12</ele>
        <time>2019-02-05T09:27:40Z</time>
      </trkpt>
      <trkpt lat="46.19998" lon="6.57">
        <ele>1181.12</ele>
        <time>2019-02-05T09:27:43Z</time>
      </trkpt>
      <trkpt lat="46.20002" lon="6.57003">
        <ele>1180.64</ele>
        <time>2019-02-05T09:27:47Z</time>
      </trkpt>
      <trkpt lat="46.20005" lon="6.57005">
        <ele>1181.12</ele>
        <time>2019-02-05T09:27:50Z</time>
      </trkpt>
      <trkpt lat="46.2001" lon="6.57011">
        <ele>1180.16</ele>
        <time>2019-02-05T09:27:56Z</time>
      </trkpt>
      <trkpt lat="46.20024" lon="6.5702">
        <ele>1179.67</ele>
        <time>2019-02-05T09:28:10Z</time>
      </trkpt>
      <trkpt lat="46.20035" lon="6.57027">
        <ele>1178.71</ele>
        <time>2019-02-05T09:28:20Z</time>
      </trkpt>
      <trkpt lat="46.20038" lon="6.57029">
        <ele>1178.71</ele>
        <time>2019-02-05T09:28:23Z</time>
      </trkpt>
      <trkpt lat="46.20042" lon="6.57032">
        <ele>1177.75</ele>
        <time>2019-02-05T09:28:28Z</time>
      </trkpt>
      <trkpt lat="46.20048" lon="6.57038">
        <ele>1177.75</ele>
        <time>2019-02-05T09:28:35Z</time>
      </trkpt>
      <trkpt lat="46.20051" lon="6.57039">
        <ele>1178.23</ele>
        <time>2019-02-05T09:28:37Z</time>
      </trkpt>
      <trkpt lat="46.20054" lon="6.57043">
        <ele>1177.75</ele>
        <time>2019-02-05T09:28:42Z</time>
      </trkpt>
      <trkpt lat="46.20057" lon="6.57045">
        <ele>1177.27</ele>
        <time>2019-02-05T09:28:46Z</time>
      </trkpt>
      <trkpt lat="46.20068" lon="6.57054">
        <ele>1176.79</ele>
        <time>2019-02-05T09:28:58Z</time>
      </trkpt>
      <trkpt lat="46.20072" lon="6.57062">
        <ele>1176.31</ele>
        <time>2019-02-05T09:29:04Z</time>
      </trkpt>
      <trkpt lat="46.20081" lon="6.57071">
        <ele>1175.83</ele>
        <time>2019-02-05T09:29:16Z</time>
      </trkpt>
      <trkpt lat="46.20086" lon="6.57078">
        <ele>1175.35</ele>
        <time>2019-02-05T09:29:29Z</time>
      </trkpt>
      <trkpt lat="46.20086" lon="6.57084">
        <ele>1175.83</ele>
        <time>2019-02-05T09:29:40Z</time>
      </trkpt>
      <trkpt lat="46.20079" lon="6.57089">
        <ele>1176.79</ele>
        <time>2019-02-05T09:29:51Z</time>
      </trkpt>
      <trkpt lat="46.20074" lon="6.57093">
        <ele>1178.23</ele>
        <time>2019-02-05T09:30:02Z</time>
      </trkpt>
      <trkpt lat="46.2007" lon="6.57098">
        <ele>1180.16</ele>
        <time>2019-02-05T09:30:12Z</time>
      </trkpt>
      <trkpt lat="46.20061" lon="6.57102">
        <ele>1180.16</ele>
        <time>2019-02-05T09:30:23Z</time>
      </trkpt>
      <trkpt lat="46.20058" lon="6.57103">
        <ele>1181.12</ele>
        <time>2019-02-05T09:30:27Z</time>
      </trkpt>
      <trkpt lat="46.20046" lon="6.57102">
        <ele>1182.08</ele>
        <time>2019-02-05T09:30:40Z</time>
      </trkpt>
      <trkpt lat="46.20039" lon="6.57101">
        <ele>1182.56</ele>
        <time>2019-02-05T09:30:50Z</time>
      </trkpt>
      <trkpt lat="46.20038" lon="6.571">
        <ele>1183.04</ele>
        <time>2019-02-05T09:30:51Z</time>
      </trkpt>
      <trkpt lat="46.20026" lon="6.57095">
        <ele>1183.52</ele>
        <time>2019-02-05T09:31:03Z</time>
      </trkpt>
      <trkpt lat="46.20024" lon="6.57093">
        <ele>1183.52</ele>
        <time>2019-02-05T09:31:05Z</time>
      </trkpt>
      <trkpt lat="46.20023" lon="6.5709">
        <ele>1184</ele>
        <time>2019-02-05T09:31:08Z</time>
      </trkpt>
      <trkpt lat="46.20019" lon="6.57089">
        <ele>1184</ele>
        <time>2019-02-05T09:31:12Z</time>
      </trkpt>
      <trkpt lat="46.20009" lon="6.57081">
        <ele>1185.44</ele>
        <time>2019-02-05T09:31:26Z</time>
      </trkpt>
      <trkpt lat="46.20002" lon="6.57077">
        <ele>1185.44</ele>
        <time>2019-02-05T09:31:37Z</time>
      </trkpt>
      <trkpt lat="46.19996" lon="6.57074">
        <ele>1186.4</ele>
        <time>2019-02-05T09:31:45Z</time>
      </trkpt>
      <trkpt lat="46.19988" lon="6.57067">
        <ele>1187.85</ele>
        <time>2019-02-05T09:31:57Z</time>
      </trkpt>
      <trkpt lat="46.1998" lon="6.57063">
        <ele>1188.33</ele>
        <time>2019-02-05T09:32:08Z</time>
      </trkpt>
      <trkpt lat="46.19972" lon="6.5706">
        <ele>1188.33</ele>
        <time>2019-02-05T09:32:18Z</time>
      </trkpt>
      <trkpt lat="46.19967" lon="6.57057">
        <ele>1189.29</ele>
        <time>2019-02-05T09:32:24Z</time>
      </trkpt>
      <trkpt lat="46.19957" lon="6.5705">
        <ele>1189.77</ele>
        <time>2019-02-05T09:32:37Z</time>
      </trkpt>
      <trkpt lat="46.19953" lon="6.57048">
        <ele>1190.25</ele>
        <time>2019-02-05T09:32:41Z</time>
      </trkpt>
      <trkpt lat="46.19951" lon="6.57045">
        <ele>1189.77</ele>
        <time>2019-02-05T09:32:45Z</time>
      </trkpt>
      <trkpt lat="46.19943" lon="6.57034">
        <ele>1189.77</ele>
        <time>2019-02-05T09:32:57Z</time>
      </trkpt>
      <trkpt lat="46.1994" lon="6.57031">
        <ele>1190.73</ele>
        <time>2019-02-05T09:33:02Z</time>
      </trkpt>
      <trkpt lat="46.1994" lon="6.57025">
        <ele>1190.25</ele>
        <time>2019-02-05T09:33:06Z</time>
      </trkpt>
      <trkpt lat="46.1993" lon="6.57016">
        <ele>1191.21</ele>
        <time>2019-02-05T09:33:20Z</time>
      </trkpt>
      <trkpt lat="46.19928" lon="6.57015">
        <ele>1190.25</ele>
        <time>2019-02-05T09:33:22Z</time>
      </trkpt>
      <trkpt lat="46.19926" lon="6.57013">
        <ele>1190.73</ele>
        <time>2019-02-05T09:33:25Z</time>
      </trkpt>
      <trkpt lat="46.19923" lon="6.57009">
        <ele>1190.25</ele>
        <time>2019-02-05T09:33:30Z</time>
      </trkpt>
      <trkpt lat="46.19916" lon="6.57001">
        <ele>1190.25</ele>
        <time>2019-02-05T09:33:42Z</time>
      </trkpt>
      <trkpt lat="46.19912" lon="6.57">
        <ele>1190.25</ele>
        <time>2019-02-05T09:33:46Z</time>
      </trkpt>
      <trkpt lat="46.19906" lon="6.56995">
        <ele>1190.25</ele>
        <time>2019-02-05T09:33:56Z</time>
      </trkpt>
      <trkpt lat="46.19903" lon="6.56992">
        <ele>1190.25</ele>
        <time>2019-02-05T09:34:03Z</time>
      </trkpt>
      <trkpt lat="46.19901" lon="6.56991">
        <ele>1190.73</ele>
        <time>2019-02-05T09:34:08Z</time>
      </trkpt>
      <trkpt lat="46.19897" lon="6.56991">
        <ele>1191.69</ele>
        <time>2019-02-05T09:34:13Z</time>
      </trkpt>
      <trkpt lat="46.19887" lon="6.5699">
        <ele>1192.65</ele>
        <time>2019-02-05T09:34:25Z</time>
      </trkpt>
      <trkpt lat="46.1988" lon="6.5699">
        <ele>1193.61</ele>
        <time>2019-02-05T09:34:36Z</time>
      </trkpt>
      <trkpt lat="46.19871" lon="6.5699">
        <ele>1194.58</ele>
        <time>2019-02-05T09:34:47Z</time>
      </trkpt>
      <trkpt lat="46.19871" lon="6.56989">
        <ele>1194.58</ele>
        <time>2019-02-05T09:35:33Z</time>
      </trkpt>
      <trkpt lat="46.19871" lon="6.56989">
        <ele>1194.58</ele>
        <time>2019-02-05T09:35:57Z</time>
      </trkpt>
      <trkpt lat="46.19863" lon="6.56988">
        <ele>1195.54</ele>
        <time>2019-02-05T09:36:07Z</time>
      </trkpt>
      <trkpt lat="46.19857" lon="6.56988">
        <ele>1196.5</ele>
        <time>2019-02-05T09:36:17Z</time>
      </trkpt>
      <trkpt lat="46.19855" lon="6.56988">
        <ele>1196.5</ele>
        <time>2019-02-05T09:36:19Z</time>
      </trkpt>
      <trkpt lat="46.19844" lon="6.56985">
        <ele>1196.98</ele>
        <time>2019-02-05T09:36:30Z</time>
      </trkpt>
      <trkpt lat="46.19831" lon="6.56983">
        <ele>1197.46</ele>
        <time>2019-02-05T09:36:42Z</time>
      </trkpt>
      <trkpt lat="46.19819" lon="6.56976">
        <ele>1197.46</ele>
        <time>2019-02-05T09:36:55Z</time>
      </trkpt>
      <trkpt lat="46.19811" lon="6.56969">
        <ele>1197.94</ele>
        <time>2019-02-05T09:37:05Z</time>
      </trkpt>
      <trkpt lat="46.19804" lon="6.56965">
        <ele>1198.9</ele>
        <time>2019-02-05T09:37:20Z</time>
      </trkpt>
      <trkpt lat="46.19798" lon="6.56964">
        <ele>1200.34</ele>
        <time>2019-02-05T09:37:35Z</time>
      </trkpt>
      <trkpt lat="46.19789" lon="6.56962">
        <ele>1201.3</ele>
        <time>2019-02-05T09:37:47Z</time>
      </trkpt>
      <trkpt lat="46.19777" lon="6.56959">
        <ele>1201.3</ele>
        <time>2019-02-05T09:37:58Z</time>
      </trkpt>
      <trkpt lat="46.19769" lon="6.5696">
        <ele>1202.75</ele>
        <time>2019-02-05T09:38:09Z</time>
      </trkpt>
      <trkpt lat="46.19761" lon="6.5696">
        <ele>1203.23</ele>
        <time>2019-02-05T09:38:19Z</time>
      </trkpt>
      <trkpt lat="46.19754" lon="6.56961">
        <ele>1204.19</ele>
        <time>2019-02-05T09:38:29Z</time>
      </trkpt>
      <trkpt lat="46.1975" lon="6.5696">
        <ele>1204.19</ele>
        <time>2019-02-05T09:38:36Z</time>
      </trkpt>
      <trkpt lat="46.19742" lon="6.56957">
        <ele>1205.63</ele>
        <time>2019-02-05T09:38:46Z</time>
      </trkpt>
      <trkpt lat="46.19738" lon="6.56958">
        <ele>1206.11</ele>
        <time>2019-02-05T09:38:50Z</time>
      </trkpt>
      <trkpt lat="46.19733" lon="6.56956">
        <ele>1206.11</ele>
        <time>2019-02-05T09:38:56Z</time>
      </trkpt>
      <trkpt lat="46.19728" lon="6.56953">
        <ele>1207.07</ele>
        <time>2019-02-05T09:39:03Z</time>
      </trkpt>
      <trkpt lat="46.19719" lon="6.56948">
        <ele>1208.51</ele>
        <time>2019-02-05T09:39:17Z</time>
      </trkpt>
      <trkpt lat="46.19714" lon="6.56943">
        <ele>1208.51</ele>
        <time>2019-02-05T09:39:28Z</time>
      </trkpt>
      <trkpt lat="46.19708" lon="6.56936">
        <ele>1210.44</ele>
        <time>2019-02-05T09:39:39Z</time>
      </trkpt>
      <trkpt lat="46.19706" lon="6.56931">
        <ele>1211.88</ele>
        <time>2019-02-05T09:39:50Z</time>
      </trkpt>
      <trkpt lat="46.197" lon="6.56929">
        <ele>1211.88</ele>
        <time>2019-02-05T09:40:02Z</time>
      </trkpt>
      <trkpt lat="46.19691" lon="6.56927">
        <ele>1214.28</ele>
        <time>2019-02-05T09:40:15Z</time>
      </trkpt>
      <trkpt lat="46.19685" lon="6.56926">
        <ele>1214.76</ele>
        <time>2019-02-05T09:40:27Z</time>
      </trkpt>
      <trkpt lat="46.19677" lon="6.56922">
        <ele>1216.21</ele>
        <time>2019-02-05T09:40:40Z</time>
      </trkpt>
      <trkpt lat="46.19674" lon="6.56922">
        <ele>1217.17</ele>
        <time>2019-02-05T09:40:44Z</time>
      </trkpt>
      <trkpt lat="46.19667" lon="6.56921">
        <ele>1218.13</ele>
        <time>2019-02-05T09:40:55Z</time>
      </trkpt>
      <trkpt lat="46.1966" lon="6.56917">
        <ele>1218.61</ele>
        <time>2019-02-05T09:41:05Z</time>
      </trkpt>
      <trkpt lat="46.19655" lon="6.56913">
        <ele>1218.61</ele>
        <time>2019-02-05T09:41:11Z</time>
      </trkpt>
      <trkpt lat="46.19644" lon="6.56904">
        <ele>1219.57</ele>
        <time>2019-02-05T09:41:25Z</time>
      </trkpt>
      <trkpt lat="46.19638" lon="6.56897">
        <ele>1219.57</ele>
        <time>2019-02-05T09:41:35Z</time>
      </trkpt>
      <trkpt lat="46.19636" lon="6.56895">
        <ele>1219.57</ele>
        <time>2019-02-05T09:41:39Z</time>
      </trkpt>
      <trkpt lat="46.19627" lon="6.56889">
        <ele>1219.09</ele>
        <time>2019-02-05T09:41:51Z</time>
      </trkpt>
      <trkpt lat="46.19623" lon="6.56885">
        <ele>1219.09</ele>
        <time>2019-02-05T09:41:59Z</time>
      </trkpt>
      <trkpt lat="46.19614" lon="6.56876">
        <ele>1220.05</ele>
        <time>2019-02-05T09:42:13Z</time>
      </trkpt>
      <trkpt lat="46.19606" lon="6.5687">
        <ele>1220.53</ele>
        <time>2019-02-05T09:42:25Z</time>
      </trkpt>
      <trkpt lat="46.196" lon="6.56864">
        <ele>1221.97</ele>
        <time>2019-02-05T09:42:37Z</time>
      </trkpt>
      <trkpt lat="46.19591" lon="6.56861">
        <ele>1222.93</ele>
        <time>2019-02-05T09:42:49Z</time>
      </trkpt>
      <trkpt lat="46.19587" lon="6.56857">
        <ele>1224.86</ele>
        <time>2019-02-05T09:43:00Z</time>
      </trkpt>
      <trkpt lat="46.1958" lon="6.56852">
        <ele>1225.34</ele>
        <time>2019-02-05T09:43:13Z</time>
      </trkpt>
      <trkpt lat="46.19572" lon="6.56847">
        <ele>1226.78</ele>
        <time>2019-02-05T09:43:23Z</time>
      </trkpt>
      <trkpt lat="46.19568" lon="6.56843">
        <ele>1226.78</ele>
        <time>2019-02-05T09:43:32Z</time>
      </trkpt>
      <trkpt lat="46.19561" lon="6.56833">
        <ele>1228.22</ele>
        <time>2019-02-05T09:43:44Z</time>
      </trkpt>
      <trkpt lat="46.19553" lon="6.56825">
        <ele>1229.18</ele>
        <time>2019-02-05T09:43:55Z</time>
      </trkpt>
      <trkpt lat="46.19546" lon="6.56817">
        <ele>1230.14</ele>
        <time>2019-02-05T09:44:07Z</time>
      </trkpt>
      <trkpt lat="46.1954" lon="6.56812">
        <ele>1231.11</ele>
        <time>2019-02-05T09:44:17Z</time>
      </trkpt>
      <trkpt lat="46.19538" lon="6.56809">
        <ele>1230.62</ele>
        <time>2019-02-05T09:44:20Z</time>
      </trkpt>
      <trkpt lat="46.19531" lon="6.56803">
        <ele>1231.59</ele>
        <time>2019-02-05T09:44:31Z</time>
      </trkpt>
      <trkpt lat="46.19526" lon="6.56799">
        <ele>1232.55</ele>
        <time>2019-02-05T09:44:38Z</time>
      </trkpt>
      <trkpt lat="46.19519" lon="6.56791">
        <ele>1232.55</ele>
        <time>2019-02-05T09:44:49Z</time>
      </trkpt>
      <trkpt lat="46.19518" lon="6.5679">
        <ele>1232.07</ele>
        <time>2019-02-05T09:44:52Z</time>
      </trkpt>
      <trkpt lat="46.19511" lon="6.56781">
        <ele>1233.99</ele>
        <time>2019-02-05T09:45:04Z</time>
      </trkpt>
      <trkpt lat="46.19506" lon="6.56776">
        <ele>1234.47</ele>
        <time>2019-02-05T09:45:14Z</time>
      </trkpt>
      <trkpt lat="46.195" lon="6.56768">
        <ele>1234.95</ele>
        <time>2019-02-05T09:45:24Z</time>
      </trkpt>
      <trkpt lat="46.19493" lon="6.5676">
        <ele>1235.43</ele>
        <time>2019-02-05T09:45:36Z</time>
      </trkpt>
      <trkpt lat="46.19492" lon="6.56758">
        <ele>1235.43</ele>
        <time>2019-02-05T09:45:38Z</time>
      </trkpt>
      <trkpt lat="46.19489" lon="6.56753">
        <ele>1235.43</ele>
        <time>2019-02-05T09:45:43Z</time>
      </trkpt>
      <trkpt lat="46.19482" lon="6.56741">
        <ele>1235.43</ele>
        <time>2019-02-05T09:45:55Z</time>
      </trkpt>
      <trkpt lat="46.19473" lon="6.56736">
        <ele>1236.87</ele>
        <time>2019-02-05T09:46:07Z</time>
      </trkpt>
      <trkpt lat="46.19469" lon="6.56733">
        <ele>1236.39</ele>
        <time>2019-02-05T09:46:14Z</time>
      </trkpt>
      <trkpt lat="46.19462" lon="6.56725">
        <ele>1236.87</ele>
        <time>2019-02-05T09:46:27Z</time>
      </trkpt>
      <trkpt lat="46.19457" lon="6.56723">
        <ele>1237.35</ele>
        <time>2019-02-05T09:46:33Z</time>
      </trkpt>
      <trkpt lat="46.19446" lon="6.5672">
        <ele>1238.32</ele>
        <time>2019-02-05T09:46:45Z</time>
      </trkpt>
      <trkpt lat="46.1944" lon="6.56717">
        <ele>1238.32</ele>
        <time>2019-02-05T09:46:55Z</time>
      </trkpt>
      <trkpt lat="46.1943" lon="6.56706">
        <ele>1238.8</ele>
        <time>2019-02-05T09:47:09Z</time>
      </trkpt>
      <trkpt lat="46.19428" lon="6.56705">
        <ele>1239.28</ele>
        <time>2019-02-05T09:47:13Z</time>
      </trkpt>
      <trkpt lat="46.19426" lon="6.56704">
        <ele>1239.76</ele>
        <time>2019-02-05T09:47:16Z</time>
      </trkpt>
      <trkpt lat="46.19419" lon="6.56701">
        <ele>1240.72</ele>
        <time>2019-02-05T09:47:28Z</time>
      </trkpt>
      <trkpt lat="46.19409" lon="6.56697">
        <ele>1241.2</ele>
        <time>2019-02-05T09:47:42Z</time>
      </trkpt>
      <trkpt lat="46.19406" lon="6.56696">
        <ele>1241.68</ele>
        <time>2019-02-05T09:47:52Z</time>
      </trkpt>
      <trkpt lat="46.19397" lon="6.56695">
        <ele>1243.12</ele>
        <time>2019-02-05T09:48:04Z</time>
      </trkpt>
      <trkpt lat="46.19395" lon="6.56693">
        <ele>1243.6</ele>
        <time>2019-02-05T09:48:15Z</time>
      </trkpt>
      <trkpt lat="46.19398" lon="6.56694">
        <ele>1243.6</ele>
        <time>2019-02-05T09:48:31Z</time>
      </trkpt>
      <trkpt lat="46.19398" lon="6.56693">
        <ele>1243.12</ele>
        <time>2019-02-05T09:48:36Z</time>
      </trkpt>
      <trkpt lat="46.19395" lon="6.5669">
        <ele>1241.68</ele>
        <time>2019-02-05T09:48:51Z</time>
      </trkpt>
      <trkpt lat="46.19395" lon="6.56687">
        <ele>1243.12</ele>
        <time>2019-02-05T09:50:31Z</time>
      </trkpt>
      <trkpt lat="46.19395" lon="6.56685">
        <ele>1243.12</ele>
        <time>2019-02-05T09:51:04Z</time>
      </trkpt>
      <trkpt lat="46.19398" lon="6.56685">
        <ele>1243.12</ele>
        <time>2019-02-05T09:51:29Z</time>
      </trkpt>
      <trkpt lat="46.19395" lon="6.56681">
        <ele>1243.6</ele>
        <time>2019-02-05T09:52:27Z</time>
      </trkpt>
      <trkpt lat="46.19392" lon="6.5668">
        <ele>1243.12</ele>
        <time>2019-02-05T09:52:50Z</time>
      </trkpt>
      <trkpt lat="46.1939" lon="6.56681">
        <ele>1242.64</ele>
        <time>2019-02-05T09:53:06Z</time>
      </trkpt>
      <trkpt lat="46.1939" lon="6.56681">
        <ele>1242.64</ele>
        <time>2019-02-05T09:53:40Z</time>
      </trkpt>
      <trkpt lat="46.1939" lon="6.56682">
        <ele>1242.16</ele>
        <time>2019-02-05T09:54:03Z</time>
      </trkpt>
      <trkpt lat="46.19392" lon="6.56675">
        <ele>1242.16</ele>
        <time>2019-02-05T09:54:31Z</time>
      </trkpt>
      <trkpt lat="46.19389" lon="6.56676">
        <ele>1247.45</ele>
        <time>2019-02-05T09:54:49Z</time>
      </trkpt>
      <trkpt lat="46.19387" lon="6.56678">
        <ele>1243.12</ele>
        <time>2019-02-05T09:54:50Z</time>
      </trkpt>
      <trkpt lat="46.19386" lon="6.56683">
        <ele>1243.12</ele>
        <time>2019-02-05T09:55:20Z</time>
      </trkpt>
      <trkpt lat="46.19379" lon="6.56682">
        <ele>1243.6</ele>
        <time>2019-02-05T09:55:31Z</time>
      </trkpt>
      <trkpt lat="46.19376" lon="6.56681">
        <ele>1244.56</ele>
        <time>2019-02-05T09:55:35Z</time>
      </trkpt>
      <trkpt lat="46.19371" lon="6.56681">
        <ele>1245.53</ele>
        <time>2019-02-05T09:55:48Z</time>
      </trkpt>
      <trkpt lat="46.19359" lon="6.56678">
        <ele>1246.97</ele>
        <time>2019-02-05T09:56:02Z</time>
      </trkpt>
      <trkpt lat="46.19355" lon="6.5668">
        <ele>1247.93</ele>
        <time>2019-02-05T09:56:08Z</time>
      </trkpt>
      <trkpt lat="46.19344" lon="6.56681">
        <ele>1248.41</ele>
        <time>2019-02-05T09:56:20Z</time>
      </trkpt>
      <trkpt lat="46.19333" lon="6.56679">
        <ele>1249.37</ele>
        <time>2019-02-05T09:56:34Z</time>
      </trkpt>
      <trkpt lat="46.19325" lon="6.56676">
        <ele>1250.81</ele>
        <time>2019-02-05T09:56:45Z</time>
      </trkpt>
      <trkpt lat="46.19316" lon="6.56674">
        <ele>1251.77</ele>
        <time>2019-02-05T09:56:58Z</time>
      </trkpt>
      <trkpt lat="46.19312" lon="6.56674">
        <ele>1253.22</ele>
        <time>2019-02-05T09:57:03Z</time>
      </trkpt>
      <trkpt lat="46.19305" lon="6.5667">
        <ele>1253.7</ele>
        <time>2019-02-05T09:57:13Z</time>
      </trkpt>
      <trkpt lat="46.19301" lon="6.5667">
        <ele>1253.7</ele>
        <time>2019-02-05T09:57:21Z</time>
      </trkpt>
      <trkpt lat="46.19295" lon="6.56669">
        <ele>1254.66</ele>
        <time>2019-02-05T09:57:32Z</time>
      </trkpt>
      <trkpt lat="46.19287" lon="6.56668">
        <ele>1255.62</ele>
        <time>2019-02-05T09:57:43Z</time>
      </trkpt>
      <trkpt lat="46.19279" lon="6.56666">
        <ele>1256.58</ele>
        <time>2019-02-05T09:57:53Z</time>
      </trkpt>
      <trkpt lat="46.19271" lon="6.56664">
        <ele>1257.06</ele>
        <time>2019-02-05T09:58:03Z</time>
      </trkpt>
      <trkpt lat="46.19264" lon="6.56664">
        <ele>1257.06</ele>
        <time>2019-02-05T09:58:14Z</time>
      </trkpt>
      <trkpt lat="46.19257" lon="6.56663">
        <ele>1258.02</ele>
        <time>2019-02-05T09:58:24Z</time>
      </trkpt>
      <trkpt lat="46.1925" lon="6.56664">
        <ele>1258.5</ele>
        <time>2019-02-05T09:58:36Z</time>
      </trkpt>
      <trkpt lat="46.19245" lon="6.5666">
        <ele>1258.02</ele>
        <time>2019-02-05T09:58:42Z</time>
      </trkpt>
      <trkpt lat="46.19238" lon="6.56659">
        <ele>1258.98</ele>
        <time>2019-02-05T09:58:54Z</time>
      </trkpt>
      <trkpt lat="46.19237" lon="6.56658">
        <ele>1259.94</ele>
        <time>2019-02-05T09:59:08Z</time>
      </trkpt>
      <trkpt lat="46.1923" lon="6.56654">
        <ele>1261.87</ele>
        <time>2019-02-05T09:59:19Z</time>
      </trkpt>
      <trkpt lat="46.19225" lon="6.56652">
        <ele>1261.87</ele>
        <time>2019-02-05T09:59:23Z</time>
      </trkpt>
      <trkpt lat="46.19223" lon="6.56659">
        <ele>1262.83</ele>
        <time>2019-02-05T09:59:33Z</time>
      </trkpt>
      <trkpt lat="46.19226" lon="6.56668">
        <ele>1263.79</ele>
        <time>2019-02-05T09:59:43Z</time>
      </trkpt>
      <trkpt lat="46.19229" lon="6.56679">
        <ele>1265.23</ele>
        <time>2019-02-05T09:59:54Z</time>
      </trkpt>
      <trkpt lat="46.19226" lon="6.56688">
        <ele>1265.71</ele>
        <time>2019-02-05T10:00:06Z</time>
      </trkpt>
      <trkpt lat="46.19226" lon="6.56689">
        <ele>1266.19</ele>
        <time>2019-02-05T10:00:14Z</time>
      </trkpt>
      <trkpt lat="46.19223" lon="6.56695">
        <ele>1266.19</ele>
        <time>2019-02-05T10:00:25Z</time>
      </trkpt>
      <trkpt lat="46.19218" lon="6.56699">
        <ele>1267.16</ele>
        <time>2019-02-05T10:00:34Z</time>
      </trkpt>
      <trkpt lat="46.19215" lon="6.56696">
        <ele>1267.64</ele>
        <time>2019-02-05T10:00:41Z</time>
      </trkpt>
      <trkpt lat="46.1921" lon="6.56692">
        <ele>1268.12</ele>
        <time>2019-02-05T10:00:46Z</time>
      </trkpt>
      <trkpt lat="46.19206" lon="6.56682">
        <ele>1268.6</ele>
        <time>2019-02-05T10:00:55Z</time>
      </trkpt>
      <trkpt lat="46.19204" lon="6.56678">
        <ele>1269.08</ele>
        <time>2019-02-05T10:01:00Z</time>
      </trkpt>
      <trkpt lat="46.19194" lon="6.56671">
        <ele>1270.04</ele>
        <time>2019-02-05T10:01:13Z</time>
      </trkpt>
      <trkpt lat="46.1919" lon="6.56665">
        <ele>1271.48</ele>
        <time>2019-02-05T10:01:24Z</time>
      </trkpt>
      <trkpt lat="46.19187" lon="6.56658">
        <ele>1272.44</ele>
        <time>2019-02-05T10:01:34Z</time>
      </trkpt>
      <trkpt lat="46.19183" lon="6.56651">
        <ele>1273.4</ele>
        <time>2019-02-05T10:01:44Z</time>
      </trkpt>
      <trkpt lat="46.19175" lon="6.56643">
        <ele>1274.36</ele>
        <time>2019-02-05T10:01:55Z</time>
      </trkpt>
      <trkpt lat="46.19172" lon="6.56635">
        <ele>1275.81</ele>
        <time>2019-02-05T10:02:07Z</time>
      </trkpt>
      <trkpt lat="46.19167" lon="6.56628">
        <ele>1276.77</ele>
        <time>2019-02-05T10:02:18Z</time>
      </trkpt>
      <trkpt lat="46.19162" lon="6.56621">
        <ele>1277.73</ele>
        <time>2019-02-05T10:02:30Z</time>
      </trkpt>
      <trkpt lat="46.19158" lon="6.56615">
        <ele>1279.17</ele>
        <time>2019-02-05T10:02:41Z</time>
      </trkpt>
      <trkpt lat="46.19151" lon="6.56609">
        <ele>1280.13</ele>
        <time>2019-02-05T10:02:53Z</time>
      </trkpt>
      <trkpt lat="46.19144" lon="6.56602">
        <ele>1281.09</ele>
        <time>2019-02-05T10:03:05Z</time>
      </trkpt>
      <trkpt lat="46.19143" lon="6.56599">
        <ele>1281.57</ele>
        <time>2019-02-05T10:03:17Z</time>
      </trkpt>
      <trkpt lat="46.1914" lon="6.56597">
        <ele>1282.54</ele>
        <time>2019-02-05T10:03:28Z</time>
      </trkpt>
      <trkpt lat="46.19138" lon="6.56596">
        <ele>1283.02</ele>
        <time>2019-02-05T10:03:42Z</time>
      </trkpt>
      <trkpt lat="46.19137" lon="6.56595">
        <ele>1283.02</ele>
        <time>2019-02-05T10:04:08Z</time>
      </trkpt>
      <trkpt lat="46.19135" lon="6.56593">
        <ele>1283.02</ele>
        <time>2019-02-05T10:04:41Z</time>
      </trkpt>
      <trkpt lat="46.19136" lon="6.5659">
        <ele>1283.02</ele>
        <time>2019-02-05T10:05:09Z</time>
      </trkpt>
      <trkpt lat="46.19136" lon="6.5659">
        <ele>1283.98</ele>
        <time>2019-02-05T10:05:43Z</time>
      </trkpt>
      <trkpt lat="46.19136" lon="6.5659">
        <ele>1283.5</ele>
        <time>2019-02-05T10:06:56Z</time>
      </trkpt>
      <trkpt lat="46.19135" lon="6.5659">
        <ele>1283.5</ele>
        <time>2019-02-05T10:07:26Z</time>
      </trkpt>
      <trkpt lat="46.19135" lon="6.5659">
        <ele>1283.5</ele>
        <time>2019-02-05T10:08:49Z</time>
      </trkpt>
      <trkpt lat="46.19135" lon="6.5659">
        <ele>1283.5</ele>
        <time>2019-02-05T10:09:26Z</time>
      </trkpt>
      <trkpt lat="46.19132" lon="6.5659">
        <ele>1284.94</ele>
        <time>2019-02-05T10:09:39Z</time>
      </trkpt>
      <trkpt lat="46.19131" lon="6.5659">
        <ele>1285.42</ele>
        <time>2019-02-05T10:09:43Z</time>
      </trkpt>
      <trkpt lat="46.19128" lon="6.5659">
        <ele>1285.42</ele>
        <time>2019-02-05T10:09:45Z</time>
      </trkpt>
      <trkpt lat="46.19126" lon="6.56591">
        <ele>1285.9</ele>
        <time>2019-02-05T10:09:47Z</time>
      </trkpt>
      <trkpt lat="46.19123" lon="6.56592">
        <ele>1286.38</ele>
        <time>2019-02-05T10:09:52Z</time>
      </trkpt>
      <trkpt lat="46.19122" lon="6.56593">
        <ele>1287.34</ele>
        <time>2019-02-05T10:09:56Z</time>
      </trkpt>
      <trkpt lat="46.19118" lon="6.56593">
        <ele>1289.27</ele>
        <time>2019-02-05T10:10:09Z</time>
      </trkpt>
      <trkpt lat="46.19114" lon="6.56595">
        <ele>1290.23</ele>
        <time>2019-02-05T10:10:18Z</time>
      </trkpt>
      <trkpt lat="46.19109" lon="6.56601">
        <ele>1291.19</ele>
        <time>2019-02-05T10:10:29Z</time>
      </trkpt>
      <trkpt lat="46.19108" lon="6.56602">
        <ele>1292.15</ele>
        <time>2019-02-05T10:10:35Z</time>
      </trkpt>
      <trkpt lat="46.19102" lon="6.56606">
        <ele>1293.11</ele>
        <time>2019-02-05T10:10:46Z</time>
      </trkpt>
      <trkpt lat="46.19101" lon="6.56606">
        <ele>1294.55</ele>
        <time>2019-02-05T10:10:55Z</time>
      </trkpt>
      <trkpt lat="46.19097" lon="6.56608">
        <ele>1295.51</ele>
        <time>2019-02-05T10:11:07Z</time>
      </trkpt>
      <trkpt lat="46.19087" lon="6.56608">
        <ele>1297.44</ele>
        <time>2019-02-05T10:11:19Z</time>
      </trkpt>
      <trkpt lat="46.19087" lon="6.56607">
        <ele>1298.4</ele>
        <time>2019-02-05T10:11:22Z</time>
      </trkpt>
      <trkpt lat="46.19083" lon="6.56607">
        <ele>1299.84</ele>
        <time>2019-02-05T10:11:37Z</time>
      </trkpt>
      <trkpt lat="46.19082" lon="6.56607">
        <ele>1301.28</ele>
        <time>2019-02-05T10:11:49Z</time>
      </trkpt>
      <trkpt lat="46.1908" lon="6.56607">
        <ele>1302.24</ele>
        <time>2019-02-05T10:11:55Z</time>
      </trkpt>
      <trkpt lat="46.19077" lon="6.56602">
        <ele>1303.2</ele>
        <time>2019-02-05T10:12:06Z</time>
      </trkpt>
      <trkpt lat="46.19075" lon="6.56601">
        <ele>1304.65</ele>
        <time>2019-02-05T10:12:16Z</time>
      </trkpt>
      <trkpt lat="46.19075" lon="6.56601">
        <ele>1304.65</ele>
        <time>2019-02-05T10:12:20Z</time>
      </trkpt>
      <trkpt lat="46.19066" lon="6.56604">
        <ele>1306.57</ele>
        <time>2019-02-05T10:12:31Z</time>
      </trkpt>
      <trkpt lat="46.19064" lon="6.56603">
        <ele>1308.01</ele>
        <time>2019-02-05T10:12:45Z</time>
      </trkpt>
      <trkpt lat="46.19062" lon="6.56602">
        <ele>1309.45</ele>
        <time>2019-02-05T10:13:00Z</time>
      </trkpt>
      <trkpt lat="46.19059" lon="6.56603">
        <ele>1309.93</ele>
        <time>2019-02-05T10:13:10Z</time>
      </trkpt>
      <trkpt lat="46.1905" lon="6.56603">
        <ele>1312.34</ele>
        <time>2019-02-05T10:13:22Z</time>
      </trkpt>
      <trkpt lat="46.1905" lon="6.56602">
        <ele>1312.82</ele>
        <time>2019-02-05T10:13:24Z</time>
      </trkpt>
      <trkpt lat="46.19043" lon="6.566">
        <ele>1314.26</ele>
        <time>2019-02-05T10:13:38Z</time>
      </trkpt>
      <trkpt lat="46.19041" lon="6.566">
        <ele>1315.7</ele>
        <time>2019-02-05T10:13:43Z</time>
      </trkpt>
      <trkpt lat="46.19042" lon="6.56599">
        <ele>1317.14</ele>
        <time>2019-02-05T10:13:58Z</time>
      </trkpt>
      <trkpt lat="46.19038" lon="6.566">
        <ele>1318.59</ele>
        <time>2019-02-05T10:14:11Z</time>
      </trkpt>
      <trkpt lat="46.19034" lon="6.56597">
        <ele>1320.03</ele>
        <time>2019-02-05T10:14:26Z</time>
      </trkpt>
      <trkpt lat="46.19035" lon="6.56595">
        <ele>1320.51</ele>
        <time>2019-02-05T10:14:46Z</time>
      </trkpt>
      <trkpt lat="46.19034" lon="6.56594">
        <ele>1319.07</ele>
        <time>2019-02-05T10:16:44Z</time>
      </trkpt>
      <trkpt lat="46.1903" lon="6.56593">
        <ele>1321.47</ele>
        <time>2019-02-05T10:17:28Z</time>
      </trkpt>
      <trkpt lat="46.19027" lon="6.56591">
        <ele>1322.43</ele>
        <time>2019-02-05T10:17:39Z</time>
      </trkpt>
      <trkpt lat="46.19022" lon="6.56592">
        <ele>1323.87</ele>
        <time>2019-02-05T10:17:51Z</time>
      </trkpt>
      <trkpt lat="46.19013" lon="6.56591">
        <ele>1326.28</ele>
        <time>2019-02-05T10:18:03Z</time>
      </trkpt>
      <trkpt lat="46.19008" lon="6.56592">
        <ele>1327.72</ele>
        <time>2019-02-05T10:18:19Z</time>
      </trkpt>
      <trkpt lat="46.19003" lon="6.56593">
        <ele>1329.64</ele>
        <time>2019-02-05T10:18:32Z</time>
      </trkpt>
      <trkpt lat="46.19" lon="6.56593">
        <ele>1331.08</ele>
        <time>2019-02-05T10:18:45Z</time>
      </trkpt>
      <trkpt lat="46.18992" lon="6.56594">
        <ele>1333.49</ele>
        <time>2019-02-05T10:18:57Z</time>
      </trkpt>
      <trkpt lat="46.18989" lon="6.56595">
        <ele>1335.41</ele>
        <time>2019-02-05T10:19:09Z</time>
      </trkpt>
      <trkpt lat="46.18984" lon="6.56592">
        <ele>1335.89</ele>
        <time>2019-02-05T10:19:20Z</time>
      </trkpt>
      <trkpt lat="46.18983" lon="6.56586">
        <ele>1336.85</ele>
        <time>2019-02-05T10:19:29Z</time>
      </trkpt>
      <trkpt lat="46.18979" lon="6.56588">
        <ele>1338.29</ele>
        <time>2019-02-05T10:19:46Z</time>
      </trkpt>
      <trkpt lat="46.18969" lon="6.56589">
        <ele>1340.22</ele>
        <time>2019-02-05T10:19:56Z</time>
      </trkpt>
      <trkpt lat="46.18964" lon="6.56587">
        <ele>1341.66</ele>
        <time>2019-02-05T10:20:08Z</time>
      </trkpt>
      <trkpt lat="46.18959" lon="6.56587">
        <ele>1343.58</ele>
        <time>2019-02-05T10:20:18Z</time>
      </trkpt>
      <trkpt lat="46.18952" lon="6.56588">
        <ele>1345.02</ele>
        <time>2019-02-05T10:20:32Z</time>
      </trkpt>
      <trkpt lat="46.18949" lon="6.56588">
        <ele>1346.46</ele>
        <time>2019-02-05T10:20:43Z</time>
      </trkpt>
      <trkpt lat="46.18948" lon="6.56588">
        <ele>1347.43</ele>
        <time>2019-02-05T10:20:52Z</time>
      </trkpt>
      <trkpt lat="46.18947" lon="6.56587">
        <ele>1349.35</ele>
        <time>2019-02-05T10:21:05Z</time>
      </trkpt>
      <trkpt lat="46.18941" lon="6.56587">
        <ele>1351.27</ele>
        <time>2019-02-05T10:21:18Z</time>
      </trkpt>
      <trkpt lat="46.18934" lon="6.56587">
        <ele>1352.71</ele>
        <time>2019-02-05T10:21:33Z</time>
      </trkpt>
      <trkpt lat="46.18925" lon="6.56583">
        <ele>1355.12</ele>
        <time>2019-02-05T10:21:49Z</time>
      </trkpt>
      <trkpt lat="46.18928" lon="6.56586">
        <ele>1357.04</ele>
        <time>2019-02-05T10:22:04Z</time>
      </trkpt>
      <trkpt lat="46.18927" lon="6.56587">
        <ele>1358.48</ele>
        <time>2019-02-05T10:22:16Z</time>
      </trkpt>
      <trkpt lat="46.18926" lon="6.56592">
        <ele>1360.4</ele>
        <time>2019-02-05T10:22:31Z</time>
      </trkpt>
      <trkpt lat="46.18922" lon="6.56594">
        <ele>1362.33</ele>
        <time>2019-02-05T10:22:45Z</time>
      </trkpt>
      <trkpt lat="46.18916" lon="6.56596">
        <ele>1363.77</ele>
        <time>2019-02-05T10:22:55Z</time>
      </trkpt>
      <trkpt lat="46.18916" lon="6.56598">
        <ele>1365.21</ele>
        <time>2019-02-05T10:23:08Z</time>
      </trkpt>
      <trkpt lat="46.18912" lon="6.56601">
        <ele>1367.13</ele>
        <time>2019-02-05T10:23:29Z</time>
      </trkpt>
      <trkpt lat="46.18911" lon="6.56601">
        <ele>1367.13</ele>
        <time>2019-02-05T10:23:48Z</time>
      </trkpt>
      <trkpt lat="46.18911" lon="6.56601">
        <ele>1367.61</ele>
        <time>2019-02-05T10:24:28Z</time>
      </trkpt>
      <trkpt lat="46.18912" lon="6.56601">
        <ele>1367.61</ele>
        <time>2019-02-05T10:25:06Z</time>
      </trkpt>
      <trkpt lat="46.1891" lon="6.56601">
        <ele>1367.13</ele>
        <time>2019-02-05T10:26:21Z</time>
      </trkpt>
      <trkpt lat="46.18912" lon="6.566">
        <ele>1367.13</ele>
        <time>2019-02-05T10:26:56Z</time>
      </trkpt>
      <trkpt lat="46.18916" lon="6.56602">
        <ele>1367.13</ele>
        <time>2019-02-05T10:28:15Z</time>
      </trkpt>
      <trkpt lat="46.18918" lon="6.56605">
        <ele>1368.57</ele>
        <time>2019-02-05T10:28:25Z</time>
      </trkpt>
      <trkpt lat="46.1892" lon="6.56606">
        <ele>1370.02</ele>
        <time>2019-02-05T10:28:38Z</time>
      </trkpt>
      <trkpt lat="46.18923" lon="6.56608">
        <ele>1371.46</ele>
        <time>2019-02-05T10:28:47Z</time>
      </trkpt>
      <trkpt lat="46.18927" lon="6.56612">
        <ele>1372.42</ele>
        <time>2019-02-05T10:28:58Z</time>
      </trkpt>
      <trkpt lat="46.18933" lon="6.5662">
        <ele>1374.34</ele>
        <time>2019-02-05T10:29:12Z</time>
      </trkpt>
      <trkpt lat="46.18936" lon="6.56627">
        <ele>1375.3</ele>
        <time>2019-02-05T10:29:22Z</time>
      </trkpt>
      <trkpt lat="46.18938" lon="6.56629">
        <ele>1376.26</ele>
        <time>2019-02-05T10:29:33Z</time>
      </trkpt>
      <trkpt lat="46.18934" lon="6.56632">
        <ele>1376.75</ele>
        <time>2019-02-05T10:29:45Z</time>
      </trkpt>
      <trkpt lat="46.1893" lon="6.56635">
        <ele>1378.67</ele>
        <time>2019-02-05T10:29:58Z</time>
      </trkpt>
      <trkpt lat="46.18927" lon="6.56637">
        <ele>1380.59</ele>
        <time>2019-02-05T10:30:11Z</time>
      </trkpt>
      <trkpt lat="46.18927" lon="6.56639">
        <ele>1381.07</ele>
        <time>2019-02-05T10:30:22Z</time>
      </trkpt>
      <trkpt lat="46.18927" lon="6.56643">
        <ele>1383.47</ele>
        <time>2019-02-05T10:30:35Z</time>
      </trkpt>
      <trkpt lat="46.18924" lon="6.56647">
        <ele>1384.44</ele>
        <time>2019-02-05T10:30:47Z</time>
      </trkpt>
      <trkpt lat="46.18924" lon="6.5665">
        <ele>1386.36</ele>
        <time>2019-02-05T10:31:02Z</time>
      </trkpt>
      <trkpt lat="46.1892" lon="6.56653">
        <ele>1387.8</ele>
        <time>2019-02-05T10:31:14Z</time>
      </trkpt>
      <trkpt lat="46.18915" lon="6.56657">
        <ele>1388.28</ele>
        <time>2019-02-05T10:31:24Z</time>
      </trkpt>
      <trkpt lat="46.1891" lon="6.56663">
        <ele>1391.17</ele>
        <time>2019-02-05T10:31:38Z</time>
      </trkpt>
      <trkpt lat="46.18907" lon="6.56671">
        <ele>1392.61</ele>
        <time>2019-02-05T10:31:53Z</time>
      </trkpt>
      <trkpt lat="46.18908" lon="6.56675">
        <ele>1395.01</ele>
        <time>2019-02-05T10:32:07Z</time>
      </trkpt>
      <trkpt lat="46.18906" lon="6.56677">
        <ele>1395.97</ele>
        <time>2019-02-05T10:32:22Z</time>
      </trkpt>
      <trkpt lat="46.18903" lon="6.56678">
        <ele>1397.89</ele>
        <time>2019-02-05T10:32:35Z</time>
      </trkpt>
      <trkpt lat="46.18901" lon="6.56681">
        <ele>1398.86</ele>
        <time>2019-02-05T10:32:48Z</time>
      </trkpt>
      <trkpt lat="46.18901" lon="6.56684">
        <ele>1399.82</ele>
        <time>2019-02-05T10:33:03Z</time>
      </trkpt>
      <trkpt lat="46.18899" lon="6.56685">
        <ele>1400.3</ele>
        <time>2019-02-05T10:33:15Z</time>
      </trkpt>
      <trkpt lat="46.18897" lon="6.56688">
        <ele>1401.26</ele>
        <time>2019-02-05T10:33:30Z</time>
      </trkpt>
      <trkpt lat="46.18896" lon="6.56688">
        <ele>1401.26</ele>
        <time>2019-02-05T10:33:44Z</time>
      </trkpt>
      <trkpt lat="46.18895" lon="6.56688">
        <ele>1401.74</ele>
        <time>2019-02-05T10:34:16Z</time>
      </trkpt>
      <trkpt lat="46.18895" lon="6.56688">
        <ele>1401.74</ele>
        <time>2019-02-05T10:34:40Z</time>
      </trkpt>
      <trkpt lat="46.18896" lon="6.56688">
        <ele>1401.74</ele>
        <time>2019-02-05T10:35:15Z</time>
      </trkpt>
      <trkpt lat="46.18897" lon="6.56692">
        <ele>1402.7</ele>
        <time>2019-02-05T10:37:24Z</time>
      </trkpt>
      <trkpt lat="46.18898" lon="6.56695">
        <ele>1403.66</ele>
        <time>2019-02-05T10:37:32Z</time>
      </trkpt>
      <trkpt lat="46.18898" lon="6.56696">
        <ele>1403.66</ele>
        <time>2019-02-05T10:37:33Z</time>
      </trkpt>
      <trkpt lat="46.18901" lon="6.56702">
        <ele>1405.58</ele>
        <time>2019-02-05T10:37:47Z</time>
      </trkpt>
      <trkpt lat="46.18902" lon="6.56708">
        <ele>1407.03</ele>
        <time>2019-02-05T10:37:59Z</time>
      </trkpt>
      <trkpt lat="46.18901" lon="6.56714">
        <ele>1409.43</ele>
        <time>2019-02-05T10:38:15Z</time>
      </trkpt>
      <trkpt lat="46.18902" lon="6.56721">
        <ele>1410.39</ele>
        <time>2019-02-05T10:38:29Z</time>
      </trkpt>
      <trkpt lat="46.18898" lon="6.56726">
        <ele>1411.83</ele>
        <time>2019-02-05T10:38:43Z</time>
      </trkpt>
      <trkpt lat="46.18896" lon="6.56729">
        <ele>1413.76</ele>
        <time>2019-02-05T10:38:58Z</time>
      </trkpt>
      <trkpt lat="46.18892" lon="6.56732">
        <ele>1415.68</ele>
        <time>2019-02-05T10:39:13Z</time>
      </trkpt>
      <trkpt lat="46.1889" lon="6.56734">
        <ele>1419.04</ele>
        <time>2019-02-05T10:39:35Z</time>
      </trkpt>
      <trkpt lat="46.18883" lon="6.56736">
        <ele>1419.52</ele>
        <time>2019-02-05T10:39:45Z</time>
      </trkpt>
      <trkpt lat="46.18878" lon="6.56738">
        <ele>1420.97</ele>
        <time>2019-02-05T10:39:57Z</time>
      </trkpt>
      <trkpt lat="46.18872" lon="6.56744">
        <ele>1422.89</ele>
        <time>2019-02-05T10:40:11Z</time>
      </trkpt>
      <trkpt lat="46.18867" lon="6.56748">
        <ele>1424.33</ele>
        <time>2019-02-05T10:40:22Z</time>
      </trkpt>
      <trkpt lat="46.18864" lon="6.56753">
        <ele>1425.29</ele>
        <time>2019-02-05T10:40:33Z</time>
      </trkpt>
      <trkpt lat="46.18865" lon="6.56758">
        <ele>1426.25</ele>
        <time>2019-02-05T10:40:44Z</time>
      </trkpt>
      <trkpt lat="46.18865" lon="6.56761">
        <ele>1428.18</ele>
        <time>2019-02-05T10:40:55Z</time>
      </trkpt>
      <trkpt lat="46.18865" lon="6.56767">
        <ele>1429.14</ele>
        <time>2019-02-05T10:41:07Z</time>
      </trkpt>
      <trkpt lat="46.18866" lon="6.56771">
        <ele>1430.58</ele>
        <time>2019-02-05T10:41:17Z</time>
      </trkpt>
      <trkpt lat="46.18863" lon="6.56777">
        <ele>1432.02</ele>
        <time>2019-02-05T10:41:29Z</time>
      </trkpt>
      <trkpt lat="46.18858" lon="6.56781">
        <ele>1433.46</ele>
        <time>2019-02-05T10:41:42Z</time>
      </trkpt>
      <trkpt lat="46.18856" lon="6.56785">
        <ele>1435.39</ele>
        <time>2019-02-05T10:41:53Z</time>
      </trkpt>
      <trkpt lat="46.18855" lon="6.56791">
        <ele>1435.87</ele>
        <time>2019-02-05T10:42:09Z</time>
      </trkpt>
      <trkpt lat="46.18855" lon="6.56791">
        <ele>1436.35</ele>
        <time>2019-02-05T10:43:04Z</time>
      </trkpt>
      <trkpt lat="46.18856" lon="6.56793">
        <ele>1436.35</ele>
        <time>2019-02-05T10:43:43Z</time>
      </trkpt>
      <trkpt lat="46.18856" lon="6.56793">
        <ele>1436.35</ele>
        <time>2019-02-05T10:44:23Z</time>
      </trkpt>
      <trkpt lat="46.18855" lon="6.56794">
        <ele>1436.35</ele>
        <time>2019-02-05T10:45:21Z</time>
      </trkpt>
      <trkpt lat="46.18842" lon="6.568">
        <ele>1435.87</ele>
        <time>2019-02-05T10:45:34Z</time>
      </trkpt>
      <trkpt lat="46.18834" lon="6.56805">
        <ele>1435.39</ele>
        <time>2019-02-05T10:45:46Z</time>
      </trkpt>
      <trkpt lat="46.1882" lon="6.56807">
        <ele>1437.31</ele>
        <time>2019-02-05T10:45:58Z</time>
      </trkpt>
      <trkpt lat="46.18813" lon="6.56807">
        <ele>1438.27</ele>
        <time>2019-02-05T10:46:06Z</time>
      </trkpt>
      <trkpt lat="46.18808" lon="6.56809">
        <ele>1438.75</ele>
        <time>2019-02-05T10:46:18Z</time>
      </trkpt>
      <trkpt lat="46.18804" lon="6.56812">
        <ele>1439.71</ele>
        <time>2019-02-05T10:46:31Z</time>
      </trkpt>
      <trkpt lat="46.18798" lon="6.56818">
        <ele>1442.11</ele>
        <time>2019-02-05T10:46:45Z</time>
      </trkpt>
      <trkpt lat="46.18794" lon="6.56822">
        <ele>1443.08</ele>
        <time>2019-02-05T10:46:59Z</time>
      </trkpt>
      <trkpt lat="46.18788" lon="6.56826">
        <ele>1444.52</ele>
        <time>2019-02-05T10:47:11Z</time>
      </trkpt>
      <trkpt lat="46.18782" lon="6.56832">
        <ele>1445.48</ele>
        <time>2019-02-05T10:47:23Z</time>
      </trkpt>
      <trkpt lat="46.18773" lon="6.5684">
        <ele>1446.44</ele>
        <time>2019-02-05T10:47:35Z</time>
      </trkpt>
      <trkpt lat="46.18767" lon="6.56842">
        <ele>1446.44</ele>
        <time>2019-02-05T10:47:45Z</time>
      </trkpt>
      <trkpt lat="46.18761" lon="6.56847">
        <ele>1446.92</ele>
        <time>2019-02-05T10:47:55Z</time>
      </trkpt>
      <trkpt lat="46.18749" lon="6.56849">
        <ele>1448.36</ele>
        <time>2019-02-05T10:48:08Z</time>
      </trkpt>
      <trkpt lat="46.1874" lon="6.56847">
        <ele>1446.92</ele>
        <time>2019-02-05T10:48:22Z</time>
      </trkpt>
      <trkpt lat="46.18735" lon="6.56845">
        <ele>1447.4</ele>
        <time>2019-02-05T10:48:35Z</time>
      </trkpt>
      <trkpt lat="46.18733" lon="6.56843">
        <ele>1447.88</ele>
        <time>2019-02-05T10:49:26Z</time>
      </trkpt>
      <trkpt lat="46.18731" lon="6.56844">
        <ele>1447.4</ele>
        <time>2019-02-05T10:49:47Z</time>
      </trkpt>
      <trkpt lat="46.18726" lon="6.56842">
        <ele>1446.92</ele>
        <time>2019-02-05T10:50:16Z</time>
      </trkpt>
      <trkpt lat="46.18715" lon="6.56843">
        <ele>1447.4</ele>
        <time>2019-02-05T10:50:31Z</time>
      </trkpt>
      <trkpt lat="46.18709" lon="6.56843">
        <ele>1448.84</ele>
        <time>2019-02-05T10:50:45Z</time>
      </trkpt>
      <trkpt lat="46.18698" lon="6.56849">
        <ele>1448.84</ele>
        <time>2019-02-05T10:50:56Z</time>
      </trkpt>
      <trkpt lat="46.18692" lon="6.56849">
        <ele>1450.29</ele>
        <time>2019-02-05T10:51:10Z</time>
      </trkpt>
      <trkpt lat="46.18682" lon="6.56849">
        <ele>1451.25</ele>
        <time>2019-02-05T10:51:22Z</time>
      </trkpt>
      <trkpt lat="46.18674" lon="6.56851">
        <ele>1450.29</ele>
        <time>2019-02-05T10:51:32Z</time>
      </trkpt>
      <trkpt lat="46.18665" lon="6.56855">
        <ele>1450.29</ele>
        <time>2019-02-05T10:51:42Z</time>
      </trkpt>
      <trkpt lat="46.18657" lon="6.56853">
        <ele>1450.29</ele>
        <time>2019-02-05T10:51:53Z</time>
      </trkpt>
      <trkpt lat="46.18646" lon="6.56853">
        <ele>1450.29</ele>
        <time>2019-02-05T10:52:04Z</time>
      </trkpt>
      <trkpt lat="46.18637" lon="6.56849">
        <ele>1449.81</ele>
        <time>2019-02-05T10:52:17Z</time>
      </trkpt>
      <trkpt lat="46.18632" lon="6.56842">
        <ele>1450.77</ele>
        <time>2019-02-05T10:52:29Z</time>
      </trkpt>
      <trkpt lat="46.18626" lon="6.56834">
        <ele>1451.25</ele>
        <time>2019-02-05T10:52:40Z</time>
      </trkpt>
      <trkpt lat="46.18624" lon="6.56833">
        <ele>1451.25</ele>
        <time>2019-02-05T10:52:42Z</time>
      </trkpt>
      <trkpt lat="46.18619" lon="6.56827">
        <ele>1452.21</ele>
        <time>2019-02-05T10:52:54Z</time>
      </trkpt>
      <trkpt lat="46.18613" lon="6.56826">
        <ele>1452.69</ele>
        <time>2019-02-05T10:52:59Z</time>
      </trkpt>
      <trkpt lat="46.18606" lon="6.56823">
        <ele>1452.69</ele>
        <time>2019-02-05T10:53:05Z</time>
      </trkpt>
      <trkpt lat="46.18596" lon="6.5682">
        <ele>1453.17</ele>
        <time>2019-02-05T10:53:16Z</time>
      </trkpt>
      <trkpt lat="46.18595" lon="6.5682">
        <ele>1452.69</ele>
        <time>2019-02-05T10:53:18Z</time>
      </trkpt>
      <trkpt lat="46.18593" lon="6.5682">
        <ele>1452.69</ele>
        <time>2019-02-05T10:53:20Z</time>
      </trkpt>
      <trkpt lat="46.18587" lon="6.56819">
        <ele>1453.65</ele>
        <time>2019-02-05T10:53:31Z</time>
      </trkpt>
      <trkpt lat="46.18582" lon="6.56817">
        <ele>1455.57</ele>
        <time>2019-02-05T10:53:44Z</time>
      </trkpt>
      <trkpt lat="46.18576" lon="6.56815">
        <ele>1456.05</ele>
        <time>2019-02-05T10:53:55Z</time>
      </trkpt>
      <trkpt lat="46.18576" lon="6.56815">
        <ele>1456.05</ele>
        <time>2019-02-05T10:54:28Z</time>
      </trkpt>
      <trkpt lat="46.18572" lon="6.56806">
        <ele>1457.98</ele>
        <time>2019-02-05T10:55:05Z</time>
      </trkpt>
      <trkpt lat="46.1857" lon="6.56798">
        <ele>1459.42</ele>
        <time>2019-02-05T10:55:15Z</time>
      </trkpt>
      <trkpt lat="46.18567" lon="6.56792">
        <ele>1461.34</ele>
        <time>2019-02-05T10:55:29Z</time>
      </trkpt>
      <trkpt lat="46.18562" lon="6.56784">
        <ele>1462.3</ele>
        <time>2019-02-05T10:55:43Z</time>
      </trkpt>
      <trkpt lat="46.18563" lon="6.56782">
        <ele>1463.74</ele>
        <time>2019-02-05T10:55:52Z</time>
      </trkpt>
      <trkpt lat="46.1856" lon="6.56774">
        <ele>1465.67</ele>
        <time>2019-02-05T10:56:07Z</time>
      </trkpt>
      <trkpt lat="46.1856" lon="6.56769">
        <ele>1467.11</ele>
        <time>2019-02-05T10:56:18Z</time>
      </trkpt>
      <trkpt lat="46.1856" lon="6.56769">
        <ele>1467.59</ele>
        <time>2019-02-05T10:56:24Z</time>
      </trkpt>
      <trkpt lat="46.18563" lon="6.56766">
        <ele>1469.03</ele>
        <time>2019-02-05T10:56:36Z</time>
      </trkpt>
      <trkpt lat="46.18565" lon="6.56762">
        <ele>1470.47</ele>
        <time>2019-02-05T10:56:51Z</time>
      </trkpt>
      <trkpt lat="46.18567" lon="6.56758">
        <ele>1472.88</ele>
        <time>2019-02-05T10:57:06Z</time>
      </trkpt>
      <trkpt lat="46.1857" lon="6.56749">
        <ele>1473.84</ele>
        <time>2019-02-05T10:57:20Z</time>
      </trkpt>
      <trkpt lat="46.1857" lon="6.56739">
        <ele>1475.76</ele>
        <time>2019-02-05T10:57:34Z</time>
      </trkpt>
      <trkpt lat="46.18567" lon="6.56738">
        <ele>1477.2</ele>
        <time>2019-02-05T10:57:44Z</time>
      </trkpt>
      <trkpt lat="46.18564" lon="6.56734">
        <ele>1478.16</ele>
        <time>2019-02-05T10:57:56Z</time>
      </trkpt>
      <trkpt lat="46.1856" lon="6.5673">
        <ele>1479.61</ele>
        <time>2019-02-05T10:58:08Z</time>
      </trkpt>
      <trkpt lat="46.18557" lon="6.5673">
        <ele>1480.57</ele>
        <time>2019-02-05T10:58:18Z</time>
      </trkpt>
      <trkpt lat="46.18553" lon="6.56725">
        <ele>1482.01</ele>
        <time>2019-02-05T10:58:31Z</time>
      </trkpt>
      <trkpt lat="46.18548" lon="6.5672">
        <ele>1482.97</ele>
        <time>2019-02-05T10:58:45Z</time>
      </trkpt>
      <trkpt lat="46.18547" lon="6.56715">
        <ele>1484.89</ele>
        <time>2019-02-05T10:58:59Z</time>
      </trkpt>
      <trkpt lat="46.18544" lon="6.5671">
        <ele>1486.34</ele>
        <time>2019-02-05T10:59:09Z</time>
      </trkpt>
      <trkpt lat="46.18539" lon="6.56702">
        <ele>1487.3</ele>
        <time>2019-02-05T10:59:23Z</time>
      </trkpt>
      <trkpt lat="46.18538" lon="6.56699">
        <ele>1489.7</ele>
        <time>2019-02-05T10:59:32Z</time>
      </trkpt>
      <trkpt lat="46.18533" lon="6.56693">
        <ele>1490.18</ele>
        <time>2019-02-05T10:59:46Z</time>
      </trkpt>
      <trkpt lat="46.18526" lon="6.5669">
        <ele>1491.62</ele>
        <time>2019-02-05T10:59:59Z</time>
      </trkpt>
      <trkpt lat="46.18521" lon="6.56689">
        <ele>1492.1</ele>
        <time>2019-02-05T11:00:09Z</time>
      </trkpt>
      <trkpt lat="46.18515" lon="6.56687">
        <ele>1492.1</ele>
        <time>2019-02-05T11:00:22Z</time>
      </trkpt>
      <trkpt lat="46.18515" lon="6.56687">
        <ele>1494.51</ele>
        <time>2019-02-05T11:00:48Z</time>
      </trkpt>
      <trkpt lat="46.18515" lon="6.56687">
        <ele>1492.1</ele>
        <time>2019-02-05T11:00:49Z</time>
      </trkpt>
      <trkpt lat="46.18512" lon="6.56688">
        <ele>1492.1</ele>
        <time>2019-02-05T11:01:45Z</time>
      </trkpt>
      <trkpt lat="46.18512" lon="6.56688">
        <ele>1492.1</ele>
        <time>2019-02-05T11:02:12Z</time>
      </trkpt>
      <trkpt lat="46.18511" lon="6.56683">
        <ele>1492.1</ele>
        <time>2019-02-05T11:03:03Z</time>
      </trkpt>
      <trkpt lat="46.18511" lon="6.56682">
        <ele>1492.1</ele>
        <time>2019-02-05T11:04:20Z</time>
      </trkpt>
      <trkpt lat="46.18511" lon="6.56681">
        <ele>1492.58</ele>
        <time>2019-02-05T11:06:27Z</time>
      </trkpt>
      <trkpt lat="46.18505" lon="6.56674">
        <ele>1492.58</ele>
        <time>2019-02-05T11:06:50Z</time>
      </trkpt>
      <trkpt lat="46.18503" lon="6.56668">
        <ele>1493.55</ele>
        <time>2019-02-05T11:07:02Z</time>
      </trkpt>
      <trkpt lat="46.18498" lon="6.56659">
        <ele>1494.03</ele>
        <time>2019-02-05T11:07:13Z</time>
      </trkpt>
      <trkpt lat="46.18491" lon="6.56655">
        <ele>1494.99</ele>
        <time>2019-02-05T11:07:24Z</time>
      </trkpt>
      <trkpt lat="46.18486" lon="6.56645">
        <ele>1495.95</ele>
        <time>2019-02-05T11:07:37Z</time>
      </trkpt>
      <trkpt lat="46.18481" lon="6.56636">
        <ele>1496.91</ele>
        <time>2019-02-05T11:07:51Z</time>
      </trkpt>
      <trkpt lat="46.1848" lon="6.56628">
        <ele>1498.35</ele>
        <time>2019-02-05T11:08:04Z</time>
      </trkpt>
      <trkpt lat="46.18478" lon="6.56621">
        <ele>1499.79</ele>
        <time>2019-02-05T11:08:16Z</time>
      </trkpt>
      <trkpt lat="46.18477" lon="6.56612">
        <ele>1501.24</ele>
        <time>2019-02-05T11:08:30Z</time>
      </trkpt>
      <trkpt lat="46.18472" lon="6.56608">
        <ele>1502.2</ele>
        <time>2019-02-05T11:08:41Z</time>
      </trkpt>
      <trkpt lat="46.18468" lon="6.56603">
        <ele>1503.16</ele>
        <time>2019-02-05T11:08:52Z</time>
      </trkpt>
      <trkpt lat="46.18466" lon="6.56597">
        <ele>1503.64</ele>
        <time>2019-02-05T11:09:02Z</time>
      </trkpt>
      <trkpt lat="46.18465" lon="6.56596">
        <ele>1504.6</ele>
        <time>2019-02-05T11:09:03Z</time>
      </trkpt>
      <trkpt lat="46.18458" lon="6.56589">
        <ele>1504.6</ele>
        <time>2019-02-05T11:09:16Z</time>
      </trkpt>
      <trkpt lat="46.18453" lon="6.56583">
        <ele>1505.56</ele>
        <time>2019-02-05T11:09:29Z</time>
      </trkpt>
      <trkpt lat="46.18447" lon="6.56577">
        <ele>1507.48</ele>
        <time>2019-02-05T11:09:40Z</time>
      </trkpt>
      <trkpt lat="46.18443" lon="6.56571">
        <ele>1508.45</ele>
        <time>2019-02-05T11:09:51Z</time>
      </trkpt>
      <trkpt lat="46.18442" lon="6.56563">
        <ele>1509.41</ele>
        <time>2019-02-05T11:10:01Z</time>
      </trkpt>
      <trkpt lat="46.18439" lon="6.56559">
        <ele>1509.41</ele>
        <time>2019-02-05T11:10:10Z</time>
      </trkpt>
      <trkpt lat="46.18439" lon="6.56556">
        <ele>1510.37</ele>
        <time>2019-02-05T11:10:14Z</time>
      </trkpt>
      <trkpt lat="46.18435" lon="6.56552">
        <ele>1511.81</ele>
        <time>2019-02-05T11:10:27Z</time>
      </trkpt>
      <trkpt lat="46.18432" lon="6.56549">
        <ele>1512.77</ele>
        <time>2019-02-05T11:10:42Z</time>
      </trkpt>
      <trkpt lat="46.18432" lon="6.56548">
        <ele>1513.73</ele>
        <time>2019-02-05T11:10:44Z</time>
      </trkpt>
      <trkpt lat="46.18429" lon="6.56544">
        <ele>1514.21</ele>
        <time>2019-02-05T11:10:54Z</time>
      </trkpt>
      <trkpt lat="46.18426" lon="6.56541">
        <ele>1516.14</ele>
        <time>2019-02-05T11:11:07Z</time>
      </trkpt>
      <trkpt lat="46.18419" lon="6.56537">
        <ele>1517.58</ele>
        <time>2019-02-05T11:11:20Z</time>
      </trkpt>
      <trkpt lat="46.18417" lon="6.56529">
        <ele>1519.02</ele>
        <time>2019-02-05T11:11:33Z</time>
      </trkpt>
      <trkpt lat="46.18418" lon="6.56523">
        <ele>1520.46</ele>
        <time>2019-02-05T11:11:45Z</time>
      </trkpt>
      <trkpt lat="46.1842" lon="6.56518">
        <ele>1521.42</ele>
        <time>2019-02-05T11:11:57Z</time>
      </trkpt>
      <trkpt lat="46.18423" lon="6.56511">
        <ele>1522.87</ele>
        <time>2019-02-05T11:12:09Z</time>
      </trkpt>
      <trkpt lat="46.18426" lon="6.56506">
        <ele>1524.31</ele>
        <time>2019-02-05T11:12:21Z</time>
      </trkpt>
      <trkpt lat="46.18428" lon="6.56499">
        <ele>1525.75</ele>
        <time>2019-02-05T11:12:33Z</time>
      </trkpt>
      <trkpt lat="46.18432" lon="6.56492">
        <ele>1526.71</ele>
        <time>2019-02-05T11:12:47Z</time>
      </trkpt>
      <trkpt lat="46.18433" lon="6.56486">
        <ele>1528.15</ele>
        <time>2019-02-05T11:12:59Z</time>
      </trkpt>
      <trkpt lat="46.18432" lon="6.56479">
        <ele>1530.08</ele>
        <time>2019-02-05T11:13:12Z</time>
      </trkpt>
      <trkpt lat="46.18426" lon="6.56479">
        <ele>1531.52</ele>
        <time>2019-02-05T11:13:25Z</time>
      </trkpt>
      <trkpt lat="46.18423" lon="6.56479">
        <ele>1532.96</ele>
        <time>2019-02-05T11:13:35Z</time>
      </trkpt>
      <trkpt lat="46.1842" lon="6.5648">
        <ele>1533.92</ele>
        <time>2019-02-05T11:13:50Z</time>
      </trkpt>
      <trkpt lat="46.18416" lon="6.56479">
        <ele>1534.88</ele>
        <time>2019-02-05T11:14:01Z</time>
      </trkpt>
      <trkpt lat="46.18415" lon="6.56479">
        <ele>1535.36</ele>
        <time>2019-02-05T11:14:03Z</time>
      </trkpt>
      <trkpt lat="46.18408" lon="6.56474">
        <ele>1536.32</ele>
        <time>2019-02-05T11:14:13Z</time>
      </trkpt>
      <trkpt lat="46.18405" lon="6.56474">
        <ele>1537.29</ele>
        <time>2019-02-05T11:14:24Z</time>
      </trkpt>
      <trkpt lat="46.18404" lon="6.56473">
        <ele>1538.73</ele>
        <time>2019-02-05T11:14:35Z</time>
      </trkpt>
      <trkpt lat="46.18404" lon="6.56473">
        <ele>1540.17</ele>
        <time>2019-02-05T11:14:48Z</time>
      </trkpt>
      <trkpt lat="46.18396" lon="6.56465">
        <ele>1541.61</ele>
        <time>2019-02-05T11:14:59Z</time>
      </trkpt>
      <trkpt lat="46.18395" lon="6.56463">
        <ele>1541.61</ele>
        <time>2019-02-05T11:15:08Z</time>
      </trkpt>
      <trkpt lat="46.18391" lon="6.56458">
        <ele>1542.57</ele>
        <time>2019-02-05T11:15:19Z</time>
      </trkpt>
      <trkpt lat="46.18386" lon="6.56453">
        <ele>1543.53</ele>
        <time>2019-02-05T11:15:34Z</time>
      </trkpt>
      <trkpt lat="46.18385" lon="6.56455">
        <ele>1543.05</ele>
        <time>2019-02-05T11:15:47Z</time>
      </trkpt>
      <trkpt lat="46.18389" lon="6.56457">
        <ele>1542.09</ele>
        <time>2019-02-05T11:15:58Z</time>
      </trkpt>
      <trkpt lat="46.1839" lon="6.56453">
        <ele>1541.61</ele>
        <time>2019-02-05T11:16:09Z</time>
      </trkpt>
      <trkpt lat="46.18391" lon="6.56452">
        <ele>1542.09</ele>
        <time>2019-02-05T11:16:26Z</time>
      </trkpt>
      <trkpt lat="46.18389" lon="6.56456">
        <ele>1541.61</ele>
        <time>2019-02-05T11:17:18Z</time>
      </trkpt>
      <trkpt lat="46.18385" lon="6.56457">
        <ele>1542.57</ele>
        <time>2019-02-05T11:17:24Z</time>
      </trkpt>
      <trkpt lat="46.18383" lon="6.56453">
        <ele>1542.09</ele>
        <time>2019-02-05T11:17:40Z</time>
      </trkpt>
      <trkpt lat="46.18384" lon="6.56454">
        <ele>1541.61</ele>
        <time>2019-02-05T11:17:44Z</time>
      </trkpt>
      <trkpt lat="46.18385" lon="6.56452">
        <ele>1541.61</ele>
        <time>2019-02-05T11:18:01Z</time>
      </trkpt>
      <trkpt lat="46.18385" lon="6.56452">
        <ele>1541.13</ele>
        <time>2019-02-05T11:18:34Z</time>
      </trkpt>
      <trkpt lat="46.18383" lon="6.56453">
        <ele>1541.61</ele>
        <time>2019-02-05T11:18:46Z</time>
      </trkpt>
      <trkpt lat="46.18382" lon="6.56453">
        <ele>1542.09</ele>
        <time>2019-02-05T11:19:58Z</time>
      </trkpt>
      <trkpt lat="46.18382" lon="6.56453">
        <ele>1538.73</ele>
        <time>2019-02-05T11:21:13Z</time>
      </trkpt>
      <trkpt lat="46.18382" lon="6.56453">
        <ele>1542.09</ele>
        <time>2019-02-05T11:21:15Z</time>
      </trkpt>
      <trkpt lat="46.18385" lon="6.56457">
        <ele>1541.13</ele>
        <time>2019-02-05T11:21:45Z</time>
      </trkpt>
      <trkpt lat="46.18383" lon="6.56452">
        <ele>1542.09</ele>
        <time>2019-02-05T11:22:16Z</time>
      </trkpt>
      <trkpt lat="46.18378" lon="6.56447">
        <ele>1543.05</ele>
        <time>2019-02-05T11:22:33Z</time>
      </trkpt>
      <trkpt lat="46.18374" lon="6.56442">
        <ele>1543.53</ele>
        <time>2019-02-05T11:22:43Z</time>
      </trkpt>
      <trkpt lat="46.18371" lon="6.56438">
        <ele>1544.98</ele>
        <time>2019-02-05T11:22:54Z</time>
      </trkpt>
      <trkpt lat="46.18367" lon="6.56434">
        <ele>1545.94</ele>
        <time>2019-02-05T11:23:04Z</time>
      </trkpt>
      <trkpt lat="46.18365" lon="6.56431">
        <ele>1546.42</ele>
        <time>2019-02-05T11:23:16Z</time>
      </trkpt>
      <trkpt lat="46.18363" lon="6.56426">
        <ele>1547.86</ele>
        <time>2019-02-05T11:23:32Z</time>
      </trkpt>
      <trkpt lat="46.18357" lon="6.56421">
        <ele>1549.3</ele>
        <time>2019-02-05T11:23:42Z</time>
      </trkpt>
      <trkpt lat="46.18353" lon="6.56419">
        <ele>1550.26</ele>
        <time>2019-02-05T11:23:54Z</time>
      </trkpt>
      <trkpt lat="46.1835" lon="6.56415">
        <ele>1551.71</ele>
        <time>2019-02-05T11:24:05Z</time>
      </trkpt>
      <trkpt lat="46.18347" lon="6.56413">
        <ele>1552.67</ele>
        <time>2019-02-05T11:24:16Z</time>
      </trkpt>
      <trkpt lat="46.18344" lon="6.56409">
        <ele>1554.11</ele>
        <time>2019-02-05T11:24:28Z</time>
      </trkpt>
      <trkpt lat="46.1834" lon="6.56406">
        <ele>1555.55</ele>
        <time>2019-02-05T11:24:40Z</time>
      </trkpt>
      <trkpt lat="46.18337" lon="6.56404">
        <ele>1556.99</ele>
        <time>2019-02-05T11:24:54Z</time>
      </trkpt>
      <trkpt lat="46.18334" lon="6.564">
        <ele>1557.47</ele>
        <time>2019-02-05T11:25:03Z</time>
      </trkpt>
      <trkpt lat="46.18332" lon="6.564">
        <ele>1558.92</ele>
        <time>2019-02-05T11:25:14Z</time>
      </trkpt>
      <trkpt lat="46.18327" lon="6.56401">
        <ele>1559.88</ele>
        <time>2019-02-05T11:25:26Z</time>
      </trkpt>
      <trkpt lat="46.18324" lon="6.56401">
        <ele>1560.84</ele>
        <time>2019-02-05T11:25:35Z</time>
      </trkpt>
      <trkpt lat="46.1832" lon="6.56402">
        <ele>1562.28</ele>
        <time>2019-02-05T11:25:46Z</time>
      </trkpt>
      <trkpt lat="46.18318" lon="6.56401">
        <ele>1563.24</ele>
        <time>2019-02-05T11:26:00Z</time>
      </trkpt>
      <trkpt lat="46.18317" lon="6.56402">
        <ele>1564.68</ele>
        <time>2019-02-05T11:26:10Z</time>
      </trkpt>
      <trkpt lat="46.18313" lon="6.56409">
        <ele>1564.68</ele>
        <time>2019-02-05T11:26:23Z</time>
      </trkpt>
      <trkpt lat="46.18311" lon="6.56412">
        <ele>1566.12</ele>
        <time>2019-02-05T11:26:34Z</time>
      </trkpt>
      <trkpt lat="46.18309" lon="6.56414">
        <ele>1566.12</ele>
        <time>2019-02-05T11:26:49Z</time>
      </trkpt>
      <trkpt lat="46.18305" lon="6.56417">
        <ele>1567.09</ele>
        <time>2019-02-05T11:27:04Z</time>
      </trkpt>
      <trkpt lat="46.18297" lon="6.56419">
        <ele>1567.09</ele>
        <time>2019-02-05T11:27:16Z</time>
      </trkpt>
      <trkpt lat="46.18292" lon="6.56425">
        <ele>1568.53</ele>
        <time>2019-02-05T11:27:27Z</time>
      </trkpt>
      <trkpt lat="46.18286" lon="6.56424">
        <ele>1569.49</ele>
        <time>2019-02-05T11:27:38Z</time>
      </trkpt>
      <trkpt lat="46.18279" lon="6.56418">
        <ele>1570.45</ele>
        <time>2019-02-05T11:27:50Z</time>
      </trkpt>
      <trkpt lat="46.18275" lon="6.56413">
        <ele>1571.89</ele>
        <time>2019-02-05T11:28:01Z</time>
      </trkpt>
      <trkpt lat="46.18273" lon="6.56409">
        <ele>1572.85</ele>
        <time>2019-02-05T11:28:14Z</time>
      </trkpt>
      <trkpt lat="46.1827" lon="6.56403">
        <ele>1573.82</ele>
        <time>2019-02-05T11:28:27Z</time>
      </trkpt>
      <trkpt lat="46.18267" lon="6.56396">
        <ele>1574.78</ele>
        <time>2019-02-05T11:28:39Z</time>
      </trkpt>
      <trkpt lat="46.18266" lon="6.56393">
        <ele>1576.22</ele>
        <time>2019-02-05T11:28:53Z</time>
      </trkpt>
      <trkpt lat="46.18264" lon="6.56391">
        <ele>1576.7</ele>
        <time>2019-02-05T11:29:23Z</time>
      </trkpt>
      <trkpt lat="46.18264" lon="6.5639">
        <ele>1577.18</ele>
        <time>2019-02-05T11:29:24Z</time>
      </trkpt>
      <trkpt lat="46.18263" lon="6.56383">
        <ele>1578.14</ele>
        <time>2019-02-05T11:29:35Z</time>
      </trkpt>
      <trkpt lat="46.18261" lon="6.56378">
        <ele>1579.1</ele>
        <time>2019-02-05T11:29:52Z</time>
      </trkpt>
      <trkpt lat="46.18261" lon="6.56375">
        <ele>1579.1</ele>
        <time>2019-02-05T11:29:54Z</time>
      </trkpt>
      <trkpt lat="46.18262" lon="6.56367">
        <ele>1580.06</ele>
        <time>2019-02-05T11:30:02Z</time>
      </trkpt>
      <trkpt lat="46.18264" lon="6.56363">
        <ele>1581.03</ele>
        <time>2019-02-05T11:30:08Z</time>
      </trkpt>
      <trkpt lat="46.1826" lon="6.56354">
        <ele>1582.47</ele>
        <time>2019-02-05T11:30:19Z</time>
      </trkpt>
      <trkpt lat="46.18256" lon="6.56344">
        <ele>1583.43</ele>
        <time>2019-02-05T11:30:33Z</time>
      </trkpt>
      <trkpt lat="46.18256" lon="6.56343">
        <ele>1582.95</ele>
        <time>2019-02-05T11:30:57Z</time>
      </trkpt>
      <trkpt lat="46.18256" lon="6.56343">
        <ele>1582.47</ele>
        <time>2019-02-05T11:31:36Z</time>
      </trkpt>
      <trkpt lat="46.18255" lon="6.56342">
        <ele>1583.43</ele>
        <time>2019-02-05T11:32:00Z</time>
      </trkpt>
      <trkpt lat="46.18254" lon="6.56335">
        <ele>1582.95</ele>
        <time>2019-02-05T11:33:06Z</time>
      </trkpt>
      <trkpt lat="46.18255" lon="6.56332">
        <ele>1584.39</ele>
        <time>2019-02-05T11:33:21Z</time>
      </trkpt>
      <trkpt lat="46.18255" lon="6.56329">
        <ele>1583.91</ele>
        <time>2019-02-05T11:33:44Z</time>
      </trkpt>
      <trkpt lat="46.18255" lon="6.56327">
        <ele>1584.39</ele>
        <time>2019-02-05T11:34:34Z</time>
      </trkpt>
      <trkpt lat="46.18254" lon="6.56323">
        <ele>1584.39</ele>
        <time>2019-02-05T11:36:19Z</time>
      </trkpt>
      <trkpt lat="46.18254" lon="6.56321">
        <ele>1584.87</ele>
        <time>2019-02-05T11:36:43Z</time>
      </trkpt>
      <trkpt lat="46.18254" lon="6.56309">
        <ele>1585.83</ele>
        <time>2019-02-05T11:36:56Z</time>
      </trkpt>
      <trkpt lat="46.18253" lon="6.56306">
        <ele>1586.79</ele>
        <time>2019-02-05T11:37:11Z</time>
      </trkpt>
      <trkpt lat="46.18251" lon="6.56303">
        <ele>1586.79</ele>
        <time>2019-02-05T11:37:38Z</time>
      </trkpt>
      <trkpt lat="46.18251" lon="6.56303">
        <ele>1586.31</ele>
        <time>2019-02-05T11:37:55Z</time>
      </trkpt>
      <trkpt lat="46.18251" lon="6.56302">
        <ele>1586.31</ele>
        <time>2019-02-05T11:38:13Z</time>
      </trkpt>
      <trkpt lat="46.18251" lon="6.56302">
        <ele>1584.87</ele>
        <time>2019-02-05T11:39:22Z</time>
      </trkpt>
      <trkpt lat="46.18251" lon="6.56301">
        <ele>1586.31</ele>
        <time>2019-02-05T11:42:13Z</time>
      </trkpt>
      <trkpt lat="46.1825" lon="6.56302">
        <ele>1586.31</ele>
        <time>2019-02-05T11:58:19Z</time>
      </trkpt>
      <trkpt lat="46.18251" lon="6.56302">
        <ele>1587.27</ele>
        <time>2019-02-05T11:59:30Z</time>
      </trkpt>
      <trkpt lat="46.18251" lon="6.56301">
        <ele>1587.27</ele>
        <time>2019-02-05T12:04:03Z</time>
      </trkpt>
      <trkpt lat="46.18251" lon="6.56301">
        <ele>1587.27</ele>
        <time>2019-02-05T12:08:42Z</time>
      </trkpt>
      <trkpt lat="46.18251" lon="6.563">
        <ele>1586.79</ele>
        <time>2019-02-05T12:10:32Z</time>
      </trkpt>
      <trkpt lat="46.1825" lon="6.56301">
        <ele>1586.31</ele>
        <time>2019-02-05T12:12:15Z</time>
      </trkpt>
      <trkpt lat="46.18249" lon="6.56301">
        <ele>1587.27</ele>
        <time>2019-02-05T12:13:09Z</time>
      </trkpt>
      <trkpt lat="46.1825" lon="6.56301">
        <ele>1587.27</ele>
        <time>2019-02-05T12:15:36Z</time>
      </trkpt>
      <trkpt lat="46.1825" lon="6.563">
        <ele>1587.27</ele>
        <time>2019-02-05T12:17:55Z</time>
      </trkpt>
      <trkpt lat="46.18251" lon="6.56301">
        <ele>1588.24</ele>
        <time>2019-02-05T12:18:59Z</time>
      </trkpt>
      <trkpt lat="46.1825" lon="6.56303">
        <ele>1588.72</ele>
        <time>2019-02-05T12:19:10Z</time>
      </trkpt>
      <trkpt lat="46.18251" lon="6.56302">
        <ele>1588.24</ele>
        <time>2019-02-05T12:19:35Z</time>
      </trkpt>
      <trkpt lat="46.18251" lon="6.56303">
        <ele>1588.72</ele>
        <time>2019-02-05T12:20:00Z</time>
      </trkpt>
      <trkpt lat="46.18251" lon="6.56302">
        <ele>1587.75</ele>
        <time>2019-02-05T12:20:26Z</time>
      </trkpt>
      <trkpt lat="46.18254" lon="6.56304">
        <ele>1587.75</ele>
        <time>2019-02-05T12:20:42Z</time>
      </trkpt>
      <trkpt lat="46.18256" lon="6.56313">
        <ele>1586.79</ele>
        <time>2019-02-05T12:20:52Z</time>
      </trkpt>
      <trkpt lat="46.18255" lon="6.56317">
        <ele>1585.83</ele>
        <time>2019-02-05T12:20:57Z</time>
      </trkpt>
      <trkpt lat="46.18255" lon="6.56318">
        <ele>1586.31</ele>
        <time>2019-02-05T12:20:59Z</time>
      </trkpt>
      <trkpt lat="46.18257" lon="6.56322">
        <ele>1587.27</ele>
        <time>2019-02-05T12:21:02Z</time>
      </trkpt>
      <trkpt lat="46.18258" lon="6.56328">
        <ele>1586.31</ele>
        <time>2019-02-05T12:21:13Z</time>
      </trkpt>
      <trkpt lat="46.18257" lon="6.56328">
        <ele>1585.83</ele>
        <time>2019-02-05T12:21:29Z</time>
      </trkpt>
      <trkpt lat="46.18257" lon="6.56328">
        <ele>1586.31</ele>
        <time>2019-02-05T12:21:43Z</time>
      </trkpt>
      <trkpt lat="46.18257" lon="6.56328">
        <ele>1585.35</ele>
        <time>2019-02-05T12:22:05Z</time>
      </trkpt>
      <trkpt lat="46.18257" lon="6.56329">
        <ele>1585.83</ele>
        <time>2019-02-05T12:25:40Z</time>
      </trkpt>
      <trkpt lat="46.18256" lon="6.56328">
        <ele>1586.79</ele>
        <time>2019-02-05T12:28:50Z</time>
      </trkpt>
      <trkpt lat="46.18256" lon="6.56329">
        <ele>1586.79</ele>
        <time>2019-02-05T12:30:57Z</time>
      </trkpt>
      <trkpt lat="46.18255" lon="6.5633">
        <ele>1586.79</ele>
        <time>2019-02-05T12:31:24Z</time>
      </trkpt>
      <trkpt lat="46.18254" lon="6.5633">
        <ele>1586.79</ele>
        <time>2019-02-05T12:38:12Z</time>
      </trkpt>
      <trkpt lat="46.18255" lon="6.5633">
        <ele>1587.75</ele>
        <time>2019-02-05T12:50:43Z</time>
      </trkpt>
      <trkpt lat="46.18253" lon="6.5633">
        <ele>1588.24</ele>
        <time>2019-02-05T12:51:00Z</time>
      </trkpt>
      <trkpt lat="46.18253" lon="6.56331">
        <ele>1587.75</ele>
        <time>2019-02-05T12:51:20Z</time>
      </trkpt>
      <trkpt lat="46.18251" lon="6.56335">
        <ele>1587.75</ele>
        <time>2019-02-05T12:51:36Z</time>
      </trkpt>
      <trkpt lat="46.18252" lon="6.56334">
        <ele>1588.24</ele>
        <time>2019-02-05T12:52:52Z</time>
      </trkpt>
      <trkpt lat="46.18252" lon="6.56334">
        <ele>1588.24</ele>
        <time>2019-02-05T12:54:14Z</time>
      </trkpt>
      <trkpt lat="46.1825" lon="6.56333">
        <ele>1588.24</ele>
        <time>2019-02-05T12:54:42Z</time>
      </trkpt>
      <trkpt lat="46.1825" lon="6.56333">
        <ele>1587.75</ele>
        <time>2019-02-05T12:55:17Z</time>
      </trkpt>
      <trkpt lat="46.18249" lon="6.56333">
        <ele>1587.75</ele>
        <time>2019-02-05T12:55:36Z</time>
      </trkpt>
      <trkpt lat="46.18246" lon="6.56329">
        <ele>1588.72</ele>
        <time>2019-02-05T12:55:47Z</time>
      </trkpt>
      <trkpt lat="46.18242" lon="6.56322">
        <ele>1589.2</ele>
        <time>2019-02-05T12:55:57Z</time>
      </trkpt>
      <trkpt lat="46.1824" lon="6.56316">
        <ele>1589.68</ele>
        <time>2019-02-05T12:56:07Z</time>
      </trkpt>
      <trkpt lat="46.18236" lon="6.56309">
        <ele>1589.68</ele>
        <time>2019-02-05T12:56:20Z</time>
      </trkpt>
      <trkpt lat="46.18231" lon="6.56304">
        <ele>1590.64</ele>
        <time>2019-02-05T12:56:29Z</time>
      </trkpt>
      <trkpt lat="46.18229" lon="6.563">
        <ele>1590.16</ele>
        <time>2019-02-05T12:56:38Z</time>
      </trkpt>
      <trkpt lat="46.18224" lon="6.56294">
        <ele>1590.64</ele>
        <time>2019-02-05T12:56:51Z</time>
      </trkpt>
      <trkpt lat="46.18217" lon="6.5629">
        <ele>1590.64</ele>
        <time>2019-02-05T12:57:01Z</time>
      </trkpt>
      <trkpt lat="46.18212" lon="6.56287">
        <ele>1590.64</ele>
        <time>2019-02-05T12:57:29Z</time>
      </trkpt>
      <trkpt lat="46.18209" lon="6.56287">
        <ele>1590.16</ele>
        <time>2019-02-05T12:57:36Z</time>
      </trkpt>
      <trkpt lat="46.18206" lon="6.56286">
        <ele>1591.12</ele>
        <time>2019-02-05T12:57:47Z</time>
      </trkpt>
      <trkpt lat="46.18201" lon="6.56284">
        <ele>1591.12</ele>
        <time>2019-02-05T12:58:07Z</time>
      </trkpt>
      <trkpt lat="46.18198" lon="6.56281">
        <ele>1591.6</ele>
        <time>2019-02-05T12:58:12Z</time>
      </trkpt>
      <trkpt lat="46.1819" lon="6.56279">
        <ele>1592.08</ele>
        <time>2019-02-05T12:58:24Z</time>
      </trkpt>
      <trkpt lat="46.18183" lon="6.56277">
        <ele>1592.56</ele>
        <time>2019-02-05T12:58:34Z</time>
      </trkpt>
      <trkpt lat="46.18178" lon="6.56276">
        <ele>1593.04</ele>
        <time>2019-02-05T12:58:44Z</time>
      </trkpt>
      <trkpt lat="46.18171" lon="6.56276">
        <ele>1594.48</ele>
        <time>2019-02-05T12:58:54Z</time>
      </trkpt>
      <trkpt lat="46.18164" lon="6.56275">
        <ele>1595.45</ele>
        <time>2019-02-05T12:59:04Z</time>
      </trkpt>
      <trkpt lat="46.18163" lon="6.56275">
        <ele>1595.45</ele>
        <time>2019-02-05T12:59:05Z</time>
      </trkpt>
      <trkpt lat="46.18158" lon="6.56274">
        <ele>1596.41</ele>
        <time>2019-02-05T12:59:17Z</time>
      </trkpt>
      <trkpt lat="46.18155" lon="6.56274">
        <ele>1597.37</ele>
        <time>2019-02-05T12:59:28Z</time>
      </trkpt>
      <trkpt lat="46.18151" lon="6.56273">
        <ele>1599.29</ele>
        <time>2019-02-05T12:59:37Z</time>
      </trkpt>
      <trkpt lat="46.18149" lon="6.5627">
        <ele>1599.29</ele>
        <time>2019-02-05T12:59:46Z</time>
      </trkpt>
      <trkpt lat="46.18144" lon="6.56268">
        <ele>1600.73</ele>
        <time>2019-02-05T13:00:03Z</time>
      </trkpt>
      <trkpt lat="46.18141" lon="6.56267">
        <ele>1601.69</ele>
        <time>2019-02-05T13:00:16Z</time>
      </trkpt>
      <trkpt lat="46.18135" lon="6.56265">
        <ele>1602.66</ele>
        <time>2019-02-05T13:00:28Z</time>
      </trkpt>
      <trkpt lat="46.18134" lon="6.56262">
        <ele>1604.1</ele>
        <time>2019-02-05T13:00:37Z</time>
      </trkpt>
      <trkpt lat="46.18132" lon="6.56261">
        <ele>1603.62</ele>
        <time>2019-02-05T13:00:40Z</time>
      </trkpt>
      <trkpt lat="46.18129" lon="6.56257">
        <ele>1606.5</ele>
        <time>2019-02-05T13:00:54Z</time>
      </trkpt>
      <trkpt lat="46.18125" lon="6.56253">
        <ele>1607.46</ele>
        <time>2019-02-05T13:01:05Z</time>
      </trkpt>
      <trkpt lat="46.18124" lon="6.56251">
        <ele>1608.9</ele>
        <time>2019-02-05T13:01:08Z</time>
      </trkpt>
      <trkpt lat="46.18119" lon="6.56248">
        <ele>1610.35</ele>
        <time>2019-02-05T13:01:19Z</time>
      </trkpt>
      <trkpt lat="46.18112" lon="6.56243">
        <ele>1610.83</ele>
        <time>2019-02-05T13:01:31Z</time>
      </trkpt>
      <trkpt lat="46.18108" lon="6.5624">
        <ele>1612.27</ele>
        <time>2019-02-05T13:01:42Z</time>
      </trkpt>
      <trkpt lat="46.18101" lon="6.56236">
        <ele>1613.23</ele>
        <time>2019-02-05T13:01:54Z</time>
      </trkpt>
      <trkpt lat="46.18094" lon="6.56234">
        <ele>1614.67</ele>
        <time>2019-02-05T13:02:04Z</time>
      </trkpt>
      <trkpt lat="46.1809" lon="6.56232">
        <ele>1615.15</ele>
        <time>2019-02-05T13:02:16Z</time>
      </trkpt>
      <trkpt lat="46.18086" lon="6.56228">
        <ele>1616.59</ele>
        <time>2019-02-05T13:02:27Z</time>
      </trkpt>
      <trkpt lat="46.18082" lon="6.56226">
        <ele>1616.59</ele>
        <time>2019-02-05T13:02:42Z</time>
      </trkpt>
      <trkpt lat="46.18074" lon="6.56224">
        <ele>1617.56</ele>
        <time>2019-02-05T13:02:51Z</time>
      </trkpt>
      <trkpt lat="46.1807" lon="6.56219">
        <ele>1619</ele>
        <time>2019-02-05T13:03:00Z</time>
      </trkpt>
      <trkpt lat="46.18066" lon="6.56215">
        <ele>1619.96</ele>
        <time>2019-02-05T13:03:09Z</time>
      </trkpt>
      <trkpt lat="46.18064" lon="6.56212">
        <ele>1619.48</ele>
        <time>2019-02-05T13:03:27Z</time>
      </trkpt>
      <trkpt lat="46.18056" lon="6.56205">
        <ele>1620.92</ele>
        <time>2019-02-05T13:03:38Z</time>
      </trkpt>
      <trkpt lat="46.18053" lon="6.56201">
        <ele>1621.88</ele>
        <time>2019-02-05T13:03:47Z</time>
      </trkpt>
      <trkpt lat="46.18052" lon="6.562">
        <ele>1621.88</ele>
        <time>2019-02-05T13:03:48Z</time>
      </trkpt>
      <trkpt lat="46.18049" lon="6.56193">
        <ele>1622.36</ele>
        <time>2019-02-05T13:03:55Z</time>
      </trkpt>
      <trkpt lat="46.18046" lon="6.5619">
        <ele>1623.8</ele>
        <time>2019-02-05T13:04:06Z</time>
      </trkpt>
      <trkpt lat="46.18043" lon="6.56184">
        <ele>1624.77</ele>
        <time>2019-02-05T13:04:16Z</time>
      </trkpt>
      <trkpt lat="46.18042" lon="6.5618">
        <ele>1626.21</ele>
        <time>2019-02-05T13:04:24Z</time>
      </trkpt>
      <trkpt lat="46.18038" lon="6.56175">
        <ele>1627.17</ele>
        <time>2019-02-05T13:04:35Z</time>
      </trkpt>
      <trkpt lat="46.18037" lon="6.56171">
        <ele>1628.61</ele>
        <time>2019-02-05T13:04:42Z</time>
      </trkpt>
      <trkpt lat="46.18033" lon="6.56162">
        <ele>1629.57</ele>
        <time>2019-02-05T13:04:53Z</time>
      </trkpt>
      <trkpt lat="46.18026" lon="6.56154">
        <ele>1631.01</ele>
        <time>2019-02-05T13:05:06Z</time>
      </trkpt>
      <trkpt lat="46.18026" lon="6.56153">
        <ele>1631.01</ele>
        <time>2019-02-05T13:05:07Z</time>
      </trkpt>
      <trkpt lat="46.18025" lon="6.56148">
        <ele>1632.46</ele>
        <time>2019-02-05T13:05:16Z</time>
      </trkpt>
      <trkpt lat="46.18024" lon="6.56141">
        <ele>1632.46</ele>
        <time>2019-02-05T13:05:26Z</time>
      </trkpt>
      <trkpt lat="46.18022" lon="6.56134">
        <ele>1634.38</ele>
        <time>2019-02-05T13:05:38Z</time>
      </trkpt>
      <trkpt lat="46.18019" lon="6.56126">
        <ele>1634.86</ele>
        <time>2019-02-05T13:05:50Z</time>
      </trkpt>
      <trkpt lat="46.18016" lon="6.56117">
        <ele>1635.82</ele>
        <time>2019-02-05T13:06:01Z</time>
      </trkpt>
      <trkpt lat="46.18014" lon="6.56114">
        <ele>1636.3</ele>
        <time>2019-02-05T13:06:06Z</time>
      </trkpt>
      <trkpt lat="46.18014" lon="6.56106">
        <ele>1636.78</ele>
        <time>2019-02-05T13:06:17Z</time>
      </trkpt>
      <trkpt lat="46.18011" lon="6.56098">
        <ele>1638.22</ele>
        <time>2019-02-05T13:06:29Z</time>
      </trkpt>
      <trkpt lat="46.18013" lon="6.56092">
        <ele>1638.7</ele>
        <time>2019-02-05T13:06:41Z</time>
      </trkpt>
      <trkpt lat="46.18011" lon="6.56088">
        <ele>1639.19</ele>
        <time>2019-02-05T13:06:59Z</time>
      </trkpt>
      <trkpt lat="46.18009" lon="6.5608">
        <ele>1641.11</ele>
        <time>2019-02-05T13:07:10Z</time>
      </trkpt>
      <trkpt lat="46.18007" lon="6.56074">
        <ele>1642.07</ele>
        <time>2019-02-05T13:07:20Z</time>
      </trkpt>
      <trkpt lat="46.18004" lon="6.56069">
        <ele>1643.03</ele>
        <time>2019-02-05T13:07:31Z</time>
      </trkpt>
      <trkpt lat="46.18003" lon="6.56063">
        <ele>1643.99</ele>
        <time>2019-02-05T13:07:40Z</time>
      </trkpt>
      <trkpt lat="46.18" lon="6.56052">
        <ele>1644.95</ele>
        <time>2019-02-05T13:07:52Z</time>
      </trkpt>
      <trkpt lat="46.17999" lon="6.5605">
        <ele>1645.43</ele>
        <time>2019-02-05T13:07:56Z</time>
      </trkpt>
      <trkpt lat="46.17995" lon="6.56042">
        <ele>1646.4</ele>
        <time>2019-02-05T13:08:07Z</time>
      </trkpt>
      <trkpt lat="46.17993" lon="6.56035">
        <ele>1647.36</ele>
        <time>2019-02-05T13:08:18Z</time>
      </trkpt>
      <trkpt lat="46.1799" lon="6.56024">
        <ele>1649.28</ele>
        <time>2019-02-05T13:08:30Z</time>
      </trkpt>
      <trkpt lat="46.1799" lon="6.56024">
        <ele>1649.28</ele>
        <time>2019-02-05T13:08:31Z</time>
      </trkpt>
      <trkpt lat="46.17987" lon="6.56013">
        <ele>1649.28</ele>
        <time>2019-02-05T13:08:43Z</time>
      </trkpt>
      <trkpt lat="46.17986" lon="6.56011">
        <ele>1649.28</ele>
        <time>2019-02-05T13:08:45Z</time>
      </trkpt>
      <trkpt lat="46.17985" lon="6.56005">
        <ele>1649.76</ele>
        <time>2019-02-05T13:08:51Z</time>
      </trkpt>
      <trkpt lat="46.17984" lon="6.55999">
        <ele>1650.24</ele>
        <time>2019-02-05T13:08:58Z</time>
      </trkpt>
      <trkpt lat="46.17983" lon="6.55989">
        <ele>1650.72</ele>
        <time>2019-02-05T13:09:10Z</time>
      </trkpt>
      <trkpt lat="46.17982" lon="6.55986">
        <ele>1651.2</ele>
        <time>2019-02-05T13:09:13Z</time>
      </trkpt>
      <trkpt lat="46.17978" lon="6.5598">
        <ele>1652.16</ele>
        <time>2019-02-05T13:09:20Z</time>
      </trkpt>
      <trkpt lat="46.17974" lon="6.55972">
        <ele>1652.16</ele>
        <time>2019-02-05T13:09:30Z</time>
      </trkpt>
      <trkpt lat="46.1797" lon="6.55962">
        <ele>1653.12</ele>
        <time>2019-02-05T13:09:40Z</time>
      </trkpt>
      <trkpt lat="46.17965" lon="6.55953">
        <ele>1654.09</ele>
        <time>2019-02-05T13:09:52Z</time>
      </trkpt>
      <trkpt lat="46.17965" lon="6.55944">
        <ele>1655.05</ele>
        <time>2019-02-05T13:10:03Z</time>
      </trkpt>
      <trkpt lat="46.17963" lon="6.55937">
        <ele>1655.05</ele>
        <time>2019-02-05T13:10:12Z</time>
      </trkpt>
      <trkpt lat="46.17957" lon="6.55926">
        <ele>1656.49</ele>
        <time>2019-02-05T13:10:23Z</time>
      </trkpt>
      <trkpt lat="46.17955" lon="6.55918">
        <ele>1656.01</ele>
        <time>2019-02-05T13:10:34Z</time>
      </trkpt>
      <trkpt lat="46.1795" lon="6.55909">
        <ele>1656.49</ele>
        <time>2019-02-05T13:10:45Z</time>
      </trkpt>
      <trkpt lat="46.17946" lon="6.55899">
        <ele>1656.97</ele>
        <time>2019-02-05T13:10:55Z</time>
      </trkpt>
      <trkpt lat="46.17942" lon="6.55891">
        <ele>1658.41</ele>
        <time>2019-02-05T13:11:06Z</time>
      </trkpt>
      <trkpt lat="46.17939" lon="6.55883">
        <ele>1659.37</ele>
        <time>2019-02-05T13:11:16Z</time>
      </trkpt>
      <trkpt lat="46.17938" lon="6.55882">
        <ele>1659.85</ele>
        <time>2019-02-05T13:11:36Z</time>
      </trkpt>
      <trkpt lat="46.17936" lon="6.55878">
        <ele>1660.33</ele>
        <time>2019-02-05T13:12:13Z</time>
      </trkpt>
      <trkpt lat="46.17933" lon="6.5587">
        <ele>1661.78</ele>
        <time>2019-02-05T13:12:27Z</time>
      </trkpt>
      <trkpt lat="46.17934" lon="6.55865">
        <ele>1661.78</ele>
        <time>2019-02-05T13:12:33Z</time>
      </trkpt>
      <trkpt lat="46.17936" lon="6.55855">
        <ele>1661.78</ele>
        <time>2019-02-05T13:12:46Z</time>
      </trkpt>
      <trkpt lat="46.17932" lon="6.55846">
        <ele>1661.78</ele>
        <time>2019-02-05T13:12:55Z</time>
      </trkpt>
      <trkpt lat="46.17933" lon="6.55842">
        <ele>1660.81</ele>
        <time>2019-02-05T13:12:58Z</time>
      </trkpt>
      <trkpt lat="46.17933" lon="6.55837">
        <ele>1661.3</ele>
        <time>2019-02-05T13:13:02Z</time>
      </trkpt>
      <trkpt lat="46.17936" lon="6.55833">
        <ele>1661.3</ele>
        <time>2019-02-05T13:13:07Z</time>
      </trkpt>
      <trkpt lat="46.17937" lon="6.55831">
        <ele>1661.3</ele>
        <time>2019-02-05T13:13:09Z</time>
      </trkpt>
      <trkpt lat="46.17937" lon="6.55829">
        <ele>1661.3</ele>
        <time>2019-02-05T13:13:12Z</time>
      </trkpt>
      <trkpt lat="46.17939" lon="6.55828">
        <ele>1661.3</ele>
        <time>2019-02-05T13:13:14Z</time>
      </trkpt>
      <trkpt lat="46.17941" lon="6.55822">
        <ele>1661.78</ele>
        <time>2019-02-05T13:13:22Z</time>
      </trkpt>
      <trkpt lat="46.17943" lon="6.55821">
        <ele>1661.3</ele>
        <time>2019-02-05T13:13:25Z</time>
      </trkpt>
      <trkpt lat="46.17951" lon="6.55819">
        <ele>1661.78</ele>
        <time>2019-02-05T13:13:37Z</time>
      </trkpt>
      <trkpt lat="46.17956" lon="6.55825">
        <ele>1662.74</ele>
        <time>2019-02-05T13:13:50Z</time>
      </trkpt>
      <trkpt lat="46.1796" lon="6.55829">
        <ele>1663.7</ele>
        <time>2019-02-05T13:14:01Z</time>
      </trkpt>
      <trkpt lat="46.17963" lon="6.55828">
        <ele>1663.22</ele>
        <time>2019-02-05T13:14:09Z</time>
      </trkpt>
      <trkpt lat="46.1797" lon="6.5583">
        <ele>1663.22</ele>
        <time>2019-02-05T13:14:21Z</time>
      </trkpt>
      <trkpt lat="46.17975" lon="6.5583">
        <ele>1663.22</ele>
        <time>2019-02-05T13:14:35Z</time>
      </trkpt>
      <trkpt lat="46.17982" lon="6.55829">
        <ele>1663.7</ele>
        <time>2019-02-05T13:14:45Z</time>
      </trkpt>
      <trkpt lat="46.17988" lon="6.55827">
        <ele>1664.66</ele>
        <time>2019-02-05T13:14:56Z</time>
      </trkpt>
      <trkpt lat="46.1799" lon="6.55821">
        <ele>1663.7</ele>
        <time>2019-02-05T13:15:07Z</time>
      </trkpt>
      <trkpt lat="46.17987" lon="6.5581">
        <ele>1662.26</ele>
        <time>2019-02-05T13:15:18Z</time>
      </trkpt>
      <trkpt lat="46.17988" lon="6.55803">
        <ele>1662.74</ele>
        <time>2019-02-05T13:15:29Z</time>
      </trkpt>
      <trkpt lat="46.17987" lon="6.55796">
        <ele>1663.22</ele>
        <time>2019-02-05T13:15:43Z</time>
      </trkpt>
      <trkpt lat="46.17985" lon="6.55788">
        <ele>1663.7</ele>
        <time>2019-02-05T13:15:56Z</time>
      </trkpt>
      <trkpt lat="46.17985" lon="6.55778">
        <ele>1662.74</ele>
        <time>2019-02-05T13:16:13Z</time>
      </trkpt>
      <trkpt lat="46.17986" lon="6.55768">
        <ele>1661.3</ele>
        <time>2019-02-05T13:16:24Z</time>
      </trkpt>
      <trkpt lat="46.17992" lon="6.55762">
        <ele>1659.85</ele>
        <time>2019-02-05T13:16:35Z</time>
      </trkpt>
      <trkpt lat="46.17995" lon="6.55751">
        <ele>1658.41</ele>
        <time>2019-02-05T13:16:47Z</time>
      </trkpt>
      <trkpt lat="46.17994" lon="6.55744">
        <ele>1657.93</ele>
        <time>2019-02-05T13:16:54Z</time>
      </trkpt>
      <trkpt lat="46.17999" lon="6.55734">
        <ele>1657.45</ele>
        <time>2019-02-05T13:17:06Z</time>
      </trkpt>
      <trkpt lat="46.18002" lon="6.55728">
        <ele>1657.45</ele>
        <time>2019-02-05T13:17:17Z</time>
      </trkpt>
      <trkpt lat="46.18004" lon="6.55721">
        <ele>1655.53</ele>
        <time>2019-02-05T13:17:29Z</time>
      </trkpt>
      <trkpt lat="46.18007" lon="6.55717">
        <ele>1654.09</ele>
        <time>2019-02-05T13:17:45Z</time>
      </trkpt>
      <trkpt lat="46.18013" lon="6.5571">
        <ele>1653.12</ele>
        <time>2019-02-05T13:17:58Z</time>
      </trkpt>
      <trkpt lat="46.18013" lon="6.5571">
        <ele>1652.16</ele>
        <time>2019-02-05T13:18:11Z</time>
      </trkpt>
      <trkpt lat="46.18012" lon="6.55707">
        <ele>1651.68</ele>
        <time>2019-02-05T13:18:13Z</time>
      </trkpt>
      <trkpt lat="46.18014" lon="6.55702">
        <ele>1651.2</ele>
        <time>2019-02-05T13:18:27Z</time>
      </trkpt>
      <trkpt lat="46.18017" lon="6.55701">
        <ele>1650.72</ele>
        <time>2019-02-05T13:19:14Z</time>
      </trkpt>
      <trkpt lat="46.18014" lon="6.557">
        <ele>1650.72</ele>
        <time>2019-02-05T13:19:31Z</time>
      </trkpt>
      <trkpt lat="46.18014" lon="6.55699">
        <ele>1651.2</ele>
        <time>2019-02-05T13:19:49Z</time>
      </trkpt>
      <trkpt lat="46.18013" lon="6.55699">
        <ele>1651.2</ele>
        <time>2019-02-05T13:20:48Z</time>
      </trkpt>
      <trkpt lat="46.18019" lon="6.55703">
        <ele>1651.68</ele>
        <time>2019-02-05T13:22:42Z</time>
      </trkpt>
      <trkpt lat="46.18019" lon="6.55706">
        <ele>1652.16</ele>
        <time>2019-02-05T13:22:54Z</time>
      </trkpt>
      <trkpt lat="46.1802" lon="6.55707">
        <ele>1650.24</ele>
        <time>2019-02-05T13:23:29Z</time>
      </trkpt>
      <trkpt lat="46.1802" lon="6.55708">
        <ele>1650.72</ele>
        <time>2019-02-05T13:24:39Z</time>
      </trkpt>
      <trkpt lat="46.18021" lon="6.5571">
        <ele>1650.72</ele>
        <time>2019-02-05T13:27:57Z</time>
      </trkpt>
      <trkpt lat="46.18021" lon="6.5571">
        <ele>1651.68</ele>
        <time>2019-02-05T13:28:07Z</time>
      </trkpt>
      <trkpt lat="46.18021" lon="6.55712">
        <ele>1652.64</ele>
        <time>2019-02-05T13:28:34Z</time>
      </trkpt>
      <trkpt lat="46.18019" lon="6.55715">
        <ele>1653.12</ele>
        <time>2019-02-05T13:28:44Z</time>
      </trkpt>
      <trkpt lat="46.18021" lon="6.55713">
        <ele>1652.16</ele>
        <time>2019-02-05T13:29:00Z</time>
      </trkpt>
      <trkpt lat="46.18021" lon="6.55712">
        <ele>1652.64</ele>
        <time>2019-02-05T13:29:52Z</time>
      </trkpt>
      <trkpt lat="46.18021" lon="6.55712">
        <ele>1652.16</ele>
        <time>2019-02-05T13:30:34Z</time>
      </trkpt>
      <trkpt lat="46.18021" lon="6.55712">
        <ele>1652.64</ele>
        <time>2019-02-05T13:31:28Z</time>
      </trkpt>
      <trkpt lat="46.18019" lon="6.55712">
        <ele>1653.12</ele>
        <time>2019-02-05T13:31:54Z</time>
      </trkpt>
      <trkpt lat="46.1802" lon="6.55713">
        <ele>1653.12</ele>
        <time>2019-02-05T13:32:44Z</time>
      </trkpt>
      <trkpt lat="46.1802" lon="6.55713">
        <ele>1653.12</ele>
        <time>2019-02-05T13:33:53Z</time>
      </trkpt>
      <trkpt lat="46.1802" lon="6.55713">
        <ele>1653.12</ele>
        <time>2019-02-05T13:34:17Z</time>
      </trkpt>
      <trkpt lat="46.1802" lon="6.55713">
        <ele>1652.64</ele>
        <time>2019-02-05T13:34:36Z</time>
      </trkpt>
      <trkpt lat="46.1802" lon="6.55715">
        <ele>1653.6</ele>
        <time>2019-02-05T13:34:56Z</time>
      </trkpt>
      <trkpt lat="46.1802" lon="6.55715">
        <ele>1653.6</ele>
        <time>2019-02-05T13:35:27Z</time>
      </trkpt>
      <trkpt lat="46.18019" lon="6.55715">
        <ele>1655.05</ele>
        <time>2019-02-05T13:36:44Z</time>
      </trkpt>
      <trkpt lat="46.18019" lon="6.55715">
        <ele>1654.09</ele>
        <time>2019-02-05T13:37:56Z</time>
      </trkpt>
      <trkpt lat="46.18019" lon="6.55714">
        <ele>1654.57</ele>
        <time>2019-02-05T13:40:25Z</time>
      </trkpt>
      <trkpt lat="46.18018" lon="6.55715">
        <ele>1654.57</ele>
        <time>2019-02-05T13:41:24Z</time>
      </trkpt>
      <trkpt lat="46.18021" lon="6.55714">
        <ele>1655.05</ele>
        <time>2019-02-05T13:41:44Z</time>
      </trkpt>
      <trkpt lat="46.18021" lon="6.55714">
        <ele>1655.05</ele>
        <time>2019-02-05T13:41:55Z</time>
      </trkpt>
      <trkpt lat="46.18022" lon="6.55718">
        <ele>1655.05</ele>
        <time>2019-02-05T13:42:09Z</time>
      </trkpt>
      <trkpt lat="46.18022" lon="6.55718">
        <ele>1654.09</ele>
        <time>2019-02-05T13:42:20Z</time>
      </trkpt>
      <trkpt lat="46.18022" lon="6.55718">
        <ele>1654.09</ele>
        <time>2019-02-05T13:42:33Z</time>
      </trkpt>
      <trkpt lat="46.18033" lon="6.55735">
        <ele>1654.57</ele>
        <time>2019-02-05T13:42:45Z</time>
      </trkpt>
      <trkpt lat="46.18039" lon="6.55746">
        <ele>1655.53</ele>
        <time>2019-02-05T13:42:58Z</time>
      </trkpt>
      <trkpt lat="46.1804" lon="6.55757">
        <ele>1656.01</ele>
        <time>2019-02-05T13:43:09Z</time>
      </trkpt>
      <trkpt lat="46.18043" lon="6.55766">
        <ele>1656.49</ele>
        <time>2019-02-05T13:43:21Z</time>
      </trkpt>
      <trkpt lat="46.18043" lon="6.55774">
        <ele>1657.45</ele>
        <time>2019-02-05T13:43:35Z</time>
      </trkpt>
      <trkpt lat="46.1804" lon="6.55782">
        <ele>1658.41</ele>
        <time>2019-02-05T13:43:46Z</time>
      </trkpt>
      <trkpt lat="46.18036" lon="6.55793">
        <ele>1658.89</ele>
        <time>2019-02-05T13:43:59Z</time>
      </trkpt>
      <trkpt lat="46.18035" lon="6.558">
        <ele>1658.89</ele>
        <time>2019-02-05T13:44:11Z</time>
      </trkpt>
      <trkpt lat="46.18031" lon="6.55807">
        <ele>1658.41</ele>
        <time>2019-02-05T13:44:22Z</time>
      </trkpt>
      <trkpt lat="46.1803" lon="6.55808">
        <ele>1659.37</ele>
        <time>2019-02-05T13:44:37Z</time>
      </trkpt>
      <trkpt lat="46.18028" lon="6.55814">
        <ele>1659.37</ele>
        <time>2019-02-05T13:44:47Z</time>
      </trkpt>
      <trkpt lat="46.18028" lon="6.55814">
        <ele>1659.37</ele>
        <time>2019-02-05T13:45:19Z</time>
      </trkpt>
      <trkpt lat="46.18026" lon="6.55822">
        <ele>1659.37</ele>
        <time>2019-02-05T13:46:08Z</time>
      </trkpt>
      <trkpt lat="46.18023" lon="6.55833">
        <ele>1659.37</ele>
        <time>2019-02-05T13:46:20Z</time>
      </trkpt>
      <trkpt lat="46.18021" lon="6.55841">
        <ele>1659.37</ele>
        <time>2019-02-05T13:46:31Z</time>
      </trkpt>
      <trkpt lat="46.18026" lon="6.55846">
        <ele>1659.85</ele>
        <time>2019-02-05T13:46:43Z</time>
      </trkpt>
      <trkpt lat="46.18026" lon="6.55847">
        <ele>1660.33</ele>
        <time>2019-02-05T13:46:47Z</time>
      </trkpt>
      <trkpt lat="46.1803" lon="6.55858">
        <ele>1660.33</ele>
        <time>2019-02-05T13:46:58Z</time>
      </trkpt>
      <trkpt lat="46.18029" lon="6.55868">
        <ele>1661.78</ele>
        <time>2019-02-05T13:47:11Z</time>
      </trkpt>
      <trkpt lat="46.18026" lon="6.55878">
        <ele>1660.81</ele>
        <time>2019-02-05T13:47:23Z</time>
      </trkpt>
      <trkpt lat="46.18025" lon="6.55885">
        <ele>1660.33</ele>
        <time>2019-02-05T13:47:32Z</time>
      </trkpt>
      <trkpt lat="46.18022" lon="6.55892">
        <ele>1660.33</ele>
        <time>2019-02-05T13:47:42Z</time>
      </trkpt>
      <trkpt lat="46.18019" lon="6.55897">
        <ele>1659.37</ele>
        <time>2019-02-05T13:47:50Z</time>
      </trkpt>
      <trkpt lat="46.18014" lon="6.55907">
        <ele>1657.45</ele>
        <time>2019-02-05T13:48:04Z</time>
      </trkpt>
      <trkpt lat="46.18013" lon="6.55919">
        <ele>1656.49</ele>
        <time>2019-02-05T13:48:18Z</time>
      </trkpt>
      <trkpt lat="46.18016" lon="6.55928">
        <ele>1655.53</ele>
        <time>2019-02-05T13:48:29Z</time>
      </trkpt>
      <trkpt lat="46.18018" lon="6.55933">
        <ele>1655.05</ele>
        <time>2019-02-05T13:48:35Z</time>
      </trkpt>
      <trkpt lat="46.18021" lon="6.55941">
        <ele>1654.09</ele>
        <time>2019-02-05T13:48:43Z</time>
      </trkpt>
      <trkpt lat="46.18023" lon="6.55947">
        <ele>1653.12</ele>
        <time>2019-02-05T13:48:57Z</time>
      </trkpt>
      <trkpt lat="46.18022" lon="6.55957">
        <ele>1652.16</ele>
        <time>2019-02-05T13:49:13Z</time>
      </trkpt>
      <trkpt lat="46.18022" lon="6.55969">
        <ele>1652.16</ele>
        <time>2019-02-05T13:49:26Z</time>
      </trkpt>
      <trkpt lat="46.18022" lon="6.55977">
        <ele>1652.16</ele>
        <time>2019-02-05T13:49:33Z</time>
      </trkpt>
      <trkpt lat="46.18024" lon="6.55992">
        <ele>1650.72</ele>
        <time>2019-02-05T13:49:47Z</time>
      </trkpt>
      <trkpt lat="46.18025" lon="6.56007">
        <ele>1649.76</ele>
        <time>2019-02-05T13:50:01Z</time>
      </trkpt>
      <trkpt lat="46.18028" lon="6.56019">
        <ele>1649.28</ele>
        <time>2019-02-05T13:50:14Z</time>
      </trkpt>
      <trkpt lat="46.18032" lon="6.56025">
        <ele>1649.76</ele>
        <time>2019-02-05T13:50:27Z</time>
      </trkpt>
      <trkpt lat="46.18032" lon="6.56027">
        <ele>1649.28</ele>
        <time>2019-02-05T13:50:28Z</time>
      </trkpt>
      <trkpt lat="46.18034" lon="6.5604">
        <ele>1649.76</ele>
        <time>2019-02-05T13:50:41Z</time>
      </trkpt>
      <trkpt lat="46.18035" lon="6.56051">
        <ele>1649.76</ele>
        <time>2019-02-05T13:50:53Z</time>
      </trkpt>
      <trkpt lat="46.18039" lon="6.56062">
        <ele>1649.28</ele>
        <time>2019-02-05T13:51:06Z</time>
      </trkpt>
      <trkpt lat="46.1804" lon="6.56065">
        <ele>1648.8</ele>
        <time>2019-02-05T13:51:09Z</time>
      </trkpt>
      <trkpt lat="46.18043" lon="6.56079">
        <ele>1646.88</ele>
        <time>2019-02-05T13:51:24Z</time>
      </trkpt>
      <trkpt lat="46.18044" lon="6.56091">
        <ele>1644.95</ele>
        <time>2019-02-05T13:51:39Z</time>
      </trkpt>
      <trkpt lat="46.18046" lon="6.56104">
        <ele>1643.03</ele>
        <time>2019-02-05T13:51:53Z</time>
      </trkpt>
      <trkpt lat="46.18047" lon="6.56116">
        <ele>1641.11</ele>
        <time>2019-02-05T13:52:08Z</time>
      </trkpt>
      <trkpt lat="46.18049" lon="6.56125">
        <ele>1640.15</ele>
        <time>2019-02-05T13:52:20Z</time>
      </trkpt>
      <trkpt lat="46.18053" lon="6.56139">
        <ele>1639.19</ele>
        <time>2019-02-05T13:52:32Z</time>
      </trkpt>
      <trkpt lat="46.18059" lon="6.56148">
        <ele>1637.26</ele>
        <time>2019-02-05T13:52:45Z</time>
      </trkpt>
      <trkpt lat="46.18061" lon="6.56153">
        <ele>1636.3</ele>
        <time>2019-02-05T13:52:53Z</time>
      </trkpt>
      <trkpt lat="46.18059" lon="6.56164">
        <ele>1632.94</ele>
        <time>2019-02-05T13:53:05Z</time>
      </trkpt>
      <trkpt lat="46.1806" lon="6.56175">
        <ele>1630.05</ele>
        <time>2019-02-05T13:53:14Z</time>
      </trkpt>
      <trkpt lat="46.1806" lon="6.56176">
        <ele>1629.57</ele>
        <time>2019-02-05T13:53:15Z</time>
      </trkpt>
      <trkpt lat="46.1806" lon="6.56183">
        <ele>1627.17</ele>
        <time>2019-02-05T13:53:21Z</time>
      </trkpt>
      <trkpt lat="46.18062" lon="6.56196">
        <ele>1624.77</ele>
        <time>2019-02-05T13:53:33Z</time>
      </trkpt>
      <trkpt lat="46.18062" lon="6.56198">
        <ele>1624.28</ele>
        <time>2019-02-05T13:53:34Z</time>
      </trkpt>
      <trkpt lat="46.18064" lon="6.56209">
        <ele>1622.84</ele>
        <time>2019-02-05T13:53:46Z</time>
      </trkpt>
      <trkpt lat="46.18066" lon="6.5621">
        <ele>1622.36</ele>
        <time>2019-02-05T13:53:58Z</time>
      </trkpt>
      <trkpt lat="46.18067" lon="6.56211">
        <ele>1621.88</ele>
        <time>2019-02-05T13:55:33Z</time>
      </trkpt>
      <trkpt lat="46.18068" lon="6.56214">
        <ele>1620.92</ele>
        <time>2019-02-05T13:55:40Z</time>
      </trkpt>
      <trkpt lat="46.18081" lon="6.56223">
        <ele>1619.48</ele>
        <time>2019-02-05T13:55:56Z</time>
      </trkpt>
      <trkpt lat="46.18085" lon="6.56226">
        <ele>1618.52</ele>
        <time>2019-02-05T13:56:09Z</time>
      </trkpt>
      <trkpt lat="46.18095" lon="6.56229">
        <ele>1616.59</ele>
        <time>2019-02-05T13:56:29Z</time>
      </trkpt>
      <trkpt lat="46.181" lon="6.56231">
        <ele>1615.63</ele>
        <time>2019-02-05T13:56:45Z</time>
      </trkpt>
      <trkpt lat="46.18105" lon="6.56234">
        <ele>1615.15</ele>
        <time>2019-02-05T13:56:51Z</time>
      </trkpt>
      <trkpt lat="46.18108" lon="6.56237">
        <ele>1614.67</ele>
        <time>2019-02-05T13:56:55Z</time>
      </trkpt>
      <trkpt lat="46.18112" lon="6.56239">
        <ele>1614.19</ele>
        <time>2019-02-05T13:57:00Z</time>
      </trkpt>
      <trkpt lat="46.18121" lon="6.56247">
        <ele>1611.31</ele>
        <time>2019-02-05T13:57:16Z</time>
      </trkpt>
      <trkpt lat="46.18127" lon="6.56255">
        <ele>1609.38</ele>
        <time>2019-02-05T13:57:28Z</time>
      </trkpt>
      <trkpt lat="46.1813" lon="6.5626">
        <ele>1607.94</ele>
        <time>2019-02-05T13:57:40Z</time>
      </trkpt>
      <trkpt lat="46.18135" lon="6.56269">
        <ele>1606.02</ele>
        <time>2019-02-05T13:57:52Z</time>
      </trkpt>
      <trkpt lat="46.18141" lon="6.56275">
        <ele>1602.17</ele>
        <time>2019-02-05T13:58:04Z</time>
      </trkpt>
      <trkpt lat="46.18148" lon="6.56282">
        <ele>1599.29</ele>
        <time>2019-02-05T13:58:16Z</time>
      </trkpt>
      <trkpt lat="46.18153" lon="6.56293">
        <ele>1597.37</ele>
        <time>2019-02-05T13:58:28Z</time>
      </trkpt>
      <trkpt lat="46.18154" lon="6.56302">
        <ele>1595.93</ele>
        <time>2019-02-05T13:58:41Z</time>
      </trkpt>
      <trkpt lat="46.18158" lon="6.56314">
        <ele>1594</ele>
        <time>2019-02-05T13:58:55Z</time>
      </trkpt>
      <trkpt lat="46.18158" lon="6.56314">
        <ele>1594.48</ele>
        <time>2019-02-05T13:59:24Z</time>
      </trkpt>
      <trkpt lat="46.18162" lon="6.56319">
        <ele>1592.56</ele>
        <time>2019-02-05T14:00:11Z</time>
      </trkpt>
      <trkpt lat="46.18168" lon="6.5633">
        <ele>1590.64</ele>
        <time>2019-02-05T14:00:25Z</time>
      </trkpt>
      <trkpt lat="46.18174" lon="6.56335">
        <ele>1589.68</ele>
        <time>2019-02-05T14:00:38Z</time>
      </trkpt>
      <trkpt lat="46.1818" lon="6.56343">
        <ele>1587.75</ele>
        <time>2019-02-05T14:00:49Z</time>
      </trkpt>
      <trkpt lat="46.18183" lon="6.56345">
        <ele>1587.27</ele>
        <time>2019-02-05T14:01:06Z</time>
      </trkpt>
      <trkpt lat="46.18185" lon="6.56347">
        <ele>1587.75</ele>
        <time>2019-02-05T14:01:08Z</time>
      </trkpt>
      <trkpt lat="46.18195" lon="6.56355">
        <ele>1587.27</ele>
        <time>2019-02-05T14:01:20Z</time>
      </trkpt>
      <trkpt lat="46.18202" lon="6.5636">
        <ele>1586.31</ele>
        <time>2019-02-05T14:01:30Z</time>
      </trkpt>
      <trkpt lat="46.18209" lon="6.56365">
        <ele>1586.79</ele>
        <time>2019-02-05T14:01:40Z</time>
      </trkpt>
      <trkpt lat="46.18216" lon="6.56371">
        <ele>1585.83</ele>
        <time>2019-02-05T14:01:52Z</time>
      </trkpt>
      <trkpt lat="46.18222" lon="6.56375">
        <ele>1585.35</ele>
        <time>2019-02-05T14:02:03Z</time>
      </trkpt>
      <trkpt lat="46.18228" lon="6.56378">
        <ele>1585.35</ele>
        <time>2019-02-05T14:02:14Z</time>
      </trkpt>
      <trkpt lat="46.18232" lon="6.5638">
        <ele>1584.39</ele>
        <time>2019-02-05T14:02:20Z</time>
      </trkpt>
      <trkpt lat="46.18239" lon="6.56382">
        <ele>1584.39</ele>
        <time>2019-02-05T14:02:30Z</time>
      </trkpt>
      <trkpt lat="46.18245" lon="6.56384">
        <ele>1583.91</ele>
        <time>2019-02-05T14:02:42Z</time>
      </trkpt>
      <trkpt lat="46.18248" lon="6.56385">
        <ele>1583.91</ele>
        <time>2019-02-05T14:02:46Z</time>
      </trkpt>
      <trkpt lat="46.18257" lon="6.56392">
        <ele>1582.47</ele>
        <time>2019-02-05T14:02:59Z</time>
      </trkpt>
      <trkpt lat="46.18261" lon="6.56396">
        <ele>1581.99</ele>
        <time>2019-02-05T14:03:12Z</time>
      </trkpt>
      <trkpt lat="46.1827" lon="6.56405">
        <ele>1579.58</ele>
        <time>2019-02-05T14:03:26Z</time>
      </trkpt>
      <trkpt lat="46.18275" lon="6.56415">
        <ele>1576.7</ele>
        <time>2019-02-05T14:03:38Z</time>
      </trkpt>
      <trkpt lat="46.18284" lon="6.56424">
        <ele>1575.74</ele>
        <time>2019-02-05T14:03:52Z</time>
      </trkpt>
      <trkpt lat="46.18291" lon="6.5643">
        <ele>1573.33</ele>
        <time>2019-02-05T14:04:05Z</time>
      </trkpt>
      <trkpt lat="46.18299" lon="6.56433">
        <ele>1571.41</ele>
        <time>2019-02-05T14:04:17Z</time>
      </trkpt>
      <trkpt lat="46.18306" lon="6.56437">
        <ele>1569.49</ele>
        <time>2019-02-05T14:04:28Z</time>
      </trkpt>
      <trkpt lat="46.18314" lon="6.56444">
        <ele>1568.05</ele>
        <time>2019-02-05T14:04:40Z</time>
      </trkpt>
      <trkpt lat="46.18318" lon="6.56448">
        <ele>1567.09</ele>
        <time>2019-02-05T14:04:58Z</time>
      </trkpt>
      <trkpt lat="46.18324" lon="6.56453">
        <ele>1566.12</ele>
        <time>2019-02-05T14:05:09Z</time>
      </trkpt>
      <trkpt lat="46.18332" lon="6.56459">
        <ele>1564.2</ele>
        <time>2019-02-05T14:05:23Z</time>
      </trkpt>
      <trkpt lat="46.18335" lon="6.56465">
        <ele>1562.28</ele>
        <time>2019-02-05T14:05:35Z</time>
      </trkpt>
      <trkpt lat="46.18341" lon="6.56464">
        <ele>1560.84</ele>
        <time>2019-02-05T14:06:11Z</time>
      </trkpt>
      <trkpt lat="46.18343" lon="6.56464">
        <ele>1559.88</ele>
        <time>2019-02-05T14:06:23Z</time>
      </trkpt>
      <trkpt lat="46.18345" lon="6.56464">
        <ele>1557.95</ele>
        <time>2019-02-05T14:07:05Z</time>
      </trkpt>
      <trkpt lat="46.18351" lon="6.56457">
        <ele>1555.55</ele>
        <time>2019-02-05T14:07:16Z</time>
      </trkpt>
      <trkpt lat="46.18356" lon="6.56454">
        <ele>1552.19</ele>
        <time>2019-02-05T14:07:30Z</time>
      </trkpt>
      <trkpt lat="46.18363" lon="6.56456">
        <ele>1550.26</ele>
        <time>2019-02-05T14:07:41Z</time>
      </trkpt>
      <trkpt lat="46.18366" lon="6.56459">
        <ele>1549.3</ele>
        <time>2019-02-05T14:07:55Z</time>
      </trkpt>
      <trkpt lat="46.18367" lon="6.56459">
        <ele>1549.3</ele>
        <time>2019-02-05T14:08:48Z</time>
      </trkpt>
      <trkpt lat="46.18368" lon="6.56459">
        <ele>1548.34</ele>
        <time>2019-02-05T14:11:25Z</time>
      </trkpt>
      <trkpt lat="46.18371" lon="6.56461">
        <ele>1547.38</ele>
        <time>2019-02-05T14:12:54Z</time>
      </trkpt>
      <trkpt lat="46.18376" lon="6.56465">
        <ele>1545.94</ele>
        <time>2019-02-05T14:13:06Z</time>
      </trkpt>
      <trkpt lat="46.18379" lon="6.56465">
        <ele>1545.94</ele>
        <time>2019-02-05T14:13:24Z</time>
      </trkpt>
      <trkpt lat="46.18391" lon="6.56469">
        <ele>1543.53</ele>
        <time>2019-02-05T14:13:37Z</time>
      </trkpt>
      <trkpt lat="46.18401" lon="6.56471">
        <ele>1541.13</ele>
        <time>2019-02-05T14:13:48Z</time>
      </trkpt>
      <trkpt lat="46.1841" lon="6.56474">
        <ele>1539.69</ele>
        <time>2019-02-05T14:13:59Z</time>
      </trkpt>
      <trkpt lat="46.18411" lon="6.56476">
        <ele>1538.73</ele>
        <time>2019-02-05T14:14:01Z</time>
      </trkpt>
      <trkpt lat="46.18421" lon="6.56479">
        <ele>1535.84</ele>
        <time>2019-02-05T14:14:13Z</time>
      </trkpt>
      <trkpt lat="46.18432" lon="6.56478">
        <ele>1533.44</ele>
        <time>2019-02-05T14:14:25Z</time>
      </trkpt>
      <trkpt lat="46.18434" lon="6.56479">
        <ele>1532.48</ele>
        <time>2019-02-05T14:14:29Z</time>
      </trkpt>
      <trkpt lat="46.18437" lon="6.56483">
        <ele>1531.04</ele>
        <time>2019-02-05T14:14:33Z</time>
      </trkpt>
      <trkpt lat="46.18434" lon="6.56492">
        <ele>1528.63</ele>
        <time>2019-02-05T14:14:44Z</time>
      </trkpt>
      <trkpt lat="46.18428" lon="6.56506">
        <ele>1526.71</ele>
        <time>2019-02-05T14:14:55Z</time>
      </trkpt>
      <trkpt lat="46.18427" lon="6.56508">
        <ele>1525.75</ele>
        <time>2019-02-05T14:14:58Z</time>
      </trkpt>
      <trkpt lat="46.18421" lon="6.56517">
        <ele>1522.39</ele>
        <time>2019-02-05T14:15:09Z</time>
      </trkpt>
      <trkpt lat="46.18418" lon="6.5653">
        <ele>1519.98</ele>
        <time>2019-02-05T14:15:21Z</time>
      </trkpt>
      <trkpt lat="46.18421" lon="6.56533">
        <ele>1519.02</ele>
        <time>2019-02-05T14:15:26Z</time>
      </trkpt>
      <trkpt lat="46.18431" lon="6.56542">
        <ele>1516.14</ele>
        <time>2019-02-05T14:15:38Z</time>
      </trkpt>
      <trkpt lat="46.18439" lon="6.56553">
        <ele>1512.29</ele>
        <time>2019-02-05T14:15:50Z</time>
      </trkpt>
      <trkpt lat="46.18445" lon="6.56563">
        <ele>1510.85</ele>
        <time>2019-02-05T14:15:58Z</time>
      </trkpt>
      <trkpt lat="46.18451" lon="6.56571">
        <ele>1507.97</ele>
        <time>2019-02-05T14:16:10Z</time>
      </trkpt>
      <trkpt lat="46.18454" lon="6.56577">
        <ele>1506.52</ele>
        <time>2019-02-05T14:16:14Z</time>
      </trkpt>
      <trkpt lat="46.18464" lon="6.56589">
        <ele>1506.04</ele>
        <time>2019-02-05T14:16:24Z</time>
      </trkpt>
      <trkpt lat="46.18471" lon="6.56604">
        <ele>1503.64</ele>
        <time>2019-02-05T14:16:36Z</time>
      </trkpt>
      <trkpt lat="46.18475" lon="6.56606">
        <ele>1503.64</ele>
        <time>2019-02-05T14:16:39Z</time>
      </trkpt>
      <trkpt lat="46.18478" lon="6.5661">
        <ele>1503.16</ele>
        <time>2019-02-05T14:16:43Z</time>
      </trkpt>
      <trkpt lat="46.18482" lon="6.56624">
        <ele>1499.79</ele>
        <time>2019-02-05T14:16:54Z</time>
      </trkpt>
      <trkpt lat="46.1849" lon="6.5664">
        <ele>1496.91</ele>
        <time>2019-02-05T14:17:07Z</time>
      </trkpt>
      <trkpt lat="46.18494" lon="6.56653">
        <ele>1495.47</ele>
        <time>2019-02-05T14:17:17Z</time>
      </trkpt>
      <trkpt lat="46.18498" lon="6.56657">
        <ele>1494.51</ele>
        <time>2019-02-05T14:17:22Z</time>
      </trkpt>
      <trkpt lat="46.18505" lon="6.56665">
        <ele>1494.03</ele>
        <time>2019-02-05T14:17:29Z</time>
      </trkpt>
      <trkpt lat="46.18511" lon="6.56675">
        <ele>1493.55</ele>
        <time>2019-02-05T14:17:41Z</time>
      </trkpt>
      <trkpt lat="46.18511" lon="6.56676">
        <ele>1492.58</ele>
        <time>2019-02-05T14:18:03Z</time>
      </trkpt>
      <trkpt lat="46.18515" lon="6.56682">
        <ele>1492.58</ele>
        <time>2019-02-05T14:18:38Z</time>
      </trkpt>
      <trkpt lat="46.18516" lon="6.56683">
        <ele>1491.62</ele>
        <time>2019-02-05T14:18:39Z</time>
      </trkpt>
      <trkpt lat="46.18517" lon="6.56685">
        <ele>1491.62</ele>
        <time>2019-02-05T14:18:41Z</time>
      </trkpt>
      <trkpt lat="46.18526" lon="6.56685">
        <ele>1491.14</ele>
        <time>2019-02-05T14:18:53Z</time>
      </trkpt>
      <trkpt lat="46.18536" lon="6.56685">
        <ele>1489.22</ele>
        <time>2019-02-05T14:19:03Z</time>
      </trkpt>
      <trkpt lat="46.18539" lon="6.56686">
        <ele>1488.26</ele>
        <time>2019-02-05T14:19:15Z</time>
      </trkpt>
      <trkpt lat="46.18545" lon="6.56693">
        <ele>1485.85</ele>
        <time>2019-02-05T14:19:27Z</time>
      </trkpt>
      <trkpt lat="46.18544" lon="6.56696">
        <ele>1484.41</ele>
        <time>2019-02-05T14:19:31Z</time>
      </trkpt>
      <trkpt lat="46.18549" lon="6.56702">
        <ele>1482.01</ele>
        <time>2019-02-05T14:19:43Z</time>
      </trkpt>
      <trkpt lat="46.18552" lon="6.56706">
        <ele>1479.13</ele>
        <time>2019-02-05T14:19:51Z</time>
      </trkpt>
      <trkpt lat="46.18554" lon="6.56711">
        <ele>1478.16</ele>
        <time>2019-02-05T14:19:53Z</time>
      </trkpt>
      <trkpt lat="46.18564" lon="6.56719">
        <ele>1477.2</ele>
        <time>2019-02-05T14:20:04Z</time>
      </trkpt>
      <trkpt lat="46.18569" lon="6.5672">
        <ele>1473.84</ele>
        <time>2019-02-05T14:20:14Z</time>
      </trkpt>
      <trkpt lat="46.18572" lon="6.56728">
        <ele>1472.4</ele>
        <time>2019-02-05T14:20:23Z</time>
      </trkpt>
      <trkpt lat="46.18571" lon="6.56731">
        <ele>1471.44</ele>
        <time>2019-02-05T14:20:26Z</time>
      </trkpt>
      <trkpt lat="46.18569" lon="6.56741">
        <ele>1469.03</ele>
        <time>2019-02-05T14:20:37Z</time>
      </trkpt>
      <trkpt lat="46.18569" lon="6.56741">
        <ele>1467.59</ele>
        <time>2019-02-05T14:20:41Z</time>
      </trkpt>
      <trkpt lat="46.18564" lon="6.56746">
        <ele>1465.19</ele>
        <time>2019-02-05T14:20:52Z</time>
      </trkpt>
      <trkpt lat="46.18564" lon="6.56752">
        <ele>1461.82</ele>
        <time>2019-02-05T14:21:02Z</time>
      </trkpt>
      <trkpt lat="46.18565" lon="6.5676">
        <ele>1458.94</ele>
        <time>2019-02-05T14:21:14Z</time>
      </trkpt>
      <trkpt lat="46.18569" lon="6.56768">
        <ele>1456.53</ele>
        <time>2019-02-05T14:21:24Z</time>
      </trkpt>
      <trkpt lat="46.18572" lon="6.56782">
        <ele>1454.13</ele>
        <time>2019-02-05T14:21:34Z</time>
      </trkpt>
      <trkpt lat="46.18578" lon="6.56787">
        <ele>1450.77</ele>
        <time>2019-02-05T14:21:45Z</time>
      </trkpt>
      <trkpt lat="46.18584" lon="6.56787">
        <ele>1450.29</ele>
        <time>2019-02-05T14:21:49Z</time>
      </trkpt>
      <trkpt lat="46.18588" lon="6.5679">
        <ele>1449.32</ele>
        <time>2019-02-05T14:21:53Z</time>
      </trkpt>
      <trkpt lat="46.18589" lon="6.56792">
        <ele>1448.36</ele>
        <time>2019-02-05T14:21:58Z</time>
      </trkpt>
      <trkpt lat="46.186" lon="6.56794">
        <ele>1446.92</ele>
        <time>2019-02-05T14:22:07Z</time>
      </trkpt>
      <trkpt lat="46.18606" lon="6.56803">
        <ele>1446.92</ele>
        <time>2019-02-05T14:22:12Z</time>
      </trkpt>
      <trkpt lat="46.18619" lon="6.56818">
        <ele>1445.96</ele>
        <time>2019-02-05T14:22:23Z</time>
      </trkpt>
      <trkpt lat="46.18627" lon="6.56827">
        <ele>1444.52</ele>
        <time>2019-02-05T14:22:32Z</time>
      </trkpt>
      <trkpt lat="46.18633" lon="6.56836">
        <ele>1444.04</ele>
        <time>2019-02-05T14:22:43Z</time>
      </trkpt>
      <trkpt lat="46.1864" lon="6.56845">
        <ele>1443.56</ele>
        <time>2019-02-05T14:22:55Z</time>
      </trkpt>
      <trkpt lat="46.18648" lon="6.56846">
        <ele>1444.04</ele>
        <time>2019-02-05T14:23:06Z</time>
      </trkpt>
      <trkpt lat="46.18657" lon="6.56847">
        <ele>1444.04</ele>
        <time>2019-02-05T14:23:17Z</time>
      </trkpt>
      <trkpt lat="46.18665" lon="6.56845">
        <ele>1445</ele>
        <time>2019-02-05T14:23:30Z</time>
      </trkpt>
      <trkpt lat="46.18668" lon="6.56846">
        <ele>1444.04</ele>
        <time>2019-02-05T14:23:32Z</time>
      </trkpt>
      <trkpt lat="46.1867" lon="6.56845">
        <ele>1444.04</ele>
        <time>2019-02-05T14:23:35Z</time>
      </trkpt>
      <trkpt lat="46.18674" lon="6.56844">
        <ele>1444.52</ele>
        <time>2019-02-05T14:23:41Z</time>
      </trkpt>
      <trkpt lat="46.18678" lon="6.56845">
        <ele>1444.04</ele>
        <time>2019-02-05T14:23:44Z</time>
      </trkpt>
      <trkpt lat="46.18688" lon="6.56849">
        <ele>1443.56</ele>
        <time>2019-02-05T14:23:56Z</time>
      </trkpt>
      <trkpt lat="46.18693" lon="6.56848">
        <ele>1443.08</ele>
        <time>2019-02-05T14:24:01Z</time>
      </trkpt>
      <trkpt lat="46.18695" lon="6.56846">
        <ele>1442.6</ele>
        <time>2019-02-05T14:24:03Z</time>
      </trkpt>
      <trkpt lat="46.18706" lon="6.56839">
        <ele>1441.63</ele>
        <time>2019-02-05T14:24:16Z</time>
      </trkpt>
      <trkpt lat="46.18709" lon="6.56839">
        <ele>1442.11</ele>
        <time>2019-02-05T14:24:19Z</time>
      </trkpt>
      <trkpt lat="46.18719" lon="6.56836">
        <ele>1441.63</ele>
        <time>2019-02-05T14:24:30Z</time>
      </trkpt>
      <trkpt lat="46.1872" lon="6.56836">
        <ele>1441.15</ele>
        <time>2019-02-05T14:24:31Z</time>
      </trkpt>
      <trkpt lat="46.18729" lon="6.56834">
        <ele>1441.63</ele>
        <time>2019-02-05T14:24:40Z</time>
      </trkpt>
      <trkpt lat="46.18731" lon="6.56833">
        <ele>1441.63</ele>
        <time>2019-02-05T14:24:43Z</time>
      </trkpt>
      <trkpt lat="46.18735" lon="6.56833">
        <ele>1441.15</ele>
        <time>2019-02-05T14:24:47Z</time>
      </trkpt>
      <trkpt lat="46.18741" lon="6.56832">
        <ele>1443.08</ele>
        <time>2019-02-05T14:24:58Z</time>
      </trkpt>
      <trkpt lat="46.18753" lon="6.56832">
        <ele>1442.6</ele>
        <time>2019-02-05T14:25:12Z</time>
      </trkpt>
      <trkpt lat="46.18762" lon="6.56831">
        <ele>1441.15</ele>
        <time>2019-02-05T14:25:24Z</time>
      </trkpt>
      <trkpt lat="46.18769" lon="6.5683">
        <ele>1440.67</ele>
        <time>2019-02-05T14:25:34Z</time>
      </trkpt>
      <trkpt lat="46.1878" lon="6.56824">
        <ele>1439.71</ele>
        <time>2019-02-05T14:25:47Z</time>
      </trkpt>
      <trkpt lat="46.18786" lon="6.56823">
        <ele>1437.79</ele>
        <time>2019-02-05T14:25:58Z</time>
      </trkpt>
      <trkpt lat="46.18796" lon="6.56818">
        <ele>1435.87</ele>
        <time>2019-02-05T14:26:12Z</time>
      </trkpt>
      <trkpt lat="46.18802" lon="6.56817">
        <ele>1433.94</ele>
        <time>2019-02-05T14:26:16Z</time>
      </trkpt>
      <trkpt lat="46.18806" lon="6.56815">
        <ele>1433.46</ele>
        <time>2019-02-05T14:26:20Z</time>
      </trkpt>
      <trkpt lat="46.18807" lon="6.56816">
        <ele>1433.46</ele>
        <time>2019-02-05T14:26:22Z</time>
      </trkpt>
      <trkpt lat="46.18818" lon="6.56815">
        <ele>1432.5</ele>
        <time>2019-02-05T14:26:35Z</time>
      </trkpt>
      <trkpt lat="46.18824" lon="6.56815">
        <ele>1432.02</ele>
        <time>2019-02-05T14:26:41Z</time>
      </trkpt>
      <trkpt lat="46.18833" lon="6.56813">
        <ele>1430.58</ele>
        <time>2019-02-05T14:26:50Z</time>
      </trkpt>
      <trkpt lat="46.18835" lon="6.5681">
        <ele>1431.06</ele>
        <time>2019-02-05T14:27:00Z</time>
      </trkpt>
      <trkpt lat="46.18839" lon="6.5681">
        <ele>1431.54</ele>
        <time>2019-02-05T14:27:32Z</time>
      </trkpt>
      <trkpt lat="46.1885" lon="6.56802">
        <ele>1431.06</ele>
        <time>2019-02-05T14:27:44Z</time>
      </trkpt>
      <trkpt lat="46.18857" lon="6.56798">
        <ele>1428.66</ele>
        <time>2019-02-05T14:27:55Z</time>
      </trkpt>
      <trkpt lat="46.18857" lon="6.56796">
        <ele>1428.18</ele>
        <time>2019-02-05T14:27:57Z</time>
      </trkpt>
      <trkpt lat="46.1886" lon="6.5679">
        <ele>1426.73</ele>
        <time>2019-02-05T14:28:02Z</time>
      </trkpt>
      <trkpt lat="46.18862" lon="6.56775">
        <ele>1424.33</ele>
        <time>2019-02-05T14:28:14Z</time>
      </trkpt>
      <trkpt lat="46.18862" lon="6.56769">
        <ele>1420.97</ele>
        <time>2019-02-05T14:28:27Z</time>
      </trkpt>
      <trkpt lat="46.18865" lon="6.56764">
        <ele>1419.04</ele>
        <time>2019-02-05T14:28:36Z</time>
      </trkpt>
      <trkpt lat="46.18868" lon="6.56761">
        <ele>1418.08</ele>
        <time>2019-02-05T14:28:41Z</time>
      </trkpt>
      <trkpt lat="46.18877" lon="6.56751">
        <ele>1415.2</ele>
        <time>2019-02-05T14:28:52Z</time>
      </trkpt>
      <trkpt lat="46.18883" lon="6.56752">
        <ele>1412.31</ele>
        <time>2019-02-05T14:29:06Z</time>
      </trkpt>
      <trkpt lat="46.18888" lon="6.56751">
        <ele>1409.43</ele>
        <time>2019-02-05T14:29:17Z</time>
      </trkpt>
      <trkpt lat="46.18893" lon="6.56745">
        <ele>1406.55</ele>
        <time>2019-02-05T14:29:28Z</time>
      </trkpt>
      <trkpt lat="46.18896" lon="6.56739">
        <ele>1403.66</ele>
        <time>2019-02-05T14:29:39Z</time>
      </trkpt>
      <trkpt lat="46.18898" lon="6.56727">
        <ele>1401.26</ele>
        <time>2019-02-05T14:29:51Z</time>
      </trkpt>
      <trkpt lat="46.18898" lon="6.56716">
        <ele>1397.89</ele>
        <time>2019-02-05T14:30:05Z</time>
      </trkpt>
      <trkpt lat="46.189" lon="6.567">
        <ele>1395.01</ele>
        <time>2019-02-05T14:30:17Z</time>
      </trkpt>
      <trkpt lat="46.18904" lon="6.56697">
        <ele>1392.13</ele>
        <time>2019-02-05T14:30:29Z</time>
      </trkpt>
      <trkpt lat="46.18908" lon="6.56698">
        <ele>1390.68</ele>
        <time>2019-02-05T14:30:35Z</time>
      </trkpt>
      <trkpt lat="46.18913" lon="6.5669">
        <ele>1388.28</ele>
        <time>2019-02-05T14:30:46Z</time>
      </trkpt>
      <trkpt lat="46.18913" lon="6.56678">
        <ele>1384.44</ele>
        <time>2019-02-05T14:30:58Z</time>
      </trkpt>
      <trkpt lat="46.18916" lon="6.56676">
        <ele>1382.51</ele>
        <time>2019-02-05T14:31:08Z</time>
      </trkpt>
      <trkpt lat="46.18924" lon="6.56674">
        <ele>1379.63</ele>
        <time>2019-02-05T14:31:19Z</time>
      </trkpt>
      <trkpt lat="46.18928" lon="6.56668">
        <ele>1377.71</ele>
        <time>2019-02-05T14:31:26Z</time>
      </trkpt>
      <trkpt lat="46.18925" lon="6.56648">
        <ele>1375.3</ele>
        <time>2019-02-05T14:31:37Z</time>
      </trkpt>
      <trkpt lat="46.18925" lon="6.56641">
        <ele>1373.86</ele>
        <time>2019-02-05T14:31:41Z</time>
      </trkpt>
      <trkpt lat="46.18931" lon="6.56637">
        <ele>1371.94</ele>
        <time>2019-02-05T14:31:52Z</time>
      </trkpt>
      <trkpt lat="46.18936" lon="6.56632">
        <ele>1369.05</ele>
        <time>2019-02-05T14:32:02Z</time>
      </trkpt>
      <trkpt lat="46.18935" lon="6.56626">
        <ele>1368.57</ele>
        <time>2019-02-05T14:32:05Z</time>
      </trkpt>
      <trkpt lat="46.18932" lon="6.56616">
        <ele>1366.17</ele>
        <time>2019-02-05T14:32:15Z</time>
      </trkpt>
      <trkpt lat="46.18929" lon="6.56614">
        <ele>1365.69</ele>
        <time>2019-02-05T14:32:18Z</time>
      </trkpt>
      <trkpt lat="46.18921" lon="6.56606">
        <ele>1363.29</ele>
        <time>2019-02-05T14:32:30Z</time>
      </trkpt>
      <trkpt lat="46.1892" lon="6.56604">
        <ele>1361.36</ele>
        <time>2019-02-05T14:32:40Z</time>
      </trkpt>
      <trkpt lat="46.18917" lon="6.56601">
        <ele>1361.36</ele>
        <time>2019-02-05T14:32:52Z</time>
      </trkpt>
      <trkpt lat="46.18917" lon="6.56601">
        <ele>1360.88</ele>
        <time>2019-02-05T14:33:43Z</time>
      </trkpt>
      <trkpt lat="46.18922" lon="6.56597">
        <ele>1358</ele>
        <time>2019-02-05T14:33:55Z</time>
      </trkpt>
      <trkpt lat="46.18928" lon="6.56586">
        <ele>1355.6</ele>
        <time>2019-02-05T14:34:05Z</time>
      </trkpt>
      <trkpt lat="46.18928" lon="6.56586">
        <ele>1355.6</ele>
        <time>2019-02-05T14:34:06Z</time>
      </trkpt>
      <trkpt lat="46.18936" lon="6.56579">
        <ele>1352.71</ele>
        <time>2019-02-05T14:34:17Z</time>
      </trkpt>
      <trkpt lat="46.18944" lon="6.56575">
        <ele>1349.83</ele>
        <time>2019-02-05T14:34:29Z</time>
      </trkpt>
      <trkpt lat="46.18949" lon="6.56575">
        <ele>1346.94</ele>
        <time>2019-02-05T14:34:39Z</time>
      </trkpt>
      <trkpt lat="46.18961" lon="6.56572">
        <ele>1343.58</ele>
        <time>2019-02-05T14:34:50Z</time>
      </trkpt>
      <trkpt lat="46.18964" lon="6.56573">
        <ele>1342.14</ele>
        <time>2019-02-05T14:34:55Z</time>
      </trkpt>
      <trkpt lat="46.18973" lon="6.56571">
        <ele>1339.25</ele>
        <time>2019-02-05T14:35:07Z</time>
      </trkpt>
      <trkpt lat="46.18978" lon="6.56577">
        <ele>1336.85</ele>
        <time>2019-02-05T14:35:18Z</time>
      </trkpt>
      <trkpt lat="46.1898" lon="6.56579">
        <ele>1333.97</ele>
        <time>2019-02-05T14:35:27Z</time>
      </trkpt>
      <trkpt lat="46.18989" lon="6.5658">
        <ele>1330.6</ele>
        <time>2019-02-05T14:35:39Z</time>
      </trkpt>
      <trkpt lat="46.18989" lon="6.5658">
        <ele>1330.12</ele>
        <time>2019-02-05T14:35:40Z</time>
      </trkpt>
      <trkpt lat="46.1899" lon="6.56582">
        <ele>1329.64</ele>
        <time>2019-02-05T14:35:44Z</time>
      </trkpt>
      <trkpt lat="46.19001" lon="6.5658">
        <ele>1326.28</ele>
        <time>2019-02-05T14:35:56Z</time>
      </trkpt>
      <trkpt lat="46.19006" lon="6.56578">
        <ele>1324.35</ele>
        <time>2019-02-05T14:36:04Z</time>
      </trkpt>
      <trkpt lat="46.19009" lon="6.5658">
        <ele>1321.47</ele>
        <time>2019-02-05T14:36:17Z</time>
      </trkpt>
      <trkpt lat="46.19014" lon="6.56584">
        <ele>1320.03</ele>
        <time>2019-02-05T14:36:26Z</time>
      </trkpt>
      <trkpt lat="46.19026" lon="6.56577">
        <ele>1317.62</ele>
        <time>2019-02-05T14:36:36Z</time>
      </trkpt>
      <trkpt lat="46.1903" lon="6.56575">
        <ele>1316.66</ele>
        <time>2019-02-05T14:36:48Z</time>
      </trkpt>
      <trkpt lat="46.1903" lon="6.56578">
        <ele>1316.66</ele>
        <time>2019-02-05T14:37:24Z</time>
      </trkpt>
      <trkpt lat="46.1903" lon="6.56581">
        <ele>1317.14</ele>
        <time>2019-02-05T14:38:23Z</time>
      </trkpt>
      <trkpt lat="46.19032" lon="6.56581">
        <ele>1318.1</ele>
        <time>2019-02-05T14:39:06Z</time>
      </trkpt>
      <trkpt lat="46.19032" lon="6.56583">
        <ele>1318.59</ele>
        <time>2019-02-05T14:39:41Z</time>
      </trkpt>
      <trkpt lat="46.19032" lon="6.56583">
        <ele>1319.07</ele>
        <time>2019-02-05T14:40:12Z</time>
      </trkpt>
      <trkpt lat="46.19034" lon="6.56583">
        <ele>1319.07</ele>
        <time>2019-02-05T14:41:03Z</time>
      </trkpt>
      <trkpt lat="46.19034" lon="6.56583">
        <ele>1321.95</ele>
        <time>2019-02-05T14:41:15Z</time>
      </trkpt>
      <trkpt lat="46.19034" lon="6.56584">
        <ele>1321.47</ele>
        <time>2019-02-05T14:42:07Z</time>
      </trkpt>
      <trkpt lat="46.19035" lon="6.56586">
        <ele>1319.07</ele>
        <time>2019-02-05T14:42:35Z</time>
      </trkpt>
      <trkpt lat="46.1904" lon="6.56587">
        <ele>1317.14</ele>
        <time>2019-02-05T14:42:47Z</time>
      </trkpt>
      <trkpt lat="46.19045" lon="6.56589">
        <ele>1315.22</ele>
        <time>2019-02-05T14:42:58Z</time>
      </trkpt>
      <trkpt lat="46.1905" lon="6.56592">
        <ele>1311.86</ele>
        <time>2019-02-05T14:43:09Z</time>
      </trkpt>
      <trkpt lat="46.19055" lon="6.56592">
        <ele>1309.93</ele>
        <time>2019-02-05T14:43:18Z</time>
      </trkpt>
      <trkpt lat="46.1906" lon="6.56594">
        <ele>1306.57</ele>
        <time>2019-02-05T14:43:28Z</time>
      </trkpt>
      <trkpt lat="46.19065" lon="6.56598">
        <ele>1304.17</ele>
        <time>2019-02-05T14:43:39Z</time>
      </trkpt>
      <trkpt lat="46.19073" lon="6.56605">
        <ele>1301.28</ele>
        <time>2019-02-05T14:43:49Z</time>
      </trkpt>
      <trkpt lat="46.19077" lon="6.56603">
        <ele>1300.32</ele>
        <time>2019-02-05T14:43:58Z</time>
      </trkpt>
      <trkpt lat="46.19084" lon="6.56606">
        <ele>1296.96</ele>
        <time>2019-02-05T14:44:05Z</time>
      </trkpt>
      <trkpt lat="46.19091" lon="6.56604">
        <ele>1294.55</ele>
        <time>2019-02-05T14:44:15Z</time>
      </trkpt>
      <trkpt lat="46.19101" lon="6.56599">
        <ele>1291.19</ele>
        <time>2019-02-05T14:44:26Z</time>
      </trkpt>
      <trkpt lat="46.19104" lon="6.56596">
        <ele>1288.3</ele>
        <time>2019-02-05T14:44:35Z</time>
      </trkpt>
      <trkpt lat="46.19112" lon="6.56591">
        <ele>1285.9</ele>
        <time>2019-02-05T14:44:44Z</time>
      </trkpt>
      <trkpt lat="46.19124" lon="6.56591">
        <ele>1283.5</ele>
        <time>2019-02-05T14:44:54Z</time>
      </trkpt>
      <trkpt lat="46.19132" lon="6.56602">
        <ele>1282.06</ele>
        <time>2019-02-05T14:45:04Z</time>
      </trkpt>
      <trkpt lat="46.19133" lon="6.56603">
        <ele>1282.06</ele>
        <time>2019-02-05T14:45:05Z</time>
      </trkpt>
      <trkpt lat="46.19143" lon="6.56611">
        <ele>1281.09</ele>
        <time>2019-02-05T14:45:14Z</time>
      </trkpt>
      <trkpt lat="46.19146" lon="6.56615">
        <ele>1280.13</ele>
        <time>2019-02-05T14:45:17Z</time>
      </trkpt>
      <trkpt lat="46.19153" lon="6.56621">
        <ele>1279.65</ele>
        <time>2019-02-05T14:45:22Z</time>
      </trkpt>
      <trkpt lat="46.19153" lon="6.56627">
        <ele>1279.17</ele>
        <time>2019-02-05T14:45:25Z</time>
      </trkpt>
      <trkpt lat="46.19154" lon="6.5663">
        <ele>1278.69</ele>
        <time>2019-02-05T14:45:27Z</time>
      </trkpt>
      <trkpt lat="46.19154" lon="6.56636">
        <ele>1278.69</ele>
        <time>2019-02-05T14:45:30Z</time>
      </trkpt>
      <trkpt lat="46.19161" lon="6.56654">
        <ele>1276.77</ele>
        <time>2019-02-05T14:45:40Z</time>
      </trkpt>
      <trkpt lat="46.19166" lon="6.56668">
        <ele>1275.33</ele>
        <time>2019-02-05T14:45:51Z</time>
      </trkpt>
      <trkpt lat="46.19167" lon="6.56672">
        <ele>1275.33</ele>
        <time>2019-02-05T14:45:54Z</time>
      </trkpt>
      <trkpt lat="46.19172" lon="6.56678">
        <ele>1273.88</ele>
        <time>2019-02-05T14:46:00Z</time>
      </trkpt>
      <trkpt lat="46.19175" lon="6.56689">
        <ele>1272.92</ele>
        <time>2019-02-05T14:46:08Z</time>
      </trkpt>
      <trkpt lat="46.19176" lon="6.56696">
        <ele>1272.44</ele>
        <time>2019-02-05T14:46:13Z</time>
      </trkpt>
      <trkpt lat="46.19176" lon="6.56698">
        <ele>1272.44</ele>
        <time>2019-02-05T14:46:14Z</time>
      </trkpt>
      <trkpt lat="46.19183" lon="6.56707">
        <ele>1271</ele>
        <time>2019-02-05T14:46:23Z</time>
      </trkpt>
      <trkpt lat="46.19188" lon="6.56721">
        <ele>1270.52</ele>
        <time>2019-02-05T14:46:34Z</time>
      </trkpt>
      <trkpt lat="46.19193" lon="6.56724">
        <ele>1270.04</ele>
        <time>2019-02-05T14:46:40Z</time>
      </trkpt>
      <trkpt lat="46.19196" lon="6.56725">
        <ele>1269.56</ele>
        <time>2019-02-05T14:46:44Z</time>
      </trkpt>
      <trkpt lat="46.19198" lon="6.56725">
        <ele>1269.56</ele>
        <time>2019-02-05T14:46:46Z</time>
      </trkpt>
      <trkpt lat="46.192" lon="6.56724">
        <ele>1268.6</ele>
        <time>2019-02-05T14:46:50Z</time>
      </trkpt>
      <trkpt lat="46.19225" lon="6.56685">
        <ele>1268.6</ele>
        <time>2019-02-05T14:47:00Z</time>
      </trkpt>
      <trkpt lat="46.1923" lon="6.56685">
        <ele>1269.08</ele>
        <time>2019-02-05T14:47:08Z</time>
      </trkpt>
      <trkpt lat="46.19234" lon="6.56683">
        <ele>1268.6</ele>
        <time>2019-02-05T14:47:14Z</time>
      </trkpt>
      <trkpt lat="46.19246" lon="6.56681">
        <ele>1267.16</ele>
        <time>2019-02-05T14:47:25Z</time>
      </trkpt>
      <trkpt lat="46.1926" lon="6.56681">
        <ele>1266.67</ele>
        <time>2019-02-05T14:47:38Z</time>
      </trkpt>
      <trkpt lat="46.19266" lon="6.56675">
        <ele>1265.23</ele>
        <time>2019-02-05T14:47:52Z</time>
      </trkpt>
      <trkpt lat="46.19274" lon="6.56674">
        <ele>1263.31</ele>
        <time>2019-02-05T14:48:06Z</time>
      </trkpt>
      <trkpt lat="46.19282" lon="6.56679">
        <ele>1263.79</ele>
        <time>2019-02-05T14:48:27Z</time>
      </trkpt>
      <trkpt lat="46.19281" lon="6.56671">
        <ele>1262.35</ele>
        <time>2019-02-05T14:49:06Z</time>
      </trkpt>
      <trkpt lat="46.19284" lon="6.56664">
        <ele>1260.91</ele>
        <time>2019-02-05T14:49:13Z</time>
      </trkpt>
      <trkpt lat="46.19286" lon="6.56666">
        <ele>1260.43</ele>
        <time>2019-02-05T14:49:30Z</time>
      </trkpt>
      <trkpt lat="46.1929" lon="6.56662">
        <ele>1260.43</ele>
        <time>2019-02-05T14:50:34Z</time>
      </trkpt>
      <trkpt lat="46.19294" lon="6.5666">
        <ele>1259.94</ele>
        <time>2019-02-05T14:50:39Z</time>
      </trkpt>
      <trkpt lat="46.19298" lon="6.56657">
        <ele>1259.46</ele>
        <time>2019-02-05T14:50:42Z</time>
      </trkpt>
      <trkpt lat="46.19306" lon="6.56659">
        <ele>1258.5</ele>
        <time>2019-02-05T14:50:54Z</time>
      </trkpt>
      <trkpt lat="46.19315" lon="6.56663">
        <ele>1257.06</ele>
        <time>2019-02-05T14:51:05Z</time>
      </trkpt>
      <trkpt lat="46.19318" lon="6.56666">
        <ele>1256.58</ele>
        <time>2019-02-05T14:51:09Z</time>
      </trkpt>
      <trkpt lat="46.19321" lon="6.56668">
        <ele>1255.62</ele>
        <time>2019-02-05T14:51:13Z</time>
      </trkpt>
      <trkpt lat="46.19327" lon="6.56673">
        <ele>1254.66</ele>
        <time>2019-02-05T14:51:23Z</time>
      </trkpt>
      <trkpt lat="46.19335" lon="6.56674">
        <ele>1253.7</ele>
        <time>2019-02-05T14:51:33Z</time>
      </trkpt>
      <trkpt lat="46.19346" lon="6.56673">
        <ele>1252.74</ele>
        <time>2019-02-05T14:51:43Z</time>
      </trkpt>
      <trkpt lat="46.19362" lon="6.56669">
        <ele>1250.81</ele>
        <time>2019-02-05T14:51:56Z</time>
      </trkpt>
      <trkpt lat="46.19374" lon="6.56668">
        <ele>1249.37</ele>
        <time>2019-02-05T14:52:08Z</time>
      </trkpt>
      <trkpt lat="46.19384" lon="6.56677">
        <ele>1248.41</ele>
        <time>2019-02-05T14:52:20Z</time>
      </trkpt>
      <trkpt lat="46.19393" lon="6.56683">
        <ele>1247.45</ele>
        <time>2019-02-05T14:52:31Z</time>
      </trkpt>
      <trkpt lat="46.19407" lon="6.56692">
        <ele>1246.01</ele>
        <time>2019-02-05T14:52:44Z</time>
      </trkpt>
      <trkpt lat="46.19416" lon="6.56694">
        <ele>1245.04</ele>
        <time>2019-02-05T14:52:55Z</time>
      </trkpt>
      <trkpt lat="46.19427" lon="6.56699">
        <ele>1243.6</ele>
        <time>2019-02-05T14:53:07Z</time>
      </trkpt>
      <trkpt lat="46.19436" lon="6.56702">
        <ele>1242.64</ele>
        <time>2019-02-05T14:53:15Z</time>
      </trkpt>
      <trkpt lat="46.19442" lon="6.56706">
        <ele>1243.6</ele>
        <time>2019-02-05T14:53:22Z</time>
      </trkpt>
      <trkpt lat="46.19448" lon="6.56714">
        <ele>1242.64</ele>
        <time>2019-02-05T14:53:32Z</time>
      </trkpt>
      <trkpt lat="46.19451" lon="6.56717">
        <ele>1243.12</ele>
        <time>2019-02-05T14:53:35Z</time>
      </trkpt>
      <trkpt lat="46.19451" lon="6.56721">
        <ele>1242.64</ele>
        <time>2019-02-05T14:53:38Z</time>
      </trkpt>
      <trkpt lat="46.19457" lon="6.56724">
        <ele>1241.68</ele>
        <time>2019-02-05T14:53:46Z</time>
      </trkpt>
      <trkpt lat="46.19459" lon="6.56726">
        <ele>1241.68</ele>
        <time>2019-02-05T14:53:48Z</time>
      </trkpt>
      <trkpt lat="46.19464" lon="6.5673">
        <ele>1241.68</ele>
        <time>2019-02-05T14:54:01Z</time>
      </trkpt>
      <trkpt lat="46.19466" lon="6.56733">
        <ele>1241.68</ele>
        <time>2019-02-05T14:54:03Z</time>
      </trkpt>
      <trkpt lat="46.19472" lon="6.56739">
        <ele>1241.2</ele>
        <time>2019-02-05T14:54:07Z</time>
      </trkpt>
      <trkpt lat="46.19482" lon="6.56745">
        <ele>1239.76</ele>
        <time>2019-02-05T14:54:17Z</time>
      </trkpt>
      <trkpt lat="46.19491" lon="6.56751">
        <ele>1240.24</ele>
        <time>2019-02-05T14:54:27Z</time>
      </trkpt>
      <trkpt lat="46.19495" lon="6.56754">
        <ele>1241.2</ele>
        <time>2019-02-05T14:54:31Z</time>
      </trkpt>
      <trkpt lat="46.19499" lon="6.56762">
        <ele>1240.24</ele>
        <time>2019-02-05T14:54:37Z</time>
      </trkpt>
      <trkpt lat="46.19512" lon="6.56768">
        <ele>1239.76</ele>
        <time>2019-02-05T14:54:50Z</time>
      </trkpt>
      <trkpt lat="46.19517" lon="6.56771">
        <ele>1239.28</ele>
        <time>2019-02-05T14:54:54Z</time>
      </trkpt>
      <trkpt lat="46.1952" lon="6.56773">
        <ele>1238.8</ele>
        <time>2019-02-05T14:54:56Z</time>
      </trkpt>
      <trkpt lat="46.19522" lon="6.5678">
        <ele>1238.32</ele>
        <time>2019-02-05T14:55:03Z</time>
      </trkpt>
      <trkpt lat="46.1953" lon="6.5679">
        <ele>1237.35</ele>
        <time>2019-02-05T14:55:14Z</time>
      </trkpt>
      <trkpt lat="46.19531" lon="6.5679">
        <ele>1237.35</ele>
        <time>2019-02-05T14:55:15Z</time>
      </trkpt>
      <trkpt lat="46.19533" lon="6.56791">
        <ele>1236.87</ele>
        <time>2019-02-05T14:55:17Z</time>
      </trkpt>
      <trkpt lat="46.19541" lon="6.56802">
        <ele>1236.39</ele>
        <time>2019-02-05T14:55:29Z</time>
      </trkpt>
      <trkpt lat="46.19548" lon="6.56811">
        <ele>1235.43</ele>
        <time>2019-02-05T14:55:37Z</time>
      </trkpt>
      <trkpt lat="46.19556" lon="6.56818">
        <ele>1234.47</ele>
        <time>2019-02-05T14:55:47Z</time>
      </trkpt>
      <trkpt lat="46.19566" lon="6.56828">
        <ele>1233.99</ele>
        <time>2019-02-05T14:56:00Z</time>
      </trkpt>
      <trkpt lat="46.19574" lon="6.56838">
        <ele>1232.07</ele>
        <time>2019-02-05T14:56:13Z</time>
      </trkpt>
      <trkpt lat="46.19577" lon="6.56841">
        <ele>1232.07</ele>
        <time>2019-02-05T14:56:18Z</time>
      </trkpt>
      <trkpt lat="46.19585" lon="6.5685">
        <ele>1230.14</ele>
        <time>2019-02-05T14:56:30Z</time>
      </trkpt>
      <trkpt lat="46.19592" lon="6.56855">
        <ele>1229.18</ele>
        <time>2019-02-05T14:56:37Z</time>
      </trkpt>
      <trkpt lat="46.196" lon="6.56861">
        <ele>1227.74</ele>
        <time>2019-02-05T14:56:45Z</time>
      </trkpt>
      <trkpt lat="46.19602" lon="6.56863">
        <ele>1227.26</ele>
        <time>2019-02-05T14:56:48Z</time>
      </trkpt>
      <trkpt lat="46.19612" lon="6.56869">
        <ele>1226.3</ele>
        <time>2019-02-05T14:56:58Z</time>
      </trkpt>
      <trkpt lat="46.19614" lon="6.5687">
        <ele>1226.3</ele>
        <time>2019-02-05T14:57:00Z</time>
      </trkpt>
      <trkpt lat="46.19625" lon="6.56881">
        <ele>1224.38</ele>
        <time>2019-02-05T14:57:13Z</time>
      </trkpt>
      <trkpt lat="46.19627" lon="6.56885">
        <ele>1224.86</ele>
        <time>2019-02-05T14:57:16Z</time>
      </trkpt>
      <trkpt lat="46.1964" lon="6.5689">
        <ele>1224.86</ele>
        <time>2019-02-05T14:57:27Z</time>
      </trkpt>
      <trkpt lat="46.19645" lon="6.56893">
        <ele>1225.34</ele>
        <time>2019-02-05T14:57:33Z</time>
      </trkpt>
      <trkpt lat="46.19648" lon="6.56895">
        <ele>1225.34</ele>
        <time>2019-02-05T14:57:37Z</time>
      </trkpt>
      <trkpt lat="46.19653" lon="6.56899">
        <ele>1224.86</ele>
        <time>2019-02-05T14:57:45Z</time>
      </trkpt>
      <trkpt lat="46.1966" lon="6.56909">
        <ele>1224.38</ele>
        <time>2019-02-05T14:57:56Z</time>
      </trkpt>
      <trkpt lat="46.19663" lon="6.56908">
        <ele>1224.38</ele>
        <time>2019-02-05T14:57:59Z</time>
      </trkpt>
      <trkpt lat="46.19673" lon="6.5691">
        <ele>1223.9</ele>
        <time>2019-02-05T14:58:11Z</time>
      </trkpt>
      <trkpt lat="46.1968" lon="6.56911">
        <ele>1222.45</ele>
        <time>2019-02-05T14:58:21Z</time>
      </trkpt>
      <trkpt lat="46.19684" lon="6.56913">
        <ele>1221.49</ele>
        <time>2019-02-05T14:58:26Z</time>
      </trkpt>
      <trkpt lat="46.19688" lon="6.56915">
        <ele>1220.53</ele>
        <time>2019-02-05T14:58:30Z</time>
      </trkpt>
      <trkpt lat="46.19699" lon="6.56923">
        <ele>1218.13</ele>
        <time>2019-02-05T14:58:42Z</time>
      </trkpt>
      <trkpt lat="46.1971" lon="6.56933">
        <ele>1216.21</ele>
        <time>2019-02-05T14:58:54Z</time>
      </trkpt>
      <trkpt lat="46.19717" lon="6.56933">
        <ele>1215.24</ele>
        <time>2019-02-05T14:59:00Z</time>
      </trkpt>
      <trkpt lat="46.19723" lon="6.56936">
        <ele>1214.28</ele>
        <time>2019-02-05T14:59:05Z</time>
      </trkpt>
      <trkpt lat="46.19736" lon="6.56944">
        <ele>1213.32</ele>
        <time>2019-02-05T14:59:17Z</time>
      </trkpt>
      <trkpt lat="46.19739" lon="6.56947">
        <ele>1213.32</ele>
        <time>2019-02-05T14:59:20Z</time>
      </trkpt>
      <trkpt lat="46.19746" lon="6.56947">
        <ele>1211.88</ele>
        <time>2019-02-05T14:59:27Z</time>
      </trkpt>
      <trkpt lat="46.19753" lon="6.56949">
        <ele>1210.92</ele>
        <time>2019-02-05T14:59:33Z</time>
      </trkpt>
      <trkpt lat="46.19766" lon="6.56949">
        <ele>1209.48</ele>
        <time>2019-02-05T14:59:47Z</time>
      </trkpt>
      <trkpt lat="46.19775" lon="6.56954">
        <ele>1209</ele>
        <time>2019-02-05T15:00:00Z</time>
      </trkpt>
      <trkpt lat="46.19782" lon="6.56956">
        <ele>1209</ele>
        <time>2019-02-05T15:00:07Z</time>
      </trkpt>
      <trkpt lat="46.19785" lon="6.56957">
        <ele>1208.51</ele>
        <time>2019-02-05T15:00:18Z</time>
      </trkpt>
      <trkpt lat="46.19791" lon="6.56958">
        <ele>1207.55</ele>
        <time>2019-02-05T15:00:33Z</time>
      </trkpt>
      <trkpt lat="46.19796" lon="6.56957">
        <ele>1206.11</ele>
        <time>2019-02-05T15:00:41Z</time>
      </trkpt>
      <trkpt lat="46.19802" lon="6.56957">
        <ele>1205.63</ele>
        <time>2019-02-05T15:00:46Z</time>
      </trkpt>
      <trkpt lat="46.1981" lon="6.56958">
        <ele>1205.63</ele>
        <time>2019-02-05T15:00:53Z</time>
      </trkpt>
      <trkpt lat="46.19816" lon="6.56965">
        <ele>1205.15</ele>
        <time>2019-02-05T15:00:59Z</time>
      </trkpt>
      <trkpt lat="46.19818" lon="6.56968">
        <ele>1205.15</ele>
        <time>2019-02-05T15:01:01Z</time>
      </trkpt>
      <trkpt lat="46.19819" lon="6.56971">
        <ele>1205.63</ele>
        <time>2019-02-05T15:01:03Z</time>
      </trkpt>
      <trkpt lat="46.19828" lon="6.56975">
        <ele>1205.63</ele>
        <time>2019-02-05T15:01:10Z</time>
      </trkpt>
      <trkpt lat="46.19837" lon="6.56982">
        <ele>1205.63</ele>
        <time>2019-02-05T15:01:20Z</time>
      </trkpt>
      <trkpt lat="46.19845" lon="6.56985">
        <ele>1204.67</ele>
        <time>2019-02-05T15:01:30Z</time>
      </trkpt>
      <trkpt lat="46.19851" lon="6.56983">
        <ele>1204.19</ele>
        <time>2019-02-05T15:01:33Z</time>
      </trkpt>
      <trkpt lat="46.19857" lon="6.56983">
        <ele>1204.19</ele>
        <time>2019-02-05T15:01:38Z</time>
      </trkpt>
      <trkpt lat="46.19871" lon="6.56985">
        <ele>1202.75</ele>
        <time>2019-02-05T15:01:51Z</time>
      </trkpt>
      <trkpt lat="46.19879" lon="6.56988">
        <ele>1201.79</ele>
        <time>2019-02-05T15:02:00Z</time>
      </trkpt>
      <trkpt lat="46.19882" lon="6.56988">
        <ele>1201.79</ele>
        <time>2019-02-05T15:02:02Z</time>
      </trkpt>
      <trkpt lat="46.19896" lon="6.56992">
        <ele>1199.86</ele>
        <time>2019-02-05T15:02:15Z</time>
      </trkpt>
      <trkpt lat="46.19902" lon="6.56992">
        <ele>1198.9</ele>
        <time>2019-02-05T15:02:21Z</time>
      </trkpt>
      <trkpt lat="46.19904" lon="6.56992">
        <ele>1198.42</ele>
        <time>2019-02-05T15:02:23Z</time>
      </trkpt>
      <trkpt lat="46.19915" lon="6.56997">
        <ele>1198.42</ele>
        <time>2019-02-05T15:02:34Z</time>
      </trkpt>
      <trkpt lat="46.19918" lon="6.56999">
        <ele>1198.9</ele>
        <time>2019-02-05T15:02:37Z</time>
      </trkpt>
      <trkpt lat="46.19922" lon="6.57003">
        <ele>1198.9</ele>
        <time>2019-02-05T15:02:43Z</time>
      </trkpt>
      <trkpt lat="46.19925" lon="6.57006">
        <ele>1199.38</ele>
        <time>2019-02-05T15:02:47Z</time>
      </trkpt>
      <trkpt lat="46.19936" lon="6.57018">
        <ele>1198.9</ele>
        <time>2019-02-05T15:03:00Z</time>
      </trkpt>
      <trkpt lat="46.19937" lon="6.57018">
        <ele>1198.9</ele>
        <time>2019-02-05T15:03:01Z</time>
      </trkpt>
      <trkpt lat="46.19949" lon="6.57027">
        <ele>1198.9</ele>
        <time>2019-02-05T15:03:12Z</time>
      </trkpt>
      <trkpt lat="46.1995" lon="6.57028">
        <ele>1198.42</ele>
        <time>2019-02-05T15:03:13Z</time>
      </trkpt>
      <trkpt lat="46.19954" lon="6.57031">
        <ele>1197.94</ele>
        <time>2019-02-05T15:03:19Z</time>
      </trkpt>
      <trkpt lat="46.19962" lon="6.57043">
        <ele>1198.42</ele>
        <time>2019-02-05T15:03:31Z</time>
      </trkpt>
      <trkpt lat="46.1997" lon="6.57051">
        <ele>1197.46</ele>
        <time>2019-02-05T15:03:42Z</time>
      </trkpt>
      <trkpt lat="46.19974" lon="6.57052">
        <ele>1197.46</ele>
        <time>2019-02-05T15:03:46Z</time>
      </trkpt>
      <trkpt lat="46.19978" lon="6.57055">
        <ele>1196.98</ele>
        <time>2019-02-05T15:03:51Z</time>
      </trkpt>
      <trkpt lat="46.19991" lon="6.57061">
        <ele>1196.02</ele>
        <time>2019-02-05T15:04:04Z</time>
      </trkpt>
      <trkpt lat="46.20002" lon="6.57064">
        <ele>1194.58</ele>
        <time>2019-02-05T15:04:16Z</time>
      </trkpt>
      <trkpt lat="46.20013" lon="6.5707">
        <ele>1194.09</ele>
        <time>2019-02-05T15:04:28Z</time>
      </trkpt>
      <trkpt lat="46.20017" lon="6.57073">
        <ele>1193.61</ele>
        <time>2019-02-05T15:04:33Z</time>
      </trkpt>
      <trkpt lat="46.20026" lon="6.5708">
        <ele>1192.65</ele>
        <time>2019-02-05T15:04:43Z</time>
      </trkpt>
      <trkpt lat="46.20032" lon="6.57082">
        <ele>1192.17</ele>
        <time>2019-02-05T15:04:48Z</time>
      </trkpt>
      <trkpt lat="46.2004" lon="6.57084">
        <ele>1192.17</ele>
        <time>2019-02-05T15:04:57Z</time>
      </trkpt>
      <trkpt lat="46.20043" lon="6.57088">
        <ele>1191.21</ele>
        <time>2019-02-05T15:05:03Z</time>
      </trkpt>
      <trkpt lat="46.20054" lon="6.57094">
        <ele>1189.29</ele>
        <time>2019-02-05T15:05:15Z</time>
      </trkpt>
      <trkpt lat="46.20066" lon="6.57093">
        <ele>1187.85</ele>
        <time>2019-02-05T15:05:28Z</time>
      </trkpt>
      <trkpt lat="46.20073" lon="6.57088">
        <ele>1186.88</ele>
        <time>2019-02-05T15:05:40Z</time>
      </trkpt>
      <trkpt lat="46.20078" lon="6.57089">
        <ele>1184</ele>
        <time>2019-02-05T15:05:52Z</time>
      </trkpt>
      <trkpt lat="46.20081" lon="6.57087">
        <ele>1184.48</ele>
        <time>2019-02-05T15:05:56Z</time>
      </trkpt>
      <trkpt lat="46.20082" lon="6.57087">
        <ele>1184.48</ele>
        <time>2019-02-05T15:05:57Z</time>
      </trkpt>
      <trkpt lat="46.20092" lon="6.5708">
        <ele>1183.52</ele>
        <time>2019-02-05T15:06:09Z</time>
      </trkpt>
      <trkpt lat="46.20091" lon="6.57082">
        <ele>1184</ele>
        <time>2019-02-05T15:06:29Z</time>
      </trkpt>
      <trkpt lat="46.20091" lon="6.57079">
        <ele>1184</ele>
        <time>2019-02-05T15:06:59Z</time>
      </trkpt>
      <trkpt lat="46.20091" lon="6.57079">
        <ele>1184</ele>
        <time>2019-02-05T15:07:41Z</time>
      </trkpt>
      <trkpt lat="46.2009" lon="6.57079">
        <ele>1184.48</ele>
        <time>2019-02-05T15:08:13Z</time>
      </trkpt>
      <trkpt lat="46.20089" lon="6.57078">
        <ele>1184</ele>
        <time>2019-02-05T15:08:15Z</time>
      </trkpt>
      <trkpt lat="46.20089" lon="6.5708">
        <ele>1184</ele>
        <time>2019-02-05T15:08:28Z</time>
      </trkpt>
      <trkpt lat="46.20089" lon="6.57081">
        <ele>1184.48</ele>
        <time>2019-02-05T15:08:43Z</time>
      </trkpt>
      <trkpt lat="46.20089" lon="6.5708">
        <ele>1184</ele>
        <time>2019-02-05T15:09:48Z</time>
      </trkpt>
      <trkpt lat="46.20089" lon="6.5708">
        <ele>1184.48</ele>
        <time>2019-02-05T15:10:13Z</time>
      </trkpt>
      <trkpt lat="46.20089" lon="6.5708">
        <ele>1184</ele>
        <time>2019-02-05T15:10:48Z</time>
      </trkpt>
      <trkpt lat="46.20089" lon="6.57079">
        <ele>1184</ele>
        <time>2019-02-05T15:12:02Z</time>
      </trkpt>
      <trkpt lat="46.20091" lon="6.57079">
        <ele>1184.48</ele>
        <time>2019-02-05T15:13:06Z</time>
      </trkpt>
      <trkpt lat="46.20091" lon="6.57079">
        <ele>1184.96</ele>
        <time>2019-02-05T15:14:18Z</time>
      </trkpt>
      <trkpt lat="46.20092" lon="6.5708">
        <ele>1184</ele>
        <time>2019-02-05T15:15:07Z</time>
      </trkpt>
      <trkpt lat="46.20099" lon="6.57079">
        <ele>1184</ele>
        <time>2019-02-05T15:15:31Z</time>
      </trkpt>
      <trkpt lat="46.20106" lon="6.57081">
        <ele>1183.52</ele>
        <time>2019-02-05T15:15:38Z</time>
      </trkpt>
      <trkpt lat="46.20118" lon="6.57083">
        <ele>1183.52</ele>
        <time>2019-02-05T15:15:50Z</time>
      </trkpt>
      <trkpt lat="46.20128" lon="6.57084">
        <ele>1182.56</ele>
        <time>2019-02-05T15:16:00Z</time>
      </trkpt>
      <trkpt lat="46.20137" lon="6.57087">
        <ele>1181.6</ele>
        <time>2019-02-05T15:16:09Z</time>
      </trkpt>
      <trkpt lat="46.20148" lon="6.57088">
        <ele>1181.6</ele>
        <time>2019-02-05T15:16:18Z</time>
      </trkpt>
      <trkpt lat="46.20161" lon="6.57091">
        <ele>1181.12</ele>
        <time>2019-02-05T15:16:29Z</time>
      </trkpt>
      <trkpt lat="46.20173" lon="6.57097">
        <ele>1180.16</ele>
        <time>2019-02-05T15:16:41Z</time>
      </trkpt>
      <trkpt lat="46.20185" lon="6.57101">
        <ele>1179.67</ele>
        <time>2019-02-05T15:16:51Z</time>
      </trkpt>
      <trkpt lat="46.20188" lon="6.57102">
        <ele>1179.67</ele>
        <time>2019-02-05T15:16:54Z</time>
      </trkpt>
      <trkpt lat="46.20193" lon="6.57103">
        <ele>1179.67</ele>
        <time>2019-02-05T15:16:58Z</time>
      </trkpt>
      <trkpt lat="46.20206" lon="6.57107">
        <ele>1179.19</ele>
        <time>2019-02-05T15:17:10Z</time>
      </trkpt>
      <trkpt lat="46.20217" lon="6.57111">
        <ele>1178.23</ele>
        <time>2019-02-05T15:17:21Z</time>
      </trkpt>
      <trkpt lat="46.20226" lon="6.57116">
        <ele>1179.19</ele>
        <time>2019-02-05T15:17:30Z</time>
      </trkpt>
      <trkpt lat="46.20243" lon="6.5712">
        <ele>1178.71</ele>
        <time>2019-02-05T15:17:44Z</time>
      </trkpt>
      <trkpt lat="46.20253" lon="6.57124">
        <ele>1178.71</ele>
        <time>2019-02-05T15:17:54Z</time>
      </trkpt>
      <trkpt lat="46.20262" lon="6.57129">
        <ele>1178.71</ele>
        <time>2019-02-05T15:18:03Z</time>
      </trkpt>
      <trkpt lat="46.20264" lon="6.5713">
        <ele>1178.23</ele>
        <time>2019-02-05T15:18:05Z</time>
      </trkpt>
      <trkpt lat="46.20273" lon="6.57133">
        <ele>1177.75</ele>
        <time>2019-02-05T15:18:12Z</time>
      </trkpt>
      <trkpt lat="46.20287" lon="6.57138">
        <ele>1177.75</ele>
        <time>2019-02-05T15:18:26Z</time>
      </trkpt>
      <trkpt lat="46.20298" lon="6.57144">
        <ele>1177.27</ele>
        <time>2019-02-05T15:18:36Z</time>
      </trkpt>
      <trkpt lat="46.203" lon="6.57144">
        <ele>1177.27</ele>
        <time>2019-02-05T15:18:38Z</time>
      </trkpt>
      <trkpt lat="46.20302" lon="6.57145">
        <ele>1177.75</ele>
        <time>2019-02-05T15:18:40Z</time>
      </trkpt>
      <trkpt lat="46.20304" lon="6.57145">
        <ele>1176.79</ele>
        <time>2019-02-05T15:18:42Z</time>
      </trkpt>
      <trkpt lat="46.20306" lon="6.57146">
        <ele>1177.27</ele>
        <time>2019-02-05T15:18:44Z</time>
      </trkpt>
      <trkpt lat="46.20308" lon="6.57147">
        <ele>1177.27</ele>
        <time>2019-02-05T15:18:46Z</time>
      </trkpt>
      <trkpt lat="46.20311" lon="6.57147">
        <ele>1176.79</ele>
        <time>2019-02-05T15:18:48Z</time>
      </trkpt>
      <trkpt lat="46.20317" lon="6.5715">
        <ele>1177.27</ele>
        <time>2019-02-05T15:18:54Z</time>
      </trkpt>
      <trkpt lat="46.20319" lon="6.57152">
        <ele>1176.79</ele>
        <time>2019-02-05T15:18:56Z</time>
      </trkpt>
      <trkpt lat="46.20325" lon="6.57155">
        <ele>1176.31</ele>
        <time>2019-02-05T15:19:03Z</time>
      </trkpt>
      <trkpt lat="46.20327" lon="6.57156">
        <ele>1176.79</ele>
        <time>2019-02-05T15:19:05Z</time>
      </trkpt>
      <trkpt lat="46.2034" lon="6.5716">
        <ele>1175.83</ele>
        <time>2019-02-05T15:19:17Z</time>
      </trkpt>
      <trkpt lat="46.20348" lon="6.57164">
        <ele>1175.35</ele>
        <time>2019-02-05T15:19:24Z</time>
      </trkpt>
      <trkpt lat="46.20354" lon="6.57168">
        <ele>1175.35</ele>
        <time>2019-02-05T15:19:30Z</time>
      </trkpt>
      <trkpt lat="46.20369" lon="6.57183">
        <ele>1174.87</ele>
        <time>2019-02-05T15:19:45Z</time>
      </trkpt>
      <trkpt lat="46.20374" lon="6.57188">
        <ele>1173.91</ele>
        <time>2019-02-05T15:19:50Z</time>
      </trkpt>
      <trkpt lat="46.20381" lon="6.57197">
        <ele>1173.43</ele>
        <time>2019-02-05T15:19:58Z</time>
      </trkpt>
      <trkpt lat="46.20384" lon="6.57202">
        <ele>1172.95</ele>
        <time>2019-02-05T15:20:02Z</time>
      </trkpt>
      <trkpt lat="46.20388" lon="6.5721">
        <ele>1172.47</ele>
        <time>2019-02-05T15:20:08Z</time>
      </trkpt>
      <trkpt lat="46.20393" lon="6.5722">
        <ele>1172.47</ele>
        <time>2019-02-05T15:20:15Z</time>
      </trkpt>
      <trkpt lat="46.20396" lon="6.57222">
        <ele>1171.98</ele>
        <time>2019-02-05T15:20:18Z</time>
      </trkpt>
      <trkpt lat="46.20401" lon="6.57236">
        <ele>1171.5</ele>
        <time>2019-02-05T15:20:27Z</time>
      </trkpt>
      <trkpt lat="46.20407" lon="6.57248">
        <ele>1170.54</ele>
        <time>2019-02-05T15:20:35Z</time>
      </trkpt>
      <trkpt lat="46.20409" lon="6.57252">
        <ele>1170.54</ele>
        <time>2019-02-05T15:20:38Z</time>
      </trkpt>
      <trkpt lat="46.20415" lon="6.57257">
        <ele>1170.06</ele>
        <time>2019-02-05T15:20:43Z</time>
      </trkpt>
      <trkpt lat="46.20415" lon="6.5726">
        <ele>1170.06</ele>
        <time>2019-02-05T15:20:45Z</time>
      </trkpt>
      <trkpt lat="46.20418" lon="6.57264">
        <ele>1169.1</ele>
        <time>2019-02-05T15:20:48Z</time>
      </trkpt>
      <trkpt lat="46.20428" lon="6.57272">
        <ele>1169.58</ele>
        <time>2019-02-05T15:21:00Z</time>
      </trkpt>
      <trkpt lat="46.20432" lon="6.57282">
        <ele>1168.62</ele>
        <time>2019-02-05T15:21:07Z</time>
      </trkpt>
      <trkpt lat="46.20444" lon="6.57292">
        <ele>1167.66</ele>
        <time>2019-02-05T15:21:18Z</time>
      </trkpt>
      <trkpt lat="46.20449" lon="6.57293">
        <ele>1167.66</ele>
        <time>2019-02-05T15:21:21Z</time>
      </trkpt>
      <trkpt lat="46.20462" lon="6.57297">
        <ele>1167.66</ele>
        <time>2019-02-05T15:21:31Z</time>
      </trkpt>
      <trkpt lat="46.20469" lon="6.57304">
        <ele>1167.18</ele>
        <time>2019-02-05T15:21:37Z</time>
      </trkpt>
      <trkpt lat="46.20477" lon="6.57314">
        <ele>1166.22</ele>
        <time>2019-02-05T15:21:45Z</time>
      </trkpt>
      <trkpt lat="46.20485" lon="6.57321">
        <ele>1166.7</ele>
        <time>2019-02-05T15:21:53Z</time>
      </trkpt>
      <trkpt lat="46.20489" lon="6.57324">
        <ele>1165.74</ele>
        <time>2019-02-05T15:21:58Z</time>
      </trkpt>
      <trkpt lat="46.20492" lon="6.57328">
        <ele>1165.74</ele>
        <time>2019-02-05T15:22:02Z</time>
      </trkpt>
      <trkpt lat="46.20495" lon="6.57331">
        <ele>1165.74</ele>
        <time>2019-02-05T15:22:05Z</time>
      </trkpt>
      <trkpt lat="46.20504" lon="6.5734">
        <ele>1165.26</ele>
        <time>2019-02-05T15:22:15Z</time>
      </trkpt>
      <trkpt lat="46.20509" lon="6.57342">
        <ele>1164.77</ele>
        <time>2019-02-05T15:22:19Z</time>
      </trkpt>
      <trkpt lat="46.20515" lon="6.57345">
        <ele>1164.29</ele>
        <time>2019-02-05T15:22:25Z</time>
      </trkpt>
      <trkpt lat="46.20521" lon="6.57351">
        <ele>1163.81</ele>
        <time>2019-02-05T15:22:31Z</time>
      </trkpt>
      <trkpt lat="46.20522" lon="6.57353">
        <ele>1164.29</ele>
        <time>2019-02-05T15:22:33Z</time>
      </trkpt>
      <trkpt lat="46.20529" lon="6.57357">
        <ele>1164.29</ele>
        <time>2019-02-05T15:22:39Z</time>
      </trkpt>
      <trkpt lat="46.2054" lon="6.57371">
        <ele>1162.37</ele>
        <time>2019-02-05T15:22:52Z</time>
      </trkpt>
      <trkpt lat="46.20541" lon="6.57372">
        <ele>1162.85</ele>
        <time>2019-02-05T15:22:53Z</time>
      </trkpt>
      <trkpt lat="46.20554" lon="6.57378">
        <ele>1161.89</ele>
        <time>2019-02-05T15:23:04Z</time>
      </trkpt>
      <trkpt lat="46.20566" lon="6.57389">
        <ele>1161.41</ele>
        <time>2019-02-05T15:23:17Z</time>
      </trkpt>
      <trkpt lat="46.20568" lon="6.5739">
        <ele>1161.41</ele>
        <time>2019-02-05T15:23:19Z</time>
      </trkpt>
      <trkpt lat="46.20571" lon="6.5739">
        <ele>1160.93</ele>
        <time>2019-02-05T15:23:21Z</time>
      </trkpt>
      <trkpt lat="46.20574" lon="6.57392">
        <ele>1160.93</ele>
        <time>2019-02-05T15:23:24Z</time>
      </trkpt>
      <trkpt lat="46.20578" lon="6.57397">
        <ele>1160.93</ele>
        <time>2019-02-05T15:23:30Z</time>
      </trkpt>
      <trkpt lat="46.20581" lon="6.57402">
        <ele>1159.97</ele>
        <time>2019-02-05T15:23:34Z</time>
      </trkpt>
      <trkpt lat="46.20582" lon="6.57404">
        <ele>1160.93</ele>
        <time>2019-02-05T15:23:36Z</time>
      </trkpt>
      <trkpt lat="46.20596" lon="6.57414">
        <ele>1159.97</ele>
        <time>2019-02-05T15:23:50Z</time>
      </trkpt>
      <trkpt lat="46.20603" lon="6.57418">
        <ele>1159.97</ele>
        <time>2019-02-05T15:23:57Z</time>
      </trkpt>
      <trkpt lat="46.20608" lon="6.57422">
        <ele>1159.01</ele>
        <time>2019-02-05T15:24:03Z</time>
      </trkpt>
      <trkpt lat="46.20625" lon="6.57431">
        <ele>1159.49</ele>
        <time>2019-02-05T15:24:19Z</time>
      </trkpt>
      <trkpt lat="46.20629" lon="6.57432">
        <ele>1158.53</ele>
        <time>2019-02-05T15:24:22Z</time>
      </trkpt>
      <trkpt lat="46.20638" lon="6.57439">
        <ele>1158.05</ele>
        <time>2019-02-05T15:24:32Z</time>
      </trkpt>
      <trkpt lat="46.20641" lon="6.5744">
        <ele>1157.56</ele>
        <time>2019-02-05T15:24:34Z</time>
      </trkpt>
      <trkpt lat="46.20649" lon="6.57445">
        <ele>1157.56</ele>
        <time>2019-02-05T15:24:42Z</time>
      </trkpt>
      <trkpt lat="46.20651" lon="6.57448">
        <ele>1157.08</ele>
        <time>2019-02-05T15:24:45Z</time>
      </trkpt>
      <trkpt lat="46.20657" lon="6.57454">
        <ele>1156.6</ele>
        <time>2019-02-05T15:24:51Z</time>
      </trkpt>
      <trkpt lat="46.20662" lon="6.57458">
        <ele>1156.12</ele>
        <time>2019-02-05T15:24:56Z</time>
      </trkpt>
      <trkpt lat="46.20669" lon="6.57462">
        <ele>1156.12</ele>
        <time>2019-02-05T15:25:02Z</time>
      </trkpt>
      <trkpt lat="46.20681" lon="6.57476">
        <ele>1155.16</ele>
        <time>2019-02-05T15:25:14Z</time>
      </trkpt>
      <trkpt lat="46.20682" lon="6.57477">
        <ele>1154.68</ele>
        <time>2019-02-05T15:25:15Z</time>
      </trkpt>
      <trkpt lat="46.20689" lon="6.57484">
        <ele>1154.2</ele>
        <time>2019-02-05T15:25:22Z</time>
      </trkpt>
      <trkpt lat="46.20703" lon="6.57495">
        <ele>1152.76</ele>
        <time>2019-02-05T15:25:35Z</time>
      </trkpt>
      <trkpt lat="46.20708" lon="6.575">
        <ele>1152.28</ele>
        <time>2019-02-05T15:25:41Z</time>
      </trkpt>
      <trkpt lat="46.20717" lon="6.5751">
        <ele>1151.8</ele>
        <time>2019-02-05T15:25:51Z</time>
      </trkpt>
      <trkpt lat="46.20719" lon="6.57511">
        <ele>1152.28</ele>
        <time>2019-02-05T15:25:53Z</time>
      </trkpt>
      <trkpt lat="46.20726" lon="6.5752">
        <ele>1151.32</ele>
        <time>2019-02-05T15:26:01Z</time>
      </trkpt>
      <trkpt lat="46.20729" lon="6.57522">
        <ele>1151.32</ele>
        <time>2019-02-05T15:26:04Z</time>
      </trkpt>
      <trkpt lat="46.20731" lon="6.57525">
        <ele>1150.84</ele>
        <time>2019-02-05T15:26:07Z</time>
      </trkpt>
      <trkpt lat="46.20738" lon="6.57531">
        <ele>1150.84</ele>
        <time>2019-02-05T15:26:14Z</time>
      </trkpt>
      <trkpt lat="46.20747" lon="6.57536">
        <ele>1149.87</ele>
        <time>2019-02-05T15:26:22Z</time>
      </trkpt>
      <trkpt lat="46.20762" lon="6.57549">
        <ele>1148.91</ele>
        <time>2019-02-05T15:26:37Z</time>
      </trkpt>
      <trkpt lat="46.20765" lon="6.57552">
        <ele>1149.39</ele>
        <time>2019-02-05T15:26:41Z</time>
      </trkpt>
      <trkpt lat="46.20779" lon="6.57558">
        <ele>1148.43</ele>
        <time>2019-02-05T15:26:55Z</time>
      </trkpt>
      <trkpt lat="46.20787" lon="6.57566">
        <ele>1147.95</ele>
        <time>2019-02-05T15:27:07Z</time>
      </trkpt>
      <trkpt lat="46.20788" lon="6.57568">
        <ele>1147.47</ele>
        <time>2019-02-05T15:27:21Z</time>
      </trkpt>
      <trkpt lat="46.20791" lon="6.57573">
        <ele>1147.47</ele>
        <time>2019-02-05T15:27:54Z</time>
      </trkpt>
      <trkpt lat="46.20801" lon="6.57587">
        <ele>1146.51</ele>
        <time>2019-02-05T15:28:07Z</time>
      </trkpt>
      <trkpt lat="46.20802" lon="6.5759">
        <ele>1146.03</ele>
        <time>2019-02-05T15:28:09Z</time>
      </trkpt>
      <trkpt lat="46.20806" lon="6.57597">
        <ele>1145.55</ele>
        <time>2019-02-05T15:28:14Z</time>
      </trkpt>
      <trkpt lat="46.20809" lon="6.57608">
        <ele>1145.07</ele>
        <time>2019-02-05T15:28:22Z</time>
      </trkpt>
      <trkpt lat="46.20812" lon="6.57616">
        <ele>1144.11</ele>
        <time>2019-02-05T15:28:27Z</time>
      </trkpt>
      <trkpt lat="46.20814" lon="6.5762">
        <ele>1143.63</ele>
        <time>2019-02-05T15:28:30Z</time>
      </trkpt>
      <trkpt lat="46.20814" lon="6.57623">
        <ele>1143.63</ele>
        <time>2019-02-05T15:28:32Z</time>
      </trkpt>
      <trkpt lat="46.20815" lon="6.57627">
        <ele>1143.14</ele>
        <time>2019-02-05T15:28:34Z</time>
      </trkpt>
      <trkpt lat="46.20818" lon="6.57637">
        <ele>1142.18</ele>
        <time>2019-02-05T15:28:41Z</time>
      </trkpt>
      <trkpt lat="46.20823" lon="6.57656">
        <ele>1139.78</ele>
        <time>2019-02-05T15:28:54Z</time>
      </trkpt>
      <trkpt lat="46.20836" lon="6.57669">
        <ele>1137.86</ele>
        <time>2019-02-05T15:29:06Z</time>
      </trkpt>
      <trkpt lat="46.20843" lon="6.57683">
        <ele>1136.42</ele>
        <time>2019-02-05T15:29:16Z</time>
      </trkpt>
      <trkpt lat="46.20844" lon="6.57687">
        <ele>1136.42</ele>
        <time>2019-02-05T15:29:19Z</time>
      </trkpt>
      <trkpt lat="46.20847" lon="6.577">
        <ele>1134.97</ele>
        <time>2019-02-05T15:29:27Z</time>
      </trkpt>
      <trkpt lat="46.20849" lon="6.57706">
        <ele>1134.49</ele>
        <time>2019-02-05T15:29:31Z</time>
      </trkpt>
      <trkpt lat="46.2085" lon="6.57715">
        <ele>1134.01</ele>
        <time>2019-02-05T15:29:37Z</time>
      </trkpt>
      <trkpt lat="46.20851" lon="6.57723">
        <ele>1134.01</ele>
        <time>2019-02-05T15:29:42Z</time>
      </trkpt>
      <trkpt lat="46.20854" lon="6.5773">
        <ele>1133.05</ele>
        <time>2019-02-05T15:29:54Z</time>
      </trkpt>
      <trkpt lat="46.20853" lon="6.57737">
        <ele>1132.57</ele>
        <time>2019-02-05T15:30:04Z</time>
      </trkpt>
      <trkpt lat="46.20854" lon="6.57735">
        <ele>1133.53</ele>
        <time>2019-02-05T15:30:06Z</time>
      </trkpt>
      <trkpt lat="46.20854" lon="6.57731">
        <ele>1132.57</ele>
        <time>2019-02-05T15:30:09Z</time>
      </trkpt>
      <trkpt lat="46.20863" lon="6.57722">
        <ele>1132.09</ele>
        <time>2019-02-05T15:30:18Z</time>
      </trkpt>
      <trkpt lat="46.20867" lon="6.57718">
        <ele>1131.61</ele>
        <time>2019-02-05T15:30:23Z</time>
      </trkpt>
      <trkpt lat="46.20875" lon="6.57709">
        <ele>1130.17</ele>
        <time>2019-02-05T15:30:36Z</time>
      </trkpt>
      <trkpt lat="46.20878" lon="6.577">
        <ele>1128.73</ele>
        <time>2019-02-05T15:30:52Z</time>
      </trkpt>
      <trkpt lat="46.20886" lon="6.57685">
        <ele>1128.73</ele>
        <time>2019-02-05T15:31:07Z</time>
      </trkpt>
      <trkpt lat="46.20888" lon="6.57681">
        <ele>1129.21</ele>
        <time>2019-02-05T15:31:10Z</time>
      </trkpt>
      <trkpt lat="46.20891" lon="6.57677">
        <ele>1128.73</ele>
        <time>2019-02-05T15:31:23Z</time>
      </trkpt>
      <trkpt lat="46.20892" lon="6.57673">
        <ele>1128.73</ele>
        <time>2019-02-05T15:31:33Z</time>
      </trkpt>
      <trkpt lat="46.20883" lon="6.5766">
        <ele>1127.28</ele>
        <time>2019-02-05T15:31:45Z</time>
      </trkpt>
      <trkpt lat="46.20878" lon="6.57657">
        <ele>1127.28</ele>
        <time>2019-02-05T15:31:57Z</time>
      </trkpt>
    </trkseg>
  </trk>
  <trk>
    <name><![CDATA[20190212153829-wVrsA]]></name>
    <trkseg>
      <trkpt lat="46.25156" lon="6.53984">
        <ele>982.6</ele>
        <time>2019-02-06T08:36:27Z</time>
      </trkpt>
      <trkpt lat="46.25156" lon="6.53983">
        <ele>981.16</ele>
        <time>2019-02-06T08:36:38Z</time>
      </trkpt>
      <trkpt lat="46.25163" lon="6.53989">
        <ele>983.57</ele>
        <time>2019-02-06T08:37:16Z</time>
      </trkpt>
      <trkpt lat="46.25167" lon="6.53992">
        <ele>985.01</ele>
        <time>2019-02-06T08:37:32Z</time>
      </trkpt>
      <trkpt lat="46.25175" lon="6.53998">
        <ele>985.97</ele>
        <time>2019-02-06T08:37:58Z</time>
      </trkpt>
      <trkpt lat="46.25178" lon="6.54008">
        <ele>987.41</ele>
        <time>2019-02-06T08:38:11Z</time>
      </trkpt>
      <trkpt lat="46.25179" lon="6.54009">
        <ele>988.85</ele>
        <time>2019-02-06T08:38:42Z</time>
      </trkpt>
      <trkpt lat="46.25178" lon="6.54019">
        <ele>990.3</ele>
        <time>2019-02-06T08:39:36Z</time>
      </trkpt>
      <trkpt lat="46.25169" lon="6.54034">
        <ele>991.74</ele>
        <time>2019-02-06T08:39:49Z</time>
      </trkpt>
      <trkpt lat="46.25161" lon="6.54043">
        <ele>993.18</ele>
        <time>2019-02-06T08:40:00Z</time>
      </trkpt>
      <trkpt lat="46.25159" lon="6.54045">
        <ele>993.18</ele>
        <time>2019-02-06T08:40:02Z</time>
      </trkpt>
      <trkpt lat="46.25153" lon="6.54056">
        <ele>994.62</ele>
        <time>2019-02-06T08:40:13Z</time>
      </trkpt>
      <trkpt lat="46.25151" lon="6.54058">
        <ele>995.1</ele>
        <time>2019-02-06T08:40:16Z</time>
      </trkpt>
      <trkpt lat="46.25147" lon="6.54066">
        <ele>995.1</ele>
        <time>2019-02-06T08:40:22Z</time>
      </trkpt>
      <trkpt lat="46.25142" lon="6.54079">
        <ele>996.54</ele>
        <time>2019-02-06T08:40:34Z</time>
      </trkpt>
      <trkpt lat="46.25139" lon="6.54094">
        <ele>997.51</ele>
        <time>2019-02-06T08:40:46Z</time>
      </trkpt>
      <trkpt lat="46.25137" lon="6.541">
        <ele>997.99</ele>
        <time>2019-02-06T08:40:59Z</time>
      </trkpt>
      <trkpt lat="46.25136" lon="6.54105">
        <ele>997.51</ele>
        <time>2019-02-06T08:41:02Z</time>
      </trkpt>
      <trkpt lat="46.25135" lon="6.54109">
        <ele>997.99</ele>
        <time>2019-02-06T08:41:04Z</time>
      </trkpt>
      <trkpt lat="46.25134" lon="6.54119">
        <ele>998.47</ele>
        <time>2019-02-06T08:41:10Z</time>
      </trkpt>
      <trkpt lat="46.25131" lon="6.54134">
        <ele>998.95</ele>
        <time>2019-02-06T08:41:20Z</time>
      </trkpt>
      <trkpt lat="46.2513" lon="6.54138">
        <ele>999.91</ele>
        <time>2019-02-06T08:41:23Z</time>
      </trkpt>
      <trkpt lat="46.25121" lon="6.54154">
        <ele>1000.87</ele>
        <time>2019-02-06T08:41:38Z</time>
      </trkpt>
      <trkpt lat="46.25113" lon="6.54168">
        <ele>1002.79</ele>
        <time>2019-02-06T08:41:49Z</time>
      </trkpt>
      <trkpt lat="46.25111" lon="6.54172">
        <ele>1002.31</ele>
        <time>2019-02-06T08:41:52Z</time>
      </trkpt>
      <trkpt lat="46.25099" lon="6.54178">
        <ele>1002.31</ele>
        <time>2019-02-06T08:42:06Z</time>
      </trkpt>
      <trkpt lat="46.25085" lon="6.54187">
        <ele>1002.31</ele>
        <time>2019-02-06T08:42:20Z</time>
      </trkpt>
      <trkpt lat="46.25083" lon="6.5419">
        <ele>1001.83</ele>
        <time>2019-02-06T08:42:24Z</time>
      </trkpt>
      <trkpt lat="46.25078" lon="6.54197">
        <ele>1003.27</ele>
        <time>2019-02-06T08:42:32Z</time>
      </trkpt>
      <trkpt lat="46.2507" lon="6.54208">
        <ele>1003.27</ele>
        <time>2019-02-06T08:42:44Z</time>
      </trkpt>
      <trkpt lat="46.25068" lon="6.54211">
        <ele>1003.75</ele>
        <time>2019-02-06T08:42:48Z</time>
      </trkpt>
      <trkpt lat="46.25063" lon="6.54216">
        <ele>1004.23</ele>
        <time>2019-02-06T08:42:54Z</time>
      </trkpt>
      <trkpt lat="46.25056" lon="6.54229">
        <ele>1005.2</ele>
        <time>2019-02-06T08:43:06Z</time>
      </trkpt>
      <trkpt lat="46.25049" lon="6.54241">
        <ele>1006.16</ele>
        <time>2019-02-06T08:43:19Z</time>
      </trkpt>
      <trkpt lat="46.25044" lon="6.54252">
        <ele>1007.12</ele>
        <time>2019-02-06T08:43:30Z</time>
      </trkpt>
      <trkpt lat="46.25037" lon="6.54263">
        <ele>1008.08</ele>
        <time>2019-02-06T08:43:42Z</time>
      </trkpt>
      <trkpt lat="46.2503" lon="6.54278">
        <ele>1009.52</ele>
        <time>2019-02-06T08:43:56Z</time>
      </trkpt>
      <trkpt lat="46.25028" lon="6.54285">
        <ele>1010.96</ele>
        <time>2019-02-06T08:44:07Z</time>
      </trkpt>
      <trkpt lat="46.25025" lon="6.54292">
        <ele>1011.44</ele>
        <time>2019-02-06T08:44:19Z</time>
      </trkpt>
      <trkpt lat="46.25024" lon="6.54293">
        <ele>1010.48</ele>
        <time>2019-02-06T08:44:20Z</time>
      </trkpt>
      <trkpt lat="46.25019" lon="6.54306">
        <ele>1012.41</ele>
        <time>2019-02-06T08:44:32Z</time>
      </trkpt>
      <trkpt lat="46.2502" lon="6.54309">
        <ele>1012.41</ele>
        <time>2019-02-06T08:44:34Z</time>
      </trkpt>
      <trkpt lat="46.25016" lon="6.54319">
        <ele>1013.37</ele>
        <time>2019-02-06T08:44:45Z</time>
      </trkpt>
      <trkpt lat="46.25012" lon="6.54331">
        <ele>1013.85</ele>
        <time>2019-02-06T08:44:57Z</time>
      </trkpt>
      <trkpt lat="46.25011" lon="6.54334">
        <ele>1013.85</ele>
        <time>2019-02-06T08:44:59Z</time>
      </trkpt>
      <trkpt lat="46.25009" lon="6.54339">
        <ele>1014.33</ele>
        <time>2019-02-06T08:45:04Z</time>
      </trkpt>
      <trkpt lat="46.25008" lon="6.54342">
        <ele>1014.81</ele>
        <time>2019-02-06T08:45:06Z</time>
      </trkpt>
      <trkpt lat="46.25005" lon="6.54356">
        <ele>1015.29</ele>
        <time>2019-02-06T08:45:18Z</time>
      </trkpt>
      <trkpt lat="46.25004" lon="6.54362">
        <ele>1015.29</ele>
        <time>2019-02-06T08:45:22Z</time>
      </trkpt>
      <trkpt lat="46.25002" lon="6.54377">
        <ele>1016.73</ele>
        <time>2019-02-06T08:45:35Z</time>
      </trkpt>
      <trkpt lat="46.25" lon="6.54387">
        <ele>1016.73</ele>
        <time>2019-02-06T08:45:43Z</time>
      </trkpt>
      <trkpt lat="46.24999" lon="6.54394">
        <ele>1016.73</ele>
        <time>2019-02-06T08:45:48Z</time>
      </trkpt>
      <trkpt lat="46.24997" lon="6.5441">
        <ele>1016.25</ele>
        <time>2019-02-06T08:46:00Z</time>
      </trkpt>
      <trkpt lat="46.24995" lon="6.5442">
        <ele>1015.77</ele>
        <time>2019-02-06T08:46:08Z</time>
      </trkpt>
      <trkpt lat="46.24991" lon="6.54433">
        <ele>1015.77</ele>
        <time>2019-02-06T08:46:18Z</time>
      </trkpt>
      <trkpt lat="46.24988" lon="6.54441">
        <ele>1015.77</ele>
        <time>2019-02-06T08:46:24Z</time>
      </trkpt>
      <trkpt lat="46.24984" lon="6.54448">
        <ele>1016.25</ele>
        <time>2019-02-06T08:46:32Z</time>
      </trkpt>
      <trkpt lat="46.2498" lon="6.54457">
        <ele>1017.21</ele>
        <time>2019-02-06T08:46:44Z</time>
      </trkpt>
      <trkpt lat="46.24977" lon="6.54469">
        <ele>1018.17</ele>
        <time>2019-02-06T08:46:55Z</time>
      </trkpt>
      <trkpt lat="46.24973" lon="6.54482">
        <ele>1019.62</ele>
        <time>2019-02-06T08:47:06Z</time>
      </trkpt>
      <trkpt lat="46.24972" lon="6.54487">
        <ele>1020.1</ele>
        <time>2019-02-06T08:47:10Z</time>
      </trkpt>
      <trkpt lat="46.24973" lon="6.54499">
        <ele>1021.54</ele>
        <time>2019-02-06T08:47:21Z</time>
      </trkpt>
      <trkpt lat="46.24972" lon="6.54504">
        <ele>1022.02</ele>
        <time>2019-02-06T08:47:25Z</time>
      </trkpt>
      <trkpt lat="46.24974" lon="6.54516">
        <ele>1022.98</ele>
        <time>2019-02-06T08:47:37Z</time>
      </trkpt>
      <trkpt lat="46.24975" lon="6.54531">
        <ele>1023.94</ele>
        <time>2019-02-06T08:47:50Z</time>
      </trkpt>
      <trkpt lat="46.24974" lon="6.54549">
        <ele>1025.86</ele>
        <time>2019-02-06T08:48:06Z</time>
      </trkpt>
      <trkpt lat="46.24972" lon="6.54561">
        <ele>1027.31</ele>
        <time>2019-02-06T08:48:16Z</time>
      </trkpt>
      <trkpt lat="46.24974" lon="6.5457">
        <ele>1028.75</ele>
        <time>2019-02-06T08:48:24Z</time>
      </trkpt>
      <trkpt lat="46.24975" lon="6.54578">
        <ele>1028.75</ele>
        <time>2019-02-06T08:48:31Z</time>
      </trkpt>
      <trkpt lat="46.24974" lon="6.54591">
        <ele>1029.71</ele>
        <time>2019-02-06T08:48:44Z</time>
      </trkpt>
      <trkpt lat="46.24975" lon="6.54603">
        <ele>1031.15</ele>
        <time>2019-02-06T08:48:57Z</time>
      </trkpt>
      <trkpt lat="46.24976" lon="6.54612">
        <ele>1032.11</ele>
        <time>2019-02-06T08:49:06Z</time>
      </trkpt>
      <trkpt lat="46.24979" lon="6.54624">
        <ele>1034.52</ele>
        <time>2019-02-06T08:49:20Z</time>
      </trkpt>
      <trkpt lat="46.2498" lon="6.54634">
        <ele>1035</ele>
        <time>2019-02-06T08:49:31Z</time>
      </trkpt>
      <trkpt lat="46.24982" lon="6.54645">
        <ele>1037.4</ele>
        <time>2019-02-06T08:49:42Z</time>
      </trkpt>
      <trkpt lat="46.24984" lon="6.54652">
        <ele>1037.88</ele>
        <time>2019-02-06T08:49:48Z</time>
      </trkpt>
      <trkpt lat="46.24986" lon="6.54667">
        <ele>1039.8</ele>
        <time>2019-02-06T08:50:01Z</time>
      </trkpt>
      <trkpt lat="46.24987" lon="6.54669">
        <ele>1039.8</ele>
        <time>2019-02-06T08:50:04Z</time>
      </trkpt>
      <trkpt lat="46.24989" lon="6.54676">
        <ele>1042.21</ele>
        <time>2019-02-06T08:50:12Z</time>
      </trkpt>
      <trkpt lat="46.2499" lon="6.54681">
        <ele>1042.21</ele>
        <time>2019-02-06T08:50:17Z</time>
      </trkpt>
      <trkpt lat="46.24993" lon="6.54688">
        <ele>1042.69</ele>
        <time>2019-02-06T08:50:24Z</time>
      </trkpt>
      <trkpt lat="46.24996" lon="6.54699">
        <ele>1044.61</ele>
        <time>2019-02-06T08:50:35Z</time>
      </trkpt>
      <trkpt lat="46.24996" lon="6.547">
        <ele>1045.57</ele>
        <time>2019-02-06T08:50:36Z</time>
      </trkpt>
      <trkpt lat="46.25" lon="6.54712">
        <ele>1045.09</ele>
        <time>2019-02-06T08:50:47Z</time>
      </trkpt>
      <trkpt lat="46.25003" lon="6.54725">
        <ele>1047.01</ele>
        <time>2019-02-06T08:50:59Z</time>
      </trkpt>
      <trkpt lat="46.25004" lon="6.54734">
        <ele>1047.49</ele>
        <time>2019-02-06T08:51:12Z</time>
      </trkpt>
      <trkpt lat="46.25005" lon="6.54736">
        <ele>1047.01</ele>
        <time>2019-02-06T08:51:41Z</time>
      </trkpt>
      <trkpt lat="46.25006" lon="6.54736">
        <ele>1047.01</ele>
        <time>2019-02-06T08:52:29Z</time>
      </trkpt>
      <trkpt lat="46.25006" lon="6.54736">
        <ele>1047.49</ele>
        <time>2019-02-06T08:52:44Z</time>
      </trkpt>
      <trkpt lat="46.25005" lon="6.54735">
        <ele>1047.97</ele>
        <time>2019-02-06T08:53:00Z</time>
      </trkpt>
      <trkpt lat="46.25006" lon="6.54736">
        <ele>1047.97</ele>
        <time>2019-02-06T08:53:46Z</time>
      </trkpt>
      <trkpt lat="46.25005" lon="6.54736">
        <ele>1047.49</ele>
        <time>2019-02-06T08:54:33Z</time>
      </trkpt>
      <trkpt lat="46.25005" lon="6.54736">
        <ele>1048.45</ele>
        <time>2019-02-06T08:55:47Z</time>
      </trkpt>
      <trkpt lat="46.25003" lon="6.54739">
        <ele>1048.94</ele>
        <time>2019-02-06T08:56:20Z</time>
      </trkpt>
      <trkpt lat="46.25003" lon="6.54739">
        <ele>1048.45</ele>
        <time>2019-02-06T08:56:46Z</time>
      </trkpt>
      <trkpt lat="46.25003" lon="6.54739">
        <ele>1048.94</ele>
        <time>2019-02-06T08:57:42Z</time>
      </trkpt>
      <trkpt lat="46.25003" lon="6.54739">
        <ele>1048.94</ele>
        <time>2019-02-06T08:58:02Z</time>
      </trkpt>
      <trkpt lat="46.25003" lon="6.5474">
        <ele>1049.42</ele>
        <time>2019-02-06T08:58:32Z</time>
      </trkpt>
      <trkpt lat="46.25005" lon="6.54742">
        <ele>1049.42</ele>
        <time>2019-02-06T08:58:51Z</time>
      </trkpt>
      <trkpt lat="46.25007" lon="6.54744">
        <ele>1049.42</ele>
        <time>2019-02-06T08:58:54Z</time>
      </trkpt>
      <trkpt lat="46.25014" lon="6.54752">
        <ele>1051.34</ele>
        <time>2019-02-06T08:59:06Z</time>
      </trkpt>
      <trkpt lat="46.2502" lon="6.54763">
        <ele>1051.82</ele>
        <time>2019-02-06T08:59:19Z</time>
      </trkpt>
      <trkpt lat="46.25025" lon="6.54774">
        <ele>1053.26</ele>
        <time>2019-02-06T08:59:29Z</time>
      </trkpt>
      <trkpt lat="46.2503" lon="6.54783">
        <ele>1054.22</ele>
        <time>2019-02-06T08:59:41Z</time>
      </trkpt>
      <trkpt lat="46.25034" lon="6.54791">
        <ele>1055.18</ele>
        <time>2019-02-06T08:59:52Z</time>
      </trkpt>
      <trkpt lat="46.25039" lon="6.548">
        <ele>1057.11</ele>
        <time>2019-02-06T09:00:04Z</time>
      </trkpt>
      <trkpt lat="46.2504" lon="6.54812">
        <ele>1057.59</ele>
        <time>2019-02-06T09:00:15Z</time>
      </trkpt>
      <trkpt lat="46.25042" lon="6.54821">
        <ele>1058.07</ele>
        <time>2019-02-06T09:00:23Z</time>
      </trkpt>
      <trkpt lat="46.25043" lon="6.54835">
        <ele>1059.03</ele>
        <time>2019-02-06T09:00:36Z</time>
      </trkpt>
      <trkpt lat="46.25045" lon="6.54846">
        <ele>1059.99</ele>
        <time>2019-02-06T09:00:47Z</time>
      </trkpt>
      <trkpt lat="46.25045" lon="6.54859">
        <ele>1060.95</ele>
        <time>2019-02-06T09:01:00Z</time>
      </trkpt>
      <trkpt lat="46.25046" lon="6.54873">
        <ele>1063.36</ele>
        <time>2019-02-06T09:01:13Z</time>
      </trkpt>
      <trkpt lat="46.25047" lon="6.54877">
        <ele>1062.87</ele>
        <time>2019-02-06T09:01:17Z</time>
      </trkpt>
      <trkpt lat="46.25044" lon="6.54888">
        <ele>1063.84</ele>
        <time>2019-02-06T09:01:28Z</time>
      </trkpt>
      <trkpt lat="46.25042" lon="6.549">
        <ele>1065.28</ele>
        <time>2019-02-06T09:01:40Z</time>
      </trkpt>
      <trkpt lat="46.25044" lon="6.54909">
        <ele>1067.2</ele>
        <time>2019-02-06T09:01:52Z</time>
      </trkpt>
      <trkpt lat="46.25045" lon="6.54921">
        <ele>1067.68</ele>
        <time>2019-02-06T09:02:05Z</time>
      </trkpt>
      <trkpt lat="46.25048" lon="6.54934">
        <ele>1070.08</ele>
        <time>2019-02-06T09:02:19Z</time>
      </trkpt>
      <trkpt lat="46.25049" lon="6.54945">
        <ele>1070.57</ele>
        <time>2019-02-06T09:02:31Z</time>
      </trkpt>
      <trkpt lat="46.25049" lon="6.54956">
        <ele>1072.49</ele>
        <time>2019-02-06T09:02:42Z</time>
      </trkpt>
      <trkpt lat="46.25052" lon="6.54965">
        <ele>1073.93</ele>
        <time>2019-02-06T09:02:53Z</time>
      </trkpt>
      <trkpt lat="46.25054" lon="6.54973">
        <ele>1075.37</ele>
        <time>2019-02-06T09:03:05Z</time>
      </trkpt>
      <trkpt lat="46.25057" lon="6.54982">
        <ele>1076.81</ele>
        <time>2019-02-06T09:03:16Z</time>
      </trkpt>
      <trkpt lat="46.25059" lon="6.54989">
        <ele>1077.78</ele>
        <time>2019-02-06T09:03:27Z</time>
      </trkpt>
      <trkpt lat="46.25059" lon="6.55">
        <ele>1079.22</ele>
        <time>2019-02-06T09:03:39Z</time>
      </trkpt>
      <trkpt lat="46.2506" lon="6.55016">
        <ele>1081.14</ele>
        <time>2019-02-06T09:03:55Z</time>
      </trkpt>
      <trkpt lat="46.25063" lon="6.55026">
        <ele>1083.54</ele>
        <time>2019-02-06T09:04:07Z</time>
      </trkpt>
      <trkpt lat="46.25063" lon="6.55039">
        <ele>1084.5</ele>
        <time>2019-02-06T09:04:20Z</time>
      </trkpt>
      <trkpt lat="46.25063" lon="6.55045">
        <ele>1085.95</ele>
        <time>2019-02-06T09:04:29Z</time>
      </trkpt>
      <trkpt lat="46.25063" lon="6.55056">
        <ele>1086.91</ele>
        <time>2019-02-06T09:04:41Z</time>
      </trkpt>
      <trkpt lat="46.25066" lon="6.55068">
        <ele>1089.31</ele>
        <time>2019-02-06T09:04:55Z</time>
      </trkpt>
      <trkpt lat="46.25066" lon="6.55078">
        <ele>1089.79</ele>
        <time>2019-02-06T09:05:07Z</time>
      </trkpt>
      <trkpt lat="46.25067" lon="6.5509">
        <ele>1091.23</ele>
        <time>2019-02-06T09:05:20Z</time>
      </trkpt>
      <trkpt lat="46.25068" lon="6.55101">
        <ele>1093.16</ele>
        <time>2019-02-06T09:05:33Z</time>
      </trkpt>
      <trkpt lat="46.25071" lon="6.55111">
        <ele>1094.6</ele>
        <time>2019-02-06T09:05:45Z</time>
      </trkpt>
      <trkpt lat="46.25073" lon="6.55118">
        <ele>1095.08</ele>
        <time>2019-02-06T09:05:55Z</time>
      </trkpt>
      <trkpt lat="46.25077" lon="6.55128">
        <ele>1096.52</ele>
        <time>2019-02-06T09:06:08Z</time>
      </trkpt>
      <trkpt lat="46.25081" lon="6.55141">
        <ele>1097.96</ele>
        <time>2019-02-06T09:06:20Z</time>
      </trkpt>
      <trkpt lat="46.25082" lon="6.55153">
        <ele>1099.4</ele>
        <time>2019-02-06T09:06:34Z</time>
      </trkpt>
      <trkpt lat="46.25078" lon="6.55163">
        <ele>1100.85</ele>
        <time>2019-02-06T09:06:46Z</time>
      </trkpt>
      <trkpt lat="46.25079" lon="6.55172">
        <ele>1102.77</ele>
        <time>2019-02-06T09:06:57Z</time>
      </trkpt>
      <trkpt lat="46.25079" lon="6.55181">
        <ele>1103.73</ele>
        <time>2019-02-06T09:07:07Z</time>
      </trkpt>
      <trkpt lat="46.25082" lon="6.55191">
        <ele>1105.17</ele>
        <time>2019-02-06T09:07:19Z</time>
      </trkpt>
      <trkpt lat="46.25085" lon="6.55196">
        <ele>1106.13</ele>
        <time>2019-02-06T09:07:30Z</time>
      </trkpt>
      <trkpt lat="46.25086" lon="6.55197">
        <ele>1107.1</ele>
        <time>2019-02-06T09:08:03Z</time>
      </trkpt>
      <trkpt lat="46.25086" lon="6.55202">
        <ele>1108.06</ele>
        <time>2019-02-06T09:08:45Z</time>
      </trkpt>
      <trkpt lat="46.25085" lon="6.552">
        <ele>1106.61</ele>
        <time>2019-02-06T09:09:22Z</time>
      </trkpt>
      <trkpt lat="46.25085" lon="6.552">
        <ele>1108.54</ele>
        <time>2019-02-06T09:10:13Z</time>
      </trkpt>
      <trkpt lat="46.25085" lon="6.55199">
        <ele>1108.54</ele>
        <time>2019-02-06T09:10:37Z</time>
      </trkpt>
      <trkpt lat="46.25085" lon="6.55199">
        <ele>1109.5</ele>
        <time>2019-02-06T09:12:16Z</time>
      </trkpt>
      <trkpt lat="46.25088" lon="6.55194">
        <ele>1111.42</ele>
        <time>2019-02-06T09:14:21Z</time>
      </trkpt>
      <trkpt lat="46.25093" lon="6.55189">
        <ele>1112.86</ele>
        <time>2019-02-06T09:14:32Z</time>
      </trkpt>
      <trkpt lat="46.25096" lon="6.55176">
        <ele>1114.31</ele>
        <time>2019-02-06T09:14:45Z</time>
      </trkpt>
      <trkpt lat="46.25098" lon="6.55168">
        <ele>1115.75</ele>
        <time>2019-02-06T09:14:56Z</time>
      </trkpt>
      <trkpt lat="46.25103" lon="6.55157">
        <ele>1116.71</ele>
        <time>2019-02-06T09:15:07Z</time>
      </trkpt>
      <trkpt lat="46.25106" lon="6.55148">
        <ele>1117.67</ele>
        <time>2019-02-06T09:15:20Z</time>
      </trkpt>
      <trkpt lat="46.25112" lon="6.55146">
        <ele>1118.63</ele>
        <time>2019-02-06T09:15:30Z</time>
      </trkpt>
      <trkpt lat="46.25119" lon="6.55145">
        <ele>1120.07</ele>
        <time>2019-02-06T09:15:43Z</time>
      </trkpt>
      <trkpt lat="46.25124" lon="6.55151">
        <ele>1121.52</ele>
        <time>2019-02-06T09:15:55Z</time>
      </trkpt>
      <trkpt lat="46.25125" lon="6.55158">
        <ele>1122.96</ele>
        <time>2019-02-06T09:16:05Z</time>
      </trkpt>
      <trkpt lat="46.25124" lon="6.55164">
        <ele>1123.92</ele>
        <time>2019-02-06T09:16:16Z</time>
      </trkpt>
      <trkpt lat="46.25122" lon="6.55179">
        <ele>1125.36</ele>
        <time>2019-02-06T09:16:28Z</time>
      </trkpt>
      <trkpt lat="46.25122" lon="6.55187">
        <ele>1126.8</ele>
        <time>2019-02-06T09:16:39Z</time>
      </trkpt>
      <trkpt lat="46.25121" lon="6.5519">
        <ele>1126.8</ele>
        <time>2019-02-06T09:16:42Z</time>
      </trkpt>
      <trkpt lat="46.25122" lon="6.552">
        <ele>1128.73</ele>
        <time>2019-02-06T09:16:52Z</time>
      </trkpt>
      <trkpt lat="46.25121" lon="6.55209">
        <ele>1130.65</ele>
        <time>2019-02-06T09:17:03Z</time>
      </trkpt>
      <trkpt lat="46.2512" lon="6.55218">
        <ele>1132.09</ele>
        <time>2019-02-06T09:17:14Z</time>
      </trkpt>
      <trkpt lat="46.25118" lon="6.55227">
        <ele>1134.01</ele>
        <time>2019-02-06T09:17:26Z</time>
      </trkpt>
      <trkpt lat="46.25117" lon="6.55238">
        <ele>1135.45</ele>
        <time>2019-02-06T09:17:37Z</time>
      </trkpt>
      <trkpt lat="46.25113" lon="6.55247">
        <ele>1136.9</ele>
        <time>2019-02-06T09:17:48Z</time>
      </trkpt>
      <trkpt lat="46.25113" lon="6.55258">
        <ele>1138.82</ele>
        <time>2019-02-06T09:18:00Z</time>
      </trkpt>
      <trkpt lat="46.25113" lon="6.55264">
        <ele>1140.26</ele>
        <time>2019-02-06T09:18:10Z</time>
      </trkpt>
      <trkpt lat="46.25113" lon="6.55274">
        <ele>1141.22</ele>
        <time>2019-02-06T09:18:21Z</time>
      </trkpt>
      <trkpt lat="46.25112" lon="6.55284">
        <ele>1142.18</ele>
        <time>2019-02-06T09:18:32Z</time>
      </trkpt>
      <trkpt lat="46.25112" lon="6.55288">
        <ele>1143.63</ele>
        <time>2019-02-06T09:18:39Z</time>
      </trkpt>
      <trkpt lat="46.25114" lon="6.55296">
        <ele>1145.07</ele>
        <time>2019-02-06T09:18:49Z</time>
      </trkpt>
      <trkpt lat="46.25114" lon="6.55307">
        <ele>1146.03</ele>
        <time>2019-02-06T09:19:00Z</time>
      </trkpt>
      <trkpt lat="46.25112" lon="6.55317">
        <ele>1147.95</ele>
        <time>2019-02-06T09:19:11Z</time>
      </trkpt>
      <trkpt lat="46.25113" lon="6.55324">
        <ele>1148.91</ele>
        <time>2019-02-06T09:19:19Z</time>
      </trkpt>
      <trkpt lat="46.25113" lon="6.55334">
        <ele>1149.87</ele>
        <time>2019-02-06T09:19:29Z</time>
      </trkpt>
      <trkpt lat="46.2511" lon="6.55341">
        <ele>1151.32</ele>
        <time>2019-02-06T09:19:38Z</time>
      </trkpt>
      <trkpt lat="46.25106" lon="6.55345">
        <ele>1152.76</ele>
        <time>2019-02-06T09:19:47Z</time>
      </trkpt>
      <trkpt lat="46.25103" lon="6.55353">
        <ele>1154.2</ele>
        <time>2019-02-06T09:20:00Z</time>
      </trkpt>
      <trkpt lat="46.25099" lon="6.55362">
        <ele>1155.16</ele>
        <time>2019-02-06T09:20:12Z</time>
      </trkpt>
      <trkpt lat="46.25092" lon="6.5537">
        <ele>1157.56</ele>
        <time>2019-02-06T09:20:24Z</time>
      </trkpt>
      <trkpt lat="46.25091" lon="6.55376">
        <ele>1158.05</ele>
        <time>2019-02-06T09:20:30Z</time>
      </trkpt>
      <trkpt lat="46.25089" lon="6.55384">
        <ele>1159.01</ele>
        <time>2019-02-06T09:20:42Z</time>
      </trkpt>
      <trkpt lat="46.25084" lon="6.55391">
        <ele>1160.45</ele>
        <time>2019-02-06T09:20:53Z</time>
      </trkpt>
      <trkpt lat="46.25084" lon="6.55396">
        <ele>1161.41</ele>
        <time>2019-02-06T09:20:59Z</time>
      </trkpt>
      <trkpt lat="46.25085" lon="6.55405">
        <ele>1162.85</ele>
        <time>2019-02-06T09:21:09Z</time>
      </trkpt>
      <trkpt lat="46.2508" lon="6.55414">
        <ele>1164.77</ele>
        <time>2019-02-06T09:21:21Z</time>
      </trkpt>
      <trkpt lat="46.25076" lon="6.55423">
        <ele>1166.22</ele>
        <time>2019-02-06T09:21:32Z</time>
      </trkpt>
      <trkpt lat="46.25076" lon="6.55425">
        <ele>1166.7</ele>
        <time>2019-02-06T09:21:35Z</time>
      </trkpt>
      <trkpt lat="46.25072" lon="6.55438">
        <ele>1168.14</ele>
        <time>2019-02-06T09:21:48Z</time>
      </trkpt>
      <trkpt lat="46.25072" lon="6.55448">
        <ele>1169.58</ele>
        <time>2019-02-06T09:21:58Z</time>
      </trkpt>
      <trkpt lat="46.25072" lon="6.5545">
        <ele>1169.58</ele>
        <time>2019-02-06T09:22:12Z</time>
      </trkpt>
      <trkpt lat="46.25069" lon="6.55461">
        <ele>1171.5</ele>
        <time>2019-02-06T09:22:25Z</time>
      </trkpt>
      <trkpt lat="46.25067" lon="6.55463">
        <ele>1172.47</ele>
        <time>2019-02-06T09:22:27Z</time>
      </trkpt>
      <trkpt lat="46.25067" lon="6.55466">
        <ele>1172.95</ele>
        <time>2019-02-06T09:22:30Z</time>
      </trkpt>
      <trkpt lat="46.25065" lon="6.55479">
        <ele>1174.87</ele>
        <time>2019-02-06T09:22:43Z</time>
      </trkpt>
      <trkpt lat="46.2506" lon="6.55489">
        <ele>1175.83</ele>
        <time>2019-02-06T09:22:54Z</time>
      </trkpt>
      <trkpt lat="46.25058" lon="6.55494">
        <ele>1176.79</ele>
        <time>2019-02-06T09:23:00Z</time>
      </trkpt>
      <trkpt lat="46.25056" lon="6.55498">
        <ele>1177.75</ele>
        <time>2019-02-06T09:23:17Z</time>
      </trkpt>
      <trkpt lat="46.25056" lon="6.55498">
        <ele>1177.75</ele>
        <time>2019-02-06T09:23:56Z</time>
      </trkpt>
      <trkpt lat="46.25055" lon="6.55497">
        <ele>1177.27</ele>
        <time>2019-02-06T09:24:40Z</time>
      </trkpt>
      <trkpt lat="46.25052" lon="6.55497">
        <ele>1177.75</ele>
        <time>2019-02-06T09:26:44Z</time>
      </trkpt>
      <trkpt lat="46.25049" lon="6.55505">
        <ele>1178.71</ele>
        <time>2019-02-06T09:26:56Z</time>
      </trkpt>
      <trkpt lat="46.25048" lon="6.55513">
        <ele>1181.12</ele>
        <time>2019-02-06T09:27:08Z</time>
      </trkpt>
      <trkpt lat="46.25044" lon="6.55519">
        <ele>1182.08</ele>
        <time>2019-02-06T09:27:18Z</time>
      </trkpt>
      <trkpt lat="46.25036" lon="6.55526">
        <ele>1184</ele>
        <time>2019-02-06T09:27:30Z</time>
      </trkpt>
      <trkpt lat="46.25033" lon="6.55531">
        <ele>1185.44</ele>
        <time>2019-02-06T09:27:40Z</time>
      </trkpt>
      <trkpt lat="46.25026" lon="6.55537">
        <ele>1186.4</ele>
        <time>2019-02-06T09:27:52Z</time>
      </trkpt>
      <trkpt lat="46.2502" lon="6.55542">
        <ele>1187.85</ele>
        <time>2019-02-06T09:28:04Z</time>
      </trkpt>
      <trkpt lat="46.25014" lon="6.55545">
        <ele>1189.29</ele>
        <time>2019-02-06T09:28:13Z</time>
      </trkpt>
      <trkpt lat="46.25009" lon="6.5555">
        <ele>1190.73</ele>
        <time>2019-02-06T09:28:23Z</time>
      </trkpt>
      <trkpt lat="46.25004" lon="6.55557">
        <ele>1191.69</ele>
        <time>2019-02-06T09:28:34Z</time>
      </trkpt>
      <trkpt lat="46.25" lon="6.55564">
        <ele>1193.13</ele>
        <time>2019-02-06T09:28:45Z</time>
      </trkpt>
      <trkpt lat="46.24999" lon="6.55565">
        <ele>1193.61</ele>
        <time>2019-02-06T09:28:58Z</time>
      </trkpt>
      <trkpt lat="46.24999" lon="6.55565">
        <ele>1194.58</ele>
        <time>2019-02-06T09:29:11Z</time>
      </trkpt>
      <trkpt lat="46.24999" lon="6.55566">
        <ele>1194.09</ele>
        <time>2019-02-06T09:29:27Z</time>
      </trkpt>
      <trkpt lat="46.24999" lon="6.55567">
        <ele>1194.58</ele>
        <time>2019-02-06T09:30:07Z</time>
      </trkpt>
      <trkpt lat="46.24998" lon="6.55567">
        <ele>1195.06</ele>
        <time>2019-02-06T09:30:42Z</time>
      </trkpt>
      <trkpt lat="46.24997" lon="6.55568">
        <ele>1195.06</ele>
        <time>2019-02-06T09:31:09Z</time>
      </trkpt>
      <trkpt lat="46.24997" lon="6.55568">
        <ele>1195.54</ele>
        <time>2019-02-06T09:31:17Z</time>
      </trkpt>
      <trkpt lat="46.24993" lon="6.55581">
        <ele>1196.98</ele>
        <time>2019-02-06T09:31:29Z</time>
      </trkpt>
      <trkpt lat="46.24992" lon="6.55585">
        <ele>1197.46</ele>
        <time>2019-02-06T09:31:33Z</time>
      </trkpt>
      <trkpt lat="46.24992" lon="6.55587">
        <ele>1196.98</ele>
        <time>2019-02-06T09:31:35Z</time>
      </trkpt>
      <trkpt lat="46.24987" lon="6.55599">
        <ele>1198.42</ele>
        <time>2019-02-06T09:31:46Z</time>
      </trkpt>
      <trkpt lat="46.24983" lon="6.5561">
        <ele>1199.38</ele>
        <time>2019-02-06T09:31:56Z</time>
      </trkpt>
      <trkpt lat="46.24982" lon="6.55614">
        <ele>1199.86</ele>
        <time>2019-02-06T09:32:01Z</time>
      </trkpt>
      <trkpt lat="46.24976" lon="6.55625">
        <ele>1200.82</ele>
        <time>2019-02-06T09:32:13Z</time>
      </trkpt>
      <trkpt lat="46.24969" lon="6.55634">
        <ele>1201.79</ele>
        <time>2019-02-06T09:32:23Z</time>
      </trkpt>
      <trkpt lat="46.24963" lon="6.55646">
        <ele>1202.75</ele>
        <time>2019-02-06T09:32:33Z</time>
      </trkpt>
      <trkpt lat="46.24958" lon="6.55657">
        <ele>1203.23</ele>
        <time>2019-02-06T09:32:45Z</time>
      </trkpt>
      <trkpt lat="46.24955" lon="6.5566">
        <ele>1203.23</ele>
        <time>2019-02-06T09:32:49Z</time>
      </trkpt>
      <trkpt lat="46.24951" lon="6.55663">
        <ele>1204.67</ele>
        <time>2019-02-06T09:32:57Z</time>
      </trkpt>
      <trkpt lat="46.24949" lon="6.55665">
        <ele>1204.67</ele>
        <time>2019-02-06T09:33:00Z</time>
      </trkpt>
      <trkpt lat="46.2494" lon="6.55674">
        <ele>1205.15</ele>
        <time>2019-02-06T09:33:11Z</time>
      </trkpt>
      <trkpt lat="46.24934" lon="6.55679">
        <ele>1206.11</ele>
        <time>2019-02-06T09:33:17Z</time>
      </trkpt>
      <trkpt lat="46.24933" lon="6.55683">
        <ele>1205.63</ele>
        <time>2019-02-06T09:33:20Z</time>
      </trkpt>
      <trkpt lat="46.24931" lon="6.55696">
        <ele>1206.59</ele>
        <time>2019-02-06T09:33:32Z</time>
      </trkpt>
      <trkpt lat="46.24928" lon="6.55703">
        <ele>1207.55</ele>
        <time>2019-02-06T09:33:38Z</time>
      </trkpt>
      <trkpt lat="46.24925" lon="6.55709">
        <ele>1208.03</ele>
        <time>2019-02-06T09:33:46Z</time>
      </trkpt>
      <trkpt lat="46.24924" lon="6.55712">
        <ele>1208.03</ele>
        <time>2019-02-06T09:33:48Z</time>
      </trkpt>
      <trkpt lat="46.24921" lon="6.55725">
        <ele>1209</ele>
        <time>2019-02-06T09:34:00Z</time>
      </trkpt>
      <trkpt lat="46.24919" lon="6.55727">
        <ele>1209</ele>
        <time>2019-02-06T09:34:03Z</time>
      </trkpt>
      <trkpt lat="46.24912" lon="6.55741">
        <ele>1209.48</ele>
        <time>2019-02-06T09:34:15Z</time>
      </trkpt>
      <trkpt lat="46.24909" lon="6.5575">
        <ele>1210.92</ele>
        <time>2019-02-06T09:34:23Z</time>
      </trkpt>
      <trkpt lat="46.24906" lon="6.55758">
        <ele>1210.44</ele>
        <time>2019-02-06T09:34:30Z</time>
      </trkpt>
      <trkpt lat="46.24904" lon="6.55761">
        <ele>1211.88</ele>
        <time>2019-02-06T09:34:34Z</time>
      </trkpt>
      <trkpt lat="46.24901" lon="6.5577">
        <ele>1212.84</ele>
        <time>2019-02-06T09:34:44Z</time>
      </trkpt>
      <trkpt lat="46.24897" lon="6.55777">
        <ele>1213.32</ele>
        <time>2019-02-06T09:34:52Z</time>
      </trkpt>
      <trkpt lat="46.2489" lon="6.55787">
        <ele>1214.76</ele>
        <time>2019-02-06T09:35:05Z</time>
      </trkpt>
      <trkpt lat="46.24888" lon="6.55788">
        <ele>1215.72</ele>
        <time>2019-02-06T09:35:18Z</time>
      </trkpt>
      <trkpt lat="46.24888" lon="6.55788">
        <ele>1215.72</ele>
        <time>2019-02-06T09:36:16Z</time>
      </trkpt>
      <trkpt lat="46.24881" lon="6.55786">
        <ele>1216.69</ele>
        <time>2019-02-06T09:37:27Z</time>
      </trkpt>
      <trkpt lat="46.24878" lon="6.55776">
        <ele>1217.65</ele>
        <time>2019-02-06T09:38:23Z</time>
      </trkpt>
      <trkpt lat="46.24876" lon="6.55764">
        <ele>1217.17</ele>
        <time>2019-02-06T09:38:35Z</time>
      </trkpt>
      <trkpt lat="46.24875" lon="6.55763">
        <ele>1217.65</ele>
        <time>2019-02-06T09:38:36Z</time>
      </trkpt>
      <trkpt lat="46.24871" lon="6.55752">
        <ele>1217.17</ele>
        <time>2019-02-06T09:38:47Z</time>
      </trkpt>
      <trkpt lat="46.24869" lon="6.5574">
        <ele>1217.65</ele>
        <time>2019-02-06T09:38:58Z</time>
      </trkpt>
      <trkpt lat="46.24866" lon="6.55726">
        <ele>1217.65</ele>
        <time>2019-02-06T09:39:10Z</time>
      </trkpt>
      <trkpt lat="46.24866" lon="6.5572">
        <ele>1217.65</ele>
        <time>2019-02-06T09:39:15Z</time>
      </trkpt>
      <trkpt lat="46.24862" lon="6.55704">
        <ele>1217.65</ele>
        <time>2019-02-06T09:39:29Z</time>
      </trkpt>
      <trkpt lat="46.24861" lon="6.55692">
        <ele>1217.65</ele>
        <time>2019-02-06T09:39:39Z</time>
      </trkpt>
      <trkpt lat="46.2486" lon="6.55678">
        <ele>1216.69</ele>
        <time>2019-02-06T09:39:50Z</time>
      </trkpt>
      <trkpt lat="46.24859" lon="6.55665">
        <ele>1217.17</ele>
        <time>2019-02-06T09:40:00Z</time>
      </trkpt>
      <trkpt lat="46.24858" lon="6.55663">
        <ele>1216.69</ele>
        <time>2019-02-06T09:40:02Z</time>
      </trkpt>
      <trkpt lat="46.2486" lon="6.55651">
        <ele>1216.69</ele>
        <time>2019-02-06T09:40:13Z</time>
      </trkpt>
      <trkpt lat="46.24859" lon="6.5564">
        <ele>1217.65</ele>
        <time>2019-02-06T09:40:24Z</time>
      </trkpt>
      <trkpt lat="46.24861" lon="6.55628">
        <ele>1218.61</ele>
        <time>2019-02-06T09:40:36Z</time>
      </trkpt>
      <trkpt lat="46.24861" lon="6.55614">
        <ele>1219.57</ele>
        <time>2019-02-06T09:40:49Z</time>
      </trkpt>
      <trkpt lat="46.24862" lon="6.55603">
        <ele>1221.01</ele>
        <time>2019-02-06T09:41:02Z</time>
      </trkpt>
      <trkpt lat="46.24866" lon="6.55595">
        <ele>1222.45</ele>
        <time>2019-02-06T09:41:13Z</time>
      </trkpt>
      <trkpt lat="46.24866" lon="6.55586">
        <ele>1224.38</ele>
        <time>2019-02-06T09:41:23Z</time>
      </trkpt>
      <trkpt lat="46.24866" lon="6.55585">
        <ele>1224.86</ele>
        <time>2019-02-06T09:41:38Z</time>
      </trkpt>
      <trkpt lat="46.24866" lon="6.55586">
        <ele>1224.38</ele>
        <time>2019-02-06T09:41:57Z</time>
      </trkpt>
      <trkpt lat="46.24866" lon="6.55585">
        <ele>1224.86</ele>
        <time>2019-02-06T09:42:41Z</time>
      </trkpt>
      <trkpt lat="46.24863" lon="6.55581">
        <ele>1225.34</ele>
        <time>2019-02-06T09:43:24Z</time>
      </trkpt>
      <trkpt lat="46.24862" lon="6.5558">
        <ele>1225.82</ele>
        <time>2019-02-06T09:43:26Z</time>
      </trkpt>
      <trkpt lat="46.24863" lon="6.5557">
        <ele>1227.26</ele>
        <time>2019-02-06T09:43:36Z</time>
      </trkpt>
      <trkpt lat="46.24864" lon="6.55569">
        <ele>1227.26</ele>
        <time>2019-02-06T09:43:37Z</time>
      </trkpt>
      <trkpt lat="46.24859" lon="6.5556">
        <ele>1228.7</ele>
        <time>2019-02-06T09:43:48Z</time>
      </trkpt>
      <trkpt lat="46.24857" lon="6.55556">
        <ele>1230.62</ele>
        <time>2019-02-06T09:43:55Z</time>
      </trkpt>
      <trkpt lat="46.24855" lon="6.5555">
        <ele>1231.11</ele>
        <time>2019-02-06T09:44:04Z</time>
      </trkpt>
      <trkpt lat="46.24852" lon="6.5554">
        <ele>1232.07</ele>
        <time>2019-02-06T09:44:15Z</time>
      </trkpt>
      <trkpt lat="46.24847" lon="6.55533">
        <ele>1233.99</ele>
        <time>2019-02-06T09:44:28Z</time>
      </trkpt>
      <trkpt lat="46.24844" lon="6.55527">
        <ele>1235.91</ele>
        <time>2019-02-06T09:44:39Z</time>
      </trkpt>
      <trkpt lat="46.24842" lon="6.55522">
        <ele>1237.35</ele>
        <time>2019-02-06T09:44:50Z</time>
      </trkpt>
      <trkpt lat="46.24839" lon="6.55512">
        <ele>1237.83</ele>
        <time>2019-02-06T09:45:00Z</time>
      </trkpt>
      <trkpt lat="46.24836" lon="6.55505">
        <ele>1238.8</ele>
        <time>2019-02-06T09:45:10Z</time>
      </trkpt>
      <trkpt lat="46.2483" lon="6.55493">
        <ele>1240.24</ele>
        <time>2019-02-06T09:45:22Z</time>
      </trkpt>
      <trkpt lat="46.24827" lon="6.55485">
        <ele>1240.24</ele>
        <time>2019-02-06T09:45:29Z</time>
      </trkpt>
      <trkpt lat="46.24825" lon="6.55474">
        <ele>1241.2</ele>
        <time>2019-02-06T09:45:40Z</time>
      </trkpt>
      <trkpt lat="46.24824" lon="6.55464">
        <ele>1241.68</ele>
        <time>2019-02-06T09:45:52Z</time>
      </trkpt>
      <trkpt lat="46.2482" lon="6.55457">
        <ele>1242.64</ele>
        <time>2019-02-06T09:46:04Z</time>
      </trkpt>
      <trkpt lat="46.24818" lon="6.55449">
        <ele>1243.6</ele>
        <time>2019-02-06T09:46:15Z</time>
      </trkpt>
      <trkpt lat="46.24813" lon="6.55439">
        <ele>1243.6</ele>
        <time>2019-02-06T09:46:25Z</time>
      </trkpt>
      <trkpt lat="46.2481" lon="6.55425">
        <ele>1245.53</ele>
        <time>2019-02-06T09:46:36Z</time>
      </trkpt>
      <trkpt lat="46.24804" lon="6.55413">
        <ele>1245.53</ele>
        <time>2019-02-06T09:46:48Z</time>
      </trkpt>
      <trkpt lat="46.24804" lon="6.55412">
        <ele>1245.53</ele>
        <time>2019-02-06T09:46:49Z</time>
      </trkpt>
      <trkpt lat="46.24802" lon="6.55411">
        <ele>1245.04</ele>
        <time>2019-02-06T09:46:51Z</time>
      </trkpt>
      <trkpt lat="46.24799" lon="6.55401">
        <ele>1246.49</ele>
        <time>2019-02-06T09:47:02Z</time>
      </trkpt>
      <trkpt lat="46.24796" lon="6.55395">
        <ele>1246.49</ele>
        <time>2019-02-06T09:47:14Z</time>
      </trkpt>
      <trkpt lat="46.24795" lon="6.55396">
        <ele>1246.97</ele>
        <time>2019-02-06T09:47:36Z</time>
      </trkpt>
      <trkpt lat="46.24796" lon="6.55396">
        <ele>1247.45</ele>
        <time>2019-02-06T09:49:34Z</time>
      </trkpt>
      <trkpt lat="46.24792" lon="6.55392">
        <ele>1247.93</ele>
        <time>2019-02-06T09:49:45Z</time>
      </trkpt>
      <trkpt lat="46.24787" lon="6.55388">
        <ele>1249.85</ele>
        <time>2019-02-06T09:49:55Z</time>
      </trkpt>
      <trkpt lat="46.24785" lon="6.55387">
        <ele>1250.81</ele>
        <time>2019-02-06T09:50:00Z</time>
      </trkpt>
      <trkpt lat="46.24782" lon="6.55385">
        <ele>1251.29</ele>
        <time>2019-02-06T09:50:05Z</time>
      </trkpt>
      <trkpt lat="46.24779" lon="6.55383">
        <ele>1251.77</ele>
        <time>2019-02-06T09:50:09Z</time>
      </trkpt>
      <trkpt lat="46.2477" lon="6.55383">
        <ele>1253.22</ele>
        <time>2019-02-06T09:50:22Z</time>
      </trkpt>
      <trkpt lat="46.24766" lon="6.55385">
        <ele>1255.14</ele>
        <time>2019-02-06T09:50:32Z</time>
      </trkpt>
      <trkpt lat="46.24764" lon="6.55384">
        <ele>1255.62</ele>
        <time>2019-02-06T09:50:35Z</time>
      </trkpt>
      <trkpt lat="46.24758" lon="6.55385">
        <ele>1256.58</ele>
        <time>2019-02-06T09:50:44Z</time>
      </trkpt>
      <trkpt lat="46.24753" lon="6.55382">
        <ele>1258.02</ele>
        <time>2019-02-06T09:50:57Z</time>
      </trkpt>
      <trkpt lat="46.24748" lon="6.5538">
        <ele>1260.43</ele>
        <time>2019-02-06T09:51:10Z</time>
      </trkpt>
      <trkpt lat="46.24744" lon="6.55373">
        <ele>1261.87</ele>
        <time>2019-02-06T09:51:22Z</time>
      </trkpt>
      <trkpt lat="46.24741" lon="6.55369">
        <ele>1262.83</ele>
        <time>2019-02-06T09:51:32Z</time>
      </trkpt>
      <trkpt lat="46.24738" lon="6.55364">
        <ele>1264.75</ele>
        <time>2019-02-06T09:51:43Z</time>
      </trkpt>
      <trkpt lat="46.24731" lon="6.55361">
        <ele>1267.16</ele>
        <time>2019-02-06T09:51:57Z</time>
      </trkpt>
      <trkpt lat="46.24727" lon="6.55353">
        <ele>1268.12</ele>
        <time>2019-02-06T09:52:10Z</time>
      </trkpt>
      <trkpt lat="46.24719" lon="6.55352">
        <ele>1270.04</ele>
        <time>2019-02-06T09:52:22Z</time>
      </trkpt>
      <trkpt lat="46.24712" lon="6.55351">
        <ele>1271.96</ele>
        <time>2019-02-06T09:52:35Z</time>
      </trkpt>
      <trkpt lat="46.2471" lon="6.55351">
        <ele>1272.92</ele>
        <time>2019-02-06T09:52:49Z</time>
      </trkpt>
      <trkpt lat="46.24708" lon="6.5535">
        <ele>1273.88</ele>
        <time>2019-02-06T09:52:59Z</time>
      </trkpt>
      <trkpt lat="46.24705" lon="6.55347">
        <ele>1275.33</ele>
        <time>2019-02-06T09:53:10Z</time>
      </trkpt>
      <trkpt lat="46.24699" lon="6.55347">
        <ele>1277.73</ele>
        <time>2019-02-06T09:53:29Z</time>
      </trkpt>
      <trkpt lat="46.24692" lon="6.55347">
        <ele>1279.65</ele>
        <time>2019-02-06T09:53:42Z</time>
      </trkpt>
      <trkpt lat="46.24688" lon="6.55351">
        <ele>1281.57</ele>
        <time>2019-02-06T09:53:55Z</time>
      </trkpt>
      <trkpt lat="46.24684" lon="6.55352">
        <ele>1282.54</ele>
        <time>2019-02-06T09:54:07Z</time>
      </trkpt>
      <trkpt lat="46.24678" lon="6.55353">
        <ele>1284.94</ele>
        <time>2019-02-06T09:54:20Z</time>
      </trkpt>
      <trkpt lat="46.24672" lon="6.55355">
        <ele>1285.9</ele>
        <time>2019-02-06T09:54:25Z</time>
      </trkpt>
      <trkpt lat="46.24665" lon="6.55359">
        <ele>1286.86</ele>
        <time>2019-02-06T09:54:40Z</time>
      </trkpt>
      <trkpt lat="46.24666" lon="6.55358">
        <ele>1286.86</ele>
        <time>2019-02-06T09:55:08Z</time>
      </trkpt>
      <trkpt lat="46.24668" lon="6.55359">
        <ele>1286.86</ele>
        <time>2019-02-06T09:56:17Z</time>
      </trkpt>
      <trkpt lat="46.24668" lon="6.55358">
        <ele>1288.78</ele>
        <time>2019-02-06T09:57:42Z</time>
      </trkpt>
      <trkpt lat="46.24669" lon="6.55358">
        <ele>1289.27</ele>
        <time>2019-02-06T09:58:16Z</time>
      </trkpt>
      <trkpt lat="46.24665" lon="6.55356">
        <ele>1290.71</ele>
        <time>2019-02-06T09:59:00Z</time>
      </trkpt>
      <trkpt lat="46.24662" lon="6.55354">
        <ele>1293.11</ele>
        <time>2019-02-06T09:59:14Z</time>
      </trkpt>
      <trkpt lat="46.24657" lon="6.55351">
        <ele>1294.55</ele>
        <time>2019-02-06T09:59:23Z</time>
      </trkpt>
      <trkpt lat="46.24655" lon="6.55348">
        <ele>1295.51</ele>
        <time>2019-02-06T09:59:33Z</time>
      </trkpt>
      <trkpt lat="46.24653" lon="6.55345">
        <ele>1298.4</ele>
        <time>2019-02-06T09:59:47Z</time>
      </trkpt>
      <trkpt lat="46.24647" lon="6.55341">
        <ele>1300.32</ele>
        <time>2019-02-06T09:59:57Z</time>
      </trkpt>
      <trkpt lat="46.24641" lon="6.55339">
        <ele>1301.76</ele>
        <time>2019-02-06T10:00:07Z</time>
      </trkpt>
      <trkpt lat="46.24633" lon="6.55336">
        <ele>1303.69</ele>
        <time>2019-02-06T10:00:19Z</time>
      </trkpt>
      <trkpt lat="46.2463" lon="6.55333">
        <ele>1305.13</ele>
        <time>2019-02-06T10:00:33Z</time>
      </trkpt>
      <trkpt lat="46.2463" lon="6.5533">
        <ele>1307.53</ele>
        <time>2019-02-06T10:00:43Z</time>
      </trkpt>
      <trkpt lat="46.24621" lon="6.55326">
        <ele>1309.45</ele>
        <time>2019-02-06T10:00:54Z</time>
      </trkpt>
      <trkpt lat="46.24619" lon="6.55323">
        <ele>1310.41</ele>
        <time>2019-02-06T10:01:04Z</time>
      </trkpt>
      <trkpt lat="46.24613" lon="6.5532">
        <ele>1311.38</ele>
        <time>2019-02-06T10:01:13Z</time>
      </trkpt>
      <trkpt lat="46.2461" lon="6.55314">
        <ele>1313.3</ele>
        <time>2019-02-06T10:01:24Z</time>
      </trkpt>
      <trkpt lat="46.2461" lon="6.55311">
        <ele>1313.78</ele>
        <time>2019-02-06T10:01:28Z</time>
      </trkpt>
      <trkpt lat="46.24608" lon="6.55308">
        <ele>1315.22</ele>
        <time>2019-02-06T10:01:38Z</time>
      </trkpt>
      <trkpt lat="46.24606" lon="6.55303">
        <ele>1315.7</ele>
        <time>2019-02-06T10:01:44Z</time>
      </trkpt>
      <trkpt lat="46.24603" lon="6.55297">
        <ele>1317.14</ele>
        <time>2019-02-06T10:01:57Z</time>
      </trkpt>
      <trkpt lat="46.24603" lon="6.55291">
        <ele>1318.59</ele>
        <time>2019-02-06T10:02:06Z</time>
      </trkpt>
      <trkpt lat="46.24601" lon="6.55284">
        <ele>1319.55</ele>
        <time>2019-02-06T10:02:14Z</time>
      </trkpt>
      <trkpt lat="46.24608" lon="6.55274">
        <ele>1321.47</ele>
        <time>2019-02-06T10:02:25Z</time>
      </trkpt>
      <trkpt lat="46.24608" lon="6.55271">
        <ele>1321.95</ele>
        <time>2019-02-06T10:02:33Z</time>
      </trkpt>
      <trkpt lat="46.2461" lon="6.55268">
        <ele>1322.91</ele>
        <time>2019-02-06T10:02:43Z</time>
      </trkpt>
      <trkpt lat="46.24617" lon="6.5526">
        <ele>1323.39</ele>
        <time>2019-02-06T10:02:53Z</time>
      </trkpt>
      <trkpt lat="46.2462" lon="6.5525">
        <ele>1322.91</ele>
        <time>2019-02-06T10:03:02Z</time>
      </trkpt>
      <trkpt lat="46.2462" lon="6.55249">
        <ele>1322.43</ele>
        <time>2019-02-06T10:03:03Z</time>
      </trkpt>
      <trkpt lat="46.24621" lon="6.55236">
        <ele>1322.43</ele>
        <time>2019-02-06T10:03:14Z</time>
      </trkpt>
      <trkpt lat="46.2462" lon="6.55231">
        <ele>1323.39</ele>
        <time>2019-02-06T10:03:21Z</time>
      </trkpt>
      <trkpt lat="46.24621" lon="6.55227">
        <ele>1323.87</ele>
        <time>2019-02-06T10:03:24Z</time>
      </trkpt>
      <trkpt lat="46.24623" lon="6.5522">
        <ele>1323.39</ele>
        <time>2019-02-06T10:03:30Z</time>
      </trkpt>
      <trkpt lat="46.24626" lon="6.55215">
        <ele>1324.35</ele>
        <time>2019-02-06T10:03:36Z</time>
      </trkpt>
      <trkpt lat="46.24627" lon="6.55209">
        <ele>1325.8</ele>
        <time>2019-02-06T10:03:47Z</time>
      </trkpt>
      <trkpt lat="46.24627" lon="6.55206">
        <ele>1326.28</ele>
        <time>2019-02-06T10:03:53Z</time>
      </trkpt>
      <trkpt lat="46.24625" lon="6.55203">
        <ele>1327.24</ele>
        <time>2019-02-06T10:04:00Z</time>
      </trkpt>
      <trkpt lat="46.24624" lon="6.55199">
        <ele>1327.72</ele>
        <time>2019-02-06T10:04:09Z</time>
      </trkpt>
      <trkpt lat="46.24622" lon="6.55199">
        <ele>1330.12</ele>
        <time>2019-02-06T10:04:20Z</time>
      </trkpt>
      <trkpt lat="46.24618" lon="6.55198">
        <ele>1331.56</ele>
        <time>2019-02-06T10:04:29Z</time>
      </trkpt>
      <trkpt lat="46.24617" lon="6.55198">
        <ele>1333.01</ele>
        <time>2019-02-06T10:04:38Z</time>
      </trkpt>
      <trkpt lat="46.24615" lon="6.55197">
        <ele>1334.93</ele>
        <time>2019-02-06T10:04:51Z</time>
      </trkpt>
      <trkpt lat="46.24615" lon="6.55197">
        <ele>1335.89</ele>
        <time>2019-02-06T10:05:04Z</time>
      </trkpt>
      <trkpt lat="46.24609" lon="6.55195">
        <ele>1337.33</ele>
        <time>2019-02-06T10:05:15Z</time>
      </trkpt>
      <trkpt lat="46.24605" lon="6.55197">
        <ele>1337.81</ele>
        <time>2019-02-06T10:05:27Z</time>
      </trkpt>
      <trkpt lat="46.24605" lon="6.55197">
        <ele>1337.81</ele>
        <time>2019-02-06T10:06:10Z</time>
      </trkpt>
      <trkpt lat="46.24604" lon="6.55197">
        <ele>1337.81</ele>
        <time>2019-02-06T10:06:47Z</time>
      </trkpt>
      <trkpt lat="46.24603" lon="6.55194">
        <ele>1337.81</ele>
        <time>2019-02-06T10:08:35Z</time>
      </trkpt>
      <trkpt lat="46.24603" lon="6.55194">
        <ele>1337.81</ele>
        <time>2019-02-06T10:09:26Z</time>
      </trkpt>
      <trkpt lat="46.24602" lon="6.55194">
        <ele>1337.81</ele>
        <time>2019-02-06T10:10:09Z</time>
      </trkpt>
      <trkpt lat="46.24594" lon="6.55192">
        <ele>1338.77</ele>
        <time>2019-02-06T10:10:48Z</time>
      </trkpt>
      <trkpt lat="46.24591" lon="6.55192">
        <ele>1339.25</ele>
        <time>2019-02-06T10:10:54Z</time>
      </trkpt>
      <trkpt lat="46.24587" lon="6.55193">
        <ele>1340.22</ele>
        <time>2019-02-06T10:11:05Z</time>
      </trkpt>
      <trkpt lat="46.24585" lon="6.55193">
        <ele>1341.66</ele>
        <time>2019-02-06T10:11:09Z</time>
      </trkpt>
      <trkpt lat="46.24579" lon="6.55192">
        <ele>1343.1</ele>
        <time>2019-02-06T10:11:21Z</time>
      </trkpt>
      <trkpt lat="46.24574" lon="6.55193">
        <ele>1345.02</ele>
        <time>2019-02-06T10:11:36Z</time>
      </trkpt>
      <trkpt lat="46.24571" lon="6.55193">
        <ele>1346.46</ele>
        <time>2019-02-06T10:11:44Z</time>
      </trkpt>
      <trkpt lat="46.24565" lon="6.55194">
        <ele>1346.94</ele>
        <time>2019-02-06T10:11:53Z</time>
      </trkpt>
      <trkpt lat="46.2456" lon="6.55197">
        <ele>1348.87</ele>
        <time>2019-02-06T10:12:03Z</time>
      </trkpt>
      <trkpt lat="46.24558" lon="6.55197">
        <ele>1348.87</ele>
        <time>2019-02-06T10:12:06Z</time>
      </trkpt>
      <trkpt lat="46.24555" lon="6.55198">
        <ele>1350.31</ele>
        <time>2019-02-06T10:12:14Z</time>
      </trkpt>
      <trkpt lat="46.24553" lon="6.55201">
        <ele>1351.27</ele>
        <time>2019-02-06T10:12:22Z</time>
      </trkpt>
      <trkpt lat="46.24547" lon="6.55207">
        <ele>1352.71</ele>
        <time>2019-02-06T10:12:31Z</time>
      </trkpt>
      <trkpt lat="46.24544" lon="6.55211">
        <ele>1354.15</ele>
        <time>2019-02-06T10:12:39Z</time>
      </trkpt>
      <trkpt lat="46.24544" lon="6.55213">
        <ele>1355.12</ele>
        <time>2019-02-06T10:12:49Z</time>
      </trkpt>
      <trkpt lat="46.24539" lon="6.55217">
        <ele>1356.56</ele>
        <time>2019-02-06T10:12:58Z</time>
      </trkpt>
      <trkpt lat="46.24535" lon="6.55212">
        <ele>1358</ele>
        <time>2019-02-06T10:13:08Z</time>
      </trkpt>
      <trkpt lat="46.24531" lon="6.55204">
        <ele>1359.92</ele>
        <time>2019-02-06T10:13:19Z</time>
      </trkpt>
      <trkpt lat="46.24531" lon="6.55197">
        <ele>1361.36</ele>
        <time>2019-02-06T10:13:30Z</time>
      </trkpt>
      <trkpt lat="46.24529" lon="6.5519">
        <ele>1362.33</ele>
        <time>2019-02-06T10:13:41Z</time>
      </trkpt>
      <trkpt lat="46.24526" lon="6.55184">
        <ele>1364.25</ele>
        <time>2019-02-06T10:13:54Z</time>
      </trkpt>
      <trkpt lat="46.24526" lon="6.55183">
        <ele>1364.73</ele>
        <time>2019-02-06T10:13:57Z</time>
      </trkpt>
      <trkpt lat="46.24524" lon="6.55172">
        <ele>1365.69</ele>
        <time>2019-02-06T10:14:09Z</time>
      </trkpt>
      <trkpt lat="46.24526" lon="6.55163">
        <ele>1366.65</ele>
        <time>2019-02-06T10:14:20Z</time>
      </trkpt>
      <trkpt lat="46.24522" lon="6.55151">
        <ele>1367.61</ele>
        <time>2019-02-06T10:14:31Z</time>
      </trkpt>
      <trkpt lat="46.24519" lon="6.55144">
        <ele>1369.05</ele>
        <time>2019-02-06T10:14:43Z</time>
      </trkpt>
      <trkpt lat="46.24516" lon="6.55141">
        <ele>1370.98</ele>
        <time>2019-02-06T10:14:53Z</time>
      </trkpt>
      <trkpt lat="46.24514" lon="6.55141">
        <ele>1371.94</ele>
        <time>2019-02-06T10:15:08Z</time>
      </trkpt>
      <trkpt lat="46.24513" lon="6.55141">
        <ele>1371.46</ele>
        <time>2019-02-06T10:16:03Z</time>
      </trkpt>
      <trkpt lat="46.24511" lon="6.55139">
        <ele>1370.5</ele>
        <time>2019-02-06T10:16:20Z</time>
      </trkpt>
      <trkpt lat="46.24511" lon="6.55139">
        <ele>1370.98</ele>
        <time>2019-02-06T10:17:13Z</time>
      </trkpt>
      <trkpt lat="46.24511" lon="6.55139">
        <ele>1370.98</ele>
        <time>2019-02-06T10:18:08Z</time>
      </trkpt>
      <trkpt lat="46.24511" lon="6.5514">
        <ele>1371.46</ele>
        <time>2019-02-06T10:18:38Z</time>
      </trkpt>
      <trkpt lat="46.24511" lon="6.5514">
        <ele>1371.94</ele>
        <time>2019-02-06T10:19:03Z</time>
      </trkpt>
      <trkpt lat="46.2451" lon="6.5514">
        <ele>1371.94</ele>
        <time>2019-02-06T10:20:04Z</time>
      </trkpt>
      <trkpt lat="46.24509" lon="6.5514">
        <ele>1371.94</ele>
        <time>2019-02-06T10:22:34Z</time>
      </trkpt>
      <trkpt lat="46.24509" lon="6.55139">
        <ele>1371.94</ele>
        <time>2019-02-06T10:24:05Z</time>
      </trkpt>
      <trkpt lat="46.24507" lon="6.55139">
        <ele>1372.42</ele>
        <time>2019-02-06T10:28:01Z</time>
      </trkpt>
      <trkpt lat="46.24504" lon="6.55148">
        <ele>1372.9</ele>
        <time>2019-02-06T10:28:16Z</time>
      </trkpt>
      <trkpt lat="46.24502" lon="6.55156">
        <ele>1373.86</ele>
        <time>2019-02-06T10:28:25Z</time>
      </trkpt>
      <trkpt lat="46.245" lon="6.55161">
        <ele>1375.3</ele>
        <time>2019-02-06T10:28:36Z</time>
      </trkpt>
      <trkpt lat="46.24498" lon="6.55163">
        <ele>1375.3</ele>
        <time>2019-02-06T10:28:40Z</time>
      </trkpt>
      <trkpt lat="46.24497" lon="6.55172">
        <ele>1377.23</ele>
        <time>2019-02-06T10:28:51Z</time>
      </trkpt>
      <trkpt lat="46.24495" lon="6.55181">
        <ele>1378.19</ele>
        <time>2019-02-06T10:29:02Z</time>
      </trkpt>
      <trkpt lat="46.24492" lon="6.55194">
        <ele>1377.23</ele>
        <time>2019-02-06T10:29:14Z</time>
      </trkpt>
      <trkpt lat="46.24491" lon="6.55206">
        <ele>1377.71</ele>
        <time>2019-02-06T10:29:25Z</time>
      </trkpt>
      <trkpt lat="46.24488" lon="6.55225">
        <ele>1377.71</ele>
        <time>2019-02-06T10:29:39Z</time>
      </trkpt>
      <trkpt lat="46.24487" lon="6.55233">
        <ele>1378.67</ele>
        <time>2019-02-06T10:29:47Z</time>
      </trkpt>
      <trkpt lat="46.24485" lon="6.55244">
        <ele>1379.15</ele>
        <time>2019-02-06T10:29:59Z</time>
      </trkpt>
      <trkpt lat="46.24485" lon="6.55247">
        <ele>1380.59</ele>
        <time>2019-02-06T10:30:01Z</time>
      </trkpt>
      <trkpt lat="46.24483" lon="6.55256">
        <ele>1381.07</ele>
        <time>2019-02-06T10:30:12Z</time>
      </trkpt>
      <trkpt lat="46.24479" lon="6.55263">
        <ele>1382.51</ele>
        <time>2019-02-06T10:30:24Z</time>
      </trkpt>
      <trkpt lat="46.24474" lon="6.55271">
        <ele>1384.92</ele>
        <time>2019-02-06T10:30:38Z</time>
      </trkpt>
      <trkpt lat="46.2447" lon="6.55278">
        <ele>1385.88</ele>
        <time>2019-02-06T10:30:49Z</time>
      </trkpt>
      <trkpt lat="46.24464" lon="6.55287">
        <ele>1386.36</ele>
        <time>2019-02-06T10:31:01Z</time>
      </trkpt>
      <trkpt lat="46.24461" lon="6.55294">
        <ele>1387.8</ele>
        <time>2019-02-06T10:31:11Z</time>
      </trkpt>
      <trkpt lat="46.24458" lon="6.55301">
        <ele>1389.72</ele>
        <time>2019-02-06T10:31:24Z</time>
      </trkpt>
      <trkpt lat="46.24456" lon="6.55307">
        <ele>1390.2</ele>
        <time>2019-02-06T10:31:31Z</time>
      </trkpt>
      <trkpt lat="46.24451" lon="6.55314">
        <ele>1391.17</ele>
        <time>2019-02-06T10:31:42Z</time>
      </trkpt>
      <trkpt lat="46.2445" lon="6.55323">
        <ele>1392.61</ele>
        <time>2019-02-06T10:31:54Z</time>
      </trkpt>
      <trkpt lat="46.24447" lon="6.55334">
        <ele>1394.05</ele>
        <time>2019-02-06T10:32:06Z</time>
      </trkpt>
      <trkpt lat="46.24444" lon="6.55338">
        <ele>1395.01</ele>
        <time>2019-02-06T10:32:13Z</time>
      </trkpt>
      <trkpt lat="46.24445" lon="6.55347">
        <ele>1396.93</ele>
        <time>2019-02-06T10:32:26Z</time>
      </trkpt>
      <trkpt lat="46.24441" lon="6.55352">
        <ele>1397.89</ele>
        <time>2019-02-06T10:32:37Z</time>
      </trkpt>
      <trkpt lat="46.2444" lon="6.55356">
        <ele>1399.34</ele>
        <time>2019-02-06T10:32:43Z</time>
      </trkpt>
      <trkpt lat="46.24436" lon="6.55363">
        <ele>1400.3</ele>
        <time>2019-02-06T10:32:54Z</time>
      </trkpt>
      <trkpt lat="46.24434" lon="6.55368">
        <ele>1402.7</ele>
        <time>2019-02-06T10:33:05Z</time>
      </trkpt>
      <trkpt lat="46.24433" lon="6.5537">
        <ele>1402.7</ele>
        <time>2019-02-06T10:33:11Z</time>
      </trkpt>
      <trkpt lat="46.24433" lon="6.55371">
        <ele>1404.14</ele>
        <time>2019-02-06T10:33:21Z</time>
      </trkpt>
      <trkpt lat="46.24425" lon="6.5537">
        <ele>1406.07</ele>
        <time>2019-02-06T10:33:32Z</time>
      </trkpt>
      <trkpt lat="46.24418" lon="6.55368">
        <ele>1407.51</ele>
        <time>2019-02-06T10:33:47Z</time>
      </trkpt>
      <trkpt lat="46.24409" lon="6.55368">
        <ele>1408.95</ele>
        <time>2019-02-06T10:33:58Z</time>
      </trkpt>
      <trkpt lat="46.24402" lon="6.55372">
        <ele>1409.91</ele>
        <time>2019-02-06T10:34:11Z</time>
      </trkpt>
      <trkpt lat="46.24393" lon="6.55378">
        <ele>1410.87</ele>
        <time>2019-02-06T10:34:24Z</time>
      </trkpt>
      <trkpt lat="46.24385" lon="6.55384">
        <ele>1412.79</ele>
        <time>2019-02-06T10:34:38Z</time>
      </trkpt>
      <trkpt lat="46.24377" lon="6.55388">
        <ele>1413.76</ele>
        <time>2019-02-06T10:34:49Z</time>
      </trkpt>
      <trkpt lat="46.2437" lon="6.55396">
        <ele>1414.72</ele>
        <time>2019-02-06T10:35:02Z</time>
      </trkpt>
      <trkpt lat="46.24366" lon="6.55398">
        <ele>1414.72</ele>
        <time>2019-02-06T10:35:07Z</time>
      </trkpt>
      <trkpt lat="46.24356" lon="6.554">
        <ele>1414.24</ele>
        <time>2019-02-06T10:35:20Z</time>
      </trkpt>
      <trkpt lat="46.24351" lon="6.55399">
        <ele>1413.76</ele>
        <time>2019-02-06T10:35:32Z</time>
      </trkpt>
      <trkpt lat="46.2435" lon="6.55398">
        <ele>1414.24</ele>
        <time>2019-02-06T10:35:51Z</time>
      </trkpt>
      <trkpt lat="46.24351" lon="6.55398">
        <ele>1413.76</ele>
        <time>2019-02-06T10:36:25Z</time>
      </trkpt>
      <trkpt lat="46.24351" lon="6.55398">
        <ele>1413.76</ele>
        <time>2019-02-06T10:37:20Z</time>
      </trkpt>
      <trkpt lat="46.24349" lon="6.55396">
        <ele>1414.24</ele>
        <time>2019-02-06T10:38:36Z</time>
      </trkpt>
      <trkpt lat="46.24344" lon="6.55399">
        <ele>1414.24</ele>
        <time>2019-02-06T10:39:49Z</time>
      </trkpt>
      <trkpt lat="46.24339" lon="6.55403">
        <ele>1414.24</ele>
        <time>2019-02-06T10:39:59Z</time>
      </trkpt>
      <trkpt lat="46.24339" lon="6.55404">
        <ele>1414.24</ele>
        <time>2019-02-06T10:40:18Z</time>
      </trkpt>
      <trkpt lat="46.2433" lon="6.5541">
        <ele>1414.24</ele>
        <time>2019-02-06T10:40:30Z</time>
      </trkpt>
      <trkpt lat="46.24324" lon="6.55418">
        <ele>1413.28</ele>
        <time>2019-02-06T10:40:41Z</time>
      </trkpt>
      <trkpt lat="46.24314" lon="6.55422">
        <ele>1413.76</ele>
        <time>2019-02-06T10:40:53Z</time>
      </trkpt>
      <trkpt lat="46.24314" lon="6.55423">
        <ele>1413.76</ele>
        <time>2019-02-06T10:40:55Z</time>
      </trkpt>
      <trkpt lat="46.2431" lon="6.55432">
        <ele>1414.24</ele>
        <time>2019-02-06T10:41:06Z</time>
      </trkpt>
      <trkpt lat="46.24307" lon="6.55436">
        <ele>1414.72</ele>
        <time>2019-02-06T10:41:24Z</time>
      </trkpt>
      <trkpt lat="46.24306" lon="6.55441">
        <ele>1415.68</ele>
        <time>2019-02-06T10:41:36Z</time>
      </trkpt>
      <trkpt lat="46.24302" lon="6.55451">
        <ele>1415.68</ele>
        <time>2019-02-06T10:41:51Z</time>
      </trkpt>
      <trkpt lat="46.24296" lon="6.5546">
        <ele>1416.64</ele>
        <time>2019-02-06T10:42:03Z</time>
      </trkpt>
      <trkpt lat="46.24294" lon="6.55464">
        <ele>1416.64</ele>
        <time>2019-02-06T10:42:09Z</time>
      </trkpt>
      <trkpt lat="46.24287" lon="6.55477">
        <ele>1418.08</ele>
        <time>2019-02-06T10:42:23Z</time>
      </trkpt>
      <trkpt lat="46.24282" lon="6.5548">
        <ele>1419.52</ele>
        <time>2019-02-06T10:42:36Z</time>
      </trkpt>
      <trkpt lat="46.24271" lon="6.55479">
        <ele>1420</ele>
        <time>2019-02-06T10:42:49Z</time>
      </trkpt>
      <trkpt lat="46.24266" lon="6.55483">
        <ele>1420</ele>
        <time>2019-02-06T10:42:56Z</time>
      </trkpt>
      <trkpt lat="46.24262" lon="6.5549">
        <ele>1420.97</ele>
        <time>2019-02-06T10:43:03Z</time>
      </trkpt>
      <trkpt lat="46.2426" lon="6.55494">
        <ele>1420.97</ele>
        <time>2019-02-06T10:43:09Z</time>
      </trkpt>
      <trkpt lat="46.24255" lon="6.55501">
        <ele>1421.45</ele>
        <time>2019-02-06T10:43:21Z</time>
      </trkpt>
      <trkpt lat="46.2425" lon="6.55509">
        <ele>1421.93</ele>
        <time>2019-02-06T10:43:31Z</time>
      </trkpt>
      <trkpt lat="46.24247" lon="6.55517">
        <ele>1423.37</ele>
        <time>2019-02-06T10:43:43Z</time>
      </trkpt>
      <trkpt lat="46.24244" lon="6.55524">
        <ele>1425.29</ele>
        <time>2019-02-06T10:43:53Z</time>
      </trkpt>
      <trkpt lat="46.24238" lon="6.55531">
        <ele>1426.25</ele>
        <time>2019-02-06T10:44:06Z</time>
      </trkpt>
      <trkpt lat="46.24233" lon="6.5554">
        <ele>1427.7</ele>
        <time>2019-02-06T10:44:18Z</time>
      </trkpt>
      <trkpt lat="46.2423" lon="6.55542">
        <ele>1427.7</ele>
        <time>2019-02-06T10:44:21Z</time>
      </trkpt>
      <trkpt lat="46.24222" lon="6.55544">
        <ele>1428.18</ele>
        <time>2019-02-06T10:44:33Z</time>
      </trkpt>
      <trkpt lat="46.24216" lon="6.55543">
        <ele>1427.7</ele>
        <time>2019-02-06T10:44:45Z</time>
      </trkpt>
      <trkpt lat="46.24206" lon="6.55546">
        <ele>1426.73</ele>
        <time>2019-02-06T10:44:58Z</time>
      </trkpt>
      <trkpt lat="46.24197" lon="6.55551">
        <ele>1425.77</ele>
        <time>2019-02-06T10:45:09Z</time>
      </trkpt>
      <trkpt lat="46.24189" lon="6.55554">
        <ele>1425.77</ele>
        <time>2019-02-06T10:45:20Z</time>
      </trkpt>
      <trkpt lat="46.24182" lon="6.55558">
        <ele>1425.77</ele>
        <time>2019-02-06T10:45:29Z</time>
      </trkpt>
      <trkpt lat="46.24173" lon="6.55562">
        <ele>1425.29</ele>
        <time>2019-02-06T10:45:42Z</time>
      </trkpt>
      <trkpt lat="46.24172" lon="6.55562">
        <ele>1424.81</ele>
        <time>2019-02-06T10:45:43Z</time>
      </trkpt>
      <trkpt lat="46.24161" lon="6.55568">
        <ele>1424.81</ele>
        <time>2019-02-06T10:45:57Z</time>
      </trkpt>
      <trkpt lat="46.24154" lon="6.55571">
        <ele>1424.81</ele>
        <time>2019-02-06T10:46:09Z</time>
      </trkpt>
      <trkpt lat="46.2415" lon="6.55575">
        <ele>1423.85</ele>
        <time>2019-02-06T10:46:20Z</time>
      </trkpt>
      <trkpt lat="46.24144" lon="6.5558">
        <ele>1424.33</ele>
        <time>2019-02-06T10:46:30Z</time>
      </trkpt>
      <trkpt lat="46.2414" lon="6.55581">
        <ele>1423.85</ele>
        <time>2019-02-06T10:46:42Z</time>
      </trkpt>
      <trkpt lat="46.2414" lon="6.55581">
        <ele>1423.85</ele>
        <time>2019-02-06T10:47:03Z</time>
      </trkpt>
      <trkpt lat="46.2414" lon="6.5558">
        <ele>1423.37</ele>
        <time>2019-02-06T10:48:19Z</time>
      </trkpt>
      <trkpt lat="46.24138" lon="6.55582">
        <ele>1423.37</ele>
        <time>2019-02-06T10:50:05Z</time>
      </trkpt>
      <trkpt lat="46.24135" lon="6.55579">
        <ele>1422.89</ele>
        <time>2019-02-06T10:50:09Z</time>
      </trkpt>
      <trkpt lat="46.24126" lon="6.55567">
        <ele>1420.49</ele>
        <time>2019-02-06T10:50:22Z</time>
      </trkpt>
      <trkpt lat="46.24123" lon="6.55564">
        <ele>1419.04</ele>
        <time>2019-02-06T10:50:27Z</time>
      </trkpt>
      <trkpt lat="46.24113" lon="6.55554">
        <ele>1417.12</ele>
        <time>2019-02-06T10:50:39Z</time>
      </trkpt>
      <trkpt lat="46.2411" lon="6.55552">
        <ele>1415.68</ele>
        <time>2019-02-06T10:50:44Z</time>
      </trkpt>
      <trkpt lat="46.24101" lon="6.55547">
        <ele>1413.28</ele>
        <time>2019-02-06T10:50:57Z</time>
      </trkpt>
      <trkpt lat="46.24095" lon="6.55543">
        <ele>1412.31</ele>
        <time>2019-02-06T10:51:04Z</time>
      </trkpt>
      <trkpt lat="46.24094" lon="6.55541">
        <ele>1411.83</ele>
        <time>2019-02-06T10:51:06Z</time>
      </trkpt>
      <trkpt lat="46.24088" lon="6.55532">
        <ele>1409.91</ele>
        <time>2019-02-06T10:51:19Z</time>
      </trkpt>
      <trkpt lat="46.24084" lon="6.55522">
        <ele>1409.43</ele>
        <time>2019-02-06T10:51:32Z</time>
      </trkpt>
      <trkpt lat="46.24075" lon="6.55513">
        <ele>1409.43</ele>
        <time>2019-02-06T10:51:44Z</time>
      </trkpt>
      <trkpt lat="46.24073" lon="6.55509">
        <ele>1409.43</ele>
        <time>2019-02-06T10:51:48Z</time>
      </trkpt>
      <trkpt lat="46.24071" lon="6.55508">
        <ele>1408.95</ele>
        <time>2019-02-06T10:51:50Z</time>
      </trkpt>
      <trkpt lat="46.24065" lon="6.55499">
        <ele>1409.43</ele>
        <time>2019-02-06T10:52:00Z</time>
      </trkpt>
      <trkpt lat="46.24063" lon="6.55498">
        <ele>1408.95</ele>
        <time>2019-02-06T10:52:02Z</time>
      </trkpt>
      <trkpt lat="46.2406" lon="6.55493">
        <ele>1408.95</ele>
        <time>2019-02-06T10:52:09Z</time>
      </trkpt>
      <trkpt lat="46.24053" lon="6.55479">
        <ele>1410.39</ele>
        <time>2019-02-06T10:52:22Z</time>
      </trkpt>
      <trkpt lat="46.24048" lon="6.55467">
        <ele>1410.39</ele>
        <time>2019-02-06T10:52:33Z</time>
      </trkpt>
      <trkpt lat="46.24041" lon="6.55455">
        <ele>1411.35</ele>
        <time>2019-02-06T10:52:45Z</time>
      </trkpt>
      <trkpt lat="46.2404" lon="6.55453">
        <ele>1411.83</ele>
        <time>2019-02-06T10:52:47Z</time>
      </trkpt>
      <trkpt lat="46.24036" lon="6.55443">
        <ele>1412.79</ele>
        <time>2019-02-06T10:52:58Z</time>
      </trkpt>
      <trkpt lat="46.24033" lon="6.55434">
        <ele>1413.28</ele>
        <time>2019-02-06T10:53:10Z</time>
      </trkpt>
      <trkpt lat="46.24029" lon="6.55425">
        <ele>1415.2</ele>
        <time>2019-02-06T10:53:21Z</time>
      </trkpt>
      <trkpt lat="46.24026" lon="6.55419">
        <ele>1415.68</ele>
        <time>2019-02-06T10:53:33Z</time>
      </trkpt>
      <trkpt lat="46.24024" lon="6.55416">
        <ele>1418.08</ele>
        <time>2019-02-06T10:53:46Z</time>
      </trkpt>
      <trkpt lat="46.24023" lon="6.55414">
        <ele>1418.56</ele>
        <time>2019-02-06T10:53:56Z</time>
      </trkpt>
      <trkpt lat="46.24019" lon="6.55407">
        <ele>1420</ele>
        <time>2019-02-06T10:54:08Z</time>
      </trkpt>
      <trkpt lat="46.24014" lon="6.55395">
        <ele>1421.45</ele>
        <time>2019-02-06T10:54:20Z</time>
      </trkpt>
      <trkpt lat="46.24011" lon="6.55389">
        <ele>1422.89</ele>
        <time>2019-02-06T10:54:32Z</time>
      </trkpt>
      <trkpt lat="46.24008" lon="6.55379">
        <ele>1424.81</ele>
        <time>2019-02-06T10:54:44Z</time>
      </trkpt>
      <trkpt lat="46.24006" lon="6.55371">
        <ele>1425.77</ele>
        <time>2019-02-06T10:54:58Z</time>
      </trkpt>
      <trkpt lat="46.24001" lon="6.55366">
        <ele>1427.7</ele>
        <time>2019-02-06T10:55:10Z</time>
      </trkpt>
      <trkpt lat="46.24" lon="6.55366">
        <ele>1428.18</ele>
        <time>2019-02-06T10:55:14Z</time>
      </trkpt>
      <trkpt lat="46.23993" lon="6.55369">
        <ele>1429.62</ele>
        <time>2019-02-06T10:55:26Z</time>
      </trkpt>
      <trkpt lat="46.23989" lon="6.55374">
        <ele>1430.1</ele>
        <time>2019-02-06T10:55:36Z</time>
      </trkpt>
      <trkpt lat="46.23984" lon="6.55378">
        <ele>1431.54</ele>
        <time>2019-02-06T10:55:46Z</time>
      </trkpt>
      <trkpt lat="46.23981" lon="6.5538">
        <ele>1432.5</ele>
        <time>2019-02-06T10:55:56Z</time>
      </trkpt>
      <trkpt lat="46.23973" lon="6.55381">
        <ele>1434.91</ele>
        <time>2019-02-06T10:56:08Z</time>
      </trkpt>
      <trkpt lat="46.2397" lon="6.55371">
        <ele>1436.35</ele>
        <time>2019-02-06T10:56:20Z</time>
      </trkpt>
      <trkpt lat="46.23969" lon="6.55361">
        <ele>1437.79</ele>
        <time>2019-02-06T10:56:32Z</time>
      </trkpt>
      <trkpt lat="46.23968" lon="6.55351">
        <ele>1438.75</ele>
        <time>2019-02-06T10:56:45Z</time>
      </trkpt>
      <trkpt lat="46.23967" lon="6.55343">
        <ele>1440.19</ele>
        <time>2019-02-06T10:56:59Z</time>
      </trkpt>
      <trkpt lat="46.23967" lon="6.55331">
        <ele>1441.63</ele>
        <time>2019-02-06T10:57:10Z</time>
      </trkpt>
      <trkpt lat="46.23967" lon="6.55325">
        <ele>1442.11</ele>
        <time>2019-02-06T10:57:16Z</time>
      </trkpt>
      <trkpt lat="46.23971" lon="6.55316">
        <ele>1443.08</ele>
        <time>2019-02-06T10:57:27Z</time>
      </trkpt>
      <trkpt lat="46.23972" lon="6.55316">
        <ele>1443.56</ele>
        <time>2019-02-06T10:57:28Z</time>
      </trkpt>
      <trkpt lat="46.23974" lon="6.55304">
        <ele>1444.04</ele>
        <time>2019-02-06T10:57:40Z</time>
      </trkpt>
      <trkpt lat="46.23975" lon="6.55301">
        <ele>1445</ele>
        <time>2019-02-06T10:57:44Z</time>
      </trkpt>
      <trkpt lat="46.23978" lon="6.55291">
        <ele>1444.04</ele>
        <time>2019-02-06T10:57:54Z</time>
      </trkpt>
      <trkpt lat="46.23981" lon="6.55279">
        <ele>1444.04</ele>
        <time>2019-02-06T10:58:06Z</time>
      </trkpt>
      <trkpt lat="46.23983" lon="6.55271">
        <ele>1445</ele>
        <time>2019-02-06T10:58:16Z</time>
      </trkpt>
      <trkpt lat="46.23985" lon="6.55263">
        <ele>1445.96</ele>
        <time>2019-02-06T10:58:27Z</time>
      </trkpt>
      <trkpt lat="46.23985" lon="6.55261">
        <ele>1446.44</ele>
        <time>2019-02-06T10:58:41Z</time>
      </trkpt>
      <trkpt lat="46.23985" lon="6.55261">
        <ele>1446.44</ele>
        <time>2019-02-06T10:59:46Z</time>
      </trkpt>
      <trkpt lat="46.23984" lon="6.55261">
        <ele>1446.44</ele>
        <time>2019-02-06T11:00:28Z</time>
      </trkpt>
      <trkpt lat="46.23985" lon="6.55267">
        <ele>1445.48</ele>
        <time>2019-02-06T11:02:29Z</time>
      </trkpt>
      <trkpt lat="46.23985" lon="6.55271">
        <ele>1445</ele>
        <time>2019-02-06T11:02:42Z</time>
      </trkpt>
      <trkpt lat="46.23984" lon="6.55264">
        <ele>1445.96</ele>
        <time>2019-02-06T11:02:58Z</time>
      </trkpt>
      <trkpt lat="46.23984" lon="6.55256">
        <ele>1446.44</ele>
        <time>2019-02-06T11:03:27Z</time>
      </trkpt>
      <trkpt lat="46.23985" lon="6.55249">
        <ele>1447.88</ele>
        <time>2019-02-06T11:03:36Z</time>
      </trkpt>
      <trkpt lat="46.23986" lon="6.5524">
        <ele>1449.81</ele>
        <time>2019-02-06T11:03:47Z</time>
      </trkpt>
      <trkpt lat="46.23987" lon="6.55234">
        <ele>1450.77</ele>
        <time>2019-02-06T11:03:58Z</time>
      </trkpt>
      <trkpt lat="46.23987" lon="6.55227">
        <ele>1452.21</ele>
        <time>2019-02-06T11:04:10Z</time>
      </trkpt>
      <trkpt lat="46.23986" lon="6.55221">
        <ele>1454.13</ele>
        <time>2019-02-06T11:04:22Z</time>
      </trkpt>
      <trkpt lat="46.23984" lon="6.55216">
        <ele>1455.09</ele>
        <time>2019-02-06T11:04:28Z</time>
      </trkpt>
      <trkpt lat="46.2398" lon="6.55215">
        <ele>1456.05</ele>
        <time>2019-02-06T11:04:40Z</time>
      </trkpt>
      <trkpt lat="46.23975" lon="6.55216">
        <ele>1457.5</ele>
        <time>2019-02-06T11:04:50Z</time>
      </trkpt>
      <trkpt lat="46.23968" lon="6.55215">
        <ele>1458.46</ele>
        <time>2019-02-06T11:05:01Z</time>
      </trkpt>
      <trkpt lat="46.23958" lon="6.55216">
        <ele>1459.42</ele>
        <time>2019-02-06T11:05:13Z</time>
      </trkpt>
      <trkpt lat="46.23952" lon="6.55217">
        <ele>1461.34</ele>
        <time>2019-02-06T11:05:25Z</time>
      </trkpt>
      <trkpt lat="46.23946" lon="6.55214">
        <ele>1463.26</ele>
        <time>2019-02-06T11:05:36Z</time>
      </trkpt>
      <trkpt lat="46.23943" lon="6.55213">
        <ele>1463.26</ele>
        <time>2019-02-06T11:05:45Z</time>
      </trkpt>
      <trkpt lat="46.23938" lon="6.55212">
        <ele>1465.19</ele>
        <time>2019-02-06T11:05:56Z</time>
      </trkpt>
      <trkpt lat="46.23935" lon="6.55211">
        <ele>1466.63</ele>
        <time>2019-02-06T11:06:06Z</time>
      </trkpt>
      <trkpt lat="46.2393" lon="6.5521">
        <ele>1468.07</ele>
        <time>2019-02-06T11:06:19Z</time>
      </trkpt>
      <trkpt lat="46.23926" lon="6.55209">
        <ele>1469.99</ele>
        <time>2019-02-06T11:06:31Z</time>
      </trkpt>
      <trkpt lat="46.23919" lon="6.5521">
        <ele>1471.44</ele>
        <time>2019-02-06T11:06:42Z</time>
      </trkpt>
      <trkpt lat="46.23914" lon="6.55209">
        <ele>1473.36</ele>
        <time>2019-02-06T11:06:53Z</time>
      </trkpt>
      <trkpt lat="46.2391" lon="6.5521">
        <ele>1474.8</ele>
        <time>2019-02-06T11:07:04Z</time>
      </trkpt>
      <trkpt lat="46.23904" lon="6.55214">
        <ele>1475.76</ele>
        <time>2019-02-06T11:07:15Z</time>
      </trkpt>
      <trkpt lat="46.23898" lon="6.55211">
        <ele>1477.2</ele>
        <time>2019-02-06T11:07:25Z</time>
      </trkpt>
      <trkpt lat="46.23891" lon="6.55207">
        <ele>1478.65</ele>
        <time>2019-02-06T11:07:37Z</time>
      </trkpt>
      <trkpt lat="46.23884" lon="6.55203">
        <ele>1479.13</ele>
        <time>2019-02-06T11:07:47Z</time>
      </trkpt>
      <trkpt lat="46.23878" lon="6.55198">
        <ele>1480.57</ele>
        <time>2019-02-06T11:07:58Z</time>
      </trkpt>
      <trkpt lat="46.23871" lon="6.55193">
        <ele>1482.49</ele>
        <time>2019-02-06T11:08:09Z</time>
      </trkpt>
      <trkpt lat="46.23865" lon="6.55188">
        <ele>1483.45</ele>
        <time>2019-02-06T11:08:21Z</time>
      </trkpt>
      <trkpt lat="46.2386" lon="6.55184">
        <ele>1484.89</ele>
        <time>2019-02-06T11:08:33Z</time>
      </trkpt>
      <trkpt lat="46.23854" lon="6.5518">
        <ele>1485.37</ele>
        <time>2019-02-06T11:08:42Z</time>
      </trkpt>
      <trkpt lat="46.23849" lon="6.55176">
        <ele>1486.34</ele>
        <time>2019-02-06T11:08:52Z</time>
      </trkpt>
      <trkpt lat="46.23842" lon="6.55171">
        <ele>1487.3</ele>
        <time>2019-02-06T11:09:04Z</time>
      </trkpt>
      <trkpt lat="46.23836" lon="6.55167">
        <ele>1488.26</ele>
        <time>2019-02-06T11:09:13Z</time>
      </trkpt>
      <trkpt lat="46.23829" lon="6.55159">
        <ele>1489.22</ele>
        <time>2019-02-06T11:09:26Z</time>
      </trkpt>
      <trkpt lat="46.23829" lon="6.5516">
        <ele>1489.22</ele>
        <time>2019-02-06T11:09:42Z</time>
      </trkpt>
      <trkpt lat="46.23829" lon="6.5516">
        <ele>1489.22</ele>
        <time>2019-02-06T11:10:38Z</time>
      </trkpt>
      <trkpt lat="46.23829" lon="6.5516">
        <ele>1489.7</ele>
        <time>2019-02-06T11:11:26Z</time>
      </trkpt>
      <trkpt lat="46.23829" lon="6.55161">
        <ele>1489.22</ele>
        <time>2019-02-06T11:12:04Z</time>
      </trkpt>
      <trkpt lat="46.23829" lon="6.55161">
        <ele>1488.74</ele>
        <time>2019-02-06T11:12:38Z</time>
      </trkpt>
      <trkpt lat="46.2383" lon="6.55162">
        <ele>1489.22</ele>
        <time>2019-02-06T11:13:16Z</time>
      </trkpt>
      <trkpt lat="46.2383" lon="6.55162">
        <ele>1488.74</ele>
        <time>2019-02-06T11:15:03Z</time>
      </trkpt>
      <trkpt lat="46.2383" lon="6.55162">
        <ele>1488.26</ele>
        <time>2019-02-06T11:16:27Z</time>
      </trkpt>
      <trkpt lat="46.2383" lon="6.55162">
        <ele>1488.74</ele>
        <time>2019-02-06T11:16:54Z</time>
      </trkpt>
      <trkpt lat="46.2383" lon="6.55162">
        <ele>1488.26</ele>
        <time>2019-02-06T11:17:41Z</time>
      </trkpt>
      <trkpt lat="46.2383" lon="6.55162">
        <ele>1487.78</ele>
        <time>2019-02-06T11:20:11Z</time>
      </trkpt>
      <trkpt lat="46.2383" lon="6.55161">
        <ele>1487.78</ele>
        <time>2019-02-06T11:21:37Z</time>
      </trkpt>
      <trkpt lat="46.23827" lon="6.5516">
        <ele>1487.3</ele>
        <time>2019-02-06T11:21:42Z</time>
      </trkpt>
      <trkpt lat="46.23826" lon="6.55158">
        <ele>1487.78</ele>
        <time>2019-02-06T11:21:45Z</time>
      </trkpt>
      <trkpt lat="46.23823" lon="6.55156">
        <ele>1487.78</ele>
        <time>2019-02-06T11:21:48Z</time>
      </trkpt>
      <trkpt lat="46.23817" lon="6.55155">
        <ele>1488.26</ele>
        <time>2019-02-06T11:21:55Z</time>
      </trkpt>
      <trkpt lat="46.23816" lon="6.55153">
        <ele>1487.78</ele>
        <time>2019-02-06T11:21:57Z</time>
      </trkpt>
      <trkpt lat="46.23811" lon="6.55149">
        <ele>1488.26</ele>
        <time>2019-02-06T11:22:04Z</time>
      </trkpt>
      <trkpt lat="46.2381" lon="6.55148">
        <ele>1488.74</ele>
        <time>2019-02-06T11:22:06Z</time>
      </trkpt>
      <trkpt lat="46.23801" lon="6.55141">
        <ele>1489.22</ele>
        <time>2019-02-06T11:22:19Z</time>
      </trkpt>
      <trkpt lat="46.23797" lon="6.55139">
        <ele>1489.22</ele>
        <time>2019-02-06T11:22:24Z</time>
      </trkpt>
      <trkpt lat="46.2379" lon="6.55134">
        <ele>1489.22</ele>
        <time>2019-02-06T11:22:36Z</time>
      </trkpt>
      <trkpt lat="46.23781" lon="6.55127">
        <ele>1490.18</ele>
        <time>2019-02-06T11:22:48Z</time>
      </trkpt>
      <trkpt lat="46.23774" lon="6.5512">
        <ele>1491.14</ele>
        <time>2019-02-06T11:23:01Z</time>
      </trkpt>
      <trkpt lat="46.23767" lon="6.55115">
        <ele>1492.1</ele>
        <time>2019-02-06T11:23:10Z</time>
      </trkpt>
      <trkpt lat="46.23759" lon="6.55108">
        <ele>1493.55</ele>
        <time>2019-02-06T11:23:21Z</time>
      </trkpt>
      <trkpt lat="46.23753" lon="6.55099">
        <ele>1494.03</ele>
        <time>2019-02-06T11:23:33Z</time>
      </trkpt>
      <trkpt lat="46.23746" lon="6.55091">
        <ele>1496.43</ele>
        <time>2019-02-06T11:23:46Z</time>
      </trkpt>
      <trkpt lat="46.23741" lon="6.55087">
        <ele>1497.39</ele>
        <time>2019-02-06T11:23:53Z</time>
      </trkpt>
      <trkpt lat="46.23736" lon="6.55081">
        <ele>1496.91</ele>
        <time>2019-02-06T11:24:03Z</time>
      </trkpt>
      <trkpt lat="46.23729" lon="6.55075">
        <ele>1498.83</ele>
        <time>2019-02-06T11:24:13Z</time>
      </trkpt>
      <trkpt lat="46.23723" lon="6.55072">
        <ele>1499.31</ele>
        <time>2019-02-06T11:24:23Z</time>
      </trkpt>
      <trkpt lat="46.2372" lon="6.5507">
        <ele>1500.27</ele>
        <time>2019-02-06T11:24:27Z</time>
      </trkpt>
      <trkpt lat="46.23713" lon="6.55065">
        <ele>1501.72</ele>
        <time>2019-02-06T11:24:39Z</time>
      </trkpt>
      <trkpt lat="46.23711" lon="6.55064">
        <ele>1502.2</ele>
        <time>2019-02-06T11:24:43Z</time>
      </trkpt>
      <trkpt lat="46.23708" lon="6.55061">
        <ele>1502.2</ele>
        <time>2019-02-06T11:24:47Z</time>
      </trkpt>
      <trkpt lat="46.23706" lon="6.55059">
        <ele>1502.68</ele>
        <time>2019-02-06T11:24:51Z</time>
      </trkpt>
      <trkpt lat="46.23697" lon="6.55055">
        <ele>1503.64</ele>
        <time>2019-02-06T11:25:03Z</time>
      </trkpt>
      <trkpt lat="46.23695" lon="6.55053">
        <ele>1503.64</ele>
        <time>2019-02-06T11:25:07Z</time>
      </trkpt>
      <trkpt lat="46.23692" lon="6.55051">
        <ele>1503.64</ele>
        <time>2019-02-06T11:25:11Z</time>
      </trkpt>
      <trkpt lat="46.23684" lon="6.55043">
        <ele>1504.12</ele>
        <time>2019-02-06T11:25:23Z</time>
      </trkpt>
      <trkpt lat="46.23674" lon="6.55039">
        <ele>1504.12</ele>
        <time>2019-02-06T11:25:34Z</time>
      </trkpt>
      <trkpt lat="46.23668" lon="6.55035">
        <ele>1505.56</ele>
        <time>2019-02-06T11:25:43Z</time>
      </trkpt>
      <trkpt lat="46.23664" lon="6.55032">
        <ele>1505.56</ele>
        <time>2019-02-06T11:25:48Z</time>
      </trkpt>
      <trkpt lat="46.2366" lon="6.55031">
        <ele>1505.08</ele>
        <time>2019-02-06T11:25:52Z</time>
      </trkpt>
      <trkpt lat="46.23658" lon="6.5503">
        <ele>1506.04</ele>
        <time>2019-02-06T11:25:55Z</time>
      </trkpt>
      <trkpt lat="46.23655" lon="6.55029">
        <ele>1506.52</ele>
        <time>2019-02-06T11:25:58Z</time>
      </trkpt>
      <trkpt lat="46.23645" lon="6.55023">
        <ele>1506.52</ele>
        <time>2019-02-06T11:26:12Z</time>
      </trkpt>
      <trkpt lat="46.23638" lon="6.55021">
        <ele>1507</ele>
        <time>2019-02-06T11:26:21Z</time>
      </trkpt>
      <trkpt lat="46.23635" lon="6.55017">
        <ele>1508.45</ele>
        <time>2019-02-06T11:26:27Z</time>
      </trkpt>
      <trkpt lat="46.2363" lon="6.55013">
        <ele>1507.97</ele>
        <time>2019-02-06T11:26:34Z</time>
      </trkpt>
      <trkpt lat="46.23619" lon="6.55008">
        <ele>1508.93</ele>
        <time>2019-02-06T11:26:46Z</time>
      </trkpt>
      <trkpt lat="46.2361" lon="6.55003">
        <ele>1508.93</ele>
        <time>2019-02-06T11:26:58Z</time>
      </trkpt>
      <trkpt lat="46.23601" lon="6.54996">
        <ele>1509.41</ele>
        <time>2019-02-06T11:27:10Z</time>
      </trkpt>
      <trkpt lat="46.23594" lon="6.54994">
        <ele>1510.37</ele>
        <time>2019-02-06T11:27:20Z</time>
      </trkpt>
      <trkpt lat="46.23586" lon="6.5499">
        <ele>1512.29</ele>
        <time>2019-02-06T11:27:32Z</time>
      </trkpt>
      <trkpt lat="46.23579" lon="6.54986">
        <ele>1512.29</ele>
        <time>2019-02-06T11:27:41Z</time>
      </trkpt>
      <trkpt lat="46.23576" lon="6.54984">
        <ele>1512.77</ele>
        <time>2019-02-06T11:27:45Z</time>
      </trkpt>
      <trkpt lat="46.2357" lon="6.54978">
        <ele>1514.21</ele>
        <time>2019-02-06T11:27:55Z</time>
      </trkpt>
      <trkpt lat="46.23562" lon="6.5497">
        <ele>1515.18</ele>
        <time>2019-02-06T11:28:09Z</time>
      </trkpt>
      <trkpt lat="46.23557" lon="6.54967">
        <ele>1516.62</ele>
        <time>2019-02-06T11:28:16Z</time>
      </trkpt>
      <trkpt lat="46.2355" lon="6.54964">
        <ele>1518.06</ele>
        <time>2019-02-06T11:28:27Z</time>
      </trkpt>
      <trkpt lat="46.23543" lon="6.54959">
        <ele>1519.98</ele>
        <time>2019-02-06T11:28:39Z</time>
      </trkpt>
      <trkpt lat="46.23536" lon="6.54956">
        <ele>1520.46</ele>
        <time>2019-02-06T11:28:49Z</time>
      </trkpt>
      <trkpt lat="46.23529" lon="6.54955">
        <ele>1522.39</ele>
        <time>2019-02-06T11:29:00Z</time>
      </trkpt>
      <trkpt lat="46.23526" lon="6.54954">
        <ele>1521.9</ele>
        <time>2019-02-06T11:29:08Z</time>
      </trkpt>
      <trkpt lat="46.23517" lon="6.54948">
        <ele>1521.9</ele>
        <time>2019-02-06T11:29:20Z</time>
      </trkpt>
      <trkpt lat="46.23513" lon="6.54946">
        <ele>1523.35</ele>
        <time>2019-02-06T11:29:24Z</time>
      </trkpt>
      <trkpt lat="46.23505" lon="6.5494">
        <ele>1524.31</ele>
        <time>2019-02-06T11:29:33Z</time>
      </trkpt>
      <trkpt lat="46.23503" lon="6.54939">
        <ele>1523.35</ele>
        <time>2019-02-06T11:29:36Z</time>
      </trkpt>
      <trkpt lat="46.23493" lon="6.54929">
        <ele>1523.83</ele>
        <time>2019-02-06T11:29:50Z</time>
      </trkpt>
      <trkpt lat="46.23488" lon="6.54925">
        <ele>1524.79</ele>
        <time>2019-02-06T11:29:56Z</time>
      </trkpt>
      <trkpt lat="46.23484" lon="6.54921">
        <ele>1525.27</ele>
        <time>2019-02-06T11:30:02Z</time>
      </trkpt>
      <trkpt lat="46.23474" lon="6.54917">
        <ele>1524.79</ele>
        <time>2019-02-06T11:30:15Z</time>
      </trkpt>
      <trkpt lat="46.23472" lon="6.54913">
        <ele>1526.71</ele>
        <time>2019-02-06T11:30:33Z</time>
      </trkpt>
      <trkpt lat="46.23472" lon="6.54913">
        <ele>1524.79</ele>
        <time>2019-02-06T11:30:51Z</time>
      </trkpt>
      <trkpt lat="46.23473" lon="6.54911">
        <ele>1526.23</ele>
        <time>2019-02-06T11:30:54Z</time>
      </trkpt>
      <trkpt lat="46.23474" lon="6.5491">
        <ele>1526.23</ele>
        <time>2019-02-06T11:31:13Z</time>
      </trkpt>
      <trkpt lat="46.23473" lon="6.54909">
        <ele>1525.27</ele>
        <time>2019-02-06T11:31:36Z</time>
      </trkpt>
      <trkpt lat="46.23473" lon="6.54909">
        <ele>1525.27</ele>
        <time>2019-02-06T11:31:59Z</time>
      </trkpt>
      <trkpt lat="46.23474" lon="6.54909">
        <ele>1525.27</ele>
        <time>2019-02-06T11:32:29Z</time>
      </trkpt>
      <trkpt lat="46.23474" lon="6.54908">
        <ele>1525.27</ele>
        <time>2019-02-06T11:33:18Z</time>
      </trkpt>
      <trkpt lat="46.23475" lon="6.54909">
        <ele>1524.79</ele>
        <time>2019-02-06T11:33:37Z</time>
      </trkpt>
      <trkpt lat="46.23474" lon="6.54908">
        <ele>1523.83</ele>
        <time>2019-02-06T11:35:56Z</time>
      </trkpt>
      <trkpt lat="46.23474" lon="6.54908">
        <ele>1520.94</ele>
        <time>2019-02-06T11:47:27Z</time>
      </trkpt>
      <trkpt lat="46.23476" lon="6.54907">
        <ele>1519.02</ele>
        <time>2019-02-06T12:00:37Z</time>
      </trkpt>
      <trkpt lat="46.23476" lon="6.54906">
        <ele>1518.06</ele>
        <time>2019-02-06T12:07:04Z</time>
      </trkpt>
      <trkpt lat="46.23476" lon="6.54906">
        <ele>1518.06</ele>
        <time>2019-02-06T12:09:48Z</time>
      </trkpt>
      <trkpt lat="46.23476" lon="6.54908">
        <ele>1518.06</ele>
        <time>2019-02-06T12:11:23Z</time>
      </trkpt>
      <trkpt lat="46.23474" lon="6.54908">
        <ele>1519.02</ele>
        <time>2019-02-06T12:18:51Z</time>
      </trkpt>
      <trkpt lat="46.23474" lon="6.54908">
        <ele>1519.5</ele>
        <time>2019-02-06T12:19:15Z</time>
      </trkpt>
      <trkpt lat="46.23474" lon="6.54908">
        <ele>1519.5</ele>
        <time>2019-02-06T12:19:44Z</time>
      </trkpt>
      <trkpt lat="46.23473" lon="6.54909">
        <ele>1519.5</ele>
        <time>2019-02-06T12:20:37Z</time>
      </trkpt>
      <trkpt lat="46.23473" lon="6.54908">
        <ele>1519.5</ele>
        <time>2019-02-06T12:21:08Z</time>
      </trkpt>
      <trkpt lat="46.23473" lon="6.54909">
        <ele>1519.5</ele>
        <time>2019-02-06T12:21:21Z</time>
      </trkpt>
      <trkpt lat="46.23471" lon="6.5491">
        <ele>1519.5</ele>
        <time>2019-02-06T12:21:59Z</time>
      </trkpt>
      <trkpt lat="46.23465" lon="6.54909">
        <ele>1520.94</ele>
        <time>2019-02-06T12:22:11Z</time>
      </trkpt>
      <trkpt lat="46.23459" lon="6.54905">
        <ele>1521.9</ele>
        <time>2019-02-06T12:22:21Z</time>
      </trkpt>
      <trkpt lat="46.23453" lon="6.549">
        <ele>1523.35</ele>
        <time>2019-02-06T12:22:32Z</time>
      </trkpt>
      <trkpt lat="46.23446" lon="6.54895">
        <ele>1524.79</ele>
        <time>2019-02-06T12:22:42Z</time>
      </trkpt>
      <trkpt lat="46.23438" lon="6.54892">
        <ele>1525.27</ele>
        <time>2019-02-06T12:22:54Z</time>
      </trkpt>
      <trkpt lat="46.23431" lon="6.54885">
        <ele>1525.75</ele>
        <time>2019-02-06T12:23:05Z</time>
      </trkpt>
      <trkpt lat="46.23426" lon="6.54877">
        <ele>1526.71</ele>
        <time>2019-02-06T12:23:18Z</time>
      </trkpt>
      <trkpt lat="46.23422" lon="6.54874">
        <ele>1528.15</ele>
        <time>2019-02-06T12:23:33Z</time>
      </trkpt>
      <trkpt lat="46.23416" lon="6.54873">
        <ele>1528.15</ele>
        <time>2019-02-06T12:23:43Z</time>
      </trkpt>
      <trkpt lat="46.23408" lon="6.5487">
        <ele>1528.63</ele>
        <time>2019-02-06T12:23:55Z</time>
      </trkpt>
      <trkpt lat="46.23403" lon="6.54871">
        <ele>1529.11</ele>
        <time>2019-02-06T12:24:07Z</time>
      </trkpt>
      <trkpt lat="46.23398" lon="6.54868">
        <ele>1529.59</ele>
        <time>2019-02-06T12:24:28Z</time>
      </trkpt>
      <trkpt lat="46.23394" lon="6.54863">
        <ele>1529.11</ele>
        <time>2019-02-06T12:24:38Z</time>
      </trkpt>
      <trkpt lat="46.23388" lon="6.5486">
        <ele>1530.08</ele>
        <time>2019-02-06T12:24:49Z</time>
      </trkpt>
      <trkpt lat="46.23385" lon="6.54856">
        <ele>1530.56</ele>
        <time>2019-02-06T12:25:01Z</time>
      </trkpt>
      <trkpt lat="46.23385" lon="6.54855">
        <ele>1530.56</ele>
        <time>2019-02-06T12:25:23Z</time>
      </trkpt>
      <trkpt lat="46.23384" lon="6.54857">
        <ele>1530.08</ele>
        <time>2019-02-06T12:26:13Z</time>
      </trkpt>
      <trkpt lat="46.23383" lon="6.54851">
        <ele>1531.52</ele>
        <time>2019-02-06T12:26:58Z</time>
      </trkpt>
      <trkpt lat="46.23385" lon="6.54839">
        <ele>1532</ele>
        <time>2019-02-06T12:27:11Z</time>
      </trkpt>
      <trkpt lat="46.23387" lon="6.5484">
        <ele>1531.52</ele>
        <time>2019-02-06T12:27:44Z</time>
      </trkpt>
      <trkpt lat="46.23393" lon="6.54843">
        <ele>1530.56</ele>
        <time>2019-02-06T12:27:57Z</time>
      </trkpt>
      <trkpt lat="46.23398" lon="6.54846">
        <ele>1530.08</ele>
        <time>2019-02-06T12:28:10Z</time>
      </trkpt>
      <trkpt lat="46.23402" lon="6.54846">
        <ele>1530.08</ele>
        <time>2019-02-06T12:28:24Z</time>
      </trkpt>
      <trkpt lat="46.23405" lon="6.54839">
        <ele>1530.08</ele>
        <time>2019-02-06T12:28:34Z</time>
      </trkpt>
      <trkpt lat="46.23411" lon="6.54833">
        <ele>1529.11</ele>
        <time>2019-02-06T12:28:46Z</time>
      </trkpt>
      <trkpt lat="46.23413" lon="6.54834">
        <ele>1528.63</ele>
        <time>2019-02-06T12:28:49Z</time>
      </trkpt>
      <trkpt lat="46.23416" lon="6.54837">
        <ele>1528.15</ele>
        <time>2019-02-06T12:28:53Z</time>
      </trkpt>
      <trkpt lat="46.23422" lon="6.54842">
        <ele>1527.67</ele>
        <time>2019-02-06T12:29:05Z</time>
      </trkpt>
      <trkpt lat="46.23424" lon="6.54845">
        <ele>1527.19</ele>
        <time>2019-02-06T12:29:22Z</time>
      </trkpt>
      <trkpt lat="46.23428" lon="6.54852">
        <ele>1526.71</ele>
        <time>2019-02-06T12:29:40Z</time>
      </trkpt>
      <trkpt lat="46.23434" lon="6.54855">
        <ele>1526.71</ele>
        <time>2019-02-06T12:29:52Z</time>
      </trkpt>
      <trkpt lat="46.23442" lon="6.54862">
        <ele>1526.23</ele>
        <time>2019-02-06T12:30:05Z</time>
      </trkpt>
      <trkpt lat="46.23449" lon="6.54874">
        <ele>1525.75</ele>
        <time>2019-02-06T12:30:17Z</time>
      </trkpt>
      <trkpt lat="46.23453" lon="6.54887">
        <ele>1525.27</ele>
        <time>2019-02-06T12:30:29Z</time>
      </trkpt>
      <trkpt lat="46.23454" lon="6.54898">
        <ele>1524.79</ele>
        <time>2019-02-06T12:30:42Z</time>
      </trkpt>
      <trkpt lat="46.23461" lon="6.54904">
        <ele>1523.35</ele>
        <time>2019-02-06T12:30:55Z</time>
      </trkpt>
      <trkpt lat="46.23468" lon="6.5491">
        <ele>1521.42</ele>
        <time>2019-02-06T12:31:10Z</time>
      </trkpt>
      <trkpt lat="46.23469" lon="6.54909">
        <ele>1520.94</ele>
        <time>2019-02-06T12:31:57Z</time>
      </trkpt>
      <trkpt lat="46.23472" lon="6.54911">
        <ele>1520.94</ele>
        <time>2019-02-06T12:32:09Z</time>
      </trkpt>
      <trkpt lat="46.23473" lon="6.54912">
        <ele>1520.94</ele>
        <time>2019-02-06T12:32:55Z</time>
      </trkpt>
      <trkpt lat="46.23474" lon="6.54913">
        <ele>1521.42</ele>
        <time>2019-02-06T12:36:00Z</time>
      </trkpt>
      <trkpt lat="46.23478" lon="6.54922">
        <ele>1520.46</ele>
        <time>2019-02-06T12:36:12Z</time>
      </trkpt>
      <trkpt lat="46.23482" lon="6.5493">
        <ele>1519.02</ele>
        <time>2019-02-06T12:36:26Z</time>
      </trkpt>
      <trkpt lat="46.23486" lon="6.54939">
        <ele>1518.06</ele>
        <time>2019-02-06T12:36:39Z</time>
      </trkpt>
      <trkpt lat="46.23492" lon="6.54954">
        <ele>1515.66</ele>
        <time>2019-02-06T12:36:56Z</time>
      </trkpt>
      <trkpt lat="46.23495" lon="6.54962">
        <ele>1513.73</ele>
        <time>2019-02-06T12:37:07Z</time>
      </trkpt>
      <trkpt lat="46.23498" lon="6.54967">
        <ele>1513.25</ele>
        <time>2019-02-06T12:37:12Z</time>
      </trkpt>
      <trkpt lat="46.23501" lon="6.54979">
        <ele>1511.33</ele>
        <time>2019-02-06T12:37:25Z</time>
      </trkpt>
      <trkpt lat="46.23509" lon="6.54993">
        <ele>1508.45</ele>
        <time>2019-02-06T12:37:40Z</time>
      </trkpt>
      <trkpt lat="46.23511" lon="6.55001">
        <ele>1508.45</ele>
        <time>2019-02-06T12:37:51Z</time>
      </trkpt>
      <trkpt lat="46.23514" lon="6.55007">
        <ele>1507.97</ele>
        <time>2019-02-06T12:37:58Z</time>
      </trkpt>
      <trkpt lat="46.23518" lon="6.55021">
        <ele>1507</ele>
        <time>2019-02-06T12:38:12Z</time>
      </trkpt>
      <trkpt lat="46.23518" lon="6.55022">
        <ele>1506.52</ele>
        <time>2019-02-06T12:38:14Z</time>
      </trkpt>
      <trkpt lat="46.23518" lon="6.55029">
        <ele>1506.04</ele>
        <time>2019-02-06T12:38:29Z</time>
      </trkpt>
      <trkpt lat="46.2352" lon="6.55035">
        <ele>1506.04</ele>
        <time>2019-02-06T12:38:42Z</time>
      </trkpt>
      <trkpt lat="46.23521" lon="6.55036">
        <ele>1506.04</ele>
        <time>2019-02-06T12:38:44Z</time>
      </trkpt>
      <trkpt lat="46.23523" lon="6.55041">
        <ele>1506.04</ele>
        <time>2019-02-06T12:38:49Z</time>
      </trkpt>
      <trkpt lat="46.23526" lon="6.55051">
        <ele>1505.56</ele>
        <time>2019-02-06T12:39:01Z</time>
      </trkpt>
      <trkpt lat="46.23529" lon="6.55057">
        <ele>1505.56</ele>
        <time>2019-02-06T12:39:09Z</time>
      </trkpt>
      <trkpt lat="46.23533" lon="6.55068">
        <ele>1504.6</ele>
        <time>2019-02-06T12:39:21Z</time>
      </trkpt>
      <trkpt lat="46.23538" lon="6.55077">
        <ele>1504.6</ele>
        <time>2019-02-06T12:39:31Z</time>
      </trkpt>
      <trkpt lat="46.23539" lon="6.55078">
        <ele>1504.6</ele>
        <time>2019-02-06T12:39:32Z</time>
      </trkpt>
      <trkpt lat="46.23542" lon="6.55086">
        <ele>1504.12</ele>
        <time>2019-02-06T12:39:44Z</time>
      </trkpt>
      <trkpt lat="46.23542" lon="6.55086">
        <ele>1504.12</ele>
        <time>2019-02-06T12:40:02Z</time>
      </trkpt>
      <trkpt lat="46.23541" lon="6.55086">
        <ele>1504.6</ele>
        <time>2019-02-06T12:40:46Z</time>
      </trkpt>
      <trkpt lat="46.23541" lon="6.55086">
        <ele>1504.6</ele>
        <time>2019-02-06T12:42:10Z</time>
      </trkpt>
      <trkpt lat="46.23541" lon="6.55086">
        <ele>1504.6</ele>
        <time>2019-02-06T12:44:10Z</time>
      </trkpt>
      <trkpt lat="46.23542" lon="6.55095">
        <ele>1503.64</ele>
        <time>2019-02-06T12:45:03Z</time>
      </trkpt>
      <trkpt lat="46.23548" lon="6.55109">
        <ele>1503.16</ele>
        <time>2019-02-06T12:45:17Z</time>
      </trkpt>
      <trkpt lat="46.23551" lon="6.55116">
        <ele>1503.64</ele>
        <time>2019-02-06T12:45:25Z</time>
      </trkpt>
      <trkpt lat="46.23556" lon="6.55132">
        <ele>1501.24</ele>
        <time>2019-02-06T12:45:40Z</time>
      </trkpt>
      <trkpt lat="46.23559" lon="6.55142">
        <ele>1500.27</ele>
        <time>2019-02-06T12:45:52Z</time>
      </trkpt>
      <trkpt lat="46.23563" lon="6.55157">
        <ele>1498.35</ele>
        <time>2019-02-06T12:46:06Z</time>
      </trkpt>
      <trkpt lat="46.23567" lon="6.5517">
        <ele>1496.43</ele>
        <time>2019-02-06T12:46:18Z</time>
      </trkpt>
      <trkpt lat="46.23572" lon="6.55181">
        <ele>1494.03</ele>
        <time>2019-02-06T12:46:30Z</time>
      </trkpt>
      <trkpt lat="46.23571" lon="6.55186">
        <ele>1494.03</ele>
        <time>2019-02-06T12:46:34Z</time>
      </trkpt>
      <trkpt lat="46.23572" lon="6.55199">
        <ele>1492.58</ele>
        <time>2019-02-06T12:46:45Z</time>
      </trkpt>
      <trkpt lat="46.23575" lon="6.55209">
        <ele>1491.14</ele>
        <time>2019-02-06T12:46:54Z</time>
      </trkpt>
      <trkpt lat="46.23578" lon="6.55219">
        <ele>1489.22</ele>
        <time>2019-02-06T12:47:07Z</time>
      </trkpt>
      <trkpt lat="46.23582" lon="6.5523">
        <ele>1488.26</ele>
        <time>2019-02-06T12:47:19Z</time>
      </trkpt>
      <trkpt lat="46.23582" lon="6.55232">
        <ele>1487.78</ele>
        <time>2019-02-06T12:47:20Z</time>
      </trkpt>
      <trkpt lat="46.23587" lon="6.55249">
        <ele>1486.34</ele>
        <time>2019-02-06T12:47:35Z</time>
      </trkpt>
      <trkpt lat="46.23589" lon="6.55255">
        <ele>1485.85</ele>
        <time>2019-02-06T12:47:41Z</time>
      </trkpt>
      <trkpt lat="46.23592" lon="6.55269">
        <ele>1485.85</ele>
        <time>2019-02-06T12:47:53Z</time>
      </trkpt>
      <trkpt lat="46.23594" lon="6.55282">
        <ele>1484.89</ele>
        <time>2019-02-06T12:48:05Z</time>
      </trkpt>
      <trkpt lat="46.23594" lon="6.55283">
        <ele>1484.41</ele>
        <time>2019-02-06T12:48:06Z</time>
      </trkpt>
      <trkpt lat="46.23597" lon="6.55298">
        <ele>1483.45</ele>
        <time>2019-02-06T12:48:19Z</time>
      </trkpt>
      <trkpt lat="46.23601" lon="6.55311">
        <ele>1482.49</ele>
        <time>2019-02-06T12:48:31Z</time>
      </trkpt>
      <trkpt lat="46.23603" lon="6.55318">
        <ele>1482.01</ele>
        <time>2019-02-06T12:48:39Z</time>
      </trkpt>
      <trkpt lat="46.23606" lon="6.55333">
        <ele>1481.53</ele>
        <time>2019-02-06T12:48:52Z</time>
      </trkpt>
      <trkpt lat="46.2361" lon="6.55343">
        <ele>1481.05</ele>
        <time>2019-02-06T12:49:04Z</time>
      </trkpt>
      <trkpt lat="46.2361" lon="6.55344">
        <ele>1481.53</ele>
        <time>2019-02-06T12:49:05Z</time>
      </trkpt>
      <trkpt lat="46.23615" lon="6.55355">
        <ele>1481.05</ele>
        <time>2019-02-06T12:49:18Z</time>
      </trkpt>
      <trkpt lat="46.23618" lon="6.55362">
        <ele>1481.53</ele>
        <time>2019-02-06T12:49:30Z</time>
      </trkpt>
      <trkpt lat="46.23618" lon="6.55364">
        <ele>1482.01</ele>
        <time>2019-02-06T12:49:46Z</time>
      </trkpt>
      <trkpt lat="46.23617" lon="6.55364">
        <ele>1482.01</ele>
        <time>2019-02-06T12:50:27Z</time>
      </trkpt>
      <trkpt lat="46.23617" lon="6.55363">
        <ele>1481.53</ele>
        <time>2019-02-06T12:51:10Z</time>
      </trkpt>
      <trkpt lat="46.23615" lon="6.55366">
        <ele>1482.49</ele>
        <time>2019-02-06T12:53:03Z</time>
      </trkpt>
      <trkpt lat="46.23613" lon="6.55372">
        <ele>1482.97</ele>
        <time>2019-02-06T12:53:09Z</time>
      </trkpt>
      <trkpt lat="46.23607" lon="6.55383">
        <ele>1483.45</ele>
        <time>2019-02-06T12:53:20Z</time>
      </trkpt>
      <trkpt lat="46.23603" lon="6.55395">
        <ele>1483.93</ele>
        <time>2019-02-06T12:53:31Z</time>
      </trkpt>
      <trkpt lat="46.23598" lon="6.55405">
        <ele>1485.37</ele>
        <time>2019-02-06T12:53:41Z</time>
      </trkpt>
      <trkpt lat="46.23594" lon="6.55417">
        <ele>1486.34</ele>
        <time>2019-02-06T12:53:53Z</time>
      </trkpt>
      <trkpt lat="46.23594" lon="6.55419">
        <ele>1486.82</ele>
        <time>2019-02-06T12:53:55Z</time>
      </trkpt>
      <trkpt lat="46.23589" lon="6.55433">
        <ele>1487.3</ele>
        <time>2019-02-06T12:54:07Z</time>
      </trkpt>
      <trkpt lat="46.23584" lon="6.55445">
        <ele>1487.3</ele>
        <time>2019-02-06T12:54:19Z</time>
      </trkpt>
      <trkpt lat="46.23582" lon="6.55449">
        <ele>1486.82</ele>
        <time>2019-02-06T12:54:23Z</time>
      </trkpt>
      <trkpt lat="46.23573" lon="6.55458">
        <ele>1486.82</ele>
        <time>2019-02-06T12:54:36Z</time>
      </trkpt>
      <trkpt lat="46.23572" lon="6.55459">
        <ele>1487.3</ele>
        <time>2019-02-06T12:54:37Z</time>
      </trkpt>
      <trkpt lat="46.23564" lon="6.5547">
        <ele>1486.82</ele>
        <time>2019-02-06T12:54:49Z</time>
      </trkpt>
      <trkpt lat="46.23562" lon="6.55474">
        <ele>1486.82</ele>
        <time>2019-02-06T12:54:54Z</time>
      </trkpt>
      <trkpt lat="46.23558" lon="6.55479">
        <ele>1486.34</ele>
        <time>2019-02-06T12:54:59Z</time>
      </trkpt>
      <trkpt lat="46.23551" lon="6.55491">
        <ele>1485.85</ele>
        <time>2019-02-06T12:55:12Z</time>
      </trkpt>
      <trkpt lat="46.23545" lon="6.55501">
        <ele>1485.85</ele>
        <time>2019-02-06T12:55:22Z</time>
      </trkpt>
      <trkpt lat="46.2354" lon="6.55508">
        <ele>1486.34</ele>
        <time>2019-02-06T12:55:31Z</time>
      </trkpt>
      <trkpt lat="46.23533" lon="6.55515">
        <ele>1486.34</ele>
        <time>2019-02-06T12:55:42Z</time>
      </trkpt>
      <trkpt lat="46.23533" lon="6.55515">
        <ele>1486.82</ele>
        <time>2019-02-06T12:55:43Z</time>
      </trkpt>
      <trkpt lat="46.23531" lon="6.55516">
        <ele>1486.34</ele>
        <time>2019-02-06T12:55:46Z</time>
      </trkpt>
      <trkpt lat="46.23523" lon="6.55521">
        <ele>1487.3</ele>
        <time>2019-02-06T12:55:57Z</time>
      </trkpt>
      <trkpt lat="46.23517" lon="6.55529">
        <ele>1487.78</ele>
        <time>2019-02-06T12:56:08Z</time>
      </trkpt>
      <trkpt lat="46.23511" lon="6.5554">
        <ele>1488.74</ele>
        <time>2019-02-06T12:56:19Z</time>
      </trkpt>
      <trkpt lat="46.23505" lon="6.55551">
        <ele>1489.7</ele>
        <time>2019-02-06T12:56:30Z</time>
      </trkpt>
      <trkpt lat="46.23501" lon="6.55556">
        <ele>1489.7</ele>
        <time>2019-02-06T12:56:37Z</time>
      </trkpt>
      <trkpt lat="46.23497" lon="6.55565">
        <ele>1491.14</ele>
        <time>2019-02-06T12:56:48Z</time>
      </trkpt>
      <trkpt lat="46.23493" lon="6.55572">
        <ele>1491.62</ele>
        <time>2019-02-06T12:56:58Z</time>
      </trkpt>
      <trkpt lat="46.23489" lon="6.55577">
        <ele>1493.06</ele>
        <time>2019-02-06T12:57:08Z</time>
      </trkpt>
      <trkpt lat="46.23485" lon="6.55584">
        <ele>1494.51</ele>
        <time>2019-02-06T12:57:21Z</time>
      </trkpt>
      <trkpt lat="46.23482" lon="6.55591">
        <ele>1496.43</ele>
        <time>2019-02-06T12:57:32Z</time>
      </trkpt>
      <trkpt lat="46.23478" lon="6.55599">
        <ele>1496.91</ele>
        <time>2019-02-06T12:57:42Z</time>
      </trkpt>
      <trkpt lat="46.23474" lon="6.55608">
        <ele>1497.87</ele>
        <time>2019-02-06T12:57:53Z</time>
      </trkpt>
      <trkpt lat="46.23475" lon="6.55614">
        <ele>1497.87</ele>
        <time>2019-02-06T12:57:58Z</time>
      </trkpt>
      <trkpt lat="46.23477" lon="6.55625">
        <ele>1498.35</ele>
        <time>2019-02-06T12:58:10Z</time>
      </trkpt>
      <trkpt lat="46.23477" lon="6.55637">
        <ele>1499.31</ele>
        <time>2019-02-06T12:58:22Z</time>
      </trkpt>
      <trkpt lat="46.23479" lon="6.55652">
        <ele>1499.31</ele>
        <time>2019-02-06T12:58:36Z</time>
      </trkpt>
      <trkpt lat="46.23478" lon="6.55657">
        <ele>1499.31</ele>
        <time>2019-02-06T12:58:40Z</time>
      </trkpt>
      <trkpt lat="46.23477" lon="6.55658">
        <ele>1499.79</ele>
        <time>2019-02-06T12:58:42Z</time>
      </trkpt>
      <trkpt lat="46.23474" lon="6.55671">
        <ele>1499.79</ele>
        <time>2019-02-06T12:58:54Z</time>
      </trkpt>
      <trkpt lat="46.23472" lon="6.55683">
        <ele>1501.24</ele>
        <time>2019-02-06T12:59:05Z</time>
      </trkpt>
      <trkpt lat="46.2347" lon="6.55694">
        <ele>1501.72</ele>
        <time>2019-02-06T12:59:16Z</time>
      </trkpt>
      <trkpt lat="46.23467" lon="6.55705">
        <ele>1502.68</ele>
        <time>2019-02-06T12:59:28Z</time>
      </trkpt>
      <trkpt lat="46.23465" lon="6.55716">
        <ele>1503.16</ele>
        <time>2019-02-06T12:59:39Z</time>
      </trkpt>
      <trkpt lat="46.23465" lon="6.55727">
        <ele>1503.64</ele>
        <time>2019-02-06T12:59:50Z</time>
      </trkpt>
      <trkpt lat="46.23464" lon="6.55739">
        <ele>1504.6</ele>
        <time>2019-02-06T13:00:00Z</time>
      </trkpt>
      <trkpt lat="46.23461" lon="6.55752">
        <ele>1505.08</ele>
        <time>2019-02-06T13:00:12Z</time>
      </trkpt>
      <trkpt lat="46.23459" lon="6.55765">
        <ele>1505.56</ele>
        <time>2019-02-06T13:00:24Z</time>
      </trkpt>
      <trkpt lat="46.23456" lon="6.55773">
        <ele>1506.04</ele>
        <time>2019-02-06T13:00:34Z</time>
      </trkpt>
      <trkpt lat="46.23452" lon="6.55784">
        <ele>1507</ele>
        <time>2019-02-06T13:00:46Z</time>
      </trkpt>
      <trkpt lat="46.23445" lon="6.55795">
        <ele>1507</ele>
        <time>2019-02-06T13:00:59Z</time>
      </trkpt>
      <trkpt lat="46.23439" lon="6.55803">
        <ele>1507.48</ele>
        <time>2019-02-06T13:01:10Z</time>
      </trkpt>
      <trkpt lat="46.23434" lon="6.55811">
        <ele>1507.97</ele>
        <time>2019-02-06T13:01:20Z</time>
      </trkpt>
      <trkpt lat="46.23431" lon="6.55817">
        <ele>1507.97</ele>
        <time>2019-02-06T13:01:27Z</time>
      </trkpt>
      <trkpt lat="46.23426" lon="6.55829">
        <ele>1508.93</ele>
        <time>2019-02-06T13:01:40Z</time>
      </trkpt>
      <trkpt lat="46.23428" lon="6.55834">
        <ele>1508.93</ele>
        <time>2019-02-06T13:01:47Z</time>
      </trkpt>
      <trkpt lat="46.23434" lon="6.55842">
        <ele>1509.41</ele>
        <time>2019-02-06T13:01:58Z</time>
      </trkpt>
      <trkpt lat="46.23435" lon="6.55845">
        <ele>1509.41</ele>
        <time>2019-02-06T13:02:01Z</time>
      </trkpt>
      <trkpt lat="46.2344" lon="6.55849">
        <ele>1509.41</ele>
        <time>2019-02-06T13:02:08Z</time>
      </trkpt>
      <trkpt lat="46.23443" lon="6.55859">
        <ele>1509.41</ele>
        <time>2019-02-06T13:02:19Z</time>
      </trkpt>
      <trkpt lat="46.23444" lon="6.55861">
        <ele>1509.41</ele>
        <time>2019-02-06T13:02:23Z</time>
      </trkpt>
      <trkpt lat="46.23452" lon="6.55869">
        <ele>1508.93</ele>
        <time>2019-02-06T13:02:35Z</time>
      </trkpt>
      <trkpt lat="46.2346" lon="6.55878">
        <ele>1508.45</ele>
        <time>2019-02-06T13:02:47Z</time>
      </trkpt>
      <trkpt lat="46.23466" lon="6.55887">
        <ele>1507.97</ele>
        <time>2019-02-06T13:03:00Z</time>
      </trkpt>
      <trkpt lat="46.23472" lon="6.55892">
        <ele>1508.45</ele>
        <time>2019-02-06T13:03:11Z</time>
      </trkpt>
      <trkpt lat="46.23479" lon="6.55899">
        <ele>1507.97</ele>
        <time>2019-02-06T13:03:22Z</time>
      </trkpt>
      <trkpt lat="46.23485" lon="6.55903">
        <ele>1506.52</ele>
        <time>2019-02-06T13:03:34Z</time>
      </trkpt>
      <trkpt lat="46.23494" lon="6.5591">
        <ele>1506.52</ele>
        <time>2019-02-06T13:03:46Z</time>
      </trkpt>
      <trkpt lat="46.23503" lon="6.55916">
        <ele>1505.56</ele>
        <time>2019-02-06T13:03:59Z</time>
      </trkpt>
      <trkpt lat="46.23513" lon="6.55922">
        <ele>1505.08</ele>
        <time>2019-02-06T13:04:12Z</time>
      </trkpt>
      <trkpt lat="46.23522" lon="6.55928">
        <ele>1504.6</ele>
        <time>2019-02-06T13:04:24Z</time>
      </trkpt>
      <trkpt lat="46.23531" lon="6.55933">
        <ele>1505.08</ele>
        <time>2019-02-06T13:04:37Z</time>
      </trkpt>
      <trkpt lat="46.23538" lon="6.55938">
        <ele>1505.56</ele>
        <time>2019-02-06T13:04:48Z</time>
      </trkpt>
      <trkpt lat="46.23544" lon="6.55943">
        <ele>1506.04</ele>
        <time>2019-02-06T13:04:58Z</time>
      </trkpt>
      <trkpt lat="46.23544" lon="6.55943">
        <ele>1506.04</ele>
        <time>2019-02-06T13:05:29Z</time>
      </trkpt>
      <trkpt lat="46.23544" lon="6.55943">
        <ele>1506.04</ele>
        <time>2019-02-06T13:06:59Z</time>
      </trkpt>
      <trkpt lat="46.23544" lon="6.55942">
        <ele>1506.04</ele>
        <time>2019-02-06T13:09:51Z</time>
      </trkpt>
      <trkpt lat="46.23545" lon="6.55943">
        <ele>1506.52</ele>
        <time>2019-02-06T13:10:36Z</time>
      </trkpt>
      <trkpt lat="46.23551" lon="6.5595">
        <ele>1506.52</ele>
        <time>2019-02-06T13:10:46Z</time>
      </trkpt>
      <trkpt lat="46.23558" lon="6.55958">
        <ele>1506.52</ele>
        <time>2019-02-06T13:10:59Z</time>
      </trkpt>
      <trkpt lat="46.23567" lon="6.55966">
        <ele>1507.48</ele>
        <time>2019-02-06T13:11:13Z</time>
      </trkpt>
      <trkpt lat="46.23576" lon="6.55973">
        <ele>1507.48</ele>
        <time>2019-02-06T13:11:26Z</time>
      </trkpt>
      <trkpt lat="46.23585" lon="6.55978">
        <ele>1506.52</ele>
        <time>2019-02-06T13:11:40Z</time>
      </trkpt>
      <trkpt lat="46.23594" lon="6.55985">
        <ele>1506.04</ele>
        <time>2019-02-06T13:11:54Z</time>
      </trkpt>
      <trkpt lat="46.23604" lon="6.55992">
        <ele>1504.6</ele>
        <time>2019-02-06T13:12:07Z</time>
      </trkpt>
      <trkpt lat="46.23614" lon="6.56003">
        <ele>1504.12</ele>
        <time>2019-02-06T13:12:22Z</time>
      </trkpt>
      <trkpt lat="46.23618" lon="6.56018">
        <ele>1504.12</ele>
        <time>2019-02-06T13:12:35Z</time>
      </trkpt>
      <trkpt lat="46.23617" lon="6.56033">
        <ele>1503.16</ele>
        <time>2019-02-06T13:12:49Z</time>
      </trkpt>
      <trkpt lat="46.23616" lon="6.56048">
        <ele>1503.16</ele>
        <time>2019-02-06T13:13:02Z</time>
      </trkpt>
      <trkpt lat="46.23615" lon="6.56053">
        <ele>1502.2</ele>
        <time>2019-02-06T13:13:14Z</time>
      </trkpt>
      <trkpt lat="46.23614" lon="6.56067">
        <ele>1502.2</ele>
        <time>2019-02-06T13:13:26Z</time>
      </trkpt>
      <trkpt lat="46.23615" lon="6.56077">
        <ele>1501.72</ele>
        <time>2019-02-06T13:13:36Z</time>
      </trkpt>
      <trkpt lat="46.23621" lon="6.56085">
        <ele>1502.2</ele>
        <time>2019-02-06T13:13:48Z</time>
      </trkpt>
      <trkpt lat="46.23623" lon="6.56088">
        <ele>1502.2</ele>
        <time>2019-02-06T13:13:59Z</time>
      </trkpt>
      <trkpt lat="46.23631" lon="6.56095">
        <ele>1503.16</ele>
        <time>2019-02-06T13:14:13Z</time>
      </trkpt>
      <trkpt lat="46.23642" lon="6.56103">
        <ele>1503.64</ele>
        <time>2019-02-06T13:14:26Z</time>
      </trkpt>
      <trkpt lat="46.23646" lon="6.56108">
        <ele>1504.12</ele>
        <time>2019-02-06T13:14:38Z</time>
      </trkpt>
      <trkpt lat="46.23655" lon="6.56117">
        <ele>1504.6</ele>
        <time>2019-02-06T13:14:50Z</time>
      </trkpt>
      <trkpt lat="46.23661" lon="6.56122">
        <ele>1504.6</ele>
        <time>2019-02-06T13:15:00Z</time>
      </trkpt>
      <trkpt lat="46.23667" lon="6.5613">
        <ele>1505.56</ele>
        <time>2019-02-06T13:15:11Z</time>
      </trkpt>
      <trkpt lat="46.23671" lon="6.56135">
        <ele>1505.56</ele>
        <time>2019-02-06T13:15:21Z</time>
      </trkpt>
      <trkpt lat="46.23674" lon="6.56145">
        <ele>1506.04</ele>
        <time>2019-02-06T13:15:33Z</time>
      </trkpt>
      <trkpt lat="46.23678" lon="6.56155">
        <ele>1506.52</ele>
        <time>2019-02-06T13:15:45Z</time>
      </trkpt>
      <trkpt lat="46.23682" lon="6.56164">
        <ele>1507</ele>
        <time>2019-02-06T13:15:57Z</time>
      </trkpt>
      <trkpt lat="46.23685" lon="6.56172">
        <ele>1507.97</ele>
        <time>2019-02-06T13:16:07Z</time>
      </trkpt>
      <trkpt lat="46.23687" lon="6.56178">
        <ele>1507.97</ele>
        <time>2019-02-06T13:16:16Z</time>
      </trkpt>
      <trkpt lat="46.23692" lon="6.56188">
        <ele>1508.45</ele>
        <time>2019-02-06T13:16:29Z</time>
      </trkpt>
      <trkpt lat="46.23693" lon="6.56196">
        <ele>1508.45</ele>
        <time>2019-02-06T13:16:40Z</time>
      </trkpt>
      <trkpt lat="46.23695" lon="6.56204">
        <ele>1509.41</ele>
        <time>2019-02-06T13:16:52Z</time>
      </trkpt>
      <trkpt lat="46.23701" lon="6.56218">
        <ele>1509.89</ele>
        <time>2019-02-06T13:17:06Z</time>
      </trkpt>
      <trkpt lat="46.23705" lon="6.56225">
        <ele>1510.37</ele>
        <time>2019-02-06T13:17:19Z</time>
      </trkpt>
      <trkpt lat="46.23706" lon="6.56228">
        <ele>1510.85</ele>
        <time>2019-02-06T13:17:24Z</time>
      </trkpt>
      <trkpt lat="46.23713" lon="6.5624">
        <ele>1511.81</ele>
        <time>2019-02-06T13:17:37Z</time>
      </trkpt>
      <trkpt lat="46.23718" lon="6.56246">
        <ele>1511.81</ele>
        <time>2019-02-06T13:17:49Z</time>
      </trkpt>
      <trkpt lat="46.23724" lon="6.56255">
        <ele>1512.29</ele>
        <time>2019-02-06T13:17:59Z</time>
      </trkpt>
      <trkpt lat="46.23729" lon="6.56262">
        <ele>1511.81</ele>
        <time>2019-02-06T13:18:10Z</time>
      </trkpt>
      <trkpt lat="46.23731" lon="6.56265">
        <ele>1511.81</ele>
        <time>2019-02-06T13:18:16Z</time>
      </trkpt>
      <trkpt lat="46.23735" lon="6.56273">
        <ele>1511.81</ele>
        <time>2019-02-06T13:18:26Z</time>
      </trkpt>
      <trkpt lat="46.23742" lon="6.56284">
        <ele>1511.33</ele>
        <time>2019-02-06T13:18:40Z</time>
      </trkpt>
      <trkpt lat="46.23746" lon="6.56291">
        <ele>1511.33</ele>
        <time>2019-02-06T13:18:51Z</time>
      </trkpt>
      <trkpt lat="46.2375" lon="6.56297">
        <ele>1510.85</ele>
        <time>2019-02-06T13:19:03Z</time>
      </trkpt>
      <trkpt lat="46.2375" lon="6.563">
        <ele>1510.85</ele>
        <time>2019-02-06T13:19:13Z</time>
      </trkpt>
      <trkpt lat="46.2375" lon="6.563">
        <ele>1510.37</ele>
        <time>2019-02-06T13:19:51Z</time>
      </trkpt>
      <trkpt lat="46.2375" lon="6.56301">
        <ele>1510.37</ele>
        <time>2019-02-06T13:21:55Z</time>
      </trkpt>
      <trkpt lat="46.23749" lon="6.56302">
        <ele>1509.89</ele>
        <time>2019-02-06T13:22:29Z</time>
      </trkpt>
      <trkpt lat="46.2375" lon="6.56301">
        <ele>1510.85</ele>
        <time>2019-02-06T13:23:50Z</time>
      </trkpt>
      <trkpt lat="46.2375" lon="6.56302">
        <ele>1511.33</ele>
        <time>2019-02-06T13:24:43Z</time>
      </trkpt>
      <trkpt lat="46.2375" lon="6.56306">
        <ele>1510.85</ele>
        <time>2019-02-06T13:25:08Z</time>
      </trkpt>
      <trkpt lat="46.2375" lon="6.5631">
        <ele>1510.37</ele>
        <time>2019-02-06T13:25:11Z</time>
      </trkpt>
      <trkpt lat="46.23749" lon="6.56327">
        <ele>1510.37</ele>
        <time>2019-02-06T13:25:24Z</time>
      </trkpt>
      <trkpt lat="46.23745" lon="6.56338">
        <ele>1509.89</ele>
        <time>2019-02-06T13:25:38Z</time>
      </trkpt>
      <trkpt lat="46.23743" lon="6.56341">
        <ele>1510.37</ele>
        <time>2019-02-06T13:25:41Z</time>
      </trkpt>
      <trkpt lat="46.23736" lon="6.56353">
        <ele>1509.41</ele>
        <time>2019-02-06T13:25:54Z</time>
      </trkpt>
      <trkpt lat="46.23731" lon="6.5636">
        <ele>1509.41</ele>
        <time>2019-02-06T13:26:05Z</time>
      </trkpt>
      <trkpt lat="46.23727" lon="6.5637">
        <ele>1509.41</ele>
        <time>2019-02-06T13:26:20Z</time>
      </trkpt>
      <trkpt lat="46.23721" lon="6.56379">
        <ele>1508.45</ele>
        <time>2019-02-06T13:26:34Z</time>
      </trkpt>
      <trkpt lat="46.23716" lon="6.56388">
        <ele>1507.48</ele>
        <time>2019-02-06T13:26:49Z</time>
      </trkpt>
      <trkpt lat="46.23711" lon="6.56395">
        <ele>1507</ele>
        <time>2019-02-06T13:27:03Z</time>
      </trkpt>
      <trkpt lat="46.23703" lon="6.56403">
        <ele>1507</ele>
        <time>2019-02-06T13:27:15Z</time>
      </trkpt>
      <trkpt lat="46.23698" lon="6.56412">
        <ele>1507</ele>
        <time>2019-02-06T13:27:26Z</time>
      </trkpt>
      <trkpt lat="46.23692" lon="6.5642">
        <ele>1506.04</ele>
        <time>2019-02-06T13:27:38Z</time>
      </trkpt>
      <trkpt lat="46.23686" lon="6.56429">
        <ele>1505.56</ele>
        <time>2019-02-06T13:27:50Z</time>
      </trkpt>
      <trkpt lat="46.23682" lon="6.56438">
        <ele>1504.6</ele>
        <time>2019-02-06T13:28:01Z</time>
      </trkpt>
      <trkpt lat="46.23678" lon="6.56447">
        <ele>1504.12</ele>
        <time>2019-02-06T13:28:12Z</time>
      </trkpt>
      <trkpt lat="46.23675" lon="6.56458">
        <ele>1503.64</ele>
        <time>2019-02-06T13:28:24Z</time>
      </trkpt>
      <trkpt lat="46.23672" lon="6.56468">
        <ele>1503.16</ele>
        <time>2019-02-06T13:28:36Z</time>
      </trkpt>
      <trkpt lat="46.23669" lon="6.56478">
        <ele>1502.68</ele>
        <time>2019-02-06T13:28:47Z</time>
      </trkpt>
      <trkpt lat="46.23669" lon="6.56488">
        <ele>1503.16</ele>
        <time>2019-02-06T13:29:01Z</time>
      </trkpt>
      <trkpt lat="46.23666" lon="6.565">
        <ele>1503.16</ele>
        <time>2019-02-06T13:29:12Z</time>
      </trkpt>
      <trkpt lat="46.23665" lon="6.56509">
        <ele>1502.68</ele>
        <time>2019-02-06T13:29:24Z</time>
      </trkpt>
      <trkpt lat="46.23663" lon="6.56521">
        <ele>1502.2</ele>
        <time>2019-02-06T13:29:37Z</time>
      </trkpt>
      <trkpt lat="46.23663" lon="6.56532">
        <ele>1502.68</ele>
        <time>2019-02-06T13:29:49Z</time>
      </trkpt>
      <trkpt lat="46.23661" lon="6.56538">
        <ele>1502.2</ele>
        <time>2019-02-06T13:29:59Z</time>
      </trkpt>
      <trkpt lat="46.23662" lon="6.56549">
        <ele>1502.68</ele>
        <time>2019-02-06T13:30:13Z</time>
      </trkpt>
      <trkpt lat="46.23662" lon="6.56552">
        <ele>1503.64</ele>
        <time>2019-02-06T13:30:25Z</time>
      </trkpt>
      <trkpt lat="46.23662" lon="6.56553">
        <ele>1503.64</ele>
        <time>2019-02-06T13:31:14Z</time>
      </trkpt>
      <trkpt lat="46.23662" lon="6.56553">
        <ele>1504.12</ele>
        <time>2019-02-06T13:31:42Z</time>
      </trkpt>
      <trkpt lat="46.23661" lon="6.56565">
        <ele>1504.12</ele>
        <time>2019-02-06T13:31:56Z</time>
      </trkpt>
      <trkpt lat="46.23661" lon="6.5658">
        <ele>1505.08</ele>
        <time>2019-02-06T13:32:10Z</time>
      </trkpt>
      <trkpt lat="46.23661" lon="6.56593">
        <ele>1505.56</ele>
        <time>2019-02-06T13:32:23Z</time>
      </trkpt>
      <trkpt lat="46.2366" lon="6.56603">
        <ele>1505.56</ele>
        <time>2019-02-06T13:32:35Z</time>
      </trkpt>
      <trkpt lat="46.2366" lon="6.5661">
        <ele>1506.52</ele>
        <time>2019-02-06T13:32:47Z</time>
      </trkpt>
      <trkpt lat="46.23661" lon="6.5662">
        <ele>1506.52</ele>
        <time>2019-02-06T13:32:58Z</time>
      </trkpt>
      <trkpt lat="46.23664" lon="6.56627">
        <ele>1507</ele>
        <time>2019-02-06T13:33:10Z</time>
      </trkpt>
      <trkpt lat="46.23672" lon="6.56637">
        <ele>1507</ele>
        <time>2019-02-06T13:33:22Z</time>
      </trkpt>
      <trkpt lat="46.23679" lon="6.56647">
        <ele>1507</ele>
        <time>2019-02-06T13:33:35Z</time>
      </trkpt>
      <trkpt lat="46.23681" lon="6.5665">
        <ele>1506.52</ele>
        <time>2019-02-06T13:33:39Z</time>
      </trkpt>
      <trkpt lat="46.23688" lon="6.5666">
        <ele>1506.04</ele>
        <time>2019-02-06T13:33:53Z</time>
      </trkpt>
      <trkpt lat="46.23691" lon="6.56668">
        <ele>1505.08</ele>
        <time>2019-02-06T13:34:01Z</time>
      </trkpt>
      <trkpt lat="46.23696" lon="6.56673">
        <ele>1504.6</ele>
        <time>2019-02-06T13:34:08Z</time>
      </trkpt>
      <trkpt lat="46.23705" lon="6.56684">
        <ele>1503.16</ele>
        <time>2019-02-06T13:34:20Z</time>
      </trkpt>
      <trkpt lat="46.23706" lon="6.56686">
        <ele>1503.16</ele>
        <time>2019-02-06T13:34:23Z</time>
      </trkpt>
      <trkpt lat="46.23709" lon="6.56692">
        <ele>1502.68</ele>
        <time>2019-02-06T13:34:29Z</time>
      </trkpt>
      <trkpt lat="46.2371" lon="6.56706">
        <ele>1502.2</ele>
        <time>2019-02-06T13:34:42Z</time>
      </trkpt>
      <trkpt lat="46.2371" lon="6.5672">
        <ele>1501.72</ele>
        <time>2019-02-06T13:34:54Z</time>
      </trkpt>
      <trkpt lat="46.23709" lon="6.56732">
        <ele>1501.72</ele>
        <time>2019-02-06T13:35:05Z</time>
      </trkpt>
      <trkpt lat="46.23709" lon="6.56745">
        <ele>1500.76</ele>
        <time>2019-02-06T13:35:17Z</time>
      </trkpt>
      <trkpt lat="46.2371" lon="6.56747">
        <ele>1500.27</ele>
        <time>2019-02-06T13:35:19Z</time>
      </trkpt>
      <trkpt lat="46.23712" lon="6.56753">
        <ele>1500.76</ele>
        <time>2019-02-06T13:35:32Z</time>
      </trkpt>
      <trkpt lat="46.23714" lon="6.56762">
        <ele>1499.79</ele>
        <time>2019-02-06T13:35:43Z</time>
      </trkpt>
      <trkpt lat="46.23711" lon="6.56776">
        <ele>1499.31</ele>
        <time>2019-02-06T13:35:55Z</time>
      </trkpt>
      <trkpt lat="46.23703" lon="6.56786">
        <ele>1498.83</ele>
        <time>2019-02-06T13:36:11Z</time>
      </trkpt>
      <trkpt lat="46.23695" lon="6.56791">
        <ele>1498.83</ele>
        <time>2019-02-06T13:36:22Z</time>
      </trkpt>
      <trkpt lat="46.23685" lon="6.56795">
        <ele>1497.39</ele>
        <time>2019-02-06T13:36:36Z</time>
      </trkpt>
      <trkpt lat="46.23677" lon="6.56796">
        <ele>1496.43</ele>
        <time>2019-02-06T13:36:46Z</time>
      </trkpt>
      <trkpt lat="46.23669" lon="6.56801">
        <ele>1495.47</ele>
        <time>2019-02-06T13:36:59Z</time>
      </trkpt>
      <trkpt lat="46.23665" lon="6.56805">
        <ele>1495.95</ele>
        <time>2019-02-06T13:37:06Z</time>
      </trkpt>
      <trkpt lat="46.23659" lon="6.56815">
        <ele>1495.47</ele>
        <time>2019-02-06T13:37:19Z</time>
      </trkpt>
      <trkpt lat="46.23659" lon="6.56818">
        <ele>1494.99</ele>
        <time>2019-02-06T13:37:23Z</time>
      </trkpt>
      <trkpt lat="46.23654" lon="6.56827">
        <ele>1494.99</ele>
        <time>2019-02-06T13:37:35Z</time>
      </trkpt>
      <trkpt lat="46.23651" lon="6.56834">
        <ele>1494.51</ele>
        <time>2019-02-06T13:37:54Z</time>
      </trkpt>
      <trkpt lat="46.23649" lon="6.56838">
        <ele>1494.99</ele>
        <time>2019-02-06T13:38:08Z</time>
      </trkpt>
      <trkpt lat="46.23645" lon="6.56844">
        <ele>1494.99</ele>
        <time>2019-02-06T13:38:17Z</time>
      </trkpt>
      <trkpt lat="46.23644" lon="6.56846">
        <ele>1494.99</ele>
        <time>2019-02-06T13:38:33Z</time>
      </trkpt>
      <trkpt lat="46.23644" lon="6.56847">
        <ele>1495.47</ele>
        <time>2019-02-06T13:38:58Z</time>
      </trkpt>
      <trkpt lat="46.23644" lon="6.56847">
        <ele>1495.47</ele>
        <time>2019-02-06T13:39:36Z</time>
      </trkpt>
      <trkpt lat="46.23643" lon="6.56849">
        <ele>1495.47</ele>
        <time>2019-02-06T13:40:26Z</time>
      </trkpt>
      <trkpt lat="46.23638" lon="6.56862">
        <ele>1496.43</ele>
        <time>2019-02-06T13:40:37Z</time>
      </trkpt>
      <trkpt lat="46.23633" lon="6.56872">
        <ele>1497.39</ele>
        <time>2019-02-06T13:40:48Z</time>
      </trkpt>
      <trkpt lat="46.23628" lon="6.5688">
        <ele>1497.39</ele>
        <time>2019-02-06T13:40:59Z</time>
      </trkpt>
      <trkpt lat="46.23625" lon="6.56888">
        <ele>1498.35</ele>
        <time>2019-02-06T13:41:10Z</time>
      </trkpt>
      <trkpt lat="46.23621" lon="6.56896">
        <ele>1498.35</ele>
        <time>2019-02-06T13:41:21Z</time>
      </trkpt>
      <trkpt lat="46.2362" lon="6.56904">
        <ele>1499.31</ele>
        <time>2019-02-06T13:41:32Z</time>
      </trkpt>
      <trkpt lat="46.23622" lon="6.56909">
        <ele>1499.79</ele>
        <time>2019-02-06T13:41:42Z</time>
      </trkpt>
      <trkpt lat="46.23625" lon="6.56915">
        <ele>1500.76</ele>
        <time>2019-02-06T13:41:54Z</time>
      </trkpt>
      <trkpt lat="46.2363" lon="6.56917">
        <ele>1501.24</ele>
        <time>2019-02-06T13:42:02Z</time>
      </trkpt>
      <trkpt lat="46.23636" lon="6.56924">
        <ele>1501.24</ele>
        <time>2019-02-06T13:42:14Z</time>
      </trkpt>
      <trkpt lat="46.23639" lon="6.56926">
        <ele>1502.2</ele>
        <time>2019-02-06T13:42:24Z</time>
      </trkpt>
      <trkpt lat="46.23644" lon="6.5693">
        <ele>1503.16</ele>
        <time>2019-02-06T13:42:34Z</time>
      </trkpt>
      <trkpt lat="46.23647" lon="6.56934">
        <ele>1503.16</ele>
        <time>2019-02-06T13:42:47Z</time>
      </trkpt>
      <trkpt lat="46.23651" lon="6.56937">
        <ele>1504.12</ele>
        <time>2019-02-06T13:42:58Z</time>
      </trkpt>
      <trkpt lat="46.23658" lon="6.56945">
        <ele>1504.12</ele>
        <time>2019-02-06T13:43:09Z</time>
      </trkpt>
      <trkpt lat="46.23663" lon="6.56951">
        <ele>1504.6</ele>
        <time>2019-02-06T13:43:19Z</time>
      </trkpt>
      <trkpt lat="46.23669" lon="6.56959">
        <ele>1505.08</ele>
        <time>2019-02-06T13:43:30Z</time>
      </trkpt>
      <trkpt lat="46.23671" lon="6.56962">
        <ele>1505.08</ele>
        <time>2019-02-06T13:43:40Z</time>
      </trkpt>
      <trkpt lat="46.23672" lon="6.56964">
        <ele>1505.56</ele>
        <time>2019-02-06T13:43:46Z</time>
      </trkpt>
      <trkpt lat="46.23673" lon="6.56965">
        <ele>1506.04</ele>
        <time>2019-02-06T13:43:48Z</time>
      </trkpt>
      <trkpt lat="46.2368" lon="6.56975">
        <ele>1506.04</ele>
        <time>2019-02-06T13:43:59Z</time>
      </trkpt>
      <trkpt lat="46.23683" lon="6.56979">
        <ele>1506.04</ele>
        <time>2019-02-06T13:44:05Z</time>
      </trkpt>
      <trkpt lat="46.2369" lon="6.56988">
        <ele>1506.04</ele>
        <time>2019-02-06T13:44:17Z</time>
      </trkpt>
      <trkpt lat="46.23695" lon="6.56998">
        <ele>1506.52</ele>
        <time>2019-02-06T13:44:32Z</time>
      </trkpt>
      <trkpt lat="46.237" lon="6.57005">
        <ele>1507.48</ele>
        <time>2019-02-06T13:44:43Z</time>
      </trkpt>
      <trkpt lat="46.23703" lon="6.57011">
        <ele>1507.48</ele>
        <time>2019-02-06T13:44:53Z</time>
      </trkpt>
      <trkpt lat="46.23707" lon="6.57017">
        <ele>1507.48</ele>
        <time>2019-02-06T13:45:03Z</time>
      </trkpt>
      <trkpt lat="46.23712" lon="6.57024">
        <ele>1508.93</ele>
        <time>2019-02-06T13:45:14Z</time>
      </trkpt>
      <trkpt lat="46.23717" lon="6.57032">
        <ele>1509.41</ele>
        <time>2019-02-06T13:45:25Z</time>
      </trkpt>
      <trkpt lat="46.23724" lon="6.5704">
        <ele>1509.41</ele>
        <time>2019-02-06T13:45:37Z</time>
      </trkpt>
      <trkpt lat="46.23724" lon="6.57041">
        <ele>1509.41</ele>
        <time>2019-02-06T13:45:38Z</time>
      </trkpt>
      <trkpt lat="46.23728" lon="6.57048">
        <ele>1509.89</ele>
        <time>2019-02-06T13:45:50Z</time>
      </trkpt>
      <trkpt lat="46.2373" lon="6.5705">
        <ele>1509.89</ele>
        <time>2019-02-06T13:45:54Z</time>
      </trkpt>
      <trkpt lat="46.23734" lon="6.57059">
        <ele>1510.85</ele>
        <time>2019-02-06T13:46:08Z</time>
      </trkpt>
      <trkpt lat="46.23739" lon="6.57067">
        <ele>1511.33</ele>
        <time>2019-02-06T13:46:19Z</time>
      </trkpt>
      <trkpt lat="46.23742" lon="6.57075">
        <ele>1511.81</ele>
        <time>2019-02-06T13:46:29Z</time>
      </trkpt>
      <trkpt lat="46.23746" lon="6.57081">
        <ele>1511.81</ele>
        <time>2019-02-06T13:46:39Z</time>
      </trkpt>
      <trkpt lat="46.23752" lon="6.57089">
        <ele>1511.81</ele>
        <time>2019-02-06T13:46:51Z</time>
      </trkpt>
      <trkpt lat="46.23754" lon="6.57091">
        <ele>1511.81</ele>
        <time>2019-02-06T13:46:55Z</time>
      </trkpt>
      <trkpt lat="46.23759" lon="6.57098">
        <ele>1511.33</ele>
        <time>2019-02-06T13:47:06Z</time>
      </trkpt>
      <trkpt lat="46.23766" lon="6.57103">
        <ele>1510.85</ele>
        <time>2019-02-06T13:47:15Z</time>
      </trkpt>
      <trkpt lat="46.23771" lon="6.57109">
        <ele>1510.85</ele>
        <time>2019-02-06T13:47:27Z</time>
      </trkpt>
      <trkpt lat="46.23778" lon="6.57115">
        <ele>1510.37</ele>
        <time>2019-02-06T13:47:39Z</time>
      </trkpt>
      <trkpt lat="46.23784" lon="6.5712">
        <ele>1510.37</ele>
        <time>2019-02-06T13:47:50Z</time>
      </trkpt>
      <trkpt lat="46.23788" lon="6.57129">
        <ele>1509.89</ele>
        <time>2019-02-06T13:48:01Z</time>
      </trkpt>
      <trkpt lat="46.23788" lon="6.57143">
        <ele>1508.93</ele>
        <time>2019-02-06T13:48:14Z</time>
      </trkpt>
      <trkpt lat="46.23787" lon="6.57155">
        <ele>1508.93</ele>
        <time>2019-02-06T13:48:25Z</time>
      </trkpt>
      <trkpt lat="46.23787" lon="6.57166">
        <ele>1508.45</ele>
        <time>2019-02-06T13:48:36Z</time>
      </trkpt>
      <trkpt lat="46.23789" lon="6.57169">
        <ele>1507.97</ele>
        <time>2019-02-06T13:48:42Z</time>
      </trkpt>
      <trkpt lat="46.23793" lon="6.57171">
        <ele>1507.97</ele>
        <time>2019-02-06T13:48:53Z</time>
      </trkpt>
      <trkpt lat="46.23797" lon="6.57172">
        <ele>1508.93</ele>
        <time>2019-02-06T13:49:04Z</time>
      </trkpt>
      <trkpt lat="46.23803" lon="6.57173">
        <ele>1509.41</ele>
        <time>2019-02-06T13:49:17Z</time>
      </trkpt>
      <trkpt lat="46.2381" lon="6.57173">
        <ele>1509.89</ele>
        <time>2019-02-06T13:49:28Z</time>
      </trkpt>
      <trkpt lat="46.23817" lon="6.57171">
        <ele>1509.89</ele>
        <time>2019-02-06T13:49:37Z</time>
      </trkpt>
      <trkpt lat="46.23822" lon="6.57168">
        <ele>1509.89</ele>
        <time>2019-02-06T13:49:45Z</time>
      </trkpt>
      <trkpt lat="46.2383" lon="6.57169">
        <ele>1509.41</ele>
        <time>2019-02-06T13:49:56Z</time>
      </trkpt>
      <trkpt lat="46.23836" lon="6.57171">
        <ele>1509.41</ele>
        <time>2019-02-06T13:50:03Z</time>
      </trkpt>
      <trkpt lat="46.23846" lon="6.57179">
        <ele>1508.93</ele>
        <time>2019-02-06T13:50:15Z</time>
      </trkpt>
      <trkpt lat="46.2385" lon="6.57187">
        <ele>1507.97</ele>
        <time>2019-02-06T13:50:29Z</time>
      </trkpt>
      <trkpt lat="46.23857" lon="6.57195">
        <ele>1506.52</ele>
        <time>2019-02-06T13:50:40Z</time>
      </trkpt>
      <trkpt lat="46.23865" lon="6.57202">
        <ele>1507</ele>
        <time>2019-02-06T13:50:51Z</time>
      </trkpt>
      <trkpt lat="46.2387" lon="6.57211">
        <ele>1506.52</ele>
        <time>2019-02-06T13:51:02Z</time>
      </trkpt>
      <trkpt lat="46.23874" lon="6.57216">
        <ele>1507</ele>
        <time>2019-02-06T13:51:13Z</time>
      </trkpt>
      <trkpt lat="46.23874" lon="6.57216">
        <ele>1507.48</ele>
        <time>2019-02-06T13:52:15Z</time>
      </trkpt>
      <trkpt lat="46.23874" lon="6.57216">
        <ele>1507</ele>
        <time>2019-02-06T13:53:58Z</time>
      </trkpt>
      <trkpt lat="46.23879" lon="6.5722">
        <ele>1507</ele>
        <time>2019-02-06T13:54:36Z</time>
      </trkpt>
      <trkpt lat="46.23884" lon="6.57225">
        <ele>1507.48</ele>
        <time>2019-02-06T13:54:44Z</time>
      </trkpt>
      <trkpt lat="46.23889" lon="6.57232">
        <ele>1507</ele>
        <time>2019-02-06T13:54:55Z</time>
      </trkpt>
      <trkpt lat="46.23895" lon="6.57239">
        <ele>1507.97</ele>
        <time>2019-02-06T13:55:07Z</time>
      </trkpt>
      <trkpt lat="46.239" lon="6.57247">
        <ele>1508.93</ele>
        <time>2019-02-06T13:55:19Z</time>
      </trkpt>
      <trkpt lat="46.23903" lon="6.57254">
        <ele>1508.45</ele>
        <time>2019-02-06T13:55:30Z</time>
      </trkpt>
      <trkpt lat="46.2391" lon="6.57265">
        <ele>1509.41</ele>
        <time>2019-02-06T13:55:45Z</time>
      </trkpt>
      <trkpt lat="46.23914" lon="6.57271">
        <ele>1509.41</ele>
        <time>2019-02-06T13:55:57Z</time>
      </trkpt>
      <trkpt lat="46.23916" lon="6.57272">
        <ele>1509.89</ele>
        <time>2019-02-06T13:56:01Z</time>
      </trkpt>
      <trkpt lat="46.23925" lon="6.57279">
        <ele>1509.41</ele>
        <time>2019-02-06T13:56:15Z</time>
      </trkpt>
      <trkpt lat="46.23933" lon="6.57285">
        <ele>1509.41</ele>
        <time>2019-02-06T13:56:27Z</time>
      </trkpt>
      <trkpt lat="46.23942" lon="6.57292">
        <ele>1507.97</ele>
        <time>2019-02-06T13:56:41Z</time>
      </trkpt>
      <trkpt lat="46.2395" lon="6.573">
        <ele>1507</ele>
        <time>2019-02-06T13:56:53Z</time>
      </trkpt>
      <trkpt lat="46.23951" lon="6.57303">
        <ele>1507</ele>
        <time>2019-02-06T13:56:58Z</time>
      </trkpt>
      <trkpt lat="46.23956" lon="6.57306">
        <ele>1506.52</ele>
        <time>2019-02-06T13:57:04Z</time>
      </trkpt>
      <trkpt lat="46.23966" lon="6.57311">
        <ele>1506.04</ele>
        <time>2019-02-06T13:57:17Z</time>
      </trkpt>
      <trkpt lat="46.23974" lon="6.57316">
        <ele>1506.04</ele>
        <time>2019-02-06T13:57:29Z</time>
      </trkpt>
      <trkpt lat="46.23982" lon="6.57317">
        <ele>1504.6</ele>
        <time>2019-02-06T13:57:41Z</time>
      </trkpt>
      <trkpt lat="46.23987" lon="6.57318">
        <ele>1503.64</ele>
        <time>2019-02-06T13:57:53Z</time>
      </trkpt>
      <trkpt lat="46.23993" lon="6.57317">
        <ele>1503.64</ele>
        <time>2019-02-06T13:58:03Z</time>
      </trkpt>
      <trkpt lat="46.24002" lon="6.57312">
        <ele>1503.64</ele>
        <time>2019-02-06T13:58:17Z</time>
      </trkpt>
      <trkpt lat="46.24009" lon="6.57314">
        <ele>1503.16</ele>
        <time>2019-02-06T13:58:24Z</time>
      </trkpt>
      <trkpt lat="46.24018" lon="6.57318">
        <ele>1502.68</ele>
        <time>2019-02-06T13:58:34Z</time>
      </trkpt>
      <trkpt lat="46.24021" lon="6.57318">
        <ele>1503.16</ele>
        <time>2019-02-06T13:58:36Z</time>
      </trkpt>
      <trkpt lat="46.24032" lon="6.5732">
        <ele>1503.16</ele>
        <time>2019-02-06T13:58:48Z</time>
      </trkpt>
      <trkpt lat="46.2404" lon="6.57322">
        <ele>1503.64</ele>
        <time>2019-02-06T13:59:01Z</time>
      </trkpt>
      <trkpt lat="46.24044" lon="6.57319">
        <ele>1504.6</ele>
        <time>2019-02-06T13:59:13Z</time>
      </trkpt>
      <trkpt lat="46.24052" lon="6.57317">
        <ele>1504.6</ele>
        <time>2019-02-06T13:59:24Z</time>
      </trkpt>
      <trkpt lat="46.24059" lon="6.57316">
        <ele>1505.08</ele>
        <time>2019-02-06T13:59:35Z</time>
      </trkpt>
      <trkpt lat="46.24069" lon="6.57322">
        <ele>1504.6</ele>
        <time>2019-02-06T13:59:46Z</time>
      </trkpt>
      <trkpt lat="46.24073" lon="6.57318">
        <ele>1505.08</ele>
        <time>2019-02-06T13:59:57Z</time>
      </trkpt>
      <trkpt lat="46.24076" lon="6.57315">
        <ele>1505.08</ele>
        <time>2019-02-06T14:00:12Z</time>
      </trkpt>
      <trkpt lat="46.24083" lon="6.57314">
        <ele>1505.56</ele>
        <time>2019-02-06T14:00:22Z</time>
      </trkpt>
      <trkpt lat="46.24092" lon="6.57316">
        <ele>1505.08</ele>
        <time>2019-02-06T14:00:33Z</time>
      </trkpt>
      <trkpt lat="46.24102" lon="6.57319">
        <ele>1504.6</ele>
        <time>2019-02-06T14:00:43Z</time>
      </trkpt>
      <trkpt lat="46.24112" lon="6.57321">
        <ele>1503.64</ele>
        <time>2019-02-06T14:00:55Z</time>
      </trkpt>
      <trkpt lat="46.24122" lon="6.5732">
        <ele>1503.64</ele>
        <time>2019-02-06T14:01:06Z</time>
      </trkpt>
      <trkpt lat="46.24127" lon="6.5732">
        <ele>1503.16</ele>
        <time>2019-02-06T14:01:11Z</time>
      </trkpt>
      <trkpt lat="46.24133" lon="6.57324">
        <ele>1503.16</ele>
        <time>2019-02-06T14:01:20Z</time>
      </trkpt>
      <trkpt lat="46.2414" lon="6.57323">
        <ele>1504.12</ele>
        <time>2019-02-06T14:01:30Z</time>
      </trkpt>
      <trkpt lat="46.24149" lon="6.57325">
        <ele>1504.12</ele>
        <time>2019-02-06T14:01:41Z</time>
      </trkpt>
      <trkpt lat="46.24152" lon="6.57328">
        <ele>1504.12</ele>
        <time>2019-02-06T14:01:44Z</time>
      </trkpt>
      <trkpt lat="46.24157" lon="6.57328">
        <ele>1505.08</ele>
        <time>2019-02-06T14:01:50Z</time>
      </trkpt>
      <trkpt lat="46.24161" lon="6.5733">
        <ele>1505.56</ele>
        <time>2019-02-06T14:01:55Z</time>
      </trkpt>
      <trkpt lat="46.24167" lon="6.57329">
        <ele>1506.04</ele>
        <time>2019-02-06T14:02:06Z</time>
      </trkpt>
      <trkpt lat="46.24172" lon="6.57325">
        <ele>1507</ele>
        <time>2019-02-06T14:02:16Z</time>
      </trkpt>
      <trkpt lat="46.24176" lon="6.57326">
        <ele>1507.48</ele>
        <time>2019-02-06T14:02:26Z</time>
      </trkpt>
      <trkpt lat="46.24179" lon="6.57326">
        <ele>1508.45</ele>
        <time>2019-02-06T14:02:38Z</time>
      </trkpt>
      <trkpt lat="46.24186" lon="6.57327">
        <ele>1508.45</ele>
        <time>2019-02-06T14:02:49Z</time>
      </trkpt>
      <trkpt lat="46.24195" lon="6.57328">
        <ele>1509.89</ele>
        <time>2019-02-06T14:03:02Z</time>
      </trkpt>
      <trkpt lat="46.24203" lon="6.5733">
        <ele>1510.85</ele>
        <time>2019-02-06T14:03:16Z</time>
      </trkpt>
      <trkpt lat="46.24204" lon="6.57331">
        <ele>1511.81</ele>
        <time>2019-02-06T14:03:24Z</time>
      </trkpt>
      <trkpt lat="46.24213" lon="6.57333">
        <ele>1512.29</ele>
        <time>2019-02-06T14:03:36Z</time>
      </trkpt>
      <trkpt lat="46.24221" lon="6.57337">
        <ele>1513.25</ele>
        <time>2019-02-06T14:03:47Z</time>
      </trkpt>
      <trkpt lat="46.24226" lon="6.57339">
        <ele>1513.73</ele>
        <time>2019-02-06T14:03:58Z</time>
      </trkpt>
      <trkpt lat="46.24235" lon="6.57345">
        <ele>1514.21</ele>
        <time>2019-02-06T14:04:08Z</time>
      </trkpt>
      <trkpt lat="46.24238" lon="6.57346">
        <ele>1514.21</ele>
        <time>2019-02-06T14:04:13Z</time>
      </trkpt>
      <trkpt lat="46.24242" lon="6.57348">
        <ele>1515.18</ele>
        <time>2019-02-06T14:04:24Z</time>
      </trkpt>
      <trkpt lat="46.24242" lon="6.57348">
        <ele>1514.21</ele>
        <time>2019-02-06T14:05:02Z</time>
      </trkpt>
      <trkpt lat="46.24242" lon="6.57348">
        <ele>1514.21</ele>
        <time>2019-02-06T14:05:55Z</time>
      </trkpt>
      <trkpt lat="46.24245" lon="6.57349">
        <ele>1514.69</ele>
        <time>2019-02-06T14:06:53Z</time>
      </trkpt>
      <trkpt lat="46.24247" lon="6.57355">
        <ele>1514.21</ele>
        <time>2019-02-06T14:07:05Z</time>
      </trkpt>
      <trkpt lat="46.24247" lon="6.57355">
        <ele>1514.69</ele>
        <time>2019-02-06T14:07:40Z</time>
      </trkpt>
      <trkpt lat="46.24249" lon="6.57355">
        <ele>1515.18</ele>
        <time>2019-02-06T14:08:15Z</time>
      </trkpt>
      <trkpt lat="46.24247" lon="6.57352">
        <ele>1514.69</ele>
        <time>2019-02-06T14:08:27Z</time>
      </trkpt>
      <trkpt lat="46.24246" lon="6.57352">
        <ele>1514.69</ele>
        <time>2019-02-06T14:10:03Z</time>
      </trkpt>
      <trkpt lat="46.24247" lon="6.57352">
        <ele>1514.69</ele>
        <time>2019-02-06T14:11:08Z</time>
      </trkpt>
      <trkpt lat="46.24246" lon="6.57352">
        <ele>1514.69</ele>
        <time>2019-02-06T14:12:18Z</time>
      </trkpt>
      <trkpt lat="46.24246" lon="6.57352">
        <ele>1514.69</ele>
        <time>2019-02-06T14:13:53Z</time>
      </trkpt>
      <trkpt lat="46.24252" lon="6.5735">
        <ele>1515.18</ele>
        <time>2019-02-06T14:15:10Z</time>
      </trkpt>
      <trkpt lat="46.24261" lon="6.57348">
        <ele>1515.66</ele>
        <time>2019-02-06T14:15:20Z</time>
      </trkpt>
      <trkpt lat="46.24267" lon="6.5735">
        <ele>1517.58</ele>
        <time>2019-02-06T14:15:32Z</time>
      </trkpt>
      <trkpt lat="46.2427" lon="6.57351">
        <ele>1517.58</ele>
        <time>2019-02-06T14:15:35Z</time>
      </trkpt>
      <trkpt lat="46.24275" lon="6.57354">
        <ele>1518.54</ele>
        <time>2019-02-06T14:15:46Z</time>
      </trkpt>
      <trkpt lat="46.24281" lon="6.57355">
        <ele>1520.46</ele>
        <time>2019-02-06T14:15:58Z</time>
      </trkpt>
      <trkpt lat="46.24287" lon="6.57356">
        <ele>1520.94</ele>
        <time>2019-02-06T14:16:08Z</time>
      </trkpt>
      <trkpt lat="46.24294" lon="6.57356">
        <ele>1520.46</ele>
        <time>2019-02-06T14:16:19Z</time>
      </trkpt>
      <trkpt lat="46.24308" lon="6.57348">
        <ele>1520.46</ele>
        <time>2019-02-06T14:16:32Z</time>
      </trkpt>
      <trkpt lat="46.24315" lon="6.57343">
        <ele>1519.5</ele>
        <time>2019-02-06T14:16:46Z</time>
      </trkpt>
      <trkpt lat="46.24325" lon="6.57336">
        <ele>1518.54</ele>
        <time>2019-02-06T14:17:00Z</time>
      </trkpt>
      <trkpt lat="46.24329" lon="6.57331">
        <ele>1517.1</ele>
        <time>2019-02-06T14:17:12Z</time>
      </trkpt>
      <trkpt lat="46.24338" lon="6.57323">
        <ele>1514.21</ele>
        <time>2019-02-06T14:17:26Z</time>
      </trkpt>
      <trkpt lat="46.24346" lon="6.57329">
        <ele>1511.33</ele>
        <time>2019-02-06T14:17:38Z</time>
      </trkpt>
      <trkpt lat="46.24355" lon="6.57332">
        <ele>1509.41</ele>
        <time>2019-02-06T14:17:50Z</time>
      </trkpt>
      <trkpt lat="46.24359" lon="6.5733">
        <ele>1507</ele>
        <time>2019-02-06T14:18:01Z</time>
      </trkpt>
      <trkpt lat="46.24368" lon="6.57332">
        <ele>1506.04</ele>
        <time>2019-02-06T14:18:13Z</time>
      </trkpt>
      <trkpt lat="46.24377" lon="6.57333">
        <ele>1504.12</ele>
        <time>2019-02-06T14:18:25Z</time>
      </trkpt>
      <trkpt lat="46.24386" lon="6.57333">
        <ele>1502.68</ele>
        <time>2019-02-06T14:18:37Z</time>
      </trkpt>
      <trkpt lat="46.24394" lon="6.57333">
        <ele>1500.76</ele>
        <time>2019-02-06T14:18:49Z</time>
      </trkpt>
      <trkpt lat="46.24399" lon="6.57333">
        <ele>1500.27</ele>
        <time>2019-02-06T14:19:01Z</time>
      </trkpt>
      <trkpt lat="46.24406" lon="6.57335">
        <ele>1500.76</ele>
        <time>2019-02-06T14:19:13Z</time>
      </trkpt>
      <trkpt lat="46.24407" lon="6.57337">
        <ele>1500.27</ele>
        <time>2019-02-06T14:19:31Z</time>
      </trkpt>
      <trkpt lat="46.24408" lon="6.57337">
        <ele>1499.79</ele>
        <time>2019-02-06T14:20:52Z</time>
      </trkpt>
      <trkpt lat="46.2441" lon="6.57338">
        <ele>1499.31</ele>
        <time>2019-02-06T14:21:22Z</time>
      </trkpt>
      <trkpt lat="46.24411" lon="6.57337">
        <ele>1498.35</ele>
        <time>2019-02-06T14:24:49Z</time>
      </trkpt>
      <trkpt lat="46.24415" lon="6.57337">
        <ele>1497.39</ele>
        <time>2019-02-06T14:25:04Z</time>
      </trkpt>
      <trkpt lat="46.24421" lon="6.57338">
        <ele>1495.47</ele>
        <time>2019-02-06T14:25:13Z</time>
      </trkpt>
      <trkpt lat="46.24431" lon="6.5734">
        <ele>1493.06</ele>
        <time>2019-02-06T14:25:23Z</time>
      </trkpt>
      <trkpt lat="46.24441" lon="6.5734">
        <ele>1491.62</ele>
        <time>2019-02-06T14:25:33Z</time>
      </trkpt>
      <trkpt lat="46.24443" lon="6.57339">
        <ele>1491.62</ele>
        <time>2019-02-06T14:25:35Z</time>
      </trkpt>
      <trkpt lat="46.24451" lon="6.57343">
        <ele>1489.22</ele>
        <time>2019-02-06T14:25:46Z</time>
      </trkpt>
      <trkpt lat="46.24455" lon="6.57342">
        <ele>1487.78</ele>
        <time>2019-02-06T14:25:59Z</time>
      </trkpt>
      <trkpt lat="46.24458" lon="6.57343">
        <ele>1486.34</ele>
        <time>2019-02-06T14:26:10Z</time>
      </trkpt>
      <trkpt lat="46.24462" lon="6.57347">
        <ele>1485.37</ele>
        <time>2019-02-06T14:26:21Z</time>
      </trkpt>
      <trkpt lat="46.24466" lon="6.57349">
        <ele>1483.93</ele>
        <time>2019-02-06T14:26:27Z</time>
      </trkpt>
      <trkpt lat="46.24481" lon="6.57353">
        <ele>1481.53</ele>
        <time>2019-02-06T14:26:41Z</time>
      </trkpt>
      <trkpt lat="46.24491" lon="6.57355">
        <ele>1480.09</ele>
        <time>2019-02-06T14:26:53Z</time>
      </trkpt>
      <trkpt lat="46.24499" lon="6.57359">
        <ele>1479.13</ele>
        <time>2019-02-06T14:27:03Z</time>
      </trkpt>
      <trkpt lat="46.24508" lon="6.57362">
        <ele>1477.2</ele>
        <time>2019-02-06T14:27:14Z</time>
      </trkpt>
      <trkpt lat="46.24516" lon="6.57374">
        <ele>1476.24</ele>
        <time>2019-02-06T14:27:25Z</time>
      </trkpt>
      <trkpt lat="46.24522" lon="6.57377">
        <ele>1474.8</ele>
        <time>2019-02-06T14:27:33Z</time>
      </trkpt>
      <trkpt lat="46.24533" lon="6.57376">
        <ele>1473.84</ele>
        <time>2019-02-06T14:27:44Z</time>
      </trkpt>
      <trkpt lat="46.24534" lon="6.57376">
        <ele>1473.84</ele>
        <time>2019-02-06T14:27:47Z</time>
      </trkpt>
      <trkpt lat="46.24541" lon="6.57378">
        <ele>1473.36</ele>
        <time>2019-02-06T14:27:54Z</time>
      </trkpt>
      <trkpt lat="46.24552" lon="6.57386">
        <ele>1471.92</ele>
        <time>2019-02-06T14:28:06Z</time>
      </trkpt>
      <trkpt lat="46.24556" lon="6.57389">
        <ele>1471.44</ele>
        <time>2019-02-06T14:28:10Z</time>
      </trkpt>
      <trkpt lat="46.24558" lon="6.57391">
        <ele>1470.95</ele>
        <time>2019-02-06T14:28:14Z</time>
      </trkpt>
      <trkpt lat="46.24566" lon="6.57399">
        <ele>1469.99</ele>
        <time>2019-02-06T14:28:26Z</time>
      </trkpt>
      <trkpt lat="46.24575" lon="6.57407">
        <ele>1468.07</ele>
        <time>2019-02-06T14:28:38Z</time>
      </trkpt>
      <trkpt lat="46.24578" lon="6.57409">
        <ele>1467.59</ele>
        <time>2019-02-06T14:28:42Z</time>
      </trkpt>
      <trkpt lat="46.24584" lon="6.57415">
        <ele>1466.15</ele>
        <time>2019-02-06T14:28:50Z</time>
      </trkpt>
      <trkpt lat="46.24593" lon="6.57421">
        <ele>1464.23</ele>
        <time>2019-02-06T14:29:04Z</time>
      </trkpt>
      <trkpt lat="46.24602" lon="6.57419">
        <ele>1462.3</ele>
        <time>2019-02-06T14:29:17Z</time>
      </trkpt>
      <trkpt lat="46.24606" lon="6.57419">
        <ele>1461.34</ele>
        <time>2019-02-06T14:29:26Z</time>
      </trkpt>
      <trkpt lat="46.24613" lon="6.5742">
        <ele>1459.42</ele>
        <time>2019-02-06T14:29:38Z</time>
      </trkpt>
      <trkpt lat="46.24619" lon="6.57424">
        <ele>1457.98</ele>
        <time>2019-02-06T14:29:49Z</time>
      </trkpt>
      <trkpt lat="46.24626" lon="6.57428">
        <ele>1456.05</ele>
        <time>2019-02-06T14:29:59Z</time>
      </trkpt>
      <trkpt lat="46.24633" lon="6.57434">
        <ele>1454.61</ele>
        <time>2019-02-06T14:30:10Z</time>
      </trkpt>
      <trkpt lat="46.24639" lon="6.57439">
        <ele>1453.17</ele>
        <time>2019-02-06T14:30:18Z</time>
      </trkpt>
      <trkpt lat="46.24646" lon="6.5745">
        <ele>1450.77</ele>
        <time>2019-02-06T14:30:31Z</time>
      </trkpt>
      <trkpt lat="46.24651" lon="6.57461">
        <ele>1449.32</ele>
        <time>2019-02-06T14:30:44Z</time>
      </trkpt>
      <trkpt lat="46.24652" lon="6.57466">
        <ele>1447.88</ele>
        <time>2019-02-06T14:30:57Z</time>
      </trkpt>
      <trkpt lat="46.24651" lon="6.57467">
        <ele>1447.88</ele>
        <time>2019-02-06T14:31:32Z</time>
      </trkpt>
      <trkpt lat="46.24653" lon="6.57468">
        <ele>1447.88</ele>
        <time>2019-02-06T14:31:48Z</time>
      </trkpt>
      <trkpt lat="46.24653" lon="6.57468">
        <ele>1446.92</ele>
        <time>2019-02-06T14:32:03Z</time>
      </trkpt>
      <trkpt lat="46.24656" lon="6.57462">
        <ele>1446.92</ele>
        <time>2019-02-06T14:32:08Z</time>
      </trkpt>
      <trkpt lat="46.24664" lon="6.57453">
        <ele>1446.92</ele>
        <time>2019-02-06T14:32:19Z</time>
      </trkpt>
      <trkpt lat="46.24665" lon="6.57448">
        <ele>1446.44</ele>
        <time>2019-02-06T14:32:23Z</time>
      </trkpt>
      <trkpt lat="46.24666" lon="6.57444">
        <ele>1446.44</ele>
        <time>2019-02-06T14:32:26Z</time>
      </trkpt>
      <trkpt lat="46.24669" lon="6.57434">
        <ele>1445</ele>
        <time>2019-02-06T14:32:35Z</time>
      </trkpt>
      <trkpt lat="46.24671" lon="6.57419">
        <ele>1443.08</ele>
        <time>2019-02-06T14:32:48Z</time>
      </trkpt>
      <trkpt lat="46.2467" lon="6.57418">
        <ele>1444.04</ele>
        <time>2019-02-06T14:32:49Z</time>
      </trkpt>
      <trkpt lat="46.24673" lon="6.57407">
        <ele>1441.63</ele>
        <time>2019-02-06T14:33:00Z</time>
      </trkpt>
      <trkpt lat="46.24676" lon="6.57402">
        <ele>1440.19</ele>
        <time>2019-02-06T14:33:05Z</time>
      </trkpt>
      <trkpt lat="46.24681" lon="6.57396">
        <ele>1438.27</ele>
        <time>2019-02-06T14:33:15Z</time>
      </trkpt>
      <trkpt lat="46.24681" lon="6.57396">
        <ele>1438.27</ele>
        <time>2019-02-06T14:33:16Z</time>
      </trkpt>
      <trkpt lat="46.24681" lon="6.57393">
        <ele>1437.31</ele>
        <time>2019-02-06T14:33:19Z</time>
      </trkpt>
      <trkpt lat="46.24685" lon="6.57386">
        <ele>1435.87</ele>
        <time>2019-02-06T14:33:27Z</time>
      </trkpt>
      <trkpt lat="46.24688" lon="6.57373">
        <ele>1433.46</ele>
        <time>2019-02-06T14:33:39Z</time>
      </trkpt>
      <trkpt lat="46.24694" lon="6.57371">
        <ele>1432.5</ele>
        <time>2019-02-06T14:33:52Z</time>
      </trkpt>
      <trkpt lat="46.24705" lon="6.57357">
        <ele>1432.02</ele>
        <time>2019-02-06T14:34:08Z</time>
      </trkpt>
      <trkpt lat="46.24709" lon="6.57346">
        <ele>1430.1</ele>
        <time>2019-02-06T14:34:18Z</time>
      </trkpt>
      <trkpt lat="46.24712" lon="6.5734">
        <ele>1429.14</ele>
        <time>2019-02-06T14:34:22Z</time>
      </trkpt>
      <trkpt lat="46.24716" lon="6.57332">
        <ele>1427.21</ele>
        <time>2019-02-06T14:34:34Z</time>
      </trkpt>
      <trkpt lat="46.24721" lon="6.57326">
        <ele>1425.77</ele>
        <time>2019-02-06T14:34:45Z</time>
      </trkpt>
      <trkpt lat="46.24728" lon="6.57318">
        <ele>1424.33</ele>
        <time>2019-02-06T14:34:54Z</time>
      </trkpt>
      <trkpt lat="46.2473" lon="6.57311">
        <ele>1423.85</ele>
        <time>2019-02-06T14:34:58Z</time>
      </trkpt>
      <trkpt lat="46.24737" lon="6.57303">
        <ele>1421.93</ele>
        <time>2019-02-06T14:35:10Z</time>
      </trkpt>
      <trkpt lat="46.2474" lon="6.57296">
        <ele>1420</ele>
        <time>2019-02-06T14:35:20Z</time>
      </trkpt>
      <trkpt lat="46.24744" lon="6.57289">
        <ele>1418.08</ele>
        <time>2019-02-06T14:35:34Z</time>
      </trkpt>
      <trkpt lat="46.2475" lon="6.5728">
        <ele>1416.16</ele>
        <time>2019-02-06T14:35:46Z</time>
      </trkpt>
      <trkpt lat="46.24755" lon="6.57275">
        <ele>1414.72</ele>
        <time>2019-02-06T14:35:52Z</time>
      </trkpt>
      <trkpt lat="46.24763" lon="6.57264">
        <ele>1413.28</ele>
        <time>2019-02-06T14:36:03Z</time>
      </trkpt>
      <trkpt lat="46.24769" lon="6.57258">
        <ele>1410.39</ele>
        <time>2019-02-06T14:36:14Z</time>
      </trkpt>
      <trkpt lat="46.24774" lon="6.57255">
        <ele>1407.99</ele>
        <time>2019-02-06T14:36:26Z</time>
      </trkpt>
      <trkpt lat="46.24783" lon="6.57248">
        <ele>1405.58</ele>
        <time>2019-02-06T14:36:36Z</time>
      </trkpt>
      <trkpt lat="46.2479" lon="6.57242">
        <ele>1404.14</ele>
        <time>2019-02-06T14:36:46Z</time>
      </trkpt>
      <trkpt lat="46.24791" lon="6.57242">
        <ele>1403.18</ele>
        <time>2019-02-06T14:36:48Z</time>
      </trkpt>
      <trkpt lat="46.24798" lon="6.57236">
        <ele>1401.74</ele>
        <time>2019-02-06T14:36:59Z</time>
      </trkpt>
      <trkpt lat="46.24805" lon="6.57232">
        <ele>1398.37</ele>
        <time>2019-02-06T14:37:13Z</time>
      </trkpt>
      <trkpt lat="46.24807" lon="6.57228">
        <ele>1396.93</ele>
        <time>2019-02-06T14:37:19Z</time>
      </trkpt>
      <trkpt lat="46.24815" lon="6.57223">
        <ele>1394.53</ele>
        <time>2019-02-06T14:37:30Z</time>
      </trkpt>
      <trkpt lat="46.24815" lon="6.57222">
        <ele>1394.05</ele>
        <time>2019-02-06T14:37:31Z</time>
      </trkpt>
      <trkpt lat="46.24819" lon="6.57217">
        <ele>1391.17</ele>
        <time>2019-02-06T14:37:42Z</time>
      </trkpt>
      <trkpt lat="46.24824" lon="6.57213">
        <ele>1388.76</ele>
        <time>2019-02-06T14:37:53Z</time>
      </trkpt>
      <trkpt lat="46.2483" lon="6.57202">
        <ele>1385.88</ele>
        <time>2019-02-06T14:38:06Z</time>
      </trkpt>
      <trkpt lat="46.24832" lon="6.57193">
        <ele>1384.44</ele>
        <time>2019-02-06T14:38:17Z</time>
      </trkpt>
      <trkpt lat="46.24834" lon="6.57189">
        <ele>1383.47</ele>
        <time>2019-02-06T14:38:30Z</time>
      </trkpt>
      <trkpt lat="46.24835" lon="6.57189">
        <ele>1383.47</ele>
        <time>2019-02-06T14:40:11Z</time>
      </trkpt>
      <trkpt lat="46.24839" lon="6.57178">
        <ele>1381.07</ele>
        <time>2019-02-06T14:40:26Z</time>
      </trkpt>
      <trkpt lat="46.24843" lon="6.57172">
        <ele>1380.11</ele>
        <time>2019-02-06T14:40:32Z</time>
      </trkpt>
      <trkpt lat="46.24847" lon="6.57161">
        <ele>1378.67</ele>
        <time>2019-02-06T14:40:39Z</time>
      </trkpt>
      <trkpt lat="46.24854" lon="6.5715">
        <ele>1376.75</ele>
        <time>2019-02-06T14:40:52Z</time>
      </trkpt>
      <trkpt lat="46.24864" lon="6.57139">
        <ele>1373.38</ele>
        <time>2019-02-06T14:41:03Z</time>
      </trkpt>
      <trkpt lat="46.24872" lon="6.5713">
        <ele>1371.46</ele>
        <time>2019-02-06T14:41:13Z</time>
      </trkpt>
      <trkpt lat="46.24873" lon="6.57129">
        <ele>1371.46</ele>
        <time>2019-02-06T14:41:14Z</time>
      </trkpt>
      <trkpt lat="46.24874" lon="6.57128">
        <ele>1370.98</ele>
        <time>2019-02-06T14:41:15Z</time>
      </trkpt>
      <trkpt lat="46.24875" lon="6.57119">
        <ele>1370.98</ele>
        <time>2019-02-06T14:41:21Z</time>
      </trkpt>
      <trkpt lat="46.24876" lon="6.57113">
        <ele>1369.54</ele>
        <time>2019-02-06T14:41:26Z</time>
      </trkpt>
      <trkpt lat="46.24877" lon="6.57098">
        <ele>1367.61</ele>
        <time>2019-02-06T14:41:35Z</time>
      </trkpt>
      <trkpt lat="46.24876" lon="6.57081">
        <ele>1365.69</ele>
        <time>2019-02-06T14:41:46Z</time>
      </trkpt>
      <trkpt lat="46.24872" lon="6.57067">
        <ele>1362.33</ele>
        <time>2019-02-06T14:41:57Z</time>
      </trkpt>
      <trkpt lat="46.24871" lon="6.57064">
        <ele>1361.36</ele>
        <time>2019-02-06T14:42:00Z</time>
      </trkpt>
      <trkpt lat="46.24868" lon="6.57051">
        <ele>1358</ele>
        <time>2019-02-06T14:42:12Z</time>
      </trkpt>
      <trkpt lat="46.24866" lon="6.5704">
        <ele>1355.12</ele>
        <time>2019-02-06T14:42:21Z</time>
      </trkpt>
      <trkpt lat="46.24866" lon="6.57036">
        <ele>1354.15</ele>
        <time>2019-02-06T14:42:25Z</time>
      </trkpt>
      <trkpt lat="46.24864" lon="6.57035">
        <ele>1353.67</ele>
        <time>2019-02-06T14:42:27Z</time>
      </trkpt>
      <trkpt lat="46.24857" lon="6.5703">
        <ele>1352.71</ele>
        <time>2019-02-06T14:42:42Z</time>
      </trkpt>
      <trkpt lat="46.2485" lon="6.57027">
        <ele>1351.27</ele>
        <time>2019-02-06T14:42:55Z</time>
      </trkpt>
      <trkpt lat="46.2484" lon="6.57017">
        <ele>1348.39</ele>
        <time>2019-02-06T14:43:08Z</time>
      </trkpt>
      <trkpt lat="46.24838" lon="6.57004">
        <ele>1346.46</ele>
        <time>2019-02-06T14:43:19Z</time>
      </trkpt>
      <trkpt lat="46.24839" lon="6.57001">
        <ele>1346.94</ele>
        <time>2019-02-06T14:43:21Z</time>
      </trkpt>
      <trkpt lat="46.24839" lon="6.56995">
        <ele>1345.02</ele>
        <time>2019-02-06T14:43:25Z</time>
      </trkpt>
      <trkpt lat="46.24838" lon="6.56991">
        <ele>1344.06</ele>
        <time>2019-02-06T14:43:30Z</time>
      </trkpt>
      <trkpt lat="46.2484" lon="6.56984">
        <ele>1343.1</ele>
        <time>2019-02-06T14:43:34Z</time>
      </trkpt>
      <trkpt lat="46.24839" lon="6.56973">
        <ele>1341.18</ele>
        <time>2019-02-06T14:43:44Z</time>
      </trkpt>
      <trkpt lat="46.24837" lon="6.56964">
        <ele>1339.25</ele>
        <time>2019-02-06T14:43:55Z</time>
      </trkpt>
      <trkpt lat="46.24837" lon="6.56952">
        <ele>1335.89</ele>
        <time>2019-02-06T14:44:08Z</time>
      </trkpt>
      <trkpt lat="46.24837" lon="6.56951">
        <ele>1334.93</ele>
        <time>2019-02-06T14:44:13Z</time>
      </trkpt>
      <trkpt lat="46.24835" lon="6.56937">
        <ele>1333.97</ele>
        <time>2019-02-06T14:44:21Z</time>
      </trkpt>
      <trkpt lat="46.24835" lon="6.56932">
        <ele>1333.01</ele>
        <time>2019-02-06T14:44:24Z</time>
      </trkpt>
      <trkpt lat="46.24834" lon="6.56928">
        <ele>1332.52</ele>
        <time>2019-02-06T14:44:26Z</time>
      </trkpt>
      <trkpt lat="46.24835" lon="6.56923">
        <ele>1331.56</ele>
        <time>2019-02-06T14:44:29Z</time>
      </trkpt>
      <trkpt lat="46.24836" lon="6.5692">
        <ele>1331.56</ele>
        <time>2019-02-06T14:44:31Z</time>
      </trkpt>
      <trkpt lat="46.24836" lon="6.56917">
        <ele>1331.08</ele>
        <time>2019-02-06T14:44:33Z</time>
      </trkpt>
      <trkpt lat="46.24841" lon="6.5691">
        <ele>1331.08</ele>
        <time>2019-02-06T14:44:39Z</time>
      </trkpt>
      <trkpt lat="46.24844" lon="6.56907">
        <ele>1330.6</ele>
        <time>2019-02-06T14:44:44Z</time>
      </trkpt>
      <trkpt lat="46.24852" lon="6.56897">
        <ele>1329.16</ele>
        <time>2019-02-06T14:44:56Z</time>
      </trkpt>
      <trkpt lat="46.24854" lon="6.56891">
        <ele>1328.68</ele>
        <time>2019-02-06T14:45:01Z</time>
      </trkpt>
      <trkpt lat="46.24852" lon="6.56877">
        <ele>1326.28</ele>
        <time>2019-02-06T14:45:12Z</time>
      </trkpt>
      <trkpt lat="46.24852" lon="6.56858">
        <ele>1323.87</ele>
        <time>2019-02-06T14:45:25Z</time>
      </trkpt>
      <trkpt lat="46.24853" lon="6.56854">
        <ele>1322.91</ele>
        <time>2019-02-06T14:45:28Z</time>
      </trkpt>
      <trkpt lat="46.24855" lon="6.56844">
        <ele>1320.51</ele>
        <time>2019-02-06T14:45:38Z</time>
      </trkpt>
      <trkpt lat="46.24855" lon="6.56838">
        <ele>1319.55</ele>
        <time>2019-02-06T14:45:43Z</time>
      </trkpt>
      <trkpt lat="46.24853" lon="6.56824">
        <ele>1318.1</ele>
        <time>2019-02-06T14:45:56Z</time>
      </trkpt>
      <trkpt lat="46.24853" lon="6.56819">
        <ele>1317.14</ele>
        <time>2019-02-06T14:46:10Z</time>
      </trkpt>
      <trkpt lat="46.24853" lon="6.56819">
        <ele>1317.14</ele>
        <time>2019-02-06T14:47:37Z</time>
      </trkpt>
      <trkpt lat="46.24854" lon="6.56819">
        <ele>1316.66</ele>
        <time>2019-02-06T14:48:02Z</time>
      </trkpt>
      <trkpt lat="46.24854" lon="6.56816">
        <ele>1316.66</ele>
        <time>2019-02-06T14:49:01Z</time>
      </trkpt>
      <trkpt lat="46.24853" lon="6.56815">
        <ele>1317.14</ele>
        <time>2019-02-06T14:49:54Z</time>
      </trkpt>
      <trkpt lat="46.24854" lon="6.56815">
        <ele>1316.66</ele>
        <time>2019-02-06T14:51:07Z</time>
      </trkpt>
      <trkpt lat="46.24853" lon="6.56814">
        <ele>1316.66</ele>
        <time>2019-02-06T14:51:56Z</time>
      </trkpt>
      <trkpt lat="46.2485" lon="6.5682">
        <ele>1317.62</ele>
        <time>2019-02-06T14:52:06Z</time>
      </trkpt>
      <trkpt lat="46.2485" lon="6.5682">
        <ele>1317.62</ele>
        <time>2019-02-06T14:52:39Z</time>
      </trkpt>
      <trkpt lat="46.24851" lon="6.5682">
        <ele>1317.62</ele>
        <time>2019-02-06T14:52:50Z</time>
      </trkpt>
      <trkpt lat="46.24852" lon="6.56817">
        <ele>1316.66</ele>
        <time>2019-02-06T14:53:08Z</time>
      </trkpt>
      <trkpt lat="46.24852" lon="6.56817">
        <ele>1317.14</ele>
        <time>2019-02-06T14:53:35Z</time>
      </trkpt>
      <trkpt lat="46.24852" lon="6.56817">
        <ele>1317.14</ele>
        <time>2019-02-06T14:55:29Z</time>
      </trkpt>
      <trkpt lat="46.2485" lon="6.56801">
        <ele>1314.74</ele>
        <time>2019-02-06T14:55:43Z</time>
      </trkpt>
      <trkpt lat="46.24849" lon="6.568">
        <ele>1314.74</ele>
        <time>2019-02-06T14:55:44Z</time>
      </trkpt>
      <trkpt lat="46.24844" lon="6.56787">
        <ele>1313.78</ele>
        <time>2019-02-06T14:55:57Z</time>
      </trkpt>
      <trkpt lat="46.24842" lon="6.5678">
        <ele>1312.34</ele>
        <time>2019-02-06T14:56:04Z</time>
      </trkpt>
      <trkpt lat="46.24836" lon="6.56765">
        <ele>1310.41</ele>
        <time>2019-02-06T14:56:17Z</time>
      </trkpt>
      <trkpt lat="46.24831" lon="6.56753">
        <ele>1308.97</ele>
        <time>2019-02-06T14:56:29Z</time>
      </trkpt>
      <trkpt lat="46.2483" lon="6.56747">
        <ele>1308.97</ele>
        <time>2019-02-06T14:56:33Z</time>
      </trkpt>
      <trkpt lat="46.24828" lon="6.56738">
        <ele>1308.01</ele>
        <time>2019-02-06T14:56:41Z</time>
      </trkpt>
      <trkpt lat="46.24824" lon="6.56725">
        <ele>1307.53</ele>
        <time>2019-02-06T14:56:53Z</time>
      </trkpt>
      <trkpt lat="46.24823" lon="6.56724">
        <ele>1306.57</ele>
        <time>2019-02-06T14:56:54Z</time>
      </trkpt>
      <trkpt lat="46.24821" lon="6.56716">
        <ele>1305.61</ele>
        <time>2019-02-06T14:57:00Z</time>
      </trkpt>
      <trkpt lat="46.24819" lon="6.56707">
        <ele>1304.65</ele>
        <time>2019-02-06T14:57:08Z</time>
      </trkpt>
      <trkpt lat="46.24818" lon="6.56704">
        <ele>1303.69</ele>
        <time>2019-02-06T14:57:10Z</time>
      </trkpt>
      <trkpt lat="46.24812" lon="6.56692">
        <ele>1302.24</ele>
        <time>2019-02-06T14:57:21Z</time>
      </trkpt>
      <trkpt lat="46.24809" lon="6.56682">
        <ele>1300.32</ele>
        <time>2019-02-06T14:57:32Z</time>
      </trkpt>
      <trkpt lat="46.24805" lon="6.56676">
        <ele>1296.96</ele>
        <time>2019-02-06T14:57:39Z</time>
      </trkpt>
      <trkpt lat="46.24801" lon="6.56672">
        <ele>1296.96</ele>
        <time>2019-02-06T14:57:43Z</time>
      </trkpt>
      <trkpt lat="46.248" lon="6.5667">
        <ele>1296.48</ele>
        <time>2019-02-06T14:57:45Z</time>
      </trkpt>
      <trkpt lat="46.24798" lon="6.56665">
        <ele>1295.03</ele>
        <time>2019-02-06T14:57:50Z</time>
      </trkpt>
      <trkpt lat="46.24803" lon="6.56661">
        <ele>1294.07</ele>
        <time>2019-02-06T14:57:57Z</time>
      </trkpt>
      <trkpt lat="46.24808" lon="6.56648">
        <ele>1291.67</ele>
        <time>2019-02-06T14:58:08Z</time>
      </trkpt>
      <trkpt lat="46.24807" lon="6.56638">
        <ele>1290.23</ele>
        <time>2019-02-06T14:58:17Z</time>
      </trkpt>
      <trkpt lat="46.24806" lon="6.56635">
        <ele>1289.75</ele>
        <time>2019-02-06T14:58:19Z</time>
      </trkpt>
      <trkpt lat="46.24802" lon="6.56622">
        <ele>1286.86</ele>
        <time>2019-02-06T14:58:29Z</time>
      </trkpt>
      <trkpt lat="46.24801" lon="6.56618">
        <ele>1285.9</ele>
        <time>2019-02-06T14:58:32Z</time>
      </trkpt>
      <trkpt lat="46.248" lon="6.56612">
        <ele>1285.9</ele>
        <time>2019-02-06T14:58:36Z</time>
      </trkpt>
      <trkpt lat="46.24794" lon="6.56593">
        <ele>1282.54</ele>
        <time>2019-02-06T14:58:50Z</time>
      </trkpt>
      <trkpt lat="46.24794" lon="6.5659">
        <ele>1282.54</ele>
        <time>2019-02-06T14:58:52Z</time>
      </trkpt>
      <trkpt lat="46.24794" lon="6.56587">
        <ele>1282.06</ele>
        <time>2019-02-06T14:58:54Z</time>
      </trkpt>
      <trkpt lat="46.24793" lon="6.56573">
        <ele>1280.61</ele>
        <time>2019-02-06T14:59:04Z</time>
      </trkpt>
      <trkpt lat="46.24793" lon="6.56556">
        <ele>1278.21</ele>
        <time>2019-02-06T14:59:16Z</time>
      </trkpt>
      <trkpt lat="46.24787" lon="6.56536">
        <ele>1277.25</ele>
        <time>2019-02-06T14:59:30Z</time>
      </trkpt>
      <trkpt lat="46.24786" lon="6.56533">
        <ele>1276.77</ele>
        <time>2019-02-06T14:59:32Z</time>
      </trkpt>
      <trkpt lat="46.24784" lon="6.56517">
        <ele>1275.33</ele>
        <time>2019-02-06T14:59:43Z</time>
      </trkpt>
      <trkpt lat="46.24789" lon="6.56505">
        <ele>1274.36</ele>
        <time>2019-02-06T14:59:53Z</time>
      </trkpt>
      <trkpt lat="46.24798" lon="6.56496">
        <ele>1273.4</ele>
        <time>2019-02-06T15:00:03Z</time>
      </trkpt>
      <trkpt lat="46.248" lon="6.56492">
        <ele>1273.4</ele>
        <time>2019-02-06T15:00:06Z</time>
      </trkpt>
      <trkpt lat="46.24803" lon="6.56486">
        <ele>1273.4</ele>
        <time>2019-02-06T15:00:11Z</time>
      </trkpt>
      <trkpt lat="46.24806" lon="6.56473">
        <ele>1272.44</ele>
        <time>2019-02-06T15:00:24Z</time>
      </trkpt>
      <trkpt lat="46.24813" lon="6.56455">
        <ele>1271.48</ele>
        <time>2019-02-06T15:00:36Z</time>
      </trkpt>
      <trkpt lat="46.24817" lon="6.56443">
        <ele>1271</ele>
        <time>2019-02-06T15:00:48Z</time>
      </trkpt>
      <trkpt lat="46.24822" lon="6.56429">
        <ele>1270.04</ele>
        <time>2019-02-06T15:01:00Z</time>
      </trkpt>
      <trkpt lat="46.24824" lon="6.56421">
        <ele>1269.56</ele>
        <time>2019-02-06T15:01:06Z</time>
      </trkpt>
      <trkpt lat="46.24825" lon="6.56407">
        <ele>1270.04</ele>
        <time>2019-02-06T15:01:15Z</time>
      </trkpt>
      <trkpt lat="46.24825" lon="6.56389">
        <ele>1270.04</ele>
        <time>2019-02-06T15:01:26Z</time>
      </trkpt>
      <trkpt lat="46.24826" lon="6.56373">
        <ele>1269.56</ele>
        <time>2019-02-06T15:01:36Z</time>
      </trkpt>
      <trkpt lat="46.24826" lon="6.56369">
        <ele>1269.56</ele>
        <time>2019-02-06T15:01:39Z</time>
      </trkpt>
      <trkpt lat="46.24829" lon="6.56353">
        <ele>1269.08</ele>
        <time>2019-02-06T15:01:51Z</time>
      </trkpt>
      <trkpt lat="46.24832" lon="6.56338">
        <ele>1269.08</ele>
        <time>2019-02-06T15:02:03Z</time>
      </trkpt>
      <trkpt lat="46.24833" lon="6.56331">
        <ele>1269.56</ele>
        <time>2019-02-06T15:02:07Z</time>
      </trkpt>
      <trkpt lat="46.24832" lon="6.56328">
        <ele>1269.08</ele>
        <time>2019-02-06T15:02:09Z</time>
      </trkpt>
      <trkpt lat="46.24834" lon="6.56312">
        <ele>1269.08</ele>
        <time>2019-02-06T15:02:21Z</time>
      </trkpt>
      <trkpt lat="46.24835" lon="6.56295">
        <ele>1267.64</ele>
        <time>2019-02-06T15:02:33Z</time>
      </trkpt>
      <trkpt lat="46.24835" lon="6.56292">
        <ele>1267.16</ele>
        <time>2019-02-06T15:02:35Z</time>
      </trkpt>
      <trkpt lat="46.24834" lon="6.56277">
        <ele>1266.19</ele>
        <time>2019-02-06T15:02:46Z</time>
      </trkpt>
      <trkpt lat="46.24835" lon="6.56273">
        <ele>1266.19</ele>
        <time>2019-02-06T15:02:49Z</time>
      </trkpt>
      <trkpt lat="46.24834" lon="6.56253">
        <ele>1265.23</ele>
        <time>2019-02-06T15:03:03Z</time>
      </trkpt>
      <trkpt lat="46.24833" lon="6.5625">
        <ele>1265.23</ele>
        <time>2019-02-06T15:03:05Z</time>
      </trkpt>
      <trkpt lat="46.24833" lon="6.56246">
        <ele>1264.75</ele>
        <time>2019-02-06T15:03:07Z</time>
      </trkpt>
      <trkpt lat="46.24831" lon="6.56226">
        <ele>1264.27</ele>
        <time>2019-02-06T15:03:21Z</time>
      </trkpt>
      <trkpt lat="46.24828" lon="6.5622">
        <ele>1264.27</ele>
        <time>2019-02-06T15:03:25Z</time>
      </trkpt>
      <trkpt lat="46.2483" lon="6.56206">
        <ele>1263.79</ele>
        <time>2019-02-06T15:03:34Z</time>
      </trkpt>
      <trkpt lat="46.24829" lon="6.56191">
        <ele>1264.27</ele>
        <time>2019-02-06T15:03:44Z</time>
      </trkpt>
      <trkpt lat="46.24828" lon="6.5618">
        <ele>1263.31</ele>
        <time>2019-02-06T15:03:51Z</time>
      </trkpt>
      <trkpt lat="46.24829" lon="6.56174">
        <ele>1262.83</ele>
        <time>2019-02-06T15:03:56Z</time>
      </trkpt>
      <trkpt lat="46.24832" lon="6.56162">
        <ele>1261.87</ele>
        <time>2019-02-06T15:04:06Z</time>
      </trkpt>
      <trkpt lat="46.24832" lon="6.56157">
        <ele>1261.39</ele>
        <time>2019-02-06T15:04:10Z</time>
      </trkpt>
      <trkpt lat="46.24835" lon="6.56147">
        <ele>1261.39</ele>
        <time>2019-02-06T15:04:18Z</time>
      </trkpt>
      <trkpt lat="46.24843" lon="6.56136">
        <ele>1261.39</ele>
        <time>2019-02-06T15:04:31Z</time>
      </trkpt>
      <trkpt lat="46.24845" lon="6.56134">
        <ele>1260.91</ele>
        <time>2019-02-06T15:04:34Z</time>
      </trkpt>
      <trkpt lat="46.24847" lon="6.56132">
        <ele>1260.91</ele>
        <time>2019-02-06T15:04:36Z</time>
      </trkpt>
      <trkpt lat="46.24852" lon="6.56131">
        <ele>1260.43</ele>
        <time>2019-02-06T15:04:48Z</time>
      </trkpt>
      <trkpt lat="46.2486" lon="6.56125">
        <ele>1259.46</ele>
        <time>2019-02-06T15:04:59Z</time>
      </trkpt>
      <trkpt lat="46.24865" lon="6.56118">
        <ele>1258.5</ele>
        <time>2019-02-06T15:05:08Z</time>
      </trkpt>
      <trkpt lat="46.24875" lon="6.56106">
        <ele>1257.54</ele>
        <time>2019-02-06T15:05:19Z</time>
      </trkpt>
      <trkpt lat="46.24879" lon="6.56096">
        <ele>1257.06</ele>
        <time>2019-02-06T15:05:26Z</time>
      </trkpt>
      <trkpt lat="46.24881" lon="6.56081">
        <ele>1255.14</ele>
        <time>2019-02-06T15:05:39Z</time>
      </trkpt>
      <trkpt lat="46.24882" lon="6.56074">
        <ele>1253.7</ele>
        <time>2019-02-06T15:05:43Z</time>
      </trkpt>
      <trkpt lat="46.24882" lon="6.56067">
        <ele>1253.22</ele>
        <time>2019-02-06T15:05:49Z</time>
      </trkpt>
      <trkpt lat="46.24883" lon="6.56052">
        <ele>1250.33</ele>
        <time>2019-02-06T15:06:00Z</time>
      </trkpt>
      <trkpt lat="46.24884" lon="6.56041">
        <ele>1249.37</ele>
        <time>2019-02-06T15:06:07Z</time>
      </trkpt>
      <trkpt lat="46.24884" lon="6.56035">
        <ele>1248.89</ele>
        <time>2019-02-06T15:06:11Z</time>
      </trkpt>
      <trkpt lat="46.24884" lon="6.56032">
        <ele>1248.89</ele>
        <time>2019-02-06T15:06:13Z</time>
      </trkpt>
      <trkpt lat="46.24884" lon="6.56026">
        <ele>1248.41</ele>
        <time>2019-02-06T15:06:17Z</time>
      </trkpt>
      <trkpt lat="46.24884" lon="6.56022">
        <ele>1247.45</ele>
        <time>2019-02-06T15:06:20Z</time>
      </trkpt>
      <trkpt lat="46.24885" lon="6.56012">
        <ele>1245.53</ele>
        <time>2019-02-06T15:06:27Z</time>
      </trkpt>
      <trkpt lat="46.24886" lon="6.56006">
        <ele>1245.04</ele>
        <time>2019-02-06T15:06:31Z</time>
      </trkpt>
      <trkpt lat="46.24888" lon="6.55993">
        <ele>1243.6</ele>
        <time>2019-02-06T15:06:40Z</time>
      </trkpt>
      <trkpt lat="46.2489" lon="6.55984">
        <ele>1242.16</ele>
        <time>2019-02-06T15:06:47Z</time>
      </trkpt>
      <trkpt lat="46.24889" lon="6.55975">
        <ele>1240.72</ele>
        <time>2019-02-06T15:06:53Z</time>
      </trkpt>
      <trkpt lat="46.24889" lon="6.55969">
        <ele>1240.24</ele>
        <time>2019-02-06T15:06:57Z</time>
      </trkpt>
      <trkpt lat="46.24889" lon="6.55952">
        <ele>1237.35</ele>
        <time>2019-02-06T15:07:09Z</time>
      </trkpt>
      <trkpt lat="46.24887" lon="6.55939">
        <ele>1236.39</ele>
        <time>2019-02-06T15:07:18Z</time>
      </trkpt>
      <trkpt lat="46.24886" lon="6.55921">
        <ele>1234.47</ele>
        <time>2019-02-06T15:07:30Z</time>
      </trkpt>
      <trkpt lat="46.24887" lon="6.55913">
        <ele>1233.51</ele>
        <time>2019-02-06T15:07:36Z</time>
      </trkpt>
      <trkpt lat="46.24885" lon="6.55896">
        <ele>1231.59</ele>
        <time>2019-02-06T15:07:47Z</time>
      </trkpt>
      <trkpt lat="46.24884" lon="6.55887">
        <ele>1230.62</ele>
        <time>2019-02-06T15:07:53Z</time>
      </trkpt>
      <trkpt lat="46.24885" lon="6.55884">
        <ele>1230.62</ele>
        <time>2019-02-06T15:07:55Z</time>
      </trkpt>
      <trkpt lat="46.24885" lon="6.55876">
        <ele>1229.66</ele>
        <time>2019-02-06T15:08:00Z</time>
      </trkpt>
      <trkpt lat="46.24884" lon="6.55871">
        <ele>1229.66</ele>
        <time>2019-02-06T15:08:04Z</time>
      </trkpt>
      <trkpt lat="46.24886" lon="6.55864">
        <ele>1228.22</ele>
        <time>2019-02-06T15:08:09Z</time>
      </trkpt>
      <trkpt lat="46.24886" lon="6.55858">
        <ele>1228.22</ele>
        <time>2019-02-06T15:08:13Z</time>
      </trkpt>
      <trkpt lat="46.24886" lon="6.55849">
        <ele>1227.26</ele>
        <time>2019-02-06T15:08:18Z</time>
      </trkpt>
      <trkpt lat="46.24888" lon="6.55844">
        <ele>1226.78</ele>
        <time>2019-02-06T15:08:21Z</time>
      </trkpt>
      <trkpt lat="46.24887" lon="6.5583">
        <ele>1225.34</ele>
        <time>2019-02-06T15:08:30Z</time>
      </trkpt>
      <trkpt lat="46.24889" lon="6.55818">
        <ele>1224.38</ele>
        <time>2019-02-06T15:08:39Z</time>
      </trkpt>
      <trkpt lat="46.24888" lon="6.55805">
        <ele>1223.42</ele>
        <time>2019-02-06T15:08:48Z</time>
      </trkpt>
      <trkpt lat="46.24893" lon="6.5579">
        <ele>1221.49</ele>
        <time>2019-02-06T15:09:02Z</time>
      </trkpt>
      <trkpt lat="46.24893" lon="6.55788">
        <ele>1221.97</ele>
        <time>2019-02-06T15:09:24Z</time>
      </trkpt>
      <trkpt lat="46.24892" lon="6.55786">
        <ele>1221.97</ele>
        <time>2019-02-06T15:09:52Z</time>
      </trkpt>
      <trkpt lat="46.24892" lon="6.55786">
        <ele>1222.45</ele>
        <time>2019-02-06T15:10:19Z</time>
      </trkpt>
      <trkpt lat="46.24891" lon="6.55786">
        <ele>1221.49</ele>
        <time>2019-02-06T15:10:56Z</time>
      </trkpt>
      <trkpt lat="46.24895" lon="6.5578">
        <ele>1220.53</ele>
        <time>2019-02-06T15:11:11Z</time>
      </trkpt>
      <trkpt lat="46.24897" lon="6.55773">
        <ele>1220.05</ele>
        <time>2019-02-06T15:11:16Z</time>
      </trkpt>
      <trkpt lat="46.24902" lon="6.55756">
        <ele>1218.61</ele>
        <time>2019-02-06T15:11:27Z</time>
      </trkpt>
      <trkpt lat="46.24905" lon="6.55751">
        <ele>1218.13</ele>
        <time>2019-02-06T15:11:31Z</time>
      </trkpt>
      <trkpt lat="46.24906" lon="6.55745">
        <ele>1217.65</ele>
        <time>2019-02-06T15:11:35Z</time>
      </trkpt>
      <trkpt lat="46.24911" lon="6.55734">
        <ele>1216.69</ele>
        <time>2019-02-06T15:11:43Z</time>
      </trkpt>
      <trkpt lat="46.24912" lon="6.5573">
        <ele>1216.69</ele>
        <time>2019-02-06T15:11:46Z</time>
      </trkpt>
      <trkpt lat="46.24917" lon="6.5572">
        <ele>1215.72</ele>
        <time>2019-02-06T15:11:56Z</time>
      </trkpt>
      <trkpt lat="46.24919" lon="6.55714">
        <ele>1215.24</ele>
        <time>2019-02-06T15:12:01Z</time>
      </trkpt>
      <trkpt lat="46.24921" lon="6.55708">
        <ele>1215.24</ele>
        <time>2019-02-06T15:12:05Z</time>
      </trkpt>
      <trkpt lat="46.24928" lon="6.55693">
        <ele>1213.8</ele>
        <time>2019-02-06T15:12:17Z</time>
      </trkpt>
      <trkpt lat="46.24935" lon="6.55678">
        <ele>1213.32</ele>
        <time>2019-02-06T15:12:28Z</time>
      </trkpt>
      <trkpt lat="46.24938" lon="6.55673">
        <ele>1212.36</ele>
        <time>2019-02-06T15:12:33Z</time>
      </trkpt>
      <trkpt lat="46.2494" lon="6.5567">
        <ele>1212.36</ele>
        <time>2019-02-06T15:12:38Z</time>
      </trkpt>
      <trkpt lat="46.24947" lon="6.55662">
        <ele>1210.92</ele>
        <time>2019-02-06T15:12:49Z</time>
      </trkpt>
      <trkpt lat="46.2495" lon="6.5566">
        <ele>1210.92</ele>
        <time>2019-02-06T15:12:52Z</time>
      </trkpt>
      <trkpt lat="46.24951" lon="6.55659">
        <ele>1210.92</ele>
        <time>2019-02-06T15:12:54Z</time>
      </trkpt>
      <trkpt lat="46.24956" lon="6.55653">
        <ele>1210.44</ele>
        <time>2019-02-06T15:13:02Z</time>
      </trkpt>
      <trkpt lat="46.24964" lon="6.55639">
        <ele>1209.48</ele>
        <time>2019-02-06T15:13:14Z</time>
      </trkpt>
      <trkpt lat="46.2497" lon="6.55629">
        <ele>1209</ele>
        <time>2019-02-06T15:13:23Z</time>
      </trkpt>
      <trkpt lat="46.2498" lon="6.55614">
        <ele>1207.07</ele>
        <time>2019-02-06T15:13:37Z</time>
      </trkpt>
      <trkpt lat="46.24983" lon="6.55607">
        <ele>1206.11</ele>
        <time>2019-02-06T15:13:43Z</time>
      </trkpt>
      <trkpt lat="46.24988" lon="6.55591">
        <ele>1204.67</ele>
        <time>2019-02-06T15:13:55Z</time>
      </trkpt>
      <trkpt lat="46.24992" lon="6.55582">
        <ele>1203.71</ele>
        <time>2019-02-06T15:14:03Z</time>
      </trkpt>
      <trkpt lat="46.25" lon="6.55563">
        <ele>1201.3</ele>
        <time>2019-02-06T15:14:18Z</time>
      </trkpt>
      <trkpt lat="46.25002" lon="6.55558">
        <ele>1201.3</ele>
        <time>2019-02-06T15:14:22Z</time>
      </trkpt>
      <trkpt lat="46.25003" lon="6.55557">
        <ele>1200.34</ele>
        <time>2019-02-06T15:14:24Z</time>
      </trkpt>
      <trkpt lat="46.25005" lon="6.55554">
        <ele>1200.34</ele>
        <time>2019-02-06T15:14:27Z</time>
      </trkpt>
      <trkpt lat="46.25015" lon="6.55545">
        <ele>1197.46</ele>
        <time>2019-02-06T15:14:41Z</time>
      </trkpt>
      <trkpt lat="46.25016" lon="6.55542">
        <ele>1196.98</ele>
        <time>2019-02-06T15:14:44Z</time>
      </trkpt>
      <trkpt lat="46.25021" lon="6.55534">
        <ele>1195.06</ele>
        <time>2019-02-06T15:14:55Z</time>
      </trkpt>
      <trkpt lat="46.25029" lon="6.55524">
        <ele>1193.61</ele>
        <time>2019-02-06T15:15:05Z</time>
      </trkpt>
      <trkpt lat="46.25039" lon="6.55509">
        <ele>1190.73</ele>
        <time>2019-02-06T15:15:17Z</time>
      </trkpt>
      <trkpt lat="46.25041" lon="6.55506">
        <ele>1190.73</ele>
        <time>2019-02-06T15:15:19Z</time>
      </trkpt>
      <trkpt lat="46.25046" lon="6.55494">
        <ele>1187.85</ele>
        <time>2019-02-06T15:15:31Z</time>
      </trkpt>
      <trkpt lat="46.25053" lon="6.55483">
        <ele>1185.92</ele>
        <time>2019-02-06T15:15:42Z</time>
      </trkpt>
      <trkpt lat="46.25056" lon="6.55473">
        <ele>1183.52</ele>
        <time>2019-02-06T15:15:52Z</time>
      </trkpt>
      <trkpt lat="46.25061" lon="6.55459">
        <ele>1181.12</ele>
        <time>2019-02-06T15:16:03Z</time>
      </trkpt>
      <trkpt lat="46.25063" lon="6.55447">
        <ele>1180.16</ele>
        <time>2019-02-06T15:16:10Z</time>
      </trkpt>
      <trkpt lat="46.25067" lon="6.55432">
        <ele>1177.27</ele>
        <time>2019-02-06T15:16:22Z</time>
      </trkpt>
      <trkpt lat="46.2507" lon="6.55416">
        <ele>1174.87</ele>
        <time>2019-02-06T15:16:34Z</time>
      </trkpt>
      <trkpt lat="46.2507" lon="6.55414">
        <ele>1174.39</ele>
        <time>2019-02-06T15:16:36Z</time>
      </trkpt>
      <trkpt lat="46.25075" lon="6.55396">
        <ele>1171.98</ele>
        <time>2019-02-06T15:16:49Z</time>
      </trkpt>
      <trkpt lat="46.25078" lon="6.55387">
        <ele>1169.58</ele>
        <time>2019-02-06T15:17:01Z</time>
      </trkpt>
      <trkpt lat="46.25079" lon="6.55385">
        <ele>1169.1</ele>
        <time>2019-02-06T15:17:02Z</time>
      </trkpt>
      <trkpt lat="46.25084" lon="6.55374">
        <ele>1168.62</ele>
        <time>2019-02-06T15:17:12Z</time>
      </trkpt>
      <trkpt lat="46.25091" lon="6.55361">
        <ele>1166.22</ele>
        <time>2019-02-06T15:17:23Z</time>
      </trkpt>
      <trkpt lat="46.25102" lon="6.55344">
        <ele>1164.29</ele>
        <time>2019-02-06T15:17:36Z</time>
      </trkpt>
      <trkpt lat="46.25111" lon="6.55333">
        <ele>1161.89</ele>
        <time>2019-02-06T15:17:47Z</time>
      </trkpt>
      <trkpt lat="46.25111" lon="6.55327">
        <ele>1160.93</ele>
        <time>2019-02-06T15:17:50Z</time>
      </trkpt>
      <trkpt lat="46.25108" lon="6.55309">
        <ele>1158.05</ele>
        <time>2019-02-06T15:18:03Z</time>
      </trkpt>
      <trkpt lat="46.25108" lon="6.55292">
        <ele>1156.6</ele>
        <time>2019-02-06T15:18:16Z</time>
      </trkpt>
      <trkpt lat="46.25108" lon="6.55284">
        <ele>1155.16</ele>
        <time>2019-02-06T15:18:22Z</time>
      </trkpt>
      <trkpt lat="46.25108" lon="6.55277">
        <ele>1154.2</ele>
        <time>2019-02-06T15:18:27Z</time>
      </trkpt>
      <trkpt lat="46.25108" lon="6.55275">
        <ele>1154.2</ele>
        <time>2019-02-06T15:18:29Z</time>
      </trkpt>
      <trkpt lat="46.2511" lon="6.55263">
        <ele>1151.8</ele>
        <time>2019-02-06T15:18:41Z</time>
      </trkpt>
      <trkpt lat="46.25111" lon="6.55252">
        <ele>1150.35</ele>
        <time>2019-02-06T15:18:48Z</time>
      </trkpt>
      <trkpt lat="46.25112" lon="6.55244">
        <ele>1148.91</ele>
        <time>2019-02-06T15:18:53Z</time>
      </trkpt>
      <trkpt lat="46.25113" lon="6.55242">
        <ele>1148.43</ele>
        <time>2019-02-06T15:18:56Z</time>
      </trkpt>
      <trkpt lat="46.25113" lon="6.5523">
        <ele>1146.99</ele>
        <time>2019-02-06T15:19:04Z</time>
      </trkpt>
      <trkpt lat="46.25116" lon="6.55211">
        <ele>1143.63</ele>
        <time>2019-02-06T15:19:19Z</time>
      </trkpt>
      <trkpt lat="46.25118" lon="6.55199">
        <ele>1141.22</ele>
        <time>2019-02-06T15:19:29Z</time>
      </trkpt>
      <trkpt lat="46.25119" lon="6.55184">
        <ele>1139.3</ele>
        <time>2019-02-06T15:19:40Z</time>
      </trkpt>
      <trkpt lat="46.25119" lon="6.55169">
        <ele>1137.86</ele>
        <time>2019-02-06T15:19:52Z</time>
      </trkpt>
      <trkpt lat="46.2512" lon="6.5516">
        <ele>1135.94</ele>
        <time>2019-02-06T15:19:58Z</time>
      </trkpt>
      <trkpt lat="46.25119" lon="6.55155">
        <ele>1135.45</ele>
        <time>2019-02-06T15:20:01Z</time>
      </trkpt>
      <trkpt lat="46.25119" lon="6.55151">
        <ele>1134.97</ele>
        <time>2019-02-06T15:20:03Z</time>
      </trkpt>
      <trkpt lat="46.25114" lon="6.55141">
        <ele>1134.01</ele>
        <time>2019-02-06T15:20:11Z</time>
      </trkpt>
      <trkpt lat="46.2511" lon="6.55142">
        <ele>1133.05</ele>
        <time>2019-02-06T15:20:16Z</time>
      </trkpt>
      <trkpt lat="46.25107" lon="6.55143">
        <ele>1133.05</ele>
        <time>2019-02-06T15:20:21Z</time>
      </trkpt>
      <trkpt lat="46.25104" lon="6.55151">
        <ele>1131.61</ele>
        <time>2019-02-06T15:20:32Z</time>
      </trkpt>
      <trkpt lat="46.25103" lon="6.55156">
        <ele>1131.13</ele>
        <time>2019-02-06T15:20:38Z</time>
      </trkpt>
      <trkpt lat="46.25102" lon="6.55166">
        <ele>1130.17</ele>
        <time>2019-02-06T15:20:50Z</time>
      </trkpt>
      <trkpt lat="46.25099" lon="6.5518">
        <ele>1127.76</ele>
        <time>2019-02-06T15:21:02Z</time>
      </trkpt>
      <trkpt lat="46.2509" lon="6.55193">
        <ele>1125.84</ele>
        <time>2019-02-06T15:21:15Z</time>
      </trkpt>
      <trkpt lat="46.25089" lon="6.55193">
        <ele>1126.32</ele>
        <time>2019-02-06T15:21:33Z</time>
      </trkpt>
      <trkpt lat="46.25088" lon="6.55193">
        <ele>1126.32</ele>
        <time>2019-02-06T15:21:47Z</time>
      </trkpt>
      <trkpt lat="46.25088" lon="6.55193">
        <ele>1125.84</ele>
        <time>2019-02-06T15:22:11Z</time>
      </trkpt>
      <trkpt lat="46.25087" lon="6.55195">
        <ele>1126.32</ele>
        <time>2019-02-06T15:22:38Z</time>
      </trkpt>
      <trkpt lat="46.25087" lon="6.55195">
        <ele>1126.32</ele>
        <time>2019-02-06T15:23:30Z</time>
      </trkpt>
      <trkpt lat="46.25084" lon="6.55196">
        <ele>1126.32</ele>
        <time>2019-02-06T15:24:27Z</time>
      </trkpt>
      <trkpt lat="46.25083" lon="6.55196">
        <ele>1126.8</ele>
        <time>2019-02-06T15:25:53Z</time>
      </trkpt>
      <trkpt lat="46.25078" lon="6.55194">
        <ele>1126.32</ele>
        <time>2019-02-06T15:26:06Z</time>
      </trkpt>
      <trkpt lat="46.25076" lon="6.55192">
        <ele>1125.36</ele>
        <time>2019-02-06T15:26:09Z</time>
      </trkpt>
      <trkpt lat="46.25075" lon="6.55186">
        <ele>1124.88</ele>
        <time>2019-02-06T15:26:14Z</time>
      </trkpt>
      <trkpt lat="46.25075" lon="6.55181">
        <ele>1123.92</ele>
        <time>2019-02-06T15:26:18Z</time>
      </trkpt>
      <trkpt lat="46.25073" lon="6.55171">
        <ele>1122.96</ele>
        <time>2019-02-06T15:26:28Z</time>
      </trkpt>
      <trkpt lat="46.25078" lon="6.55155">
        <ele>1121.03</ele>
        <time>2019-02-06T15:26:38Z</time>
      </trkpt>
      <trkpt lat="46.2508" lon="6.55148">
        <ele>1119.59</ele>
        <time>2019-02-06T15:26:43Z</time>
      </trkpt>
      <trkpt lat="46.25078" lon="6.55138">
        <ele>1118.63</ele>
        <time>2019-02-06T15:26:51Z</time>
      </trkpt>
      <trkpt lat="46.25078" lon="6.5513">
        <ele>1117.19</ele>
        <time>2019-02-06T15:26:57Z</time>
      </trkpt>
      <trkpt lat="46.25077" lon="6.55127">
        <ele>1117.19</ele>
        <time>2019-02-06T15:26:59Z</time>
      </trkpt>
      <trkpt lat="46.25078" lon="6.55113">
        <ele>1116.23</ele>
        <time>2019-02-06T15:27:09Z</time>
      </trkpt>
      <trkpt lat="46.25077" lon="6.5511">
        <ele>1115.75</ele>
        <time>2019-02-06T15:27:11Z</time>
      </trkpt>
      <trkpt lat="46.25077" lon="6.55106">
        <ele>1114.79</ele>
        <time>2019-02-06T15:27:14Z</time>
      </trkpt>
      <trkpt lat="46.25073" lon="6.55099">
        <ele>1114.31</ele>
        <time>2019-02-06T15:27:20Z</time>
      </trkpt>
      <trkpt lat="46.25071" lon="6.55096">
        <ele>1113.34</ele>
        <time>2019-02-06T15:27:23Z</time>
      </trkpt>
      <trkpt lat="46.25071" lon="6.55092">
        <ele>1113.34</ele>
        <time>2019-02-06T15:27:26Z</time>
      </trkpt>
      <trkpt lat="46.25067" lon="6.55084">
        <ele>1112.38</ele>
        <time>2019-02-06T15:27:33Z</time>
      </trkpt>
      <trkpt lat="46.25066" lon="6.5508">
        <ele>1111.9</ele>
        <time>2019-02-06T15:27:36Z</time>
      </trkpt>
      <trkpt lat="46.25063" lon="6.55069">
        <ele>1110.94</ele>
        <time>2019-02-06T15:27:43Z</time>
      </trkpt>
      <trkpt lat="46.25065" lon="6.55062">
        <ele>1110.46</ele>
        <time>2019-02-06T15:27:49Z</time>
      </trkpt>
      <trkpt lat="46.25065" lon="6.55055">
        <ele>1109.98</ele>
        <time>2019-02-06T15:27:53Z</time>
      </trkpt>
      <trkpt lat="46.25065" lon="6.55043">
        <ele>1107.58</ele>
        <time>2019-02-06T15:28:03Z</time>
      </trkpt>
      <trkpt lat="46.25066" lon="6.55033">
        <ele>1107.1</ele>
        <time>2019-02-06T15:28:10Z</time>
      </trkpt>
      <trkpt lat="46.25067" lon="6.55025">
        <ele>1106.13</ele>
        <time>2019-02-06T15:28:18Z</time>
      </trkpt>
      <trkpt lat="46.25067" lon="6.5502">
        <ele>1105.65</ele>
        <time>2019-02-06T15:28:22Z</time>
      </trkpt>
      <trkpt lat="46.25067" lon="6.55008">
        <ele>1104.21</ele>
        <time>2019-02-06T15:28:31Z</time>
      </trkpt>
      <trkpt lat="46.25066" lon="6.55001">
        <ele>1102.77</ele>
        <time>2019-02-06T15:28:38Z</time>
      </trkpt>
      <trkpt lat="46.25063" lon="6.54998">
        <ele>1101.81</ele>
        <time>2019-02-06T15:28:41Z</time>
      </trkpt>
      <trkpt lat="46.25051" lon="6.54985">
        <ele>1099.4</ele>
        <time>2019-02-06T15:28:52Z</time>
      </trkpt>
      <trkpt lat="46.25051" lon="6.54982">
        <ele>1099.4</ele>
        <time>2019-02-06T15:28:54Z</time>
      </trkpt>
      <trkpt lat="46.25051" lon="6.54975">
        <ele>1098.92</ele>
        <time>2019-02-06T15:28:59Z</time>
      </trkpt>
      <trkpt lat="46.2505" lon="6.54974">
        <ele>1098.92</ele>
        <time>2019-02-06T15:29:00Z</time>
      </trkpt>
      <trkpt lat="46.25039" lon="6.54964">
        <ele>1096.52</ele>
        <time>2019-02-06T15:29:09Z</time>
      </trkpt>
      <trkpt lat="46.25038" lon="6.54962">
        <ele>1096.04</ele>
        <time>2019-02-06T15:29:11Z</time>
      </trkpt>
      <trkpt lat="46.25039" lon="6.54956">
        <ele>1095.56</ele>
        <time>2019-02-06T15:29:15Z</time>
      </trkpt>
      <trkpt lat="46.25038" lon="6.54951">
        <ele>1094.6</ele>
        <time>2019-02-06T15:29:19Z</time>
      </trkpt>
      <trkpt lat="46.25038" lon="6.54946">
        <ele>1094.12</ele>
        <time>2019-02-06T15:29:22Z</time>
      </trkpt>
      <trkpt lat="46.25047" lon="6.54927">
        <ele>1092.2</ele>
        <time>2019-02-06T15:29:33Z</time>
      </trkpt>
      <trkpt lat="46.25046" lon="6.54918">
        <ele>1091.23</ele>
        <time>2019-02-06T15:29:40Z</time>
      </trkpt>
      <trkpt lat="46.25041" lon="6.54914">
        <ele>1090.75</ele>
        <time>2019-02-06T15:29:53Z</time>
      </trkpt>
      <trkpt lat="46.25042" lon="6.54914">
        <ele>1090.75</ele>
        <time>2019-02-06T15:30:08Z</time>
      </trkpt>
      <trkpt lat="46.2504" lon="6.54905">
        <ele>1089.31</ele>
        <time>2019-02-06T15:30:15Z</time>
      </trkpt>
      <trkpt lat="46.25043" lon="6.54896">
        <ele>1088.35</ele>
        <time>2019-02-06T15:30:19Z</time>
      </trkpt>
      <trkpt lat="46.25043" lon="6.54894">
        <ele>1088.35</ele>
        <time>2019-02-06T15:30:20Z</time>
      </trkpt>
      <trkpt lat="46.25047" lon="6.54886">
        <ele>1087.87</ele>
        <time>2019-02-06T15:30:24Z</time>
      </trkpt>
      <trkpt lat="46.25043" lon="6.54882">
        <ele>1087.39</ele>
        <time>2019-02-06T15:30:28Z</time>
      </trkpt>
      <trkpt lat="46.25042" lon="6.54879">
        <ele>1086.91</ele>
        <time>2019-02-06T15:30:30Z</time>
      </trkpt>
      <trkpt lat="46.25035" lon="6.54874">
        <ele>1086.91</ele>
        <time>2019-02-06T15:30:35Z</time>
      </trkpt>
      <trkpt lat="46.25036" lon="6.54872">
        <ele>1086.91</ele>
        <time>2019-02-06T15:30:37Z</time>
      </trkpt>
      <trkpt lat="46.25035" lon="6.54867">
        <ele>1085.95</ele>
        <time>2019-02-06T15:30:41Z</time>
      </trkpt>
      <trkpt lat="46.2503" lon="6.54861">
        <ele>1084.99</ele>
        <time>2019-02-06T15:30:45Z</time>
      </trkpt>
      <trkpt lat="46.25026" lon="6.54851">
        <ele>1084.5</ele>
        <time>2019-02-06T15:30:53Z</time>
      </trkpt>
      <trkpt lat="46.25029" lon="6.5484">
        <ele>1083.06</ele>
        <time>2019-02-06T15:30:59Z</time>
      </trkpt>
      <trkpt lat="46.25026" lon="6.54837">
        <ele>1083.06</ele>
        <time>2019-02-06T15:31:02Z</time>
      </trkpt>
      <trkpt lat="46.2503" lon="6.5482">
        <ele>1082.1</ele>
        <time>2019-02-06T15:31:11Z</time>
      </trkpt>
      <trkpt lat="46.25025" lon="6.54813">
        <ele>1082.1</ele>
        <time>2019-02-06T15:31:17Z</time>
      </trkpt>
      <trkpt lat="46.25025" lon="6.54804">
        <ele>1081.14</ele>
        <time>2019-02-06T15:31:23Z</time>
      </trkpt>
      <trkpt lat="46.25027" lon="6.54799">
        <ele>1081.14</ele>
        <time>2019-02-06T15:31:25Z</time>
      </trkpt>
      <trkpt lat="46.25028" lon="6.54789">
        <ele>1080.18</ele>
        <time>2019-02-06T15:31:30Z</time>
      </trkpt>
      <trkpt lat="46.25028" lon="6.54781">
        <ele>1079.22</ele>
        <time>2019-02-06T15:31:35Z</time>
      </trkpt>
      <trkpt lat="46.25027" lon="6.54776">
        <ele>1078.26</ele>
        <time>2019-02-06T15:31:38Z</time>
      </trkpt>
      <trkpt lat="46.25023" lon="6.5476">
        <ele>1077.78</ele>
        <time>2019-02-06T15:31:50Z</time>
      </trkpt>
      <trkpt lat="46.2502" lon="6.54748">
        <ele>1076.33</ele>
        <time>2019-02-06T15:31:58Z</time>
      </trkpt>
      <trkpt lat="46.25013" lon="6.54737">
        <ele>1074.89</ele>
        <time>2019-02-06T15:32:06Z</time>
      </trkpt>
      <trkpt lat="46.25011" lon="6.54721">
        <ele>1074.41</ele>
        <time>2019-02-06T15:32:16Z</time>
      </trkpt>
      <trkpt lat="46.25006" lon="6.54714">
        <ele>1072.97</ele>
        <time>2019-02-06T15:32:22Z</time>
      </trkpt>
      <trkpt lat="46.25001" lon="6.54711">
        <ele>1072.49</ele>
        <time>2019-02-06T15:32:26Z</time>
      </trkpt>
      <trkpt lat="46.24997" lon="6.54707">
        <ele>1072.01</ele>
        <time>2019-02-06T15:32:30Z</time>
      </trkpt>
      <trkpt lat="46.24995" lon="6.54699">
        <ele>1071.05</ele>
        <time>2019-02-06T15:32:35Z</time>
      </trkpt>
      <trkpt lat="46.24991" lon="6.54692">
        <ele>1071.05</ele>
        <time>2019-02-06T15:32:40Z</time>
      </trkpt>
      <trkpt lat="46.2499" lon="6.54688">
        <ele>1070.57</ele>
        <time>2019-02-06T15:32:42Z</time>
      </trkpt>
      <trkpt lat="46.24983" lon="6.54673">
        <ele>1068.64</ele>
        <time>2019-02-06T15:32:54Z</time>
      </trkpt>
      <trkpt lat="46.2498" lon="6.54658">
        <ele>1066.24</ele>
        <time>2019-02-06T15:33:04Z</time>
      </trkpt>
      <trkpt lat="46.24975" lon="6.54644">
        <ele>1064.8</ele>
        <time>2019-02-06T15:33:15Z</time>
      </trkpt>
      <trkpt lat="46.24973" lon="6.54637">
        <ele>1064.32</ele>
        <time>2019-02-06T15:33:21Z</time>
      </trkpt>
      <trkpt lat="46.24976" lon="6.54626">
        <ele>1063.36</ele>
        <time>2019-02-06T15:33:26Z</time>
      </trkpt>
      <trkpt lat="46.24977" lon="6.54616">
        <ele>1061.91</ele>
        <time>2019-02-06T15:33:33Z</time>
      </trkpt>
      <trkpt lat="46.24977" lon="6.546">
        <ele>1060.47</ele>
        <time>2019-02-06T15:33:44Z</time>
      </trkpt>
      <trkpt lat="46.24979" lon="6.54587">
        <ele>1058.55</ele>
        <time>2019-02-06T15:33:55Z</time>
      </trkpt>
      <trkpt lat="46.24978" lon="6.54574">
        <ele>1057.11</ele>
        <time>2019-02-06T15:34:04Z</time>
      </trkpt>
      <trkpt lat="46.24977" lon="6.54562">
        <ele>1055.67</ele>
        <time>2019-02-06T15:34:13Z</time>
      </trkpt>
      <trkpt lat="46.24978" lon="6.54554">
        <ele>1055.18</ele>
        <time>2019-02-06T15:34:18Z</time>
      </trkpt>
      <trkpt lat="46.24978" lon="6.54549">
        <ele>1054.7</ele>
        <time>2019-02-06T15:34:21Z</time>
      </trkpt>
      <trkpt lat="46.24979" lon="6.5454">
        <ele>1053.74</ele>
        <time>2019-02-06T15:34:27Z</time>
      </trkpt>
      <trkpt lat="46.24979" lon="6.54536">
        <ele>1054.7</ele>
        <time>2019-02-06T15:34:29Z</time>
      </trkpt>
      <trkpt lat="46.24979" lon="6.5453">
        <ele>1053.74</ele>
        <time>2019-02-06T15:34:32Z</time>
      </trkpt>
      <trkpt lat="46.24979" lon="6.54528">
        <ele>1053.26</ele>
        <time>2019-02-06T15:34:34Z</time>
      </trkpt>
      <trkpt lat="46.2498" lon="6.54519">
        <ele>1052.78</ele>
        <time>2019-02-06T15:34:39Z</time>
      </trkpt>
      <trkpt lat="46.24979" lon="6.54513">
        <ele>1052.3</ele>
        <time>2019-02-06T15:34:42Z</time>
      </trkpt>
      <trkpt lat="46.24977" lon="6.54505">
        <ele>1051.82</ele>
        <time>2019-02-06T15:34:48Z</time>
      </trkpt>
      <trkpt lat="46.24976" lon="6.545">
        <ele>1051.34</ele>
        <time>2019-02-06T15:34:52Z</time>
      </trkpt>
      <trkpt lat="46.24978" lon="6.54496">
        <ele>1050.86</ele>
        <time>2019-02-06T15:34:55Z</time>
      </trkpt>
      <trkpt lat="46.24978" lon="6.54483">
        <ele>1050.38</ele>
        <time>2019-02-06T15:35:03Z</time>
      </trkpt>
      <trkpt lat="46.2498" lon="6.54479">
        <ele>1049.9</ele>
        <time>2019-02-06T15:35:06Z</time>
      </trkpt>
      <trkpt lat="46.24981" lon="6.54477">
        <ele>1049.9</ele>
        <time>2019-02-06T15:35:08Z</time>
      </trkpt>
      <trkpt lat="46.24984" lon="6.54469">
        <ele>1048.45</ele>
        <time>2019-02-06T15:35:14Z</time>
      </trkpt>
      <trkpt lat="46.24984" lon="6.54467">
        <ele>1048.94</ele>
        <time>2019-02-06T15:35:15Z</time>
      </trkpt>
      <trkpt lat="46.24986" lon="6.5446">
        <ele>1047.49</ele>
        <time>2019-02-06T15:35:20Z</time>
      </trkpt>
      <trkpt lat="46.24988" lon="6.5445">
        <ele>1047.01</ele>
        <time>2019-02-06T15:35:34Z</time>
      </trkpt>
      <trkpt lat="46.24988" lon="6.5445">
        <ele>1046.53</ele>
        <time>2019-02-06T15:35:47Z</time>
      </trkpt>
      <trkpt lat="46.24989" lon="6.54445">
        <ele>1047.01</ele>
        <time>2019-02-06T15:35:50Z</time>
      </trkpt>
      <trkpt lat="46.2499" lon="6.54443">
        <ele>1047.01</ele>
        <time>2019-02-06T15:35:52Z</time>
      </trkpt>
      <trkpt lat="46.24992" lon="6.5444">
        <ele>1047.01</ele>
        <time>2019-02-06T15:35:55Z</time>
      </trkpt>
      <trkpt lat="46.24992" lon="6.54426">
        <ele>1047.01</ele>
        <time>2019-02-06T15:36:07Z</time>
      </trkpt>
      <trkpt lat="46.24992" lon="6.54416">
        <ele>1047.97</ele>
        <time>2019-02-06T15:36:17Z</time>
      </trkpt>
      <trkpt lat="46.24993" lon="6.54415">
        <ele>1047.97</ele>
        <time>2019-02-06T15:36:19Z</time>
      </trkpt>
      <trkpt lat="46.24994" lon="6.54396">
        <ele>1048.45</ele>
        <time>2019-02-06T15:36:31Z</time>
      </trkpt>
      <trkpt lat="46.24995" lon="6.54389">
        <ele>1047.97</ele>
        <time>2019-02-06T15:36:35Z</time>
      </trkpt>
      <trkpt lat="46.24995" lon="6.54378">
        <ele>1049.42</ele>
        <time>2019-02-06T15:36:41Z</time>
      </trkpt>
      <trkpt lat="46.24997" lon="6.54373">
        <ele>1047.49</ele>
        <time>2019-02-06T15:36:44Z</time>
      </trkpt>
      <trkpt lat="46.24999" lon="6.54357">
        <ele>1047.01</ele>
        <time>2019-02-06T15:36:54Z</time>
      </trkpt>
      <trkpt lat="46.25001" lon="6.54354">
        <ele>1047.97</ele>
        <time>2019-02-06T15:36:56Z</time>
      </trkpt>
      <trkpt lat="46.25004" lon="6.54341">
        <ele>1047.01</ele>
        <time>2019-02-06T15:37:05Z</time>
      </trkpt>
      <trkpt lat="46.25005" lon="6.54338">
        <ele>1047.01</ele>
        <time>2019-02-06T15:37:07Z</time>
      </trkpt>
      <trkpt lat="46.25008" lon="6.54328">
        <ele>1047.01</ele>
        <time>2019-02-06T15:37:13Z</time>
      </trkpt>
      <trkpt lat="46.25012" lon="6.54318">
        <ele>1046.53</ele>
        <time>2019-02-06T15:37:19Z</time>
      </trkpt>
      <trkpt lat="46.25015" lon="6.54309">
        <ele>1046.05</ele>
        <time>2019-02-06T15:37:24Z</time>
      </trkpt>
      <trkpt lat="46.25017" lon="6.54305">
        <ele>1046.05</ele>
        <time>2019-02-06T15:37:27Z</time>
      </trkpt>
      <trkpt lat="46.25019" lon="6.54299">
        <ele>1045.57</ele>
        <time>2019-02-06T15:37:33Z</time>
      </trkpt>
      <trkpt lat="46.25021" lon="6.54297">
        <ele>1045.09</ele>
        <time>2019-02-06T15:37:35Z</time>
      </trkpt>
      <trkpt lat="46.25021" lon="6.54294">
        <ele>1045.09</ele>
        <time>2019-02-06T15:37:37Z</time>
      </trkpt>
      <trkpt lat="46.25026" lon="6.54286">
        <ele>1045.09</ele>
        <time>2019-02-06T15:37:48Z</time>
      </trkpt>
      <trkpt lat="46.25026" lon="6.5428">
        <ele>1044.13</ele>
        <time>2019-02-06T15:37:54Z</time>
      </trkpt>
      <trkpt lat="46.25032" lon="6.5427">
        <ele>1042.69</ele>
        <time>2019-02-06T15:38:03Z</time>
      </trkpt>
      <trkpt lat="46.25035" lon="6.54265">
        <ele>1042.69</ele>
        <time>2019-02-06T15:38:07Z</time>
      </trkpt>
      <trkpt lat="46.25038" lon="6.54261">
        <ele>1042.69</ele>
        <time>2019-02-06T15:38:11Z</time>
      </trkpt>
      <trkpt lat="46.25045" lon="6.54246">
        <ele>1041.25</ele>
        <time>2019-02-06T15:38:22Z</time>
      </trkpt>
      <trkpt lat="46.25046" lon="6.54243">
        <ele>1041.25</ele>
        <time>2019-02-06T15:38:25Z</time>
      </trkpt>
      <trkpt lat="46.25049" lon="6.54239">
        <ele>1040.76</ele>
        <time>2019-02-06T15:38:28Z</time>
      </trkpt>
      <trkpt lat="46.25057" lon="6.54224">
        <ele>1039.32</ele>
        <time>2019-02-06T15:38:41Z</time>
      </trkpt>
      <trkpt lat="46.25064" lon="6.54216">
        <ele>1039.8</ele>
        <time>2019-02-06T15:38:52Z</time>
      </trkpt>
      <trkpt lat="46.25072" lon="6.54204">
        <ele>1038.84</ele>
        <time>2019-02-06T15:39:04Z</time>
      </trkpt>
      <trkpt lat="46.25077" lon="6.54195">
        <ele>1038.84</ele>
        <time>2019-02-06T15:39:11Z</time>
      </trkpt>
      <trkpt lat="46.25088" lon="6.54185">
        <ele>1038.36</ele>
        <time>2019-02-06T15:39:24Z</time>
      </trkpt>
      <trkpt lat="46.25096" lon="6.54181">
        <ele>1038.36</ele>
        <time>2019-02-06T15:39:33Z</time>
      </trkpt>
      <trkpt lat="46.25106" lon="6.54176">
        <ele>1038.84</ele>
        <time>2019-02-06T15:39:43Z</time>
      </trkpt>
      <trkpt lat="46.25108" lon="6.54175">
        <ele>1038.84</ele>
        <time>2019-02-06T15:39:45Z</time>
      </trkpt>
      <trkpt lat="46.25118" lon="6.5416">
        <ele>1037.88</ele>
        <time>2019-02-06T15:39:58Z</time>
      </trkpt>
      <trkpt lat="46.25121" lon="6.54158">
        <ele>1037.88</ele>
        <time>2019-02-06T15:40:01Z</time>
      </trkpt>
      <trkpt lat="46.25122" lon="6.54154">
        <ele>1037.4</ele>
        <time>2019-02-06T15:40:04Z</time>
      </trkpt>
      <trkpt lat="46.25124" lon="6.5415">
        <ele>1037.88</ele>
        <time>2019-02-06T15:40:07Z</time>
      </trkpt>
      <trkpt lat="46.25127" lon="6.54148">
        <ele>1037.4</ele>
        <time>2019-02-06T15:40:10Z</time>
      </trkpt>
      <trkpt lat="46.2513" lon="6.54129">
        <ele>1036.44</ele>
        <time>2019-02-06T15:40:22Z</time>
      </trkpt>
      <trkpt lat="46.25133" lon="6.54119">
        <ele>1035.96</ele>
        <time>2019-02-06T15:40:28Z</time>
      </trkpt>
      <trkpt lat="46.25134" lon="6.54114">
        <ele>1036.44</ele>
        <time>2019-02-06T15:40:32Z</time>
      </trkpt>
      <trkpt lat="46.25135" lon="6.54102">
        <ele>1035.96</ele>
        <time>2019-02-06T15:40:40Z</time>
      </trkpt>
      <trkpt lat="46.25137" lon="6.54087">
        <ele>1035.48</ele>
        <time>2019-02-06T15:40:50Z</time>
      </trkpt>
      <trkpt lat="46.25144" lon="6.54065">
        <ele>1034.04</ele>
        <time>2019-02-06T15:41:05Z</time>
      </trkpt>
      <trkpt lat="46.25147" lon="6.54057">
        <ele>1033.55</ele>
        <time>2019-02-06T15:41:10Z</time>
      </trkpt>
      <trkpt lat="46.25157" lon="6.54042">
        <ele>1032.11</ele>
        <time>2019-02-06T15:41:23Z</time>
      </trkpt>
      <trkpt lat="46.25161" lon="6.54039">
        <ele>1032.11</ele>
        <time>2019-02-06T15:41:27Z</time>
      </trkpt>
      <trkpt lat="46.2517" lon="6.54027">
        <ele>1030.67</ele>
        <time>2019-02-06T15:41:39Z</time>
      </trkpt>
      <trkpt lat="46.25174" lon="6.54019">
        <ele>1030.19</ele>
        <time>2019-02-06T15:41:46Z</time>
      </trkpt>
      <trkpt lat="46.25172" lon="6.54005">
        <ele>1028.27</ele>
        <time>2019-02-06T15:41:59Z</time>
      </trkpt>
      <trkpt lat="46.25168" lon="6.53999">
        <ele>1026.83</ele>
        <time>2019-02-06T15:42:08Z</time>
      </trkpt>
      <trkpt lat="46.25157" lon="6.53994">
        <ele>1025.86</ele>
        <time>2019-02-06T15:42:22Z</time>
      </trkpt>
      <trkpt lat="46.25157" lon="6.53995">
        <ele>1025.38</ele>
        <time>2019-02-06T15:42:42Z</time>
      </trkpt>
    </trkseg>
  </trk>
  <trk>
    <name><![CDATA[20190212153829-wVrsA]]></name>
    <trkseg>
      <trkpt lat="46.29443" lon="6.50901">
        <ele>1112.38</ele>
        <time>2019-02-07T08:37:58Z</time>
      </trkpt>
      <trkpt lat="46.29443" lon="6.50901">
        <ele>1113.34</ele>
        <time>2019-02-07T08:38:07Z</time>
      </trkpt>
      <trkpt lat="46.29438" lon="6.50903">
        <ele>1113.34</ele>
        <time>2019-02-07T08:38:48Z</time>
      </trkpt>
      <trkpt lat="46.29435" lon="6.509">
        <ele>1112.86</ele>
        <time>2019-02-07T08:39:03Z</time>
      </trkpt>
      <trkpt lat="46.29435" lon="6.509">
        <ele>1113.34</ele>
        <time>2019-02-07T08:39:28Z</time>
      </trkpt>
      <trkpt lat="46.29437" lon="6.50895">
        <ele>1113.82</ele>
        <time>2019-02-07T08:40:39Z</time>
      </trkpt>
      <trkpt lat="46.2944" lon="6.50887">
        <ele>1113.82</ele>
        <time>2019-02-07T08:40:46Z</time>
      </trkpt>
      <trkpt lat="46.29441" lon="6.50879">
        <ele>1114.31</ele>
        <time>2019-02-07T08:40:58Z</time>
      </trkpt>
      <trkpt lat="46.29441" lon="6.50878">
        <ele>1115.27</ele>
        <time>2019-02-07T08:41:12Z</time>
      </trkpt>
      <trkpt lat="46.29441" lon="6.50876">
        <ele>1116.71</ele>
        <time>2019-02-07T08:41:22Z</time>
      </trkpt>
      <trkpt lat="46.29435" lon="6.50868">
        <ele>1116.71</ele>
        <time>2019-02-07T08:41:33Z</time>
      </trkpt>
      <trkpt lat="46.29434" lon="6.50865">
        <ele>1117.19</ele>
        <time>2019-02-07T08:41:35Z</time>
      </trkpt>
      <trkpt lat="46.29431" lon="6.50849">
        <ele>1118.15</ele>
        <time>2019-02-07T08:41:46Z</time>
      </trkpt>
      <trkpt lat="46.29424" lon="6.50836">
        <ele>1119.11</ele>
        <time>2019-02-07T08:41:58Z</time>
      </trkpt>
      <trkpt lat="46.29422" lon="6.50822">
        <ele>1120.07</ele>
        <time>2019-02-07T08:42:10Z</time>
      </trkpt>
      <trkpt lat="46.29421" lon="6.50814">
        <ele>1120.55</ele>
        <time>2019-02-07T08:42:14Z</time>
      </trkpt>
      <trkpt lat="46.29419" lon="6.50807">
        <ele>1121.03</ele>
        <time>2019-02-07T08:42:19Z</time>
      </trkpt>
      <trkpt lat="46.2942" lon="6.50787">
        <ele>1121.52</ele>
        <time>2019-02-07T08:42:33Z</time>
      </trkpt>
      <trkpt lat="46.29416" lon="6.50769">
        <ele>1121.03</ele>
        <time>2019-02-07T08:42:46Z</time>
      </trkpt>
      <trkpt lat="46.29415" lon="6.50767">
        <ele>1122</ele>
        <time>2019-02-07T08:42:59Z</time>
      </trkpt>
      <trkpt lat="46.29412" lon="6.50758">
        <ele>1122</ele>
        <time>2019-02-07T08:43:11Z</time>
      </trkpt>
      <trkpt lat="46.29412" lon="6.50758">
        <ele>1121.52</ele>
        <time>2019-02-07T08:43:33Z</time>
      </trkpt>
      <trkpt lat="46.29409" lon="6.50748">
        <ele>1121.52</ele>
        <time>2019-02-07T08:44:14Z</time>
      </trkpt>
      <trkpt lat="46.29403" lon="6.5073">
        <ele>1122</ele>
        <time>2019-02-07T08:44:28Z</time>
      </trkpt>
      <trkpt lat="46.29398" lon="6.50715">
        <ele>1123.44</ele>
        <time>2019-02-07T08:44:40Z</time>
      </trkpt>
      <trkpt lat="46.29396" lon="6.50701">
        <ele>1121.03</ele>
        <time>2019-02-07T08:44:52Z</time>
      </trkpt>
      <trkpt lat="46.29395" lon="6.50685">
        <ele>1120.07</ele>
        <time>2019-02-07T08:45:04Z</time>
      </trkpt>
      <trkpt lat="46.29395" lon="6.50682">
        <ele>1121.03</ele>
        <time>2019-02-07T08:45:06Z</time>
      </trkpt>
      <trkpt lat="46.29392" lon="6.50658">
        <ele>1119.59</ele>
        <time>2019-02-07T08:45:21Z</time>
      </trkpt>
      <trkpt lat="46.29389" lon="6.50639">
        <ele>1117.67</ele>
        <time>2019-02-07T08:45:32Z</time>
      </trkpt>
      <trkpt lat="46.29387" lon="6.50621">
        <ele>1117.67</ele>
        <time>2019-02-07T08:45:46Z</time>
      </trkpt>
      <trkpt lat="46.29387" lon="6.5061">
        <ele>1117.19</ele>
        <time>2019-02-07T08:45:56Z</time>
      </trkpt>
      <trkpt lat="46.29389" lon="6.50591">
        <ele>1116.71</ele>
        <time>2019-02-07T08:46:06Z</time>
      </trkpt>
      <trkpt lat="46.29392" lon="6.50577">
        <ele>1116.23</ele>
        <time>2019-02-07T08:46:19Z</time>
      </trkpt>
      <trkpt lat="46.29392" lon="6.50571">
        <ele>1115.75</ele>
        <time>2019-02-07T08:46:24Z</time>
      </trkpt>
      <trkpt lat="46.29393" lon="6.50561">
        <ele>1116.23</ele>
        <time>2019-02-07T08:46:33Z</time>
      </trkpt>
      <trkpt lat="46.29396" lon="6.50546">
        <ele>1115.75</ele>
        <time>2019-02-07T08:46:44Z</time>
      </trkpt>
      <trkpt lat="46.29401" lon="6.50526">
        <ele>1115.75</ele>
        <time>2019-02-07T08:46:57Z</time>
      </trkpt>
      <trkpt lat="46.29408" lon="6.50513">
        <ele>1116.23</ele>
        <time>2019-02-07T08:47:10Z</time>
      </trkpt>
      <trkpt lat="46.29416" lon="6.50501">
        <ele>1116.71</ele>
        <time>2019-02-07T08:47:24Z</time>
      </trkpt>
      <trkpt lat="46.2942" lon="6.50492">
        <ele>1116.71</ele>
        <time>2019-02-07T08:47:36Z</time>
      </trkpt>
      <trkpt lat="46.29423" lon="6.50486">
        <ele>1117.19</ele>
        <time>2019-02-07T08:47:45Z</time>
      </trkpt>
      <trkpt lat="46.29429" lon="6.50478">
        <ele>1117.19</ele>
        <time>2019-02-07T08:47:58Z</time>
      </trkpt>
      <trkpt lat="46.29432" lon="6.50472">
        <ele>1117.19</ele>
        <time>2019-02-07T08:48:03Z</time>
      </trkpt>
      <trkpt lat="46.29441" lon="6.50462">
        <ele>1117.67</ele>
        <time>2019-02-07T08:48:17Z</time>
      </trkpt>
      <trkpt lat="46.29451" lon="6.50453">
        <ele>1117.67</ele>
        <time>2019-02-07T08:48:27Z</time>
      </trkpt>
      <trkpt lat="46.29465" lon="6.50441">
        <ele>1120.07</ele>
        <time>2019-02-07T08:48:41Z</time>
      </trkpt>
      <trkpt lat="46.29472" lon="6.50435">
        <ele>1121.03</ele>
        <time>2019-02-07T08:48:56Z</time>
      </trkpt>
      <trkpt lat="46.29481" lon="6.50431">
        <ele>1122.96</ele>
        <time>2019-02-07T08:49:10Z</time>
      </trkpt>
      <trkpt lat="46.2949" lon="6.50426">
        <ele>1124.88</ele>
        <time>2019-02-07T08:49:22Z</time>
      </trkpt>
      <trkpt lat="46.295" lon="6.50417">
        <ele>1125.84</ele>
        <time>2019-02-07T08:49:37Z</time>
      </trkpt>
      <trkpt lat="46.29504" lon="6.50415">
        <ele>1125.84</ele>
        <time>2019-02-07T08:49:40Z</time>
      </trkpt>
      <trkpt lat="46.29516" lon="6.50407">
        <ele>1125.36</ele>
        <time>2019-02-07T08:49:53Z</time>
      </trkpt>
      <trkpt lat="46.29528" lon="6.50399">
        <ele>1124.4</ele>
        <time>2019-02-07T08:50:06Z</time>
      </trkpt>
      <trkpt lat="46.29534" lon="6.50393">
        <ele>1123.44</ele>
        <time>2019-02-07T08:50:15Z</time>
      </trkpt>
      <trkpt lat="46.29539" lon="6.50386">
        <ele>1122.96</ele>
        <time>2019-02-07T08:50:29Z</time>
      </trkpt>
      <trkpt lat="46.29541" lon="6.50385">
        <ele>1122.96</ele>
        <time>2019-02-07T08:50:47Z</time>
      </trkpt>
      <trkpt lat="46.29541" lon="6.50387">
        <ele>1123.44</ele>
        <time>2019-02-07T08:52:23Z</time>
      </trkpt>
      <trkpt lat="46.29541" lon="6.50385">
        <ele>1123.44</ele>
        <time>2019-02-07T08:53:26Z</time>
      </trkpt>
      <trkpt lat="46.29542" lon="6.50385">
        <ele>1123.92</ele>
        <time>2019-02-07T08:54:16Z</time>
      </trkpt>
      <trkpt lat="46.29549" lon="6.50377">
        <ele>1123.92</ele>
        <time>2019-02-07T08:56:06Z</time>
      </trkpt>
      <trkpt lat="46.29555" lon="6.50364">
        <ele>1123.44</ele>
        <time>2019-02-07T08:56:18Z</time>
      </trkpt>
      <trkpt lat="46.29565" lon="6.50351">
        <ele>1121.52</ele>
        <time>2019-02-07T08:56:32Z</time>
      </trkpt>
      <trkpt lat="46.29572" lon="6.50341">
        <ele>1120.55</ele>
        <time>2019-02-07T08:56:44Z</time>
      </trkpt>
      <trkpt lat="46.29579" lon="6.5033">
        <ele>1120.55</ele>
        <time>2019-02-07T08:56:56Z</time>
      </trkpt>
      <trkpt lat="46.29587" lon="6.50324">
        <ele>1120.55</ele>
        <time>2019-02-07T08:57:06Z</time>
      </trkpt>
      <trkpt lat="46.29594" lon="6.50313">
        <ele>1119.59</ele>
        <time>2019-02-07T08:57:17Z</time>
      </trkpt>
      <trkpt lat="46.29596" lon="6.5031">
        <ele>1120.55</ele>
        <time>2019-02-07T08:57:29Z</time>
      </trkpt>
      <trkpt lat="46.29597" lon="6.5031">
        <ele>1120.07</ele>
        <time>2019-02-07T08:59:19Z</time>
      </trkpt>
      <trkpt lat="46.29597" lon="6.5031">
        <ele>1121.52</ele>
        <time>2019-02-07T09:00:07Z</time>
      </trkpt>
      <trkpt lat="46.29605" lon="6.503">
        <ele>1120.55</ele>
        <time>2019-02-07T09:00:43Z</time>
      </trkpt>
      <trkpt lat="46.29613" lon="6.5029">
        <ele>1120.07</ele>
        <time>2019-02-07T09:00:55Z</time>
      </trkpt>
      <trkpt lat="46.29618" lon="6.50286">
        <ele>1119.59</ele>
        <time>2019-02-07T09:01:01Z</time>
      </trkpt>
      <trkpt lat="46.29625" lon="6.50274">
        <ele>1120.07</ele>
        <time>2019-02-07T09:01:13Z</time>
      </trkpt>
      <trkpt lat="46.29632" lon="6.50266">
        <ele>1120.07</ele>
        <time>2019-02-07T09:01:23Z</time>
      </trkpt>
      <trkpt lat="46.29638" lon="6.50259">
        <ele>1120.55</ele>
        <time>2019-02-07T09:01:34Z</time>
      </trkpt>
      <trkpt lat="46.29647" lon="6.50253">
        <ele>1121.52</ele>
        <time>2019-02-07T09:01:49Z</time>
      </trkpt>
      <trkpt lat="46.29657" lon="6.50248">
        <ele>1122.48</ele>
        <time>2019-02-07T09:02:00Z</time>
      </trkpt>
      <trkpt lat="46.29669" lon="6.50235">
        <ele>1123.92</ele>
        <time>2019-02-07T09:02:15Z</time>
      </trkpt>
      <trkpt lat="46.29677" lon="6.50224">
        <ele>1124.88</ele>
        <time>2019-02-07T09:02:29Z</time>
      </trkpt>
      <trkpt lat="46.29677" lon="6.50215">
        <ele>1124.88</ele>
        <time>2019-02-07T09:02:37Z</time>
      </trkpt>
      <trkpt lat="46.29674" lon="6.50206">
        <ele>1125.36</ele>
        <time>2019-02-07T09:02:43Z</time>
      </trkpt>
      <trkpt lat="46.29673" lon="6.50198">
        <ele>1124.88</ele>
        <time>2019-02-07T09:02:49Z</time>
      </trkpt>
      <trkpt lat="46.2967" lon="6.50182">
        <ele>1124.88</ele>
        <time>2019-02-07T09:03:02Z</time>
      </trkpt>
      <trkpt lat="46.29669" lon="6.50176">
        <ele>1124.4</ele>
        <time>2019-02-07T09:03:06Z</time>
      </trkpt>
      <trkpt lat="46.29665" lon="6.50161">
        <ele>1125.36</ele>
        <time>2019-02-07T09:03:22Z</time>
      </trkpt>
      <trkpt lat="46.29661" lon="6.50145">
        <ele>1123.92</ele>
        <time>2019-02-07T09:03:36Z</time>
      </trkpt>
      <trkpt lat="46.2966" lon="6.50142">
        <ele>1123.44</ele>
        <time>2019-02-07T09:03:38Z</time>
      </trkpt>
      <trkpt lat="46.29656" lon="6.50125">
        <ele>1122.96</ele>
        <time>2019-02-07T09:03:52Z</time>
      </trkpt>
      <trkpt lat="46.29656" lon="6.50106">
        <ele>1122</ele>
        <time>2019-02-07T09:04:05Z</time>
      </trkpt>
      <trkpt lat="46.29655" lon="6.50098">
        <ele>1121.03</ele>
        <time>2019-02-07T09:04:18Z</time>
      </trkpt>
      <trkpt lat="46.29654" lon="6.50084">
        <ele>1120.07</ele>
        <time>2019-02-07T09:04:28Z</time>
      </trkpt>
      <trkpt lat="46.29653" lon="6.50067">
        <ele>1118.63</ele>
        <time>2019-02-07T09:04:41Z</time>
      </trkpt>
      <trkpt lat="46.29653" lon="6.50067">
        <ele>1118.63</ele>
        <time>2019-02-07T09:04:55Z</time>
      </trkpt>
      <trkpt lat="46.2965" lon="6.5005">
        <ele>1118.15</ele>
        <time>2019-02-07T09:05:14Z</time>
      </trkpt>
      <trkpt lat="46.29649" lon="6.50046">
        <ele>1118.15</ele>
        <time>2019-02-07T09:05:16Z</time>
      </trkpt>
      <trkpt lat="46.29649" lon="6.50042">
        <ele>1117.19</ele>
        <time>2019-02-07T09:05:18Z</time>
      </trkpt>
      <trkpt lat="46.29645" lon="6.5002">
        <ele>1117.67</ele>
        <time>2019-02-07T09:05:31Z</time>
      </trkpt>
      <trkpt lat="46.29645" lon="6.50017">
        <ele>1117.19</ele>
        <time>2019-02-07T09:05:33Z</time>
      </trkpt>
      <trkpt lat="46.29644" lon="6.50014">
        <ele>1116.71</ele>
        <time>2019-02-07T09:05:35Z</time>
      </trkpt>
      <trkpt lat="46.29643" lon="6.50009">
        <ele>1117.19</ele>
        <time>2019-02-07T09:05:38Z</time>
      </trkpt>
      <trkpt lat="46.29641" lon="6.50005">
        <ele>1117.19</ele>
        <time>2019-02-07T09:05:41Z</time>
      </trkpt>
      <trkpt lat="46.29635" lon="6.49989">
        <ele>1117.19</ele>
        <time>2019-02-07T09:05:52Z</time>
      </trkpt>
      <trkpt lat="46.29634" lon="6.49986">
        <ele>1117.19</ele>
        <time>2019-02-07T09:05:54Z</time>
      </trkpt>
      <trkpt lat="46.29632" lon="6.49973">
        <ele>1117.19</ele>
        <time>2019-02-07T09:06:02Z</time>
      </trkpt>
      <trkpt lat="46.29632" lon="6.49963">
        <ele>1116.71</ele>
        <time>2019-02-07T09:06:08Z</time>
      </trkpt>
      <trkpt lat="46.29631" lon="6.49958">
        <ele>1116.23</ele>
        <time>2019-02-07T09:06:11Z</time>
      </trkpt>
      <trkpt lat="46.29629" lon="6.49937">
        <ele>1115.75</ele>
        <time>2019-02-07T09:06:24Z</time>
      </trkpt>
      <trkpt lat="46.29627" lon="6.49931">
        <ele>1115.27</ele>
        <time>2019-02-07T09:06:28Z</time>
      </trkpt>
      <trkpt lat="46.29625" lon="6.4992">
        <ele>1115.27</ele>
        <time>2019-02-07T09:06:35Z</time>
      </trkpt>
      <trkpt lat="46.29622" lon="6.4991">
        <ele>1115.27</ele>
        <time>2019-02-07T09:06:43Z</time>
      </trkpt>
      <trkpt lat="46.29618" lon="6.49893">
        <ele>1116.23</ele>
        <time>2019-02-07T09:06:57Z</time>
      </trkpt>
      <trkpt lat="46.29617" lon="6.4989">
        <ele>1116.23</ele>
        <time>2019-02-07T09:06:59Z</time>
      </trkpt>
      <trkpt lat="46.29614" lon="6.49874">
        <ele>1116.23</ele>
        <time>2019-02-07T09:07:12Z</time>
      </trkpt>
      <trkpt lat="46.29609" lon="6.49863">
        <ele>1117.19</ele>
        <time>2019-02-07T09:07:24Z</time>
      </trkpt>
      <trkpt lat="46.29603" lon="6.4985">
        <ele>1117.19</ele>
        <time>2019-02-07T09:07:40Z</time>
      </trkpt>
      <trkpt lat="46.296" lon="6.49844">
        <ele>1118.15</ele>
        <time>2019-02-07T09:07:52Z</time>
      </trkpt>
      <trkpt lat="46.29593" lon="6.49834">
        <ele>1119.11</ele>
        <time>2019-02-07T09:08:04Z</time>
      </trkpt>
      <trkpt lat="46.29587" lon="6.49832">
        <ele>1119.59</ele>
        <time>2019-02-07T09:08:18Z</time>
      </trkpt>
      <trkpt lat="46.29577" lon="6.49822">
        <ele>1121.03</ele>
        <time>2019-02-07T09:08:31Z</time>
      </trkpt>
      <trkpt lat="46.29572" lon="6.49816">
        <ele>1122</ele>
        <time>2019-02-07T09:08:36Z</time>
      </trkpt>
      <trkpt lat="46.29565" lon="6.498">
        <ele>1122</ele>
        <time>2019-02-07T09:08:50Z</time>
      </trkpt>
      <trkpt lat="46.29564" lon="6.49797">
        <ele>1122</ele>
        <time>2019-02-07T09:08:52Z</time>
      </trkpt>
      <trkpt lat="46.2956" lon="6.49771">
        <ele>1120.55</ele>
        <time>2019-02-07T09:09:05Z</time>
      </trkpt>
      <trkpt lat="46.29559" lon="6.49768">
        <ele>1121.03</ele>
        <time>2019-02-07T09:09:07Z</time>
      </trkpt>
      <trkpt lat="46.29566" lon="6.49748">
        <ele>1121.03</ele>
        <time>2019-02-07T09:09:20Z</time>
      </trkpt>
      <trkpt lat="46.29567" lon="6.49746">
        <ele>1121.03</ele>
        <time>2019-02-07T09:09:22Z</time>
      </trkpt>
      <trkpt lat="46.29574" lon="6.49734">
        <ele>1121.52</ele>
        <time>2019-02-07T09:09:35Z</time>
      </trkpt>
      <trkpt lat="46.2958" lon="6.49727">
        <ele>1121.52</ele>
        <time>2019-02-07T09:09:47Z</time>
      </trkpt>
      <trkpt lat="46.29581" lon="6.49724">
        <ele>1121.52</ele>
        <time>2019-02-07T09:09:49Z</time>
      </trkpt>
      <trkpt lat="46.29584" lon="6.49717">
        <ele>1121.52</ele>
        <time>2019-02-07T09:09:55Z</time>
      </trkpt>
      <trkpt lat="46.29587" lon="6.49704">
        <ele>1122.48</ele>
        <time>2019-02-07T09:10:07Z</time>
      </trkpt>
      <trkpt lat="46.29588" lon="6.49699">
        <ele>1122</ele>
        <time>2019-02-07T09:10:12Z</time>
      </trkpt>
      <trkpt lat="46.29588" lon="6.49682">
        <ele>1122</ele>
        <time>2019-02-07T09:10:24Z</time>
      </trkpt>
      <trkpt lat="46.29591" lon="6.49669">
        <ele>1122.48</ele>
        <time>2019-02-07T09:10:35Z</time>
      </trkpt>
      <trkpt lat="46.29595" lon="6.49657">
        <ele>1123.92</ele>
        <time>2019-02-07T09:10:47Z</time>
      </trkpt>
      <trkpt lat="46.29599" lon="6.49646">
        <ele>1123.44</ele>
        <time>2019-02-07T09:10:58Z</time>
      </trkpt>
      <trkpt lat="46.29604" lon="6.49633">
        <ele>1123.92</ele>
        <time>2019-02-07T09:11:10Z</time>
      </trkpt>
      <trkpt lat="46.29606" lon="6.49627">
        <ele>1123.92</ele>
        <time>2019-02-07T09:11:15Z</time>
      </trkpt>
      <trkpt lat="46.29607" lon="6.49624">
        <ele>1124.4</ele>
        <time>2019-02-07T09:11:17Z</time>
      </trkpt>
      <trkpt lat="46.29612" lon="6.49611">
        <ele>1124.4</ele>
        <time>2019-02-07T09:11:27Z</time>
      </trkpt>
      <trkpt lat="46.29617" lon="6.49595">
        <ele>1125.36</ele>
        <time>2019-02-07T09:11:41Z</time>
      </trkpt>
      <trkpt lat="46.29623" lon="6.49581">
        <ele>1125.84</ele>
        <time>2019-02-07T09:11:56Z</time>
      </trkpt>
      <trkpt lat="46.29629" lon="6.49564">
        <ele>1126.32</ele>
        <time>2019-02-07T09:12:09Z</time>
      </trkpt>
      <trkpt lat="46.29634" lon="6.49549">
        <ele>1125.36</ele>
        <time>2019-02-07T09:12:22Z</time>
      </trkpt>
      <trkpt lat="46.29638" lon="6.49537">
        <ele>1125.84</ele>
        <time>2019-02-07T09:12:34Z</time>
      </trkpt>
      <trkpt lat="46.29643" lon="6.49523">
        <ele>1126.8</ele>
        <time>2019-02-07T09:12:47Z</time>
      </trkpt>
      <trkpt lat="46.29646" lon="6.49515">
        <ele>1127.28</ele>
        <time>2019-02-07T09:12:55Z</time>
      </trkpt>
      <trkpt lat="46.29652" lon="6.49503">
        <ele>1127.76</ele>
        <time>2019-02-07T09:13:08Z</time>
      </trkpt>
      <trkpt lat="46.29657" lon="6.49496">
        <ele>1128.73</ele>
        <time>2019-02-07T09:13:19Z</time>
      </trkpt>
      <trkpt lat="46.29664" lon="6.49488">
        <ele>1129.69</ele>
        <time>2019-02-07T09:13:30Z</time>
      </trkpt>
      <trkpt lat="46.29669" lon="6.49481">
        <ele>1131.13</ele>
        <time>2019-02-07T09:13:42Z</time>
      </trkpt>
      <trkpt lat="46.29675" lon="6.49472">
        <ele>1131.61</ele>
        <time>2019-02-07T09:13:54Z</time>
      </trkpt>
      <trkpt lat="46.2968" lon="6.49458">
        <ele>1133.53</ele>
        <time>2019-02-07T09:14:08Z</time>
      </trkpt>
      <trkpt lat="46.29686" lon="6.49442">
        <ele>1135.45</ele>
        <time>2019-02-07T09:14:22Z</time>
      </trkpt>
      <trkpt lat="46.29688" lon="6.49434">
        <ele>1136.9</ele>
        <time>2019-02-07T09:14:34Z</time>
      </trkpt>
      <trkpt lat="46.29686" lon="6.49422">
        <ele>1138.34</ele>
        <time>2019-02-07T09:14:47Z</time>
      </trkpt>
      <trkpt lat="46.29682" lon="6.4941">
        <ele>1140.26</ele>
        <time>2019-02-07T09:14:59Z</time>
      </trkpt>
      <trkpt lat="46.29679" lon="6.49403">
        <ele>1141.7</ele>
        <time>2019-02-07T09:15:12Z</time>
      </trkpt>
      <trkpt lat="46.2968" lon="6.49403">
        <ele>1139.78</ele>
        <time>2019-02-07T09:15:33Z</time>
      </trkpt>
      <trkpt lat="46.29678" lon="6.49403">
        <ele>1140.74</ele>
        <time>2019-02-07T09:19:34Z</time>
      </trkpt>
      <trkpt lat="46.29683" lon="6.494">
        <ele>1141.22</ele>
        <time>2019-02-07T09:20:03Z</time>
      </trkpt>
      <trkpt lat="46.29684" lon="6.49398">
        <ele>1141.7</ele>
        <time>2019-02-07T09:21:13Z</time>
      </trkpt>
      <trkpt lat="46.29684" lon="6.49397">
        <ele>1141.7</ele>
        <time>2019-02-07T09:21:16Z</time>
      </trkpt>
      <trkpt lat="46.29681" lon="6.49386">
        <ele>1143.14</ele>
        <time>2019-02-07T09:21:27Z</time>
      </trkpt>
      <trkpt lat="46.29681" lon="6.4938">
        <ele>1142.66</ele>
        <time>2019-02-07T09:21:31Z</time>
      </trkpt>
      <trkpt lat="46.2968" lon="6.49366">
        <ele>1142.66</ele>
        <time>2019-02-07T09:21:40Z</time>
      </trkpt>
      <trkpt lat="46.29679" lon="6.49361">
        <ele>1142.66</ele>
        <time>2019-02-07T09:21:43Z</time>
      </trkpt>
      <trkpt lat="46.2968" lon="6.49357">
        <ele>1142.66</ele>
        <time>2019-02-07T09:21:46Z</time>
      </trkpt>
      <trkpt lat="46.29675" lon="6.49342">
        <ele>1143.14</ele>
        <time>2019-02-07T09:21:59Z</time>
      </trkpt>
      <trkpt lat="46.29674" lon="6.49331">
        <ele>1143.14</ele>
        <time>2019-02-07T09:22:09Z</time>
      </trkpt>
      <trkpt lat="46.29671" lon="6.49316">
        <ele>1141.7</ele>
        <time>2019-02-07T09:22:22Z</time>
      </trkpt>
      <trkpt lat="46.29667" lon="6.49307">
        <ele>1139.3</ele>
        <time>2019-02-07T09:22:30Z</time>
      </trkpt>
      <trkpt lat="46.29666" lon="6.49305">
        <ele>1137.86</ele>
        <time>2019-02-07T09:22:32Z</time>
      </trkpt>
      <trkpt lat="46.29665" lon="6.49302">
        <ele>1140.26</ele>
        <time>2019-02-07T09:22:34Z</time>
      </trkpt>
      <trkpt lat="46.29662" lon="6.49293">
        <ele>1139.3</ele>
        <time>2019-02-07T09:22:41Z</time>
      </trkpt>
      <trkpt lat="46.29661" lon="6.49282">
        <ele>1141.22</ele>
        <time>2019-02-07T09:22:49Z</time>
      </trkpt>
      <trkpt lat="46.29661" lon="6.49275">
        <ele>1141.7</ele>
        <time>2019-02-07T09:22:54Z</time>
      </trkpt>
      <trkpt lat="46.2966" lon="6.49269">
        <ele>1140.26</ele>
        <time>2019-02-07T09:22:59Z</time>
      </trkpt>
      <trkpt lat="46.2966" lon="6.49256">
        <ele>1143.14</ele>
        <time>2019-02-07T09:23:09Z</time>
      </trkpt>
      <trkpt lat="46.2966" lon="6.49251">
        <ele>1142.66</ele>
        <time>2019-02-07T09:23:15Z</time>
      </trkpt>
      <trkpt lat="46.29659" lon="6.4924">
        <ele>1143.14</ele>
        <time>2019-02-07T09:23:26Z</time>
      </trkpt>
      <trkpt lat="46.29659" lon="6.49232">
        <ele>1146.03</ele>
        <time>2019-02-07T09:23:37Z</time>
      </trkpt>
      <trkpt lat="46.29659" lon="6.4923">
        <ele>1143.63</ele>
        <time>2019-02-07T09:23:39Z</time>
      </trkpt>
      <trkpt lat="46.29657" lon="6.49227">
        <ele>1146.03</ele>
        <time>2019-02-07T09:23:45Z</time>
      </trkpt>
      <trkpt lat="46.29654" lon="6.49221">
        <ele>1146.51</ele>
        <time>2019-02-07T09:23:56Z</time>
      </trkpt>
      <trkpt lat="46.29653" lon="6.49218">
        <ele>1149.39</ele>
        <time>2019-02-07T09:24:06Z</time>
      </trkpt>
      <trkpt lat="46.29653" lon="6.49216">
        <ele>1148.43</ele>
        <time>2019-02-07T09:24:07Z</time>
      </trkpt>
      <trkpt lat="46.29652" lon="6.49213">
        <ele>1151.8</ele>
        <time>2019-02-07T09:24:09Z</time>
      </trkpt>
      <trkpt lat="46.29652" lon="6.49212">
        <ele>1151.8</ele>
        <time>2019-02-07T09:24:10Z</time>
      </trkpt>
      <trkpt lat="46.29651" lon="6.4921">
        <ele>1148.43</ele>
        <time>2019-02-07T09:24:12Z</time>
      </trkpt>
      <trkpt lat="46.29651" lon="6.4921">
        <ele>1151.32</ele>
        <time>2019-02-07T09:24:13Z</time>
      </trkpt>
      <trkpt lat="46.29651" lon="6.4921">
        <ele>1147.95</ele>
        <time>2019-02-07T09:24:16Z</time>
      </trkpt>
      <trkpt lat="46.2965" lon="6.49208">
        <ele>1150.35</ele>
        <time>2019-02-07T09:24:19Z</time>
      </trkpt>
      <trkpt lat="46.2965" lon="6.49205">
        <ele>1147.47</ele>
        <time>2019-02-07T09:24:21Z</time>
      </trkpt>
      <trkpt lat="46.2965" lon="6.49204">
        <ele>1148.43</ele>
        <time>2019-02-07T09:24:22Z</time>
      </trkpt>
      <trkpt lat="46.29649" lon="6.49198">
        <ele>1151.8</ele>
        <time>2019-02-07T09:24:27Z</time>
      </trkpt>
      <trkpt lat="46.29648" lon="6.49197">
        <ele>1151.32</ele>
        <time>2019-02-07T09:24:28Z</time>
      </trkpt>
      <trkpt lat="46.29648" lon="6.49195">
        <ele>1149.87</ele>
        <time>2019-02-07T09:24:31Z</time>
      </trkpt>
      <trkpt lat="46.29646" lon="6.49187">
        <ele>1152.76</ele>
        <time>2019-02-07T09:24:38Z</time>
      </trkpt>
      <trkpt lat="46.29645" lon="6.49181">
        <ele>1157.08</ele>
        <time>2019-02-07T09:24:44Z</time>
      </trkpt>
      <trkpt lat="46.29644" lon="6.49178">
        <ele>1152.76</ele>
        <time>2019-02-07T09:24:47Z</time>
      </trkpt>
      <trkpt lat="46.29643" lon="6.49175">
        <ele>1152.28</ele>
        <time>2019-02-07T09:24:51Z</time>
      </trkpt>
      <trkpt lat="46.29642" lon="6.49167">
        <ele>1155.16</ele>
        <time>2019-02-07T09:25:00Z</time>
      </trkpt>
      <trkpt lat="46.29641" lon="6.49165">
        <ele>1158.05</ele>
        <time>2019-02-07T09:25:03Z</time>
      </trkpt>
      <trkpt lat="46.29641" lon="6.49165">
        <ele>1156.12</ele>
        <time>2019-02-07T09:25:04Z</time>
      </trkpt>
      <trkpt lat="46.29639" lon="6.49162">
        <ele>1152.76</ele>
        <time>2019-02-07T09:25:07Z</time>
      </trkpt>
      <trkpt lat="46.29638" lon="6.49155">
        <ele>1155.64</ele>
        <time>2019-02-07T09:25:17Z</time>
      </trkpt>
      <trkpt lat="46.29636" lon="6.49151">
        <ele>1157.08</ele>
        <time>2019-02-07T09:25:21Z</time>
      </trkpt>
      <trkpt lat="46.29633" lon="6.49147">
        <ele>1159.97</ele>
        <time>2019-02-07T09:25:30Z</time>
      </trkpt>
      <trkpt lat="46.29633" lon="6.49146">
        <ele>1156.6</ele>
        <time>2019-02-07T09:25:32Z</time>
      </trkpt>
      <trkpt lat="46.29633" lon="6.49146">
        <ele>1156.6</ele>
        <time>2019-02-07T09:25:33Z</time>
      </trkpt>
      <trkpt lat="46.29633" lon="6.49142">
        <ele>1157.56</ele>
        <time>2019-02-07T09:25:37Z</time>
      </trkpt>
      <trkpt lat="46.29631" lon="6.49138">
        <ele>1158.05</ele>
        <time>2019-02-07T09:25:42Z</time>
      </trkpt>
      <trkpt lat="46.29631" lon="6.4913">
        <ele>1159.01</ele>
        <time>2019-02-07T09:25:50Z</time>
      </trkpt>
      <trkpt lat="46.29632" lon="6.49116">
        <ele>1157.08</ele>
        <time>2019-02-07T09:26:02Z</time>
      </trkpt>
      <trkpt lat="46.29632" lon="6.49115">
        <ele>1156.6</ele>
        <time>2019-02-07T09:26:03Z</time>
      </trkpt>
      <trkpt lat="46.29635" lon="6.49104">
        <ele>1158.53</ele>
        <time>2019-02-07T09:26:16Z</time>
      </trkpt>
      <trkpt lat="46.29637" lon="6.49091">
        <ele>1157.56</ele>
        <time>2019-02-07T09:26:27Z</time>
      </trkpt>
      <trkpt lat="46.29637" lon="6.4908">
        <ele>1158.05</ele>
        <time>2019-02-07T09:26:40Z</time>
      </trkpt>
      <trkpt lat="46.29635" lon="6.49074">
        <ele>1156.6</ele>
        <time>2019-02-07T09:26:46Z</time>
      </trkpt>
      <trkpt lat="46.29633" lon="6.49068">
        <ele>1157.08</ele>
        <time>2019-02-07T09:26:54Z</time>
      </trkpt>
      <trkpt lat="46.29633" lon="6.49053">
        <ele>1156.12</ele>
        <time>2019-02-07T09:27:08Z</time>
      </trkpt>
      <trkpt lat="46.2963" lon="6.49048">
        <ele>1158.53</ele>
        <time>2019-02-07T09:27:17Z</time>
      </trkpt>
      <trkpt lat="46.29624" lon="6.49047">
        <ele>1159.01</ele>
        <time>2019-02-07T09:27:29Z</time>
      </trkpt>
      <trkpt lat="46.29621" lon="6.49046">
        <ele>1159.49</ele>
        <time>2019-02-07T09:27:34Z</time>
      </trkpt>
      <trkpt lat="46.29617" lon="6.49045">
        <ele>1160.45</ele>
        <time>2019-02-07T09:27:45Z</time>
      </trkpt>
      <trkpt lat="46.29612" lon="6.49045">
        <ele>1160.93</ele>
        <time>2019-02-07T09:27:54Z</time>
      </trkpt>
      <trkpt lat="46.29606" lon="6.49053">
        <ele>1162.37</ele>
        <time>2019-02-07T09:28:04Z</time>
      </trkpt>
      <trkpt lat="46.29605" lon="6.4906">
        <ele>1163.33</ele>
        <time>2019-02-07T09:28:11Z</time>
      </trkpt>
      <trkpt lat="46.29605" lon="6.49064">
        <ele>1163.33</ele>
        <time>2019-02-07T09:28:15Z</time>
      </trkpt>
      <trkpt lat="46.29601" lon="6.49077">
        <ele>1163.33</ele>
        <time>2019-02-07T09:28:26Z</time>
      </trkpt>
      <trkpt lat="46.296" lon="6.4908">
        <ele>1163.33</ele>
        <time>2019-02-07T09:28:29Z</time>
      </trkpt>
      <trkpt lat="46.29598" lon="6.49087">
        <ele>1163.81</ele>
        <time>2019-02-07T09:28:34Z</time>
      </trkpt>
      <trkpt lat="46.29597" lon="6.49089">
        <ele>1163.81</ele>
        <time>2019-02-07T09:28:36Z</time>
      </trkpt>
      <trkpt lat="46.29591" lon="6.491">
        <ele>1164.29</ele>
        <time>2019-02-07T09:28:48Z</time>
      </trkpt>
      <trkpt lat="46.29585" lon="6.49109">
        <ele>1164.77</ele>
        <time>2019-02-07T09:28:57Z</time>
      </trkpt>
      <trkpt lat="46.29584" lon="6.49114">
        <ele>1163.81</ele>
        <time>2019-02-07T09:29:02Z</time>
      </trkpt>
      <trkpt lat="46.29579" lon="6.49118">
        <ele>1163.81</ele>
        <time>2019-02-07T09:29:13Z</time>
      </trkpt>
      <trkpt lat="46.29573" lon="6.49123">
        <ele>1164.77</ele>
        <time>2019-02-07T09:29:23Z</time>
      </trkpt>
      <trkpt lat="46.29571" lon="6.49124">
        <ele>1165.74</ele>
        <time>2019-02-07T09:29:26Z</time>
      </trkpt>
      <trkpt lat="46.29563" lon="6.49127">
        <ele>1166.22</ele>
        <time>2019-02-07T09:29:38Z</time>
      </trkpt>
      <trkpt lat="46.29559" lon="6.49125">
        <ele>1167.18</ele>
        <time>2019-02-07T09:29:51Z</time>
      </trkpt>
      <trkpt lat="46.29553" lon="6.49124">
        <ele>1167.66</ele>
        <time>2019-02-07T09:30:05Z</time>
      </trkpt>
      <trkpt lat="46.2955" lon="6.4912">
        <ele>1168.62</ele>
        <time>2019-02-07T09:30:22Z</time>
      </trkpt>
      <trkpt lat="46.29549" lon="6.49119">
        <ele>1168.62</ele>
        <time>2019-02-07T09:30:53Z</time>
      </trkpt>
      <trkpt lat="46.29545" lon="6.49114">
        <ele>1170.06</ele>
        <time>2019-02-07T09:31:05Z</time>
      </trkpt>
      <trkpt lat="46.2954" lon="6.49104">
        <ele>1172.47</ele>
        <time>2019-02-07T09:31:20Z</time>
      </trkpt>
      <trkpt lat="46.29539" lon="6.49103">
        <ele>1172.47</ele>
        <time>2019-02-07T09:31:21Z</time>
      </trkpt>
      <trkpt lat="46.29534" lon="6.49097">
        <ele>1172.95</ele>
        <time>2019-02-07T09:31:35Z</time>
      </trkpt>
      <trkpt lat="46.29528" lon="6.49096">
        <ele>1174.87</ele>
        <time>2019-02-07T09:31:50Z</time>
      </trkpt>
      <trkpt lat="46.29523" lon="6.49098">
        <ele>1174.39</ele>
        <time>2019-02-07T09:32:03Z</time>
      </trkpt>
      <trkpt lat="46.29518" lon="6.49099">
        <ele>1174.39</ele>
        <time>2019-02-07T09:32:15Z</time>
      </trkpt>
      <trkpt lat="46.2951" lon="6.49101">
        <ele>1176.31</ele>
        <time>2019-02-07T09:32:25Z</time>
      </trkpt>
      <trkpt lat="46.29505" lon="6.49105">
        <ele>1176.79</ele>
        <time>2019-02-07T09:32:34Z</time>
      </trkpt>
      <trkpt lat="46.295" lon="6.49109">
        <ele>1178.71</ele>
        <time>2019-02-07T09:32:45Z</time>
      </trkpt>
      <trkpt lat="46.29497" lon="6.4911">
        <ele>1175.35</ele>
        <time>2019-02-07T09:32:50Z</time>
      </trkpt>
      <trkpt lat="46.29497" lon="6.4911">
        <ele>1176.79</ele>
        <time>2019-02-07T09:32:51Z</time>
      </trkpt>
      <trkpt lat="46.29493" lon="6.49107">
        <ele>1177.27</ele>
        <time>2019-02-07T09:32:55Z</time>
      </trkpt>
      <trkpt lat="46.29492" lon="6.49103">
        <ele>1179.19</ele>
        <time>2019-02-07T09:32:59Z</time>
      </trkpt>
      <trkpt lat="46.29487" lon="6.49089">
        <ele>1179.67</ele>
        <time>2019-02-07T09:33:11Z</time>
      </trkpt>
      <trkpt lat="46.29485" lon="6.49079">
        <ele>1179.19</ele>
        <time>2019-02-07T09:33:19Z</time>
      </trkpt>
      <trkpt lat="46.29484" lon="6.49074">
        <ele>1179.19</ele>
        <time>2019-02-07T09:33:22Z</time>
      </trkpt>
      <trkpt lat="46.29483" lon="6.49069">
        <ele>1179.67</ele>
        <time>2019-02-07T09:33:26Z</time>
      </trkpt>
      <trkpt lat="46.29481" lon="6.49066">
        <ele>1177.75</ele>
        <time>2019-02-07T09:33:29Z</time>
      </trkpt>
      <trkpt lat="46.29475" lon="6.49054">
        <ele>1177.75</ele>
        <time>2019-02-07T09:33:40Z</time>
      </trkpt>
      <trkpt lat="46.29465" lon="6.49044">
        <ele>1176.79</ele>
        <time>2019-02-07T09:33:51Z</time>
      </trkpt>
      <trkpt lat="46.29455" lon="6.49035">
        <ele>1176.31</ele>
        <time>2019-02-07T09:34:02Z</time>
      </trkpt>
      <trkpt lat="46.29453" lon="6.49032">
        <ele>1176.79</ele>
        <time>2019-02-07T09:34:05Z</time>
      </trkpt>
      <trkpt lat="46.29446" lon="6.4903">
        <ele>1176.79</ele>
        <time>2019-02-07T09:34:18Z</time>
      </trkpt>
      <trkpt lat="46.29445" lon="6.49031">
        <ele>1176.79</ele>
        <time>2019-02-07T09:34:20Z</time>
      </trkpt>
      <trkpt lat="46.29439" lon="6.49039">
        <ele>1176.79</ele>
        <time>2019-02-07T09:34:32Z</time>
      </trkpt>
      <trkpt lat="46.29434" lon="6.49049">
        <ele>1177.27</ele>
        <time>2019-02-07T09:34:44Z</time>
      </trkpt>
      <trkpt lat="46.29435" lon="6.49052">
        <ele>1177.75</ele>
        <time>2019-02-07T09:34:57Z</time>
      </trkpt>
      <trkpt lat="46.29429" lon="6.49059">
        <ele>1179.67</ele>
        <time>2019-02-07T09:35:12Z</time>
      </trkpt>
      <trkpt lat="46.29425" lon="6.49063">
        <ele>1180.16</ele>
        <time>2019-02-07T09:35:22Z</time>
      </trkpt>
      <trkpt lat="46.29423" lon="6.49062">
        <ele>1181.12</ele>
        <time>2019-02-07T09:35:35Z</time>
      </trkpt>
      <trkpt lat="46.29417" lon="6.4906">
        <ele>1182.08</ele>
        <time>2019-02-07T09:35:45Z</time>
      </trkpt>
      <trkpt lat="46.29413" lon="6.49057">
        <ele>1183.04</ele>
        <time>2019-02-07T09:35:52Z</time>
      </trkpt>
      <trkpt lat="46.29407" lon="6.49053">
        <ele>1184</ele>
        <time>2019-02-07T09:36:05Z</time>
      </trkpt>
      <trkpt lat="46.29402" lon="6.49057">
        <ele>1184.96</ele>
        <time>2019-02-07T09:36:14Z</time>
      </trkpt>
      <trkpt lat="46.29401" lon="6.49056">
        <ele>1183.04</ele>
        <time>2019-02-07T09:36:21Z</time>
      </trkpt>
      <trkpt lat="46.29401" lon="6.49056">
        <ele>1184.48</ele>
        <time>2019-02-07T09:36:23Z</time>
      </trkpt>
      <trkpt lat="46.29394" lon="6.49047">
        <ele>1184.48</ele>
        <time>2019-02-07T09:36:33Z</time>
      </trkpt>
      <trkpt lat="46.2939" lon="6.49041">
        <ele>1184.96</ele>
        <time>2019-02-07T09:36:45Z</time>
      </trkpt>
      <trkpt lat="46.29386" lon="6.49039">
        <ele>1187.85</ele>
        <time>2019-02-07T09:36:53Z</time>
      </trkpt>
      <trkpt lat="46.29381" lon="6.49042">
        <ele>1187.37</ele>
        <time>2019-02-07T09:37:03Z</time>
      </trkpt>
      <trkpt lat="46.29375" lon="6.49049">
        <ele>1185.92</ele>
        <time>2019-02-07T09:37:16Z</time>
      </trkpt>
      <trkpt lat="46.29367" lon="6.49055">
        <ele>1185.44</ele>
        <time>2019-02-07T09:37:28Z</time>
      </trkpt>
      <trkpt lat="46.29364" lon="6.49064">
        <ele>1185.92</ele>
        <time>2019-02-07T09:37:39Z</time>
      </trkpt>
      <trkpt lat="46.29362" lon="6.49077">
        <ele>1185.44</ele>
        <time>2019-02-07T09:37:50Z</time>
      </trkpt>
      <trkpt lat="46.29356" lon="6.4908">
        <ele>1184.96</ele>
        <time>2019-02-07T09:38:02Z</time>
      </trkpt>
      <trkpt lat="46.29355" lon="6.49081">
        <ele>1184.96</ele>
        <time>2019-02-07T09:38:04Z</time>
      </trkpt>
      <trkpt lat="46.29352" lon="6.4908">
        <ele>1184.96</ele>
        <time>2019-02-07T09:38:08Z</time>
      </trkpt>
      <trkpt lat="46.29348" lon="6.49081">
        <ele>1186.4</ele>
        <time>2019-02-07T09:38:12Z</time>
      </trkpt>
      <trkpt lat="46.29345" lon="6.49082">
        <ele>1185.92</ele>
        <time>2019-02-07T09:38:16Z</time>
      </trkpt>
      <trkpt lat="46.29337" lon="6.49087">
        <ele>1187.37</ele>
        <time>2019-02-07T09:38:28Z</time>
      </trkpt>
      <trkpt lat="46.29333" lon="6.4909">
        <ele>1186.4</ele>
        <time>2019-02-07T09:38:38Z</time>
      </trkpt>
      <trkpt lat="46.29322" lon="6.49094">
        <ele>1186.88</ele>
        <time>2019-02-07T09:38:53Z</time>
      </trkpt>
      <trkpt lat="46.29312" lon="6.49095">
        <ele>1187.85</ele>
        <time>2019-02-07T09:39:04Z</time>
      </trkpt>
      <trkpt lat="46.29304" lon="6.49089">
        <ele>1188.33</ele>
        <time>2019-02-07T09:39:17Z</time>
      </trkpt>
      <trkpt lat="46.29302" lon="6.49087">
        <ele>1189.29</ele>
        <time>2019-02-07T09:39:20Z</time>
      </trkpt>
      <trkpt lat="46.29293" lon="6.49078">
        <ele>1189.77</ele>
        <time>2019-02-07T09:39:33Z</time>
      </trkpt>
      <trkpt lat="46.29288" lon="6.4907">
        <ele>1190.73</ele>
        <time>2019-02-07T09:39:43Z</time>
      </trkpt>
      <trkpt lat="46.29284" lon="6.49064">
        <ele>1191.21</ele>
        <time>2019-02-07T09:39:52Z</time>
      </trkpt>
      <trkpt lat="46.29277" lon="6.49054">
        <ele>1193.13</ele>
        <time>2019-02-07T09:40:06Z</time>
      </trkpt>
      <trkpt lat="46.29271" lon="6.49049">
        <ele>1194.09</ele>
        <time>2019-02-07T09:40:17Z</time>
      </trkpt>
      <trkpt lat="46.29268" lon="6.49044">
        <ele>1194.58</ele>
        <time>2019-02-07T09:40:25Z</time>
      </trkpt>
      <trkpt lat="46.29259" lon="6.4904">
        <ele>1194.58</ele>
        <time>2019-02-07T09:40:36Z</time>
      </trkpt>
      <trkpt lat="46.29255" lon="6.49038">
        <ele>1196.5</ele>
        <time>2019-02-07T09:40:48Z</time>
      </trkpt>
      <trkpt lat="46.29246" lon="6.49035">
        <ele>1198.42</ele>
        <time>2019-02-07T09:41:02Z</time>
      </trkpt>
      <trkpt lat="46.29238" lon="6.49032">
        <ele>1199.38</ele>
        <time>2019-02-07T09:41:13Z</time>
      </trkpt>
      <trkpt lat="46.29233" lon="6.49032">
        <ele>1199.86</ele>
        <time>2019-02-07T09:41:23Z</time>
      </trkpt>
      <trkpt lat="46.29224" lon="6.49034">
        <ele>1201.79</ele>
        <time>2019-02-07T09:41:34Z</time>
      </trkpt>
      <trkpt lat="46.29222" lon="6.49036">
        <ele>1201.79</ele>
        <time>2019-02-07T09:41:39Z</time>
      </trkpt>
      <trkpt lat="46.29216" lon="6.49044">
        <ele>1201.3</ele>
        <time>2019-02-07T09:41:50Z</time>
      </trkpt>
      <trkpt lat="46.29213" lon="6.49049">
        <ele>1201.79</ele>
        <time>2019-02-07T09:41:54Z</time>
      </trkpt>
      <trkpt lat="46.29212" lon="6.49051">
        <ele>1202.27</ele>
        <time>2019-02-07T09:41:56Z</time>
      </trkpt>
      <trkpt lat="46.29209" lon="6.49059">
        <ele>1201.79</ele>
        <time>2019-02-07T09:42:07Z</time>
      </trkpt>
      <trkpt lat="46.29202" lon="6.49061">
        <ele>1199.86</ele>
        <time>2019-02-07T09:42:17Z</time>
      </trkpt>
      <trkpt lat="46.29197" lon="6.4906">
        <ele>1199.86</ele>
        <time>2019-02-07T09:42:27Z</time>
      </trkpt>
      <trkpt lat="46.29193" lon="6.49057">
        <ele>1199.38</ele>
        <time>2019-02-07T09:42:41Z</time>
      </trkpt>
      <trkpt lat="46.29188" lon="6.49055">
        <ele>1199.86</ele>
        <time>2019-02-07T09:42:55Z</time>
      </trkpt>
      <trkpt lat="46.29186" lon="6.49056">
        <ele>1199.38</ele>
        <time>2019-02-07T09:43:03Z</time>
      </trkpt>
      <trkpt lat="46.29183" lon="6.49057">
        <ele>1199.38</ele>
        <time>2019-02-07T09:43:16Z</time>
      </trkpt>
      <trkpt lat="46.29183" lon="6.49059">
        <ele>1200.34</ele>
        <time>2019-02-07T09:43:34Z</time>
      </trkpt>
      <trkpt lat="46.29181" lon="6.49066">
        <ele>1200.82</ele>
        <time>2019-02-07T09:43:48Z</time>
      </trkpt>
      <trkpt lat="46.29177" lon="6.49068">
        <ele>1200.82</ele>
        <time>2019-02-07T09:43:59Z</time>
      </trkpt>
      <trkpt lat="46.29176" lon="6.49069">
        <ele>1200.82</ele>
        <time>2019-02-07T09:44:12Z</time>
      </trkpt>
      <trkpt lat="46.29176" lon="6.49068">
        <ele>1200.34</ele>
        <time>2019-02-07T09:45:22Z</time>
      </trkpt>
      <trkpt lat="46.29174" lon="6.49069">
        <ele>1200.34</ele>
        <time>2019-02-07T09:46:28Z</time>
      </trkpt>
      <trkpt lat="46.29174" lon="6.49071">
        <ele>1200.82</ele>
        <time>2019-02-07T09:48:27Z</time>
      </trkpt>
      <trkpt lat="46.29174" lon="6.49073">
        <ele>1200.34</ele>
        <time>2019-02-07T09:49:12Z</time>
      </trkpt>
      <trkpt lat="46.29173" lon="6.49072">
        <ele>1201.3</ele>
        <time>2019-02-07T09:49:54Z</time>
      </trkpt>
      <trkpt lat="46.29176" lon="6.49075">
        <ele>1201.3</ele>
        <time>2019-02-07T09:50:03Z</time>
      </trkpt>
      <trkpt lat="46.29177" lon="6.49077">
        <ele>1200.34</ele>
        <time>2019-02-07T09:50:05Z</time>
      </trkpt>
      <trkpt lat="46.29174" lon="6.49086">
        <ele>1202.75</ele>
        <time>2019-02-07T09:50:15Z</time>
      </trkpt>
      <trkpt lat="46.29172" lon="6.49091">
        <ele>1203.71</ele>
        <time>2019-02-07T09:50:21Z</time>
      </trkpt>
      <trkpt lat="46.2917" lon="6.49098">
        <ele>1204.67</ele>
        <time>2019-02-07T09:50:30Z</time>
      </trkpt>
      <trkpt lat="46.29168" lon="6.49105">
        <ele>1206.11</ele>
        <time>2019-02-07T09:50:39Z</time>
      </trkpt>
      <trkpt lat="46.29168" lon="6.49106">
        <ele>1205.63</ele>
        <time>2019-02-07T09:50:58Z</time>
      </trkpt>
      <trkpt lat="46.29166" lon="6.49107">
        <ele>1206.11</ele>
        <time>2019-02-07T09:51:16Z</time>
      </trkpt>
      <trkpt lat="46.29164" lon="6.49113">
        <ele>1207.07</ele>
        <time>2019-02-07T09:51:36Z</time>
      </trkpt>
      <trkpt lat="46.29161" lon="6.49119">
        <ele>1208.03</ele>
        <time>2019-02-07T09:51:46Z</time>
      </trkpt>
      <trkpt lat="46.2916" lon="6.49123">
        <ele>1208.51</ele>
        <time>2019-02-07T09:51:51Z</time>
      </trkpt>
      <trkpt lat="46.29154" lon="6.49129">
        <ele>1209</ele>
        <time>2019-02-07T09:52:00Z</time>
      </trkpt>
      <trkpt lat="46.29153" lon="6.4913">
        <ele>1209</ele>
        <time>2019-02-07T09:52:02Z</time>
      </trkpt>
      <trkpt lat="46.29147" lon="6.49133">
        <ele>1210.92</ele>
        <time>2019-02-07T09:52:11Z</time>
      </trkpt>
      <trkpt lat="46.29147" lon="6.49134">
        <ele>1210.92</ele>
        <time>2019-02-07T09:52:14Z</time>
      </trkpt>
      <trkpt lat="46.29143" lon="6.49136">
        <ele>1212.36</ele>
        <time>2019-02-07T09:52:21Z</time>
      </trkpt>
      <trkpt lat="46.29138" lon="6.49139">
        <ele>1214.28</ele>
        <time>2019-02-07T09:52:35Z</time>
      </trkpt>
      <trkpt lat="46.29133" lon="6.49142">
        <ele>1216.21</ele>
        <time>2019-02-07T09:52:47Z</time>
      </trkpt>
      <trkpt lat="46.29126" lon="6.49146">
        <ele>1216.21</ele>
        <time>2019-02-07T09:52:57Z</time>
      </trkpt>
      <trkpt lat="46.29119" lon="6.49148">
        <ele>1217.65</ele>
        <time>2019-02-07T09:53:08Z</time>
      </trkpt>
      <trkpt lat="46.29116" lon="6.49151">
        <ele>1219.09</ele>
        <time>2019-02-07T09:53:20Z</time>
      </trkpt>
      <trkpt lat="46.29112" lon="6.49153">
        <ele>1220.05</ele>
        <time>2019-02-07T09:53:26Z</time>
      </trkpt>
      <trkpt lat="46.29106" lon="6.49156">
        <ele>1221.01</ele>
        <time>2019-02-07T09:53:37Z</time>
      </trkpt>
      <trkpt lat="46.29101" lon="6.49158">
        <ele>1221.97</ele>
        <time>2019-02-07T09:53:49Z</time>
      </trkpt>
      <trkpt lat="46.29099" lon="6.49159">
        <ele>1223.42</ele>
        <time>2019-02-07T09:53:52Z</time>
      </trkpt>
      <trkpt lat="46.29093" lon="6.49161">
        <ele>1225.34</ele>
        <time>2019-02-07T09:54:03Z</time>
      </trkpt>
      <trkpt lat="46.29092" lon="6.49163">
        <ele>1226.3</ele>
        <time>2019-02-07T09:54:09Z</time>
      </trkpt>
      <trkpt lat="46.29089" lon="6.49165">
        <ele>1227.74</ele>
        <time>2019-02-07T09:54:16Z</time>
      </trkpt>
      <trkpt lat="46.29084" lon="6.49165">
        <ele>1229.66</ele>
        <time>2019-02-07T09:54:27Z</time>
      </trkpt>
      <trkpt lat="46.29081" lon="6.49163">
        <ele>1231.11</ele>
        <time>2019-02-07T09:54:42Z</time>
      </trkpt>
      <trkpt lat="46.29079" lon="6.49161">
        <ele>1232.07</ele>
        <time>2019-02-07T09:54:45Z</time>
      </trkpt>
      <trkpt lat="46.29074" lon="6.4916">
        <ele>1233.99</ele>
        <time>2019-02-07T09:54:56Z</time>
      </trkpt>
      <trkpt lat="46.29067" lon="6.49162">
        <ele>1235.91</ele>
        <time>2019-02-07T09:55:07Z</time>
      </trkpt>
      <trkpt lat="46.29061" lon="6.49163">
        <ele>1236.87</ele>
        <time>2019-02-07T09:55:18Z</time>
      </trkpt>
      <trkpt lat="46.29063" lon="6.49158">
        <ele>1235.91</ele>
        <time>2019-02-07T09:55:27Z</time>
      </trkpt>
      <trkpt lat="46.29064" lon="6.4916">
        <ele>1236.87</ele>
        <time>2019-02-07T09:55:44Z</time>
      </trkpt>
      <trkpt lat="46.29064" lon="6.49163">
        <ele>1237.83</ele>
        <time>2019-02-07T09:55:53Z</time>
      </trkpt>
      <trkpt lat="46.29063" lon="6.49165">
        <ele>1237.83</ele>
        <time>2019-02-07T09:55:56Z</time>
      </trkpt>
      <trkpt lat="46.29059" lon="6.49174">
        <ele>1239.28</ele>
        <time>2019-02-07T09:56:05Z</time>
      </trkpt>
      <trkpt lat="46.29059" lon="6.49186">
        <ele>1239.76</ele>
        <time>2019-02-07T09:56:16Z</time>
      </trkpt>
      <trkpt lat="46.29057" lon="6.49189">
        <ele>1239.76</ele>
        <time>2019-02-07T09:56:19Z</time>
      </trkpt>
      <trkpt lat="46.29056" lon="6.49195">
        <ele>1241.68</ele>
        <time>2019-02-07T09:56:26Z</time>
      </trkpt>
      <trkpt lat="46.29056" lon="6.49198">
        <ele>1241.68</ele>
        <time>2019-02-07T09:56:30Z</time>
      </trkpt>
      <trkpt lat="46.29056" lon="6.49198">
        <ele>1241.68</ele>
        <time>2019-02-07T09:56:53Z</time>
      </trkpt>
      <trkpt lat="46.29057" lon="6.49198">
        <ele>1241.68</ele>
        <time>2019-02-07T09:57:14Z</time>
      </trkpt>
      <trkpt lat="46.29056" lon="6.49199">
        <ele>1241.2</ele>
        <time>2019-02-07T09:57:53Z</time>
      </trkpt>
      <trkpt lat="46.29056" lon="6.49199">
        <ele>1241.68</ele>
        <time>2019-02-07T09:59:53Z</time>
      </trkpt>
      <trkpt lat="46.29057" lon="6.49199">
        <ele>1241.68</ele>
        <time>2019-02-07T10:01:27Z</time>
      </trkpt>
      <trkpt lat="46.29058" lon="6.492">
        <ele>1241.2</ele>
        <time>2019-02-07T10:03:54Z</time>
      </trkpt>
      <trkpt lat="46.29059" lon="6.49203">
        <ele>1242.16</ele>
        <time>2019-02-07T10:04:52Z</time>
      </trkpt>
      <trkpt lat="46.29052" lon="6.49213">
        <ele>1242.64</ele>
        <time>2019-02-07T10:05:01Z</time>
      </trkpt>
      <trkpt lat="46.29044" lon="6.49223">
        <ele>1244.56</ele>
        <time>2019-02-07T10:05:11Z</time>
      </trkpt>
      <trkpt lat="46.2904" lon="6.49234">
        <ele>1246.01</ele>
        <time>2019-02-07T10:05:23Z</time>
      </trkpt>
      <trkpt lat="46.29037" lon="6.49241">
        <ele>1247.45</ele>
        <time>2019-02-07T10:05:32Z</time>
      </trkpt>
      <trkpt lat="46.29037" lon="6.49247">
        <ele>1248.41</ele>
        <time>2019-02-07T10:05:41Z</time>
      </trkpt>
      <trkpt lat="46.29036" lon="6.49256">
        <ele>1249.37</ele>
        <time>2019-02-07T10:05:52Z</time>
      </trkpt>
      <trkpt lat="46.29037" lon="6.49264">
        <ele>1250.33</ele>
        <time>2019-02-07T10:06:01Z</time>
      </trkpt>
      <trkpt lat="46.29038" lon="6.4927">
        <ele>1252.74</ele>
        <time>2019-02-07T10:06:12Z</time>
      </trkpt>
      <trkpt lat="46.29039" lon="6.49276">
        <ele>1253.22</ele>
        <time>2019-02-07T10:06:23Z</time>
      </trkpt>
      <trkpt lat="46.29041" lon="6.49284">
        <ele>1254.66</ele>
        <time>2019-02-07T10:06:33Z</time>
      </trkpt>
      <trkpt lat="46.29044" lon="6.49294">
        <ele>1257.06</ele>
        <time>2019-02-07T10:06:46Z</time>
      </trkpt>
      <trkpt lat="46.29043" lon="6.49299">
        <ele>1257.54</ele>
        <time>2019-02-07T10:06:52Z</time>
      </trkpt>
      <trkpt lat="46.29041" lon="6.49309">
        <ele>1259.46</ele>
        <time>2019-02-07T10:07:05Z</time>
      </trkpt>
      <trkpt lat="46.29048" lon="6.49315">
        <ele>1260.43</ele>
        <time>2019-02-07T10:07:14Z</time>
      </trkpt>
      <trkpt lat="46.29051" lon="6.49323">
        <ele>1261.87</ele>
        <time>2019-02-07T10:07:24Z</time>
      </trkpt>
      <trkpt lat="46.29052" lon="6.49336">
        <ele>1263.79</ele>
        <time>2019-02-07T10:07:36Z</time>
      </trkpt>
      <trkpt lat="46.29052" lon="6.49341">
        <ele>1263.31</ele>
        <time>2019-02-07T10:07:39Z</time>
      </trkpt>
      <trkpt lat="46.29051" lon="6.49345">
        <ele>1263.79</ele>
        <time>2019-02-07T10:07:42Z</time>
      </trkpt>
      <trkpt lat="46.29049" lon="6.49348">
        <ele>1264.27</ele>
        <time>2019-02-07T10:07:45Z</time>
      </trkpt>
      <trkpt lat="46.29044" lon="6.49356">
        <ele>1265.23</ele>
        <time>2019-02-07T10:07:55Z</time>
      </trkpt>
      <trkpt lat="46.2904" lon="6.49362">
        <ele>1266.19</ele>
        <time>2019-02-07T10:08:05Z</time>
      </trkpt>
      <trkpt lat="46.29038" lon="6.49368">
        <ele>1267.64</ele>
        <time>2019-02-07T10:08:17Z</time>
      </trkpt>
      <trkpt lat="46.29038" lon="6.49368">
        <ele>1266.67</ele>
        <time>2019-02-07T10:09:36Z</time>
      </trkpt>
      <trkpt lat="46.29038" lon="6.49372">
        <ele>1267.64</ele>
        <time>2019-02-07T10:09:54Z</time>
      </trkpt>
      <trkpt lat="46.29038" lon="6.49378">
        <ele>1269.08</ele>
        <time>2019-02-07T10:10:05Z</time>
      </trkpt>
      <trkpt lat="46.29044" lon="6.49387">
        <ele>1270.52</ele>
        <time>2019-02-07T10:10:17Z</time>
      </trkpt>
      <trkpt lat="46.29047" lon="6.49393">
        <ele>1271.96</ele>
        <time>2019-02-07T10:10:29Z</time>
      </trkpt>
      <trkpt lat="46.29047" lon="6.49405">
        <ele>1273.4</ele>
        <time>2019-02-07T10:10:40Z</time>
      </trkpt>
      <trkpt lat="46.29048" lon="6.49411">
        <ele>1274.36</ele>
        <time>2019-02-07T10:10:46Z</time>
      </trkpt>
      <trkpt lat="46.29045" lon="6.49423">
        <ele>1275.81</ele>
        <time>2019-02-07T10:10:58Z</time>
      </trkpt>
      <trkpt lat="46.29051" lon="6.4943">
        <ele>1277.73</ele>
        <time>2019-02-07T10:11:09Z</time>
      </trkpt>
      <trkpt lat="46.2905" lon="6.49439">
        <ele>1279.65</ele>
        <time>2019-02-07T10:11:21Z</time>
      </trkpt>
      <trkpt lat="46.2905" lon="6.49439">
        <ele>1279.65</ele>
        <time>2019-02-07T10:11:22Z</time>
      </trkpt>
      <trkpt lat="46.29047" lon="6.49445">
        <ele>1281.57</ele>
        <time>2019-02-07T10:11:33Z</time>
      </trkpt>
      <trkpt lat="46.29049" lon="6.49451">
        <ele>1282.06</ele>
        <time>2019-02-07T10:11:45Z</time>
      </trkpt>
      <trkpt lat="46.2905" lon="6.49452">
        <ele>1282.54</ele>
        <time>2019-02-07T10:11:46Z</time>
      </trkpt>
      <trkpt lat="46.29051" lon="6.49455">
        <ele>1283.02</ele>
        <time>2019-02-07T10:11:50Z</time>
      </trkpt>
      <trkpt lat="46.29057" lon="6.49464">
        <ele>1284.46</ele>
        <time>2019-02-07T10:12:01Z</time>
      </trkpt>
      <trkpt lat="46.29058" lon="6.49465">
        <ele>1283.98</ele>
        <time>2019-02-07T10:12:02Z</time>
      </trkpt>
      <trkpt lat="46.29059" lon="6.4947">
        <ele>1284.94</ele>
        <time>2019-02-07T10:12:10Z</time>
      </trkpt>
      <trkpt lat="46.29054" lon="6.49479">
        <ele>1285.9</ele>
        <time>2019-02-07T10:12:21Z</time>
      </trkpt>
      <trkpt lat="46.29051" lon="6.49481">
        <ele>1285.9</ele>
        <time>2019-02-07T10:12:25Z</time>
      </trkpt>
      <trkpt lat="46.29046" lon="6.49491">
        <ele>1287.82</ele>
        <time>2019-02-07T10:12:36Z</time>
      </trkpt>
      <trkpt lat="46.2904" lon="6.49499">
        <ele>1289.75</ele>
        <time>2019-02-07T10:12:49Z</time>
      </trkpt>
      <trkpt lat="46.29037" lon="6.49502">
        <ele>1290.71</ele>
        <time>2019-02-07T10:13:00Z</time>
      </trkpt>
      <trkpt lat="46.29033" lon="6.49506">
        <ele>1291.67</ele>
        <time>2019-02-07T10:13:11Z</time>
      </trkpt>
      <trkpt lat="46.29032" lon="6.4951">
        <ele>1292.15</ele>
        <time>2019-02-07T10:13:22Z</time>
      </trkpt>
      <trkpt lat="46.29033" lon="6.49511">
        <ele>1293.11</ele>
        <time>2019-02-07T10:13:28Z</time>
      </trkpt>
      <trkpt lat="46.29028" lon="6.49518">
        <ele>1295.03</ele>
        <time>2019-02-07T10:13:41Z</time>
      </trkpt>
      <trkpt lat="46.29024" lon="6.49523">
        <ele>1295.99</ele>
        <time>2019-02-07T10:13:50Z</time>
      </trkpt>
      <trkpt lat="46.29024" lon="6.49527">
        <ele>1296.48</ele>
        <time>2019-02-07T10:13:53Z</time>
      </trkpt>
      <trkpt lat="46.2902" lon="6.49539">
        <ele>1297.92</ele>
        <time>2019-02-07T10:14:06Z</time>
      </trkpt>
      <trkpt lat="46.2902" lon="6.4954">
        <ele>1297.92</ele>
        <time>2019-02-07T10:14:07Z</time>
      </trkpt>
      <trkpt lat="46.29018" lon="6.49548">
        <ele>1299.36</ele>
        <time>2019-02-07T10:14:18Z</time>
      </trkpt>
      <trkpt lat="46.29015" lon="6.49559">
        <ele>1301.28</ele>
        <time>2019-02-07T10:14:31Z</time>
      </trkpt>
      <trkpt lat="46.29013" lon="6.49572">
        <ele>1302.24</ele>
        <time>2019-02-07T10:14:44Z</time>
      </trkpt>
      <trkpt lat="46.2901" lon="6.4958">
        <ele>1303.69</ele>
        <time>2019-02-07T10:14:54Z</time>
      </trkpt>
      <trkpt lat="46.29007" lon="6.49586">
        <ele>1304.65</ele>
        <time>2019-02-07T10:15:03Z</time>
      </trkpt>
      <trkpt lat="46.29002" lon="6.49596">
        <ele>1304.17</ele>
        <time>2019-02-07T10:15:15Z</time>
      </trkpt>
      <trkpt lat="46.28994" lon="6.49608">
        <ele>1305.13</ele>
        <time>2019-02-07T10:15:28Z</time>
      </trkpt>
      <trkpt lat="46.28989" lon="6.49617">
        <ele>1306.57</ele>
        <time>2019-02-07T10:15:42Z</time>
      </trkpt>
      <trkpt lat="46.28985" lon="6.4963">
        <ele>1308.97</ele>
        <time>2019-02-07T10:15:55Z</time>
      </trkpt>
      <trkpt lat="46.28982" lon="6.49637">
        <ele>1310.41</ele>
        <time>2019-02-07T10:16:05Z</time>
      </trkpt>
      <trkpt lat="46.2898" lon="6.49639">
        <ele>1309.93</ele>
        <time>2019-02-07T10:16:19Z</time>
      </trkpt>
      <trkpt lat="46.2898" lon="6.49639">
        <ele>1309.93</ele>
        <time>2019-02-07T10:16:56Z</time>
      </trkpt>
      <trkpt lat="46.2898" lon="6.49639">
        <ele>1309.93</ele>
        <time>2019-02-07T10:18:50Z</time>
      </trkpt>
      <trkpt lat="46.2898" lon="6.49638">
        <ele>1309.93</ele>
        <time>2019-02-07T10:19:24Z</time>
      </trkpt>
      <trkpt lat="46.28978" lon="6.49635">
        <ele>1310.41</ele>
        <time>2019-02-07T10:19:43Z</time>
      </trkpt>
      <trkpt lat="46.2897" lon="6.49625">
        <ele>1312.34</ele>
        <time>2019-02-07T10:19:56Z</time>
      </trkpt>
      <trkpt lat="46.28967" lon="6.49621">
        <ele>1313.3</ele>
        <time>2019-02-07T10:20:06Z</time>
      </trkpt>
      <trkpt lat="46.28965" lon="6.49619">
        <ele>1312.82</ele>
        <time>2019-02-07T10:20:09Z</time>
      </trkpt>
      <trkpt lat="46.28959" lon="6.49608">
        <ele>1313.78</ele>
        <time>2019-02-07T10:20:20Z</time>
      </trkpt>
      <trkpt lat="46.28954" lon="6.49599">
        <ele>1314.74</ele>
        <time>2019-02-07T10:20:32Z</time>
      </trkpt>
      <trkpt lat="46.28952" lon="6.49591">
        <ele>1314.74</ele>
        <time>2019-02-07T10:20:40Z</time>
      </trkpt>
      <trkpt lat="46.2895" lon="6.49588">
        <ele>1315.22</ele>
        <time>2019-02-07T10:20:43Z</time>
      </trkpt>
      <trkpt lat="46.28948" lon="6.49584">
        <ele>1316.18</ele>
        <time>2019-02-07T10:20:48Z</time>
      </trkpt>
      <trkpt lat="46.28942" lon="6.49574">
        <ele>1317.14</ele>
        <time>2019-02-07T10:20:59Z</time>
      </trkpt>
      <trkpt lat="46.28938" lon="6.49565">
        <ele>1318.1</ele>
        <time>2019-02-07T10:21:10Z</time>
      </trkpt>
      <trkpt lat="46.28933" lon="6.49556">
        <ele>1318.59</ele>
        <time>2019-02-07T10:21:20Z</time>
      </trkpt>
      <trkpt lat="46.28929" lon="6.49547">
        <ele>1319.55</ele>
        <time>2019-02-07T10:21:32Z</time>
      </trkpt>
      <trkpt lat="46.28925" lon="6.49538">
        <ele>1320.99</ele>
        <time>2019-02-07T10:21:42Z</time>
      </trkpt>
      <trkpt lat="46.2892" lon="6.49524">
        <ele>1320.99</ele>
        <time>2019-02-07T10:21:55Z</time>
      </trkpt>
      <trkpt lat="46.28915" lon="6.49512">
        <ele>1321.95</ele>
        <time>2019-02-07T10:22:10Z</time>
      </trkpt>
      <trkpt lat="46.28913" lon="6.49506">
        <ele>1323.87</ele>
        <time>2019-02-07T10:22:23Z</time>
      </trkpt>
      <trkpt lat="46.28913" lon="6.49504">
        <ele>1324.35</ele>
        <time>2019-02-07T10:22:25Z</time>
      </trkpt>
      <trkpt lat="46.28906" lon="6.49493">
        <ele>1324.35</ele>
        <time>2019-02-07T10:22:34Z</time>
      </trkpt>
      <trkpt lat="46.28904" lon="6.49485">
        <ele>1324.35</ele>
        <time>2019-02-07T10:22:41Z</time>
      </trkpt>
      <trkpt lat="46.28898" lon="6.49477">
        <ele>1324.83</ele>
        <time>2019-02-07T10:22:49Z</time>
      </trkpt>
      <trkpt lat="46.28894" lon="6.49465">
        <ele>1324.83</ele>
        <time>2019-02-07T10:23:02Z</time>
      </trkpt>
      <trkpt lat="46.28888" lon="6.49461">
        <ele>1326.28</ele>
        <time>2019-02-07T10:23:13Z</time>
      </trkpt>
      <trkpt lat="46.28882" lon="6.49459">
        <ele>1327.24</ele>
        <time>2019-02-07T10:23:25Z</time>
      </trkpt>
      <trkpt lat="46.28879" lon="6.49458">
        <ele>1327.72</ele>
        <time>2019-02-07T10:23:31Z</time>
      </trkpt>
      <trkpt lat="46.28877" lon="6.49457">
        <ele>1328.68</ele>
        <time>2019-02-07T10:23:35Z</time>
      </trkpt>
      <trkpt lat="46.2887" lon="6.49453">
        <ele>1329.16</ele>
        <time>2019-02-07T10:23:46Z</time>
      </trkpt>
      <trkpt lat="46.28867" lon="6.49451">
        <ele>1329.64</ele>
        <time>2019-02-07T10:23:57Z</time>
      </trkpt>
      <trkpt lat="46.28862" lon="6.49448">
        <ele>1331.08</ele>
        <time>2019-02-07T10:24:09Z</time>
      </trkpt>
      <trkpt lat="46.28858" lon="6.49446">
        <ele>1333.97</ele>
        <time>2019-02-07T10:24:20Z</time>
      </trkpt>
      <trkpt lat="46.2885" lon="6.49443">
        <ele>1334.93</ele>
        <time>2019-02-07T10:24:31Z</time>
      </trkpt>
      <trkpt lat="46.28844" lon="6.4944">
        <ele>1335.41</ele>
        <time>2019-02-07T10:24:43Z</time>
      </trkpt>
      <trkpt lat="46.2884" lon="6.49437">
        <ele>1336.37</ele>
        <time>2019-02-07T10:24:57Z</time>
      </trkpt>
      <trkpt lat="46.28835" lon="6.49433">
        <ele>1337.81</ele>
        <time>2019-02-07T10:25:06Z</time>
      </trkpt>
      <trkpt lat="46.28831" lon="6.49429">
        <ele>1339.25</ele>
        <time>2019-02-07T10:25:18Z</time>
      </trkpt>
      <trkpt lat="46.28827" lon="6.49421">
        <ele>1339.73</ele>
        <time>2019-02-07T10:25:30Z</time>
      </trkpt>
      <trkpt lat="46.28823" lon="6.49412">
        <ele>1340.7</ele>
        <time>2019-02-07T10:25:40Z</time>
      </trkpt>
      <trkpt lat="46.2882" lon="6.49401">
        <ele>1341.18</ele>
        <time>2019-02-07T10:25:53Z</time>
      </trkpt>
      <trkpt lat="46.28816" lon="6.49393">
        <ele>1341.66</ele>
        <time>2019-02-07T10:26:04Z</time>
      </trkpt>
      <trkpt lat="46.28812" lon="6.49386">
        <ele>1343.1</ele>
        <time>2019-02-07T10:26:15Z</time>
      </trkpt>
      <trkpt lat="46.28811" lon="6.49384">
        <ele>1345.02</ele>
        <time>2019-02-07T10:26:29Z</time>
      </trkpt>
      <trkpt lat="46.28811" lon="6.49384">
        <ele>1344.54</ele>
        <time>2019-02-07T10:27:25Z</time>
      </trkpt>
      <trkpt lat="46.28813" lon="6.49388">
        <ele>1344.06</ele>
        <time>2019-02-07T10:27:37Z</time>
      </trkpt>
      <trkpt lat="46.28813" lon="6.49389">
        <ele>1345.02</ele>
        <time>2019-02-07T10:29:06Z</time>
      </trkpt>
      <trkpt lat="46.2881" lon="6.49385">
        <ele>1345.5</ele>
        <time>2019-02-07T10:29:19Z</time>
      </trkpt>
      <trkpt lat="46.28803" lon="6.49374">
        <ele>1346.94</ele>
        <time>2019-02-07T10:29:35Z</time>
      </trkpt>
      <trkpt lat="46.28802" lon="6.49374">
        <ele>1346.46</ele>
        <time>2019-02-07T10:29:38Z</time>
      </trkpt>
      <trkpt lat="46.28793" lon="6.49365">
        <ele>1348.87</ele>
        <time>2019-02-07T10:29:47Z</time>
      </trkpt>
      <trkpt lat="46.28789" lon="6.4936">
        <ele>1350.31</ele>
        <time>2019-02-07T10:29:53Z</time>
      </trkpt>
      <trkpt lat="46.2878" lon="6.49352">
        <ele>1351.27</ele>
        <time>2019-02-07T10:30:05Z</time>
      </trkpt>
      <trkpt lat="46.28774" lon="6.49347">
        <ele>1353.67</ele>
        <time>2019-02-07T10:30:17Z</time>
      </trkpt>
      <trkpt lat="46.28774" lon="6.49346">
        <ele>1354.63</ele>
        <time>2019-02-07T10:30:43Z</time>
      </trkpt>
      <trkpt lat="46.28766" lon="6.49337">
        <ele>1355.6</ele>
        <time>2019-02-07T10:30:56Z</time>
      </trkpt>
      <trkpt lat="46.2876" lon="6.4933">
        <ele>1354.15</ele>
        <time>2019-02-07T10:31:06Z</time>
      </trkpt>
      <trkpt lat="46.2876" lon="6.4933">
        <ele>1354.15</ele>
        <time>2019-02-07T10:31:07Z</time>
      </trkpt>
      <trkpt lat="46.28754" lon="6.49324">
        <ele>1354.63</ele>
        <time>2019-02-07T10:31:17Z</time>
      </trkpt>
      <trkpt lat="46.28749" lon="6.49321">
        <ele>1357.52</ele>
        <time>2019-02-07T10:31:24Z</time>
      </trkpt>
      <trkpt lat="46.28743" lon="6.49316">
        <ele>1358.48</ele>
        <time>2019-02-07T10:31:35Z</time>
      </trkpt>
      <trkpt lat="46.28736" lon="6.49308">
        <ele>1358.48</ele>
        <time>2019-02-07T10:31:47Z</time>
      </trkpt>
      <trkpt lat="46.28732" lon="6.49302">
        <ele>1359.92</ele>
        <time>2019-02-07T10:31:55Z</time>
      </trkpt>
      <trkpt lat="46.28724" lon="6.49294">
        <ele>1361.84</ele>
        <time>2019-02-07T10:32:08Z</time>
      </trkpt>
      <trkpt lat="46.28718" lon="6.49287">
        <ele>1361.36</ele>
        <time>2019-02-07T10:32:18Z</time>
      </trkpt>
      <trkpt lat="46.28711" lon="6.4928">
        <ele>1361.36</ele>
        <time>2019-02-07T10:32:29Z</time>
      </trkpt>
      <trkpt lat="46.28705" lon="6.49275">
        <ele>1361.36</ele>
        <time>2019-02-07T10:32:42Z</time>
      </trkpt>
      <trkpt lat="46.28704" lon="6.49273">
        <ele>1361.36</ele>
        <time>2019-02-07T10:33:31Z</time>
      </trkpt>
      <trkpt lat="46.28698" lon="6.49268">
        <ele>1362.33</ele>
        <time>2019-02-07T10:33:38Z</time>
      </trkpt>
      <trkpt lat="46.28688" lon="6.4926">
        <ele>1361.84</ele>
        <time>2019-02-07T10:33:50Z</time>
      </trkpt>
      <trkpt lat="46.28681" lon="6.49253">
        <ele>1361.84</ele>
        <time>2019-02-07T10:34:03Z</time>
      </trkpt>
      <trkpt lat="46.28681" lon="6.49253">
        <ele>1360.4</ele>
        <time>2019-02-07T10:34:19Z</time>
      </trkpt>
      <trkpt lat="46.28679" lon="6.49251">
        <ele>1359.92</ele>
        <time>2019-02-07T10:34:36Z</time>
      </trkpt>
      <trkpt lat="46.28674" lon="6.49245">
        <ele>1362.81</ele>
        <time>2019-02-07T10:34:42Z</time>
      </trkpt>
      <trkpt lat="46.28673" lon="6.49244">
        <ele>1361.84</ele>
        <time>2019-02-07T10:34:44Z</time>
      </trkpt>
      <trkpt lat="46.28661" lon="6.49232">
        <ele>1361.36</ele>
        <time>2019-02-07T10:34:59Z</time>
      </trkpt>
      <trkpt lat="46.28657" lon="6.49229">
        <ele>1361.36</ele>
        <time>2019-02-07T10:35:03Z</time>
      </trkpt>
      <trkpt lat="46.28647" lon="6.49218">
        <ele>1358.96</ele>
        <time>2019-02-07T10:35:15Z</time>
      </trkpt>
      <trkpt lat="46.28644" lon="6.49215">
        <ele>1359.92</ele>
        <time>2019-02-07T10:35:19Z</time>
      </trkpt>
      <trkpt lat="46.28643" lon="6.49215">
        <ele>1360.4</ele>
        <time>2019-02-07T10:35:20Z</time>
      </trkpt>
      <trkpt lat="46.28638" lon="6.4921">
        <ele>1360.4</ele>
        <time>2019-02-07T10:35:25Z</time>
      </trkpt>
      <trkpt lat="46.28636" lon="6.49207">
        <ele>1360.88</ele>
        <time>2019-02-07T10:35:28Z</time>
      </trkpt>
      <trkpt lat="46.28634" lon="6.49206">
        <ele>1360.4</ele>
        <time>2019-02-07T10:35:30Z</time>
      </trkpt>
      <trkpt lat="46.28632" lon="6.49202">
        <ele>1360.88</ele>
        <time>2019-02-07T10:35:33Z</time>
      </trkpt>
      <trkpt lat="46.28624" lon="6.49195">
        <ele>1361.36</ele>
        <time>2019-02-07T10:35:41Z</time>
      </trkpt>
      <trkpt lat="46.28619" lon="6.4919">
        <ele>1360.4</ele>
        <time>2019-02-07T10:35:47Z</time>
      </trkpt>
      <trkpt lat="46.28614" lon="6.49187">
        <ele>1361.36</ele>
        <time>2019-02-07T10:35:52Z</time>
      </trkpt>
      <trkpt lat="46.28616" lon="6.49181">
        <ele>1361.36</ele>
        <time>2019-02-07T10:36:04Z</time>
      </trkpt>
      <trkpt lat="46.28617" lon="6.49177">
        <ele>1359.44</ele>
        <time>2019-02-07T10:36:08Z</time>
      </trkpt>
      <trkpt lat="46.28617" lon="6.49174">
        <ele>1358.96</ele>
        <time>2019-02-07T10:36:10Z</time>
      </trkpt>
      <trkpt lat="46.28618" lon="6.49168">
        <ele>1358.96</ele>
        <time>2019-02-07T10:36:14Z</time>
      </trkpt>
      <trkpt lat="46.28618" lon="6.49155">
        <ele>1359.44</ele>
        <time>2019-02-07T10:36:23Z</time>
      </trkpt>
      <trkpt lat="46.28617" lon="6.49147">
        <ele>1359.92</ele>
        <time>2019-02-07T10:36:29Z</time>
      </trkpt>
      <trkpt lat="46.28618" lon="6.49137">
        <ele>1359.44</ele>
        <time>2019-02-07T10:36:37Z</time>
      </trkpt>
      <trkpt lat="46.28616" lon="6.49125">
        <ele>1358.48</ele>
        <time>2019-02-07T10:36:46Z</time>
      </trkpt>
      <trkpt lat="46.28617" lon="6.49113">
        <ele>1360.4</ele>
        <time>2019-02-07T10:36:56Z</time>
      </trkpt>
      <trkpt lat="46.28616" lon="6.491">
        <ele>1360.88</ele>
        <time>2019-02-07T10:37:08Z</time>
      </trkpt>
      <trkpt lat="46.28616" lon="6.49087">
        <ele>1360.88</ele>
        <time>2019-02-07T10:37:20Z</time>
      </trkpt>
      <trkpt lat="46.28616" lon="6.4907">
        <ele>1360.4</ele>
        <time>2019-02-07T10:37:34Z</time>
      </trkpt>
      <trkpt lat="46.28616" lon="6.4906">
        <ele>1364.25</ele>
        <time>2019-02-07T10:37:42Z</time>
      </trkpt>
      <trkpt lat="46.28617" lon="6.49057">
        <ele>1360.88</ele>
        <time>2019-02-07T10:37:45Z</time>
      </trkpt>
      <trkpt lat="46.28617" lon="6.49053">
        <ele>1362.81</ele>
        <time>2019-02-07T10:37:50Z</time>
      </trkpt>
      <trkpt lat="46.28619" lon="6.49041">
        <ele>1361.36</ele>
        <time>2019-02-07T10:38:01Z</time>
      </trkpt>
      <trkpt lat="46.2862" lon="6.49037">
        <ele>1363.29</ele>
        <time>2019-02-07T10:38:05Z</time>
      </trkpt>
      <trkpt lat="46.28623" lon="6.49031">
        <ele>1362.81</ele>
        <time>2019-02-07T10:38:13Z</time>
      </trkpt>
      <trkpt lat="46.28625" lon="6.49029">
        <ele>1362.33</ele>
        <time>2019-02-07T10:38:29Z</time>
      </trkpt>
      <trkpt lat="46.28626" lon="6.49028">
        <ele>1361.36</ele>
        <time>2019-02-07T10:40:46Z</time>
      </trkpt>
      <trkpt lat="46.28624" lon="6.49038">
        <ele>1362.33</ele>
        <time>2019-02-07T10:41:32Z</time>
      </trkpt>
      <trkpt lat="46.28624" lon="6.49037">
        <ele>1362.81</ele>
        <time>2019-02-07T10:41:40Z</time>
      </trkpt>
      <trkpt lat="46.28623" lon="6.49039">
        <ele>1361.84</ele>
        <time>2019-02-07T10:42:11Z</time>
      </trkpt>
      <trkpt lat="46.28623" lon="6.49035">
        <ele>1362.81</ele>
        <time>2019-02-07T10:42:32Z</time>
      </trkpt>
      <trkpt lat="46.28621" lon="6.49032">
        <ele>1359.44</ele>
        <time>2019-02-07T10:42:39Z</time>
      </trkpt>
      <trkpt lat="46.28615" lon="6.49028">
        <ele>1360.4</ele>
        <time>2019-02-07T10:42:51Z</time>
      </trkpt>
      <trkpt lat="46.28608" lon="6.49023">
        <ele>1359.92</ele>
        <time>2019-02-07T10:43:03Z</time>
      </trkpt>
      <trkpt lat="46.28603" lon="6.49014">
        <ele>1359.92</ele>
        <time>2019-02-07T10:43:13Z</time>
      </trkpt>
      <trkpt lat="46.28598" lon="6.49006">
        <ele>1359.44</ele>
        <time>2019-02-07T10:43:24Z</time>
      </trkpt>
      <trkpt lat="46.28597" lon="6.49005">
        <ele>1360.88</ele>
        <time>2019-02-07T10:43:27Z</time>
      </trkpt>
      <trkpt lat="46.28593" lon="6.48998">
        <ele>1362.33</ele>
        <time>2019-02-07T10:43:39Z</time>
      </trkpt>
      <trkpt lat="46.28589" lon="6.48991">
        <ele>1363.29</ele>
        <time>2019-02-07T10:43:51Z</time>
      </trkpt>
      <trkpt lat="46.28586" lon="6.48987">
        <ele>1363.77</ele>
        <time>2019-02-07T10:44:01Z</time>
      </trkpt>
      <trkpt lat="46.2858" lon="6.48977">
        <ele>1362.33</ele>
        <time>2019-02-07T10:44:14Z</time>
      </trkpt>
      <trkpt lat="46.28579" lon="6.48968">
        <ele>1363.77</ele>
        <time>2019-02-07T10:44:25Z</time>
      </trkpt>
      <trkpt lat="46.28577" lon="6.48963">
        <ele>1364.73</ele>
        <time>2019-02-07T10:44:33Z</time>
      </trkpt>
      <trkpt lat="46.28572" lon="6.48954">
        <ele>1364.25</ele>
        <time>2019-02-07T10:44:48Z</time>
      </trkpt>
      <trkpt lat="46.28571" lon="6.48944">
        <ele>1362.33</ele>
        <time>2019-02-07T10:45:01Z</time>
      </trkpt>
      <trkpt lat="46.2857" lon="6.48942">
        <ele>1362.33</ele>
        <time>2019-02-07T10:45:17Z</time>
      </trkpt>
      <trkpt lat="46.28568" lon="6.48941">
        <ele>1361.84</ele>
        <time>2019-02-07T10:45:31Z</time>
      </trkpt>
      <trkpt lat="46.28568" lon="6.48935">
        <ele>1361.84</ele>
        <time>2019-02-07T10:46:06Z</time>
      </trkpt>
      <trkpt lat="46.28566" lon="6.48931">
        <ele>1360.88</ele>
        <time>2019-02-07T10:46:17Z</time>
      </trkpt>
      <trkpt lat="46.28566" lon="6.48931">
        <ele>1360.88</ele>
        <time>2019-02-07T10:46:41Z</time>
      </trkpt>
      <trkpt lat="46.28565" lon="6.4893">
        <ele>1359.92</ele>
        <time>2019-02-07T10:48:02Z</time>
      </trkpt>
      <trkpt lat="46.28565" lon="6.48929">
        <ele>1359.44</ele>
        <time>2019-02-07T10:49:01Z</time>
      </trkpt>
      <trkpt lat="46.2856" lon="6.48924">
        <ele>1359.92</ele>
        <time>2019-02-07T10:49:15Z</time>
      </trkpt>
      <trkpt lat="46.2855" lon="6.48923">
        <ele>1359.44</ele>
        <time>2019-02-07T10:49:28Z</time>
      </trkpt>
      <trkpt lat="46.28541" lon="6.48926">
        <ele>1358</ele>
        <time>2019-02-07T10:49:41Z</time>
      </trkpt>
      <trkpt lat="46.28535" lon="6.48926">
        <ele>1355.6</ele>
        <time>2019-02-07T10:49:51Z</time>
      </trkpt>
      <trkpt lat="46.28531" lon="6.48923">
        <ele>1358.48</ele>
        <time>2019-02-07T10:49:57Z</time>
      </trkpt>
      <trkpt lat="46.28525" lon="6.48916">
        <ele>1358</ele>
        <time>2019-02-07T10:50:08Z</time>
      </trkpt>
      <trkpt lat="46.2852" lon="6.48907">
        <ele>1358</ele>
        <time>2019-02-07T10:50:18Z</time>
      </trkpt>
      <trkpt lat="46.28518" lon="6.48906">
        <ele>1357.52</ele>
        <time>2019-02-07T10:50:20Z</time>
      </trkpt>
      <trkpt lat="46.28513" lon="6.48899">
        <ele>1358</ele>
        <time>2019-02-07T10:50:31Z</time>
      </trkpt>
      <trkpt lat="46.28507" lon="6.48893">
        <ele>1359.44</ele>
        <time>2019-02-07T10:50:45Z</time>
      </trkpt>
      <trkpt lat="46.28506" lon="6.48892">
        <ele>1359.44</ele>
        <time>2019-02-07T10:50:46Z</time>
      </trkpt>
      <trkpt lat="46.28499" lon="6.48884">
        <ele>1358.96</ele>
        <time>2019-02-07T10:50:58Z</time>
      </trkpt>
      <trkpt lat="46.2849" lon="6.48875">
        <ele>1358.96</ele>
        <time>2019-02-07T10:51:13Z</time>
      </trkpt>
      <trkpt lat="46.28484" lon="6.48868">
        <ele>1357.52</ele>
        <time>2019-02-07T10:51:26Z</time>
      </trkpt>
      <trkpt lat="46.28478" lon="6.48866">
        <ele>1357.04</ele>
        <time>2019-02-07T10:51:39Z</time>
      </trkpt>
      <trkpt lat="46.28474" lon="6.48865">
        <ele>1357.52</ele>
        <time>2019-02-07T10:51:50Z</time>
      </trkpt>
      <trkpt lat="46.28474" lon="6.48864">
        <ele>1357.04</ele>
        <time>2019-02-07T10:52:34Z</time>
      </trkpt>
      <trkpt lat="46.28471" lon="6.48865">
        <ele>1357.04</ele>
        <time>2019-02-07T10:53:00Z</time>
      </trkpt>
      <trkpt lat="46.28466" lon="6.48858">
        <ele>1355.12</ele>
        <time>2019-02-07T10:53:34Z</time>
      </trkpt>
      <trkpt lat="46.28465" lon="6.48858">
        <ele>1354.15</ele>
        <time>2019-02-07T10:53:37Z</time>
      </trkpt>
      <trkpt lat="46.28458" lon="6.48857">
        <ele>1351.75</ele>
        <time>2019-02-07T10:53:49Z</time>
      </trkpt>
      <trkpt lat="46.28451" lon="6.48856">
        <ele>1348.87</ele>
        <time>2019-02-07T10:53:59Z</time>
      </trkpt>
      <trkpt lat="46.28448" lon="6.48855">
        <ele>1348.87</ele>
        <time>2019-02-07T10:54:03Z</time>
      </trkpt>
      <trkpt lat="46.2844" lon="6.48852">
        <ele>1348.39</ele>
        <time>2019-02-07T10:54:15Z</time>
      </trkpt>
      <trkpt lat="46.28431" lon="6.48853">
        <ele>1347.91</ele>
        <time>2019-02-07T10:54:28Z</time>
      </trkpt>
      <trkpt lat="46.28423" lon="6.48854">
        <ele>1346.46</ele>
        <time>2019-02-07T10:54:39Z</time>
      </trkpt>
      <trkpt lat="46.28421" lon="6.48856">
        <ele>1345.98</ele>
        <time>2019-02-07T10:54:43Z</time>
      </trkpt>
      <trkpt lat="46.28413" lon="6.4886">
        <ele>1345.5</ele>
        <time>2019-02-07T10:54:55Z</time>
      </trkpt>
      <trkpt lat="46.28408" lon="6.48869">
        <ele>1345.02</ele>
        <time>2019-02-07T10:55:07Z</time>
      </trkpt>
      <trkpt lat="46.28404" lon="6.48879">
        <ele>1344.06</ele>
        <time>2019-02-07T10:55:18Z</time>
      </trkpt>
      <trkpt lat="46.284" lon="6.48892">
        <ele>1342.62</ele>
        <time>2019-02-07T10:55:32Z</time>
      </trkpt>
      <trkpt lat="46.28398" lon="6.48896">
        <ele>1341.66</ele>
        <time>2019-02-07T10:55:36Z</time>
      </trkpt>
      <trkpt lat="46.28397" lon="6.48898">
        <ele>1341.66</ele>
        <time>2019-02-07T10:55:38Z</time>
      </trkpt>
      <trkpt lat="46.28395" lon="6.489">
        <ele>1341.66</ele>
        <time>2019-02-07T10:55:40Z</time>
      </trkpt>
      <trkpt lat="46.28392" lon="6.48913">
        <ele>1342.62</ele>
        <time>2019-02-07T10:55:52Z</time>
      </trkpt>
      <trkpt lat="46.28391" lon="6.48917">
        <ele>1341.18</ele>
        <time>2019-02-07T10:55:56Z</time>
      </trkpt>
      <trkpt lat="46.2839" lon="6.4892">
        <ele>1340.7</ele>
        <time>2019-02-07T10:55:58Z</time>
      </trkpt>
      <trkpt lat="46.28387" lon="6.48926">
        <ele>1340.22</ele>
        <time>2019-02-07T10:56:04Z</time>
      </trkpt>
      <trkpt lat="46.28384" lon="6.48936">
        <ele>1339.73</ele>
        <time>2019-02-07T10:56:17Z</time>
      </trkpt>
      <trkpt lat="46.2838" lon="6.48944">
        <ele>1339.25</ele>
        <time>2019-02-07T10:56:26Z</time>
      </trkpt>
      <trkpt lat="46.28375" lon="6.48955">
        <ele>1340.22</ele>
        <time>2019-02-07T10:56:38Z</time>
      </trkpt>
      <trkpt lat="46.28374" lon="6.48964">
        <ele>1340.7</ele>
        <time>2019-02-07T10:56:49Z</time>
      </trkpt>
      <trkpt lat="46.28373" lon="6.48964">
        <ele>1341.66</ele>
        <time>2019-02-07T10:56:53Z</time>
      </trkpt>
      <trkpt lat="46.28373" lon="6.48965">
        <ele>1339.73</ele>
        <time>2019-02-07T10:57:12Z</time>
      </trkpt>
      <trkpt lat="46.28373" lon="6.48966">
        <ele>1340.22</ele>
        <time>2019-02-07T10:58:26Z</time>
      </trkpt>
      <trkpt lat="46.28372" lon="6.48966">
        <ele>1340.22</ele>
        <time>2019-02-07T10:59:00Z</time>
      </trkpt>
      <trkpt lat="46.28371" lon="6.48967">
        <ele>1340.7</ele>
        <time>2019-02-07T11:02:22Z</time>
      </trkpt>
      <trkpt lat="46.28372" lon="6.48975">
        <ele>1340.7</ele>
        <time>2019-02-07T11:02:35Z</time>
      </trkpt>
      <trkpt lat="46.28372" lon="6.48976">
        <ele>1340.7</ele>
        <time>2019-02-07T11:02:36Z</time>
      </trkpt>
      <trkpt lat="46.28371" lon="6.48983">
        <ele>1340.22</ele>
        <time>2019-02-07T11:02:46Z</time>
      </trkpt>
      <trkpt lat="46.28371" lon="6.48985">
        <ele>1340.7</ele>
        <time>2019-02-07T11:03:19Z</time>
      </trkpt>
      <trkpt lat="46.28373" lon="6.48986">
        <ele>1341.66</ele>
        <time>2019-02-07T11:03:22Z</time>
      </trkpt>
      <trkpt lat="46.28376" lon="6.48989">
        <ele>1341.18</ele>
        <time>2019-02-07T11:03:35Z</time>
      </trkpt>
      <trkpt lat="46.28381" lon="6.48987">
        <ele>1340.7</ele>
        <time>2019-02-07T11:03:46Z</time>
      </trkpt>
      <trkpt lat="46.28385" lon="6.48979">
        <ele>1342.14</ele>
        <time>2019-02-07T11:03:59Z</time>
      </trkpt>
      <trkpt lat="46.28389" lon="6.48981">
        <ele>1343.58</ele>
        <time>2019-02-07T11:04:10Z</time>
      </trkpt>
      <trkpt lat="46.28396" lon="6.48988">
        <ele>1345.02</ele>
        <time>2019-02-07T11:04:22Z</time>
      </trkpt>
      <trkpt lat="46.284" lon="6.48993">
        <ele>1347.43</ele>
        <time>2019-02-07T11:04:33Z</time>
      </trkpt>
      <trkpt lat="46.28405" lon="6.49001">
        <ele>1349.83</ele>
        <time>2019-02-07T11:04:44Z</time>
      </trkpt>
      <trkpt lat="46.28409" lon="6.49008">
        <ele>1350.31</ele>
        <time>2019-02-07T11:04:55Z</time>
      </trkpt>
      <trkpt lat="46.28415" lon="6.49016">
        <ele>1352.23</ele>
        <time>2019-02-07T11:05:07Z</time>
      </trkpt>
      <trkpt lat="46.28421" lon="6.49023">
        <ele>1353.67</ele>
        <time>2019-02-07T11:05:19Z</time>
      </trkpt>
      <trkpt lat="46.28424" lon="6.49027">
        <ele>1354.15</ele>
        <time>2019-02-07T11:05:24Z</time>
      </trkpt>
      <trkpt lat="46.28431" lon="6.49035">
        <ele>1354.63</ele>
        <time>2019-02-07T11:05:35Z</time>
      </trkpt>
      <trkpt lat="46.28432" lon="6.49036">
        <ele>1354.63</ele>
        <time>2019-02-07T11:05:37Z</time>
      </trkpt>
      <trkpt lat="46.28439" lon="6.49043">
        <ele>1355.6</ele>
        <time>2019-02-07T11:05:48Z</time>
      </trkpt>
      <trkpt lat="46.28446" lon="6.4905">
        <ele>1357.04</ele>
        <time>2019-02-07T11:05:59Z</time>
      </trkpt>
      <trkpt lat="46.28452" lon="6.49054">
        <ele>1358</ele>
        <time>2019-02-07T11:06:08Z</time>
      </trkpt>
      <trkpt lat="46.28458" lon="6.49058">
        <ele>1358</ele>
        <time>2019-02-07T11:06:17Z</time>
      </trkpt>
      <trkpt lat="46.28466" lon="6.49064">
        <ele>1357.04</ele>
        <time>2019-02-07T11:06:29Z</time>
      </trkpt>
      <trkpt lat="46.28473" lon="6.4907">
        <ele>1358.48</ele>
        <time>2019-02-07T11:06:40Z</time>
      </trkpt>
      <trkpt lat="46.28476" lon="6.49072">
        <ele>1358.48</ele>
        <time>2019-02-07T11:06:44Z</time>
      </trkpt>
      <trkpt lat="46.28479" lon="6.49076">
        <ele>1357.52</ele>
        <time>2019-02-07T11:06:49Z</time>
      </trkpt>
      <trkpt lat="46.28482" lon="6.49079">
        <ele>1358.48</ele>
        <time>2019-02-07T11:06:52Z</time>
      </trkpt>
      <trkpt lat="46.28485" lon="6.49081">
        <ele>1358.96</ele>
        <time>2019-02-07T11:06:56Z</time>
      </trkpt>
      <trkpt lat="46.28487" lon="6.49083">
        <ele>1358.48</ele>
        <time>2019-02-07T11:06:59Z</time>
      </trkpt>
      <trkpt lat="46.28493" lon="6.49088">
        <ele>1359.44</ele>
        <time>2019-02-07T11:07:07Z</time>
      </trkpt>
      <trkpt lat="46.28499" lon="6.49094">
        <ele>1360.88</ele>
        <time>2019-02-07T11:07:16Z</time>
      </trkpt>
      <trkpt lat="46.28504" lon="6.49097">
        <ele>1360.88</ele>
        <time>2019-02-07T11:07:23Z</time>
      </trkpt>
      <trkpt lat="46.2851" lon="6.49105">
        <ele>1360.88</ele>
        <time>2019-02-07T11:07:36Z</time>
      </trkpt>
      <trkpt lat="46.28513" lon="6.4911">
        <ele>1361.84</ele>
        <time>2019-02-07T11:07:50Z</time>
      </trkpt>
      <trkpt lat="46.28513" lon="6.49112">
        <ele>1360.88</ele>
        <time>2019-02-07T11:08:10Z</time>
      </trkpt>
      <trkpt lat="46.28512" lon="6.49115">
        <ele>1358.96</ele>
        <time>2019-02-07T11:08:23Z</time>
      </trkpt>
      <trkpt lat="46.28517" lon="6.49116">
        <ele>1361.36</ele>
        <time>2019-02-07T11:08:52Z</time>
      </trkpt>
      <trkpt lat="46.28528" lon="6.49125">
        <ele>1362.33</ele>
        <time>2019-02-07T11:09:06Z</time>
      </trkpt>
      <trkpt lat="46.28533" lon="6.4913">
        <ele>1362.33</ele>
        <time>2019-02-07T11:09:14Z</time>
      </trkpt>
      <trkpt lat="46.28534" lon="6.49131">
        <ele>1362.33</ele>
        <time>2019-02-07T11:09:16Z</time>
      </trkpt>
      <trkpt lat="46.28536" lon="6.49133">
        <ele>1362.33</ele>
        <time>2019-02-07T11:09:18Z</time>
      </trkpt>
      <trkpt lat="46.2854" lon="6.49137">
        <ele>1362.33</ele>
        <time>2019-02-07T11:09:23Z</time>
      </trkpt>
      <trkpt lat="46.28548" lon="6.49146">
        <ele>1362.33</ele>
        <time>2019-02-07T11:09:34Z</time>
      </trkpt>
      <trkpt lat="46.28549" lon="6.49148">
        <ele>1362.81</ele>
        <time>2019-02-07T11:09:36Z</time>
      </trkpt>
      <trkpt lat="46.28554" lon="6.49151">
        <ele>1361.84</ele>
        <time>2019-02-07T11:09:41Z</time>
      </trkpt>
      <trkpt lat="46.28557" lon="6.49153">
        <ele>1362.33</ele>
        <time>2019-02-07T11:09:45Z</time>
      </trkpt>
      <trkpt lat="46.28564" lon="6.49162">
        <ele>1362.81</ele>
        <time>2019-02-07T11:09:55Z</time>
      </trkpt>
      <trkpt lat="46.28573" lon="6.49166">
        <ele>1361.84</ele>
        <time>2019-02-07T11:10:07Z</time>
      </trkpt>
      <trkpt lat="46.28585" lon="6.49173">
        <ele>1363.29</ele>
        <time>2019-02-07T11:10:21Z</time>
      </trkpt>
      <trkpt lat="46.2859" lon="6.49175">
        <ele>1362.81</ele>
        <time>2019-02-07T11:10:25Z</time>
      </trkpt>
      <trkpt lat="46.28602" lon="6.49182">
        <ele>1362.33</ele>
        <time>2019-02-07T11:10:37Z</time>
      </trkpt>
      <trkpt lat="46.28608" lon="6.49187">
        <ele>1362.33</ele>
        <time>2019-02-07T11:10:44Z</time>
      </trkpt>
      <trkpt lat="46.28615" lon="6.49182">
        <ele>1362.81</ele>
        <time>2019-02-07T11:10:52Z</time>
      </trkpt>
      <trkpt lat="46.28618" lon="6.49173">
        <ele>1362.33</ele>
        <time>2019-02-07T11:10:59Z</time>
      </trkpt>
      <trkpt lat="46.28618" lon="6.49169">
        <ele>1362.33</ele>
        <time>2019-02-07T11:11:02Z</time>
      </trkpt>
      <trkpt lat="46.28619" lon="6.49165">
        <ele>1362.81</ele>
        <time>2019-02-07T11:11:05Z</time>
      </trkpt>
      <trkpt lat="46.2862" lon="6.49156">
        <ele>1363.29</ele>
        <time>2019-02-07T11:11:11Z</time>
      </trkpt>
      <trkpt lat="46.28619" lon="6.49154">
        <ele>1363.77</ele>
        <time>2019-02-07T11:11:13Z</time>
      </trkpt>
      <trkpt lat="46.28621" lon="6.49138">
        <ele>1365.69</ele>
        <time>2019-02-07T11:11:25Z</time>
      </trkpt>
      <trkpt lat="46.28621" lon="6.49137">
        <ele>1365.69</ele>
        <time>2019-02-07T11:11:26Z</time>
      </trkpt>
      <trkpt lat="46.28623" lon="6.49121">
        <ele>1364.25</ele>
        <time>2019-02-07T11:11:40Z</time>
      </trkpt>
      <trkpt lat="46.28624" lon="6.49111">
        <ele>1365.21</ele>
        <time>2019-02-07T11:11:48Z</time>
      </trkpt>
      <trkpt lat="46.28624" lon="6.49095">
        <ele>1366.65</ele>
        <time>2019-02-07T11:12:00Z</time>
      </trkpt>
      <trkpt lat="46.28625" lon="6.49088">
        <ele>1368.09</ele>
        <time>2019-02-07T11:12:06Z</time>
      </trkpt>
      <trkpt lat="46.28631" lon="6.49083">
        <ele>1369.05</ele>
        <time>2019-02-07T11:12:18Z</time>
      </trkpt>
      <trkpt lat="46.28639" lon="6.49081">
        <ele>1371.46</ele>
        <time>2019-02-07T11:12:31Z</time>
      </trkpt>
      <trkpt lat="46.28643" lon="6.49084">
        <ele>1374.34</ele>
        <time>2019-02-07T11:12:43Z</time>
      </trkpt>
      <trkpt lat="46.28644" lon="6.49087">
        <ele>1374.34</ele>
        <time>2019-02-07T11:12:45Z</time>
      </trkpt>
      <trkpt lat="46.28647" lon="6.49098">
        <ele>1373.38</ele>
        <time>2019-02-07T11:12:57Z</time>
      </trkpt>
      <trkpt lat="46.28644" lon="6.49116">
        <ele>1373.86</ele>
        <time>2019-02-07T11:13:17Z</time>
      </trkpt>
      <trkpt lat="46.28646" lon="6.49115">
        <ele>1373.38</ele>
        <time>2019-02-07T11:13:24Z</time>
      </trkpt>
      <trkpt lat="46.28654" lon="6.49103">
        <ele>1372.42</ele>
        <time>2019-02-07T11:13:41Z</time>
      </trkpt>
      <trkpt lat="46.28653" lon="6.49084">
        <ele>1371.94</ele>
        <time>2019-02-07T11:13:58Z</time>
      </trkpt>
      <trkpt lat="46.28651" lon="6.49085">
        <ele>1374.34</ele>
        <time>2019-02-07T11:14:03Z</time>
      </trkpt>
      <trkpt lat="46.2865" lon="6.49085">
        <ele>1373.38</ele>
        <time>2019-02-07T11:14:28Z</time>
      </trkpt>
      <trkpt lat="46.28649" lon="6.49069">
        <ele>1374.82</ele>
        <time>2019-02-07T11:14:41Z</time>
      </trkpt>
      <trkpt lat="46.28646" lon="6.49077">
        <ele>1376.26</ele>
        <time>2019-02-07T11:14:57Z</time>
      </trkpt>
      <trkpt lat="46.28646" lon="6.49076">
        <ele>1374.34</ele>
        <time>2019-02-07T11:15:06Z</time>
      </trkpt>
      <trkpt lat="46.28648" lon="6.49089">
        <ele>1373.86</ele>
        <time>2019-02-07T11:15:25Z</time>
      </trkpt>
      <trkpt lat="46.28648" lon="6.49087">
        <ele>1375.78</ele>
        <time>2019-02-07T11:15:45Z</time>
      </trkpt>
      <trkpt lat="46.28642" lon="6.49081">
        <ele>1375.3</ele>
        <time>2019-02-07T11:16:10Z</time>
      </trkpt>
      <trkpt lat="46.28641" lon="6.49078">
        <ele>1374.34</ele>
        <time>2019-02-07T11:16:30Z</time>
      </trkpt>
      <trkpt lat="46.28643" lon="6.4908">
        <ele>1375.78</ele>
        <time>2019-02-07T11:16:38Z</time>
      </trkpt>
      <trkpt lat="46.28646" lon="6.49084">
        <ele>1375.3</ele>
        <time>2019-02-07T11:17:00Z</time>
      </trkpt>
      <trkpt lat="46.28647" lon="6.49088">
        <ele>1375.3</ele>
        <time>2019-02-07T11:17:22Z</time>
      </trkpt>
      <trkpt lat="46.28647" lon="6.49101">
        <ele>1374.34</ele>
        <time>2019-02-07T11:17:33Z</time>
      </trkpt>
      <trkpt lat="46.28648" lon="6.49104">
        <ele>1374.34</ele>
        <time>2019-02-07T11:17:35Z</time>
      </trkpt>
      <trkpt lat="46.28649" lon="6.49107">
        <ele>1375.3</ele>
        <time>2019-02-07T11:17:38Z</time>
      </trkpt>
      <trkpt lat="46.28649" lon="6.49113">
        <ele>1373.86</ele>
        <time>2019-02-07T11:17:44Z</time>
      </trkpt>
      <trkpt lat="46.28654" lon="6.49124">
        <ele>1375.3</ele>
        <time>2019-02-07T11:18:03Z</time>
      </trkpt>
      <trkpt lat="46.28653" lon="6.49117">
        <ele>1374.82</ele>
        <time>2019-02-07T11:18:12Z</time>
      </trkpt>
      <trkpt lat="46.28654" lon="6.49104">
        <ele>1373.86</ele>
        <time>2019-02-07T11:18:35Z</time>
      </trkpt>
      <trkpt lat="46.28654" lon="6.49104">
        <ele>1375.3</ele>
        <time>2019-02-07T11:18:40Z</time>
      </trkpt>
      <trkpt lat="46.28653" lon="6.49082">
        <ele>1374.82</ele>
        <time>2019-02-07T11:19:05Z</time>
      </trkpt>
      <trkpt lat="46.28655" lon="6.49078">
        <ele>1374.34</ele>
        <time>2019-02-07T11:19:29Z</time>
      </trkpt>
      <trkpt lat="46.28655" lon="6.49078">
        <ele>1375.3</ele>
        <time>2019-02-07T11:19:56Z</time>
      </trkpt>
      <trkpt lat="46.28657" lon="6.49077">
        <ele>1374.82</ele>
        <time>2019-02-07T11:20:20Z</time>
      </trkpt>
      <trkpt lat="46.28655" lon="6.49078">
        <ele>1376.26</ele>
        <time>2019-02-07T11:20:39Z</time>
      </trkpt>
      <trkpt lat="46.28652" lon="6.49077">
        <ele>1372.9</ele>
        <time>2019-02-07T11:20:50Z</time>
      </trkpt>
      <trkpt lat="46.2865" lon="6.49078">
        <ele>1374.34</ele>
        <time>2019-02-07T11:21:12Z</time>
      </trkpt>
      <trkpt lat="46.28651" lon="6.49075">
        <ele>1373.86</ele>
        <time>2019-02-07T11:21:39Z</time>
      </trkpt>
      <trkpt lat="46.2865" lon="6.49075">
        <ele>1373.86</ele>
        <time>2019-02-07T11:22:04Z</time>
      </trkpt>
      <trkpt lat="46.28649" lon="6.49079">
        <ele>1374.34</ele>
        <time>2019-02-07T11:22:32Z</time>
      </trkpt>
      <trkpt lat="46.28651" lon="6.49074">
        <ele>1374.34</ele>
        <time>2019-02-07T11:22:53Z</time>
      </trkpt>
      <trkpt lat="46.2865" lon="6.49081">
        <ele>1373.38</ele>
        <time>2019-02-07T11:23:42Z</time>
      </trkpt>
      <trkpt lat="46.2865" lon="6.4908">
        <ele>1373.38</ele>
        <time>2019-02-07T11:24:25Z</time>
      </trkpt>
      <trkpt lat="46.28649" lon="6.49076">
        <ele>1373.38</ele>
        <time>2019-02-07T11:25:17Z</time>
      </trkpt>
      <trkpt lat="46.28649" lon="6.49076">
        <ele>1374.34</ele>
        <time>2019-02-07T11:25:42Z</time>
      </trkpt>
      <trkpt lat="46.28651" lon="6.49073">
        <ele>1374.82</ele>
        <time>2019-02-07T11:26:07Z</time>
      </trkpt>
      <trkpt lat="46.28655" lon="6.49076">
        <ele>1374.82</ele>
        <time>2019-02-07T11:26:34Z</time>
      </trkpt>
      <trkpt lat="46.28651" lon="6.49072">
        <ele>1374.82</ele>
        <time>2019-02-07T11:26:54Z</time>
      </trkpt>
      <trkpt lat="46.28651" lon="6.4907">
        <ele>1375.3</ele>
        <time>2019-02-07T11:27:16Z</time>
      </trkpt>
      <trkpt lat="46.28655" lon="6.49072">
        <ele>1373.86</ele>
        <time>2019-02-07T11:27:39Z</time>
      </trkpt>
      <trkpt lat="46.28656" lon="6.49072">
        <ele>1374.34</ele>
        <time>2019-02-07T11:28:09Z</time>
      </trkpt>
      <trkpt lat="46.28656" lon="6.49072">
        <ele>1373.86</ele>
        <time>2019-02-07T11:28:51Z</time>
      </trkpt>
      <trkpt lat="46.2865" lon="6.49073">
        <ele>1372.9</ele>
        <time>2019-02-07T11:30:00Z</time>
      </trkpt>
      <trkpt lat="46.28648" lon="6.49079">
        <ele>1373.86</ele>
        <time>2019-02-07T11:30:31Z</time>
      </trkpt>
      <trkpt lat="46.28652" lon="6.49084">
        <ele>1372.9</ele>
        <time>2019-02-07T11:31:00Z</time>
      </trkpt>
      <trkpt lat="46.28653" lon="6.49079">
        <ele>1373.38</ele>
        <time>2019-02-07T11:31:28Z</time>
      </trkpt>
      <trkpt lat="46.28654" lon="6.49077">
        <ele>1372.42</ele>
        <time>2019-02-07T11:31:34Z</time>
      </trkpt>
      <trkpt lat="46.28653" lon="6.4908">
        <ele>1373.38</ele>
        <time>2019-02-07T11:31:57Z</time>
      </trkpt>
      <trkpt lat="46.28653" lon="6.4908">
        <ele>1371.94</ele>
        <time>2019-02-07T11:32:04Z</time>
      </trkpt>
      <trkpt lat="46.28652" lon="6.49082">
        <ele>1370.98</ele>
        <time>2019-02-07T11:32:26Z</time>
      </trkpt>
      <trkpt lat="46.28649" lon="6.49082">
        <ele>1373.86</ele>
        <time>2019-02-07T11:32:33Z</time>
      </trkpt>
      <trkpt lat="46.28651" lon="6.49084">
        <ele>1373.38</ele>
        <time>2019-02-07T11:32:55Z</time>
      </trkpt>
      <trkpt lat="46.28648" lon="6.49074">
        <ele>1372.9</ele>
        <time>2019-02-07T11:33:16Z</time>
      </trkpt>
      <trkpt lat="46.28648" lon="6.49073">
        <ele>1372.42</ele>
        <time>2019-02-07T11:33:40Z</time>
      </trkpt>
      <trkpt lat="46.28648" lon="6.49072">
        <ele>1373.38</ele>
        <time>2019-02-07T11:34:12Z</time>
      </trkpt>
      <trkpt lat="46.28648" lon="6.49072">
        <ele>1370.98</ele>
        <time>2019-02-07T11:34:54Z</time>
      </trkpt>
      <trkpt lat="46.28648" lon="6.49072">
        <ele>1371.94</ele>
        <time>2019-02-07T11:35:07Z</time>
      </trkpt>
      <trkpt lat="46.28649" lon="6.49073">
        <ele>1369.05</ele>
        <time>2019-02-07T11:35:25Z</time>
      </trkpt>
      <trkpt lat="46.28651" lon="6.49087">
        <ele>1372.42</ele>
        <time>2019-02-07T11:35:43Z</time>
      </trkpt>
      <trkpt lat="46.2865" lon="6.49092">
        <ele>1373.86</ele>
        <time>2019-02-07T11:36:09Z</time>
      </trkpt>
      <trkpt lat="46.28651" lon="6.4909">
        <ele>1373.38</ele>
        <time>2019-02-07T11:36:31Z</time>
      </trkpt>
      <trkpt lat="46.28651" lon="6.4909">
        <ele>1369.54</ele>
        <time>2019-02-07T11:36:39Z</time>
      </trkpt>
      <trkpt lat="46.28651" lon="6.4909">
        <ele>1372.9</ele>
        <time>2019-02-07T11:36:42Z</time>
      </trkpt>
      <trkpt lat="46.2865" lon="6.49087">
        <ele>1372.42</ele>
        <time>2019-02-07T11:37:04Z</time>
      </trkpt>
      <trkpt lat="46.2865" lon="6.49087">
        <ele>1371.94</ele>
        <time>2019-02-07T11:37:17Z</time>
      </trkpt>
      <trkpt lat="46.28649" lon="6.49084">
        <ele>1371.94</ele>
        <time>2019-02-07T11:38:08Z</time>
      </trkpt>
      <trkpt lat="46.2865" lon="6.49083">
        <ele>1371.46</ele>
        <time>2019-02-07T11:38:47Z</time>
      </trkpt>
      <trkpt lat="46.28648" lon="6.4908">
        <ele>1369.54</ele>
        <time>2019-02-07T11:39:15Z</time>
      </trkpt>
      <trkpt lat="46.28648" lon="6.4908">
        <ele>1371.46</ele>
        <time>2019-02-07T11:39:20Z</time>
      </trkpt>
      <trkpt lat="46.2865" lon="6.49074">
        <ele>1371.94</ele>
        <time>2019-02-07T11:39:42Z</time>
      </trkpt>
      <trkpt lat="46.28648" lon="6.49065">
        <ele>1372.42</ele>
        <time>2019-02-07T11:40:04Z</time>
      </trkpt>
      <trkpt lat="46.28648" lon="6.49072">
        <ele>1373.38</ele>
        <time>2019-02-07T11:40:55Z</time>
      </trkpt>
      <trkpt lat="46.28648" lon="6.49072">
        <ele>1370.5</ele>
        <time>2019-02-07T11:41:14Z</time>
      </trkpt>
      <trkpt lat="46.28648" lon="6.49073">
        <ele>1373.86</ele>
        <time>2019-02-07T11:41:49Z</time>
      </trkpt>
      <trkpt lat="46.28647" lon="6.49074">
        <ele>1370.5</ele>
        <time>2019-02-07T11:42:39Z</time>
      </trkpt>
      <trkpt lat="46.28647" lon="6.49074">
        <ele>1371.94</ele>
        <time>2019-02-07T11:42:56Z</time>
      </trkpt>
      <trkpt lat="46.28647" lon="6.49075">
        <ele>1372.9</ele>
        <time>2019-02-07T11:44:38Z</time>
      </trkpt>
      <trkpt lat="46.28647" lon="6.49076">
        <ele>1372.42</ele>
        <time>2019-02-07T11:44:58Z</time>
      </trkpt>
      <trkpt lat="46.28647" lon="6.49076">
        <ele>1372.9</ele>
        <time>2019-02-07T11:45:26Z</time>
      </trkpt>
      <trkpt lat="46.28647" lon="6.49076">
        <ele>1371.94</ele>
        <time>2019-02-07T11:45:58Z</time>
      </trkpt>
      <trkpt lat="46.28647" lon="6.49082">
        <ele>1373.38</ele>
        <time>2019-02-07T11:46:03Z</time>
      </trkpt>
      <trkpt lat="46.28646" lon="6.49084">
        <ele>1372.42</ele>
        <time>2019-02-07T11:46:27Z</time>
      </trkpt>
      <trkpt lat="46.28639" lon="6.49078">
        <ele>1371.94</ele>
        <time>2019-02-07T11:46:52Z</time>
      </trkpt>
      <trkpt lat="46.28635" lon="6.49083">
        <ele>1372.9</ele>
        <time>2019-02-07T11:47:12Z</time>
      </trkpt>
      <trkpt lat="46.28636" lon="6.49086">
        <ele>1372.9</ele>
        <time>2019-02-07T11:47:34Z</time>
      </trkpt>
      <trkpt lat="46.28642" lon="6.49087">
        <ele>1371.94</ele>
        <time>2019-02-07T11:48:05Z</time>
      </trkpt>
      <trkpt lat="46.28643" lon="6.49088">
        <ele>1372.9</ele>
        <time>2019-02-07T11:48:16Z</time>
      </trkpt>
      <trkpt lat="46.28649" lon="6.49088">
        <ele>1372.9</ele>
        <time>2019-02-07T11:49:39Z</time>
      </trkpt>
      <trkpt lat="46.28648" lon="6.49095">
        <ele>1373.38</ele>
        <time>2019-02-07T11:50:03Z</time>
      </trkpt>
      <trkpt lat="46.2865" lon="6.49099">
        <ele>1372.9</ele>
        <time>2019-02-07T11:50:47Z</time>
      </trkpt>
      <trkpt lat="46.28649" lon="6.49099">
        <ele>1374.34</ele>
        <time>2019-02-07T11:51:06Z</time>
      </trkpt>
      <trkpt lat="46.28652" lon="6.491">
        <ele>1373.86</ele>
        <time>2019-02-07T11:51:36Z</time>
      </trkpt>
      <trkpt lat="46.28649" lon="6.49099">
        <ele>1372.9</ele>
        <time>2019-02-07T11:52:04Z</time>
      </trkpt>
      <trkpt lat="46.28649" lon="6.49099">
        <ele>1372.9</ele>
        <time>2019-02-07T11:52:43Z</time>
      </trkpt>
      <trkpt lat="46.28648" lon="6.49099">
        <ele>1372.42</ele>
        <time>2019-02-07T11:53:08Z</time>
      </trkpt>
      <trkpt lat="46.28654" lon="6.49103">
        <ele>1372.9</ele>
        <time>2019-02-07T11:53:28Z</time>
      </trkpt>
      <trkpt lat="46.28653" lon="6.49102">
        <ele>1373.38</ele>
        <time>2019-02-07T11:53:50Z</time>
      </trkpt>
      <trkpt lat="46.2865" lon="6.49101">
        <ele>1374.34</ele>
        <time>2019-02-07T11:54:13Z</time>
      </trkpt>
      <trkpt lat="46.28649" lon="6.49101">
        <ele>1374.34</ele>
        <time>2019-02-07T11:54:50Z</time>
      </trkpt>
      <trkpt lat="46.28649" lon="6.49101">
        <ele>1373.86</ele>
        <time>2019-02-07T11:55:24Z</time>
      </trkpt>
      <trkpt lat="46.2865" lon="6.49101">
        <ele>1373.86</ele>
        <time>2019-02-07T11:55:58Z</time>
      </trkpt>
      <trkpt lat="46.2865" lon="6.49101">
        <ele>1372.9</ele>
        <time>2019-02-07T11:56:39Z</time>
      </trkpt>
      <trkpt lat="46.2865" lon="6.49101">
        <ele>1373.38</ele>
        <time>2019-02-07T11:57:16Z</time>
      </trkpt>
      <trkpt lat="46.28652" lon="6.49103">
        <ele>1372.42</ele>
        <time>2019-02-07T11:57:36Z</time>
      </trkpt>
      <trkpt lat="46.28652" lon="6.49103">
        <ele>1372.42</ele>
        <time>2019-02-07T11:57:53Z</time>
      </trkpt>
      <trkpt lat="46.28652" lon="6.49103">
        <ele>1372.9</ele>
        <time>2019-02-07T11:58:11Z</time>
      </trkpt>
      <trkpt lat="46.28649" lon="6.49099">
        <ele>1372.42</ele>
        <time>2019-02-07T11:58:40Z</time>
      </trkpt>
      <trkpt lat="46.2865" lon="6.49097">
        <ele>1375.3</ele>
        <time>2019-02-07T11:58:45Z</time>
      </trkpt>
      <trkpt lat="46.28655" lon="6.49096">
        <ele>1373.86</ele>
        <time>2019-02-07T11:58:53Z</time>
      </trkpt>
      <trkpt lat="46.28658" lon="6.49094">
        <ele>1374.34</ele>
        <time>2019-02-07T11:59:04Z</time>
      </trkpt>
      <trkpt lat="46.28662" lon="6.4909">
        <ele>1374.82</ele>
        <time>2019-02-07T11:59:16Z</time>
      </trkpt>
      <trkpt lat="46.28667" lon="6.49096">
        <ele>1377.71</ele>
        <time>2019-02-07T11:59:27Z</time>
      </trkpt>
      <trkpt lat="46.28674" lon="6.491">
        <ele>1379.15</ele>
        <time>2019-02-07T11:59:37Z</time>
      </trkpt>
      <trkpt lat="46.28675" lon="6.491">
        <ele>1378.67</ele>
        <time>2019-02-07T11:59:38Z</time>
      </trkpt>
      <trkpt lat="46.28683" lon="6.49106">
        <ele>1380.11</ele>
        <time>2019-02-07T11:59:50Z</time>
      </trkpt>
      <trkpt lat="46.2869" lon="6.49116">
        <ele>1380.59</ele>
        <time>2019-02-07T12:00:05Z</time>
      </trkpt>
      <trkpt lat="46.28694" lon="6.49123">
        <ele>1382.03</ele>
        <time>2019-02-07T12:00:15Z</time>
      </trkpt>
      <trkpt lat="46.28703" lon="6.49135">
        <ele>1382.99</ele>
        <time>2019-02-07T12:00:28Z</time>
      </trkpt>
      <trkpt lat="46.28709" lon="6.49144">
        <ele>1381.55</ele>
        <time>2019-02-07T12:00:40Z</time>
      </trkpt>
      <trkpt lat="46.28714" lon="6.49153">
        <ele>1381.07</ele>
        <time>2019-02-07T12:00:50Z</time>
      </trkpt>
      <trkpt lat="46.28716" lon="6.49159">
        <ele>1382.51</ele>
        <time>2019-02-07T12:00:59Z</time>
      </trkpt>
      <trkpt lat="46.28721" lon="6.49167">
        <ele>1381.55</ele>
        <time>2019-02-07T12:01:06Z</time>
      </trkpt>
      <trkpt lat="46.28726" lon="6.49172">
        <ele>1382.51</ele>
        <time>2019-02-07T12:01:13Z</time>
      </trkpt>
      <trkpt lat="46.28732" lon="6.49182">
        <ele>1381.07</ele>
        <time>2019-02-07T12:01:25Z</time>
      </trkpt>
      <trkpt lat="46.28741" lon="6.49193">
        <ele>1382.51</ele>
        <time>2019-02-07T12:01:38Z</time>
      </trkpt>
      <trkpt lat="46.28743" lon="6.49197">
        <ele>1383.96</ele>
        <time>2019-02-07T12:01:44Z</time>
      </trkpt>
      <trkpt lat="46.28744" lon="6.49199">
        <ele>1383.47</ele>
        <time>2019-02-07T12:01:46Z</time>
      </trkpt>
      <trkpt lat="46.28748" lon="6.49209">
        <ele>1381.55</ele>
        <time>2019-02-07T12:01:57Z</time>
      </trkpt>
      <trkpt lat="46.28756" lon="6.49219">
        <ele>1380.11</ele>
        <time>2019-02-07T12:02:11Z</time>
      </trkpt>
      <trkpt lat="46.2876" lon="6.49227">
        <ele>1378.67</ele>
        <time>2019-02-07T12:02:19Z</time>
      </trkpt>
      <trkpt lat="46.28765" lon="6.49233">
        <ele>1382.51</ele>
        <time>2019-02-07T12:02:25Z</time>
      </trkpt>
      <trkpt lat="46.28766" lon="6.49235">
        <ele>1381.55</ele>
        <time>2019-02-07T12:02:27Z</time>
      </trkpt>
      <trkpt lat="46.28774" lon="6.49244">
        <ele>1379.63</ele>
        <time>2019-02-07T12:02:39Z</time>
      </trkpt>
      <trkpt lat="46.28776" lon="6.49246">
        <ele>1376.26</ele>
        <time>2019-02-07T12:02:45Z</time>
      </trkpt>
      <trkpt lat="46.28778" lon="6.49248">
        <ele>1375.78</ele>
        <time>2019-02-07T12:02:47Z</time>
      </trkpt>
      <trkpt lat="46.28782" lon="6.49252">
        <ele>1373.86</ele>
        <time>2019-02-07T12:02:54Z</time>
      </trkpt>
      <trkpt lat="46.28784" lon="6.49257">
        <ele>1373.38</ele>
        <time>2019-02-07T12:03:06Z</time>
      </trkpt>
      <trkpt lat="46.28785" lon="6.49257">
        <ele>1372.42</ele>
        <time>2019-02-07T12:03:40Z</time>
      </trkpt>
      <trkpt lat="46.2879" lon="6.49262">
        <ele>1371.46</ele>
        <time>2019-02-07T12:03:53Z</time>
      </trkpt>
      <trkpt lat="46.28794" lon="6.49264">
        <ele>1371.46</ele>
        <time>2019-02-07T12:04:03Z</time>
      </trkpt>
      <trkpt lat="46.28795" lon="6.49266">
        <ele>1370.5</ele>
        <time>2019-02-07T12:04:05Z</time>
      </trkpt>
      <trkpt lat="46.28797" lon="6.49273">
        <ele>1369.05</ele>
        <time>2019-02-07T12:04:14Z</time>
      </trkpt>
      <trkpt lat="46.28796" lon="6.49275">
        <ele>1367.61</ele>
        <time>2019-02-07T12:04:16Z</time>
      </trkpt>
      <trkpt lat="46.28794" lon="6.49275">
        <ele>1365.69</ele>
        <time>2019-02-07T12:04:21Z</time>
      </trkpt>
      <trkpt lat="46.28794" lon="6.49277">
        <ele>1365.21</ele>
        <time>2019-02-07T12:04:26Z</time>
      </trkpt>
      <trkpt lat="46.28793" lon="6.49277">
        <ele>1364.25</ele>
        <time>2019-02-07T12:04:28Z</time>
      </trkpt>
      <trkpt lat="46.28791" lon="6.49277">
        <ele>1365.69</ele>
        <time>2019-02-07T12:04:30Z</time>
      </trkpt>
      <trkpt lat="46.28789" lon="6.49279">
        <ele>1367.13</ele>
        <time>2019-02-07T12:04:43Z</time>
      </trkpt>
      <trkpt lat="46.28789" lon="6.4928">
        <ele>1366.17</ele>
        <time>2019-02-07T12:05:30Z</time>
      </trkpt>
      <trkpt lat="46.28789" lon="6.4928">
        <ele>1366.17</ele>
        <time>2019-02-07T12:05:51Z</time>
      </trkpt>
      <trkpt lat="46.28788" lon="6.49284">
        <ele>1366.17</ele>
        <time>2019-02-07T12:07:38Z</time>
      </trkpt>
      <trkpt lat="46.28788" lon="6.49287">
        <ele>1365.69</ele>
        <time>2019-02-07T12:07:42Z</time>
      </trkpt>
      <trkpt lat="46.28788" lon="6.49296">
        <ele>1366.17</ele>
        <time>2019-02-07T12:07:53Z</time>
      </trkpt>
      <trkpt lat="46.28787" lon="6.49304">
        <ele>1365.21</ele>
        <time>2019-02-07T12:07:59Z</time>
      </trkpt>
      <trkpt lat="46.28786" lon="6.49314">
        <ele>1362.81</ele>
        <time>2019-02-07T12:08:09Z</time>
      </trkpt>
      <trkpt lat="46.28785" lon="6.49326">
        <ele>1359.44</ele>
        <time>2019-02-07T12:08:20Z</time>
      </trkpt>
      <trkpt lat="46.28784" lon="6.4933">
        <ele>1358.96</ele>
        <time>2019-02-07T12:08:24Z</time>
      </trkpt>
      <trkpt lat="46.28779" lon="6.4934">
        <ele>1357.52</ele>
        <time>2019-02-07T12:08:36Z</time>
      </trkpt>
      <trkpt lat="46.28778" lon="6.49345">
        <ele>1354.15</ele>
        <time>2019-02-07T12:08:44Z</time>
      </trkpt>
      <trkpt lat="46.28777" lon="6.49348">
        <ele>1352.23</ele>
        <time>2019-02-07T12:08:54Z</time>
      </trkpt>
      <trkpt lat="46.28784" lon="6.49357">
        <ele>1350.31</ele>
        <time>2019-02-07T12:09:05Z</time>
      </trkpt>
      <trkpt lat="46.28784" lon="6.49359">
        <ele>1350.31</ele>
        <time>2019-02-07T12:09:07Z</time>
      </trkpt>
      <trkpt lat="46.28785" lon="6.4936">
        <ele>1350.31</ele>
        <time>2019-02-07T12:09:08Z</time>
      </trkpt>
      <trkpt lat="46.28795" lon="6.49366">
        <ele>1349.83</ele>
        <time>2019-02-07T12:09:20Z</time>
      </trkpt>
      <trkpt lat="46.288" lon="6.49373">
        <ele>1348.39</ele>
        <time>2019-02-07T12:09:32Z</time>
      </trkpt>
      <trkpt lat="46.28803" lon="6.49377">
        <ele>1347.91</ele>
        <time>2019-02-07T12:09:37Z</time>
      </trkpt>
      <trkpt lat="46.28807" lon="6.49384">
        <ele>1346.94</ele>
        <time>2019-02-07T12:09:43Z</time>
      </trkpt>
      <trkpt lat="46.28808" lon="6.49386">
        <ele>1346.46</ele>
        <time>2019-02-07T12:09:45Z</time>
      </trkpt>
      <trkpt lat="46.2881" lon="6.49391">
        <ele>1346.46</ele>
        <time>2019-02-07T12:09:48Z</time>
      </trkpt>
      <trkpt lat="46.28812" lon="6.49394">
        <ele>1346.46</ele>
        <time>2019-02-07T12:09:51Z</time>
      </trkpt>
      <trkpt lat="46.28817" lon="6.49406">
        <ele>1345.02</ele>
        <time>2019-02-07T12:10:00Z</time>
      </trkpt>
      <trkpt lat="46.28823" lon="6.49418">
        <ele>1345.5</ele>
        <time>2019-02-07T12:10:12Z</time>
      </trkpt>
      <trkpt lat="46.28828" lon="6.49428">
        <ele>1343.58</ele>
        <time>2019-02-07T12:10:22Z</time>
      </trkpt>
      <trkpt lat="46.28834" lon="6.4944">
        <ele>1341.66</ele>
        <time>2019-02-07T12:10:33Z</time>
      </trkpt>
      <trkpt lat="46.28838" lon="6.49449">
        <ele>1340.7</ele>
        <time>2019-02-07T12:10:43Z</time>
      </trkpt>
      <trkpt lat="46.28839" lon="6.49451">
        <ele>1340.7</ele>
        <time>2019-02-07T12:10:45Z</time>
      </trkpt>
      <trkpt lat="46.28845" lon="6.49462">
        <ele>1339.73</ele>
        <time>2019-02-07T12:10:57Z</time>
      </trkpt>
      <trkpt lat="46.28849" lon="6.49474">
        <ele>1337.81</ele>
        <time>2019-02-07T12:11:10Z</time>
      </trkpt>
      <trkpt lat="46.28853" lon="6.49485">
        <ele>1336.85</ele>
        <time>2019-02-07T12:11:24Z</time>
      </trkpt>
      <trkpt lat="46.28856" lon="6.4949">
        <ele>1336.37</ele>
        <time>2019-02-07T12:11:37Z</time>
      </trkpt>
      <trkpt lat="46.28863" lon="6.495">
        <ele>1334.93</ele>
        <time>2019-02-07T12:11:50Z</time>
      </trkpt>
      <trkpt lat="46.28868" lon="6.49503">
        <ele>1334.93</ele>
        <time>2019-02-07T12:12:06Z</time>
      </trkpt>
      <trkpt lat="46.28871" lon="6.49504">
        <ele>1334.45</ele>
        <time>2019-02-07T12:12:35Z</time>
      </trkpt>
      <trkpt lat="46.28883" lon="6.49512">
        <ele>1332.52</ele>
        <time>2019-02-07T12:12:48Z</time>
      </trkpt>
      <trkpt lat="46.28886" lon="6.49517">
        <ele>1331.08</ele>
        <time>2019-02-07T12:13:00Z</time>
      </trkpt>
      <trkpt lat="46.28896" lon="6.49527">
        <ele>1329.16</ele>
        <time>2019-02-07T12:13:12Z</time>
      </trkpt>
      <trkpt lat="46.28906" lon="6.49537">
        <ele>1327.72</ele>
        <time>2019-02-07T12:13:23Z</time>
      </trkpt>
      <trkpt lat="46.28909" lon="6.49544">
        <ele>1327.24</ele>
        <time>2019-02-07T12:13:28Z</time>
      </trkpt>
      <trkpt lat="46.28912" lon="6.49553">
        <ele>1326.76</ele>
        <time>2019-02-07T12:13:35Z</time>
      </trkpt>
      <trkpt lat="46.28914" lon="6.49555">
        <ele>1325.31</ele>
        <time>2019-02-07T12:13:37Z</time>
      </trkpt>
      <trkpt lat="46.28914" lon="6.49556">
        <ele>1326.76</ele>
        <time>2019-02-07T12:13:38Z</time>
      </trkpt>
      <trkpt lat="46.28921" lon="6.49566">
        <ele>1325.31</ele>
        <time>2019-02-07T12:13:47Z</time>
      </trkpt>
      <trkpt lat="46.28928" lon="6.49581">
        <ele>1323.87</ele>
        <time>2019-02-07T12:14:00Z</time>
      </trkpt>
      <trkpt lat="46.28932" lon="6.49589">
        <ele>1322.43</ele>
        <time>2019-02-07T12:14:11Z</time>
      </trkpt>
      <trkpt lat="46.28937" lon="6.496">
        <ele>1320.99</ele>
        <time>2019-02-07T12:14:24Z</time>
      </trkpt>
      <trkpt lat="46.2894" lon="6.49609">
        <ele>1319.07</ele>
        <time>2019-02-07T12:14:37Z</time>
      </trkpt>
      <trkpt lat="46.28947" lon="6.49622">
        <ele>1317.14</ele>
        <time>2019-02-07T12:14:50Z</time>
      </trkpt>
      <trkpt lat="46.28948" lon="6.49623">
        <ele>1317.14</ele>
        <time>2019-02-07T12:14:51Z</time>
      </trkpt>
      <trkpt lat="46.28953" lon="6.49634">
        <ele>1316.66</ele>
        <time>2019-02-07T12:15:04Z</time>
      </trkpt>
      <trkpt lat="46.2896" lon="6.49644">
        <ele>1313.78</ele>
        <time>2019-02-07T12:15:18Z</time>
      </trkpt>
      <trkpt lat="46.28968" lon="6.49653">
        <ele>1310.9</ele>
        <time>2019-02-07T12:15:30Z</time>
      </trkpt>
      <trkpt lat="46.28975" lon="6.49666">
        <ele>1308.49</ele>
        <time>2019-02-07T12:15:44Z</time>
      </trkpt>
      <trkpt lat="46.28977" lon="6.49678">
        <ele>1308.97</ele>
        <time>2019-02-07T12:15:56Z</time>
      </trkpt>
      <trkpt lat="46.28975" lon="6.49689">
        <ele>1306.57</ele>
        <time>2019-02-07T12:16:08Z</time>
      </trkpt>
      <trkpt lat="46.28974" lon="6.49698">
        <ele>1306.57</ele>
        <time>2019-02-07T12:16:16Z</time>
      </trkpt>
      <trkpt lat="46.28973" lon="6.49714">
        <ele>1305.61</ele>
        <time>2019-02-07T12:16:30Z</time>
      </trkpt>
      <trkpt lat="46.28974" lon="6.49719">
        <ele>1305.13</ele>
        <time>2019-02-07T12:16:42Z</time>
      </trkpt>
      <trkpt lat="46.28974" lon="6.49732">
        <ele>1302.72</ele>
        <time>2019-02-07T12:16:55Z</time>
      </trkpt>
      <trkpt lat="46.28974" lon="6.4975">
        <ele>1301.76</ele>
        <time>2019-02-07T12:17:10Z</time>
      </trkpt>
      <trkpt lat="46.28971" lon="6.49765">
        <ele>1300.8</ele>
        <time>2019-02-07T12:17:24Z</time>
      </trkpt>
      <trkpt lat="46.28983" lon="6.49783">
        <ele>1300.32</ele>
        <time>2019-02-07T12:17:38Z</time>
      </trkpt>
      <trkpt lat="46.28984" lon="6.49802">
        <ele>1298.4</ele>
        <time>2019-02-07T12:17:54Z</time>
      </trkpt>
      <trkpt lat="46.2899" lon="6.49823">
        <ele>1297.44</ele>
        <time>2019-02-07T12:18:08Z</time>
      </trkpt>
      <trkpt lat="46.28997" lon="6.49835">
        <ele>1296.48</ele>
        <time>2019-02-07T12:18:22Z</time>
      </trkpt>
      <trkpt lat="46.28999" lon="6.49845">
        <ele>1296.48</ele>
        <time>2019-02-07T12:18:34Z</time>
      </trkpt>
      <trkpt lat="46.29004" lon="6.49859">
        <ele>1295.99</ele>
        <time>2019-02-07T12:18:48Z</time>
      </trkpt>
      <trkpt lat="46.29005" lon="6.49861">
        <ele>1295.99</ele>
        <time>2019-02-07T12:18:50Z</time>
      </trkpt>
      <trkpt lat="46.29016" lon="6.49873">
        <ele>1295.51</ele>
        <time>2019-02-07T12:19:03Z</time>
      </trkpt>
      <trkpt lat="46.29018" lon="6.49878">
        <ele>1292.63</ele>
        <time>2019-02-07T12:19:16Z</time>
      </trkpt>
      <trkpt lat="46.29022" lon="6.49891">
        <ele>1290.71</ele>
        <time>2019-02-07T12:19:29Z</time>
      </trkpt>
      <trkpt lat="46.29024" lon="6.49909">
        <ele>1288.78</ele>
        <time>2019-02-07T12:19:43Z</time>
      </trkpt>
      <trkpt lat="46.29021" lon="6.49922">
        <ele>1286.86</ele>
        <time>2019-02-07T12:19:55Z</time>
      </trkpt>
      <trkpt lat="46.29019" lon="6.49925">
        <ele>1285.42</ele>
        <time>2019-02-07T12:20:00Z</time>
      </trkpt>
      <trkpt lat="46.29013" lon="6.49931">
        <ele>1283.5</ele>
        <time>2019-02-07T12:20:15Z</time>
      </trkpt>
      <trkpt lat="46.29021" lon="6.49953">
        <ele>1281.57</ele>
        <time>2019-02-07T12:20:27Z</time>
      </trkpt>
      <trkpt lat="46.29029" lon="6.49973">
        <ele>1279.65</ele>
        <time>2019-02-07T12:20:43Z</time>
      </trkpt>
      <trkpt lat="46.29035" lon="6.49982">
        <ele>1278.21</ele>
        <time>2019-02-07T12:20:55Z</time>
      </trkpt>
      <trkpt lat="46.29036" lon="6.49982">
        <ele>1278.21</ele>
        <time>2019-02-07T12:20:56Z</time>
      </trkpt>
      <trkpt lat="46.2904" lon="6.49996">
        <ele>1276.77</ele>
        <time>2019-02-07T12:21:09Z</time>
      </trkpt>
      <trkpt lat="46.29044" lon="6.49999">
        <ele>1276.29</ele>
        <time>2019-02-07T12:21:14Z</time>
      </trkpt>
      <trkpt lat="46.29051" lon="6.5001">
        <ele>1274.36</ele>
        <time>2019-02-07T12:21:27Z</time>
      </trkpt>
      <trkpt lat="46.29062" lon="6.50025">
        <ele>1272.44</ele>
        <time>2019-02-07T12:21:43Z</time>
      </trkpt>
      <trkpt lat="46.29071" lon="6.50036">
        <ele>1271</ele>
        <time>2019-02-07T12:21:56Z</time>
      </trkpt>
      <trkpt lat="46.29078" lon="6.50047">
        <ele>1269.08</ele>
        <time>2019-02-07T12:22:09Z</time>
      </trkpt>
      <trkpt lat="46.29082" lon="6.50059">
        <ele>1268.12</ele>
        <time>2019-02-07T12:22:21Z</time>
      </trkpt>
      <trkpt lat="46.29083" lon="6.50063">
        <ele>1267.64</ele>
        <time>2019-02-07T12:22:25Z</time>
      </trkpt>
      <trkpt lat="46.2909" lon="6.50075">
        <ele>1266.19</ele>
        <time>2019-02-07T12:22:40Z</time>
      </trkpt>
      <trkpt lat="46.291" lon="6.50082">
        <ele>1263.31</ele>
        <time>2019-02-07T12:22:52Z</time>
      </trkpt>
      <trkpt lat="46.29105" lon="6.5009">
        <ele>1262.83</ele>
        <time>2019-02-07T12:23:06Z</time>
      </trkpt>
      <trkpt lat="46.29111" lon="6.50097">
        <ele>1261.87</ele>
        <time>2019-02-07T12:23:18Z</time>
      </trkpt>
      <trkpt lat="46.29119" lon="6.50106">
        <ele>1260.91</ele>
        <time>2019-02-07T12:23:32Z</time>
      </trkpt>
      <trkpt lat="46.29127" lon="6.50114">
        <ele>1259.94</ele>
        <time>2019-02-07T12:23:43Z</time>
      </trkpt>
      <trkpt lat="46.29139" lon="6.50122">
        <ele>1259.46</ele>
        <time>2019-02-07T12:23:56Z</time>
      </trkpt>
      <trkpt lat="46.29147" lon="6.50131">
        <ele>1258.98</ele>
        <time>2019-02-07T12:24:10Z</time>
      </trkpt>
      <trkpt lat="46.29148" lon="6.50133">
        <ele>1258.5</ele>
        <time>2019-02-07T12:24:11Z</time>
      </trkpt>
      <trkpt lat="46.29147" lon="6.50145">
        <ele>1257.54</ele>
        <time>2019-02-07T12:24:21Z</time>
      </trkpt>
      <trkpt lat="46.29145" lon="6.5015">
        <ele>1257.06</ele>
        <time>2019-02-07T12:24:24Z</time>
      </trkpt>
      <trkpt lat="46.29139" lon="6.5016">
        <ele>1254.18</ele>
        <time>2019-02-07T12:24:35Z</time>
      </trkpt>
      <trkpt lat="46.29133" lon="6.50163">
        <ele>1253.22</ele>
        <time>2019-02-07T12:24:42Z</time>
      </trkpt>
      <trkpt lat="46.2913" lon="6.50163">
        <ele>1252.25</ele>
        <time>2019-02-07T12:24:44Z</time>
      </trkpt>
      <trkpt lat="46.2912" lon="6.50155">
        <ele>1251.29</ele>
        <time>2019-02-07T12:24:56Z</time>
      </trkpt>
      <trkpt lat="46.2912" lon="6.50155">
        <ele>1251.77</ele>
        <time>2019-02-07T12:24:57Z</time>
      </trkpt>
      <trkpt lat="46.29118" lon="6.50153">
        <ele>1252.25</ele>
        <time>2019-02-07T12:24:59Z</time>
      </trkpt>
      <trkpt lat="46.29112" lon="6.50148">
        <ele>1251.29</ele>
        <time>2019-02-07T12:25:10Z</time>
      </trkpt>
      <trkpt lat="46.29111" lon="6.50146">
        <ele>1250.33</ele>
        <time>2019-02-07T12:25:12Z</time>
      </trkpt>
      <trkpt lat="46.29098" lon="6.50143">
        <ele>1249.85</ele>
        <time>2019-02-07T12:25:25Z</time>
      </trkpt>
      <trkpt lat="46.2909" lon="6.50138">
        <ele>1248.89</ele>
        <time>2019-02-07T12:25:36Z</time>
      </trkpt>
      <trkpt lat="46.29081" lon="6.50129">
        <ele>1247.45</ele>
        <time>2019-02-07T12:25:48Z</time>
      </trkpt>
      <trkpt lat="46.29071" lon="6.50126">
        <ele>1247.45</ele>
        <time>2019-02-07T12:26:01Z</time>
      </trkpt>
      <trkpt lat="46.29064" lon="6.5013">
        <ele>1246.97</ele>
        <time>2019-02-07T12:26:13Z</time>
      </trkpt>
      <trkpt lat="46.29067" lon="6.5013">
        <ele>1247.45</ele>
        <time>2019-02-07T12:26:23Z</time>
      </trkpt>
      <trkpt lat="46.29065" lon="6.50131">
        <ele>1246.97</ele>
        <time>2019-02-07T12:26:37Z</time>
      </trkpt>
      <trkpt lat="46.29063" lon="6.50127">
        <ele>1246.97</ele>
        <time>2019-02-07T12:26:51Z</time>
      </trkpt>
      <trkpt lat="46.2905" lon="6.50127">
        <ele>1246.01</ele>
        <time>2019-02-07T12:27:19Z</time>
      </trkpt>
      <trkpt lat="46.29043" lon="6.50124">
        <ele>1245.04</ele>
        <time>2019-02-07T12:27:27Z</time>
      </trkpt>
      <trkpt lat="46.29033" lon="6.50117">
        <ele>1244.56</ele>
        <time>2019-02-07T12:27:40Z</time>
      </trkpt>
      <trkpt lat="46.29025" lon="6.5011">
        <ele>1243.6</ele>
        <time>2019-02-07T12:27:52Z</time>
      </trkpt>
      <trkpt lat="46.29017" lon="6.50109">
        <ele>1241.68</ele>
        <time>2019-02-07T12:28:06Z</time>
      </trkpt>
      <trkpt lat="46.29005" lon="6.50109">
        <ele>1240.72</ele>
        <time>2019-02-07T12:28:20Z</time>
      </trkpt>
      <trkpt lat="46.28999" lon="6.50109">
        <ele>1239.28</ele>
        <time>2019-02-07T12:28:32Z</time>
      </trkpt>
      <trkpt lat="46.28989" lon="6.50111">
        <ele>1237.83</ele>
        <time>2019-02-07T12:28:43Z</time>
      </trkpt>
      <trkpt lat="46.28981" lon="6.50107">
        <ele>1236.87</ele>
        <time>2019-02-07T12:28:53Z</time>
      </trkpt>
      <trkpt lat="46.28974" lon="6.50105">
        <ele>1235.43</ele>
        <time>2019-02-07T12:29:05Z</time>
      </trkpt>
      <trkpt lat="46.28967" lon="6.50104">
        <ele>1234.95</ele>
        <time>2019-02-07T12:29:13Z</time>
      </trkpt>
      <trkpt lat="46.28953" lon="6.50114">
        <ele>1233.99</ele>
        <time>2019-02-07T12:29:26Z</time>
      </trkpt>
      <trkpt lat="46.28942" lon="6.50119">
        <ele>1233.51</ele>
        <time>2019-02-07T12:29:38Z</time>
      </trkpt>
      <trkpt lat="46.28936" lon="6.50119">
        <ele>1232.55</ele>
        <time>2019-02-07T12:29:45Z</time>
      </trkpt>
      <trkpt lat="46.28926" lon="6.50117">
        <ele>1232.07</ele>
        <time>2019-02-07T12:29:56Z</time>
      </trkpt>
      <trkpt lat="46.28922" lon="6.50117">
        <ele>1232.07</ele>
        <time>2019-02-07T12:30:00Z</time>
      </trkpt>
      <trkpt lat="46.28913" lon="6.5012">
        <ele>1230.62</ele>
        <time>2019-02-07T12:30:12Z</time>
      </trkpt>
      <trkpt lat="46.28903" lon="6.50128">
        <ele>1229.66</ele>
        <time>2019-02-07T12:30:25Z</time>
      </trkpt>
      <trkpt lat="46.28898" lon="6.50131">
        <ele>1229.18</ele>
        <time>2019-02-07T12:30:36Z</time>
      </trkpt>
      <trkpt lat="46.28888" lon="6.50136">
        <ele>1228.22</ele>
        <time>2019-02-07T12:30:48Z</time>
      </trkpt>
      <trkpt lat="46.2888" lon="6.50141">
        <ele>1226.3</ele>
        <time>2019-02-07T12:31:00Z</time>
      </trkpt>
      <trkpt lat="46.28872" lon="6.5014">
        <ele>1225.82</ele>
        <time>2019-02-07T12:31:13Z</time>
      </trkpt>
      <trkpt lat="46.28867" lon="6.5014">
        <ele>1225.34</ele>
        <time>2019-02-07T12:31:19Z</time>
      </trkpt>
      <trkpt lat="46.28864" lon="6.50142">
        <ele>1223.9</ele>
        <time>2019-02-07T12:31:23Z</time>
      </trkpt>
      <trkpt lat="46.28863" lon="6.50142">
        <ele>1223.9</ele>
        <time>2019-02-07T12:31:24Z</time>
      </trkpt>
      <trkpt lat="46.28851" lon="6.50143">
        <ele>1222.93</ele>
        <time>2019-02-07T12:31:38Z</time>
      </trkpt>
      <trkpt lat="46.28843" lon="6.50144">
        <ele>1221.97</ele>
        <time>2019-02-07T12:31:51Z</time>
      </trkpt>
      <trkpt lat="46.28831" lon="6.50149">
        <ele>1221.01</ele>
        <time>2019-02-07T12:32:03Z</time>
      </trkpt>
      <trkpt lat="46.28828" lon="6.50149">
        <ele>1221.01</ele>
        <time>2019-02-07T12:32:06Z</time>
      </trkpt>
      <trkpt lat="46.28819" lon="6.50147">
        <ele>1219.57</ele>
        <time>2019-02-07T12:32:17Z</time>
      </trkpt>
      <trkpt lat="46.28818" lon="6.50147">
        <ele>1220.53</ele>
        <time>2019-02-07T12:32:18Z</time>
      </trkpt>
      <trkpt lat="46.28812" lon="6.50144">
        <ele>1219.57</ele>
        <time>2019-02-07T12:32:25Z</time>
      </trkpt>
      <trkpt lat="46.28809" lon="6.50141">
        <ele>1217.17</ele>
        <time>2019-02-07T12:32:30Z</time>
      </trkpt>
      <trkpt lat="46.28801" lon="6.50137">
        <ele>1216.69</ele>
        <time>2019-02-07T12:32:40Z</time>
      </trkpt>
      <trkpt lat="46.28794" lon="6.50133">
        <ele>1215.24</ele>
        <time>2019-02-07T12:32:50Z</time>
      </trkpt>
      <trkpt lat="46.2879" lon="6.50132">
        <ele>1216.69</ele>
        <time>2019-02-07T12:32:55Z</time>
      </trkpt>
      <trkpt lat="46.28783" lon="6.50134">
        <ele>1217.65</ele>
        <time>2019-02-07T12:33:06Z</time>
      </trkpt>
      <trkpt lat="46.28783" lon="6.50135">
        <ele>1217.17</ele>
        <time>2019-02-07T12:33:09Z</time>
      </trkpt>
      <trkpt lat="46.28788" lon="6.50149">
        <ele>1215.24</ele>
        <time>2019-02-07T12:33:22Z</time>
      </trkpt>
      <trkpt lat="46.2879" lon="6.50151">
        <ele>1215.72</ele>
        <time>2019-02-07T12:33:25Z</time>
      </trkpt>
      <trkpt lat="46.28798" lon="6.50158">
        <ele>1214.76</ele>
        <time>2019-02-07T12:33:37Z</time>
      </trkpt>
      <trkpt lat="46.28801" lon="6.5016">
        <ele>1214.76</ele>
        <time>2019-02-07T12:33:42Z</time>
      </trkpt>
      <trkpt lat="46.28811" lon="6.50165">
        <ele>1213.8</ele>
        <time>2019-02-07T12:33:55Z</time>
      </trkpt>
      <trkpt lat="46.2882" lon="6.50169">
        <ele>1212.84</ele>
        <time>2019-02-07T12:34:06Z</time>
      </trkpt>
      <trkpt lat="46.2883" lon="6.50175">
        <ele>1211.4</ele>
        <time>2019-02-07T12:34:21Z</time>
      </trkpt>
      <trkpt lat="46.28841" lon="6.50179">
        <ele>1209.96</ele>
        <time>2019-02-07T12:34:34Z</time>
      </trkpt>
      <trkpt lat="46.28847" lon="6.50184">
        <ele>1209.96</ele>
        <time>2019-02-07T12:34:43Z</time>
      </trkpt>
      <trkpt lat="46.2885" lon="6.50185">
        <ele>1209.48</ele>
        <time>2019-02-07T12:34:46Z</time>
      </trkpt>
      <trkpt lat="46.2886" lon="6.50196">
        <ele>1208.03</ele>
        <time>2019-02-07T12:35:02Z</time>
      </trkpt>
      <trkpt lat="46.28867" lon="6.50205">
        <ele>1207.07</ele>
        <time>2019-02-07T12:35:14Z</time>
      </trkpt>
      <trkpt lat="46.28875" lon="6.50212">
        <ele>1206.59</ele>
        <time>2019-02-07T12:35:25Z</time>
      </trkpt>
      <trkpt lat="46.28884" lon="6.50219">
        <ele>1205.63</ele>
        <time>2019-02-07T12:35:36Z</time>
      </trkpt>
      <trkpt lat="46.28888" lon="6.50223">
        <ele>1204.67</ele>
        <time>2019-02-07T12:35:43Z</time>
      </trkpt>
      <trkpt lat="46.289" lon="6.50224">
        <ele>1203.71</ele>
        <time>2019-02-07T12:35:55Z</time>
      </trkpt>
      <trkpt lat="46.28908" lon="6.50223">
        <ele>1203.23</ele>
        <time>2019-02-07T12:36:08Z</time>
      </trkpt>
      <trkpt lat="46.28913" lon="6.50221">
        <ele>1202.27</ele>
        <time>2019-02-07T12:36:16Z</time>
      </trkpt>
      <trkpt lat="46.28926" lon="6.50218">
        <ele>1201.3</ele>
        <time>2019-02-07T12:36:30Z</time>
      </trkpt>
      <trkpt lat="46.28935" lon="6.50219">
        <ele>1199.86</ele>
        <time>2019-02-07T12:36:42Z</time>
      </trkpt>
      <trkpt lat="46.2894" lon="6.50222">
        <ele>1199.38</ele>
        <time>2019-02-07T12:36:54Z</time>
      </trkpt>
      <trkpt lat="46.28945" lon="6.50229">
        <ele>1198.9</ele>
        <time>2019-02-07T12:37:03Z</time>
      </trkpt>
      <trkpt lat="46.28953" lon="6.50234">
        <ele>1198.9</ele>
        <time>2019-02-07T12:37:10Z</time>
      </trkpt>
      <trkpt lat="46.28965" lon="6.50237">
        <ele>1197.46</ele>
        <time>2019-02-07T12:37:19Z</time>
      </trkpt>
      <trkpt lat="46.28975" lon="6.50241">
        <ele>1196.98</ele>
        <time>2019-02-07T12:37:32Z</time>
      </trkpt>
      <trkpt lat="46.28976" lon="6.50241">
        <ele>1197.94</ele>
        <time>2019-02-07T12:37:33Z</time>
      </trkpt>
      <trkpt lat="46.28988" lon="6.5025">
        <ele>1196.5</ele>
        <time>2019-02-07T12:37:45Z</time>
      </trkpt>
      <trkpt lat="46.28989" lon="6.50251">
        <ele>1196.5</ele>
        <time>2019-02-07T12:37:46Z</time>
      </trkpt>
      <trkpt lat="46.28991" lon="6.5026">
        <ele>1196.02</ele>
        <time>2019-02-07T12:38:00Z</time>
      </trkpt>
      <trkpt lat="46.28986" lon="6.50263">
        <ele>1196.02</ele>
        <time>2019-02-07T12:38:17Z</time>
      </trkpt>
      <trkpt lat="46.28977" lon="6.50271">
        <ele>1194.58</ele>
        <time>2019-02-07T12:38:28Z</time>
      </trkpt>
      <trkpt lat="46.28968" lon="6.50265">
        <ele>1194.09</ele>
        <time>2019-02-07T12:38:42Z</time>
      </trkpt>
      <trkpt lat="46.28962" lon="6.50264">
        <ele>1193.61</ele>
        <time>2019-02-07T12:38:51Z</time>
      </trkpt>
      <trkpt lat="46.28948" lon="6.50258">
        <ele>1192.17</ele>
        <time>2019-02-07T12:39:05Z</time>
      </trkpt>
      <trkpt lat="46.28938" lon="6.5026">
        <ele>1190.73</ele>
        <time>2019-02-07T12:39:18Z</time>
      </trkpt>
      <trkpt lat="46.28929" lon="6.50269">
        <ele>1189.77</ele>
        <time>2019-02-07T12:39:30Z</time>
      </trkpt>
      <trkpt lat="46.28925" lon="6.50279">
        <ele>1189.29</ele>
        <time>2019-02-07T12:39:40Z</time>
      </trkpt>
      <trkpt lat="46.28921" lon="6.50281">
        <ele>1188.81</ele>
        <time>2019-02-07T12:39:45Z</time>
      </trkpt>
      <trkpt lat="46.28916" lon="6.50294">
        <ele>1187.37</ele>
        <time>2019-02-07T12:39:55Z</time>
      </trkpt>
      <trkpt lat="46.28914" lon="6.50297">
        <ele>1187.85</ele>
        <time>2019-02-07T12:39:58Z</time>
      </trkpt>
      <trkpt lat="46.28911" lon="6.50305">
        <ele>1186.88</ele>
        <time>2019-02-07T12:40:05Z</time>
      </trkpt>
      <trkpt lat="46.28908" lon="6.50312">
        <ele>1186.88</ele>
        <time>2019-02-07T12:40:13Z</time>
      </trkpt>
      <trkpt lat="46.28906" lon="6.50317">
        <ele>1185.92</ele>
        <time>2019-02-07T12:40:24Z</time>
      </trkpt>
      <trkpt lat="46.28906" lon="6.50319">
        <ele>1184</ele>
        <time>2019-02-07T12:40:31Z</time>
      </trkpt>
      <trkpt lat="46.28907" lon="6.5032">
        <ele>1183.52</ele>
        <time>2019-02-07T12:40:33Z</time>
      </trkpt>
      <trkpt lat="46.28913" lon="6.50329">
        <ele>1181.6</ele>
        <time>2019-02-07T12:40:42Z</time>
      </trkpt>
      <trkpt lat="46.28921" lon="6.5034">
        <ele>1178.23</ele>
        <time>2019-02-07T12:40:55Z</time>
      </trkpt>
      <trkpt lat="46.28927" lon="6.50347">
        <ele>1176.79</ele>
        <time>2019-02-07T12:41:06Z</time>
      </trkpt>
      <trkpt lat="46.28933" lon="6.50353">
        <ele>1175.35</ele>
        <time>2019-02-07T12:41:16Z</time>
      </trkpt>
      <trkpt lat="46.2894" lon="6.50361">
        <ele>1172.95</ele>
        <time>2019-02-07T12:41:31Z</time>
      </trkpt>
      <trkpt lat="46.28949" lon="6.50369">
        <ele>1171.5</ele>
        <time>2019-02-07T12:41:43Z</time>
      </trkpt>
      <trkpt lat="46.28957" lon="6.50376">
        <ele>1170.06</ele>
        <time>2019-02-07T12:41:54Z</time>
      </trkpt>
      <trkpt lat="46.28964" lon="6.50379">
        <ele>1169.1</ele>
        <time>2019-02-07T12:42:06Z</time>
      </trkpt>
      <trkpt lat="46.28971" lon="6.50382">
        <ele>1168.14</ele>
        <time>2019-02-07T12:42:20Z</time>
      </trkpt>
      <trkpt lat="46.2898" lon="6.50387">
        <ele>1168.14</ele>
        <time>2019-02-07T12:42:30Z</time>
      </trkpt>
      <trkpt lat="46.28983" lon="6.50389">
        <ele>1167.18</ele>
        <time>2019-02-07T12:42:38Z</time>
      </trkpt>
      <trkpt lat="46.28991" lon="6.50391">
        <ele>1166.7</ele>
        <time>2019-02-07T12:42:53Z</time>
      </trkpt>
      <trkpt lat="46.28996" lon="6.50392">
        <ele>1166.7</ele>
        <time>2019-02-07T12:43:04Z</time>
      </trkpt>
      <trkpt lat="46.29002" lon="6.50396">
        <ele>1165.26</ele>
        <time>2019-02-07T12:43:14Z</time>
      </trkpt>
      <trkpt lat="46.29003" lon="6.50396">
        <ele>1165.74</ele>
        <time>2019-02-07T12:43:15Z</time>
      </trkpt>
      <trkpt lat="46.29011" lon="6.504">
        <ele>1166.7</ele>
        <time>2019-02-07T12:43:26Z</time>
      </trkpt>
      <trkpt lat="46.29022" lon="6.50408">
        <ele>1164.29</ele>
        <time>2019-02-07T12:43:39Z</time>
      </trkpt>
      <trkpt lat="46.29029" lon="6.50412">
        <ele>1163.81</ele>
        <time>2019-02-07T12:43:48Z</time>
      </trkpt>
      <trkpt lat="46.29034" lon="6.50417">
        <ele>1163.81</ele>
        <time>2019-02-07T12:43:57Z</time>
      </trkpt>
      <trkpt lat="46.29042" lon="6.50424">
        <ele>1164.77</ele>
        <time>2019-02-07T12:44:13Z</time>
      </trkpt>
      <trkpt lat="46.29043" lon="6.50426">
        <ele>1166.22</ele>
        <time>2019-02-07T12:44:25Z</time>
      </trkpt>
      <trkpt lat="46.29045" lon="6.5043">
        <ele>1166.7</ele>
        <time>2019-02-07T12:44:35Z</time>
      </trkpt>
      <trkpt lat="46.29047" lon="6.50432">
        <ele>1167.66</ele>
        <time>2019-02-07T12:44:39Z</time>
      </trkpt>
      <trkpt lat="46.2905" lon="6.50432">
        <ele>1168.14</ele>
        <time>2019-02-07T12:44:44Z</time>
      </trkpt>
      <trkpt lat="46.2906" lon="6.50434">
        <ele>1168.62</ele>
        <time>2019-02-07T12:44:55Z</time>
      </trkpt>
      <trkpt lat="46.29066" lon="6.50433">
        <ele>1169.58</ele>
        <time>2019-02-07T12:45:06Z</time>
      </trkpt>
      <trkpt lat="46.29074" lon="6.50434">
        <ele>1168.62</ele>
        <time>2019-02-07T12:45:18Z</time>
      </trkpt>
      <trkpt lat="46.29081" lon="6.50437">
        <ele>1169.1</ele>
        <time>2019-02-07T12:45:32Z</time>
      </trkpt>
      <trkpt lat="46.29088" lon="6.50441">
        <ele>1167.66</ele>
        <time>2019-02-07T12:45:44Z</time>
      </trkpt>
      <trkpt lat="46.29096" lon="6.50446">
        <ele>1167.18</ele>
        <time>2019-02-07T12:45:56Z</time>
      </trkpt>
      <trkpt lat="46.29104" lon="6.50451">
        <ele>1166.7</ele>
        <time>2019-02-07T12:46:11Z</time>
      </trkpt>
      <trkpt lat="46.2911" lon="6.50457">
        <ele>1166.7</ele>
        <time>2019-02-07T12:46:24Z</time>
      </trkpt>
      <trkpt lat="46.29116" lon="6.50463">
        <ele>1167.18</ele>
        <time>2019-02-07T12:46:38Z</time>
      </trkpt>
      <trkpt lat="46.29121" lon="6.5047">
        <ele>1167.66</ele>
        <time>2019-02-07T12:46:52Z</time>
      </trkpt>
      <trkpt lat="46.29126" lon="6.50474">
        <ele>1167.66</ele>
        <time>2019-02-07T12:47:05Z</time>
      </trkpt>
      <trkpt lat="46.29133" lon="6.50482">
        <ele>1168.62</ele>
        <time>2019-02-07T12:47:18Z</time>
      </trkpt>
      <trkpt lat="46.2914" lon="6.50489">
        <ele>1168.14</ele>
        <time>2019-02-07T12:47:33Z</time>
      </trkpt>
      <trkpt lat="46.29145" lon="6.50495">
        <ele>1168.14</ele>
        <time>2019-02-07T12:47:45Z</time>
      </trkpt>
      <trkpt lat="46.29153" lon="6.50502">
        <ele>1168.14</ele>
        <time>2019-02-07T12:47:59Z</time>
      </trkpt>
      <trkpt lat="46.29157" lon="6.50508">
        <ele>1169.1</ele>
        <time>2019-02-07T12:48:14Z</time>
      </trkpt>
      <trkpt lat="46.29161" lon="6.50513">
        <ele>1169.1</ele>
        <time>2019-02-07T12:48:26Z</time>
      </trkpt>
      <trkpt lat="46.29167" lon="6.50518">
        <ele>1169.1</ele>
        <time>2019-02-07T12:48:38Z</time>
      </trkpt>
      <trkpt lat="46.29174" lon="6.50524">
        <ele>1170.06</ele>
        <time>2019-02-07T12:48:51Z</time>
      </trkpt>
      <trkpt lat="46.2918" lon="6.50528">
        <ele>1170.06</ele>
        <time>2019-02-07T12:49:04Z</time>
      </trkpt>
      <trkpt lat="46.2919" lon="6.50533">
        <ele>1170.54</ele>
        <time>2019-02-07T12:49:17Z</time>
      </trkpt>
      <trkpt lat="46.29197" lon="6.50538">
        <ele>1170.54</ele>
        <time>2019-02-07T12:49:30Z</time>
      </trkpt>
      <trkpt lat="46.29205" lon="6.50544">
        <ele>1170.54</ele>
        <time>2019-02-07T12:49:43Z</time>
      </trkpt>
      <trkpt lat="46.29212" lon="6.50548">
        <ele>1170.54</ele>
        <time>2019-02-07T12:49:55Z</time>
      </trkpt>
      <trkpt lat="46.2922" lon="6.50552">
        <ele>1170.06</ele>
        <time>2019-02-07T12:50:09Z</time>
      </trkpt>
      <trkpt lat="46.29228" lon="6.50556">
        <ele>1170.06</ele>
        <time>2019-02-07T12:50:21Z</time>
      </trkpt>
      <trkpt lat="46.29237" lon="6.5056">
        <ele>1169.58</ele>
        <time>2019-02-07T12:50:35Z</time>
      </trkpt>
      <trkpt lat="46.29244" lon="6.50562">
        <ele>1169.1</ele>
        <time>2019-02-07T12:50:47Z</time>
      </trkpt>
      <trkpt lat="46.2925" lon="6.50567">
        <ele>1169.1</ele>
        <time>2019-02-07T12:50:57Z</time>
      </trkpt>
      <trkpt lat="46.29257" lon="6.50571">
        <ele>1168.62</ele>
        <time>2019-02-07T12:51:09Z</time>
      </trkpt>
      <trkpt lat="46.29263" lon="6.50575">
        <ele>1169.1</ele>
        <time>2019-02-07T12:51:20Z</time>
      </trkpt>
      <trkpt lat="46.2927" lon="6.50578">
        <ele>1167.66</ele>
        <time>2019-02-07T12:51:31Z</time>
      </trkpt>
      <trkpt lat="46.29277" lon="6.5058">
        <ele>1167.66</ele>
        <time>2019-02-07T12:51:43Z</time>
      </trkpt>
      <trkpt lat="46.29281" lon="6.50583">
        <ele>1166.22</ele>
        <time>2019-02-07T12:51:51Z</time>
      </trkpt>
      <trkpt lat="46.29283" lon="6.50587">
        <ele>1166.7</ele>
        <time>2019-02-07T12:51:55Z</time>
      </trkpt>
      <trkpt lat="46.29284" lon="6.50588">
        <ele>1166.22</ele>
        <time>2019-02-07T12:51:58Z</time>
      </trkpt>
      <trkpt lat="46.29288" lon="6.50593">
        <ele>1165.26</ele>
        <time>2019-02-07T12:52:04Z</time>
      </trkpt>
      <trkpt lat="46.29294" lon="6.50601">
        <ele>1164.29</ele>
        <time>2019-02-07T12:52:16Z</time>
      </trkpt>
      <trkpt lat="46.29301" lon="6.50603">
        <ele>1161.89</ele>
        <time>2019-02-07T12:52:28Z</time>
      </trkpt>
      <trkpt lat="46.29308" lon="6.5061">
        <ele>1159.97</ele>
        <time>2019-02-07T12:52:40Z</time>
      </trkpt>
      <trkpt lat="46.29318" lon="6.50619">
        <ele>1157.56</ele>
        <time>2019-02-07T12:52:54Z</time>
      </trkpt>
      <trkpt lat="46.29325" lon="6.50629">
        <ele>1155.64</ele>
        <time>2019-02-07T12:53:08Z</time>
      </trkpt>
      <trkpt lat="46.2933" lon="6.5064">
        <ele>1154.2</ele>
        <time>2019-02-07T12:53:21Z</time>
      </trkpt>
      <trkpt lat="46.29333" lon="6.50649">
        <ele>1153.72</ele>
        <time>2019-02-07T12:53:30Z</time>
      </trkpt>
      <trkpt lat="46.29335" lon="6.50662">
        <ele>1152.28</ele>
        <time>2019-02-07T12:53:43Z</time>
      </trkpt>
      <trkpt lat="46.29341" lon="6.50674">
        <ele>1149.39</ele>
        <time>2019-02-07T12:53:57Z</time>
      </trkpt>
      <trkpt lat="46.29344" lon="6.50685">
        <ele>1146.99</ele>
        <time>2019-02-07T12:54:09Z</time>
      </trkpt>
      <trkpt lat="46.29349" lon="6.50699">
        <ele>1144.59</ele>
        <time>2019-02-07T12:54:23Z</time>
      </trkpt>
      <trkpt lat="46.29352" lon="6.50709">
        <ele>1142.66</ele>
        <time>2019-02-07T12:54:34Z</time>
      </trkpt>
      <trkpt lat="46.29352" lon="6.50711">
        <ele>1142.66</ele>
        <time>2019-02-07T12:54:36Z</time>
      </trkpt>
      <trkpt lat="46.29357" lon="6.5072">
        <ele>1139.78</ele>
        <time>2019-02-07T12:54:49Z</time>
      </trkpt>
      <trkpt lat="46.29359" lon="6.50724">
        <ele>1138.34</ele>
        <time>2019-02-07T12:55:03Z</time>
      </trkpt>
      <trkpt lat="46.29363" lon="6.50727">
        <ele>1136.42</ele>
        <time>2019-02-07T12:55:09Z</time>
      </trkpt>
      <trkpt lat="46.29363" lon="6.50727">
        <ele>1135.94</ele>
        <time>2019-02-07T12:55:10Z</time>
      </trkpt>
      <trkpt lat="46.29369" lon="6.50732">
        <ele>1133.53</ele>
        <time>2019-02-07T12:55:21Z</time>
      </trkpt>
      <trkpt lat="46.29375" lon="6.50733">
        <ele>1131.61</ele>
        <time>2019-02-07T12:55:34Z</time>
      </trkpt>
      <trkpt lat="46.29382" lon="6.5073">
        <ele>1131.13</ele>
        <time>2019-02-07T12:55:45Z</time>
      </trkpt>
      <trkpt lat="46.29385" lon="6.5073">
        <ele>1131.13</ele>
        <time>2019-02-07T12:55:47Z</time>
      </trkpt>
      <trkpt lat="46.29399" lon="6.50727">
        <ele>1129.69</ele>
        <time>2019-02-07T12:56:00Z</time>
      </trkpt>
      <trkpt lat="46.29401" lon="6.50726">
        <ele>1129.69</ele>
        <time>2019-02-07T12:56:14Z</time>
      </trkpt>
      <trkpt lat="46.29401" lon="6.50727">
        <ele>1130.17</ele>
        <time>2019-02-07T12:57:43Z</time>
      </trkpt>
      <trkpt lat="46.29403" lon="6.5073">
        <ele>1129.69</ele>
        <time>2019-02-07T12:58:31Z</time>
      </trkpt>
      <trkpt lat="46.2941" lon="6.50743">
        <ele>1128.73</ele>
        <time>2019-02-07T12:58:44Z</time>
      </trkpt>
      <trkpt lat="46.29414" lon="6.50749">
        <ele>1129.21</ele>
        <time>2019-02-07T12:58:51Z</time>
      </trkpt>
      <trkpt lat="46.29415" lon="6.50754">
        <ele>1129.21</ele>
        <time>2019-02-07T12:58:55Z</time>
      </trkpt>
      <trkpt lat="46.29421" lon="6.50773">
        <ele>1127.28</ele>
        <time>2019-02-07T12:59:08Z</time>
      </trkpt>
      <trkpt lat="46.29424" lon="6.50793">
        <ele>1127.28</ele>
        <time>2019-02-07T12:59:22Z</time>
      </trkpt>
      <trkpt lat="46.29425" lon="6.50809">
        <ele>1126.32</ele>
        <time>2019-02-07T12:59:34Z</time>
      </trkpt>
      <trkpt lat="46.29425" lon="6.50823">
        <ele>1125.36</ele>
        <time>2019-02-07T12:59:47Z</time>
      </trkpt>
      <trkpt lat="46.29427" lon="6.50833">
        <ele>1123.44</ele>
        <time>2019-02-07T12:59:57Z</time>
      </trkpt>
      <trkpt lat="46.29434" lon="6.50852">
        <ele>1122.96</ele>
        <time>2019-02-07T13:00:12Z</time>
      </trkpt>
      <trkpt lat="46.29437" lon="6.5086">
        <ele>1121.52</ele>
        <time>2019-02-07T13:00:21Z</time>
      </trkpt>
      <trkpt lat="46.2944" lon="6.50868">
        <ele>1119.11</ele>
        <time>2019-02-07T13:00:32Z</time>
      </trkpt>
      <trkpt lat="46.29441" lon="6.50875">
        <ele>1118.63</ele>
        <time>2019-02-07T13:00:37Z</time>
      </trkpt>
      <trkpt lat="46.29442" lon="6.50889">
        <ele>1119.59</ele>
        <time>2019-02-07T13:00:50Z</time>
      </trkpt>
      <trkpt lat="46.29442" lon="6.50889">
        <ele>1118.15</ele>
        <time>2019-02-07T13:01:21Z</time>
      </trkpt>
      <trkpt lat="46.29442" lon="6.50889">
        <ele>1118.63</ele>
        <time>2019-02-07T13:02:05Z</time>
      </trkpt>
    </trkseg>
  </trk>
  <trk>
    <name><![CDATA[20190212153829-wVrsA]]></name>
    <trkseg>
      <trkpt lat="46.20876" lon="6.57644">
        <ele>1108.54</ele>
        <time>2019-02-08T08:40:05Z</time>
      </trkpt>
      <trkpt lat="46.20874" lon="6.57646">
        <ele>1110.46</ele>
        <time>2019-02-08T08:40:10Z</time>
      </trkpt>
      <trkpt lat="46.20872" lon="6.57648">
        <ele>1110.94</ele>
        <time>2019-02-08T08:40:14Z</time>
      </trkpt>
      <trkpt lat="46.20875" lon="6.57647">
        <ele>1112.38</ele>
        <time>2019-02-08T08:40:56Z</time>
      </trkpt>
      <trkpt lat="46.20874" lon="6.57647">
        <ele>1111.42</ele>
        <time>2019-02-08T08:41:46Z</time>
      </trkpt>
      <trkpt lat="46.20874" lon="6.57647">
        <ele>1113.34</ele>
        <time>2019-02-08T08:41:48Z</time>
      </trkpt>
      <trkpt lat="46.20874" lon="6.57647">
        <ele>1112.38</ele>
        <time>2019-02-08T08:41:50Z</time>
      </trkpt>
      <trkpt lat="46.2088" lon="6.57648">
        <ele>1112.38</ele>
        <time>2019-02-08T08:42:26Z</time>
      </trkpt>
      <trkpt lat="46.20884" lon="6.57652">
        <ele>1112.38</ele>
        <time>2019-02-08T08:42:38Z</time>
      </trkpt>
      <trkpt lat="46.20892" lon="6.57661">
        <ele>1112.86</ele>
        <time>2019-02-08T08:42:51Z</time>
      </trkpt>
      <trkpt lat="46.20893" lon="6.5767">
        <ele>1113.34</ele>
        <time>2019-02-08T08:43:02Z</time>
      </trkpt>
      <trkpt lat="46.20891" lon="6.57681">
        <ele>1113.82</ele>
        <time>2019-02-08T08:43:12Z</time>
      </trkpt>
      <trkpt lat="46.20884" lon="6.57692">
        <ele>1114.31</ele>
        <time>2019-02-08T08:43:25Z</time>
      </trkpt>
      <trkpt lat="46.20879" lon="6.57703">
        <ele>1114.79</ele>
        <time>2019-02-08T08:43:36Z</time>
      </trkpt>
      <trkpt lat="46.20873" lon="6.57711">
        <ele>1115.75</ele>
        <time>2019-02-08T08:43:48Z</time>
      </trkpt>
      <trkpt lat="46.20864" lon="6.57716">
        <ele>1116.71</ele>
        <time>2019-02-08T08:44:00Z</time>
      </trkpt>
      <trkpt lat="46.20862" lon="6.57716">
        <ele>1117.19</ele>
        <time>2019-02-08T08:44:03Z</time>
      </trkpt>
      <trkpt lat="46.20854" lon="6.57715">
        <ele>1118.15</ele>
        <time>2019-02-08T08:44:14Z</time>
      </trkpt>
      <trkpt lat="46.20847" lon="6.57709">
        <ele>1120.07</ele>
        <time>2019-02-08T08:44:26Z</time>
      </trkpt>
      <trkpt lat="46.20843" lon="6.57697">
        <ele>1121.03</ele>
        <time>2019-02-08T08:44:39Z</time>
      </trkpt>
      <trkpt lat="46.20838" lon="6.57685">
        <ele>1122</ele>
        <time>2019-02-08T08:44:52Z</time>
      </trkpt>
      <trkpt lat="46.20832" lon="6.57677">
        <ele>1123.44</ele>
        <time>2019-02-08T08:45:04Z</time>
      </trkpt>
      <trkpt lat="46.20826" lon="6.57668">
        <ele>1124.4</ele>
        <time>2019-02-08T08:45:16Z</time>
      </trkpt>
      <trkpt lat="46.20821" lon="6.57658">
        <ele>1125.84</ele>
        <time>2019-02-08T08:45:27Z</time>
      </trkpt>
      <trkpt lat="46.20816" lon="6.57644">
        <ele>1127.28</ele>
        <time>2019-02-08T08:45:41Z</time>
      </trkpt>
      <trkpt lat="46.20813" lon="6.57632">
        <ele>1129.69</ele>
        <time>2019-02-08T08:45:54Z</time>
      </trkpt>
      <trkpt lat="46.20812" lon="6.57631">
        <ele>1129.21</ele>
        <time>2019-02-08T08:45:55Z</time>
      </trkpt>
      <trkpt lat="46.20809" lon="6.57618">
        <ele>1130.17</ele>
        <time>2019-02-08T08:46:08Z</time>
      </trkpt>
      <trkpt lat="46.20805" lon="6.57606">
        <ele>1131.13</ele>
        <time>2019-02-08T08:46:19Z</time>
      </trkpt>
      <trkpt lat="46.20799" lon="6.57598">
        <ele>1132.09</ele>
        <time>2019-02-08T08:46:31Z</time>
      </trkpt>
      <trkpt lat="46.20799" lon="6.57598">
        <ele>1132.09</ele>
        <time>2019-02-08T08:46:44Z</time>
      </trkpt>
      <trkpt lat="46.20797" lon="6.57599">
        <ele>1132.09</ele>
        <time>2019-02-08T08:47:41Z</time>
      </trkpt>
      <trkpt lat="46.20797" lon="6.57599">
        <ele>1132.09</ele>
        <time>2019-02-08T08:48:13Z</time>
      </trkpt>
      <trkpt lat="46.20797" lon="6.576">
        <ele>1132.09</ele>
        <time>2019-02-08T08:49:30Z</time>
      </trkpt>
      <trkpt lat="46.20795" lon="6.57604">
        <ele>1131.61</ele>
        <time>2019-02-08T08:50:26Z</time>
      </trkpt>
      <trkpt lat="46.20791" lon="6.5761">
        <ele>1133.05</ele>
        <time>2019-02-08T08:50:36Z</time>
      </trkpt>
      <trkpt lat="46.20787" lon="6.5762">
        <ele>1134.01</ele>
        <time>2019-02-08T08:50:48Z</time>
      </trkpt>
      <trkpt lat="46.20786" lon="6.57633">
        <ele>1135.45</ele>
        <time>2019-02-08T08:51:00Z</time>
      </trkpt>
      <trkpt lat="46.20786" lon="6.57639">
        <ele>1135.94</ele>
        <time>2019-02-08T08:51:04Z</time>
      </trkpt>
      <trkpt lat="46.20783" lon="6.57652">
        <ele>1135.94</ele>
        <time>2019-02-08T08:51:16Z</time>
      </trkpt>
      <trkpt lat="46.20781" lon="6.57663">
        <ele>1136.9</ele>
        <time>2019-02-08T08:51:26Z</time>
      </trkpt>
      <trkpt lat="46.2078" lon="6.57665">
        <ele>1137.86</ele>
        <time>2019-02-08T08:51:28Z</time>
      </trkpt>
      <trkpt lat="46.20779" lon="6.57669">
        <ele>1137.86</ele>
        <time>2019-02-08T08:51:32Z</time>
      </trkpt>
      <trkpt lat="46.20777" lon="6.57679">
        <ele>1138.34</ele>
        <time>2019-02-08T08:51:40Z</time>
      </trkpt>
      <trkpt lat="46.20775" lon="6.57692">
        <ele>1139.3</ele>
        <time>2019-02-08T08:51:51Z</time>
      </trkpt>
      <trkpt lat="46.20775" lon="6.57701">
        <ele>1140.74</ele>
        <time>2019-02-08T08:52:00Z</time>
      </trkpt>
      <trkpt lat="46.20774" lon="6.57712">
        <ele>1141.7</ele>
        <time>2019-02-08T08:52:11Z</time>
      </trkpt>
      <trkpt lat="46.20772" lon="6.57721">
        <ele>1142.66</ele>
        <time>2019-02-08T08:52:22Z</time>
      </trkpt>
      <trkpt lat="46.20771" lon="6.57725">
        <ele>1143.14</ele>
        <time>2019-02-08T08:52:26Z</time>
      </trkpt>
      <trkpt lat="46.20767" lon="6.57739">
        <ele>1144.11</ele>
        <time>2019-02-08T08:52:39Z</time>
      </trkpt>
      <trkpt lat="46.20763" lon="6.5775">
        <ele>1145.55</ele>
        <time>2019-02-08T08:52:51Z</time>
      </trkpt>
      <trkpt lat="46.20762" lon="6.57752">
        <ele>1146.03</ele>
        <time>2019-02-08T08:52:54Z</time>
      </trkpt>
      <trkpt lat="46.20758" lon="6.5776">
        <ele>1147.47</ele>
        <time>2019-02-08T08:53:05Z</time>
      </trkpt>
      <trkpt lat="46.20752" lon="6.5777">
        <ele>1147.95</ele>
        <time>2019-02-08T08:53:17Z</time>
      </trkpt>
      <trkpt lat="46.20744" lon="6.57777">
        <ele>1149.87</ele>
        <time>2019-02-08T08:53:29Z</time>
      </trkpt>
      <trkpt lat="46.2074" lon="6.57783">
        <ele>1151.32</ele>
        <time>2019-02-08T08:53:40Z</time>
      </trkpt>
      <trkpt lat="46.20736" lon="6.57791">
        <ele>1152.28</ele>
        <time>2019-02-08T08:53:51Z</time>
      </trkpt>
      <trkpt lat="46.20733" lon="6.57799">
        <ele>1152.28</ele>
        <time>2019-02-08T08:54:02Z</time>
      </trkpt>
      <trkpt lat="46.20731" lon="6.57809">
        <ele>1152.76</ele>
        <time>2019-02-08T08:54:12Z</time>
      </trkpt>
      <trkpt lat="46.20729" lon="6.57814">
        <ele>1153.24</ele>
        <time>2019-02-08T08:54:18Z</time>
      </trkpt>
      <trkpt lat="46.2073" lon="6.57817">
        <ele>1153.24</ele>
        <time>2019-02-08T08:54:21Z</time>
      </trkpt>
      <trkpt lat="46.20729" lon="6.57828">
        <ele>1154.2</ele>
        <time>2019-02-08T08:54:31Z</time>
      </trkpt>
      <trkpt lat="46.2073" lon="6.5783">
        <ele>1154.2</ele>
        <time>2019-02-08T08:54:33Z</time>
      </trkpt>
      <trkpt lat="46.2073" lon="6.57839">
        <ele>1154.2</ele>
        <time>2019-02-08T08:54:40Z</time>
      </trkpt>
      <trkpt lat="46.20733" lon="6.57852">
        <ele>1154.68</ele>
        <time>2019-02-08T08:54:53Z</time>
      </trkpt>
      <trkpt lat="46.20733" lon="6.57862">
        <ele>1154.68</ele>
        <time>2019-02-08T08:55:03Z</time>
      </trkpt>
      <trkpt lat="46.20733" lon="6.57872">
        <ele>1155.16</ele>
        <time>2019-02-08T08:55:13Z</time>
      </trkpt>
      <trkpt lat="46.20734" lon="6.57875">
        <ele>1155.16</ele>
        <time>2019-02-08T08:55:17Z</time>
      </trkpt>
      <trkpt lat="46.20734" lon="6.5788">
        <ele>1156.12</ele>
        <time>2019-02-08T08:55:23Z</time>
      </trkpt>
      <trkpt lat="46.20733" lon="6.57885">
        <ele>1155.64</ele>
        <time>2019-02-08T08:55:26Z</time>
      </trkpt>
      <trkpt lat="46.20727" lon="6.57896">
        <ele>1156.12</ele>
        <time>2019-02-08T08:55:39Z</time>
      </trkpt>
      <trkpt lat="46.20721" lon="6.57907">
        <ele>1157.08</ele>
        <time>2019-02-08T08:55:52Z</time>
      </trkpt>
      <trkpt lat="46.20714" lon="6.57913">
        <ele>1158.05</ele>
        <time>2019-02-08T08:56:03Z</time>
      </trkpt>
      <trkpt lat="46.20705" lon="6.57921">
        <ele>1159.01</ele>
        <time>2019-02-08T08:56:15Z</time>
      </trkpt>
      <trkpt lat="46.20697" lon="6.57925">
        <ele>1159.49</ele>
        <time>2019-02-08T08:56:26Z</time>
      </trkpt>
      <trkpt lat="46.20688" lon="6.5793">
        <ele>1160.93</ele>
        <time>2019-02-08T08:56:37Z</time>
      </trkpt>
      <trkpt lat="46.20681" lon="6.57932">
        <ele>1162.37</ele>
        <time>2019-02-08T08:56:49Z</time>
      </trkpt>
      <trkpt lat="46.20675" lon="6.57934">
        <ele>1163.33</ele>
        <time>2019-02-08T08:57:01Z</time>
      </trkpt>
      <trkpt lat="46.20671" lon="6.57936">
        <ele>1164.77</ele>
        <time>2019-02-08T08:57:12Z</time>
      </trkpt>
      <trkpt lat="46.20668" lon="6.57944">
        <ele>1163.81</ele>
        <time>2019-02-08T08:57:24Z</time>
      </trkpt>
      <trkpt lat="46.20671" lon="6.57955">
        <ele>1163.81</ele>
        <time>2019-02-08T08:57:36Z</time>
      </trkpt>
      <trkpt lat="46.20671" lon="6.57961">
        <ele>1162.85</ele>
        <time>2019-02-08T08:57:50Z</time>
      </trkpt>
      <trkpt lat="46.2067" lon="6.57963">
        <ele>1162.85</ele>
        <time>2019-02-08T08:58:00Z</time>
      </trkpt>
      <trkpt lat="46.20669" lon="6.57973">
        <ele>1163.33</ele>
        <time>2019-02-08T08:58:12Z</time>
      </trkpt>
      <trkpt lat="46.20664" lon="6.57988">
        <ele>1163.33</ele>
        <time>2019-02-08T08:58:38Z</time>
      </trkpt>
      <trkpt lat="46.20663" lon="6.57991">
        <ele>1163.81</ele>
        <time>2019-02-08T08:58:57Z</time>
      </trkpt>
      <trkpt lat="46.20663" lon="6.57992">
        <ele>1164.29</ele>
        <time>2019-02-08T09:00:03Z</time>
      </trkpt>
      <trkpt lat="46.20663" lon="6.57992">
        <ele>1165.74</ele>
        <time>2019-02-08T09:01:45Z</time>
      </trkpt>
      <trkpt lat="46.20665" lon="6.58005">
        <ele>1164.77</ele>
        <time>2019-02-08T09:02:00Z</time>
      </trkpt>
      <trkpt lat="46.20665" lon="6.58014">
        <ele>1164.77</ele>
        <time>2019-02-08T09:02:12Z</time>
      </trkpt>
      <trkpt lat="46.20664" lon="6.58019">
        <ele>1166.22</ele>
        <time>2019-02-08T09:02:23Z</time>
      </trkpt>
      <trkpt lat="46.20656" lon="6.5804">
        <ele>1166.22</ele>
        <time>2019-02-08T09:02:35Z</time>
      </trkpt>
      <trkpt lat="46.20652" lon="6.58051">
        <ele>1168.14</ele>
        <time>2019-02-08T09:02:46Z</time>
      </trkpt>
      <trkpt lat="46.20649" lon="6.58055">
        <ele>1169.1</ele>
        <time>2019-02-08T09:02:55Z</time>
      </trkpt>
      <trkpt lat="46.20645" lon="6.58063">
        <ele>1171.02</ele>
        <time>2019-02-08T09:03:06Z</time>
      </trkpt>
      <trkpt lat="46.20641" lon="6.58073">
        <ele>1170.54</ele>
        <time>2019-02-08T09:03:17Z</time>
      </trkpt>
      <trkpt lat="46.20635" lon="6.58081">
        <ele>1170.54</ele>
        <time>2019-02-08T09:03:28Z</time>
      </trkpt>
      <trkpt lat="46.2063" lon="6.58088">
        <ele>1170.54</ele>
        <time>2019-02-08T09:03:37Z</time>
      </trkpt>
      <trkpt lat="46.20623" lon="6.58099">
        <ele>1170.06</ele>
        <time>2019-02-08T09:03:48Z</time>
      </trkpt>
      <trkpt lat="46.20619" lon="6.5811">
        <ele>1170.06</ele>
        <time>2019-02-08T09:03:59Z</time>
      </trkpt>
      <trkpt lat="46.20611" lon="6.58117">
        <ele>1171.02</ele>
        <time>2019-02-08T09:04:10Z</time>
      </trkpt>
      <trkpt lat="46.20604" lon="6.58126">
        <ele>1171.02</ele>
        <time>2019-02-08T09:04:22Z</time>
      </trkpt>
      <trkpt lat="46.20602" lon="6.58133">
        <ele>1171.5</ele>
        <time>2019-02-08T09:04:34Z</time>
      </trkpt>
      <trkpt lat="46.20602" lon="6.58137">
        <ele>1171.5</ele>
        <time>2019-02-08T09:04:44Z</time>
      </trkpt>
      <trkpt lat="46.20601" lon="6.58136">
        <ele>1171.98</ele>
        <time>2019-02-08T09:04:58Z</time>
      </trkpt>
      <trkpt lat="46.20601" lon="6.58136">
        <ele>1172.47</ele>
        <time>2019-02-08T09:05:07Z</time>
      </trkpt>
      <trkpt lat="46.20599" lon="6.5814">
        <ele>1171.98</ele>
        <time>2019-02-08T09:05:21Z</time>
      </trkpt>
      <trkpt lat="46.2059" lon="6.58145">
        <ele>1172.95</ele>
        <time>2019-02-08T09:05:32Z</time>
      </trkpt>
      <trkpt lat="46.20584" lon="6.58153">
        <ele>1173.91</ele>
        <time>2019-02-08T09:05:42Z</time>
      </trkpt>
      <trkpt lat="46.20583" lon="6.58159">
        <ele>1174.87</ele>
        <time>2019-02-08T09:05:50Z</time>
      </trkpt>
      <trkpt lat="46.20582" lon="6.58163">
        <ele>1173.91</ele>
        <time>2019-02-08T09:05:54Z</time>
      </trkpt>
      <trkpt lat="46.20577" lon="6.58166">
        <ele>1175.35</ele>
        <time>2019-02-08T09:06:02Z</time>
      </trkpt>
      <trkpt lat="46.20576" lon="6.58174">
        <ele>1175.83</ele>
        <time>2019-02-08T09:06:10Z</time>
      </trkpt>
      <trkpt lat="46.20575" lon="6.58175">
        <ele>1176.31</ele>
        <time>2019-02-08T09:06:15Z</time>
      </trkpt>
      <trkpt lat="46.20573" lon="6.58192">
        <ele>1176.79</ele>
        <time>2019-02-08T09:06:28Z</time>
      </trkpt>
      <trkpt lat="46.20569" lon="6.582">
        <ele>1177.75</ele>
        <time>2019-02-08T09:06:37Z</time>
      </trkpt>
      <trkpt lat="46.20568" lon="6.5821">
        <ele>1178.71</ele>
        <time>2019-02-08T09:06:47Z</time>
      </trkpt>
      <trkpt lat="46.20567" lon="6.58211">
        <ele>1179.19</ele>
        <time>2019-02-08T09:06:48Z</time>
      </trkpt>
      <trkpt lat="46.20563" lon="6.5822">
        <ele>1180.16</ele>
        <time>2019-02-08T09:07:02Z</time>
      </trkpt>
      <trkpt lat="46.20563" lon="6.58221">
        <ele>1180.64</ele>
        <time>2019-02-08T09:07:14Z</time>
      </trkpt>
      <trkpt lat="46.20563" lon="6.58232">
        <ele>1182.08</ele>
        <time>2019-02-08T09:07:26Z</time>
      </trkpt>
      <trkpt lat="46.20558" lon="6.58246">
        <ele>1182.56</ele>
        <time>2019-02-08T09:07:40Z</time>
      </trkpt>
      <trkpt lat="46.20555" lon="6.58255">
        <ele>1183.52</ele>
        <time>2019-02-08T09:07:53Z</time>
      </trkpt>
      <trkpt lat="46.20545" lon="6.58253">
        <ele>1183.52</ele>
        <time>2019-02-08T09:08:06Z</time>
      </trkpt>
      <trkpt lat="46.20543" lon="6.5825">
        <ele>1183.04</ele>
        <time>2019-02-08T09:08:10Z</time>
      </trkpt>
      <trkpt lat="46.20542" lon="6.58239">
        <ele>1181.12</ele>
        <time>2019-02-08T09:08:22Z</time>
      </trkpt>
      <trkpt lat="46.20542" lon="6.58238">
        <ele>1181.12</ele>
        <time>2019-02-08T09:08:23Z</time>
      </trkpt>
      <trkpt lat="46.20544" lon="6.5823">
        <ele>1180.64</ele>
        <time>2019-02-08T09:08:33Z</time>
      </trkpt>
      <trkpt lat="46.20544" lon="6.58224">
        <ele>1180.16</ele>
        <time>2019-02-08T09:08:44Z</time>
      </trkpt>
      <trkpt lat="46.20542" lon="6.58221">
        <ele>1180.16</ele>
        <time>2019-02-08T09:08:46Z</time>
      </trkpt>
      <trkpt lat="46.20537" lon="6.58218">
        <ele>1181.12</ele>
        <time>2019-02-08T09:08:56Z</time>
      </trkpt>
      <trkpt lat="46.20535" lon="6.58214">
        <ele>1183.04</ele>
        <time>2019-02-08T09:09:10Z</time>
      </trkpt>
      <trkpt lat="46.20535" lon="6.58208">
        <ele>1184</ele>
        <time>2019-02-08T09:09:23Z</time>
      </trkpt>
      <trkpt lat="46.20527" lon="6.58201">
        <ele>1184.96</ele>
        <time>2019-02-08T09:09:35Z</time>
      </trkpt>
      <trkpt lat="46.20518" lon="6.58196">
        <ele>1184.48</ele>
        <time>2019-02-08T09:09:48Z</time>
      </trkpt>
      <trkpt lat="46.20512" lon="6.58196">
        <ele>1185.44</ele>
        <time>2019-02-08T09:10:03Z</time>
      </trkpt>
      <trkpt lat="46.20512" lon="6.58196">
        <ele>1186.88</ele>
        <time>2019-02-08T09:10:16Z</time>
      </trkpt>
      <trkpt lat="46.20502" lon="6.58195">
        <ele>1186.88</ele>
        <time>2019-02-08T09:10:25Z</time>
      </trkpt>
      <trkpt lat="46.20497" lon="6.58184">
        <ele>1187.37</ele>
        <time>2019-02-08T09:10:37Z</time>
      </trkpt>
      <trkpt lat="46.20492" lon="6.5818">
        <ele>1187.37</ele>
        <time>2019-02-08T09:10:51Z</time>
      </trkpt>
      <trkpt lat="46.20492" lon="6.5818">
        <ele>1188.33</ele>
        <time>2019-02-08T09:11:13Z</time>
      </trkpt>
      <trkpt lat="46.20491" lon="6.58179">
        <ele>1187.37</ele>
        <time>2019-02-08T09:12:17Z</time>
      </trkpt>
      <trkpt lat="46.20491" lon="6.58176">
        <ele>1188.33</ele>
        <time>2019-02-08T09:12:31Z</time>
      </trkpt>
      <trkpt lat="46.20491" lon="6.58175">
        <ele>1186.88</ele>
        <time>2019-02-08T09:12:44Z</time>
      </trkpt>
      <trkpt lat="46.20491" lon="6.58175">
        <ele>1187.85</ele>
        <time>2019-02-08T09:13:07Z</time>
      </trkpt>
      <trkpt lat="46.2049" lon="6.58175">
        <ele>1187.37</ele>
        <time>2019-02-08T09:15:05Z</time>
      </trkpt>
      <trkpt lat="46.20489" lon="6.58175">
        <ele>1187.85</ele>
        <time>2019-02-08T09:15:50Z</time>
      </trkpt>
      <trkpt lat="46.20486" lon="6.58173">
        <ele>1188.33</ele>
        <time>2019-02-08T09:16:00Z</time>
      </trkpt>
      <trkpt lat="46.2048" lon="6.58182">
        <ele>1189.77</ele>
        <time>2019-02-08T09:16:10Z</time>
      </trkpt>
      <trkpt lat="46.20478" lon="6.58193">
        <ele>1190.25</ele>
        <time>2019-02-08T09:16:20Z</time>
      </trkpt>
      <trkpt lat="46.20472" lon="6.58199">
        <ele>1191.21</ele>
        <time>2019-02-08T09:16:33Z</time>
      </trkpt>
      <trkpt lat="46.20469" lon="6.58201">
        <ele>1192.17</ele>
        <time>2019-02-08T09:16:40Z</time>
      </trkpt>
      <trkpt lat="46.20464" lon="6.58202">
        <ele>1193.13</ele>
        <time>2019-02-08T09:16:51Z</time>
      </trkpt>
      <trkpt lat="46.20459" lon="6.58206">
        <ele>1193.61</ele>
        <time>2019-02-08T09:17:01Z</time>
      </trkpt>
      <trkpt lat="46.20455" lon="6.5821">
        <ele>1195.06</ele>
        <time>2019-02-08T09:17:12Z</time>
      </trkpt>
      <trkpt lat="46.20453" lon="6.58214">
        <ele>1196.02</ele>
        <time>2019-02-08T09:17:25Z</time>
      </trkpt>
      <trkpt lat="46.20452" lon="6.58216">
        <ele>1196.5</ele>
        <time>2019-02-08T09:17:37Z</time>
      </trkpt>
      <trkpt lat="46.20452" lon="6.58216">
        <ele>1198.42</ele>
        <time>2019-02-08T09:17:48Z</time>
      </trkpt>
      <trkpt lat="46.20452" lon="6.58218">
        <ele>1198.9</ele>
        <time>2019-02-08T09:17:59Z</time>
      </trkpt>
      <trkpt lat="46.20444" lon="6.58234">
        <ele>1200.34</ele>
        <time>2019-02-08T09:18:11Z</time>
      </trkpt>
      <trkpt lat="46.20437" lon="6.58246">
        <ele>1201.3</ele>
        <time>2019-02-08T09:18:23Z</time>
      </trkpt>
      <trkpt lat="46.20435" lon="6.58246">
        <ele>1201.79</ele>
        <time>2019-02-08T09:18:27Z</time>
      </trkpt>
      <trkpt lat="46.20428" lon="6.5824">
        <ele>1201.79</ele>
        <time>2019-02-08T09:18:35Z</time>
      </trkpt>
      <trkpt lat="46.20419" lon="6.58237">
        <ele>1202.27</ele>
        <time>2019-02-08T09:18:46Z</time>
      </trkpt>
      <trkpt lat="46.20418" lon="6.58235">
        <ele>1202.27</ele>
        <time>2019-02-08T09:18:48Z</time>
      </trkpt>
      <trkpt lat="46.20411" lon="6.58233">
        <ele>1203.23</ele>
        <time>2019-02-08T09:19:00Z</time>
      </trkpt>
      <trkpt lat="46.20408" lon="6.58235">
        <ele>1204.67</ele>
        <time>2019-02-08T09:19:14Z</time>
      </trkpt>
      <trkpt lat="46.20402" lon="6.58238">
        <ele>1206.11</ele>
        <time>2019-02-08T09:19:26Z</time>
      </trkpt>
      <trkpt lat="46.20396" lon="6.58234">
        <ele>1207.55</ele>
        <time>2019-02-08T09:19:42Z</time>
      </trkpt>
      <trkpt lat="46.2039" lon="6.58232">
        <ele>1208.51</ele>
        <time>2019-02-08T09:19:53Z</time>
      </trkpt>
      <trkpt lat="46.20386" lon="6.58231">
        <ele>1209.48</ele>
        <time>2019-02-08T09:20:03Z</time>
      </trkpt>
      <trkpt lat="46.20386" lon="6.58228">
        <ele>1209.96</ele>
        <time>2019-02-08T09:20:14Z</time>
      </trkpt>
      <trkpt lat="46.20388" lon="6.58218">
        <ele>1212.36</ele>
        <time>2019-02-08T09:20:30Z</time>
      </trkpt>
      <trkpt lat="46.20385" lon="6.5821">
        <ele>1213.32</ele>
        <time>2019-02-08T09:20:42Z</time>
      </trkpt>
      <trkpt lat="46.20381" lon="6.58196">
        <ele>1213.32</ele>
        <time>2019-02-08T09:20:53Z</time>
      </trkpt>
      <trkpt lat="46.20378" lon="6.58184">
        <ele>1214.28</ele>
        <time>2019-02-08T09:21:04Z</time>
      </trkpt>
      <trkpt lat="46.20375" lon="6.58174">
        <ele>1215.72</ele>
        <time>2019-02-08T09:21:16Z</time>
      </trkpt>
      <trkpt lat="46.20367" lon="6.58166">
        <ele>1216.69</ele>
        <time>2019-02-08T09:21:27Z</time>
      </trkpt>
      <trkpt lat="46.20361" lon="6.58161">
        <ele>1217.65</ele>
        <time>2019-02-08T09:21:40Z</time>
      </trkpt>
      <trkpt lat="46.20355" lon="6.58159">
        <ele>1218.61</ele>
        <time>2019-02-08T09:21:50Z</time>
      </trkpt>
      <trkpt lat="46.20351" lon="6.58159">
        <ele>1219.09</ele>
        <time>2019-02-08T09:21:59Z</time>
      </trkpt>
      <trkpt lat="46.20351" lon="6.58159">
        <ele>1219.09</ele>
        <time>2019-02-08T09:22:15Z</time>
      </trkpt>
      <trkpt lat="46.20352" lon="6.58159">
        <ele>1218.13</ele>
        <time>2019-02-08T09:22:52Z</time>
      </trkpt>
      <trkpt lat="46.2035" lon="6.58159">
        <ele>1218.61</ele>
        <time>2019-02-08T09:26:00Z</time>
      </trkpt>
      <trkpt lat="46.2035" lon="6.58158">
        <ele>1218.61</ele>
        <time>2019-02-08T09:26:39Z</time>
      </trkpt>
      <trkpt lat="46.20343" lon="6.58159">
        <ele>1218.61</ele>
        <time>2019-02-08T09:27:29Z</time>
      </trkpt>
      <trkpt lat="46.20338" lon="6.58163">
        <ele>1219.09</ele>
        <time>2019-02-08T09:27:35Z</time>
      </trkpt>
      <trkpt lat="46.20336" lon="6.58164">
        <ele>1220.05</ele>
        <time>2019-02-08T09:27:40Z</time>
      </trkpt>
      <trkpt lat="46.20329" lon="6.58169">
        <ele>1220.53</ele>
        <time>2019-02-08T09:27:52Z</time>
      </trkpt>
      <trkpt lat="46.20326" lon="6.58176">
        <ele>1221.97</ele>
        <time>2019-02-08T09:28:03Z</time>
      </trkpt>
      <trkpt lat="46.20324" lon="6.5818">
        <ele>1221.97</ele>
        <time>2019-02-08T09:28:08Z</time>
      </trkpt>
      <trkpt lat="46.2032" lon="6.58187">
        <ele>1223.42</ele>
        <time>2019-02-08T09:28:19Z</time>
      </trkpt>
      <trkpt lat="46.20316" lon="6.58199">
        <ele>1224.38</ele>
        <time>2019-02-08T09:28:29Z</time>
      </trkpt>
      <trkpt lat="46.20318" lon="6.58215">
        <ele>1225.34</ele>
        <time>2019-02-08T09:28:42Z</time>
      </trkpt>
      <trkpt lat="46.20319" lon="6.58217">
        <ele>1225.82</ele>
        <time>2019-02-08T09:28:46Z</time>
      </trkpt>
      <trkpt lat="46.20321" lon="6.58234">
        <ele>1227.26</ele>
        <time>2019-02-08T09:28:59Z</time>
      </trkpt>
      <trkpt lat="46.20322" lon="6.58245">
        <ele>1228.22</ele>
        <time>2019-02-08T09:29:10Z</time>
      </trkpt>
      <trkpt lat="46.20327" lon="6.58255">
        <ele>1229.66</ele>
        <time>2019-02-08T09:29:22Z</time>
      </trkpt>
      <trkpt lat="46.2033" lon="6.58264">
        <ele>1230.14</ele>
        <time>2019-02-08T09:29:32Z</time>
      </trkpt>
      <trkpt lat="46.20334" lon="6.58268">
        <ele>1231.59</ele>
        <time>2019-02-08T09:29:43Z</time>
      </trkpt>
      <trkpt lat="46.20339" lon="6.58272">
        <ele>1232.55</ele>
        <time>2019-02-08T09:29:55Z</time>
      </trkpt>
      <trkpt lat="46.20343" lon="6.58276">
        <ele>1233.51</ele>
        <time>2019-02-08T09:30:03Z</time>
      </trkpt>
      <trkpt lat="46.20351" lon="6.58279">
        <ele>1235.43</ele>
        <time>2019-02-08T09:30:15Z</time>
      </trkpt>
      <trkpt lat="46.20363" lon="6.58286">
        <ele>1236.87</ele>
        <time>2019-02-08T09:30:29Z</time>
      </trkpt>
      <trkpt lat="46.20364" lon="6.58287">
        <ele>1237.35</ele>
        <time>2019-02-08T09:30:32Z</time>
      </trkpt>
      <trkpt lat="46.20372" lon="6.58294">
        <ele>1238.32</ele>
        <time>2019-02-08T09:30:43Z</time>
      </trkpt>
      <trkpt lat="46.20379" lon="6.58301">
        <ele>1239.76</ele>
        <time>2019-02-08T09:30:54Z</time>
      </trkpt>
      <trkpt lat="46.20386" lon="6.58309">
        <ele>1241.2</ele>
        <time>2019-02-08T09:31:05Z</time>
      </trkpt>
      <trkpt lat="46.20391" lon="6.58318">
        <ele>1241.68</ele>
        <time>2019-02-08T09:31:16Z</time>
      </trkpt>
      <trkpt lat="46.20393" lon="6.58322">
        <ele>1242.16</ele>
        <time>2019-02-08T09:31:20Z</time>
      </trkpt>
      <trkpt lat="46.20393" lon="6.5833">
        <ele>1242.64</ele>
        <time>2019-02-08T09:31:26Z</time>
      </trkpt>
      <trkpt lat="46.20393" lon="6.58334">
        <ele>1242.64</ele>
        <time>2019-02-08T09:31:29Z</time>
      </trkpt>
      <trkpt lat="46.20389" lon="6.58341">
        <ele>1244.08</ele>
        <time>2019-02-08T09:31:37Z</time>
      </trkpt>
      <trkpt lat="46.2038" lon="6.58345">
        <ele>1244.08</ele>
        <time>2019-02-08T09:31:47Z</time>
      </trkpt>
      <trkpt lat="46.20378" lon="6.58345">
        <ele>1244.08</ele>
        <time>2019-02-08T09:31:54Z</time>
      </trkpt>
      <trkpt lat="46.20374" lon="6.58347">
        <ele>1244.56</ele>
        <time>2019-02-08T09:31:58Z</time>
      </trkpt>
      <trkpt lat="46.20368" lon="6.58348">
        <ele>1245.04</ele>
        <time>2019-02-08T09:32:08Z</time>
      </trkpt>
      <trkpt lat="46.20368" lon="6.58348">
        <ele>1245.04</ele>
        <time>2019-02-08T09:32:10Z</time>
      </trkpt>
      <trkpt lat="46.20352" lon="6.58357">
        <ele>1245.53</ele>
        <time>2019-02-08T09:32:21Z</time>
      </trkpt>
      <trkpt lat="46.20348" lon="6.58361">
        <ele>1246.01</ele>
        <time>2019-02-08T09:32:26Z</time>
      </trkpt>
      <trkpt lat="46.20344" lon="6.58365">
        <ele>1246.01</ele>
        <time>2019-02-08T09:32:31Z</time>
      </trkpt>
      <trkpt lat="46.20336" lon="6.58372">
        <ele>1245.53</ele>
        <time>2019-02-08T09:32:40Z</time>
      </trkpt>
      <trkpt lat="46.20325" lon="6.58375">
        <ele>1246.01</ele>
        <time>2019-02-08T09:32:52Z</time>
      </trkpt>
      <trkpt lat="46.20321" lon="6.58368">
        <ele>1246.01</ele>
        <time>2019-02-08T09:33:04Z</time>
      </trkpt>
      <trkpt lat="46.20319" lon="6.58366">
        <ele>1246.97</ele>
        <time>2019-02-08T09:33:20Z</time>
      </trkpt>
      <trkpt lat="46.20318" lon="6.58366">
        <ele>1247.45</ele>
        <time>2019-02-08T09:33:42Z</time>
      </trkpt>
      <trkpt lat="46.20319" lon="6.58365">
        <ele>1247.45</ele>
        <time>2019-02-08T09:34:47Z</time>
      </trkpt>
      <trkpt lat="46.20316" lon="6.58363">
        <ele>1247.45</ele>
        <time>2019-02-08T09:35:19Z</time>
      </trkpt>
      <trkpt lat="46.20319" lon="6.58365">
        <ele>1246.97</ele>
        <time>2019-02-08T09:35:42Z</time>
      </trkpt>
      <trkpt lat="46.20319" lon="6.58365">
        <ele>1247.45</ele>
        <time>2019-02-08T09:36:20Z</time>
      </trkpt>
      <trkpt lat="46.20319" lon="6.58364">
        <ele>1246.97</ele>
        <time>2019-02-08T09:38:00Z</time>
      </trkpt>
      <trkpt lat="46.20318" lon="6.58363">
        <ele>1247.93</ele>
        <time>2019-02-08T09:38:25Z</time>
      </trkpt>
      <trkpt lat="46.20318" lon="6.58363">
        <ele>1248.41</ele>
        <time>2019-02-08T09:40:05Z</time>
      </trkpt>
      <trkpt lat="46.20319" lon="6.58371">
        <ele>1248.89</ele>
        <time>2019-02-08T09:42:02Z</time>
      </trkpt>
      <trkpt lat="46.20319" lon="6.58373">
        <ele>1248.41</ele>
        <time>2019-02-08T09:42:04Z</time>
      </trkpt>
      <trkpt lat="46.20318" lon="6.58385">
        <ele>1247.93</ele>
        <time>2019-02-08T09:42:14Z</time>
      </trkpt>
      <trkpt lat="46.20313" lon="6.58389">
        <ele>1248.41</ele>
        <time>2019-02-08T09:42:22Z</time>
      </trkpt>
      <trkpt lat="46.2031" lon="6.58393">
        <ele>1248.41</ele>
        <time>2019-02-08T09:42:25Z</time>
      </trkpt>
      <trkpt lat="46.20309" lon="6.58394">
        <ele>1248.41</ele>
        <time>2019-02-08T09:42:26Z</time>
      </trkpt>
      <trkpt lat="46.20302" lon="6.58402">
        <ele>1247.93</ele>
        <time>2019-02-08T09:42:34Z</time>
      </trkpt>
      <trkpt lat="46.203" lon="6.58404">
        <ele>1248.41</ele>
        <time>2019-02-08T09:42:36Z</time>
      </trkpt>
      <trkpt lat="46.20298" lon="6.58406">
        <ele>1248.41</ele>
        <time>2019-02-08T09:42:38Z</time>
      </trkpt>
      <trkpt lat="46.20292" lon="6.58411">
        <ele>1248.89</ele>
        <time>2019-02-08T09:42:45Z</time>
      </trkpt>
      <trkpt lat="46.20284" lon="6.58417">
        <ele>1248.89</ele>
        <time>2019-02-08T09:42:56Z</time>
      </trkpt>
      <trkpt lat="46.20276" lon="6.58421">
        <ele>1248.89</ele>
        <time>2019-02-08T09:43:03Z</time>
      </trkpt>
      <trkpt lat="46.20265" lon="6.58429">
        <ele>1248.89</ele>
        <time>2019-02-08T09:43:14Z</time>
      </trkpt>
      <trkpt lat="46.20254" lon="6.58436">
        <ele>1249.37</ele>
        <time>2019-02-08T09:43:26Z</time>
      </trkpt>
      <trkpt lat="46.20247" lon="6.58441">
        <ele>1249.37</ele>
        <time>2019-02-08T09:43:36Z</time>
      </trkpt>
      <trkpt lat="46.20239" lon="6.58447">
        <ele>1249.85</ele>
        <time>2019-02-08T09:43:46Z</time>
      </trkpt>
      <trkpt lat="46.20231" lon="6.58451">
        <ele>1250.33</ele>
        <time>2019-02-08T09:43:55Z</time>
      </trkpt>
      <trkpt lat="46.20225" lon="6.58454">
        <ele>1250.33</ele>
        <time>2019-02-08T09:44:06Z</time>
      </trkpt>
      <trkpt lat="46.20218" lon="6.58459">
        <ele>1250.81</ele>
        <time>2019-02-08T09:44:15Z</time>
      </trkpt>
      <trkpt lat="46.20217" lon="6.58459">
        <ele>1250.81</ele>
        <time>2019-02-08T09:44:16Z</time>
      </trkpt>
      <trkpt lat="46.20209" lon="6.58466">
        <ele>1251.77</ele>
        <time>2019-02-08T09:44:28Z</time>
      </trkpt>
      <trkpt lat="46.20205" lon="6.5847">
        <ele>1252.25</ele>
        <time>2019-02-08T09:44:33Z</time>
      </trkpt>
      <trkpt lat="46.20204" lon="6.58471">
        <ele>1252.74</ele>
        <time>2019-02-08T09:44:35Z</time>
      </trkpt>
      <trkpt lat="46.20203" lon="6.58475">
        <ele>1253.22</ele>
        <time>2019-02-08T09:44:39Z</time>
      </trkpt>
      <trkpt lat="46.20196" lon="6.58484">
        <ele>1254.18</ele>
        <time>2019-02-08T09:44:51Z</time>
      </trkpt>
      <trkpt lat="46.20194" lon="6.58486">
        <ele>1254.66</ele>
        <time>2019-02-08T09:44:54Z</time>
      </trkpt>
      <trkpt lat="46.20184" lon="6.58497">
        <ele>1256.1</ele>
        <time>2019-02-08T09:45:07Z</time>
      </trkpt>
      <trkpt lat="46.20183" lon="6.58498">
        <ele>1256.1</ele>
        <time>2019-02-08T09:45:08Z</time>
      </trkpt>
      <trkpt lat="46.20177" lon="6.58505">
        <ele>1256.58</ele>
        <time>2019-02-08T09:45:18Z</time>
      </trkpt>
      <trkpt lat="46.20173" lon="6.58512">
        <ele>1257.54</ele>
        <time>2019-02-08T09:45:26Z</time>
      </trkpt>
      <trkpt lat="46.20163" lon="6.58516">
        <ele>1258.5</ele>
        <time>2019-02-08T09:45:37Z</time>
      </trkpt>
      <trkpt lat="46.20161" lon="6.58517">
        <ele>1258.5</ele>
        <time>2019-02-08T09:45:39Z</time>
      </trkpt>
      <trkpt lat="46.20154" lon="6.5852">
        <ele>1258.5</ele>
        <time>2019-02-08T09:45:48Z</time>
      </trkpt>
      <trkpt lat="46.20149" lon="6.58522">
        <ele>1259.94</ele>
        <time>2019-02-08T09:45:54Z</time>
      </trkpt>
      <trkpt lat="46.20143" lon="6.58528">
        <ele>1259.94</ele>
        <time>2019-02-08T09:46:05Z</time>
      </trkpt>
      <trkpt lat="46.20138" lon="6.5853">
        <ele>1261.39</ele>
        <time>2019-02-08T09:46:16Z</time>
      </trkpt>
      <trkpt lat="46.20137" lon="6.5853">
        <ele>1262.83</ele>
        <time>2019-02-08T09:46:21Z</time>
      </trkpt>
      <trkpt lat="46.20128" lon="6.58532">
        <ele>1263.31</ele>
        <time>2019-02-08T09:46:31Z</time>
      </trkpt>
      <trkpt lat="46.20119" lon="6.58535">
        <ele>1264.27</ele>
        <time>2019-02-08T09:46:42Z</time>
      </trkpt>
      <trkpt lat="46.20113" lon="6.58539">
        <ele>1265.23</ele>
        <time>2019-02-08T09:46:50Z</time>
      </trkpt>
      <trkpt lat="46.20106" lon="6.58542">
        <ele>1265.71</ele>
        <time>2019-02-08T09:47:00Z</time>
      </trkpt>
      <trkpt lat="46.20105" lon="6.58543">
        <ele>1266.19</ele>
        <time>2019-02-08T09:47:03Z</time>
      </trkpt>
      <trkpt lat="46.20097" lon="6.58545">
        <ele>1267.64</ele>
        <time>2019-02-08T09:47:14Z</time>
      </trkpt>
      <trkpt lat="46.2009" lon="6.58547">
        <ele>1268.6</ele>
        <time>2019-02-08T09:47:24Z</time>
      </trkpt>
      <trkpt lat="46.20081" lon="6.58549">
        <ele>1269.08</ele>
        <time>2019-02-08T09:47:34Z</time>
      </trkpt>
      <trkpt lat="46.20075" lon="6.58553">
        <ele>1270.04</ele>
        <time>2019-02-08T09:47:43Z</time>
      </trkpt>
      <trkpt lat="46.20068" lon="6.58554">
        <ele>1271</ele>
        <time>2019-02-08T09:47:55Z</time>
      </trkpt>
      <trkpt lat="46.2006" lon="6.58554">
        <ele>1271.96</ele>
        <time>2019-02-08T09:48:04Z</time>
      </trkpt>
      <trkpt lat="46.2005" lon="6.58556">
        <ele>1272.44</ele>
        <time>2019-02-08T09:48:15Z</time>
      </trkpt>
      <trkpt lat="46.20038" lon="6.58556">
        <ele>1273.4</ele>
        <time>2019-02-08T09:48:27Z</time>
      </trkpt>
      <trkpt lat="46.20033" lon="6.58555">
        <ele>1273.88</ele>
        <time>2019-02-08T09:48:36Z</time>
      </trkpt>
      <trkpt lat="46.2003" lon="6.58554">
        <ele>1275.33</ele>
        <time>2019-02-08T09:48:40Z</time>
      </trkpt>
      <trkpt lat="46.20024" lon="6.58547">
        <ele>1275.33</ele>
        <time>2019-02-08T09:48:52Z</time>
      </trkpt>
      <trkpt lat="46.20016" lon="6.58539">
        <ele>1277.25</ele>
        <time>2019-02-08T09:49:03Z</time>
      </trkpt>
      <trkpt lat="46.20011" lon="6.58536">
        <ele>1277.73</ele>
        <time>2019-02-08T09:49:10Z</time>
      </trkpt>
      <trkpt lat="46.20006" lon="6.58526">
        <ele>1278.21</ele>
        <time>2019-02-08T09:49:21Z</time>
      </trkpt>
      <trkpt lat="46.20004" lon="6.5851">
        <ele>1279.65</ele>
        <time>2019-02-08T09:49:32Z</time>
      </trkpt>
      <trkpt lat="46.20003" lon="6.58501">
        <ele>1280.13</ele>
        <time>2019-02-08T09:49:44Z</time>
      </trkpt>
      <trkpt lat="46.19996" lon="6.58493">
        <ele>1281.09</ele>
        <time>2019-02-08T09:49:56Z</time>
      </trkpt>
      <trkpt lat="46.19991" lon="6.58486">
        <ele>1281.09</ele>
        <time>2019-02-08T09:50:07Z</time>
      </trkpt>
      <trkpt lat="46.19987" lon="6.58486">
        <ele>1281.57</ele>
        <time>2019-02-08T09:50:11Z</time>
      </trkpt>
      <trkpt lat="46.19979" lon="6.58491">
        <ele>1282.54</ele>
        <time>2019-02-08T09:50:22Z</time>
      </trkpt>
      <trkpt lat="46.19974" lon="6.58495">
        <ele>1283.02</ele>
        <time>2019-02-08T09:50:32Z</time>
      </trkpt>
      <trkpt lat="46.19968" lon="6.58501">
        <ele>1283.98</ele>
        <time>2019-02-08T09:50:41Z</time>
      </trkpt>
      <trkpt lat="46.19961" lon="6.58508">
        <ele>1283.98</ele>
        <time>2019-02-08T09:50:53Z</time>
      </trkpt>
      <trkpt lat="46.19956" lon="6.58513">
        <ele>1284.94</ele>
        <time>2019-02-08T09:51:03Z</time>
      </trkpt>
      <trkpt lat="46.1995" lon="6.58522">
        <ele>1285.42</ele>
        <time>2019-02-08T09:51:14Z</time>
      </trkpt>
      <trkpt lat="46.19945" lon="6.58529">
        <ele>1285.9</ele>
        <time>2019-02-08T09:51:24Z</time>
      </trkpt>
      <trkpt lat="46.19941" lon="6.58538">
        <ele>1286.38</ele>
        <time>2019-02-08T09:51:34Z</time>
      </trkpt>
      <trkpt lat="46.1994" lon="6.58539">
        <ele>1286.86</ele>
        <time>2019-02-08T09:51:35Z</time>
      </trkpt>
      <trkpt lat="46.19938" lon="6.58543">
        <ele>1287.34</ele>
        <time>2019-02-08T09:51:40Z</time>
      </trkpt>
      <trkpt lat="46.19935" lon="6.58552">
        <ele>1287.34</ele>
        <time>2019-02-08T09:51:51Z</time>
      </trkpt>
      <trkpt lat="46.19928" lon="6.58563">
        <ele>1288.3</ele>
        <time>2019-02-08T09:52:02Z</time>
      </trkpt>
      <trkpt lat="46.19923" lon="6.58573">
        <ele>1288.78</ele>
        <time>2019-02-08T09:52:13Z</time>
      </trkpt>
      <trkpt lat="46.19923" lon="6.58581">
        <ele>1289.75</ele>
        <time>2019-02-08T09:52:22Z</time>
      </trkpt>
      <trkpt lat="46.19922" lon="6.58584">
        <ele>1289.75</ele>
        <time>2019-02-08T09:52:24Z</time>
      </trkpt>
      <trkpt lat="46.19919" lon="6.58592">
        <ele>1290.71</ele>
        <time>2019-02-08T09:52:32Z</time>
      </trkpt>
      <trkpt lat="46.19917" lon="6.58603">
        <ele>1291.19</ele>
        <time>2019-02-08T09:52:43Z</time>
      </trkpt>
      <trkpt lat="46.19917" lon="6.58611">
        <ele>1291.67</ele>
        <time>2019-02-08T09:52:53Z</time>
      </trkpt>
      <trkpt lat="46.19917" lon="6.58618">
        <ele>1293.11</ele>
        <time>2019-02-08T09:53:00Z</time>
      </trkpt>
      <trkpt lat="46.19915" lon="6.58621">
        <ele>1293.11</ele>
        <time>2019-02-08T09:53:03Z</time>
      </trkpt>
      <trkpt lat="46.19912" lon="6.58631">
        <ele>1294.07</ele>
        <time>2019-02-08T09:53:13Z</time>
      </trkpt>
      <trkpt lat="46.19912" lon="6.58637">
        <ele>1294.55</ele>
        <time>2019-02-08T09:53:19Z</time>
      </trkpt>
      <trkpt lat="46.19913" lon="6.5864">
        <ele>1295.03</ele>
        <time>2019-02-08T09:53:23Z</time>
      </trkpt>
      <trkpt lat="46.19908" lon="6.58651">
        <ele>1295.51</ele>
        <time>2019-02-08T09:53:34Z</time>
      </trkpt>
      <trkpt lat="46.19907" lon="6.58663">
        <ele>1297.44</ele>
        <time>2019-02-08T09:53:46Z</time>
      </trkpt>
      <trkpt lat="46.19904" lon="6.58674">
        <ele>1298.4</ele>
        <time>2019-02-08T09:53:58Z</time>
      </trkpt>
      <trkpt lat="46.19903" lon="6.58684">
        <ele>1299.84</ele>
        <time>2019-02-08T09:54:10Z</time>
      </trkpt>
      <trkpt lat="46.19899" lon="6.58694">
        <ele>1300.32</ele>
        <time>2019-02-08T09:54:21Z</time>
      </trkpt>
      <trkpt lat="46.19898" lon="6.58697">
        <ele>1300.32</ele>
        <time>2019-02-08T09:54:25Z</time>
      </trkpt>
      <trkpt lat="46.19897" lon="6.58702">
        <ele>1301.76</ele>
        <time>2019-02-08T09:54:32Z</time>
      </trkpt>
      <trkpt lat="46.19895" lon="6.58708">
        <ele>1301.76</ele>
        <time>2019-02-08T09:54:40Z</time>
      </trkpt>
      <trkpt lat="46.19891" lon="6.58711">
        <ele>1302.24</ele>
        <time>2019-02-08T09:54:50Z</time>
      </trkpt>
      <trkpt lat="46.19892" lon="6.58711">
        <ele>1302.24</ele>
        <time>2019-02-08T09:55:09Z</time>
      </trkpt>
      <trkpt lat="46.19892" lon="6.58711">
        <ele>1301.76</ele>
        <time>2019-02-08T09:57:53Z</time>
      </trkpt>
      <trkpt lat="46.19891" lon="6.5871">
        <ele>1302.24</ele>
        <time>2019-02-08T09:58:58Z</time>
      </trkpt>
      <trkpt lat="46.19891" lon="6.58712">
        <ele>1302.72</ele>
        <time>2019-02-08T10:00:09Z</time>
      </trkpt>
      <trkpt lat="46.19892" lon="6.58712">
        <ele>1302.24</ele>
        <time>2019-02-08T10:00:51Z</time>
      </trkpt>
      <trkpt lat="46.19892" lon="6.58713">
        <ele>1302.72</ele>
        <time>2019-02-08T10:01:55Z</time>
      </trkpt>
      <trkpt lat="46.19886" lon="6.58717">
        <ele>1303.2</ele>
        <time>2019-02-08T10:02:23Z</time>
      </trkpt>
      <trkpt lat="46.19883" lon="6.58723">
        <ele>1304.17</ele>
        <time>2019-02-08T10:02:33Z</time>
      </trkpt>
      <trkpt lat="46.19878" lon="6.58733">
        <ele>1305.13</ele>
        <time>2019-02-08T10:02:44Z</time>
      </trkpt>
      <trkpt lat="46.19876" lon="6.58738">
        <ele>1305.61</ele>
        <time>2019-02-08T10:02:51Z</time>
      </trkpt>
      <trkpt lat="46.19874" lon="6.58742">
        <ele>1306.09</ele>
        <time>2019-02-08T10:02:56Z</time>
      </trkpt>
      <trkpt lat="46.19871" lon="6.58749">
        <ele>1306.57</ele>
        <time>2019-02-08T10:03:02Z</time>
      </trkpt>
      <trkpt lat="46.19867" lon="6.58756">
        <ele>1308.01</ele>
        <time>2019-02-08T10:03:12Z</time>
      </trkpt>
      <trkpt lat="46.19863" lon="6.58764">
        <ele>1308.49</ele>
        <time>2019-02-08T10:03:21Z</time>
      </trkpt>
      <trkpt lat="46.1986" lon="6.58772">
        <ele>1309.93</ele>
        <time>2019-02-08T10:03:30Z</time>
      </trkpt>
      <trkpt lat="46.19855" lon="6.5878">
        <ele>1311.38</ele>
        <time>2019-02-08T10:03:42Z</time>
      </trkpt>
      <trkpt lat="46.1985" lon="6.58789">
        <ele>1311.86</ele>
        <time>2019-02-08T10:03:53Z</time>
      </trkpt>
      <trkpt lat="46.19847" lon="6.58799">
        <ele>1312.34</ele>
        <time>2019-02-08T10:04:03Z</time>
      </trkpt>
      <trkpt lat="46.19842" lon="6.58805">
        <ele>1313.78</ele>
        <time>2019-02-08T10:04:12Z</time>
      </trkpt>
      <trkpt lat="46.19837" lon="6.58814">
        <ele>1315.22</ele>
        <time>2019-02-08T10:04:22Z</time>
      </trkpt>
      <trkpt lat="46.19832" lon="6.58821">
        <ele>1316.18</ele>
        <time>2019-02-08T10:04:33Z</time>
      </trkpt>
      <trkpt lat="46.19828" lon="6.5883">
        <ele>1316.66</ele>
        <time>2019-02-08T10:04:43Z</time>
      </trkpt>
      <trkpt lat="46.19827" lon="6.58834">
        <ele>1317.62</ele>
        <time>2019-02-08T10:04:47Z</time>
      </trkpt>
      <trkpt lat="46.19822" lon="6.5884">
        <ele>1318.1</ele>
        <time>2019-02-08T10:04:57Z</time>
      </trkpt>
      <trkpt lat="46.19819" lon="6.58841">
        <ele>1318.59</ele>
        <time>2019-02-08T10:05:02Z</time>
      </trkpt>
      <trkpt lat="46.19811" lon="6.58839">
        <ele>1320.03</ele>
        <time>2019-02-08T10:05:14Z</time>
      </trkpt>
      <trkpt lat="46.19804" lon="6.58834">
        <ele>1320.51</ele>
        <time>2019-02-08T10:05:25Z</time>
      </trkpt>
      <trkpt lat="46.19798" lon="6.58827">
        <ele>1321.95</ele>
        <time>2019-02-08T10:05:37Z</time>
      </trkpt>
      <trkpt lat="46.19793" lon="6.58818">
        <ele>1322.43</ele>
        <time>2019-02-08T10:05:48Z</time>
      </trkpt>
      <trkpt lat="46.19793" lon="6.58818">
        <ele>1322.43</ele>
        <time>2019-02-08T10:05:49Z</time>
      </trkpt>
      <trkpt lat="46.1979" lon="6.58815">
        <ele>1322.91</ele>
        <time>2019-02-08T10:05:55Z</time>
      </trkpt>
      <trkpt lat="46.19783" lon="6.58808">
        <ele>1323.87</ele>
        <time>2019-02-08T10:06:06Z</time>
      </trkpt>
      <trkpt lat="46.19777" lon="6.58803">
        <ele>1324.83</ele>
        <time>2019-02-08T10:06:15Z</time>
      </trkpt>
      <trkpt lat="46.19771" lon="6.58798">
        <ele>1325.31</ele>
        <time>2019-02-08T10:06:26Z</time>
      </trkpt>
      <trkpt lat="46.19766" lon="6.58795">
        <ele>1326.28</ele>
        <time>2019-02-08T10:06:36Z</time>
      </trkpt>
      <trkpt lat="46.19759" lon="6.58791">
        <ele>1327.72</ele>
        <time>2019-02-08T10:06:47Z</time>
      </trkpt>
      <trkpt lat="46.19754" lon="6.58785">
        <ele>1329.16</ele>
        <time>2019-02-08T10:06:59Z</time>
      </trkpt>
      <trkpt lat="46.19749" lon="6.58775">
        <ele>1330.12</ele>
        <time>2019-02-08T10:07:10Z</time>
      </trkpt>
      <trkpt lat="46.19745" lon="6.58766">
        <ele>1330.6</ele>
        <time>2019-02-08T10:07:21Z</time>
      </trkpt>
      <trkpt lat="46.19742" lon="6.58758">
        <ele>1332.04</ele>
        <time>2019-02-08T10:07:31Z</time>
      </trkpt>
      <trkpt lat="46.19738" lon="6.5875">
        <ele>1332.52</ele>
        <time>2019-02-08T10:07:41Z</time>
      </trkpt>
      <trkpt lat="46.19737" lon="6.58746">
        <ele>1332.52</ele>
        <time>2019-02-08T10:07:45Z</time>
      </trkpt>
      <trkpt lat="46.19732" lon="6.58741">
        <ele>1333.49</ele>
        <time>2019-02-08T10:07:51Z</time>
      </trkpt>
      <trkpt lat="46.19727" lon="6.58734">
        <ele>1333.49</ele>
        <time>2019-02-08T10:08:01Z</time>
      </trkpt>
      <trkpt lat="46.19725" lon="6.58733">
        <ele>1333.49</ele>
        <time>2019-02-08T10:08:03Z</time>
      </trkpt>
      <trkpt lat="46.19717" lon="6.58731">
        <ele>1334.93</ele>
        <time>2019-02-08T10:08:15Z</time>
      </trkpt>
      <trkpt lat="46.19712" lon="6.58733">
        <ele>1334.45</ele>
        <time>2019-02-08T10:08:23Z</time>
      </trkpt>
      <trkpt lat="46.19706" lon="6.58741">
        <ele>1336.37</ele>
        <time>2019-02-08T10:08:35Z</time>
      </trkpt>
      <trkpt lat="46.19703" lon="6.58748">
        <ele>1336.37</ele>
        <time>2019-02-08T10:08:43Z</time>
      </trkpt>
      <trkpt lat="46.19697" lon="6.58758">
        <ele>1336.85</ele>
        <time>2019-02-08T10:08:53Z</time>
      </trkpt>
      <trkpt lat="46.19696" lon="6.58763">
        <ele>1337.33</ele>
        <time>2019-02-08T10:08:58Z</time>
      </trkpt>
      <trkpt lat="46.19696" lon="6.58768">
        <ele>1337.33</ele>
        <time>2019-02-08T10:09:02Z</time>
      </trkpt>
      <trkpt lat="46.19692" lon="6.58774">
        <ele>1337.81</ele>
        <time>2019-02-08T10:09:07Z</time>
      </trkpt>
      <trkpt lat="46.1969" lon="6.58779">
        <ele>1337.81</ele>
        <time>2019-02-08T10:09:11Z</time>
      </trkpt>
      <trkpt lat="46.19689" lon="6.58789">
        <ele>1338.77</ele>
        <time>2019-02-08T10:09:19Z</time>
      </trkpt>
      <trkpt lat="46.19689" lon="6.58796">
        <ele>1339.25</ele>
        <time>2019-02-08T10:09:26Z</time>
      </trkpt>
      <trkpt lat="46.1969" lon="6.58807">
        <ele>1339.25</ele>
        <time>2019-02-08T10:09:37Z</time>
      </trkpt>
      <trkpt lat="46.19691" lon="6.58815">
        <ele>1340.22</ele>
        <time>2019-02-08T10:09:46Z</time>
      </trkpt>
      <trkpt lat="46.19691" lon="6.58823">
        <ele>1340.22</ele>
        <time>2019-02-08T10:09:54Z</time>
      </trkpt>
      <trkpt lat="46.19691" lon="6.58826">
        <ele>1341.18</ele>
        <time>2019-02-08T10:09:57Z</time>
      </trkpt>
      <trkpt lat="46.19685" lon="6.58833">
        <ele>1341.66</ele>
        <time>2019-02-08T10:10:08Z</time>
      </trkpt>
      <trkpt lat="46.1968" lon="6.58832">
        <ele>1341.66</ele>
        <time>2019-02-08T10:10:16Z</time>
      </trkpt>
      <trkpt lat="46.19678" lon="6.58826">
        <ele>1343.58</ele>
        <time>2019-02-08T10:10:24Z</time>
      </trkpt>
      <trkpt lat="46.19676" lon="6.58819">
        <ele>1343.1</ele>
        <time>2019-02-08T10:10:33Z</time>
      </trkpt>
      <trkpt lat="46.19672" lon="6.58808">
        <ele>1344.06</ele>
        <time>2019-02-08T10:10:44Z</time>
      </trkpt>
      <trkpt lat="46.19672" lon="6.58803">
        <ele>1344.54</ele>
        <time>2019-02-08T10:10:49Z</time>
      </trkpt>
      <trkpt lat="46.19668" lon="6.58795">
        <ele>1345.02</ele>
        <time>2019-02-08T10:10:58Z</time>
      </trkpt>
      <trkpt lat="46.19662" lon="6.58788">
        <ele>1345.98</ele>
        <time>2019-02-08T10:11:09Z</time>
      </trkpt>
      <trkpt lat="46.19659" lon="6.58782">
        <ele>1345.5</ele>
        <time>2019-02-08T10:11:17Z</time>
      </trkpt>
      <trkpt lat="46.19651" lon="6.58774">
        <ele>1346.46</ele>
        <time>2019-02-08T10:11:27Z</time>
      </trkpt>
      <trkpt lat="46.19646" lon="6.58767">
        <ele>1346.94</ele>
        <time>2019-02-08T10:11:37Z</time>
      </trkpt>
      <trkpt lat="46.1964" lon="6.58758">
        <ele>1347.43</ele>
        <time>2019-02-08T10:11:48Z</time>
      </trkpt>
      <trkpt lat="46.19633" lon="6.58748">
        <ele>1348.39</ele>
        <time>2019-02-08T10:12:00Z</time>
      </trkpt>
      <trkpt lat="46.19626" lon="6.58739">
        <ele>1348.87</ele>
        <time>2019-02-08T10:12:09Z</time>
      </trkpt>
      <trkpt lat="46.19619" lon="6.5873">
        <ele>1349.83</ele>
        <time>2019-02-08T10:12:20Z</time>
      </trkpt>
      <trkpt lat="46.19619" lon="6.58727">
        <ele>1349.83</ele>
        <time>2019-02-08T10:12:23Z</time>
      </trkpt>
      <trkpt lat="46.19616" lon="6.58716">
        <ele>1350.31</ele>
        <time>2019-02-08T10:12:32Z</time>
      </trkpt>
      <trkpt lat="46.19615" lon="6.58711">
        <ele>1350.79</ele>
        <time>2019-02-08T10:12:36Z</time>
      </trkpt>
      <trkpt lat="46.19615" lon="6.5871">
        <ele>1350.31</ele>
        <time>2019-02-08T10:12:37Z</time>
      </trkpt>
      <trkpt lat="46.19618" lon="6.58702">
        <ele>1350.79</ele>
        <time>2019-02-08T10:12:45Z</time>
      </trkpt>
      <trkpt lat="46.19617" lon="6.58698">
        <ele>1351.75</ele>
        <time>2019-02-08T10:12:49Z</time>
      </trkpt>
      <trkpt lat="46.19622" lon="6.58686">
        <ele>1351.75</ele>
        <time>2019-02-08T10:13:00Z</time>
      </trkpt>
      <trkpt lat="46.19626" lon="6.58679">
        <ele>1351.75</ele>
        <time>2019-02-08T10:13:10Z</time>
      </trkpt>
      <trkpt lat="46.19621" lon="6.58676">
        <ele>1353.67</ele>
        <time>2019-02-08T10:13:20Z</time>
      </trkpt>
      <trkpt lat="46.19617" lon="6.58674">
        <ele>1353.19</ele>
        <time>2019-02-08T10:13:28Z</time>
      </trkpt>
      <trkpt lat="46.19611" lon="6.58669">
        <ele>1354.15</ele>
        <time>2019-02-08T10:13:39Z</time>
      </trkpt>
      <trkpt lat="46.19606" lon="6.58659">
        <ele>1355.12</ele>
        <time>2019-02-08T10:13:49Z</time>
      </trkpt>
      <trkpt lat="46.19605" lon="6.58646">
        <ele>1356.56</ele>
        <time>2019-02-08T10:14:01Z</time>
      </trkpt>
      <trkpt lat="46.196" lon="6.58636">
        <ele>1357.04</ele>
        <time>2019-02-08T10:14:13Z</time>
      </trkpt>
      <trkpt lat="46.19589" lon="6.58629">
        <ele>1358.96</ele>
        <time>2019-02-08T10:14:25Z</time>
      </trkpt>
      <trkpt lat="46.19582" lon="6.5862">
        <ele>1359.92</ele>
        <time>2019-02-08T10:14:38Z</time>
      </trkpt>
      <trkpt lat="46.19582" lon="6.58611">
        <ele>1360.88</ele>
        <time>2019-02-08T10:14:48Z</time>
      </trkpt>
      <trkpt lat="46.19582" lon="6.58599">
        <ele>1361.84</ele>
        <time>2019-02-08T10:15:00Z</time>
      </trkpt>
      <trkpt lat="46.19583" lon="6.58589">
        <ele>1362.81</ele>
        <time>2019-02-08T10:15:11Z</time>
      </trkpt>
      <trkpt lat="46.19588" lon="6.5858">
        <ele>1363.77</ele>
        <time>2019-02-08T10:15:22Z</time>
      </trkpt>
      <trkpt lat="46.19593" lon="6.58575">
        <ele>1364.73</ele>
        <time>2019-02-08T10:15:33Z</time>
      </trkpt>
      <trkpt lat="46.196" lon="6.58567">
        <ele>1365.69</ele>
        <time>2019-02-08T10:15:47Z</time>
      </trkpt>
      <trkpt lat="46.19609" lon="6.58561">
        <ele>1367.13</ele>
        <time>2019-02-08T10:15:59Z</time>
      </trkpt>
      <trkpt lat="46.19613" lon="6.58557">
        <ele>1368.09</ele>
        <time>2019-02-08T10:16:12Z</time>
      </trkpt>
      <trkpt lat="46.19614" lon="6.58555">
        <ele>1367.13</ele>
        <time>2019-02-08T10:17:00Z</time>
      </trkpt>
      <trkpt lat="46.19616" lon="6.58556">
        <ele>1368.09</ele>
        <time>2019-02-08T10:18:37Z</time>
      </trkpt>
      <trkpt lat="46.19616" lon="6.58553">
        <ele>1368.57</ele>
        <time>2019-02-08T10:19:12Z</time>
      </trkpt>
      <trkpt lat="46.19617" lon="6.58551">
        <ele>1369.05</ele>
        <time>2019-02-08T10:19:17Z</time>
      </trkpt>
      <trkpt lat="46.1962" lon="6.58547">
        <ele>1369.54</ele>
        <time>2019-02-08T10:19:30Z</time>
      </trkpt>
      <trkpt lat="46.19621" lon="6.5855">
        <ele>1369.05</ele>
        <time>2019-02-08T10:20:05Z</time>
      </trkpt>
      <trkpt lat="46.1962" lon="6.58553">
        <ele>1369.05</ele>
        <time>2019-02-08T10:20:23Z</time>
      </trkpt>
      <trkpt lat="46.1962" lon="6.58556">
        <ele>1369.05</ele>
        <time>2019-02-08T10:21:01Z</time>
      </trkpt>
      <trkpt lat="46.19619" lon="6.58556">
        <ele>1369.05</ele>
        <time>2019-02-08T10:21:38Z</time>
      </trkpt>
      <trkpt lat="46.19618" lon="6.58555">
        <ele>1369.05</ele>
        <time>2019-02-08T10:23:21Z</time>
      </trkpt>
      <trkpt lat="46.19619" lon="6.58554">
        <ele>1368.57</ele>
        <time>2019-02-08T10:26:29Z</time>
      </trkpt>
      <trkpt lat="46.19625" lon="6.58544">
        <ele>1370.02</ele>
        <time>2019-02-08T10:26:42Z</time>
      </trkpt>
      <trkpt lat="46.19629" lon="6.58533">
        <ele>1370.98</ele>
        <time>2019-02-08T10:26:55Z</time>
      </trkpt>
      <trkpt lat="46.19639" lon="6.58526">
        <ele>1371.46</ele>
        <time>2019-02-08T10:27:07Z</time>
      </trkpt>
      <trkpt lat="46.19652" lon="6.58529">
        <ele>1373.38</ele>
        <time>2019-02-08T10:27:21Z</time>
      </trkpt>
      <trkpt lat="46.19656" lon="6.58531">
        <ele>1374.34</ele>
        <time>2019-02-08T10:27:30Z</time>
      </trkpt>
      <trkpt lat="46.1966" lon="6.58535">
        <ele>1374.82</ele>
        <time>2019-02-08T10:27:36Z</time>
      </trkpt>
      <trkpt lat="46.19664" lon="6.5854">
        <ele>1375.3</ele>
        <time>2019-02-08T10:27:43Z</time>
      </trkpt>
      <trkpt lat="46.19665" lon="6.58544">
        <ele>1375.78</ele>
        <time>2019-02-08T10:27:48Z</time>
      </trkpt>
      <trkpt lat="46.19669" lon="6.58552">
        <ele>1376.75</ele>
        <time>2019-02-08T10:27:58Z</time>
      </trkpt>
      <trkpt lat="46.19669" lon="6.58556">
        <ele>1376.75</ele>
        <time>2019-02-08T10:28:05Z</time>
      </trkpt>
      <trkpt lat="46.19673" lon="6.58559">
        <ele>1377.71</ele>
        <time>2019-02-08T10:28:11Z</time>
      </trkpt>
      <trkpt lat="46.19683" lon="6.58562">
        <ele>1378.19</ele>
        <time>2019-02-08T10:28:23Z</time>
      </trkpt>
      <trkpt lat="46.19694" lon="6.58566">
        <ele>1379.63</ele>
        <time>2019-02-08T10:28:35Z</time>
      </trkpt>
      <trkpt lat="46.19699" lon="6.58568">
        <ele>1379.63</ele>
        <time>2019-02-08T10:28:41Z</time>
      </trkpt>
      <trkpt lat="46.19713" lon="6.58569">
        <ele>1381.07</ele>
        <time>2019-02-08T10:28:54Z</time>
      </trkpt>
      <trkpt lat="46.19717" lon="6.5857">
        <ele>1381.07</ele>
        <time>2019-02-08T10:29:02Z</time>
      </trkpt>
      <trkpt lat="46.19726" lon="6.58571">
        <ele>1382.51</ele>
        <time>2019-02-08T10:29:14Z</time>
      </trkpt>
      <trkpt lat="46.19732" lon="6.58572">
        <ele>1383.47</ele>
        <time>2019-02-08T10:29:25Z</time>
      </trkpt>
      <trkpt lat="46.19738" lon="6.58573">
        <ele>1383.96</ele>
        <time>2019-02-08T10:29:35Z</time>
      </trkpt>
      <trkpt lat="46.19747" lon="6.58572">
        <ele>1384.44</ele>
        <time>2019-02-08T10:29:46Z</time>
      </trkpt>
      <trkpt lat="46.19755" lon="6.58573">
        <ele>1385.4</ele>
        <time>2019-02-08T10:29:56Z</time>
      </trkpt>
      <trkpt lat="46.19759" lon="6.58575">
        <ele>1385.88</ele>
        <time>2019-02-08T10:30:06Z</time>
      </trkpt>
      <trkpt lat="46.19769" lon="6.58576">
        <ele>1386.84</ele>
        <time>2019-02-08T10:30:18Z</time>
      </trkpt>
      <trkpt lat="46.19776" lon="6.58576">
        <ele>1388.28</ele>
        <time>2019-02-08T10:30:30Z</time>
      </trkpt>
      <trkpt lat="46.19783" lon="6.58574">
        <ele>1388.76</ele>
        <time>2019-02-08T10:30:42Z</time>
      </trkpt>
      <trkpt lat="46.19786" lon="6.58563">
        <ele>1389.24</ele>
        <time>2019-02-08T10:30:53Z</time>
      </trkpt>
      <trkpt lat="46.19786" lon="6.5855">
        <ele>1390.2</ele>
        <time>2019-02-08T10:31:06Z</time>
      </trkpt>
      <trkpt lat="46.19785" lon="6.58542">
        <ele>1391.17</ele>
        <time>2019-02-08T10:31:17Z</time>
      </trkpt>
      <trkpt lat="46.19783" lon="6.58529">
        <ele>1391.17</ele>
        <time>2019-02-08T10:31:29Z</time>
      </trkpt>
      <trkpt lat="46.19782" lon="6.58527">
        <ele>1391.65</ele>
        <time>2019-02-08T10:31:33Z</time>
      </trkpt>
      <trkpt lat="46.1978" lon="6.58515">
        <ele>1392.13</ele>
        <time>2019-02-08T10:31:47Z</time>
      </trkpt>
      <trkpt lat="46.19778" lon="6.58502">
        <ele>1392.61</ele>
        <time>2019-02-08T10:32:00Z</time>
      </trkpt>
      <trkpt lat="46.19777" lon="6.5849">
        <ele>1393.57</ele>
        <time>2019-02-08T10:32:13Z</time>
      </trkpt>
      <trkpt lat="46.19777" lon="6.58478">
        <ele>1394.53</ele>
        <time>2019-02-08T10:32:25Z</time>
      </trkpt>
      <trkpt lat="46.19778" lon="6.58468">
        <ele>1395.01</ele>
        <time>2019-02-08T10:32:35Z</time>
      </trkpt>
      <trkpt lat="46.19778" lon="6.58458">
        <ele>1395.49</ele>
        <time>2019-02-08T10:32:45Z</time>
      </trkpt>
      <trkpt lat="46.19779" lon="6.58448">
        <ele>1396.93</ele>
        <time>2019-02-08T10:32:57Z</time>
      </trkpt>
      <trkpt lat="46.19779" lon="6.58441">
        <ele>1398.37</ele>
        <time>2019-02-08T10:33:05Z</time>
      </trkpt>
      <trkpt lat="46.1978" lon="6.5843">
        <ele>1398.86</ele>
        <time>2019-02-08T10:33:16Z</time>
      </trkpt>
      <trkpt lat="46.19781" lon="6.58422">
        <ele>1399.82</ele>
        <time>2019-02-08T10:33:28Z</time>
      </trkpt>
      <trkpt lat="46.19783" lon="6.58414">
        <ele>1400.78</ele>
        <time>2019-02-08T10:33:40Z</time>
      </trkpt>
      <trkpt lat="46.19784" lon="6.58406">
        <ele>1401.74</ele>
        <time>2019-02-08T10:33:50Z</time>
      </trkpt>
      <trkpt lat="46.19782" lon="6.58395">
        <ele>1402.7</ele>
        <time>2019-02-08T10:34:02Z</time>
      </trkpt>
      <trkpt lat="46.19783" lon="6.58391">
        <ele>1402.7</ele>
        <time>2019-02-08T10:34:05Z</time>
      </trkpt>
      <trkpt lat="46.19782" lon="6.58381">
        <ele>1404.14</ele>
        <time>2019-02-08T10:34:16Z</time>
      </trkpt>
      <trkpt lat="46.19782" lon="6.58372">
        <ele>1404.62</ele>
        <time>2019-02-08T10:34:27Z</time>
      </trkpt>
      <trkpt lat="46.1978" lon="6.58368">
        <ele>1405.1</ele>
        <time>2019-02-08T10:34:31Z</time>
      </trkpt>
      <trkpt lat="46.1978" lon="6.58356">
        <ele>1406.07</ele>
        <time>2019-02-08T10:34:42Z</time>
      </trkpt>
      <trkpt lat="46.1978" lon="6.58345">
        <ele>1407.03</ele>
        <time>2019-02-08T10:34:53Z</time>
      </trkpt>
      <trkpt lat="46.19781" lon="6.58339">
        <ele>1407.99</ele>
        <time>2019-02-08T10:35:01Z</time>
      </trkpt>
      <trkpt lat="46.19783" lon="6.58327">
        <ele>1408.95</ele>
        <time>2019-02-08T10:35:14Z</time>
      </trkpt>
      <trkpt lat="46.19784" lon="6.58325">
        <ele>1408.47</ele>
        <time>2019-02-08T10:35:16Z</time>
      </trkpt>
      <trkpt lat="46.19786" lon="6.58309">
        <ele>1408.95</ele>
        <time>2019-02-08T10:35:30Z</time>
      </trkpt>
      <trkpt lat="46.19786" lon="6.58307">
        <ele>1409.43</ele>
        <time>2019-02-08T10:35:34Z</time>
      </trkpt>
      <trkpt lat="46.19786" lon="6.58302">
        <ele>1409.43</ele>
        <time>2019-02-08T10:35:38Z</time>
      </trkpt>
      <trkpt lat="46.19787" lon="6.58291">
        <ele>1409.91</ele>
        <time>2019-02-08T10:35:49Z</time>
      </trkpt>
      <trkpt lat="46.19787" lon="6.5829">
        <ele>1410.39</ele>
        <time>2019-02-08T10:35:50Z</time>
      </trkpt>
      <trkpt lat="46.19788" lon="6.58277">
        <ele>1410.87</ele>
        <time>2019-02-08T10:36:02Z</time>
      </trkpt>
      <trkpt lat="46.19787" lon="6.58268">
        <ele>1410.39</ele>
        <time>2019-02-08T10:36:10Z</time>
      </trkpt>
      <trkpt lat="46.19785" lon="6.58252">
        <ele>1409.91</ele>
        <time>2019-02-08T10:36:24Z</time>
      </trkpt>
      <trkpt lat="46.19784" lon="6.58233">
        <ele>1408.95</ele>
        <time>2019-02-08T10:36:40Z</time>
      </trkpt>
      <trkpt lat="46.19782" lon="6.58222">
        <ele>1408.95</ele>
        <time>2019-02-08T10:36:50Z</time>
      </trkpt>
      <trkpt lat="46.19781" lon="6.58206">
        <ele>1409.91</ele>
        <time>2019-02-08T10:37:04Z</time>
      </trkpt>
      <trkpt lat="46.19778" lon="6.58195">
        <ele>1407.99</ele>
        <time>2019-02-08T10:37:17Z</time>
      </trkpt>
      <trkpt lat="46.19775" lon="6.58185">
        <ele>1407.99</ele>
        <time>2019-02-08T10:37:27Z</time>
      </trkpt>
      <trkpt lat="46.19771" lon="6.58173">
        <ele>1407.51</ele>
        <time>2019-02-08T10:37:38Z</time>
      </trkpt>
      <trkpt lat="46.19769" lon="6.58162">
        <ele>1407.03</ele>
        <time>2019-02-08T10:37:48Z</time>
      </trkpt>
      <trkpt lat="46.19766" lon="6.58144">
        <ele>1405.1</ele>
        <time>2019-02-08T10:38:02Z</time>
      </trkpt>
      <trkpt lat="46.19765" lon="6.58129">
        <ele>1404.62</ele>
        <time>2019-02-08T10:38:14Z</time>
      </trkpt>
      <trkpt lat="46.19768" lon="6.58121">
        <ele>1404.62</ele>
        <time>2019-02-08T10:38:24Z</time>
      </trkpt>
      <trkpt lat="46.19769" lon="6.58105">
        <ele>1403.18</ele>
        <time>2019-02-08T10:38:37Z</time>
      </trkpt>
      <trkpt lat="46.19772" lon="6.58089">
        <ele>1403.18</ele>
        <time>2019-02-08T10:38:49Z</time>
      </trkpt>
      <trkpt lat="46.19776" lon="6.58074">
        <ele>1402.7</ele>
        <time>2019-02-08T10:39:00Z</time>
      </trkpt>
      <trkpt lat="46.19778" lon="6.58067">
        <ele>1402.22</ele>
        <time>2019-02-08T10:39:05Z</time>
      </trkpt>
      <trkpt lat="46.19783" lon="6.58056">
        <ele>1402.22</ele>
        <time>2019-02-08T10:39:17Z</time>
      </trkpt>
      <trkpt lat="46.19788" lon="6.58046">
        <ele>1402.22</ele>
        <time>2019-02-08T10:39:28Z</time>
      </trkpt>
      <trkpt lat="46.19798" lon="6.58036">
        <ele>1400.78</ele>
        <time>2019-02-08T10:39:40Z</time>
      </trkpt>
      <trkpt lat="46.19811" lon="6.58025">
        <ele>1400.3</ele>
        <time>2019-02-08T10:39:55Z</time>
      </trkpt>
      <trkpt lat="46.1982" lon="6.58017">
        <ele>1400.3</ele>
        <time>2019-02-08T10:40:07Z</time>
      </trkpt>
      <trkpt lat="46.19821" lon="6.58016">
        <ele>1399.82</ele>
        <time>2019-02-08T10:40:08Z</time>
      </trkpt>
      <trkpt lat="46.1983" lon="6.58006">
        <ele>1399.34</ele>
        <time>2019-02-08T10:40:21Z</time>
      </trkpt>
      <trkpt lat="46.19839" lon="6.57997">
        <ele>1397.89</ele>
        <time>2019-02-08T10:40:35Z</time>
      </trkpt>
      <trkpt lat="46.19846" lon="6.57987">
        <ele>1396.93</ele>
        <time>2019-02-08T10:40:48Z</time>
      </trkpt>
      <trkpt lat="46.19855" lon="6.57978">
        <ele>1395.97</ele>
        <time>2019-02-08T10:40:59Z</time>
      </trkpt>
      <trkpt lat="46.19857" lon="6.57974">
        <ele>1395.97</ele>
        <time>2019-02-08T10:41:03Z</time>
      </trkpt>
      <trkpt lat="46.19869" lon="6.57969">
        <ele>1394.53</ele>
        <time>2019-02-08T10:41:16Z</time>
      </trkpt>
      <trkpt lat="46.19876" lon="6.57964">
        <ele>1394.05</ele>
        <time>2019-02-08T10:41:27Z</time>
      </trkpt>
      <trkpt lat="46.19884" lon="6.57959">
        <ele>1394.53</ele>
        <time>2019-02-08T10:41:37Z</time>
      </trkpt>
      <trkpt lat="46.19896" lon="6.57956">
        <ele>1393.57</ele>
        <time>2019-02-08T10:41:49Z</time>
      </trkpt>
      <trkpt lat="46.19905" lon="6.57953">
        <ele>1393.57</ele>
        <time>2019-02-08T10:42:00Z</time>
      </trkpt>
      <trkpt lat="46.19914" lon="6.57949">
        <ele>1394.05</ele>
        <time>2019-02-08T10:42:11Z</time>
      </trkpt>
      <trkpt lat="46.19918" lon="6.57948">
        <ele>1394.53</ele>
        <time>2019-02-08T10:42:15Z</time>
      </trkpt>
      <trkpt lat="46.19928" lon="6.57946">
        <ele>1395.97</ele>
        <time>2019-02-08T10:42:27Z</time>
      </trkpt>
      <trkpt lat="46.19938" lon="6.57943">
        <ele>1395.97</ele>
        <time>2019-02-08T10:42:40Z</time>
      </trkpt>
      <trkpt lat="46.19945" lon="6.57939">
        <ele>1397.89</ele>
        <time>2019-02-08T10:42:52Z</time>
      </trkpt>
      <trkpt lat="46.19954" lon="6.57934">
        <ele>1398.86</ele>
        <time>2019-02-08T10:43:05Z</time>
      </trkpt>
      <trkpt lat="46.19968" lon="6.57925">
        <ele>1399.82</ele>
        <time>2019-02-08T10:43:19Z</time>
      </trkpt>
      <trkpt lat="46.19972" lon="6.57918">
        <ele>1401.74</ele>
        <time>2019-02-08T10:43:30Z</time>
      </trkpt>
      <trkpt lat="46.19972" lon="6.57906">
        <ele>1401.74</ele>
        <time>2019-02-08T10:43:43Z</time>
      </trkpt>
      <trkpt lat="46.19968" lon="6.57903">
        <ele>1402.7</ele>
        <time>2019-02-08T10:43:54Z</time>
      </trkpt>
      <trkpt lat="46.19968" lon="6.57904">
        <ele>1402.22</ele>
        <time>2019-02-08T10:45:18Z</time>
      </trkpt>
      <trkpt lat="46.19969" lon="6.57904">
        <ele>1402.22</ele>
        <time>2019-02-08T10:47:32Z</time>
      </trkpt>
      <trkpt lat="46.19964" lon="6.57909">
        <ele>1402.7</ele>
        <time>2019-02-08T10:48:36Z</time>
      </trkpt>
      <trkpt lat="46.19955" lon="6.57912">
        <ele>1404.62</ele>
        <time>2019-02-08T10:48:52Z</time>
      </trkpt>
      <trkpt lat="46.19949" lon="6.57915">
        <ele>1406.07</ele>
        <time>2019-02-08T10:49:03Z</time>
      </trkpt>
      <trkpt lat="46.19949" lon="6.57915">
        <ele>1406.07</ele>
        <time>2019-02-08T10:49:04Z</time>
      </trkpt>
      <trkpt lat="46.1994" lon="6.57915">
        <ele>1407.51</ele>
        <time>2019-02-08T10:49:16Z</time>
      </trkpt>
      <trkpt lat="46.19933" lon="6.57911">
        <ele>1409.43</ele>
        <time>2019-02-08T10:49:29Z</time>
      </trkpt>
      <trkpt lat="46.19926" lon="6.57905">
        <ele>1411.35</ele>
        <time>2019-02-08T10:49:42Z</time>
      </trkpt>
      <trkpt lat="46.19925" lon="6.57904">
        <ele>1411.83</ele>
        <time>2019-02-08T10:49:48Z</time>
      </trkpt>
      <trkpt lat="46.19922" lon="6.57901">
        <ele>1413.76</ele>
        <time>2019-02-08T10:49:59Z</time>
      </trkpt>
      <trkpt lat="46.19912" lon="6.57896">
        <ele>1414.72</ele>
        <time>2019-02-08T10:50:12Z</time>
      </trkpt>
      <trkpt lat="46.19908" lon="6.57893">
        <ele>1416.64</ele>
        <time>2019-02-08T10:50:27Z</time>
      </trkpt>
      <trkpt lat="46.19906" lon="6.57893">
        <ele>1418.56</ele>
        <time>2019-02-08T10:50:39Z</time>
      </trkpt>
      <trkpt lat="46.199" lon="6.57892">
        <ele>1420</ele>
        <time>2019-02-08T10:50:52Z</time>
      </trkpt>
      <trkpt lat="46.19892" lon="6.57891">
        <ele>1421.93</ele>
        <time>2019-02-08T10:51:05Z</time>
      </trkpt>
      <trkpt lat="46.19886" lon="6.57888">
        <ele>1423.85</ele>
        <time>2019-02-08T10:51:17Z</time>
      </trkpt>
      <trkpt lat="46.19879" lon="6.57886">
        <ele>1425.77</ele>
        <time>2019-02-08T10:51:33Z</time>
      </trkpt>
      <trkpt lat="46.19874" lon="6.57888">
        <ele>1428.18</ele>
        <time>2019-02-08T10:51:48Z</time>
      </trkpt>
      <trkpt lat="46.19869" lon="6.57888">
        <ele>1430.58</ele>
        <time>2019-02-08T10:52:01Z</time>
      </trkpt>
      <trkpt lat="46.19862" lon="6.57891">
        <ele>1432.5</ele>
        <time>2019-02-08T10:52:17Z</time>
      </trkpt>
      <trkpt lat="46.19853" lon="6.57898">
        <ele>1434.42</ele>
        <time>2019-02-08T10:52:29Z</time>
      </trkpt>
      <trkpt lat="46.19847" lon="6.57897">
        <ele>1435.87</ele>
        <time>2019-02-08T10:52:42Z</time>
      </trkpt>
      <trkpt lat="46.19846" lon="6.57895">
        <ele>1436.35</ele>
        <time>2019-02-08T10:52:57Z</time>
      </trkpt>
      <trkpt lat="46.19842" lon="6.57893">
        <ele>1436.35</ele>
        <time>2019-02-08T10:54:09Z</time>
      </trkpt>
      <trkpt lat="46.19832" lon="6.57892">
        <ele>1437.31</ele>
        <time>2019-02-08T10:54:22Z</time>
      </trkpt>
      <trkpt lat="46.19821" lon="6.57885">
        <ele>1438.27</ele>
        <time>2019-02-08T10:54:34Z</time>
      </trkpt>
      <trkpt lat="46.19815" lon="6.57881">
        <ele>1440.19</ele>
        <time>2019-02-08T10:54:46Z</time>
      </trkpt>
      <trkpt lat="46.19811" lon="6.57879">
        <ele>1441.15</ele>
        <time>2019-02-08T10:54:59Z</time>
      </trkpt>
      <trkpt lat="46.19806" lon="6.57879">
        <ele>1443.08</ele>
        <time>2019-02-08T10:55:12Z</time>
      </trkpt>
      <trkpt lat="46.19801" lon="6.57874">
        <ele>1444.52</ele>
        <time>2019-02-08T10:55:23Z</time>
      </trkpt>
      <trkpt lat="46.19796" lon="6.57869">
        <ele>1446.44</ele>
        <time>2019-02-08T10:55:36Z</time>
      </trkpt>
      <trkpt lat="46.19787" lon="6.57861">
        <ele>1447.4</ele>
        <time>2019-02-08T10:55:49Z</time>
      </trkpt>
      <trkpt lat="46.19783" lon="6.57852">
        <ele>1450.29</ele>
        <time>2019-02-08T10:56:04Z</time>
      </trkpt>
      <trkpt lat="46.19781" lon="6.57846">
        <ele>1451.73</ele>
        <time>2019-02-08T10:56:16Z</time>
      </trkpt>
      <trkpt lat="46.19775" lon="6.5784">
        <ele>1452.69</ele>
        <time>2019-02-08T10:56:27Z</time>
      </trkpt>
      <trkpt lat="46.19772" lon="6.57836">
        <ele>1454.13</ele>
        <time>2019-02-08T10:56:38Z</time>
      </trkpt>
      <trkpt lat="46.19768" lon="6.57827">
        <ele>1456.05</ele>
        <time>2019-02-08T10:56:49Z</time>
      </trkpt>
      <trkpt lat="46.19766" lon="6.57822">
        <ele>1457.02</ele>
        <time>2019-02-08T10:57:00Z</time>
      </trkpt>
      <trkpt lat="46.19767" lon="6.57817">
        <ele>1458.94</ele>
        <time>2019-02-08T10:57:12Z</time>
      </trkpt>
      <trkpt lat="46.19768" lon="6.57813">
        <ele>1460.86</ele>
        <time>2019-02-08T10:57:22Z</time>
      </trkpt>
      <trkpt lat="46.19771" lon="6.57809">
        <ele>1461.82</ele>
        <time>2019-02-08T10:57:34Z</time>
      </trkpt>
      <trkpt lat="46.1978" lon="6.57804">
        <ele>1463.74</ele>
        <time>2019-02-08T10:57:47Z</time>
      </trkpt>
      <trkpt lat="46.1978" lon="6.57804">
        <ele>1465.67</ele>
        <time>2019-02-08T10:58:00Z</time>
      </trkpt>
      <trkpt lat="46.19786" lon="6.57801">
        <ele>1467.11</ele>
        <time>2019-02-08T10:58:14Z</time>
      </trkpt>
      <trkpt lat="46.19798" lon="6.5779">
        <ele>1468.55</ele>
        <time>2019-02-08T10:58:28Z</time>
      </trkpt>
      <trkpt lat="46.19802" lon="6.57783">
        <ele>1470.95</ele>
        <time>2019-02-08T10:58:42Z</time>
      </trkpt>
      <trkpt lat="46.19803" lon="6.57779">
        <ele>1472.4</ele>
        <time>2019-02-08T10:58:55Z</time>
      </trkpt>
      <trkpt lat="46.19803" lon="6.57779">
        <ele>1472.88</ele>
        <time>2019-02-08T10:59:07Z</time>
      </trkpt>
      <trkpt lat="46.19805" lon="6.57781">
        <ele>1472.4</ele>
        <time>2019-02-08T11:01:08Z</time>
      </trkpt>
      <trkpt lat="46.19806" lon="6.57782">
        <ele>1472.88</ele>
        <time>2019-02-08T11:02:11Z</time>
      </trkpt>
      <trkpt lat="46.19808" lon="6.57783">
        <ele>1472.88</ele>
        <time>2019-02-08T11:04:39Z</time>
      </trkpt>
      <trkpt lat="46.19807" lon="6.57783">
        <ele>1472.88</ele>
        <time>2019-02-08T11:05:49Z</time>
      </trkpt>
      <trkpt lat="46.19802" lon="6.57779">
        <ele>1474.32</ele>
        <time>2019-02-08T11:06:00Z</time>
      </trkpt>
      <trkpt lat="46.19796" lon="6.57779">
        <ele>1475.76</ele>
        <time>2019-02-08T11:06:12Z</time>
      </trkpt>
      <trkpt lat="46.19796" lon="6.57769">
        <ele>1477.2</ele>
        <time>2019-02-08T11:06:24Z</time>
      </trkpt>
      <trkpt lat="46.19796" lon="6.5776">
        <ele>1479.13</ele>
        <time>2019-02-08T11:06:36Z</time>
      </trkpt>
      <trkpt lat="46.19796" lon="6.57755">
        <ele>1480.57</ele>
        <time>2019-02-08T11:06:48Z</time>
      </trkpt>
      <trkpt lat="46.19793" lon="6.57747">
        <ele>1482.97</ele>
        <time>2019-02-08T11:07:02Z</time>
      </trkpt>
      <trkpt lat="46.19787" lon="6.57744">
        <ele>1484.89</ele>
        <time>2019-02-08T11:07:14Z</time>
      </trkpt>
      <trkpt lat="46.19781" lon="6.57738">
        <ele>1486.34</ele>
        <time>2019-02-08T11:07:28Z</time>
      </trkpt>
      <trkpt lat="46.19774" lon="6.57734">
        <ele>1486.82</ele>
        <time>2019-02-08T11:07:39Z</time>
      </trkpt>
      <trkpt lat="46.19768" lon="6.57732">
        <ele>1488.26</ele>
        <time>2019-02-08T11:07:50Z</time>
      </trkpt>
      <trkpt lat="46.19762" lon="6.57733">
        <ele>1490.18</ele>
        <time>2019-02-08T11:08:03Z</time>
      </trkpt>
      <trkpt lat="46.19757" lon="6.57733">
        <ele>1490.66</ele>
        <time>2019-02-08T11:08:15Z</time>
      </trkpt>
      <trkpt lat="46.19756" lon="6.57733">
        <ele>1491.62</ele>
        <time>2019-02-08T11:08:16Z</time>
      </trkpt>
      <trkpt lat="46.19749" lon="6.57733">
        <ele>1492.1</ele>
        <time>2019-02-08T11:08:27Z</time>
      </trkpt>
      <trkpt lat="46.19739" lon="6.57735">
        <ele>1493.55</ele>
        <time>2019-02-08T11:08:41Z</time>
      </trkpt>
      <trkpt lat="46.1973" lon="6.5774">
        <ele>1494.99</ele>
        <time>2019-02-08T11:08:54Z</time>
      </trkpt>
      <trkpt lat="46.19726" lon="6.57743">
        <ele>1497.39</ele>
        <time>2019-02-08T11:09:07Z</time>
      </trkpt>
      <trkpt lat="46.19721" lon="6.57747">
        <ele>1498.35</ele>
        <time>2019-02-08T11:09:17Z</time>
      </trkpt>
      <trkpt lat="46.19709" lon="6.57762">
        <ele>1499.31</ele>
        <time>2019-02-08T11:09:29Z</time>
      </trkpt>
      <trkpt lat="46.19709" lon="6.57762">
        <ele>1499.79</ele>
        <time>2019-02-08T11:09:30Z</time>
      </trkpt>
      <trkpt lat="46.19705" lon="6.57769">
        <ele>1500.27</ele>
        <time>2019-02-08T11:09:36Z</time>
      </trkpt>
      <trkpt lat="46.19699" lon="6.57776">
        <ele>1501.24</ele>
        <time>2019-02-08T11:09:47Z</time>
      </trkpt>
      <trkpt lat="46.19696" lon="6.57781">
        <ele>1501.72</ele>
        <time>2019-02-08T11:09:53Z</time>
      </trkpt>
      <trkpt lat="46.19692" lon="6.57786">
        <ele>1502.68</ele>
        <time>2019-02-08T11:10:04Z</time>
      </trkpt>
      <trkpt lat="46.19682" lon="6.57791">
        <ele>1502.2</ele>
        <time>2019-02-08T11:10:15Z</time>
      </trkpt>
      <trkpt lat="46.19672" lon="6.57789">
        <ele>1504.6</ele>
        <time>2019-02-08T11:10:29Z</time>
      </trkpt>
      <trkpt lat="46.19657" lon="6.5779">
        <ele>1505.56</ele>
        <time>2019-02-08T11:10:42Z</time>
      </trkpt>
      <trkpt lat="46.19652" lon="6.57792">
        <ele>1506.04</ele>
        <time>2019-02-08T11:10:52Z</time>
      </trkpt>
      <trkpt lat="46.19647" lon="6.57794">
        <ele>1507.48</ele>
        <time>2019-02-08T11:11:06Z</time>
      </trkpt>
      <trkpt lat="46.19642" lon="6.57798">
        <ele>1509.41</ele>
        <time>2019-02-08T11:11:18Z</time>
      </trkpt>
      <trkpt lat="46.19639" lon="6.57801">
        <ele>1510.85</ele>
        <time>2019-02-08T11:11:26Z</time>
      </trkpt>
      <trkpt lat="46.19634" lon="6.57807">
        <ele>1511.33</ele>
        <time>2019-02-08T11:11:37Z</time>
      </trkpt>
      <trkpt lat="46.19627" lon="6.57813">
        <ele>1511.81</ele>
        <time>2019-02-08T11:11:48Z</time>
      </trkpt>
      <trkpt lat="46.19625" lon="6.57814">
        <ele>1512.77</ele>
        <time>2019-02-08T11:11:51Z</time>
      </trkpt>
      <trkpt lat="46.19617" lon="6.57821">
        <ele>1514.21</ele>
        <time>2019-02-08T11:12:04Z</time>
      </trkpt>
      <trkpt lat="46.19611" lon="6.57825">
        <ele>1515.18</ele>
        <time>2019-02-08T11:12:15Z</time>
      </trkpt>
      <trkpt lat="46.19605" lon="6.5783">
        <ele>1515.66</ele>
        <time>2019-02-08T11:12:25Z</time>
      </trkpt>
      <trkpt lat="46.19598" lon="6.57836">
        <ele>1517.1</ele>
        <time>2019-02-08T11:12:37Z</time>
      </trkpt>
      <trkpt lat="46.19592" lon="6.57841">
        <ele>1518.54</ele>
        <time>2019-02-08T11:12:48Z</time>
      </trkpt>
      <trkpt lat="46.19586" lon="6.57845">
        <ele>1518.54</ele>
        <time>2019-02-08T11:12:59Z</time>
      </trkpt>
      <trkpt lat="46.19579" lon="6.57843">
        <ele>1518.54</ele>
        <time>2019-02-08T11:13:09Z</time>
      </trkpt>
      <trkpt lat="46.1957" lon="6.57838">
        <ele>1519.02</ele>
        <time>2019-02-08T11:13:21Z</time>
      </trkpt>
      <trkpt lat="46.19567" lon="6.57837">
        <ele>1518.54</ele>
        <time>2019-02-08T11:13:24Z</time>
      </trkpt>
      <trkpt lat="46.19562" lon="6.57837">
        <ele>1519.02</ele>
        <time>2019-02-08T11:13:31Z</time>
      </trkpt>
      <trkpt lat="46.19554" lon="6.5784">
        <ele>1519.5</ele>
        <time>2019-02-08T11:13:45Z</time>
      </trkpt>
      <trkpt lat="46.19549" lon="6.57843">
        <ele>1519.98</ele>
        <time>2019-02-08T11:13:59Z</time>
      </trkpt>
      <trkpt lat="46.19548" lon="6.57844">
        <ele>1519.98</ele>
        <time>2019-02-08T11:14:11Z</time>
      </trkpt>
      <trkpt lat="46.19548" lon="6.57844">
        <ele>1519.02</ele>
        <time>2019-02-08T11:14:29Z</time>
      </trkpt>
      <trkpt lat="46.19547" lon="6.57844">
        <ele>1518.54</ele>
        <time>2019-02-08T11:14:44Z</time>
      </trkpt>
      <trkpt lat="46.19547" lon="6.57842">
        <ele>1519.02</ele>
        <time>2019-02-08T11:15:10Z</time>
      </trkpt>
      <trkpt lat="46.19547" lon="6.57842">
        <ele>1518.06</ele>
        <time>2019-02-08T11:15:42Z</time>
      </trkpt>
      <trkpt lat="46.19548" lon="6.57842">
        <ele>1518.06</ele>
        <time>2019-02-08T11:15:59Z</time>
      </trkpt>
      <trkpt lat="46.19549" lon="6.57843">
        <ele>1517.58</ele>
        <time>2019-02-08T11:16:15Z</time>
      </trkpt>
      <trkpt lat="46.1955" lon="6.57843">
        <ele>1517.58</ele>
        <time>2019-02-08T11:16:55Z</time>
      </trkpt>
      <trkpt lat="46.19549" lon="6.57843">
        <ele>1518.06</ele>
        <time>2019-02-08T11:20:03Z</time>
      </trkpt>
      <trkpt lat="46.19549" lon="6.57843">
        <ele>1517.58</ele>
        <time>2019-02-08T11:21:10Z</time>
      </trkpt>
      <trkpt lat="46.1955" lon="6.57843">
        <ele>1519.02</ele>
        <time>2019-02-08T11:26:15Z</time>
      </trkpt>
      <trkpt lat="46.1955" lon="6.57842">
        <ele>1519.02</ele>
        <time>2019-02-08T11:36:33Z</time>
      </trkpt>
      <trkpt lat="46.1955" lon="6.57844">
        <ele>1519.5</ele>
        <time>2019-02-08T11:48:43Z</time>
      </trkpt>
      <trkpt lat="46.1955" lon="6.57844">
        <ele>1521.42</ele>
        <time>2019-02-08T11:51:59Z</time>
      </trkpt>
      <trkpt lat="46.1955" lon="6.57844">
        <ele>1520.94</ele>
        <time>2019-02-08T11:56:26Z</time>
      </trkpt>
      <trkpt lat="46.19551" lon="6.57844">
        <ele>1522.87</ele>
        <time>2019-02-08T12:09:04Z</time>
      </trkpt>
      <trkpt lat="46.19551" lon="6.57844">
        <ele>1522.87</ele>
        <time>2019-02-08T12:11:08Z</time>
      </trkpt>
      <trkpt lat="46.19549" lon="6.57844">
        <ele>1523.35</ele>
        <time>2019-02-08T12:13:25Z</time>
      </trkpt>
      <trkpt lat="46.19551" lon="6.57843">
        <ele>1523.35</ele>
        <time>2019-02-08T12:13:59Z</time>
      </trkpt>
      <trkpt lat="46.19551" lon="6.5784">
        <ele>1523.83</ele>
        <time>2019-02-08T12:14:13Z</time>
      </trkpt>
      <trkpt lat="46.19548" lon="6.57838">
        <ele>1523.35</ele>
        <time>2019-02-08T12:14:24Z</time>
      </trkpt>
      <trkpt lat="46.19548" lon="6.57837">
        <ele>1523.35</ele>
        <time>2019-02-08T12:14:41Z</time>
      </trkpt>
      <trkpt lat="46.1955" lon="6.57838">
        <ele>1523.83</ele>
        <time>2019-02-08T12:15:33Z</time>
      </trkpt>
      <trkpt lat="46.19558" lon="6.57837">
        <ele>1522.87</ele>
        <time>2019-02-08T12:15:45Z</time>
      </trkpt>
      <trkpt lat="46.19563" lon="6.57838">
        <ele>1523.35</ele>
        <time>2019-02-08T12:15:50Z</time>
      </trkpt>
      <trkpt lat="46.19564" lon="6.57846">
        <ele>1522.39</ele>
        <time>2019-02-08T12:16:01Z</time>
      </trkpt>
      <trkpt lat="46.19562" lon="6.5785">
        <ele>1523.83</ele>
        <time>2019-02-08T12:16:14Z</time>
      </trkpt>
      <trkpt lat="46.19563" lon="6.57849">
        <ele>1522.87</ele>
        <time>2019-02-08T12:17:26Z</time>
      </trkpt>
      <trkpt lat="46.19559" lon="6.57841">
        <ele>1522.87</ele>
        <time>2019-02-08T12:17:40Z</time>
      </trkpt>
      <trkpt lat="46.19555" lon="6.5784">
        <ele>1522.39</ele>
        <time>2019-02-08T12:17:57Z</time>
      </trkpt>
      <trkpt lat="46.19554" lon="6.5784">
        <ele>1521.9</ele>
        <time>2019-02-08T12:18:49Z</time>
      </trkpt>
      <trkpt lat="46.19552" lon="6.5784">
        <ele>1521.9</ele>
        <time>2019-02-08T12:22:59Z</time>
      </trkpt>
      <trkpt lat="46.19547" lon="6.57842">
        <ele>1521.9</ele>
        <time>2019-02-08T12:23:06Z</time>
      </trkpt>
      <trkpt lat="46.19543" lon="6.57841">
        <ele>1521.42</ele>
        <time>2019-02-08T12:23:10Z</time>
      </trkpt>
      <trkpt lat="46.19534" lon="6.57836">
        <ele>1522.39</ele>
        <time>2019-02-08T12:23:23Z</time>
      </trkpt>
      <trkpt lat="46.19527" lon="6.57831">
        <ele>1522.39</ele>
        <time>2019-02-08T12:23:34Z</time>
      </trkpt>
      <trkpt lat="46.19522" lon="6.57829">
        <ele>1523.83</ele>
        <time>2019-02-08T12:23:45Z</time>
      </trkpt>
      <trkpt lat="46.19519" lon="6.57828">
        <ele>1524.79</ele>
        <time>2019-02-08T12:23:57Z</time>
      </trkpt>
      <trkpt lat="46.1951" lon="6.57828">
        <ele>1525.27</ele>
        <time>2019-02-08T12:24:09Z</time>
      </trkpt>
      <trkpt lat="46.19505" lon="6.57825">
        <ele>1525.27</ele>
        <time>2019-02-08T12:24:21Z</time>
      </trkpt>
      <trkpt lat="46.19504" lon="6.57824">
        <ele>1524.79</ele>
        <time>2019-02-08T12:25:08Z</time>
      </trkpt>
      <trkpt lat="46.19501" lon="6.57825">
        <ele>1525.27</ele>
        <time>2019-02-08T12:25:12Z</time>
      </trkpt>
      <trkpt lat="46.19491" lon="6.57824">
        <ele>1526.23</ele>
        <time>2019-02-08T12:25:24Z</time>
      </trkpt>
      <trkpt lat="46.19485" lon="6.57821">
        <ele>1527.19</ele>
        <time>2019-02-08T12:25:32Z</time>
      </trkpt>
      <trkpt lat="46.1948" lon="6.57819">
        <ele>1528.15</ele>
        <time>2019-02-08T12:25:39Z</time>
      </trkpt>
      <trkpt lat="46.19477" lon="6.57818">
        <ele>1528.15</ele>
        <time>2019-02-08T12:25:43Z</time>
      </trkpt>
      <trkpt lat="46.19471" lon="6.57814">
        <ele>1528.63</ele>
        <time>2019-02-08T12:25:56Z</time>
      </trkpt>
      <trkpt lat="46.19467" lon="6.57814">
        <ele>1529.11</ele>
        <time>2019-02-08T12:26:07Z</time>
      </trkpt>
      <trkpt lat="46.19461" lon="6.57811">
        <ele>1529.59</ele>
        <time>2019-02-08T12:26:21Z</time>
      </trkpt>
      <trkpt lat="46.19455" lon="6.57812">
        <ele>1531.04</ele>
        <time>2019-02-08T12:26:32Z</time>
      </trkpt>
      <trkpt lat="46.19448" lon="6.57813">
        <ele>1531.52</ele>
        <time>2019-02-08T12:26:43Z</time>
      </trkpt>
      <trkpt lat="46.19441" lon="6.57815">
        <ele>1532.48</ele>
        <time>2019-02-08T12:26:56Z</time>
      </trkpt>
      <trkpt lat="46.19434" lon="6.57815">
        <ele>1532.96</ele>
        <time>2019-02-08T12:27:07Z</time>
      </trkpt>
      <trkpt lat="46.19427" lon="6.57815">
        <ele>1533.92</ele>
        <time>2019-02-08T12:27:20Z</time>
      </trkpt>
      <trkpt lat="46.19422" lon="6.57814">
        <ele>1534.88</ele>
        <time>2019-02-08T12:27:32Z</time>
      </trkpt>
      <trkpt lat="46.19422" lon="6.57813">
        <ele>1534.88</ele>
        <time>2019-02-08T12:28:24Z</time>
      </trkpt>
      <trkpt lat="46.19415" lon="6.57814">
        <ele>1535.36</ele>
        <time>2019-02-08T12:29:12Z</time>
      </trkpt>
      <trkpt lat="46.19411" lon="6.57813">
        <ele>1535.36</ele>
        <time>2019-02-08T12:29:17Z</time>
      </trkpt>
      <trkpt lat="46.19404" lon="6.57811">
        <ele>1535.84</ele>
        <time>2019-02-08T12:29:27Z</time>
      </trkpt>
      <trkpt lat="46.19397" lon="6.57804">
        <ele>1536.8</ele>
        <time>2019-02-08T12:29:38Z</time>
      </trkpt>
      <trkpt lat="46.19389" lon="6.57796">
        <ele>1537.77</ele>
        <time>2019-02-08T12:29:50Z</time>
      </trkpt>
      <trkpt lat="46.19388" lon="6.57795">
        <ele>1536.8</ele>
        <time>2019-02-08T12:29:52Z</time>
      </trkpt>
      <trkpt lat="46.19383" lon="6.57791">
        <ele>1537.29</ele>
        <time>2019-02-08T12:29:58Z</time>
      </trkpt>
      <trkpt lat="46.19372" lon="6.57788">
        <ele>1537.77</ele>
        <time>2019-02-08T12:30:10Z</time>
      </trkpt>
      <trkpt lat="46.19371" lon="6.57787">
        <ele>1537.77</ele>
        <time>2019-02-08T12:30:11Z</time>
      </trkpt>
      <trkpt lat="46.19369" lon="6.57786">
        <ele>1537.77</ele>
        <time>2019-02-08T12:30:13Z</time>
      </trkpt>
      <trkpt lat="46.1936" lon="6.5778">
        <ele>1538.25</ele>
        <time>2019-02-08T12:30:26Z</time>
      </trkpt>
      <trkpt lat="46.1935" lon="6.57781">
        <ele>1539.21</ele>
        <time>2019-02-08T12:30:38Z</time>
      </trkpt>
      <trkpt lat="46.19344" lon="6.57782">
        <ele>1539.21</ele>
        <time>2019-02-08T12:30:45Z</time>
      </trkpt>
      <trkpt lat="46.19342" lon="6.57783">
        <ele>1539.21</ele>
        <time>2019-02-08T12:30:48Z</time>
      </trkpt>
      <trkpt lat="46.19331" lon="6.57782">
        <ele>1539.69</ele>
        <time>2019-02-08T12:31:00Z</time>
      </trkpt>
      <trkpt lat="46.19324" lon="6.57781">
        <ele>1539.69</ele>
        <time>2019-02-08T12:31:09Z</time>
      </trkpt>
      <trkpt lat="46.19319" lon="6.57782">
        <ele>1539.69</ele>
        <time>2019-02-08T12:31:14Z</time>
      </trkpt>
      <trkpt lat="46.19316" lon="6.57782">
        <ele>1540.17</ele>
        <time>2019-02-08T12:31:18Z</time>
      </trkpt>
      <trkpt lat="46.19314" lon="6.57783">
        <ele>1539.21</ele>
        <time>2019-02-08T12:31:20Z</time>
      </trkpt>
      <trkpt lat="46.1931" lon="6.57785">
        <ele>1540.65</ele>
        <time>2019-02-08T12:31:31Z</time>
      </trkpt>
      <trkpt lat="46.19308" lon="6.57786">
        <ele>1541.13</ele>
        <time>2019-02-08T12:31:35Z</time>
      </trkpt>
      <trkpt lat="46.19303" lon="6.57789">
        <ele>1540.65</ele>
        <time>2019-02-08T12:31:43Z</time>
      </trkpt>
      <trkpt lat="46.19295" lon="6.57791">
        <ele>1542.57</ele>
        <time>2019-02-08T12:31:57Z</time>
      </trkpt>
      <trkpt lat="46.19288" lon="6.57793">
        <ele>1543.53</ele>
        <time>2019-02-08T12:32:10Z</time>
      </trkpt>
      <trkpt lat="46.19285" lon="6.57792">
        <ele>1544.98</ele>
        <time>2019-02-08T12:32:21Z</time>
      </trkpt>
      <trkpt lat="46.19284" lon="6.57792">
        <ele>1544.98</ele>
        <time>2019-02-08T12:32:33Z</time>
      </trkpt>
      <trkpt lat="46.19282" lon="6.57792">
        <ele>1545.46</ele>
        <time>2019-02-08T12:32:36Z</time>
      </trkpt>
      <trkpt lat="46.19272" lon="6.57794">
        <ele>1546.9</ele>
        <time>2019-02-08T12:32:48Z</time>
      </trkpt>
      <trkpt lat="46.19263" lon="6.57796">
        <ele>1547.86</ele>
        <time>2019-02-08T12:32:57Z</time>
      </trkpt>
      <trkpt lat="46.19257" lon="6.57795">
        <ele>1548.34</ele>
        <time>2019-02-08T12:33:07Z</time>
      </trkpt>
      <trkpt lat="46.19252" lon="6.57796">
        <ele>1548.82</ele>
        <time>2019-02-08T12:33:19Z</time>
      </trkpt>
      <trkpt lat="46.19249" lon="6.57797">
        <ele>1550.74</ele>
        <time>2019-02-08T12:33:32Z</time>
      </trkpt>
      <trkpt lat="46.19247" lon="6.57798">
        <ele>1551.22</ele>
        <time>2019-02-08T12:33:41Z</time>
      </trkpt>
      <trkpt lat="46.19244" lon="6.57796">
        <ele>1550.74</ele>
        <time>2019-02-08T12:34:27Z</time>
      </trkpt>
      <trkpt lat="46.19244" lon="6.57797">
        <ele>1550.74</ele>
        <time>2019-02-08T12:35:25Z</time>
      </trkpt>
      <trkpt lat="46.19243" lon="6.57796">
        <ele>1550.74</ele>
        <time>2019-02-08T12:36:24Z</time>
      </trkpt>
      <trkpt lat="46.19243" lon="6.57796">
        <ele>1550.74</ele>
        <time>2019-02-08T12:36:45Z</time>
      </trkpt>
      <trkpt lat="46.19243" lon="6.57796">
        <ele>1551.22</ele>
        <time>2019-02-08T12:37:23Z</time>
      </trkpt>
      <trkpt lat="46.19243" lon="6.57795">
        <ele>1551.22</ele>
        <time>2019-02-08T12:38:08Z</time>
      </trkpt>
      <trkpt lat="46.19243" lon="6.57794">
        <ele>1551.22</ele>
        <time>2019-02-08T12:38:33Z</time>
      </trkpt>
      <trkpt lat="46.19243" lon="6.57793">
        <ele>1550.74</ele>
        <time>2019-02-08T12:40:40Z</time>
      </trkpt>
      <trkpt lat="46.19242" lon="6.57793">
        <ele>1550.74</ele>
        <time>2019-02-08T12:41:02Z</time>
      </trkpt>
      <trkpt lat="46.19242" lon="6.57793">
        <ele>1550.74</ele>
        <time>2019-02-08T12:41:51Z</time>
      </trkpt>
      <trkpt lat="46.19246" lon="6.57793">
        <ele>1550.74</ele>
        <time>2019-02-08T12:41:56Z</time>
      </trkpt>
      <trkpt lat="46.19253" lon="6.57792">
        <ele>1549.3</ele>
        <time>2019-02-08T12:42:07Z</time>
      </trkpt>
      <trkpt lat="46.19259" lon="6.57793">
        <ele>1547.38</ele>
        <time>2019-02-08T12:42:16Z</time>
      </trkpt>
      <trkpt lat="46.19267" lon="6.57797">
        <ele>1544.98</ele>
        <time>2019-02-08T12:42:28Z</time>
      </trkpt>
      <trkpt lat="46.19273" lon="6.57801">
        <ele>1543.53</ele>
        <time>2019-02-08T12:42:40Z</time>
      </trkpt>
      <trkpt lat="46.19278" lon="6.57805">
        <ele>1542.09</ele>
        <time>2019-02-08T12:42:47Z</time>
      </trkpt>
      <trkpt lat="46.19288" lon="6.57813">
        <ele>1540.65</ele>
        <time>2019-02-08T12:42:58Z</time>
      </trkpt>
      <trkpt lat="46.19288" lon="6.57814">
        <ele>1540.65</ele>
        <time>2019-02-08T12:42:59Z</time>
      </trkpt>
      <trkpt lat="46.19296" lon="6.57821">
        <ele>1538.73</ele>
        <time>2019-02-08T12:43:09Z</time>
      </trkpt>
      <trkpt lat="46.19301" lon="6.57827">
        <ele>1535.36</ele>
        <time>2019-02-08T12:43:20Z</time>
      </trkpt>
      <trkpt lat="46.19303" lon="6.57827">
        <ele>1534.88</ele>
        <time>2019-02-08T12:43:24Z</time>
      </trkpt>
      <trkpt lat="46.19311" lon="6.57832">
        <ele>1532.96</ele>
        <time>2019-02-08T12:43:35Z</time>
      </trkpt>
      <trkpt lat="46.19318" lon="6.57834">
        <ele>1532.48</ele>
        <time>2019-02-08T12:43:41Z</time>
      </trkpt>
      <trkpt lat="46.19322" lon="6.57835">
        <ele>1532.48</ele>
        <time>2019-02-08T12:43:54Z</time>
      </trkpt>
      <trkpt lat="46.19328" lon="6.57837">
        <ele>1531.52</ele>
        <time>2019-02-08T12:44:28Z</time>
      </trkpt>
      <trkpt lat="46.19336" lon="6.57839">
        <ele>1531.52</ele>
        <time>2019-02-08T12:44:54Z</time>
      </trkpt>
      <trkpt lat="46.19346" lon="6.57842">
        <ele>1530.08</ele>
        <time>2019-02-08T12:45:04Z</time>
      </trkpt>
      <trkpt lat="46.19352" lon="6.57845">
        <ele>1530.08</ele>
        <time>2019-02-08T12:45:10Z</time>
      </trkpt>
      <trkpt lat="46.19354" lon="6.57846">
        <ele>1530.08</ele>
        <time>2019-02-08T12:45:12Z</time>
      </trkpt>
      <trkpt lat="46.19362" lon="6.57849">
        <ele>1530.08</ele>
        <time>2019-02-08T12:45:23Z</time>
      </trkpt>
      <trkpt lat="46.1937" lon="6.57849">
        <ele>1529.59</ele>
        <time>2019-02-08T12:45:34Z</time>
      </trkpt>
      <trkpt lat="46.19379" lon="6.57854">
        <ele>1528.63</ele>
        <time>2019-02-08T12:45:45Z</time>
      </trkpt>
      <trkpt lat="46.19383" lon="6.57855">
        <ele>1529.59</ele>
        <time>2019-02-08T12:45:52Z</time>
      </trkpt>
      <trkpt lat="46.19388" lon="6.57857">
        <ele>1530.08</ele>
        <time>2019-02-08T12:45:58Z</time>
      </trkpt>
      <trkpt lat="46.19397" lon="6.57861">
        <ele>1530.56</ele>
        <time>2019-02-08T12:46:10Z</time>
      </trkpt>
      <trkpt lat="46.19407" lon="6.57864">
        <ele>1531.52</ele>
        <time>2019-02-08T12:46:21Z</time>
      </trkpt>
      <trkpt lat="46.19414" lon="6.57867">
        <ele>1532.96</ele>
        <time>2019-02-08T12:46:31Z</time>
      </trkpt>
      <trkpt lat="46.19421" lon="6.57869">
        <ele>1533.92</ele>
        <time>2019-02-08T12:46:43Z</time>
      </trkpt>
      <trkpt lat="46.19424" lon="6.57871">
        <ele>1533.92</ele>
        <time>2019-02-08T12:46:47Z</time>
      </trkpt>
      <trkpt lat="46.19428" lon="6.57872">
        <ele>1534.88</ele>
        <time>2019-02-08T12:46:52Z</time>
      </trkpt>
      <trkpt lat="46.19433" lon="6.57876">
        <ele>1535.36</ele>
        <time>2019-02-08T12:47:03Z</time>
      </trkpt>
      <trkpt lat="46.19438" lon="6.57882">
        <ele>1535.36</ele>
        <time>2019-02-08T12:47:14Z</time>
      </trkpt>
      <trkpt lat="46.19439" lon="6.57882">
        <ele>1535.84</ele>
        <time>2019-02-08T12:47:15Z</time>
      </trkpt>
      <trkpt lat="46.19444" lon="6.57886">
        <ele>1534.88</ele>
        <time>2019-02-08T12:47:25Z</time>
      </trkpt>
      <trkpt lat="46.19451" lon="6.57892">
        <ele>1535.36</ele>
        <time>2019-02-08T12:47:36Z</time>
      </trkpt>
      <trkpt lat="46.19454" lon="6.5789">
        <ele>1535.36</ele>
        <time>2019-02-08T12:47:47Z</time>
      </trkpt>
      <trkpt lat="46.19464" lon="6.57878">
        <ele>1533.92</ele>
        <time>2019-02-08T12:48:01Z</time>
      </trkpt>
      <trkpt lat="46.19465" lon="6.57877">
        <ele>1533.44</ele>
        <time>2019-02-08T12:48:11Z</time>
      </trkpt>
      <trkpt lat="46.19471" lon="6.57872">
        <ele>1532.96</ele>
        <time>2019-02-08T12:48:26Z</time>
      </trkpt>
      <trkpt lat="46.19481" lon="6.5787">
        <ele>1531.04</ele>
        <time>2019-02-08T12:48:37Z</time>
      </trkpt>
      <trkpt lat="46.19489" lon="6.57869">
        <ele>1530.56</ele>
        <time>2019-02-08T12:48:47Z</time>
      </trkpt>
      <trkpt lat="46.19502" lon="6.57868">
        <ele>1528.63</ele>
        <time>2019-02-08T12:49:00Z</time>
      </trkpt>
      <trkpt lat="46.19502" lon="6.57868">
        <ele>1528.63</ele>
        <time>2019-02-08T12:49:01Z</time>
      </trkpt>
      <trkpt lat="46.19513" lon="6.57868">
        <ele>1527.67</ele>
        <time>2019-02-08T12:49:13Z</time>
      </trkpt>
      <trkpt lat="46.19521" lon="6.57869">
        <ele>1526.71</ele>
        <time>2019-02-08T12:49:21Z</time>
      </trkpt>
      <trkpt lat="46.19531" lon="6.57868">
        <ele>1524.79</ele>
        <time>2019-02-08T12:49:30Z</time>
      </trkpt>
      <trkpt lat="46.19533" lon="6.57868">
        <ele>1524.79</ele>
        <time>2019-02-08T12:49:32Z</time>
      </trkpt>
      <trkpt lat="46.19535" lon="6.57867">
        <ele>1525.27</ele>
        <time>2019-02-08T12:49:34Z</time>
      </trkpt>
      <trkpt lat="46.19549" lon="6.57864">
        <ele>1523.83</ele>
        <time>2019-02-08T12:49:47Z</time>
      </trkpt>
      <trkpt lat="46.1956" lon="6.57863">
        <ele>1522.39</ele>
        <time>2019-02-08T12:49:59Z</time>
      </trkpt>
      <trkpt lat="46.19561" lon="6.57862">
        <ele>1521.42</ele>
        <time>2019-02-08T12:50:12Z</time>
      </trkpt>
      <trkpt lat="46.19561" lon="6.57864">
        <ele>1521.9</ele>
        <time>2019-02-08T12:50:26Z</time>
      </trkpt>
      <trkpt lat="46.19565" lon="6.57862">
        <ele>1521.42</ele>
        <time>2019-02-08T12:50:31Z</time>
      </trkpt>
      <trkpt lat="46.19566" lon="6.5786">
        <ele>1521.42</ele>
        <time>2019-02-08T12:50:33Z</time>
      </trkpt>
      <trkpt lat="46.19571" lon="6.57857">
        <ele>1521.42</ele>
        <time>2019-02-08T12:50:38Z</time>
      </trkpt>
      <trkpt lat="46.19577" lon="6.5785">
        <ele>1520.94</ele>
        <time>2019-02-08T12:50:47Z</time>
      </trkpt>
      <trkpt lat="46.19578" lon="6.57849">
        <ele>1520.46</ele>
        <time>2019-02-08T12:50:49Z</time>
      </trkpt>
      <trkpt lat="46.19583" lon="6.57845">
        <ele>1519.5</ele>
        <time>2019-02-08T12:51:00Z</time>
      </trkpt>
      <trkpt lat="46.19583" lon="6.57845">
        <ele>1519.98</ele>
        <time>2019-02-08T12:51:41Z</time>
      </trkpt>
      <trkpt lat="46.19583" lon="6.57845">
        <ele>1519.98</ele>
        <time>2019-02-08T12:51:56Z</time>
      </trkpt>
      <trkpt lat="46.19589" lon="6.57842">
        <ele>1519.98</ele>
        <time>2019-02-08T12:54:54Z</time>
      </trkpt>
      <trkpt lat="46.19591" lon="6.57839">
        <ele>1519.5</ele>
        <time>2019-02-08T12:54:57Z</time>
      </trkpt>
      <trkpt lat="46.196" lon="6.57833">
        <ele>1518.54</ele>
        <time>2019-02-08T12:55:08Z</time>
      </trkpt>
      <trkpt lat="46.19605" lon="6.57829">
        <ele>1517.58</ele>
        <time>2019-02-08T12:55:14Z</time>
      </trkpt>
      <trkpt lat="46.19611" lon="6.57824">
        <ele>1517.1</ele>
        <time>2019-02-08T12:55:21Z</time>
      </trkpt>
      <trkpt lat="46.19613" lon="6.57821">
        <ele>1516.14</ele>
        <time>2019-02-08T12:55:24Z</time>
      </trkpt>
      <trkpt lat="46.19616" lon="6.57819">
        <ele>1516.62</ele>
        <time>2019-02-08T12:55:27Z</time>
      </trkpt>
      <trkpt lat="46.19618" lon="6.57817">
        <ele>1515.66</ele>
        <time>2019-02-08T12:55:30Z</time>
      </trkpt>
      <trkpt lat="46.19621" lon="6.57815">
        <ele>1515.18</ele>
        <time>2019-02-08T12:55:33Z</time>
      </trkpt>
      <trkpt lat="46.19623" lon="6.57814">
        <ele>1515.18</ele>
        <time>2019-02-08T12:55:35Z</time>
      </trkpt>
      <trkpt lat="46.19628" lon="6.57812">
        <ele>1514.21</ele>
        <time>2019-02-08T12:55:40Z</time>
      </trkpt>
      <trkpt lat="46.1963" lon="6.57811">
        <ele>1513.73</ele>
        <time>2019-02-08T12:55:42Z</time>
      </trkpt>
      <trkpt lat="46.19639" lon="6.57804">
        <ele>1512.29</ele>
        <time>2019-02-08T12:55:54Z</time>
      </trkpt>
      <trkpt lat="46.19648" lon="6.57795">
        <ele>1509.41</ele>
        <time>2019-02-08T12:56:07Z</time>
      </trkpt>
      <trkpt lat="46.19656" lon="6.57791">
        <ele>1507.48</ele>
        <time>2019-02-08T12:56:15Z</time>
      </trkpt>
      <trkpt lat="46.19661" lon="6.57789">
        <ele>1506.52</ele>
        <time>2019-02-08T12:56:19Z</time>
      </trkpt>
      <trkpt lat="46.19674" lon="6.5779">
        <ele>1505.08</ele>
        <time>2019-02-08T12:56:33Z</time>
      </trkpt>
      <trkpt lat="46.19686" lon="6.57785">
        <ele>1503.64</ele>
        <time>2019-02-08T12:56:44Z</time>
      </trkpt>
      <trkpt lat="46.19694" lon="6.57779">
        <ele>1502.68</ele>
        <time>2019-02-08T12:56:54Z</time>
      </trkpt>
      <trkpt lat="46.19702" lon="6.5777">
        <ele>1501.24</ele>
        <time>2019-02-08T12:57:06Z</time>
      </trkpt>
      <trkpt lat="46.19704" lon="6.57767">
        <ele>1501.72</ele>
        <time>2019-02-08T12:57:09Z</time>
      </trkpt>
      <trkpt lat="46.19714" lon="6.57756">
        <ele>1500.27</ele>
        <time>2019-02-08T12:57:22Z</time>
      </trkpt>
      <trkpt lat="46.19719" lon="6.57749">
        <ele>1499.31</ele>
        <time>2019-02-08T12:57:33Z</time>
      </trkpt>
      <trkpt lat="46.19719" lon="6.57747">
        <ele>1498.83</ele>
        <time>2019-02-08T12:57:35Z</time>
      </trkpt>
      <trkpt lat="46.19727" lon="6.5774">
        <ele>1495.95</ele>
        <time>2019-02-08T12:57:47Z</time>
      </trkpt>
      <trkpt lat="46.19741" lon="6.57736">
        <ele>1494.03</ele>
        <time>2019-02-08T12:58:00Z</time>
      </trkpt>
      <trkpt lat="46.19756" lon="6.5773">
        <ele>1492.1</ele>
        <time>2019-02-08T12:58:13Z</time>
      </trkpt>
      <trkpt lat="46.19765" lon="6.57727">
        <ele>1490.66</ele>
        <time>2019-02-08T12:58:26Z</time>
      </trkpt>
      <trkpt lat="46.19779" lon="6.57727">
        <ele>1488.74</ele>
        <time>2019-02-08T12:58:38Z</time>
      </trkpt>
      <trkpt lat="46.19785" lon="6.57732">
        <ele>1487.3</ele>
        <time>2019-02-08T12:58:50Z</time>
      </trkpt>
      <trkpt lat="46.19796" lon="6.57737">
        <ele>1485.37</ele>
        <time>2019-02-08T12:59:03Z</time>
      </trkpt>
      <trkpt lat="46.19798" lon="6.57739">
        <ele>1483.93</ele>
        <time>2019-02-08T12:59:06Z</time>
      </trkpt>
      <trkpt lat="46.19803" lon="6.5775">
        <ele>1482.97</ele>
        <time>2019-02-08T12:59:18Z</time>
      </trkpt>
      <trkpt lat="46.19805" lon="6.57758">
        <ele>1480.57</ele>
        <time>2019-02-08T12:59:30Z</time>
      </trkpt>
      <trkpt lat="46.19806" lon="6.57765">
        <ele>1478.65</ele>
        <time>2019-02-08T12:59:42Z</time>
      </trkpt>
      <trkpt lat="46.19809" lon="6.5777">
        <ele>1475.28</ele>
        <time>2019-02-08T12:59:50Z</time>
      </trkpt>
      <trkpt lat="46.19809" lon="6.57778">
        <ele>1473.36</ele>
        <time>2019-02-08T13:00:04Z</time>
      </trkpt>
      <trkpt lat="46.19809" lon="6.57781">
        <ele>1470.95</ele>
        <time>2019-02-08T13:00:28Z</time>
      </trkpt>
      <trkpt lat="46.19805" lon="6.57788">
        <ele>1469.99</ele>
        <time>2019-02-08T13:00:36Z</time>
      </trkpt>
      <trkpt lat="46.19799" lon="6.57796">
        <ele>1467.59</ele>
        <time>2019-02-08T13:00:48Z</time>
      </trkpt>
      <trkpt lat="46.19787" lon="6.57803">
        <ele>1465.19</ele>
        <time>2019-02-08T13:01:01Z</time>
      </trkpt>
      <trkpt lat="46.19782" lon="6.57803">
        <ele>1463.26</ele>
        <time>2019-02-08T13:01:09Z</time>
      </trkpt>
      <trkpt lat="46.19777" lon="6.57812">
        <ele>1461.34</ele>
        <time>2019-02-08T13:01:20Z</time>
      </trkpt>
      <trkpt lat="46.19773" lon="6.57823">
        <ele>1458.94</ele>
        <time>2019-02-08T13:01:30Z</time>
      </trkpt>
      <trkpt lat="46.19777" lon="6.57833">
        <ele>1457.02</ele>
        <time>2019-02-08T13:01:41Z</time>
      </trkpt>
      <trkpt lat="46.19786" lon="6.57844">
        <ele>1453.65</ele>
        <time>2019-02-08T13:01:53Z</time>
      </trkpt>
      <trkpt lat="46.19788" lon="6.57846">
        <ele>1453.65</ele>
        <time>2019-02-08T13:01:55Z</time>
      </trkpt>
      <trkpt lat="46.19793" lon="6.57852">
        <ele>1452.69</ele>
        <time>2019-02-08T13:02:02Z</time>
      </trkpt>
      <trkpt lat="46.198" lon="6.57865">
        <ele>1449.32</ele>
        <time>2019-02-08T13:02:14Z</time>
      </trkpt>
      <trkpt lat="46.19812" lon="6.57877">
        <ele>1445.96</ele>
        <time>2019-02-08T13:02:29Z</time>
      </trkpt>
      <trkpt lat="46.19819" lon="6.57879">
        <ele>1443.56</ele>
        <time>2019-02-08T13:02:38Z</time>
      </trkpt>
      <trkpt lat="46.19825" lon="6.57882">
        <ele>1441.63</ele>
        <time>2019-02-08T13:02:44Z</time>
      </trkpt>
      <trkpt lat="46.19828" lon="6.57891">
        <ele>1440.19</ele>
        <time>2019-02-08T13:02:56Z</time>
      </trkpt>
      <trkpt lat="46.19837" lon="6.57895">
        <ele>1438.75</ele>
        <time>2019-02-08T13:03:09Z</time>
      </trkpt>
      <trkpt lat="46.19846" lon="6.57896">
        <ele>1437.31</ele>
        <time>2019-02-08T13:03:22Z</time>
      </trkpt>
      <trkpt lat="46.19855" lon="6.57894">
        <ele>1434.42</ele>
        <time>2019-02-08T13:03:34Z</time>
      </trkpt>
      <trkpt lat="46.19864" lon="6.57889">
        <ele>1431.06</ele>
        <time>2019-02-08T13:03:46Z</time>
      </trkpt>
      <trkpt lat="46.19869" lon="6.57888">
        <ele>1428.18</ele>
        <time>2019-02-08T13:03:57Z</time>
      </trkpt>
      <trkpt lat="46.19874" lon="6.5789">
        <ele>1425.29</ele>
        <time>2019-02-08T13:04:09Z</time>
      </trkpt>
      <trkpt lat="46.19883" lon="6.5789">
        <ele>1421.93</ele>
        <time>2019-02-08T13:04:20Z</time>
      </trkpt>
      <trkpt lat="46.1989" lon="6.57894">
        <ele>1419.04</ele>
        <time>2019-02-08T13:04:30Z</time>
      </trkpt>
      <trkpt lat="46.19899" lon="6.57895">
        <ele>1416.64</ele>
        <time>2019-02-08T13:04:41Z</time>
      </trkpt>
      <trkpt lat="46.19906" lon="6.57898">
        <ele>1414.24</ele>
        <time>2019-02-08T13:04:51Z</time>
      </trkpt>
      <trkpt lat="46.19916" lon="6.57902">
        <ele>1412.31</ele>
        <time>2019-02-08T13:04:58Z</time>
      </trkpt>
      <trkpt lat="46.19925" lon="6.57907">
        <ele>1410.39</ele>
        <time>2019-02-08T13:05:05Z</time>
      </trkpt>
      <trkpt lat="46.1993" lon="6.57909">
        <ele>1409.43</ele>
        <time>2019-02-08T13:05:10Z</time>
      </trkpt>
      <trkpt lat="46.19946" lon="6.57909">
        <ele>1407.03</ele>
        <time>2019-02-08T13:05:24Z</time>
      </trkpt>
      <trkpt lat="46.19947" lon="6.57909">
        <ele>1407.03</ele>
        <time>2019-02-08T13:05:25Z</time>
      </trkpt>
      <trkpt lat="46.1995" lon="6.57908">
        <ele>1406.07</ele>
        <time>2019-02-08T13:05:28Z</time>
      </trkpt>
      <trkpt lat="46.19954" lon="6.57907">
        <ele>1406.55</ele>
        <time>2019-02-08T13:05:31Z</time>
      </trkpt>
      <trkpt lat="46.19966" lon="6.57907">
        <ele>1403.66</ele>
        <time>2019-02-08T13:05:42Z</time>
      </trkpt>
      <trkpt lat="46.1997" lon="6.57905">
        <ele>1404.14</ele>
        <time>2019-02-08T13:05:56Z</time>
      </trkpt>
      <trkpt lat="46.1997" lon="6.57905">
        <ele>1404.14</ele>
        <time>2019-02-08T13:06:15Z</time>
      </trkpt>
      <trkpt lat="46.19972" lon="6.57908">
        <ele>1404.14</ele>
        <time>2019-02-08T13:07:12Z</time>
      </trkpt>
      <trkpt lat="46.19971" lon="6.57908">
        <ele>1404.14</ele>
        <time>2019-02-08T13:08:08Z</time>
      </trkpt>
      <trkpt lat="46.1997" lon="6.579">
        <ele>1404.14</ele>
        <time>2019-02-08T13:09:03Z</time>
      </trkpt>
      <trkpt lat="46.19968" lon="6.57891">
        <ele>1402.22</ele>
        <time>2019-02-08T13:09:13Z</time>
      </trkpt>
      <trkpt lat="46.19969" lon="6.5788">
        <ele>1398.86</ele>
        <time>2019-02-08T13:09:24Z</time>
      </trkpt>
      <trkpt lat="46.19975" lon="6.5787">
        <ele>1396.93</ele>
        <time>2019-02-08T13:09:35Z</time>
      </trkpt>
      <trkpt lat="46.19982" lon="6.57864">
        <ele>1394.53</ele>
        <time>2019-02-08T13:09:46Z</time>
      </trkpt>
      <trkpt lat="46.1999" lon="6.57858">
        <ele>1391.65</ele>
        <time>2019-02-08T13:10:00Z</time>
      </trkpt>
      <trkpt lat="46.19991" lon="6.57857">
        <ele>1391.65</ele>
        <time>2019-02-08T13:10:02Z</time>
      </trkpt>
      <trkpt lat="46.19993" lon="6.57852">
        <ele>1388.76</ele>
        <time>2019-02-08T13:10:13Z</time>
      </trkpt>
      <trkpt lat="46.19992" lon="6.57851">
        <ele>1388.28</ele>
        <time>2019-02-08T13:10:24Z</time>
      </trkpt>
      <trkpt lat="46.19991" lon="6.57849">
        <ele>1387.8</ele>
        <time>2019-02-08T13:10:51Z</time>
      </trkpt>
      <trkpt lat="46.19992" lon="6.57841">
        <ele>1384.92</ele>
        <time>2019-02-08T13:11:05Z</time>
      </trkpt>
      <trkpt lat="46.19991" lon="6.5783">
        <ele>1382.51</ele>
        <time>2019-02-08T13:11:18Z</time>
      </trkpt>
      <trkpt lat="46.19991" lon="6.57824">
        <ele>1380.11</ele>
        <time>2019-02-08T13:11:28Z</time>
      </trkpt>
      <trkpt lat="46.19986" lon="6.57809">
        <ele>1376.75</ele>
        <time>2019-02-08T13:11:41Z</time>
      </trkpt>
      <trkpt lat="46.19984" lon="6.578">
        <ele>1373.38</ele>
        <time>2019-02-08T13:11:52Z</time>
      </trkpt>
      <trkpt lat="46.19989" lon="6.57791">
        <ele>1370.5</ele>
        <time>2019-02-08T13:12:05Z</time>
      </trkpt>
      <trkpt lat="46.19994" lon="6.57798">
        <ele>1367.13</ele>
        <time>2019-02-08T13:12:18Z</time>
      </trkpt>
      <trkpt lat="46.2" lon="6.57802">
        <ele>1364.73</ele>
        <time>2019-02-08T13:12:31Z</time>
      </trkpt>
      <trkpt lat="46.2" lon="6.57801">
        <ele>1364.25</ele>
        <time>2019-02-08T13:13:02Z</time>
      </trkpt>
      <trkpt lat="46.20002" lon="6.578">
        <ele>1363.29</ele>
        <time>2019-02-08T13:14:38Z</time>
      </trkpt>
      <trkpt lat="46.20008" lon="6.57792">
        <ele>1360.88</ele>
        <time>2019-02-08T13:14:53Z</time>
      </trkpt>
      <trkpt lat="46.20009" lon="6.57791">
        <ele>1360.4</ele>
        <time>2019-02-08T13:14:54Z</time>
      </trkpt>
      <trkpt lat="46.20012" lon="6.57789">
        <ele>1359.92</ele>
        <time>2019-02-08T13:14:58Z</time>
      </trkpt>
      <trkpt lat="46.20025" lon="6.57797">
        <ele>1357.04</ele>
        <time>2019-02-08T13:15:12Z</time>
      </trkpt>
      <trkpt lat="46.20031" lon="6.57803">
        <ele>1355.12</ele>
        <time>2019-02-08T13:15:25Z</time>
      </trkpt>
      <trkpt lat="46.20034" lon="6.578">
        <ele>1352.23</ele>
        <time>2019-02-08T13:15:38Z</time>
      </trkpt>
      <trkpt lat="46.20035" lon="6.57798">
        <ele>1349.83</ele>
        <time>2019-02-08T13:15:49Z</time>
      </trkpt>
      <trkpt lat="46.20045" lon="6.57787">
        <ele>1347.43</ele>
        <time>2019-02-08T13:15:59Z</time>
      </trkpt>
      <trkpt lat="46.20055" lon="6.57779">
        <ele>1345.5</ele>
        <time>2019-02-08T13:16:09Z</time>
      </trkpt>
      <trkpt lat="46.20058" lon="6.57776">
        <ele>1345.02</ele>
        <time>2019-02-08T13:16:13Z</time>
      </trkpt>
      <trkpt lat="46.20062" lon="6.57772">
        <ele>1344.06</ele>
        <time>2019-02-08T13:16:27Z</time>
      </trkpt>
      <trkpt lat="46.20067" lon="6.57768">
        <ele>1341.66</ele>
        <time>2019-02-08T13:16:38Z</time>
      </trkpt>
      <trkpt lat="46.20075" lon="6.57766">
        <ele>1340.22</ele>
        <time>2019-02-08T13:16:51Z</time>
      </trkpt>
      <trkpt lat="46.20085" lon="6.57762">
        <ele>1338.77</ele>
        <time>2019-02-08T13:17:01Z</time>
      </trkpt>
      <trkpt lat="46.20096" lon="6.57756">
        <ele>1337.33</ele>
        <time>2019-02-08T13:17:14Z</time>
      </trkpt>
      <trkpt lat="46.20102" lon="6.57754">
        <ele>1336.37</ele>
        <time>2019-02-08T13:17:23Z</time>
      </trkpt>
      <trkpt lat="46.20109" lon="6.5775">
        <ele>1334.45</ele>
        <time>2019-02-08T13:17:35Z</time>
      </trkpt>
      <trkpt lat="46.20121" lon="6.57745">
        <ele>1332.52</ele>
        <time>2019-02-08T13:17:47Z</time>
      </trkpt>
      <trkpt lat="46.2013" lon="6.57739">
        <ele>1330.6</ele>
        <time>2019-02-08T13:18:01Z</time>
      </trkpt>
      <trkpt lat="46.20141" lon="6.57734">
        <ele>1328.2</ele>
        <time>2019-02-08T13:18:15Z</time>
      </trkpt>
      <trkpt lat="46.20148" lon="6.57729">
        <ele>1326.76</ele>
        <time>2019-02-08T13:18:26Z</time>
      </trkpt>
      <trkpt lat="46.20148" lon="6.57729">
        <ele>1326.28</ele>
        <time>2019-02-08T13:18:50Z</time>
      </trkpt>
      <trkpt lat="46.20148" lon="6.5773">
        <ele>1324.83</ele>
        <time>2019-02-08T13:19:29Z</time>
      </trkpt>
      <trkpt lat="46.20155" lon="6.57728">
        <ele>1323.39</ele>
        <time>2019-02-08T13:19:44Z</time>
      </trkpt>
      <trkpt lat="46.20159" lon="6.57727">
        <ele>1320.99</ele>
        <time>2019-02-08T13:19:54Z</time>
      </trkpt>
      <trkpt lat="46.20172" lon="6.5772">
        <ele>1318.59</ele>
        <time>2019-02-08T13:20:07Z</time>
      </trkpt>
      <trkpt lat="46.20183" lon="6.57714">
        <ele>1316.66</ele>
        <time>2019-02-08T13:20:19Z</time>
      </trkpt>
      <trkpt lat="46.20193" lon="6.57715">
        <ele>1313.3</ele>
        <time>2019-02-08T13:20:33Z</time>
      </trkpt>
      <trkpt lat="46.202" lon="6.57714">
        <ele>1311.38</ele>
        <time>2019-02-08T13:20:44Z</time>
      </trkpt>
      <trkpt lat="46.20213" lon="6.57708">
        <ele>1309.45</ele>
        <time>2019-02-08T13:20:57Z</time>
      </trkpt>
      <trkpt lat="46.20219" lon="6.57708">
        <ele>1306.57</ele>
        <time>2019-02-08T13:21:11Z</time>
      </trkpt>
      <trkpt lat="46.20229" lon="6.5771">
        <ele>1304.17</ele>
        <time>2019-02-08T13:21:22Z</time>
      </trkpt>
      <trkpt lat="46.20241" lon="6.57711">
        <ele>1302.72</ele>
        <time>2019-02-08T13:21:32Z</time>
      </trkpt>
      <trkpt lat="46.20253" lon="6.57708">
        <ele>1299.84</ele>
        <time>2019-02-08T13:21:44Z</time>
      </trkpt>
      <trkpt lat="46.20257" lon="6.57706">
        <ele>1297.92</ele>
        <time>2019-02-08T13:21:54Z</time>
      </trkpt>
      <trkpt lat="46.20272" lon="6.57711">
        <ele>1295.51</ele>
        <time>2019-02-08T13:22:07Z</time>
      </trkpt>
      <trkpt lat="46.20277" lon="6.57715">
        <ele>1293.11</ele>
        <time>2019-02-08T13:22:19Z</time>
      </trkpt>
      <trkpt lat="46.20293" lon="6.57723">
        <ele>1290.23</ele>
        <time>2019-02-08T13:22:31Z</time>
      </trkpt>
      <trkpt lat="46.20307" lon="6.57727">
        <ele>1287.34</ele>
        <time>2019-02-08T13:22:47Z</time>
      </trkpt>
      <trkpt lat="46.20314" lon="6.57728">
        <ele>1284.46</ele>
        <time>2019-02-08T13:23:00Z</time>
      </trkpt>
      <trkpt lat="46.20318" lon="6.57729">
        <ele>1281.57</ele>
        <time>2019-02-08T13:23:12Z</time>
      </trkpt>
      <trkpt lat="46.2033" lon="6.57733">
        <ele>1279.17</ele>
        <time>2019-02-08T13:23:24Z</time>
      </trkpt>
      <trkpt lat="46.20345" lon="6.5774">
        <ele>1278.21</ele>
        <time>2019-02-08T13:23:34Z</time>
      </trkpt>
      <trkpt lat="46.20347" lon="6.57741">
        <ele>1278.21</ele>
        <time>2019-02-08T13:23:52Z</time>
      </trkpt>
      <trkpt lat="46.20352" lon="6.5774">
        <ele>1277.25</ele>
        <time>2019-02-08T13:28:28Z</time>
      </trkpt>
      <trkpt lat="46.20354" lon="6.5774">
        <ele>1277.25</ele>
        <time>2019-02-08T13:29:21Z</time>
      </trkpt>
      <trkpt lat="46.20356" lon="6.5774">
        <ele>1277.73</ele>
        <time>2019-02-08T13:31:15Z</time>
      </trkpt>
      <trkpt lat="46.20358" lon="6.57739">
        <ele>1277.73</ele>
        <time>2019-02-08T13:33:14Z</time>
      </trkpt>
      <trkpt lat="46.20361" lon="6.57741">
        <ele>1278.21</ele>
        <time>2019-02-08T13:33:56Z</time>
      </trkpt>
      <trkpt lat="46.2037" lon="6.57746">
        <ele>1276.77</ele>
        <time>2019-02-08T13:34:06Z</time>
      </trkpt>
      <trkpt lat="46.20381" lon="6.57746">
        <ele>1274.36</ele>
        <time>2019-02-08T13:34:19Z</time>
      </trkpt>
      <trkpt lat="46.2039" lon="6.57744">
        <ele>1271.96</ele>
        <time>2019-02-08T13:34:32Z</time>
      </trkpt>
      <trkpt lat="46.20396" lon="6.57742">
        <ele>1271</ele>
        <time>2019-02-08T13:34:43Z</time>
      </trkpt>
      <trkpt lat="46.20408" lon="6.57746">
        <ele>1268.12</ele>
        <time>2019-02-08T13:34:56Z</time>
      </trkpt>
      <trkpt lat="46.20415" lon="6.57748">
        <ele>1266.19</ele>
        <time>2019-02-08T13:35:08Z</time>
      </trkpt>
      <trkpt lat="46.20421" lon="6.57748">
        <ele>1265.23</ele>
        <time>2019-02-08T13:35:19Z</time>
      </trkpt>
      <trkpt lat="46.20434" lon="6.57751">
        <ele>1261.87</ele>
        <time>2019-02-08T13:35:32Z</time>
      </trkpt>
      <trkpt lat="46.20437" lon="6.57755">
        <ele>1258.98</ele>
        <time>2019-02-08T13:35:44Z</time>
      </trkpt>
      <trkpt lat="46.20443" lon="6.57759">
        <ele>1256.1</ele>
        <time>2019-02-08T13:35:57Z</time>
      </trkpt>
      <trkpt lat="46.20453" lon="6.57757">
        <ele>1253.7</ele>
        <time>2019-02-08T13:36:09Z</time>
      </trkpt>
      <trkpt lat="46.20453" lon="6.57756">
        <ele>1253.7</ele>
        <time>2019-02-08T13:36:10Z</time>
      </trkpt>
      <trkpt lat="46.20462" lon="6.57746">
        <ele>1251.29</ele>
        <time>2019-02-08T13:36:23Z</time>
      </trkpt>
      <trkpt lat="46.20466" lon="6.57743">
        <ele>1249.85</ele>
        <time>2019-02-08T13:36:30Z</time>
      </trkpt>
      <trkpt lat="46.20475" lon="6.57728">
        <ele>1246.49</ele>
        <time>2019-02-08T13:36:45Z</time>
      </trkpt>
      <trkpt lat="46.20476" lon="6.57726">
        <ele>1244.56</ele>
        <time>2019-02-08T13:36:57Z</time>
      </trkpt>
      <trkpt lat="46.20484" lon="6.57733">
        <ele>1242.16</ele>
        <time>2019-02-08T13:37:09Z</time>
      </trkpt>
      <trkpt lat="46.20489" lon="6.57739">
        <ele>1239.76</ele>
        <time>2019-02-08T13:37:20Z</time>
      </trkpt>
      <trkpt lat="46.20493" lon="6.57745">
        <ele>1239.28</ele>
        <time>2019-02-08T13:37:25Z</time>
      </trkpt>
      <trkpt lat="46.20499" lon="6.57756">
        <ele>1236.87</ele>
        <time>2019-02-08T13:37:36Z</time>
      </trkpt>
      <trkpt lat="46.20508" lon="6.57763">
        <ele>1234.47</ele>
        <time>2019-02-08T13:37:49Z</time>
      </trkpt>
      <trkpt lat="46.20515" lon="6.5776">
        <ele>1231.59</ele>
        <time>2019-02-08T13:38:03Z</time>
      </trkpt>
      <trkpt lat="46.20519" lon="6.57753">
        <ele>1229.66</ele>
        <time>2019-02-08T13:38:15Z</time>
      </trkpt>
      <trkpt lat="46.20522" lon="6.57746">
        <ele>1227.26</ele>
        <time>2019-02-08T13:38:29Z</time>
      </trkpt>
      <trkpt lat="46.20522" lon="6.57746">
        <ele>1226.3</ele>
        <time>2019-02-08T13:38:31Z</time>
      </trkpt>
      <trkpt lat="46.20527" lon="6.57731">
        <ele>1223.9</ele>
        <time>2019-02-08T13:38:44Z</time>
      </trkpt>
      <trkpt lat="46.20526" lon="6.57728">
        <ele>1223.9</ele>
        <time>2019-02-08T13:38:46Z</time>
      </trkpt>
      <trkpt lat="46.20535" lon="6.57725">
        <ele>1221.49</ele>
        <time>2019-02-08T13:38:59Z</time>
      </trkpt>
      <trkpt lat="46.20544" lon="6.57735">
        <ele>1218.13</ele>
        <time>2019-02-08T13:39:14Z</time>
      </trkpt>
      <trkpt lat="46.20545" lon="6.57735">
        <ele>1217.65</ele>
        <time>2019-02-08T13:39:15Z</time>
      </trkpt>
      <trkpt lat="46.20549" lon="6.57739">
        <ele>1215.72</ele>
        <time>2019-02-08T13:39:27Z</time>
      </trkpt>
      <trkpt lat="46.2055" lon="6.57742">
        <ele>1213.32</ele>
        <time>2019-02-08T13:39:41Z</time>
      </trkpt>
      <trkpt lat="46.20553" lon="6.57739">
        <ele>1212.36</ele>
        <time>2019-02-08T13:39:58Z</time>
      </trkpt>
      <trkpt lat="46.20554" lon="6.57738">
        <ele>1212.36</ele>
        <time>2019-02-08T13:39:59Z</time>
      </trkpt>
      <trkpt lat="46.20553" lon="6.5773">
        <ele>1211.4</ele>
        <time>2019-02-08T13:40:11Z</time>
      </trkpt>
      <trkpt lat="46.20551" lon="6.5772">
        <ele>1212.36</ele>
        <time>2019-02-08T13:40:22Z</time>
      </trkpt>
      <trkpt lat="46.20547" lon="6.57715">
        <ele>1213.32</ele>
        <time>2019-02-08T13:40:38Z</time>
      </trkpt>
      <trkpt lat="46.20549" lon="6.57702">
        <ele>1212.36</ele>
        <time>2019-02-08T13:40:54Z</time>
      </trkpt>
      <trkpt lat="46.20543" lon="6.57687">
        <ele>1211.4</ele>
        <time>2019-02-08T13:41:09Z</time>
      </trkpt>
      <trkpt lat="46.20539" lon="6.57674">
        <ele>1209.96</ele>
        <time>2019-02-08T13:41:24Z</time>
      </trkpt>
      <trkpt lat="46.2054" lon="6.57662">
        <ele>1208.03</ele>
        <time>2019-02-08T13:41:38Z</time>
      </trkpt>
      <trkpt lat="46.20537" lon="6.57653">
        <ele>1207.07</ele>
        <time>2019-02-08T13:41:50Z</time>
      </trkpt>
      <trkpt lat="46.20535" lon="6.5765">
        <ele>1206.11</ele>
        <time>2019-02-08T13:42:06Z</time>
      </trkpt>
      <trkpt lat="46.20533" lon="6.57648">
        <ele>1205.63</ele>
        <time>2019-02-08T13:42:22Z</time>
      </trkpt>
      <trkpt lat="46.2053" lon="6.5764">
        <ele>1204.67</ele>
        <time>2019-02-08T13:42:35Z</time>
      </trkpt>
      <trkpt lat="46.20521" lon="6.57624">
        <ele>1203.71</ele>
        <time>2019-02-08T13:42:48Z</time>
      </trkpt>
      <trkpt lat="46.20511" lon="6.57608">
        <ele>1201.79</ele>
        <time>2019-02-08T13:43:03Z</time>
      </trkpt>
      <trkpt lat="46.20505" lon="6.57604">
        <ele>1202.27</ele>
        <time>2019-02-08T13:43:13Z</time>
      </trkpt>
      <trkpt lat="46.20501" lon="6.57599">
        <ele>1202.27</ele>
        <time>2019-02-08T13:43:25Z</time>
      </trkpt>
      <trkpt lat="46.20499" lon="6.57599">
        <ele>1202.75</ele>
        <time>2019-02-08T13:43:38Z</time>
      </trkpt>
      <trkpt lat="46.20486" lon="6.57592">
        <ele>1204.19</ele>
        <time>2019-02-08T13:43:49Z</time>
      </trkpt>
      <trkpt lat="46.20482" lon="6.57592">
        <ele>1205.63</ele>
        <time>2019-02-08T13:44:03Z</time>
      </trkpt>
      <trkpt lat="46.20482" lon="6.57592">
        <ele>1206.11</ele>
        <time>2019-02-08T13:44:09Z</time>
      </trkpt>
      <trkpt lat="46.20475" lon="6.57586">
        <ele>1205.63</ele>
        <time>2019-02-08T13:44:25Z</time>
      </trkpt>
      <trkpt lat="46.20475" lon="6.57586">
        <ele>1205.63</ele>
        <time>2019-02-08T13:44:53Z</time>
      </trkpt>
      <trkpt lat="46.20475" lon="6.57586">
        <ele>1206.11</ele>
        <time>2019-02-08T13:45:30Z</time>
      </trkpt>
      <trkpt lat="46.20475" lon="6.57587">
        <ele>1206.11</ele>
        <time>2019-02-08T13:46:08Z</time>
      </trkpt>
      <trkpt lat="46.20475" lon="6.57586">
        <ele>1206.59</ele>
        <time>2019-02-08T13:46:49Z</time>
      </trkpt>
      <trkpt lat="46.20467" lon="6.57581">
        <ele>1208.03</ele>
        <time>2019-02-08T13:47:05Z</time>
      </trkpt>
      <trkpt lat="46.20462" lon="6.5758">
        <ele>1208.03</ele>
        <time>2019-02-08T13:47:20Z</time>
      </trkpt>
      <trkpt lat="46.20453" lon="6.57575">
        <ele>1207.07</ele>
        <time>2019-02-08T13:47:49Z</time>
      </trkpt>
      <trkpt lat="46.20445" lon="6.57569">
        <ele>1207.07</ele>
        <time>2019-02-08T13:48:04Z</time>
      </trkpt>
      <trkpt lat="46.20438" lon="6.57566">
        <ele>1208.51</ele>
        <time>2019-02-08T13:48:15Z</time>
      </trkpt>
      <trkpt lat="46.20433" lon="6.57566">
        <ele>1210.44</ele>
        <time>2019-02-08T13:48:36Z</time>
      </trkpt>
      <trkpt lat="46.20431" lon="6.57566">
        <ele>1210.44</ele>
        <time>2019-02-08T13:48:55Z</time>
      </trkpt>
      <trkpt lat="46.20431" lon="6.57566">
        <ele>1209.96</ele>
        <time>2019-02-08T13:49:26Z</time>
      </trkpt>
      <trkpt lat="46.20431" lon="6.57566">
        <ele>1210.44</ele>
        <time>2019-02-08T13:49:50Z</time>
      </trkpt>
      <trkpt lat="46.20426" lon="6.57562">
        <ele>1209</ele>
        <time>2019-02-08T13:50:03Z</time>
      </trkpt>
      <trkpt lat="46.20421" lon="6.57552">
        <ele>1205.63</ele>
        <time>2019-02-08T13:50:16Z</time>
      </trkpt>
      <trkpt lat="46.20419" lon="6.57545">
        <ele>1203.23</ele>
        <time>2019-02-08T13:50:26Z</time>
      </trkpt>
      <trkpt lat="46.20412" lon="6.57533">
        <ele>1201.3</ele>
        <time>2019-02-08T13:50:40Z</time>
      </trkpt>
      <trkpt lat="46.20405" lon="6.57529">
        <ele>1200.34</ele>
        <time>2019-02-08T13:50:57Z</time>
      </trkpt>
      <trkpt lat="46.20398" lon="6.5752">
        <ele>1200.34</ele>
        <time>2019-02-08T13:51:12Z</time>
      </trkpt>
      <trkpt lat="46.20398" lon="6.5752">
        <ele>1201.3</ele>
        <time>2019-02-08T13:51:35Z</time>
      </trkpt>
      <trkpt lat="46.20398" lon="6.5752">
        <ele>1201.3</ele>
        <time>2019-02-08T13:52:16Z</time>
      </trkpt>
      <trkpt lat="46.20393" lon="6.57501">
        <ele>1198.42</ele>
        <time>2019-02-08T13:53:03Z</time>
      </trkpt>
      <trkpt lat="46.20393" lon="6.57488">
        <ele>1196.02</ele>
        <time>2019-02-08T13:53:10Z</time>
      </trkpt>
      <trkpt lat="46.20392" lon="6.57475">
        <ele>1193.13</ele>
        <time>2019-02-08T13:53:22Z</time>
      </trkpt>
      <trkpt lat="46.20384" lon="6.57467">
        <ele>1194.09</ele>
        <time>2019-02-08T13:53:39Z</time>
      </trkpt>
      <trkpt lat="46.20373" lon="6.57461">
        <ele>1193.61</ele>
        <time>2019-02-08T13:53:53Z</time>
      </trkpt>
      <trkpt lat="46.20366" lon="6.57452">
        <ele>1193.61</ele>
        <time>2019-02-08T13:54:11Z</time>
      </trkpt>
      <trkpt lat="46.20357" lon="6.57442">
        <ele>1193.61</ele>
        <time>2019-02-08T13:54:24Z</time>
      </trkpt>
      <trkpt lat="46.20356" lon="6.5744">
        <ele>1192.65</ele>
        <time>2019-02-08T13:54:30Z</time>
      </trkpt>
      <trkpt lat="46.20353" lon="6.57432">
        <ele>1191.21</ele>
        <time>2019-02-08T13:54:43Z</time>
      </trkpt>
      <trkpt lat="46.20351" lon="6.57416">
        <ele>1189.29</ele>
        <time>2019-02-08T13:54:53Z</time>
      </trkpt>
      <trkpt lat="46.2035" lon="6.57404">
        <ele>1186.4</ele>
        <time>2019-02-08T13:55:11Z</time>
      </trkpt>
      <trkpt lat="46.2035" lon="6.57397">
        <ele>1185.44</ele>
        <time>2019-02-08T13:55:25Z</time>
      </trkpt>
      <trkpt lat="46.2035" lon="6.57397">
        <ele>1185.44</ele>
        <time>2019-02-08T13:56:12Z</time>
      </trkpt>
      <trkpt lat="46.2035" lon="6.57397">
        <ele>1185.92</ele>
        <time>2019-02-08T13:57:44Z</time>
      </trkpt>
      <trkpt lat="46.2035" lon="6.57396">
        <ele>1187.85</ele>
        <time>2019-02-08T14:00:48Z</time>
      </trkpt>
      <trkpt lat="46.20348" lon="6.57387">
        <ele>1187.85</ele>
        <time>2019-02-08T14:01:20Z</time>
      </trkpt>
      <trkpt lat="46.20348" lon="6.57377">
        <ele>1186.4</ele>
        <time>2019-02-08T14:01:37Z</time>
      </trkpt>
      <trkpt lat="46.2035" lon="6.57364">
        <ele>1183.52</ele>
        <time>2019-02-08T14:01:51Z</time>
      </trkpt>
      <trkpt lat="46.20345" lon="6.57349">
        <ele>1182.56</ele>
        <time>2019-02-08T14:02:03Z</time>
      </trkpt>
      <trkpt lat="46.20344" lon="6.57336">
        <ele>1180.64</ele>
        <time>2019-02-08T14:02:16Z</time>
      </trkpt>
      <trkpt lat="46.20343" lon="6.57328">
        <ele>1181.6</ele>
        <time>2019-02-08T14:02:26Z</time>
      </trkpt>
      <trkpt lat="46.20344" lon="6.57319">
        <ele>1180.16</ele>
        <time>2019-02-08T14:02:35Z</time>
      </trkpt>
      <trkpt lat="46.20341" lon="6.57313">
        <ele>1180.16</ele>
        <time>2019-02-08T14:03:01Z</time>
      </trkpt>
      <trkpt lat="46.20341" lon="6.57313">
        <ele>1180.16</ele>
        <time>2019-02-08T14:04:08Z</time>
      </trkpt>
      <trkpt lat="46.2034" lon="6.5731">
        <ele>1179.67</ele>
        <time>2019-02-08T14:05:12Z</time>
      </trkpt>
      <trkpt lat="46.20339" lon="6.57311">
        <ele>1179.19</ele>
        <time>2019-02-08T14:05:58Z</time>
      </trkpt>
      <trkpt lat="46.20337" lon="6.57306">
        <ele>1179.67</ele>
        <time>2019-02-08T14:06:04Z</time>
      </trkpt>
      <trkpt lat="46.20335" lon="6.57301">
        <ele>1179.19</ele>
        <time>2019-02-08T14:06:09Z</time>
      </trkpt>
      <trkpt lat="46.20334" lon="6.57293">
        <ele>1179.67</ele>
        <time>2019-02-08T14:06:15Z</time>
      </trkpt>
      <trkpt lat="46.20332" lon="6.5729">
        <ele>1178.71</ele>
        <time>2019-02-08T14:06:19Z</time>
      </trkpt>
      <trkpt lat="46.2033" lon="6.57275">
        <ele>1178.71</ele>
        <time>2019-02-08T14:06:32Z</time>
      </trkpt>
      <trkpt lat="46.20331" lon="6.57263">
        <ele>1178.71</ele>
        <time>2019-02-08T14:06:43Z</time>
      </trkpt>
      <trkpt lat="46.20331" lon="6.5725">
        <ele>1179.19</ele>
        <time>2019-02-08T14:06:56Z</time>
      </trkpt>
      <trkpt lat="46.20331" lon="6.57238">
        <ele>1179.19</ele>
        <time>2019-02-08T14:07:08Z</time>
      </trkpt>
      <trkpt lat="46.20329" lon="6.57231">
        <ele>1179.67</ele>
        <time>2019-02-08T14:07:16Z</time>
      </trkpt>
      <trkpt lat="46.20325" lon="6.57223">
        <ele>1180.16</ele>
        <time>2019-02-08T14:07:28Z</time>
      </trkpt>
      <trkpt lat="46.20324" lon="6.57222">
        <ele>1180.64</ele>
        <time>2019-02-08T14:07:29Z</time>
      </trkpt>
      <trkpt lat="46.20319" lon="6.57213">
        <ele>1180.64</ele>
        <time>2019-02-08T14:07:40Z</time>
      </trkpt>
      <trkpt lat="46.20317" lon="6.57212">
        <ele>1180.64</ele>
        <time>2019-02-08T14:07:42Z</time>
      </trkpt>
      <trkpt lat="46.20312" lon="6.57198">
        <ele>1179.67</ele>
        <time>2019-02-08T14:07:55Z</time>
      </trkpt>
      <trkpt lat="46.20316" lon="6.5719">
        <ele>1179.19</ele>
        <time>2019-02-08T14:08:06Z</time>
      </trkpt>
      <trkpt lat="46.20318" lon="6.5719">
        <ele>1179.67</ele>
        <time>2019-02-08T14:08:20Z</time>
      </trkpt>
      <trkpt lat="46.20318" lon="6.57191">
        <ele>1179.19</ele>
        <time>2019-02-08T14:08:38Z</time>
      </trkpt>
      <trkpt lat="46.20318" lon="6.5719">
        <ele>1179.19</ele>
        <time>2019-02-08T14:09:10Z</time>
      </trkpt>
      <trkpt lat="46.20317" lon="6.5719">
        <ele>1178.23</ele>
        <time>2019-02-08T14:10:52Z</time>
      </trkpt>
      <trkpt lat="46.20318" lon="6.5719">
        <ele>1180.16</ele>
        <time>2019-02-08T14:15:30Z</time>
      </trkpt>
      <trkpt lat="46.20318" lon="6.57188">
        <ele>1180.16</ele>
        <time>2019-02-08T14:16:28Z</time>
      </trkpt>
      <trkpt lat="46.20319" lon="6.57189">
        <ele>1179.19</ele>
        <time>2019-02-08T14:17:49Z</time>
      </trkpt>
      <trkpt lat="46.20314" lon="6.57193">
        <ele>1180.16</ele>
        <time>2019-02-08T14:18:48Z</time>
      </trkpt>
      <trkpt lat="46.20315" lon="6.572">
        <ele>1180.64</ele>
        <time>2019-02-08T14:18:59Z</time>
      </trkpt>
      <trkpt lat="46.20323" lon="6.57213">
        <ele>1180.64</ele>
        <time>2019-02-08T14:19:13Z</time>
      </trkpt>
      <trkpt lat="46.20324" lon="6.57214">
        <ele>1180.64</ele>
        <time>2019-02-08T14:19:15Z</time>
      </trkpt>
      <trkpt lat="46.20333" lon="6.57229">
        <ele>1180.16</ele>
        <time>2019-02-08T14:19:29Z</time>
      </trkpt>
      <trkpt lat="46.20341" lon="6.57238">
        <ele>1178.23</ele>
        <time>2019-02-08T14:19:41Z</time>
      </trkpt>
      <trkpt lat="46.2035" lon="6.57248">
        <ele>1177.27</ele>
        <time>2019-02-08T14:19:53Z</time>
      </trkpt>
      <trkpt lat="46.20351" lon="6.57249">
        <ele>1177.27</ele>
        <time>2019-02-08T14:19:54Z</time>
      </trkpt>
      <trkpt lat="46.20358" lon="6.5726">
        <ele>1175.83</ele>
        <time>2019-02-08T14:20:05Z</time>
      </trkpt>
      <trkpt lat="46.20361" lon="6.57264">
        <ele>1175.35</ele>
        <time>2019-02-08T14:20:09Z</time>
      </trkpt>
      <trkpt lat="46.20371" lon="6.57275">
        <ele>1174.39</ele>
        <time>2019-02-08T14:20:23Z</time>
      </trkpt>
      <trkpt lat="46.20374" lon="6.57279">
        <ele>1174.87</ele>
        <time>2019-02-08T14:20:28Z</time>
      </trkpt>
      <trkpt lat="46.20381" lon="6.57286">
        <ele>1173.43</ele>
        <time>2019-02-08T14:20:39Z</time>
      </trkpt>
      <trkpt lat="46.2039" lon="6.57292">
        <ele>1172.47</ele>
        <time>2019-02-08T14:20:52Z</time>
      </trkpt>
      <trkpt lat="46.20398" lon="6.57295">
        <ele>1172.47</ele>
        <time>2019-02-08T14:21:02Z</time>
      </trkpt>
      <trkpt lat="46.20403" lon="6.57298">
        <ele>1171.98</ele>
        <time>2019-02-08T14:21:11Z</time>
      </trkpt>
      <trkpt lat="46.20414" lon="6.57305">
        <ele>1171.5</ele>
        <time>2019-02-08T14:21:23Z</time>
      </trkpt>
      <trkpt lat="46.20417" lon="6.57308">
        <ele>1170.54</ele>
        <time>2019-02-08T14:21:28Z</time>
      </trkpt>
      <trkpt lat="46.20429" lon="6.57321">
        <ele>1171.02</ele>
        <time>2019-02-08T14:21:42Z</time>
      </trkpt>
      <trkpt lat="46.20436" lon="6.57322">
        <ele>1170.06</ele>
        <time>2019-02-08T14:21:56Z</time>
      </trkpt>
      <trkpt lat="46.20439" lon="6.57326">
        <ele>1169.1</ele>
        <time>2019-02-08T14:22:55Z</time>
      </trkpt>
      <trkpt lat="46.20443" lon="6.57331">
        <ele>1170.06</ele>
        <time>2019-02-08T14:23:05Z</time>
      </trkpt>
      <trkpt lat="46.20448" lon="6.57338">
        <ele>1170.06</ele>
        <time>2019-02-08T14:23:10Z</time>
      </trkpt>
      <trkpt lat="46.20449" lon="6.57339">
        <ele>1170.06</ele>
        <time>2019-02-08T14:23:11Z</time>
      </trkpt>
      <trkpt lat="46.20451" lon="6.57341">
        <ele>1170.06</ele>
        <time>2019-02-08T14:23:13Z</time>
      </trkpt>
      <trkpt lat="46.2046" lon="6.5735">
        <ele>1169.1</ele>
        <time>2019-02-08T14:23:24Z</time>
      </trkpt>
      <trkpt lat="46.20466" lon="6.57359">
        <ele>1168.62</ele>
        <time>2019-02-08T14:23:33Z</time>
      </trkpt>
      <trkpt lat="46.20481" lon="6.5737">
        <ele>1168.62</ele>
        <time>2019-02-08T14:23:48Z</time>
      </trkpt>
      <trkpt lat="46.20483" lon="6.57371">
        <ele>1168.62</ele>
        <time>2019-02-08T14:23:50Z</time>
      </trkpt>
      <trkpt lat="46.20487" lon="6.57372">
        <ele>1168.62</ele>
        <time>2019-02-08T14:23:54Z</time>
      </trkpt>
      <trkpt lat="46.2049" lon="6.57375">
        <ele>1168.14</ele>
        <time>2019-02-08T14:23:57Z</time>
      </trkpt>
      <trkpt lat="46.205" lon="6.57381">
        <ele>1167.66</ele>
        <time>2019-02-08T14:24:07Z</time>
      </trkpt>
      <trkpt lat="46.20507" lon="6.57388">
        <ele>1167.18</ele>
        <time>2019-02-08T14:24:14Z</time>
      </trkpt>
      <trkpt lat="46.20509" lon="6.57391">
        <ele>1166.7</ele>
        <time>2019-02-08T14:24:17Z</time>
      </trkpt>
      <trkpt lat="46.20518" lon="6.57401">
        <ele>1166.22</ele>
        <time>2019-02-08T14:24:26Z</time>
      </trkpt>
      <trkpt lat="46.20521" lon="6.57406">
        <ele>1165.74</ele>
        <time>2019-02-08T14:24:30Z</time>
      </trkpt>
      <trkpt lat="46.20527" lon="6.57413">
        <ele>1165.26</ele>
        <time>2019-02-08T14:24:36Z</time>
      </trkpt>
      <trkpt lat="46.2053" lon="6.57415">
        <ele>1165.26</ele>
        <time>2019-02-08T14:24:38Z</time>
      </trkpt>
      <trkpt lat="46.20542" lon="6.57435">
        <ele>1165.26</ele>
        <time>2019-02-08T14:24:53Z</time>
      </trkpt>
      <trkpt lat="46.20546" lon="6.57443">
        <ele>1165.74</ele>
        <time>2019-02-08T14:24:59Z</time>
      </trkpt>
      <trkpt lat="46.20549" lon="6.57448">
        <ele>1166.22</ele>
        <time>2019-02-08T14:25:03Z</time>
      </trkpt>
      <trkpt lat="46.20559" lon="6.57461">
        <ele>1167.18</ele>
        <time>2019-02-08T14:25:15Z</time>
      </trkpt>
      <trkpt lat="46.20575" lon="6.57476">
        <ele>1167.66</ele>
        <time>2019-02-08T14:25:31Z</time>
      </trkpt>
      <trkpt lat="46.20581" lon="6.57483">
        <ele>1168.62</ele>
        <time>2019-02-08T14:25:38Z</time>
      </trkpt>
      <trkpt lat="46.20585" lon="6.57489">
        <ele>1167.66</ele>
        <time>2019-02-08T14:25:43Z</time>
      </trkpt>
      <trkpt lat="46.20587" lon="6.57493">
        <ele>1169.1</ele>
        <time>2019-02-08T14:25:46Z</time>
      </trkpt>
      <trkpt lat="46.20596" lon="6.57507">
        <ele>1170.06</ele>
        <time>2019-02-08T14:25:59Z</time>
      </trkpt>
      <trkpt lat="46.20605" lon="6.57521">
        <ele>1170.06</ele>
        <time>2019-02-08T14:26:12Z</time>
      </trkpt>
      <trkpt lat="46.20607" lon="6.57523">
        <ele>1170.54</ele>
        <time>2019-02-08T14:26:14Z</time>
      </trkpt>
      <trkpt lat="46.20614" lon="6.57535">
        <ele>1171.02</ele>
        <time>2019-02-08T14:26:25Z</time>
      </trkpt>
      <trkpt lat="46.20622" lon="6.5755">
        <ele>1171.5</ele>
        <time>2019-02-08T14:26:38Z</time>
      </trkpt>
      <trkpt lat="46.20627" lon="6.57561">
        <ele>1172.47</ele>
        <time>2019-02-08T14:26:48Z</time>
      </trkpt>
      <trkpt lat="46.20635" lon="6.57574">
        <ele>1171.98</ele>
        <time>2019-02-08T14:27:01Z</time>
      </trkpt>
      <trkpt lat="46.20643" lon="6.57582">
        <ele>1172.47</ele>
        <time>2019-02-08T14:27:15Z</time>
      </trkpt>
      <trkpt lat="46.20648" lon="6.5759">
        <ele>1173.43</ele>
        <time>2019-02-08T14:27:25Z</time>
      </trkpt>
      <trkpt lat="46.20655" lon="6.57599">
        <ele>1173.43</ele>
        <time>2019-02-08T14:27:37Z</time>
      </trkpt>
      <trkpt lat="46.2066" lon="6.57611">
        <ele>1173.43</ele>
        <time>2019-02-08T14:27:50Z</time>
      </trkpt>
      <trkpt lat="46.2066" lon="6.57612">
        <ele>1173.43</ele>
        <time>2019-02-08T14:27:51Z</time>
      </trkpt>
      <trkpt lat="46.20665" lon="6.57622">
        <ele>1173.91</ele>
        <time>2019-02-08T14:28:04Z</time>
      </trkpt>
      <trkpt lat="46.20666" lon="6.57638">
        <ele>1173.43</ele>
        <time>2019-02-08T14:28:17Z</time>
      </trkpt>
      <trkpt lat="46.20668" lon="6.57644">
        <ele>1173.43</ele>
        <time>2019-02-08T14:28:29Z</time>
      </trkpt>
      <trkpt lat="46.20668" lon="6.57643">
        <ele>1172.47</ele>
        <time>2019-02-08T14:29:36Z</time>
      </trkpt>
      <trkpt lat="46.20668" lon="6.57643">
        <ele>1172.47</ele>
        <time>2019-02-08T14:29:54Z</time>
      </trkpt>
      <trkpt lat="46.20669" lon="6.57643">
        <ele>1171.5</ele>
        <time>2019-02-08T14:30:59Z</time>
      </trkpt>
      <trkpt lat="46.20669" lon="6.57644">
        <ele>1170.54</ele>
        <time>2019-02-08T14:31:36Z</time>
      </trkpt>
      <trkpt lat="46.20669" lon="6.57644">
        <ele>1170.06</ele>
        <time>2019-02-08T14:31:56Z</time>
      </trkpt>
      <trkpt lat="46.20672" lon="6.57645">
        <ele>1168.14</ele>
        <time>2019-02-08T14:32:44Z</time>
      </trkpt>
      <trkpt lat="46.20672" lon="6.57645">
        <ele>1167.18</ele>
        <time>2019-02-08T14:32:57Z</time>
      </trkpt>
      <trkpt lat="46.20672" lon="6.57645">
        <ele>1166.7</ele>
        <time>2019-02-08T14:32:58Z</time>
      </trkpt>
      <trkpt lat="46.20681" lon="6.57641">
        <ele>1163.81</ele>
        <time>2019-02-08T14:33:02Z</time>
      </trkpt>
      <trkpt lat="46.20689" lon="6.57639">
        <ele>1160.93</ele>
        <time>2019-02-08T14:33:05Z</time>
      </trkpt>
      <trkpt lat="46.20693" lon="6.57641">
        <ele>1160.93</ele>
        <time>2019-02-08T14:33:17Z</time>
      </trkpt>
      <trkpt lat="46.20697" lon="6.5764">
        <ele>1160.45</ele>
        <time>2019-02-08T14:33:28Z</time>
      </trkpt>
      <trkpt lat="46.20699" lon="6.57639">
        <ele>1159.97</ele>
        <time>2019-02-08T14:33:39Z</time>
      </trkpt>
      <trkpt lat="46.20699" lon="6.57638">
        <ele>1159.97</ele>
        <time>2019-02-08T14:34:15Z</time>
      </trkpt>
      <trkpt lat="46.207" lon="6.5764">
        <ele>1159.97</ele>
        <time>2019-02-08T14:34:26Z</time>
      </trkpt>
      <trkpt lat="46.207" lon="6.57639">
        <ele>1159.01</ele>
        <time>2019-02-08T14:35:28Z</time>
      </trkpt>
      <trkpt lat="46.20703" lon="6.5764">
        <ele>1159.01</ele>
        <time>2019-02-08T14:36:35Z</time>
      </trkpt>
      <trkpt lat="46.20706" lon="6.57644">
        <ele>1158.53</ele>
        <time>2019-02-08T14:36:42Z</time>
      </trkpt>
      <trkpt lat="46.20709" lon="6.57646">
        <ele>1158.05</ele>
        <time>2019-02-08T14:36:46Z</time>
      </trkpt>
      <trkpt lat="46.20717" lon="6.57648">
        <ele>1156.6</ele>
        <time>2019-02-08T14:36:59Z</time>
      </trkpt>
      <trkpt lat="46.20717" lon="6.57648">
        <ele>1155.64</ele>
        <time>2019-02-08T14:37:00Z</time>
      </trkpt>
      <trkpt lat="46.20722" lon="6.57649">
        <ele>1154.68</ele>
        <time>2019-02-08T14:37:07Z</time>
      </trkpt>
      <trkpt lat="46.20729" lon="6.57659">
        <ele>1154.2</ele>
        <time>2019-02-08T14:37:20Z</time>
      </trkpt>
      <trkpt lat="46.20735" lon="6.57661">
        <ele>1153.24</ele>
        <time>2019-02-08T14:37:32Z</time>
      </trkpt>
      <trkpt lat="46.20736" lon="6.5766">
        <ele>1152.28</ele>
        <time>2019-02-08T14:37:56Z</time>
      </trkpt>
      <trkpt lat="46.20738" lon="6.57658">
        <ele>1152.28</ele>
        <time>2019-02-08T14:38:11Z</time>
      </trkpt>
      <trkpt lat="46.2074" lon="6.57658">
        <ele>1152.28</ele>
        <time>2019-02-08T14:40:35Z</time>
      </trkpt>
      <trkpt lat="46.20742" lon="6.57656">
        <ele>1152.28</ele>
        <time>2019-02-08T14:41:56Z</time>
      </trkpt>
      <trkpt lat="46.20748" lon="6.57651">
        <ele>1151.32</ele>
        <time>2019-02-08T14:42:03Z</time>
      </trkpt>
      <trkpt lat="46.20759" lon="6.57646">
        <ele>1149.87</ele>
        <time>2019-02-08T14:42:16Z</time>
      </trkpt>
      <trkpt lat="46.20766" lon="6.57639">
        <ele>1148.91</ele>
        <time>2019-02-08T14:42:25Z</time>
      </trkpt>
      <trkpt lat="46.20769" lon="6.57637">
        <ele>1148.43</ele>
        <time>2019-02-08T14:42:28Z</time>
      </trkpt>
      <trkpt lat="46.20772" lon="6.57636">
        <ele>1147.95</ele>
        <time>2019-02-08T14:42:31Z</time>
      </trkpt>
      <trkpt lat="46.20773" lon="6.57633">
        <ele>1147.47</ele>
        <time>2019-02-08T14:42:33Z</time>
      </trkpt>
      <trkpt lat="46.20777" lon="6.57632">
        <ele>1146.99</ele>
        <time>2019-02-08T14:42:37Z</time>
      </trkpt>
      <trkpt lat="46.2078" lon="6.5763">
        <ele>1146.51</ele>
        <time>2019-02-08T14:42:40Z</time>
      </trkpt>
      <trkpt lat="46.20782" lon="6.57628">
        <ele>1146.03</ele>
        <time>2019-02-08T14:42:43Z</time>
      </trkpt>
      <trkpt lat="46.20791" lon="6.57612">
        <ele>1144.11</ele>
        <time>2019-02-08T14:42:57Z</time>
      </trkpt>
      <trkpt lat="46.20799" lon="6.57599">
        <ele>1142.18</ele>
        <time>2019-02-08T14:43:10Z</time>
      </trkpt>
      <trkpt lat="46.20808" lon="6.57601">
        <ele>1140.74</ele>
        <time>2019-02-08T14:43:23Z</time>
      </trkpt>
      <trkpt lat="46.20813" lon="6.57615">
        <ele>1140.26</ele>
        <time>2019-02-08T14:43:35Z</time>
      </trkpt>
      <trkpt lat="46.20817" lon="6.57626">
        <ele>1138.82</ele>
        <time>2019-02-08T14:43:44Z</time>
      </trkpt>
      <trkpt lat="46.20823" lon="6.57641">
        <ele>1137.86</ele>
        <time>2019-02-08T14:43:56Z</time>
      </trkpt>
      <trkpt lat="46.20824" lon="6.57642">
        <ele>1136.42</ele>
        <time>2019-02-08T14:43:57Z</time>
      </trkpt>
      <trkpt lat="46.20828" lon="6.57649">
        <ele>1135.94</ele>
        <time>2019-02-08T14:44:03Z</time>
      </trkpt>
      <trkpt lat="46.20832" lon="6.57655">
        <ele>1134.97</ele>
        <time>2019-02-08T14:44:10Z</time>
      </trkpt>
      <trkpt lat="46.20837" lon="6.57664">
        <ele>1133.53</ele>
        <time>2019-02-08T14:44:17Z</time>
      </trkpt>
      <trkpt lat="46.20838" lon="6.57668">
        <ele>1133.53</ele>
        <time>2019-02-08T14:44:20Z</time>
      </trkpt>
      <trkpt lat="46.2084" lon="6.57673">
        <ele>1133.53</ele>
        <time>2019-02-08T14:44:23Z</time>
      </trkpt>
      <trkpt lat="46.20843" lon="6.57679">
        <ele>1133.05</ele>
        <time>2019-02-08T14:44:27Z</time>
      </trkpt>
      <trkpt lat="46.20846" lon="6.57691">
        <ele>1131.61</ele>
        <time>2019-02-08T14:44:35Z</time>
      </trkpt>
      <trkpt lat="46.20848" lon="6.57695">
        <ele>1131.13</ele>
        <time>2019-02-08T14:44:38Z</time>
      </trkpt>
      <trkpt lat="46.20852" lon="6.57699">
        <ele>1130.17</ele>
        <time>2019-02-08T14:44:44Z</time>
      </trkpt>
      <trkpt lat="46.20861" lon="6.57702">
        <ele>1127.28</ele>
        <time>2019-02-08T14:44:55Z</time>
      </trkpt>
      <trkpt lat="46.20867" lon="6.57703">
        <ele>1126.32</ele>
        <time>2019-02-08T14:45:06Z</time>
      </trkpt>
      <trkpt lat="46.20875" lon="6.57697">
        <ele>1125.36</ele>
        <time>2019-02-08T14:45:17Z</time>
      </trkpt>
      <trkpt lat="46.20878" lon="6.57692">
        <ele>1124.88</ele>
        <time>2019-02-08T14:45:23Z</time>
      </trkpt>
      <trkpt lat="46.20882" lon="6.57688">
        <ele>1124.4</ele>
        <time>2019-02-08T14:45:27Z</time>
      </trkpt>
      <trkpt lat="46.20886" lon="6.57681">
        <ele>1124.88</ele>
        <time>2019-02-08T14:45:34Z</time>
      </trkpt>
      <trkpt lat="46.2089" lon="6.57676">
        <ele>1124.88</ele>
        <time>2019-02-08T14:45:47Z</time>
      </trkpt>
      <trkpt lat="46.2089" lon="6.57676">
        <ele>1124.88</ele>
        <time>2019-02-08T14:45:58Z</time>
      </trkpt>
      <trkpt lat="46.2089" lon="6.57665">
        <ele>1123.44</ele>
        <time>2019-02-08T14:46:08Z</time>
      </trkpt>
      <trkpt lat="46.20881" lon="6.5765">
        <ele>1122.96</ele>
        <time>2019-02-08T14:46:19Z</time>
      </trkpt>
      <trkpt lat="46.20874" lon="6.57644">
        <ele>1122.96</ele>
        <time>2019-02-08T14:46:32Z</time>
      </trkpt>
      <trkpt lat="46.20877" lon="6.57642">
        <ele>1122.96</ele>
        <time>2019-02-08T14:46:45Z</time>
      </trkpt>
      <trkpt lat="46.20882" lon="6.57635">
        <ele>1122.96</ele>
        <time>2019-02-08T14:46:55Z</time>
      </trkpt>
      <trkpt lat="46.20882" lon="6.57634">
        <ele>1122.96</ele>
        <time>2019-02-08T14:46:56Z</time>
      </trkpt>
      <trkpt lat="46.20886" lon="6.57634">
        <ele>1122.96</ele>
        <time>2019-02-08T14:47:03Z</time>
      </trkpt>
      <trkpt lat="46.20876" lon="6.57638">
        <ele>1122.48</ele>
        <time>2019-02-08T14:47:17Z</time>
      </trkpt>
      <trkpt lat="46.20876" lon="6.57639">
        <ele>1122.96</ele>
        <time>2019-02-08T14:47:25Z</time>
      </trkpt>
      <trkpt lat="46.20876" lon="6.57639">
        <ele>1121.52</ele>
        <time>2019-02-08T14:48:06Z</time>
      </trkpt>
      <trkpt lat="46.20876" lon="6.57639">
        <ele>1123.44</ele>
        <time>2019-02-08T14:48:08Z</time>
      </trkpt>
      <trkpt lat="46.20879" lon="6.57638">
        <ele>1122</ele>
        <time>2019-02-08T14:48:09Z</time>
      </trkpt>
      <trkpt lat="46.20884" lon="6.57635">
        <ele>1122</ele>
        <time>2019-02-08T14:48:24Z</time>
      </trkpt>
    </trkseg>
  </trk>
</gpx>